<?xml version="1.0" encoding="UTF-8" standalone="no" ?>
<gpx xmlns="http://www.topografix.com/GPX/1/1" xmlns:xsi="http://www.w3.org/2001/XMLSchema-instance" xsi:schemaLocation="http://www.topografix.com/GPX/1/1 http://www.topografix.com/GPX/1/1/gpx.xsd" version="1.1" creator="VisuGPX - https://www.visugpx.com">
  <metadata>
    <name>GR800 J5 Abbeville, Saint-Valéry-sur-Somme</name>
    <desc><![CDATA[Grand-Laviers, Boismont,
bug , non stoppé à temps]]></desc>
  </metadata>
  <trk>
    <name><![CDATA[GR800 J5 Abbeville, Saint-Valéry-sur-Somme_1]]></name>
    <trkseg>
      <trkpt lat="50.11104" lon="1.81713">
        <ele>5.6</ele>
        <time>2022-04-22T09:08:34Z</time>
      </trkpt>
      <trkpt lat="50.11106" lon="1.81712">
        <ele>5.6</ele>
        <time>2022-04-22T09:08:35Z</time>
      </trkpt>
      <trkpt lat="50.11107" lon="1.81712">
        <ele>5.6</ele>
        <time>2022-04-22T09:08:36Z</time>
      </trkpt>
      <trkpt lat="50.11109" lon="1.81711">
        <ele>5.6</ele>
        <time>2022-04-22T09:08:38Z</time>
      </trkpt>
      <trkpt lat="50.1111" lon="1.81711">
        <ele>5.6</ele>
        <time>2022-04-22T09:08:39Z</time>
      </trkpt>
      <trkpt lat="50.11112" lon="1.8171">
        <ele>5.6</ele>
        <time>2022-04-22T09:08:40Z</time>
      </trkpt>
      <trkpt lat="50.11113" lon="1.81709">
        <ele>5.6</ele>
        <time>2022-04-22T09:08:41Z</time>
      </trkpt>
      <trkpt lat="50.11113" lon="1.81709">
        <ele>5.6</ele>
        <time>2022-04-22T09:08:42Z</time>
      </trkpt>
      <trkpt lat="50.11114" lon="1.81708">
        <ele>5.6</ele>
        <time>2022-04-22T09:08:43Z</time>
      </trkpt>
      <trkpt lat="50.11115" lon="1.81707">
        <ele>5.6</ele>
        <time>2022-04-22T09:08:44Z</time>
      </trkpt>
      <trkpt lat="50.11115" lon="1.81705">
        <ele>5.6</ele>
        <time>2022-04-22T09:08:45Z</time>
      </trkpt>
      <trkpt lat="50.11114" lon="1.81701">
        <ele>5.6</ele>
        <time>2022-04-22T09:08:46Z</time>
      </trkpt>
      <trkpt lat="50.11113" lon="1.817">
        <ele>5.6</ele>
        <time>2022-04-22T09:08:47Z</time>
      </trkpt>
      <trkpt lat="50.11113" lon="1.81699">
        <ele>5.6</ele>
        <time>2022-04-22T09:08:48Z</time>
      </trkpt>
      <trkpt lat="50.11113" lon="1.81698">
        <ele>5.5</ele>
        <time>2022-04-22T09:08:50Z</time>
      </trkpt>
      <trkpt lat="50.11113" lon="1.81697">
        <ele>5.5</ele>
        <time>2022-04-22T09:08:51Z</time>
      </trkpt>
      <trkpt lat="50.11114" lon="1.81695">
        <ele>5.5</ele>
        <time>2022-04-22T09:08:53Z</time>
      </trkpt>
      <trkpt lat="50.11114" lon="1.81695">
        <ele>5.5</ele>
        <time>2022-04-22T09:08:54Z</time>
      </trkpt>
      <trkpt lat="50.11114" lon="1.81694">
        <ele>5.5</ele>
        <time>2022-04-22T09:08:55Z</time>
      </trkpt>
      <trkpt lat="50.11114" lon="1.81694">
        <ele>5.5</ele>
        <time>2022-04-22T09:08:56Z</time>
      </trkpt>
      <trkpt lat="50.11114" lon="1.81695">
        <ele>5.5</ele>
        <time>2022-04-22T09:08:57Z</time>
      </trkpt>
      <trkpt lat="50.11114" lon="1.81695">
        <ele>5.5</ele>
        <time>2022-04-22T09:08:58Z</time>
      </trkpt>
      <trkpt lat="50.11114" lon="1.81696">
        <ele>5.5</ele>
        <time>2022-04-22T09:08:59Z</time>
      </trkpt>
      <trkpt lat="50.11113" lon="1.81696">
        <ele>5.5</ele>
        <time>2022-04-22T09:09:00Z</time>
      </trkpt>
      <trkpt lat="50.11113" lon="1.81696">
        <ele>5.5</ele>
        <time>2022-04-22T09:09:01Z</time>
      </trkpt>
      <trkpt lat="50.11113" lon="1.81696">
        <ele>5.5</ele>
        <time>2022-04-22T09:09:02Z</time>
      </trkpt>
      <trkpt lat="50.11113" lon="1.81696">
        <ele>5.5</ele>
        <time>2022-04-22T09:09:03Z</time>
      </trkpt>
      <trkpt lat="50.11113" lon="1.81696">
        <ele>5.5</ele>
        <time>2022-04-22T09:09:04Z</time>
      </trkpt>
      <trkpt lat="50.11113" lon="1.81696">
        <ele>5.5</ele>
        <time>2022-04-22T09:09:05Z</time>
      </trkpt>
      <trkpt lat="50.11113" lon="1.81696">
        <ele>5.5</ele>
        <time>2022-04-22T09:09:06Z</time>
      </trkpt>
      <trkpt lat="50.11113" lon="1.81696">
        <ele>5.5</ele>
        <time>2022-04-22T09:09:07Z</time>
      </trkpt>
      <trkpt lat="50.11113" lon="1.81696">
        <ele>5.5</ele>
        <time>2022-04-22T09:09:08Z</time>
      </trkpt>
      <trkpt lat="50.11113" lon="1.81696">
        <ele>5.5</ele>
        <time>2022-04-22T09:09:09Z</time>
      </trkpt>
      <trkpt lat="50.11113" lon="1.81696">
        <ele>5.5</ele>
        <time>2022-04-22T09:09:10Z</time>
      </trkpt>
      <trkpt lat="50.11113" lon="1.81696">
        <ele>5.5</ele>
        <time>2022-04-22T09:09:11Z</time>
      </trkpt>
      <trkpt lat="50.11113" lon="1.81697">
        <ele>5.5</ele>
        <time>2022-04-22T09:09:12Z</time>
      </trkpt>
      <trkpt lat="50.11112" lon="1.81697">
        <ele>5.5</ele>
        <time>2022-04-22T09:09:13Z</time>
      </trkpt>
      <trkpt lat="50.11112" lon="1.81697">
        <ele>5.5</ele>
        <time>2022-04-22T09:09:14Z</time>
      </trkpt>
      <trkpt lat="50.11112" lon="1.81697">
        <ele>5.5</ele>
        <time>2022-04-22T09:09:16Z</time>
      </trkpt>
      <trkpt lat="50.11112" lon="1.81697">
        <ele>5.5</ele>
        <time>2022-04-22T09:09:17Z</time>
      </trkpt>
      <trkpt lat="50.11112" lon="1.81697">
        <ele>5.5</ele>
        <time>2022-04-22T09:09:18Z</time>
      </trkpt>
      <trkpt lat="50.11112" lon="1.81697">
        <ele>5.5</ele>
        <time>2022-04-22T09:09:19Z</time>
      </trkpt>
      <trkpt lat="50.11112" lon="1.81697">
        <ele>5.5</ele>
        <time>2022-04-22T09:09:20Z</time>
      </trkpt>
      <trkpt lat="50.11112" lon="1.81697">
        <ele>5.5</ele>
        <time>2022-04-22T09:09:21Z</time>
      </trkpt>
      <trkpt lat="50.11112" lon="1.81697">
        <ele>5.5</ele>
        <time>2022-04-22T09:09:22Z</time>
      </trkpt>
      <trkpt lat="50.11112" lon="1.81697">
        <ele>5.5</ele>
        <time>2022-04-22T09:09:23Z</time>
      </trkpt>
      <trkpt lat="50.11112" lon="1.81697">
        <ele>5.5</ele>
        <time>2022-04-22T09:09:24Z</time>
      </trkpt>
      <trkpt lat="50.11112" lon="1.81697">
        <ele>5.5</ele>
        <time>2022-04-22T09:09:25Z</time>
      </trkpt>
      <trkpt lat="50.11112" lon="1.81697">
        <ele>5.5</ele>
        <time>2022-04-22T09:09:26Z</time>
      </trkpt>
      <trkpt lat="50.11112" lon="1.81697">
        <ele>5.5</ele>
        <time>2022-04-22T09:09:28Z</time>
      </trkpt>
      <trkpt lat="50.11112" lon="1.81697">
        <ele>5.5</ele>
        <time>2022-04-22T09:09:29Z</time>
      </trkpt>
      <trkpt lat="50.11112" lon="1.81697">
        <ele>5.5</ele>
        <time>2022-04-22T09:09:30Z</time>
      </trkpt>
      <trkpt lat="50.11112" lon="1.81697">
        <ele>5.5</ele>
        <time>2022-04-22T09:09:31Z</time>
      </trkpt>
      <trkpt lat="50.11112" lon="1.81697">
        <ele>5.5</ele>
        <time>2022-04-22T09:09:32Z</time>
      </trkpt>
      <trkpt lat="50.11112" lon="1.81697">
        <ele>5.5</ele>
        <time>2022-04-22T09:09:33Z</time>
      </trkpt>
      <trkpt lat="50.11112" lon="1.81697">
        <ele>5.5</ele>
        <time>2022-04-22T09:09:34Z</time>
      </trkpt>
      <trkpt lat="50.11112" lon="1.81697">
        <ele>5.5</ele>
        <time>2022-04-22T09:09:35Z</time>
      </trkpt>
      <trkpt lat="50.11112" lon="1.81697">
        <ele>5.5</ele>
        <time>2022-04-22T09:09:36Z</time>
      </trkpt>
      <trkpt lat="50.11112" lon="1.81697">
        <ele>5.5</ele>
        <time>2022-04-22T09:09:37Z</time>
      </trkpt>
      <trkpt lat="50.11112" lon="1.81697">
        <ele>5.5</ele>
        <time>2022-04-22T09:09:38Z</time>
      </trkpt>
      <trkpt lat="50.11112" lon="1.81697">
        <ele>5.5</ele>
        <time>2022-04-22T09:09:39Z</time>
      </trkpt>
      <trkpt lat="50.11113" lon="1.81696">
        <ele>5.5</ele>
        <time>2022-04-22T09:09:40Z</time>
      </trkpt>
      <trkpt lat="50.11113" lon="1.81696">
        <ele>5.5</ele>
        <time>2022-04-22T09:09:42Z</time>
      </trkpt>
      <trkpt lat="50.11113" lon="1.81696">
        <ele>5.5</ele>
        <time>2022-04-22T09:09:43Z</time>
      </trkpt>
      <trkpt lat="50.11113" lon="1.81696">
        <ele>5.5</ele>
        <time>2022-04-22T09:09:44Z</time>
      </trkpt>
      <trkpt lat="50.11113" lon="1.81696">
        <ele>5.5</ele>
        <time>2022-04-22T09:09:45Z</time>
      </trkpt>
      <trkpt lat="50.11113" lon="1.81696">
        <ele>5.5</ele>
        <time>2022-04-22T09:09:46Z</time>
      </trkpt>
      <trkpt lat="50.11113" lon="1.81696">
        <ele>5.5</ele>
        <time>2022-04-22T09:09:47Z</time>
      </trkpt>
      <trkpt lat="50.11112" lon="1.81697">
        <ele>5.5</ele>
        <time>2022-04-22T09:09:48Z</time>
      </trkpt>
      <trkpt lat="50.11112" lon="1.81697">
        <ele>5.5</ele>
        <time>2022-04-22T09:09:49Z</time>
      </trkpt>
      <trkpt lat="50.11112" lon="1.81697">
        <ele>5.5</ele>
        <time>2022-04-22T09:09:50Z</time>
      </trkpt>
      <trkpt lat="50.11112" lon="1.81697">
        <ele>5.5</ele>
        <time>2022-04-22T09:09:51Z</time>
      </trkpt>
      <trkpt lat="50.11112" lon="1.81697">
        <ele>5.5</ele>
        <time>2022-04-22T09:09:52Z</time>
      </trkpt>
      <trkpt lat="50.11112" lon="1.81697">
        <ele>5.5</ele>
        <time>2022-04-22T09:09:53Z</time>
      </trkpt>
      <trkpt lat="50.11112" lon="1.81697">
        <ele>5.5</ele>
        <time>2022-04-22T09:09:54Z</time>
      </trkpt>
      <trkpt lat="50.11113" lon="1.81696">
        <ele>5.5</ele>
        <time>2022-04-22T09:09:55Z</time>
      </trkpt>
      <trkpt lat="50.11113" lon="1.81696">
        <ele>5.5</ele>
        <time>2022-04-22T09:09:56Z</time>
      </trkpt>
      <trkpt lat="50.11113" lon="1.81696">
        <ele>5.5</ele>
        <time>2022-04-22T09:09:58Z</time>
      </trkpt>
      <trkpt lat="50.11113" lon="1.81696">
        <ele>5.5</ele>
        <time>2022-04-22T09:09:59Z</time>
      </trkpt>
      <trkpt lat="50.11113" lon="1.81696">
        <ele>5.5</ele>
        <time>2022-04-22T09:10:00Z</time>
      </trkpt>
      <trkpt lat="50.11113" lon="1.81695">
        <ele>5.5</ele>
        <time>2022-04-22T09:10:01Z</time>
      </trkpt>
      <trkpt lat="50.11113" lon="1.81694">
        <ele>5.5</ele>
        <time>2022-04-22T09:10:02Z</time>
      </trkpt>
      <trkpt lat="50.11113" lon="1.81692">
        <ele>5.5</ele>
        <time>2022-04-22T09:10:03Z</time>
      </trkpt>
      <trkpt lat="50.11113" lon="1.81691">
        <ele>5.5</ele>
        <time>2022-04-22T09:10:04Z</time>
      </trkpt>
      <trkpt lat="50.11112" lon="1.81689">
        <ele>5.5</ele>
        <time>2022-04-22T09:10:05Z</time>
      </trkpt>
      <trkpt lat="50.11112" lon="1.81688">
        <ele>5.5</ele>
        <time>2022-04-22T09:10:06Z</time>
      </trkpt>
      <trkpt lat="50.11111" lon="1.81686">
        <ele>5.5</ele>
        <time>2022-04-22T09:10:08Z</time>
      </trkpt>
      <trkpt lat="50.1111" lon="1.81684">
        <ele>5.5</ele>
        <time>2022-04-22T09:10:09Z</time>
      </trkpt>
      <trkpt lat="50.11109" lon="1.81682">
        <ele>5.4</ele>
        <time>2022-04-22T09:10:10Z</time>
      </trkpt>
      <trkpt lat="50.11108" lon="1.8168">
        <ele>5.4</ele>
        <time>2022-04-22T09:10:11Z</time>
      </trkpt>
      <trkpt lat="50.11107" lon="1.81677">
        <ele>5.4</ele>
        <time>2022-04-22T09:10:13Z</time>
      </trkpt>
      <trkpt lat="50.11105" lon="1.81674">
        <ele>5.4</ele>
        <time>2022-04-22T09:10:14Z</time>
      </trkpt>
      <trkpt lat="50.11105" lon="1.81672">
        <ele>5.4</ele>
        <time>2022-04-22T09:10:15Z</time>
      </trkpt>
      <trkpt lat="50.11104" lon="1.81671">
        <ele>5.4</ele>
        <time>2022-04-22T09:10:16Z</time>
      </trkpt>
      <trkpt lat="50.11104" lon="1.81669">
        <ele>5.4</ele>
        <time>2022-04-22T09:10:17Z</time>
      </trkpt>
      <trkpt lat="50.11104" lon="1.81667">
        <ele>5.4</ele>
        <time>2022-04-22T09:10:18Z</time>
      </trkpt>
      <trkpt lat="50.11103" lon="1.81665">
        <ele>5.3</ele>
        <time>2022-04-22T09:10:19Z</time>
      </trkpt>
      <trkpt lat="50.11102" lon="1.81663">
        <ele>5.3</ele>
        <time>2022-04-22T09:10:20Z</time>
      </trkpt>
      <trkpt lat="50.11101" lon="1.8166">
        <ele>5.3</ele>
        <time>2022-04-22T09:10:21Z</time>
      </trkpt>
      <trkpt lat="50.11101" lon="1.8166">
        <ele>5.3</ele>
        <time>2022-04-22T09:10:22Z</time>
      </trkpt>
      <trkpt lat="50.111" lon="1.81659">
        <ele>5.3</ele>
        <time>2022-04-22T09:10:23Z</time>
      </trkpt>
      <trkpt lat="50.111" lon="1.81659">
        <ele>5.3</ele>
        <time>2022-04-22T09:10:24Z</time>
      </trkpt>
      <trkpt lat="50.111" lon="1.81658">
        <ele>5.3</ele>
        <time>2022-04-22T09:10:26Z</time>
      </trkpt>
      <trkpt lat="50.11099" lon="1.81656">
        <ele>5.3</ele>
        <time>2022-04-22T09:10:27Z</time>
      </trkpt>
      <trkpt lat="50.11099" lon="1.81654">
        <ele>5.3</ele>
        <time>2022-04-22T09:10:28Z</time>
      </trkpt>
      <trkpt lat="50.11098" lon="1.8165">
        <ele>5.3</ele>
        <time>2022-04-22T09:10:29Z</time>
      </trkpt>
      <trkpt lat="50.11097" lon="1.81649">
        <ele>5.3</ele>
        <time>2022-04-22T09:10:30Z</time>
      </trkpt>
      <trkpt lat="50.11097" lon="1.81647">
        <ele>5.3</ele>
        <time>2022-04-22T09:10:31Z</time>
      </trkpt>
      <trkpt lat="50.11096" lon="1.81645">
        <ele>5.3</ele>
        <time>2022-04-22T09:10:32Z</time>
      </trkpt>
      <trkpt lat="50.11096" lon="1.81641">
        <ele>5.3</ele>
        <time>2022-04-22T09:10:34Z</time>
      </trkpt>
      <trkpt lat="50.11096" lon="1.81638">
        <ele>5.3</ele>
        <time>2022-04-22T09:10:35Z</time>
      </trkpt>
      <trkpt lat="50.11096" lon="1.81638">
        <ele>5.3</ele>
        <time>2022-04-22T09:10:36Z</time>
      </trkpt>
      <trkpt lat="50.11096" lon="1.81636">
        <ele>5.3</ele>
        <time>2022-04-22T09:10:37Z</time>
      </trkpt>
      <trkpt lat="50.11095" lon="1.81634">
        <ele>5.3</ele>
        <time>2022-04-22T09:10:38Z</time>
      </trkpt>
      <trkpt lat="50.11094" lon="1.8163">
        <ele>5.3</ele>
        <time>2022-04-22T09:10:39Z</time>
      </trkpt>
      <trkpt lat="50.11094" lon="1.81629">
        <ele>5.3</ele>
        <time>2022-04-22T09:10:40Z</time>
      </trkpt>
      <trkpt lat="50.11094" lon="1.81627">
        <ele>5.3</ele>
        <time>2022-04-22T09:10:42Z</time>
      </trkpt>
      <trkpt lat="50.11094" lon="1.81625">
        <ele>5.3</ele>
        <time>2022-04-22T09:10:43Z</time>
      </trkpt>
      <trkpt lat="50.11093" lon="1.81622">
        <ele>5.2</ele>
        <time>2022-04-22T09:10:44Z</time>
      </trkpt>
      <trkpt lat="50.11093" lon="1.81621">
        <ele>5.2</ele>
        <time>2022-04-22T09:10:45Z</time>
      </trkpt>
      <trkpt lat="50.11093" lon="1.81619">
        <ele>5.2</ele>
        <time>2022-04-22T09:10:46Z</time>
      </trkpt>
      <trkpt lat="50.11093" lon="1.81618">
        <ele>5.2</ele>
        <time>2022-04-22T09:10:47Z</time>
      </trkpt>
      <trkpt lat="50.11093" lon="1.81617">
        <ele>5.2</ele>
        <time>2022-04-22T09:10:48Z</time>
      </trkpt>
      <trkpt lat="50.11093" lon="1.81615">
        <ele>5.2</ele>
        <time>2022-04-22T09:10:49Z</time>
      </trkpt>
      <trkpt lat="50.11093" lon="1.81615">
        <ele>5.2</ele>
        <time>2022-04-22T09:10:50Z</time>
      </trkpt>
      <trkpt lat="50.11093" lon="1.81614">
        <ele>5.2</ele>
        <time>2022-04-22T09:10:51Z</time>
      </trkpt>
      <trkpt lat="50.11093" lon="1.81613">
        <ele>5.2</ele>
        <time>2022-04-22T09:10:53Z</time>
      </trkpt>
      <trkpt lat="50.11093" lon="1.81613">
        <ele>5.2</ele>
        <time>2022-04-22T09:10:54Z</time>
      </trkpt>
      <trkpt lat="50.11093" lon="1.81613">
        <ele>5.2</ele>
        <time>2022-04-22T09:10:55Z</time>
      </trkpt>
      <trkpt lat="50.11093" lon="1.81611">
        <ele>5.2</ele>
        <time>2022-04-22T09:10:56Z</time>
      </trkpt>
      <trkpt lat="50.11092" lon="1.81609">
        <ele>5.2</ele>
        <time>2022-04-22T09:10:58Z</time>
      </trkpt>
      <trkpt lat="50.11092" lon="1.81607">
        <ele>5.2</ele>
        <time>2022-04-22T09:10:59Z</time>
      </trkpt>
      <trkpt lat="50.11091" lon="1.81605">
        <ele>5.2</ele>
        <time>2022-04-22T09:11:00Z</time>
      </trkpt>
      <trkpt lat="50.11091" lon="1.81603">
        <ele>5.2</ele>
        <time>2022-04-22T09:11:01Z</time>
      </trkpt>
      <trkpt lat="50.1109" lon="1.81601">
        <ele>5.2</ele>
        <time>2022-04-22T09:11:02Z</time>
      </trkpt>
      <trkpt lat="50.1109" lon="1.81599">
        <ele>5.2</ele>
        <time>2022-04-22T09:11:04Z</time>
      </trkpt>
      <trkpt lat="50.11091" lon="1.81596">
        <ele>5.2</ele>
        <time>2022-04-22T09:11:05Z</time>
      </trkpt>
      <trkpt lat="50.11091" lon="1.81594">
        <ele>5.2</ele>
        <time>2022-04-22T09:11:06Z</time>
      </trkpt>
      <trkpt lat="50.11091" lon="1.81592">
        <ele>5.2</ele>
        <time>2022-04-22T09:11:07Z</time>
      </trkpt>
      <trkpt lat="50.11091" lon="1.81591">
        <ele>5.2</ele>
        <time>2022-04-22T09:11:09Z</time>
      </trkpt>
      <trkpt lat="50.11091" lon="1.81589">
        <ele>5.2</ele>
        <time>2022-04-22T09:11:10Z</time>
      </trkpt>
      <trkpt lat="50.1109" lon="1.81586">
        <ele>5.2</ele>
        <time>2022-04-22T09:11:11Z</time>
      </trkpt>
      <trkpt lat="50.11089" lon="1.81584">
        <ele>5.2</ele>
        <time>2022-04-22T09:11:13Z</time>
      </trkpt>
      <trkpt lat="50.11087" lon="1.81579">
        <ele>5.2</ele>
        <time>2022-04-22T09:11:14Z</time>
      </trkpt>
      <trkpt lat="50.11087" lon="1.81578">
        <ele>5.2</ele>
        <time>2022-04-22T09:11:15Z</time>
      </trkpt>
      <trkpt lat="50.11086" lon="1.81574">
        <ele>5.2</ele>
        <time>2022-04-22T09:11:16Z</time>
      </trkpt>
      <trkpt lat="50.11085" lon="1.81573">
        <ele>5.2</ele>
        <time>2022-04-22T09:11:17Z</time>
      </trkpt>
      <trkpt lat="50.11085" lon="1.81571">
        <ele>5.2</ele>
        <time>2022-04-22T09:11:18Z</time>
      </trkpt>
      <trkpt lat="50.11084" lon="1.81568">
        <ele>5.2</ele>
        <time>2022-04-22T09:11:19Z</time>
      </trkpt>
      <trkpt lat="50.11082" lon="1.81566">
        <ele>5.2</ele>
        <time>2022-04-22T09:11:21Z</time>
      </trkpt>
      <trkpt lat="50.11081" lon="1.81565">
        <ele>5.2</ele>
        <time>2022-04-22T09:11:22Z</time>
      </trkpt>
      <trkpt lat="50.1108" lon="1.8156">
        <ele>5.2</ele>
        <time>2022-04-22T09:11:24Z</time>
      </trkpt>
      <trkpt lat="50.11079" lon="1.81559">
        <ele>5.1</ele>
        <time>2022-04-22T09:11:25Z</time>
      </trkpt>
      <trkpt lat="50.11079" lon="1.81558">
        <ele>5.1</ele>
        <time>2022-04-22T09:11:26Z</time>
      </trkpt>
      <trkpt lat="50.11078" lon="1.81557">
        <ele>5.1</ele>
        <time>2022-04-22T09:11:28Z</time>
      </trkpt>
      <trkpt lat="50.11077" lon="1.81556">
        <ele>5.1</ele>
        <time>2022-04-22T09:11:29Z</time>
      </trkpt>
      <trkpt lat="50.11077" lon="1.81556">
        <ele>5.1</ele>
        <time>2022-04-22T09:11:30Z</time>
      </trkpt>
      <trkpt lat="50.11076" lon="1.81554">
        <ele>5.1</ele>
        <time>2022-04-22T09:11:31Z</time>
      </trkpt>
      <trkpt lat="50.11076" lon="1.81553">
        <ele>5.1</ele>
        <time>2022-04-22T09:11:32Z</time>
      </trkpt>
      <trkpt lat="50.11076" lon="1.81552">
        <ele>5.1</ele>
        <time>2022-04-22T09:11:33Z</time>
      </trkpt>
      <trkpt lat="50.11075" lon="1.81551">
        <ele>5.1</ele>
        <time>2022-04-22T09:11:34Z</time>
      </trkpt>
      <trkpt lat="50.11075" lon="1.81548">
        <ele>5.1</ele>
        <time>2022-04-22T09:11:35Z</time>
      </trkpt>
      <trkpt lat="50.11075" lon="1.81546">
        <ele>5.1</ele>
        <time>2022-04-22T09:11:36Z</time>
      </trkpt>
      <trkpt lat="50.11075" lon="1.81545">
        <ele>5</ele>
        <time>2022-04-22T09:11:37Z</time>
      </trkpt>
      <trkpt lat="50.11075" lon="1.81543">
        <ele>5</ele>
        <time>2022-04-22T09:11:38Z</time>
      </trkpt>
      <trkpt lat="50.11075" lon="1.81541">
        <ele>5</ele>
        <time>2022-04-22T09:11:40Z</time>
      </trkpt>
      <trkpt lat="50.11075" lon="1.81541">
        <ele>5</ele>
        <time>2022-04-22T09:11:41Z</time>
      </trkpt>
      <trkpt lat="50.11075" lon="1.81539">
        <ele>5</ele>
        <time>2022-04-22T09:11:42Z</time>
      </trkpt>
      <trkpt lat="50.11074" lon="1.81536">
        <ele>5</ele>
        <time>2022-04-22T09:11:43Z</time>
      </trkpt>
      <trkpt lat="50.11074" lon="1.81535">
        <ele>5</ele>
        <time>2022-04-22T09:11:45Z</time>
      </trkpt>
      <trkpt lat="50.11074" lon="1.81533">
        <ele>5</ele>
        <time>2022-04-22T09:11:46Z</time>
      </trkpt>
      <trkpt lat="50.11073" lon="1.81531">
        <ele>5</ele>
        <time>2022-04-22T09:11:47Z</time>
      </trkpt>
      <trkpt lat="50.11073" lon="1.81529">
        <ele>5</ele>
        <time>2022-04-22T09:11:48Z</time>
      </trkpt>
      <trkpt lat="50.11071" lon="1.81526">
        <ele>5</ele>
        <time>2022-04-22T09:11:49Z</time>
      </trkpt>
      <trkpt lat="50.1107" lon="1.81525">
        <ele>4.9</ele>
        <time>2022-04-22T09:11:50Z</time>
      </trkpt>
      <trkpt lat="50.1107" lon="1.81524">
        <ele>4.9</ele>
        <time>2022-04-22T09:11:51Z</time>
      </trkpt>
      <trkpt lat="50.1107" lon="1.81522">
        <ele>4.9</ele>
        <time>2022-04-22T09:11:52Z</time>
      </trkpt>
      <trkpt lat="50.11069" lon="1.8152">
        <ele>4.9</ele>
        <time>2022-04-22T09:11:54Z</time>
      </trkpt>
      <trkpt lat="50.11068" lon="1.81519">
        <ele>4.9</ele>
        <time>2022-04-22T09:11:55Z</time>
      </trkpt>
      <trkpt lat="50.11068" lon="1.81517">
        <ele>4.9</ele>
        <time>2022-04-22T09:11:56Z</time>
      </trkpt>
      <trkpt lat="50.11067" lon="1.81515">
        <ele>4.9</ele>
        <time>2022-04-22T09:11:57Z</time>
      </trkpt>
      <trkpt lat="50.11066" lon="1.81513">
        <ele>4.9</ele>
        <time>2022-04-22T09:11:58Z</time>
      </trkpt>
      <trkpt lat="50.11066" lon="1.81512">
        <ele>4.9</ele>
        <time>2022-04-22T09:11:59Z</time>
      </trkpt>
      <trkpt lat="50.11066" lon="1.81511">
        <ele>4.9</ele>
        <time>2022-04-22T09:12:00Z</time>
      </trkpt>
      <trkpt lat="50.11066" lon="1.8151">
        <ele>4.9</ele>
        <time>2022-04-22T09:12:01Z</time>
      </trkpt>
      <trkpt lat="50.11065" lon="1.81508">
        <ele>4.9</ele>
        <time>2022-04-22T09:12:02Z</time>
      </trkpt>
      <trkpt lat="50.11064" lon="1.81506">
        <ele>4.9</ele>
        <time>2022-04-22T09:12:03Z</time>
      </trkpt>
      <trkpt lat="50.11063" lon="1.81502">
        <ele>4.9</ele>
        <time>2022-04-22T09:12:04Z</time>
      </trkpt>
      <trkpt lat="50.11063" lon="1.81501">
        <ele>4.9</ele>
        <time>2022-04-22T09:12:06Z</time>
      </trkpt>
      <trkpt lat="50.11062" lon="1.81499">
        <ele>4.9</ele>
        <time>2022-04-22T09:12:07Z</time>
      </trkpt>
      <trkpt lat="50.11062" lon="1.81498">
        <ele>4.9</ele>
        <time>2022-04-22T09:12:08Z</time>
      </trkpt>
      <trkpt lat="50.11061" lon="1.81496">
        <ele>4.9</ele>
        <time>2022-04-22T09:12:09Z</time>
      </trkpt>
      <trkpt lat="50.1106" lon="1.81494">
        <ele>4.8</ele>
        <time>2022-04-22T09:12:10Z</time>
      </trkpt>
      <trkpt lat="50.11059" lon="1.81492">
        <ele>4.8</ele>
        <time>2022-04-22T09:12:11Z</time>
      </trkpt>
      <trkpt lat="50.11058" lon="1.81488">
        <ele>4.8</ele>
        <time>2022-04-22T09:12:13Z</time>
      </trkpt>
      <trkpt lat="50.11057" lon="1.81487">
        <ele>4.8</ele>
        <time>2022-04-22T09:12:14Z</time>
      </trkpt>
      <trkpt lat="50.11056" lon="1.81484">
        <ele>4.8</ele>
        <time>2022-04-22T09:12:15Z</time>
      </trkpt>
      <trkpt lat="50.11055" lon="1.81481">
        <ele>4.8</ele>
        <time>2022-04-22T09:12:17Z</time>
      </trkpt>
      <trkpt lat="50.11054" lon="1.81479">
        <ele>4.8</ele>
        <time>2022-04-22T09:12:18Z</time>
      </trkpt>
      <trkpt lat="50.11053" lon="1.81477">
        <ele>4.8</ele>
        <time>2022-04-22T09:12:19Z</time>
      </trkpt>
      <trkpt lat="50.11053" lon="1.81475">
        <ele>4.8</ele>
        <time>2022-04-22T09:12:20Z</time>
      </trkpt>
      <trkpt lat="50.11052" lon="1.81473">
        <ele>4.8</ele>
        <time>2022-04-22T09:12:21Z</time>
      </trkpt>
      <trkpt lat="50.11051" lon="1.8147">
        <ele>4.8</ele>
        <time>2022-04-22T09:12:22Z</time>
      </trkpt>
      <trkpt lat="50.11051" lon="1.81469">
        <ele>4.8</ele>
        <time>2022-04-22T09:12:23Z</time>
      </trkpt>
      <trkpt lat="50.11051" lon="1.81467">
        <ele>4.8</ele>
        <time>2022-04-22T09:12:24Z</time>
      </trkpt>
      <trkpt lat="50.1105" lon="1.81465">
        <ele>4.8</ele>
        <time>2022-04-22T09:12:25Z</time>
      </trkpt>
      <trkpt lat="50.1105" lon="1.81463">
        <ele>4.8</ele>
        <time>2022-04-22T09:12:26Z</time>
      </trkpt>
      <trkpt lat="50.1105" lon="1.81461">
        <ele>4.8</ele>
        <time>2022-04-22T09:12:27Z</time>
      </trkpt>
      <trkpt lat="50.11049" lon="1.81456">
        <ele>4.9</ele>
        <time>2022-04-22T09:12:29Z</time>
      </trkpt>
      <trkpt lat="50.11049" lon="1.81455">
        <ele>4.9</ele>
        <time>2022-04-22T09:12:30Z</time>
      </trkpt>
      <trkpt lat="50.11049" lon="1.81453">
        <ele>4.9</ele>
        <time>2022-04-22T09:12:31Z</time>
      </trkpt>
      <trkpt lat="50.11049" lon="1.81451">
        <ele>4.9</ele>
        <time>2022-04-22T09:12:32Z</time>
      </trkpt>
      <trkpt lat="50.11049" lon="1.81447">
        <ele>4.9</ele>
        <time>2022-04-22T09:12:33Z</time>
      </trkpt>
      <trkpt lat="50.11049" lon="1.81447">
        <ele>4.9</ele>
        <time>2022-04-22T09:12:34Z</time>
      </trkpt>
      <trkpt lat="50.1105" lon="1.81445">
        <ele>4.9</ele>
        <time>2022-04-22T09:12:35Z</time>
      </trkpt>
      <trkpt lat="50.1105" lon="1.81444">
        <ele>4.9</ele>
        <time>2022-04-22T09:12:36Z</time>
      </trkpt>
      <trkpt lat="50.1105" lon="1.81442">
        <ele>4.9</ele>
        <time>2022-04-22T09:12:37Z</time>
      </trkpt>
      <trkpt lat="50.11049" lon="1.81439">
        <ele>4.9</ele>
        <time>2022-04-22T09:12:38Z</time>
      </trkpt>
      <trkpt lat="50.11049" lon="1.81439">
        <ele>4.9</ele>
        <time>2022-04-22T09:12:39Z</time>
      </trkpt>
      <trkpt lat="50.11049" lon="1.81437">
        <ele>4.9</ele>
        <time>2022-04-22T09:12:40Z</time>
      </trkpt>
      <trkpt lat="50.1105" lon="1.81434">
        <ele>4.9</ele>
        <time>2022-04-22T09:12:42Z</time>
      </trkpt>
      <trkpt lat="50.1105" lon="1.81433">
        <ele>4.9</ele>
        <time>2022-04-22T09:12:43Z</time>
      </trkpt>
      <trkpt lat="50.1105" lon="1.81431">
        <ele>4.9</ele>
        <time>2022-04-22T09:12:44Z</time>
      </trkpt>
      <trkpt lat="50.1105" lon="1.81428">
        <ele>5</ele>
        <time>2022-04-22T09:12:45Z</time>
      </trkpt>
      <trkpt lat="50.11049" lon="1.81427">
        <ele>5</ele>
        <time>2022-04-22T09:12:46Z</time>
      </trkpt>
      <trkpt lat="50.11049" lon="1.81426">
        <ele>5</ele>
        <time>2022-04-22T09:12:47Z</time>
      </trkpt>
      <trkpt lat="50.11049" lon="1.81422">
        <ele>5</ele>
        <time>2022-04-22T09:12:48Z</time>
      </trkpt>
      <trkpt lat="50.11049" lon="1.81421">
        <ele>5</ele>
        <time>2022-04-22T09:12:49Z</time>
      </trkpt>
      <trkpt lat="50.11049" lon="1.8142">
        <ele>5</ele>
        <time>2022-04-22T09:12:50Z</time>
      </trkpt>
      <trkpt lat="50.11049" lon="1.81418">
        <ele>5</ele>
        <time>2022-04-22T09:12:51Z</time>
      </trkpt>
      <trkpt lat="50.11049" lon="1.81416">
        <ele>5</ele>
        <time>2022-04-22T09:12:52Z</time>
      </trkpt>
      <trkpt lat="50.11048" lon="1.81413">
        <ele>5</ele>
        <time>2022-04-22T09:12:54Z</time>
      </trkpt>
      <trkpt lat="50.11048" lon="1.81412">
        <ele>5</ele>
        <time>2022-04-22T09:12:55Z</time>
      </trkpt>
      <trkpt lat="50.11048" lon="1.8141">
        <ele>5</ele>
        <time>2022-04-22T09:12:56Z</time>
      </trkpt>
      <trkpt lat="50.11048" lon="1.81408">
        <ele>5.1</ele>
        <time>2022-04-22T09:12:57Z</time>
      </trkpt>
      <trkpt lat="50.11047" lon="1.81406">
        <ele>5.1</ele>
        <time>2022-04-22T09:12:58Z</time>
      </trkpt>
      <trkpt lat="50.11047" lon="1.81402">
        <ele>5.1</ele>
        <time>2022-04-22T09:12:59Z</time>
      </trkpt>
      <trkpt lat="50.11047" lon="1.81401">
        <ele>5.1</ele>
        <time>2022-04-22T09:13:01Z</time>
      </trkpt>
      <trkpt lat="50.11047" lon="1.81399">
        <ele>5.1</ele>
        <time>2022-04-22T09:13:02Z</time>
      </trkpt>
      <trkpt lat="50.11046" lon="1.81398">
        <ele>5.1</ele>
        <time>2022-04-22T09:13:03Z</time>
      </trkpt>
      <trkpt lat="50.11046" lon="1.81396">
        <ele>5.1</ele>
        <time>2022-04-22T09:13:04Z</time>
      </trkpt>
      <trkpt lat="50.11046" lon="1.81395">
        <ele>5.1</ele>
        <time>2022-04-22T09:13:05Z</time>
      </trkpt>
      <trkpt lat="50.11046" lon="1.81393">
        <ele>5.1</ele>
        <time>2022-04-22T09:13:06Z</time>
      </trkpt>
      <trkpt lat="50.11046" lon="1.81392">
        <ele>5.1</ele>
        <time>2022-04-22T09:13:07Z</time>
      </trkpt>
      <trkpt lat="50.11046" lon="1.81386">
        <ele>5.1</ele>
        <time>2022-04-22T09:13:08Z</time>
      </trkpt>
      <trkpt lat="50.11046" lon="1.81384">
        <ele>5.2</ele>
        <time>2022-04-22T09:13:10Z</time>
      </trkpt>
      <trkpt lat="50.11046" lon="1.81382">
        <ele>5.2</ele>
        <time>2022-04-22T09:13:11Z</time>
      </trkpt>
      <trkpt lat="50.11046" lon="1.81381">
        <ele>5.2</ele>
        <time>2022-04-22T09:13:12Z</time>
      </trkpt>
      <trkpt lat="50.11046" lon="1.81378">
        <ele>5.2</ele>
        <time>2022-04-22T09:13:13Z</time>
      </trkpt>
      <trkpt lat="50.11046" lon="1.81379">
        <ele>5.2</ele>
        <time>2022-04-22T09:13:14Z</time>
      </trkpt>
      <trkpt lat="50.11046" lon="1.81377">
        <ele>5.2</ele>
        <time>2022-04-22T09:13:15Z</time>
      </trkpt>
      <trkpt lat="50.11046" lon="1.81375">
        <ele>5.2</ele>
        <time>2022-04-22T09:13:16Z</time>
      </trkpt>
      <trkpt lat="50.11046" lon="1.81369">
        <ele>5.2</ele>
        <time>2022-04-22T09:13:18Z</time>
      </trkpt>
      <trkpt lat="50.11046" lon="1.81364">
        <ele>5.2</ele>
        <time>2022-04-22T09:13:19Z</time>
      </trkpt>
      <trkpt lat="50.11046" lon="1.81363">
        <ele>5.2</ele>
        <time>2022-04-22T09:13:20Z</time>
      </trkpt>
      <trkpt lat="50.11046" lon="1.81361">
        <ele>5.2</ele>
        <time>2022-04-22T09:13:21Z</time>
      </trkpt>
      <trkpt lat="50.11046" lon="1.81359">
        <ele>5.2</ele>
        <time>2022-04-22T09:13:22Z</time>
      </trkpt>
      <trkpt lat="50.11046" lon="1.81358">
        <ele>5.2</ele>
        <time>2022-04-22T09:13:23Z</time>
      </trkpt>
      <trkpt lat="50.11045" lon="1.81354">
        <ele>5.3</ele>
        <time>2022-04-22T09:13:24Z</time>
      </trkpt>
      <trkpt lat="50.11045" lon="1.81352">
        <ele>5.3</ele>
        <time>2022-04-22T09:13:26Z</time>
      </trkpt>
      <trkpt lat="50.11045" lon="1.8135">
        <ele>5.3</ele>
        <time>2022-04-22T09:13:27Z</time>
      </trkpt>
      <trkpt lat="50.11045" lon="1.81345">
        <ele>5.3</ele>
        <time>2022-04-22T09:13:28Z</time>
      </trkpt>
      <trkpt lat="50.11044" lon="1.81344">
        <ele>5.3</ele>
        <time>2022-04-22T09:13:29Z</time>
      </trkpt>
      <trkpt lat="50.11044" lon="1.81342">
        <ele>5.3</ele>
        <time>2022-04-22T09:13:30Z</time>
      </trkpt>
      <trkpt lat="50.11044" lon="1.81341">
        <ele>5.3</ele>
        <time>2022-04-22T09:13:31Z</time>
      </trkpt>
      <trkpt lat="50.11044" lon="1.81339">
        <ele>5.3</ele>
        <time>2022-04-22T09:13:32Z</time>
      </trkpt>
      <trkpt lat="50.11045" lon="1.8133">
        <ele>5.3</ele>
        <time>2022-04-22T09:13:33Z</time>
      </trkpt>
      <trkpt lat="50.11045" lon="1.81329">
        <ele>5.3</ele>
        <time>2022-04-22T09:13:34Z</time>
      </trkpt>
      <trkpt lat="50.11045" lon="1.81328">
        <ele>5.4</ele>
        <time>2022-04-22T09:13:35Z</time>
      </trkpt>
      <trkpt lat="50.11045" lon="1.81326">
        <ele>5.4</ele>
        <time>2022-04-22T09:13:37Z</time>
      </trkpt>
      <trkpt lat="50.11045" lon="1.81326">
        <ele>5.4</ele>
        <time>2022-04-22T09:13:38Z</time>
      </trkpt>
      <trkpt lat="50.11045" lon="1.81321">
        <ele>5.4</ele>
        <time>2022-04-22T09:13:39Z</time>
      </trkpt>
      <trkpt lat="50.11045" lon="1.81319">
        <ele>5.4</ele>
        <time>2022-04-22T09:13:40Z</time>
      </trkpt>
      <trkpt lat="50.11045" lon="1.81317">
        <ele>5.4</ele>
        <time>2022-04-22T09:13:41Z</time>
      </trkpt>
      <trkpt lat="50.11045" lon="1.81315">
        <ele>5.4</ele>
        <time>2022-04-22T09:13:43Z</time>
      </trkpt>
      <trkpt lat="50.11045" lon="1.81314">
        <ele>5.4</ele>
        <time>2022-04-22T09:13:44Z</time>
      </trkpt>
      <trkpt lat="50.11045" lon="1.81313">
        <ele>5.4</ele>
        <time>2022-04-22T09:13:45Z</time>
      </trkpt>
      <trkpt lat="50.11046" lon="1.81312">
        <ele>5.4</ele>
        <time>2022-04-22T09:13:46Z</time>
      </trkpt>
      <trkpt lat="50.11046" lon="1.8131">
        <ele>5.4</ele>
        <time>2022-04-22T09:13:47Z</time>
      </trkpt>
      <trkpt lat="50.11047" lon="1.81309">
        <ele>5.4</ele>
        <time>2022-04-22T09:13:48Z</time>
      </trkpt>
      <trkpt lat="50.11046" lon="1.81305">
        <ele>5.4</ele>
        <time>2022-04-22T09:13:49Z</time>
      </trkpt>
      <trkpt lat="50.11046" lon="1.81304">
        <ele>5.4</ele>
        <time>2022-04-22T09:13:50Z</time>
      </trkpt>
      <trkpt lat="50.11046" lon="1.81303">
        <ele>5.4</ele>
        <time>2022-04-22T09:13:52Z</time>
      </trkpt>
      <trkpt lat="50.11047" lon="1.81302">
        <ele>5.4</ele>
        <time>2022-04-22T09:13:53Z</time>
      </trkpt>
      <trkpt lat="50.11047" lon="1.81301">
        <ele>5.4</ele>
        <time>2022-04-22T09:13:54Z</time>
      </trkpt>
      <trkpt lat="50.11046" lon="1.81299">
        <ele>5.4</ele>
        <time>2022-04-22T09:13:55Z</time>
      </trkpt>
      <trkpt lat="50.11046" lon="1.81298">
        <ele>5.4</ele>
        <time>2022-04-22T09:13:56Z</time>
      </trkpt>
      <trkpt lat="50.11047" lon="1.81296">
        <ele>5.4</ele>
        <time>2022-04-22T09:13:57Z</time>
      </trkpt>
      <trkpt lat="50.11047" lon="1.81295">
        <ele>5.4</ele>
        <time>2022-04-22T09:13:58Z</time>
      </trkpt>
      <trkpt lat="50.11048" lon="1.81293">
        <ele>5.4</ele>
        <time>2022-04-22T09:13:59Z</time>
      </trkpt>
      <trkpt lat="50.11049" lon="1.81292">
        <ele>5.4</ele>
        <time>2022-04-22T09:14:00Z</time>
      </trkpt>
      <trkpt lat="50.11049" lon="1.8129">
        <ele>5.4</ele>
        <time>2022-04-22T09:14:01Z</time>
      </trkpt>
      <trkpt lat="50.11049" lon="1.81289">
        <ele>5.4</ele>
        <time>2022-04-22T09:14:03Z</time>
      </trkpt>
      <trkpt lat="50.11049" lon="1.81287">
        <ele>5.4</ele>
        <time>2022-04-22T09:14:04Z</time>
      </trkpt>
      <trkpt lat="50.11048" lon="1.81286">
        <ele>5.4</ele>
        <time>2022-04-22T09:14:05Z</time>
      </trkpt>
      <trkpt lat="50.11049" lon="1.81285">
        <ele>5.4</ele>
        <time>2022-04-22T09:14:06Z</time>
      </trkpt>
      <trkpt lat="50.11049" lon="1.81283">
        <ele>5.4</ele>
        <time>2022-04-22T09:14:08Z</time>
      </trkpt>
      <trkpt lat="50.11047" lon="1.81287">
        <ele>5.4</ele>
        <time>2022-04-22T09:14:09Z</time>
      </trkpt>
      <trkpt lat="50.11047" lon="1.81288">
        <ele>5.4</ele>
        <time>2022-04-22T09:14:10Z</time>
      </trkpt>
      <trkpt lat="50.11046" lon="1.8129">
        <ele>5.4</ele>
        <time>2022-04-22T09:14:11Z</time>
      </trkpt>
      <trkpt lat="50.11046" lon="1.81292">
        <ele>5.4</ele>
        <time>2022-04-22T09:14:13Z</time>
      </trkpt>
      <trkpt lat="50.11044" lon="1.81295">
        <ele>5.4</ele>
        <time>2022-04-22T09:14:14Z</time>
      </trkpt>
      <trkpt lat="50.11044" lon="1.81295">
        <ele>5.4</ele>
        <time>2022-04-22T09:14:15Z</time>
      </trkpt>
      <trkpt lat="50.11043" lon="1.81295">
        <ele>5.4</ele>
        <time>2022-04-22T09:14:16Z</time>
      </trkpt>
      <trkpt lat="50.11043" lon="1.81294">
        <ele>5.4</ele>
        <time>2022-04-22T09:14:17Z</time>
      </trkpt>
      <trkpt lat="50.11043" lon="1.81294">
        <ele>5.4</ele>
        <time>2022-04-22T09:14:18Z</time>
      </trkpt>
      <trkpt lat="50.11043" lon="1.81294">
        <ele>5.4</ele>
        <time>2022-04-22T09:14:20Z</time>
      </trkpt>
      <trkpt lat="50.11044" lon="1.81295">
        <ele>5.4</ele>
        <time>2022-04-22T09:14:21Z</time>
      </trkpt>
      <trkpt lat="50.11044" lon="1.81295">
        <ele>5.4</ele>
        <time>2022-04-22T09:14:22Z</time>
      </trkpt>
      <trkpt lat="50.11044" lon="1.81296">
        <ele>5.4</ele>
        <time>2022-04-22T09:14:23Z</time>
      </trkpt>
      <trkpt lat="50.11044" lon="1.81296">
        <ele>5.4</ele>
        <time>2022-04-22T09:14:24Z</time>
      </trkpt>
      <trkpt lat="50.11044" lon="1.81296">
        <ele>5.4</ele>
        <time>2022-04-22T09:14:25Z</time>
      </trkpt>
      <trkpt lat="50.11044" lon="1.81296">
        <ele>5.4</ele>
        <time>2022-04-22T09:14:26Z</time>
      </trkpt>
      <trkpt lat="50.11044" lon="1.81296">
        <ele>5.4</ele>
        <time>2022-04-22T09:14:27Z</time>
      </trkpt>
      <trkpt lat="50.11044" lon="1.81296">
        <ele>5.4</ele>
        <time>2022-04-22T09:14:28Z</time>
      </trkpt>
      <trkpt lat="50.11044" lon="1.81296">
        <ele>5.4</ele>
        <time>2022-04-22T09:14:29Z</time>
      </trkpt>
      <trkpt lat="50.11044" lon="1.81295">
        <ele>5.4</ele>
        <time>2022-04-22T09:14:30Z</time>
      </trkpt>
      <trkpt lat="50.11044" lon="1.81295">
        <ele>5.4</ele>
        <time>2022-04-22T09:14:31Z</time>
      </trkpt>
      <trkpt lat="50.11045" lon="1.81294">
        <ele>5.4</ele>
        <time>2022-04-22T09:14:32Z</time>
      </trkpt>
      <trkpt lat="50.11045" lon="1.81293">
        <ele>5.4</ele>
        <time>2022-04-22T09:14:34Z</time>
      </trkpt>
      <trkpt lat="50.11046" lon="1.81293">
        <ele>5.4</ele>
        <time>2022-04-22T09:14:35Z</time>
      </trkpt>
      <trkpt lat="50.11047" lon="1.81291">
        <ele>5.4</ele>
        <time>2022-04-22T09:14:36Z</time>
      </trkpt>
      <trkpt lat="50.11048" lon="1.81289">
        <ele>5.4</ele>
        <time>2022-04-22T09:14:37Z</time>
      </trkpt>
      <trkpt lat="50.1105" lon="1.81287">
        <ele>5.4</ele>
        <time>2022-04-22T09:14:39Z</time>
      </trkpt>
      <trkpt lat="50.11051" lon="1.81286">
        <ele>5.4</ele>
        <time>2022-04-22T09:14:40Z</time>
      </trkpt>
      <trkpt lat="50.11053" lon="1.81283">
        <ele>5.4</ele>
        <time>2022-04-22T09:14:41Z</time>
      </trkpt>
      <trkpt lat="50.11053" lon="1.81282">
        <ele>5.4</ele>
        <time>2022-04-22T09:14:42Z</time>
      </trkpt>
      <trkpt lat="50.11055" lon="1.81278">
        <ele>5.4</ele>
        <time>2022-04-22T09:14:43Z</time>
      </trkpt>
      <trkpt lat="50.11055" lon="1.81277">
        <ele>5.4</ele>
        <time>2022-04-22T09:14:44Z</time>
      </trkpt>
      <trkpt lat="50.11056" lon="1.81275">
        <ele>5.4</ele>
        <time>2022-04-22T09:14:45Z</time>
      </trkpt>
      <trkpt lat="50.11056" lon="1.81274">
        <ele>5.4</ele>
        <time>2022-04-22T09:14:46Z</time>
      </trkpt>
      <trkpt lat="50.11057" lon="1.81272">
        <ele>5.4</ele>
        <time>2022-04-22T09:14:47Z</time>
      </trkpt>
      <trkpt lat="50.11057" lon="1.8127">
        <ele>5.4</ele>
        <time>2022-04-22T09:14:49Z</time>
      </trkpt>
      <trkpt lat="50.11058" lon="1.81267">
        <ele>5.4</ele>
        <time>2022-04-22T09:14:50Z</time>
      </trkpt>
      <trkpt lat="50.11058" lon="1.81266">
        <ele>5.4</ele>
        <time>2022-04-22T09:14:51Z</time>
      </trkpt>
      <trkpt lat="50.11058" lon="1.81265">
        <ele>5.4</ele>
        <time>2022-04-22T09:14:52Z</time>
      </trkpt>
      <trkpt lat="50.11058" lon="1.81263">
        <ele>5.4</ele>
        <time>2022-04-22T09:14:53Z</time>
      </trkpt>
      <trkpt lat="50.11058" lon="1.81262">
        <ele>5.5</ele>
        <time>2022-04-22T09:14:54Z</time>
      </trkpt>
      <trkpt lat="50.11058" lon="1.81259">
        <ele>5.5</ele>
        <time>2022-04-22T09:14:55Z</time>
      </trkpt>
      <trkpt lat="50.11058" lon="1.81258">
        <ele>5.5</ele>
        <time>2022-04-22T09:14:56Z</time>
      </trkpt>
      <trkpt lat="50.11059" lon="1.81256">
        <ele>5.5</ele>
        <time>2022-04-22T09:14:57Z</time>
      </trkpt>
      <trkpt lat="50.11059" lon="1.81255">
        <ele>5.5</ele>
        <time>2022-04-22T09:14:58Z</time>
      </trkpt>
      <trkpt lat="50.11059" lon="1.81253">
        <ele>5.5</ele>
        <time>2022-04-22T09:15:00Z</time>
      </trkpt>
      <trkpt lat="50.11059" lon="1.81252">
        <ele>5.5</ele>
        <time>2022-04-22T09:15:01Z</time>
      </trkpt>
      <trkpt lat="50.1106" lon="1.81251">
        <ele>5.5</ele>
        <time>2022-04-22T09:15:02Z</time>
      </trkpt>
      <trkpt lat="50.1106" lon="1.81249">
        <ele>5.5</ele>
        <time>2022-04-22T09:15:03Z</time>
      </trkpt>
      <trkpt lat="50.1106" lon="1.81246">
        <ele>5.5</ele>
        <time>2022-04-22T09:15:05Z</time>
      </trkpt>
      <trkpt lat="50.1106" lon="1.81244">
        <ele>5.5</ele>
        <time>2022-04-22T09:15:06Z</time>
      </trkpt>
      <trkpt lat="50.11061" lon="1.81243">
        <ele>5.5</ele>
        <time>2022-04-22T09:15:07Z</time>
      </trkpt>
      <trkpt lat="50.11061" lon="1.81241">
        <ele>5.5</ele>
        <time>2022-04-22T09:15:08Z</time>
      </trkpt>
      <trkpt lat="50.11062" lon="1.81238">
        <ele>5.5</ele>
        <time>2022-04-22T09:15:09Z</time>
      </trkpt>
      <trkpt lat="50.11062" lon="1.81238">
        <ele>5.5</ele>
        <time>2022-04-22T09:15:11Z</time>
      </trkpt>
      <trkpt lat="50.11063" lon="1.81237">
        <ele>5.5</ele>
        <time>2022-04-22T09:15:12Z</time>
      </trkpt>
      <trkpt lat="50.11064" lon="1.81234">
        <ele>5.5</ele>
        <time>2022-04-22T09:15:13Z</time>
      </trkpt>
      <trkpt lat="50.11064" lon="1.81232">
        <ele>5.5</ele>
        <time>2022-04-22T09:15:14Z</time>
      </trkpt>
      <trkpt lat="50.11065" lon="1.81231">
        <ele>5.5</ele>
        <time>2022-04-22T09:15:15Z</time>
      </trkpt>
      <trkpt lat="50.11065" lon="1.81229">
        <ele>5.5</ele>
        <time>2022-04-22T09:15:16Z</time>
      </trkpt>
      <trkpt lat="50.11065" lon="1.81228">
        <ele>5.5</ele>
        <time>2022-04-22T09:15:17Z</time>
      </trkpt>
      <trkpt lat="50.11065" lon="1.81226">
        <ele>5.5</ele>
        <time>2022-04-22T09:15:18Z</time>
      </trkpt>
      <trkpt lat="50.11066" lon="1.81223">
        <ele>5.5</ele>
        <time>2022-04-22T09:15:20Z</time>
      </trkpt>
      <trkpt lat="50.11066" lon="1.81221">
        <ele>5.5</ele>
        <time>2022-04-22T09:15:21Z</time>
      </trkpt>
      <trkpt lat="50.11066" lon="1.81219">
        <ele>5.5</ele>
        <time>2022-04-22T09:15:22Z</time>
      </trkpt>
      <trkpt lat="50.11066" lon="1.81217">
        <ele>5.5</ele>
        <time>2022-04-22T09:15:23Z</time>
      </trkpt>
      <trkpt lat="50.11066" lon="1.81215">
        <ele>5.5</ele>
        <time>2022-04-22T09:15:24Z</time>
      </trkpt>
      <trkpt lat="50.11066" lon="1.81213">
        <ele>5.5</ele>
        <time>2022-04-22T09:15:25Z</time>
      </trkpt>
      <trkpt lat="50.11066" lon="1.81209">
        <ele>5.5</ele>
        <time>2022-04-22T09:15:26Z</time>
      </trkpt>
      <trkpt lat="50.11067" lon="1.81208">
        <ele>5.5</ele>
        <time>2022-04-22T09:15:27Z</time>
      </trkpt>
      <trkpt lat="50.11067" lon="1.81206">
        <ele>5.5</ele>
        <time>2022-04-22T09:15:28Z</time>
      </trkpt>
      <trkpt lat="50.11067" lon="1.81203">
        <ele>5.5</ele>
        <time>2022-04-22T09:15:30Z</time>
      </trkpt>
      <trkpt lat="50.11067" lon="1.81201">
        <ele>5.5</ele>
        <time>2022-04-22T09:15:31Z</time>
      </trkpt>
      <trkpt lat="50.11067" lon="1.812">
        <ele>5.5</ele>
        <time>2022-04-22T09:15:32Z</time>
      </trkpt>
      <trkpt lat="50.11068" lon="1.81196">
        <ele>5.5</ele>
        <time>2022-04-22T09:15:33Z</time>
      </trkpt>
      <trkpt lat="50.11068" lon="1.81194">
        <ele>5.5</ele>
        <time>2022-04-22T09:15:34Z</time>
      </trkpt>
      <trkpt lat="50.11068" lon="1.81192">
        <ele>5.5</ele>
        <time>2022-04-22T09:15:35Z</time>
      </trkpt>
      <trkpt lat="50.11068" lon="1.81191">
        <ele>5.5</ele>
        <time>2022-04-22T09:15:37Z</time>
      </trkpt>
      <trkpt lat="50.11069" lon="1.81189">
        <ele>5.5</ele>
        <time>2022-04-22T09:15:38Z</time>
      </trkpt>
      <trkpt lat="50.11069" lon="1.81188">
        <ele>5.5</ele>
        <time>2022-04-22T09:15:39Z</time>
      </trkpt>
      <trkpt lat="50.1107" lon="1.81184">
        <ele>5.5</ele>
        <time>2022-04-22T09:15:40Z</time>
      </trkpt>
      <trkpt lat="50.1107" lon="1.81183">
        <ele>5.5</ele>
        <time>2022-04-22T09:15:41Z</time>
      </trkpt>
      <trkpt lat="50.1107" lon="1.81181">
        <ele>5.5</ele>
        <time>2022-04-22T09:15:42Z</time>
      </trkpt>
      <trkpt lat="50.1107" lon="1.81179">
        <ele>5.5</ele>
        <time>2022-04-22T09:15:43Z</time>
      </trkpt>
      <trkpt lat="50.11071" lon="1.81176">
        <ele>5.5</ele>
        <time>2022-04-22T09:15:44Z</time>
      </trkpt>
      <trkpt lat="50.11071" lon="1.81174">
        <ele>5.5</ele>
        <time>2022-04-22T09:15:45Z</time>
      </trkpt>
      <trkpt lat="50.11071" lon="1.81173">
        <ele>5.5</ele>
        <time>2022-04-22T09:15:46Z</time>
      </trkpt>
      <trkpt lat="50.11072" lon="1.81171">
        <ele>5.5</ele>
        <time>2022-04-22T09:15:47Z</time>
      </trkpt>
      <trkpt lat="50.11072" lon="1.81169">
        <ele>5.5</ele>
        <time>2022-04-22T09:15:48Z</time>
      </trkpt>
      <trkpt lat="50.11072" lon="1.81167">
        <ele>5.5</ele>
        <time>2022-04-22T09:15:50Z</time>
      </trkpt>
      <trkpt lat="50.11072" lon="1.81164">
        <ele>5.5</ele>
        <time>2022-04-22T09:15:51Z</time>
      </trkpt>
      <trkpt lat="50.11072" lon="1.81162">
        <ele>5.5</ele>
        <time>2022-04-22T09:15:52Z</time>
      </trkpt>
      <trkpt lat="50.11072" lon="1.81161">
        <ele>5.5</ele>
        <time>2022-04-22T09:15:53Z</time>
      </trkpt>
      <trkpt lat="50.11073" lon="1.81158">
        <ele>5.5</ele>
        <time>2022-04-22T09:15:55Z</time>
      </trkpt>
      <trkpt lat="50.11073" lon="1.81156">
        <ele>5.5</ele>
        <time>2022-04-22T09:15:56Z</time>
      </trkpt>
      <trkpt lat="50.11073" lon="1.81154">
        <ele>5.5</ele>
        <time>2022-04-22T09:15:57Z</time>
      </trkpt>
      <trkpt lat="50.11073" lon="1.81153">
        <ele>5.5</ele>
        <time>2022-04-22T09:15:58Z</time>
      </trkpt>
      <trkpt lat="50.11073" lon="1.81151">
        <ele>5.5</ele>
        <time>2022-04-22T09:15:59Z</time>
      </trkpt>
      <trkpt lat="50.11074" lon="1.81148">
        <ele>5.5</ele>
        <time>2022-04-22T09:16:00Z</time>
      </trkpt>
      <trkpt lat="50.11074" lon="1.81146">
        <ele>5.5</ele>
        <time>2022-04-22T09:16:01Z</time>
      </trkpt>
      <trkpt lat="50.11074" lon="1.81143">
        <ele>5.4</ele>
        <time>2022-04-22T09:16:02Z</time>
      </trkpt>
      <trkpt lat="50.11074" lon="1.81141">
        <ele>5.4</ele>
        <time>2022-04-22T09:16:04Z</time>
      </trkpt>
      <trkpt lat="50.11075" lon="1.8114">
        <ele>5.4</ele>
        <time>2022-04-22T09:16:05Z</time>
      </trkpt>
      <trkpt lat="50.11075" lon="1.81138">
        <ele>5.4</ele>
        <time>2022-04-22T09:16:06Z</time>
      </trkpt>
      <trkpt lat="50.11075" lon="1.81136">
        <ele>5.4</ele>
        <time>2022-04-22T09:16:07Z</time>
      </trkpt>
      <trkpt lat="50.11075" lon="1.81134">
        <ele>5.4</ele>
        <time>2022-04-22T09:16:09Z</time>
      </trkpt>
      <trkpt lat="50.11076" lon="1.81129">
        <ele>5.4</ele>
        <time>2022-04-22T09:16:11Z</time>
      </trkpt>
      <trkpt lat="50.11076" lon="1.81129">
        <ele>5.4</ele>
        <time>2022-04-22T09:16:12Z</time>
      </trkpt>
      <trkpt lat="50.11077" lon="1.81127">
        <ele>5.4</ele>
        <time>2022-04-22T09:16:13Z</time>
      </trkpt>
      <trkpt lat="50.11077" lon="1.81124">
        <ele>5.4</ele>
        <time>2022-04-22T09:16:14Z</time>
      </trkpt>
      <trkpt lat="50.11078" lon="1.81121">
        <ele>5.4</ele>
        <time>2022-04-22T09:16:15Z</time>
      </trkpt>
      <trkpt lat="50.11078" lon="1.8112">
        <ele>5.4</ele>
        <time>2022-04-22T09:16:16Z</time>
      </trkpt>
      <trkpt lat="50.11078" lon="1.81118">
        <ele>5.4</ele>
        <time>2022-04-22T09:16:17Z</time>
      </trkpt>
      <trkpt lat="50.11079" lon="1.81117">
        <ele>5.4</ele>
        <time>2022-04-22T09:16:18Z</time>
      </trkpt>
      <trkpt lat="50.11079" lon="1.81115">
        <ele>5.4</ele>
        <time>2022-04-22T09:16:19Z</time>
      </trkpt>
      <trkpt lat="50.1108" lon="1.81113">
        <ele>5.4</ele>
        <time>2022-04-22T09:16:21Z</time>
      </trkpt>
      <trkpt lat="50.11081" lon="1.8111">
        <ele>5.4</ele>
        <time>2022-04-22T09:16:22Z</time>
      </trkpt>
      <trkpt lat="50.11081" lon="1.81108">
        <ele>5.4</ele>
        <time>2022-04-22T09:16:23Z</time>
      </trkpt>
      <trkpt lat="50.11081" lon="1.81107">
        <ele>5.4</ele>
        <time>2022-04-22T09:16:24Z</time>
      </trkpt>
      <trkpt lat="50.11082" lon="1.81105">
        <ele>5.4</ele>
        <time>2022-04-22T09:16:25Z</time>
      </trkpt>
      <trkpt lat="50.11083" lon="1.81103">
        <ele>5.4</ele>
        <time>2022-04-22T09:16:26Z</time>
      </trkpt>
      <trkpt lat="50.11084" lon="1.81099">
        <ele>5.4</ele>
        <time>2022-04-22T09:16:27Z</time>
      </trkpt>
      <trkpt lat="50.11084" lon="1.81097">
        <ele>5.4</ele>
        <time>2022-04-22T09:16:29Z</time>
      </trkpt>
      <trkpt lat="50.11085" lon="1.81095">
        <ele>5.4</ele>
        <time>2022-04-22T09:16:30Z</time>
      </trkpt>
      <trkpt lat="50.11085" lon="1.81094">
        <ele>5.4</ele>
        <time>2022-04-22T09:16:31Z</time>
      </trkpt>
      <trkpt lat="50.11086" lon="1.81091">
        <ele>5.4</ele>
        <time>2022-04-22T09:16:32Z</time>
      </trkpt>
      <trkpt lat="50.11087" lon="1.8109">
        <ele>5.4</ele>
        <time>2022-04-22T09:16:33Z</time>
      </trkpt>
      <trkpt lat="50.11087" lon="1.81088">
        <ele>5.4</ele>
        <time>2022-04-22T09:16:34Z</time>
      </trkpt>
      <trkpt lat="50.11088" lon="1.81085">
        <ele>5.4</ele>
        <time>2022-04-22T09:16:36Z</time>
      </trkpt>
      <trkpt lat="50.11088" lon="1.81084">
        <ele>5.4</ele>
        <time>2022-04-22T09:16:37Z</time>
      </trkpt>
      <trkpt lat="50.11089" lon="1.81083">
        <ele>5.4</ele>
        <time>2022-04-22T09:16:38Z</time>
      </trkpt>
      <trkpt lat="50.1109" lon="1.81081">
        <ele>5.4</ele>
        <time>2022-04-22T09:16:39Z</time>
      </trkpt>
      <trkpt lat="50.11091" lon="1.81078">
        <ele>5.4</ele>
        <time>2022-04-22T09:16:40Z</time>
      </trkpt>
      <trkpt lat="50.11092" lon="1.81075">
        <ele>5.4</ele>
        <time>2022-04-22T09:16:41Z</time>
      </trkpt>
      <trkpt lat="50.11092" lon="1.81074">
        <ele>5.4</ele>
        <time>2022-04-22T09:16:42Z</time>
      </trkpt>
      <trkpt lat="50.11092" lon="1.81073">
        <ele>5.4</ele>
        <time>2022-04-22T09:16:43Z</time>
      </trkpt>
      <trkpt lat="50.11093" lon="1.81071">
        <ele>5.4</ele>
        <time>2022-04-22T09:16:44Z</time>
      </trkpt>
      <trkpt lat="50.11094" lon="1.81069">
        <ele>5.4</ele>
        <time>2022-04-22T09:16:45Z</time>
      </trkpt>
      <trkpt lat="50.11095" lon="1.81066">
        <ele>5.4</ele>
        <time>2022-04-22T09:16:47Z</time>
      </trkpt>
      <trkpt lat="50.11095" lon="1.81065">
        <ele>5.4</ele>
        <time>2022-04-22T09:16:48Z</time>
      </trkpt>
      <trkpt lat="50.11096" lon="1.81063">
        <ele>5.4</ele>
        <time>2022-04-22T09:16:49Z</time>
      </trkpt>
      <trkpt lat="50.11097" lon="1.8106">
        <ele>5.4</ele>
        <time>2022-04-22T09:16:50Z</time>
      </trkpt>
      <trkpt lat="50.11098" lon="1.81058">
        <ele>5.5</ele>
        <time>2022-04-22T09:16:52Z</time>
      </trkpt>
      <trkpt lat="50.11099" lon="1.81057">
        <ele>5.5</ele>
        <time>2022-04-22T09:16:53Z</time>
      </trkpt>
      <trkpt lat="50.11099" lon="1.81055">
        <ele>5.5</ele>
        <time>2022-04-22T09:16:54Z</time>
      </trkpt>
      <trkpt lat="50.111" lon="1.81054">
        <ele>5.5</ele>
        <time>2022-04-22T09:16:55Z</time>
      </trkpt>
      <trkpt lat="50.11101" lon="1.81051">
        <ele>5.5</ele>
        <time>2022-04-22T09:16:56Z</time>
      </trkpt>
      <trkpt lat="50.11102" lon="1.81048">
        <ele>5.5</ele>
        <time>2022-04-22T09:16:57Z</time>
      </trkpt>
      <trkpt lat="50.11102" lon="1.81047">
        <ele>5.5</ele>
        <time>2022-04-22T09:16:58Z</time>
      </trkpt>
      <trkpt lat="50.11102" lon="1.81046">
        <ele>5.5</ele>
        <time>2022-04-22T09:16:59Z</time>
      </trkpt>
      <trkpt lat="50.11103" lon="1.81043">
        <ele>5.5</ele>
        <time>2022-04-22T09:17:00Z</time>
      </trkpt>
      <trkpt lat="50.11103" lon="1.81042">
        <ele>5.5</ele>
        <time>2022-04-22T09:17:01Z</time>
      </trkpt>
      <trkpt lat="50.11104" lon="1.8104">
        <ele>5.5</ele>
        <time>2022-04-22T09:17:02Z</time>
      </trkpt>
      <trkpt lat="50.11104" lon="1.81039">
        <ele>5.5</ele>
        <time>2022-04-22T09:17:03Z</time>
      </trkpt>
      <trkpt lat="50.11105" lon="1.81037">
        <ele>5.5</ele>
        <time>2022-04-22T09:17:04Z</time>
      </trkpt>
      <trkpt lat="50.11105" lon="1.81034">
        <ele>5.5</ele>
        <time>2022-04-22T09:17:05Z</time>
      </trkpt>
      <trkpt lat="50.11106" lon="1.81033">
        <ele>5.5</ele>
        <time>2022-04-22T09:17:06Z</time>
      </trkpt>
      <trkpt lat="50.11106" lon="1.81031">
        <ele>5.5</ele>
        <time>2022-04-22T09:17:08Z</time>
      </trkpt>
      <trkpt lat="50.11107" lon="1.8103">
        <ele>5.5</ele>
        <time>2022-04-22T09:17:09Z</time>
      </trkpt>
      <trkpt lat="50.11107" lon="1.81028">
        <ele>5.5</ele>
        <time>2022-04-22T09:17:10Z</time>
      </trkpt>
      <trkpt lat="50.11107" lon="1.81026">
        <ele>5.5</ele>
        <time>2022-04-22T09:17:11Z</time>
      </trkpt>
      <trkpt lat="50.11108" lon="1.81024">
        <ele>5.5</ele>
        <time>2022-04-22T09:17:12Z</time>
      </trkpt>
      <trkpt lat="50.11108" lon="1.81022">
        <ele>5.5</ele>
        <time>2022-04-22T09:17:13Z</time>
      </trkpt>
      <trkpt lat="50.11108" lon="1.8102">
        <ele>5.5</ele>
        <time>2022-04-22T09:17:14Z</time>
      </trkpt>
      <trkpt lat="50.11108" lon="1.81017">
        <ele>5.5</ele>
        <time>2022-04-22T09:17:15Z</time>
      </trkpt>
      <trkpt lat="50.11108" lon="1.81016">
        <ele>5.5</ele>
        <time>2022-04-22T09:17:16Z</time>
      </trkpt>
      <trkpt lat="50.11109" lon="1.81014">
        <ele>5.5</ele>
        <time>2022-04-22T09:17:17Z</time>
      </trkpt>
      <trkpt lat="50.11109" lon="1.81012">
        <ele>5.5</ele>
        <time>2022-04-22T09:17:18Z</time>
      </trkpt>
      <trkpt lat="50.1111" lon="1.81009">
        <ele>5.5</ele>
        <time>2022-04-22T09:17:19Z</time>
      </trkpt>
      <trkpt lat="50.1111" lon="1.81007">
        <ele>5.5</ele>
        <time>2022-04-22T09:17:21Z</time>
      </trkpt>
      <trkpt lat="50.1111" lon="1.81005">
        <ele>5.5</ele>
        <time>2022-04-22T09:17:22Z</time>
      </trkpt>
      <trkpt lat="50.11111" lon="1.81004">
        <ele>5.6</ele>
        <time>2022-04-22T09:17:23Z</time>
      </trkpt>
      <trkpt lat="50.11111" lon="1.81002">
        <ele>5.6</ele>
        <time>2022-04-22T09:17:24Z</time>
      </trkpt>
      <trkpt lat="50.11111" lon="1.81">
        <ele>5.6</ele>
        <time>2022-04-22T09:17:25Z</time>
      </trkpt>
      <trkpt lat="50.11112" lon="1.80997">
        <ele>5.6</ele>
        <time>2022-04-22T09:17:26Z</time>
      </trkpt>
      <trkpt lat="50.11112" lon="1.80996">
        <ele>5.6</ele>
        <time>2022-04-22T09:17:27Z</time>
      </trkpt>
      <trkpt lat="50.11112" lon="1.80994">
        <ele>5.6</ele>
        <time>2022-04-22T09:17:28Z</time>
      </trkpt>
      <trkpt lat="50.11113" lon="1.80993">
        <ele>5.6</ele>
        <time>2022-04-22T09:17:29Z</time>
      </trkpt>
      <trkpt lat="50.11113" lon="1.8099">
        <ele>5.6</ele>
        <time>2022-04-22T09:17:31Z</time>
      </trkpt>
      <trkpt lat="50.11114" lon="1.80989">
        <ele>5.6</ele>
        <time>2022-04-22T09:17:32Z</time>
      </trkpt>
      <trkpt lat="50.11114" lon="1.80987">
        <ele>5.6</ele>
        <time>2022-04-22T09:17:33Z</time>
      </trkpt>
      <trkpt lat="50.11115" lon="1.80984">
        <ele>5.6</ele>
        <time>2022-04-22T09:17:35Z</time>
      </trkpt>
      <trkpt lat="50.11116" lon="1.80982">
        <ele>5.6</ele>
        <time>2022-04-22T09:17:36Z</time>
      </trkpt>
      <trkpt lat="50.11116" lon="1.80981">
        <ele>5.6</ele>
        <time>2022-04-22T09:17:37Z</time>
      </trkpt>
      <trkpt lat="50.11117" lon="1.80979">
        <ele>5.6</ele>
        <time>2022-04-22T09:17:38Z</time>
      </trkpt>
      <trkpt lat="50.11117" lon="1.80976">
        <ele>5.6</ele>
        <time>2022-04-22T09:17:39Z</time>
      </trkpt>
      <trkpt lat="50.11118" lon="1.80975">
        <ele>5.6</ele>
        <time>2022-04-22T09:17:40Z</time>
      </trkpt>
      <trkpt lat="50.11118" lon="1.80973">
        <ele>5.6</ele>
        <time>2022-04-22T09:17:41Z</time>
      </trkpt>
      <trkpt lat="50.11118" lon="1.80972">
        <ele>5.6</ele>
        <time>2022-04-22T09:17:42Z</time>
      </trkpt>
      <trkpt lat="50.11118" lon="1.8097">
        <ele>5.6</ele>
        <time>2022-04-22T09:17:43Z</time>
      </trkpt>
      <trkpt lat="50.11118" lon="1.80968">
        <ele>5.6</ele>
        <time>2022-04-22T09:17:44Z</time>
      </trkpt>
      <trkpt lat="50.11119" lon="1.80966">
        <ele>5.5</ele>
        <time>2022-04-22T09:17:45Z</time>
      </trkpt>
      <trkpt lat="50.11119" lon="1.80964">
        <ele>5.5</ele>
        <time>2022-04-22T09:17:46Z</time>
      </trkpt>
      <trkpt lat="50.11119" lon="1.80962">
        <ele>5.5</ele>
        <time>2022-04-22T09:17:48Z</time>
      </trkpt>
      <trkpt lat="50.1112" lon="1.80959">
        <ele>5.5</ele>
        <time>2022-04-22T09:17:49Z</time>
      </trkpt>
      <trkpt lat="50.1112" lon="1.80957">
        <ele>5.5</ele>
        <time>2022-04-22T09:17:50Z</time>
      </trkpt>
      <trkpt lat="50.1112" lon="1.80956">
        <ele>5.5</ele>
        <time>2022-04-22T09:17:51Z</time>
      </trkpt>
      <trkpt lat="50.1112" lon="1.80955">
        <ele>5.5</ele>
        <time>2022-04-22T09:17:52Z</time>
      </trkpt>
      <trkpt lat="50.11121" lon="1.80953">
        <ele>5.5</ele>
        <time>2022-04-22T09:17:54Z</time>
      </trkpt>
      <trkpt lat="50.11121" lon="1.80952">
        <ele>5.5</ele>
        <time>2022-04-22T09:17:55Z</time>
      </trkpt>
      <trkpt lat="50.11122" lon="1.80948">
        <ele>5.5</ele>
        <time>2022-04-22T09:17:56Z</time>
      </trkpt>
      <trkpt lat="50.11122" lon="1.80947">
        <ele>5.5</ele>
        <time>2022-04-22T09:17:57Z</time>
      </trkpt>
      <trkpt lat="50.11123" lon="1.80945">
        <ele>5.5</ele>
        <time>2022-04-22T09:17:58Z</time>
      </trkpt>
      <trkpt lat="50.11124" lon="1.80941">
        <ele>5.5</ele>
        <time>2022-04-22T09:18:00Z</time>
      </trkpt>
      <trkpt lat="50.11124" lon="1.8094">
        <ele>5.5</ele>
        <time>2022-04-22T09:18:01Z</time>
      </trkpt>
      <trkpt lat="50.11125" lon="1.80938">
        <ele>5.5</ele>
        <time>2022-04-22T09:18:02Z</time>
      </trkpt>
      <trkpt lat="50.11125" lon="1.80937">
        <ele>5.5</ele>
        <time>2022-04-22T09:18:03Z</time>
      </trkpt>
      <trkpt lat="50.11125" lon="1.80936">
        <ele>5.5</ele>
        <time>2022-04-22T09:18:04Z</time>
      </trkpt>
      <trkpt lat="50.11126" lon="1.80934">
        <ele>5.5</ele>
        <time>2022-04-22T09:18:05Z</time>
      </trkpt>
      <trkpt lat="50.11126" lon="1.80932">
        <ele>5.5</ele>
        <time>2022-04-22T09:18:06Z</time>
      </trkpt>
      <trkpt lat="50.11126" lon="1.8093">
        <ele>5.5</ele>
        <time>2022-04-22T09:18:07Z</time>
      </trkpt>
      <trkpt lat="50.11127" lon="1.80927">
        <ele>5.5</ele>
        <time>2022-04-22T09:18:08Z</time>
      </trkpt>
      <trkpt lat="50.11127" lon="1.80926">
        <ele>5.5</ele>
        <time>2022-04-22T09:18:09Z</time>
      </trkpt>
      <trkpt lat="50.11127" lon="1.80924">
        <ele>5.5</ele>
        <time>2022-04-22T09:18:10Z</time>
      </trkpt>
      <trkpt lat="50.11127" lon="1.80921">
        <ele>5.5</ele>
        <time>2022-04-22T09:18:11Z</time>
      </trkpt>
      <trkpt lat="50.11126" lon="1.8092">
        <ele>5.5</ele>
        <time>2022-04-22T09:18:13Z</time>
      </trkpt>
      <trkpt lat="50.11126" lon="1.80918">
        <ele>5.5</ele>
        <time>2022-04-22T09:18:14Z</time>
      </trkpt>
      <trkpt lat="50.11126" lon="1.80916">
        <ele>5.5</ele>
        <time>2022-04-22T09:18:15Z</time>
      </trkpt>
      <trkpt lat="50.11125" lon="1.80914">
        <ele>5.5</ele>
        <time>2022-04-22T09:18:16Z</time>
      </trkpt>
      <trkpt lat="50.11125" lon="1.80912">
        <ele>5.5</ele>
        <time>2022-04-22T09:18:17Z</time>
      </trkpt>
      <trkpt lat="50.11124" lon="1.8091">
        <ele>5.5</ele>
        <time>2022-04-22T09:18:18Z</time>
      </trkpt>
      <trkpt lat="50.11124" lon="1.80907">
        <ele>5.5</ele>
        <time>2022-04-22T09:18:19Z</time>
      </trkpt>
      <trkpt lat="50.11124" lon="1.80905">
        <ele>5.5</ele>
        <time>2022-04-22T09:18:20Z</time>
      </trkpt>
      <trkpt lat="50.11124" lon="1.80904">
        <ele>5.5</ele>
        <time>2022-04-22T09:18:21Z</time>
      </trkpt>
      <trkpt lat="50.11123" lon="1.80902">
        <ele>5.5</ele>
        <time>2022-04-22T09:18:22Z</time>
      </trkpt>
      <trkpt lat="50.11123" lon="1.809">
        <ele>5.5</ele>
        <time>2022-04-22T09:18:23Z</time>
      </trkpt>
      <trkpt lat="50.11123" lon="1.80898">
        <ele>5.5</ele>
        <time>2022-04-22T09:18:24Z</time>
      </trkpt>
      <trkpt lat="50.11123" lon="1.80895">
        <ele>5.5</ele>
        <time>2022-04-22T09:18:25Z</time>
      </trkpt>
      <trkpt lat="50.11123" lon="1.80894">
        <ele>5.5</ele>
        <time>2022-04-22T09:18:27Z</time>
      </trkpt>
      <trkpt lat="50.11122" lon="1.80893">
        <ele>5.5</ele>
        <time>2022-04-22T09:18:28Z</time>
      </trkpt>
      <trkpt lat="50.11122" lon="1.80891">
        <ele>5.5</ele>
        <time>2022-04-22T09:18:29Z</time>
      </trkpt>
      <trkpt lat="50.11122" lon="1.8089">
        <ele>5.5</ele>
        <time>2022-04-22T09:18:30Z</time>
      </trkpt>
      <trkpt lat="50.11122" lon="1.80888">
        <ele>5.5</ele>
        <time>2022-04-22T09:18:31Z</time>
      </trkpt>
      <trkpt lat="50.11121" lon="1.80886">
        <ele>5.5</ele>
        <time>2022-04-22T09:18:32Z</time>
      </trkpt>
      <trkpt lat="50.11121" lon="1.80885">
        <ele>5.5</ele>
        <time>2022-04-22T09:18:33Z</time>
      </trkpt>
      <trkpt lat="50.11121" lon="1.80883">
        <ele>5.5</ele>
        <time>2022-04-22T09:18:34Z</time>
      </trkpt>
      <trkpt lat="50.11121" lon="1.80881">
        <ele>5.5</ele>
        <time>2022-04-22T09:18:35Z</time>
      </trkpt>
      <trkpt lat="50.11121" lon="1.80878">
        <ele>5.5</ele>
        <time>2022-04-22T09:18:36Z</time>
      </trkpt>
      <trkpt lat="50.11121" lon="1.80875">
        <ele>5.5</ele>
        <time>2022-04-22T09:18:37Z</time>
      </trkpt>
      <trkpt lat="50.11121" lon="1.80873">
        <ele>5.6</ele>
        <time>2022-04-22T09:18:38Z</time>
      </trkpt>
      <trkpt lat="50.11121" lon="1.80872">
        <ele>5.6</ele>
        <time>2022-04-22T09:18:39Z</time>
      </trkpt>
      <trkpt lat="50.11121" lon="1.80867">
        <ele>5.6</ele>
        <time>2022-04-22T09:18:40Z</time>
      </trkpt>
      <trkpt lat="50.1112" lon="1.80865">
        <ele>5.6</ele>
        <time>2022-04-22T09:18:42Z</time>
      </trkpt>
      <trkpt lat="50.1112" lon="1.80864">
        <ele>5.6</ele>
        <time>2022-04-22T09:18:43Z</time>
      </trkpt>
      <trkpt lat="50.1112" lon="1.80863">
        <ele>5.6</ele>
        <time>2022-04-22T09:18:44Z</time>
      </trkpt>
      <trkpt lat="50.1112" lon="1.80861">
        <ele>5.6</ele>
        <time>2022-04-22T09:18:45Z</time>
      </trkpt>
      <trkpt lat="50.11119" lon="1.80858">
        <ele>5.6</ele>
        <time>2022-04-22T09:18:46Z</time>
      </trkpt>
      <trkpt lat="50.11119" lon="1.80857">
        <ele>5.6</ele>
        <time>2022-04-22T09:18:47Z</time>
      </trkpt>
      <trkpt lat="50.11119" lon="1.80853">
        <ele>5.6</ele>
        <time>2022-04-22T09:18:48Z</time>
      </trkpt>
      <trkpt lat="50.11119" lon="1.80852">
        <ele>5.6</ele>
        <time>2022-04-22T09:18:49Z</time>
      </trkpt>
      <trkpt lat="50.11119" lon="1.80851">
        <ele>5.6</ele>
        <time>2022-04-22T09:18:50Z</time>
      </trkpt>
      <trkpt lat="50.11119" lon="1.80848">
        <ele>5.6</ele>
        <time>2022-04-22T09:18:51Z</time>
      </trkpt>
      <trkpt lat="50.11119" lon="1.80846">
        <ele>5.6</ele>
        <time>2022-04-22T09:18:52Z</time>
      </trkpt>
      <trkpt lat="50.11119" lon="1.80844">
        <ele>5.6</ele>
        <time>2022-04-22T09:18:53Z</time>
      </trkpt>
      <trkpt lat="50.11119" lon="1.80841">
        <ele>5.6</ele>
        <time>2022-04-22T09:18:55Z</time>
      </trkpt>
      <trkpt lat="50.11118" lon="1.80838">
        <ele>5.6</ele>
        <time>2022-04-22T09:18:56Z</time>
      </trkpt>
      <trkpt lat="50.11118" lon="1.80838">
        <ele>5.6</ele>
        <time>2022-04-22T09:18:57Z</time>
      </trkpt>
      <trkpt lat="50.11118" lon="1.80836">
        <ele>5.6</ele>
        <time>2022-04-22T09:18:58Z</time>
      </trkpt>
      <trkpt lat="50.11118" lon="1.80833">
        <ele>5.6</ele>
        <time>2022-04-22T09:18:59Z</time>
      </trkpt>
      <trkpt lat="50.11118" lon="1.80831">
        <ele>5.6</ele>
        <time>2022-04-22T09:19:00Z</time>
      </trkpt>
      <trkpt lat="50.11118" lon="1.80829">
        <ele>5.6</ele>
        <time>2022-04-22T09:19:01Z</time>
      </trkpt>
      <trkpt lat="50.11118" lon="1.80826">
        <ele>5.6</ele>
        <time>2022-04-22T09:19:02Z</time>
      </trkpt>
      <trkpt lat="50.11118" lon="1.80825">
        <ele>5.6</ele>
        <time>2022-04-22T09:19:04Z</time>
      </trkpt>
      <trkpt lat="50.11118" lon="1.80823">
        <ele>5.6</ele>
        <time>2022-04-22T09:19:05Z</time>
      </trkpt>
      <trkpt lat="50.11119" lon="1.80821">
        <ele>5.6</ele>
        <time>2022-04-22T09:19:06Z</time>
      </trkpt>
      <trkpt lat="50.11119" lon="1.80819">
        <ele>5.5</ele>
        <time>2022-04-22T09:19:07Z</time>
      </trkpt>
      <trkpt lat="50.1112" lon="1.80815">
        <ele>5.5</ele>
        <time>2022-04-22T09:19:08Z</time>
      </trkpt>
      <trkpt lat="50.1112" lon="1.80813">
        <ele>5.5</ele>
        <time>2022-04-22T09:19:10Z</time>
      </trkpt>
      <trkpt lat="50.11121" lon="1.80809">
        <ele>5.5</ele>
        <time>2022-04-22T09:19:11Z</time>
      </trkpt>
      <trkpt lat="50.11122" lon="1.80806">
        <ele>5.4</ele>
        <time>2022-04-22T09:19:12Z</time>
      </trkpt>
      <trkpt lat="50.11122" lon="1.80805">
        <ele>5.4</ele>
        <time>2022-04-22T09:19:13Z</time>
      </trkpt>
      <trkpt lat="50.11122" lon="1.80803">
        <ele>5.4</ele>
        <time>2022-04-22T09:19:14Z</time>
      </trkpt>
      <trkpt lat="50.11123" lon="1.80801">
        <ele>5.4</ele>
        <time>2022-04-22T09:19:15Z</time>
      </trkpt>
      <trkpt lat="50.11123" lon="1.80799">
        <ele>5.4</ele>
        <time>2022-04-22T09:19:16Z</time>
      </trkpt>
      <trkpt lat="50.11124" lon="1.80797">
        <ele>5.4</ele>
        <time>2022-04-22T09:19:18Z</time>
      </trkpt>
      <trkpt lat="50.11124" lon="1.80795">
        <ele>5.4</ele>
        <time>2022-04-22T09:19:19Z</time>
      </trkpt>
      <trkpt lat="50.11125" lon="1.80793">
        <ele>5.3</ele>
        <time>2022-04-22T09:19:20Z</time>
      </trkpt>
      <trkpt lat="50.11126" lon="1.80789">
        <ele>5.3</ele>
        <time>2022-04-22T09:19:21Z</time>
      </trkpt>
      <trkpt lat="50.11126" lon="1.80787">
        <ele>5.3</ele>
        <time>2022-04-22T09:19:22Z</time>
      </trkpt>
      <trkpt lat="50.11126" lon="1.80786">
        <ele>5.3</ele>
        <time>2022-04-22T09:19:24Z</time>
      </trkpt>
      <trkpt lat="50.11127" lon="1.80784">
        <ele>5.3</ele>
        <time>2022-04-22T09:19:25Z</time>
      </trkpt>
      <trkpt lat="50.11127" lon="1.80781">
        <ele>5.3</ele>
        <time>2022-04-22T09:19:26Z</time>
      </trkpt>
      <trkpt lat="50.11127" lon="1.80779">
        <ele>5.2</ele>
        <time>2022-04-22T09:19:27Z</time>
      </trkpt>
      <trkpt lat="50.11128" lon="1.80778">
        <ele>5.2</ele>
        <time>2022-04-22T09:19:28Z</time>
      </trkpt>
      <trkpt lat="50.11128" lon="1.80776">
        <ele>5.2</ele>
        <time>2022-04-22T09:19:29Z</time>
      </trkpt>
      <trkpt lat="50.11128" lon="1.80775">
        <ele>5.2</ele>
        <time>2022-04-22T09:19:30Z</time>
      </trkpt>
      <trkpt lat="50.11129" lon="1.80773">
        <ele>5.2</ele>
        <time>2022-04-22T09:19:31Z</time>
      </trkpt>
      <trkpt lat="50.1113" lon="1.8077">
        <ele>5.2</ele>
        <time>2022-04-22T09:19:33Z</time>
      </trkpt>
      <trkpt lat="50.1113" lon="1.80769">
        <ele>5.2</ele>
        <time>2022-04-22T09:19:34Z</time>
      </trkpt>
      <trkpt lat="50.1113" lon="1.80768">
        <ele>5.2</ele>
        <time>2022-04-22T09:19:35Z</time>
      </trkpt>
      <trkpt lat="50.11131" lon="1.80767">
        <ele>5.2</ele>
        <time>2022-04-22T09:19:36Z</time>
      </trkpt>
      <trkpt lat="50.11132" lon="1.80766">
        <ele>5.2</ele>
        <time>2022-04-22T09:19:38Z</time>
      </trkpt>
      <trkpt lat="50.11132" lon="1.80764">
        <ele>5.2</ele>
        <time>2022-04-22T09:19:39Z</time>
      </trkpt>
      <trkpt lat="50.11135" lon="1.80761">
        <ele>5.2</ele>
        <time>2022-04-22T09:19:40Z</time>
      </trkpt>
      <trkpt lat="50.11136" lon="1.80759">
        <ele>5.2</ele>
        <time>2022-04-22T09:19:41Z</time>
      </trkpt>
      <trkpt lat="50.11136" lon="1.80759">
        <ele>5.2</ele>
        <time>2022-04-22T09:19:42Z</time>
      </trkpt>
      <trkpt lat="50.11137" lon="1.80758">
        <ele>5.2</ele>
        <time>2022-04-22T09:19:44Z</time>
      </trkpt>
      <trkpt lat="50.11138" lon="1.80756">
        <ele>5.2</ele>
        <time>2022-04-22T09:19:45Z</time>
      </trkpt>
      <trkpt lat="50.11139" lon="1.80755">
        <ele>5.2</ele>
        <time>2022-04-22T09:19:46Z</time>
      </trkpt>
      <trkpt lat="50.11139" lon="1.80754">
        <ele>5.2</ele>
        <time>2022-04-22T09:19:47Z</time>
      </trkpt>
      <trkpt lat="50.11138" lon="1.80753">
        <ele>5.2</ele>
        <time>2022-04-22T09:19:48Z</time>
      </trkpt>
      <trkpt lat="50.11138" lon="1.80752">
        <ele>5.2</ele>
        <time>2022-04-22T09:19:49Z</time>
      </trkpt>
      <trkpt lat="50.11139" lon="1.80751">
        <ele>5.2</ele>
        <time>2022-04-22T09:19:50Z</time>
      </trkpt>
      <trkpt lat="50.11139" lon="1.80749">
        <ele>5.2</ele>
        <time>2022-04-22T09:19:52Z</time>
      </trkpt>
      <trkpt lat="50.1114" lon="1.80748">
        <ele>5.2</ele>
        <time>2022-04-22T09:19:53Z</time>
      </trkpt>
      <trkpt lat="50.11141" lon="1.80748">
        <ele>5.3</ele>
        <time>2022-04-22T09:19:54Z</time>
      </trkpt>
      <trkpt lat="50.11141" lon="1.80747">
        <ele>5.3</ele>
        <time>2022-04-22T09:19:55Z</time>
      </trkpt>
      <trkpt lat="50.11143" lon="1.80744">
        <ele>5.3</ele>
        <time>2022-04-22T09:19:56Z</time>
      </trkpt>
      <trkpt lat="50.11143" lon="1.80744">
        <ele>5.3</ele>
        <time>2022-04-22T09:19:57Z</time>
      </trkpt>
      <trkpt lat="50.11144" lon="1.80741">
        <ele>5.3</ele>
        <time>2022-04-22T09:19:58Z</time>
      </trkpt>
      <trkpt lat="50.11145" lon="1.8074">
        <ele>5.3</ele>
        <time>2022-04-22T09:20:00Z</time>
      </trkpt>
      <trkpt lat="50.11146" lon="1.80739">
        <ele>5.3</ele>
        <time>2022-04-22T09:20:01Z</time>
      </trkpt>
      <trkpt lat="50.11147" lon="1.80737">
        <ele>5.3</ele>
        <time>2022-04-22T09:20:02Z</time>
      </trkpt>
      <trkpt lat="50.11148" lon="1.80736">
        <ele>5.3</ele>
        <time>2022-04-22T09:20:03Z</time>
      </trkpt>
      <trkpt lat="50.1115" lon="1.80734">
        <ele>5.3</ele>
        <time>2022-04-22T09:20:04Z</time>
      </trkpt>
      <trkpt lat="50.11151" lon="1.80732">
        <ele>5.3</ele>
        <time>2022-04-22T09:20:05Z</time>
      </trkpt>
      <trkpt lat="50.11153" lon="1.8073">
        <ele>5.4</ele>
        <time>2022-04-22T09:20:07Z</time>
      </trkpt>
      <trkpt lat="50.11153" lon="1.8073">
        <ele>5.4</ele>
        <time>2022-04-22T09:20:08Z</time>
      </trkpt>
      <trkpt lat="50.11154" lon="1.80729">
        <ele>5.4</ele>
        <time>2022-04-22T09:20:09Z</time>
      </trkpt>
      <trkpt lat="50.11155" lon="1.80727">
        <ele>5.4</ele>
        <time>2022-04-22T09:20:10Z</time>
      </trkpt>
      <trkpt lat="50.11156" lon="1.80726">
        <ele>5.4</ele>
        <time>2022-04-22T09:20:11Z</time>
      </trkpt>
      <trkpt lat="50.11156" lon="1.80725">
        <ele>5.4</ele>
        <time>2022-04-22T09:20:12Z</time>
      </trkpt>
      <trkpt lat="50.11157" lon="1.80724">
        <ele>5.4</ele>
        <time>2022-04-22T09:20:13Z</time>
      </trkpt>
      <trkpt lat="50.11158" lon="1.80723">
        <ele>5.4</ele>
        <time>2022-04-22T09:20:14Z</time>
      </trkpt>
      <trkpt lat="50.11159" lon="1.80722">
        <ele>5.4</ele>
        <time>2022-04-22T09:20:15Z</time>
      </trkpt>
      <trkpt lat="50.11161" lon="1.8072">
        <ele>5.4</ele>
        <time>2022-04-22T09:20:16Z</time>
      </trkpt>
      <trkpt lat="50.11162" lon="1.80719">
        <ele>5.4</ele>
        <time>2022-04-22T09:20:17Z</time>
      </trkpt>
      <trkpt lat="50.11163" lon="1.80717">
        <ele>5.4</ele>
        <time>2022-04-22T09:20:18Z</time>
      </trkpt>
      <trkpt lat="50.11164" lon="1.80714">
        <ele>5.4</ele>
        <time>2022-04-22T09:20:19Z</time>
      </trkpt>
      <trkpt lat="50.11164" lon="1.80713">
        <ele>5.4</ele>
        <time>2022-04-22T09:20:20Z</time>
      </trkpt>
      <trkpt lat="50.11165" lon="1.80711">
        <ele>5.4</ele>
        <time>2022-04-22T09:20:21Z</time>
      </trkpt>
      <trkpt lat="50.11165" lon="1.8071">
        <ele>5.4</ele>
        <time>2022-04-22T09:20:23Z</time>
      </trkpt>
      <trkpt lat="50.11165" lon="1.80709">
        <ele>5.4</ele>
        <time>2022-04-22T09:20:24Z</time>
      </trkpt>
      <trkpt lat="50.11166" lon="1.80707">
        <ele>5.4</ele>
        <time>2022-04-22T09:20:25Z</time>
      </trkpt>
      <trkpt lat="50.11169" lon="1.80704">
        <ele>5.4</ele>
        <time>2022-04-22T09:20:26Z</time>
      </trkpt>
      <trkpt lat="50.1117" lon="1.80703">
        <ele>5.4</ele>
        <time>2022-04-22T09:20:27Z</time>
      </trkpt>
      <trkpt lat="50.11172" lon="1.807">
        <ele>5.5</ele>
        <time>2022-04-22T09:20:28Z</time>
      </trkpt>
      <trkpt lat="50.11172" lon="1.80699">
        <ele>5.5</ele>
        <time>2022-04-22T09:20:29Z</time>
      </trkpt>
      <trkpt lat="50.11172" lon="1.80698">
        <ele>5.5</ele>
        <time>2022-04-22T09:20:30Z</time>
      </trkpt>
      <trkpt lat="50.11174" lon="1.80692">
        <ele>5.5</ele>
        <time>2022-04-22T09:20:31Z</time>
      </trkpt>
      <trkpt lat="50.11173" lon="1.80691">
        <ele>5.5</ele>
        <time>2022-04-22T09:20:32Z</time>
      </trkpt>
      <trkpt lat="50.11173" lon="1.80689">
        <ele>5.5</ele>
        <time>2022-04-22T09:20:33Z</time>
      </trkpt>
      <trkpt lat="50.11173" lon="1.80687">
        <ele>5.5</ele>
        <time>2022-04-22T09:20:34Z</time>
      </trkpt>
      <trkpt lat="50.11173" lon="1.80685">
        <ele>5.5</ele>
        <time>2022-04-22T09:20:35Z</time>
      </trkpt>
      <trkpt lat="50.11173" lon="1.8068">
        <ele>5.5</ele>
        <time>2022-04-22T09:20:37Z</time>
      </trkpt>
      <trkpt lat="50.11173" lon="1.80678">
        <ele>5.5</ele>
        <time>2022-04-22T09:20:38Z</time>
      </trkpt>
      <trkpt lat="50.11173" lon="1.80677">
        <ele>5.5</ele>
        <time>2022-04-22T09:20:39Z</time>
      </trkpt>
      <trkpt lat="50.11173" lon="1.80675">
        <ele>5.5</ele>
        <time>2022-04-22T09:20:40Z</time>
      </trkpt>
      <trkpt lat="50.11174" lon="1.80673">
        <ele>5.5</ele>
        <time>2022-04-22T09:20:41Z</time>
      </trkpt>
      <trkpt lat="50.11174" lon="1.8067">
        <ele>5.5</ele>
        <time>2022-04-22T09:20:42Z</time>
      </trkpt>
      <trkpt lat="50.11174" lon="1.80669">
        <ele>5.5</ele>
        <time>2022-04-22T09:20:43Z</time>
      </trkpt>
      <trkpt lat="50.11174" lon="1.80667">
        <ele>5.5</ele>
        <time>2022-04-22T09:20:44Z</time>
      </trkpt>
      <trkpt lat="50.11176" lon="1.80662">
        <ele>5.5</ele>
        <time>2022-04-22T09:20:45Z</time>
      </trkpt>
      <trkpt lat="50.11176" lon="1.80658">
        <ele>5.5</ele>
        <time>2022-04-22T09:20:46Z</time>
      </trkpt>
      <trkpt lat="50.11176" lon="1.80659">
        <ele>5.5</ele>
        <time>2022-04-22T09:20:48Z</time>
      </trkpt>
      <trkpt lat="50.11176" lon="1.80657">
        <ele>5.5</ele>
        <time>2022-04-22T09:20:49Z</time>
      </trkpt>
      <trkpt lat="50.11177" lon="1.80655">
        <ele>5.5</ele>
        <time>2022-04-22T09:20:50Z</time>
      </trkpt>
      <trkpt lat="50.11177" lon="1.80654">
        <ele>5.5</ele>
        <time>2022-04-22T09:20:51Z</time>
      </trkpt>
      <trkpt lat="50.11176" lon="1.80651">
        <ele>5.6</ele>
        <time>2022-04-22T09:20:52Z</time>
      </trkpt>
      <trkpt lat="50.11176" lon="1.80648">
        <ele>5.6</ele>
        <time>2022-04-22T09:20:53Z</time>
      </trkpt>
      <trkpt lat="50.11176" lon="1.80646">
        <ele>5.6</ele>
        <time>2022-04-22T09:20:54Z</time>
      </trkpt>
      <trkpt lat="50.11176" lon="1.80644">
        <ele>5.6</ele>
        <time>2022-04-22T09:20:55Z</time>
      </trkpt>
      <trkpt lat="50.11176" lon="1.80638">
        <ele>5.6</ele>
        <time>2022-04-22T09:20:57Z</time>
      </trkpt>
      <trkpt lat="50.11176" lon="1.80637">
        <ele>5.6</ele>
        <time>2022-04-22T09:20:58Z</time>
      </trkpt>
      <trkpt lat="50.11177" lon="1.80636">
        <ele>5.6</ele>
        <time>2022-04-22T09:21:00Z</time>
      </trkpt>
      <trkpt lat="50.11177" lon="1.80634">
        <ele>5.6</ele>
        <time>2022-04-22T09:21:01Z</time>
      </trkpt>
      <trkpt lat="50.11179" lon="1.80632">
        <ele>5.6</ele>
        <time>2022-04-22T09:21:02Z</time>
      </trkpt>
      <trkpt lat="50.11179" lon="1.8063">
        <ele>5.6</ele>
        <time>2022-04-22T09:21:03Z</time>
      </trkpt>
      <trkpt lat="50.1118" lon="1.80628">
        <ele>5.6</ele>
        <time>2022-04-22T09:21:04Z</time>
      </trkpt>
      <trkpt lat="50.11181" lon="1.80626">
        <ele>5.6</ele>
        <time>2022-04-22T09:21:05Z</time>
      </trkpt>
      <trkpt lat="50.11182" lon="1.80622">
        <ele>5.6</ele>
        <time>2022-04-22T09:21:06Z</time>
      </trkpt>
      <trkpt lat="50.11183" lon="1.80621">
        <ele>5.6</ele>
        <time>2022-04-22T09:21:07Z</time>
      </trkpt>
      <trkpt lat="50.11183" lon="1.80619">
        <ele>5.6</ele>
        <time>2022-04-22T09:21:08Z</time>
      </trkpt>
      <trkpt lat="50.11183" lon="1.80617">
        <ele>5.6</ele>
        <time>2022-04-22T09:21:09Z</time>
      </trkpt>
      <trkpt lat="50.11183" lon="1.80615">
        <ele>5.6</ele>
        <time>2022-04-22T09:21:11Z</time>
      </trkpt>
      <trkpt lat="50.11183" lon="1.80612">
        <ele>5.6</ele>
        <time>2022-04-22T09:21:13Z</time>
      </trkpt>
      <trkpt lat="50.11183" lon="1.80611">
        <ele>5.7</ele>
        <time>2022-04-22T09:21:14Z</time>
      </trkpt>
      <trkpt lat="50.11184" lon="1.8061">
        <ele>5.7</ele>
        <time>2022-04-22T09:21:15Z</time>
      </trkpt>
      <trkpt lat="50.11185" lon="1.80609">
        <ele>5.7</ele>
        <time>2022-04-22T09:21:16Z</time>
      </trkpt>
      <trkpt lat="50.11185" lon="1.80608">
        <ele>5.7</ele>
        <time>2022-04-22T09:21:17Z</time>
      </trkpt>
      <trkpt lat="50.11186" lon="1.80607">
        <ele>5.7</ele>
        <time>2022-04-22T09:21:18Z</time>
      </trkpt>
      <trkpt lat="50.11187" lon="1.80606">
        <ele>5.7</ele>
        <time>2022-04-22T09:21:19Z</time>
      </trkpt>
      <trkpt lat="50.11187" lon="1.80604">
        <ele>5.7</ele>
        <time>2022-04-22T09:21:21Z</time>
      </trkpt>
      <trkpt lat="50.11188" lon="1.80602">
        <ele>5.7</ele>
        <time>2022-04-22T09:21:22Z</time>
      </trkpt>
      <trkpt lat="50.11188" lon="1.80602">
        <ele>5.7</ele>
        <time>2022-04-22T09:21:23Z</time>
      </trkpt>
      <trkpt lat="50.11188" lon="1.80601">
        <ele>5.7</ele>
        <time>2022-04-22T09:21:24Z</time>
      </trkpt>
      <trkpt lat="50.11188" lon="1.806">
        <ele>5.7</ele>
        <time>2022-04-22T09:21:25Z</time>
      </trkpt>
      <trkpt lat="50.11188" lon="1.80599">
        <ele>5.7</ele>
        <time>2022-04-22T09:21:26Z</time>
      </trkpt>
      <trkpt lat="50.11188" lon="1.80598">
        <ele>5.7</ele>
        <time>2022-04-22T09:21:27Z</time>
      </trkpt>
      <trkpt lat="50.11188" lon="1.80597">
        <ele>5.7</ele>
        <time>2022-04-22T09:21:28Z</time>
      </trkpt>
      <trkpt lat="50.11189" lon="1.80595">
        <ele>5.7</ele>
        <time>2022-04-22T09:21:29Z</time>
      </trkpt>
      <trkpt lat="50.11189" lon="1.80594">
        <ele>5.7</ele>
        <time>2022-04-22T09:21:30Z</time>
      </trkpt>
      <trkpt lat="50.11192" lon="1.8059">
        <ele>5.7</ele>
        <time>2022-04-22T09:21:32Z</time>
      </trkpt>
      <trkpt lat="50.11194" lon="1.80588">
        <ele>5.7</ele>
        <time>2022-04-22T09:21:33Z</time>
      </trkpt>
      <trkpt lat="50.11194" lon="1.80587">
        <ele>5.7</ele>
        <time>2022-04-22T09:21:34Z</time>
      </trkpt>
      <trkpt lat="50.11195" lon="1.80585">
        <ele>5.7</ele>
        <time>2022-04-22T09:21:35Z</time>
      </trkpt>
      <trkpt lat="50.11194" lon="1.80583">
        <ele>5.7</ele>
        <time>2022-04-22T09:21:37Z</time>
      </trkpt>
      <trkpt lat="50.11193" lon="1.80583">
        <ele>5.7</ele>
        <time>2022-04-22T09:21:39Z</time>
      </trkpt>
      <trkpt lat="50.11193" lon="1.80583">
        <ele>5.7</ele>
        <time>2022-04-22T09:21:40Z</time>
      </trkpt>
      <trkpt lat="50.11192" lon="1.80584">
        <ele>5.7</ele>
        <time>2022-04-22T09:21:41Z</time>
      </trkpt>
      <trkpt lat="50.11191" lon="1.80584">
        <ele>5.7</ele>
        <time>2022-04-22T09:21:42Z</time>
      </trkpt>
      <trkpt lat="50.11189" lon="1.80585">
        <ele>5.7</ele>
        <time>2022-04-22T09:21:43Z</time>
      </trkpt>
      <trkpt lat="50.11188" lon="1.80585">
        <ele>5.8</ele>
        <time>2022-04-22T09:21:45Z</time>
      </trkpt>
      <trkpt lat="50.11187" lon="1.80586">
        <ele>5.8</ele>
        <time>2022-04-22T09:21:46Z</time>
      </trkpt>
      <trkpt lat="50.11185" lon="1.80586">
        <ele>5.8</ele>
        <time>2022-04-22T09:21:47Z</time>
      </trkpt>
      <trkpt lat="50.11183" lon="1.80587">
        <ele>5.8</ele>
        <time>2022-04-22T09:21:48Z</time>
      </trkpt>
      <trkpt lat="50.1118" lon="1.80588">
        <ele>5.8</ele>
        <time>2022-04-22T09:21:51Z</time>
      </trkpt>
      <trkpt lat="50.11178" lon="1.80587">
        <ele>5.8</ele>
        <time>2022-04-22T09:21:53Z</time>
      </trkpt>
      <trkpt lat="50.11178" lon="1.80587">
        <ele>5.8</ele>
        <time>2022-04-22T09:21:54Z</time>
      </trkpt>
      <trkpt lat="50.11178" lon="1.80587">
        <ele>5.8</ele>
        <time>2022-04-22T09:21:55Z</time>
      </trkpt>
      <trkpt lat="50.11178" lon="1.80588">
        <ele>5.8</ele>
        <time>2022-04-22T09:21:56Z</time>
      </trkpt>
      <trkpt lat="50.11178" lon="1.80588">
        <ele>5.8</ele>
        <time>2022-04-22T09:21:57Z</time>
      </trkpt>
      <trkpt lat="50.11178" lon="1.80589">
        <ele>5.8</ele>
        <time>2022-04-22T09:21:58Z</time>
      </trkpt>
      <trkpt lat="50.11178" lon="1.80589">
        <ele>5.8</ele>
        <time>2022-04-22T09:21:59Z</time>
      </trkpt>
      <trkpt lat="50.11178" lon="1.80589">
        <ele>5.8</ele>
        <time>2022-04-22T09:22:01Z</time>
      </trkpt>
      <trkpt lat="50.11177" lon="1.80589">
        <ele>5.8</ele>
        <time>2022-04-22T09:22:02Z</time>
      </trkpt>
      <trkpt lat="50.11178" lon="1.80588">
        <ele>5.8</ele>
        <time>2022-04-22T09:22:03Z</time>
      </trkpt>
      <trkpt lat="50.11178" lon="1.80587">
        <ele>5.8</ele>
        <time>2022-04-22T09:22:04Z</time>
      </trkpt>
      <trkpt lat="50.11178" lon="1.80586">
        <ele>5.8</ele>
        <time>2022-04-22T09:22:05Z</time>
      </trkpt>
      <trkpt lat="50.11178" lon="1.80585">
        <ele>5.8</ele>
        <time>2022-04-22T09:22:06Z</time>
      </trkpt>
      <trkpt lat="50.11178" lon="1.80584">
        <ele>5.8</ele>
        <time>2022-04-22T09:22:08Z</time>
      </trkpt>
      <trkpt lat="50.11178" lon="1.80582">
        <ele>5.8</ele>
        <time>2022-04-22T09:22:09Z</time>
      </trkpt>
      <trkpt lat="50.11178" lon="1.8058">
        <ele>5.8</ele>
        <time>2022-04-22T09:22:10Z</time>
      </trkpt>
      <trkpt lat="50.11178" lon="1.80578">
        <ele>5.8</ele>
        <time>2022-04-22T09:22:12Z</time>
      </trkpt>
      <trkpt lat="50.11181" lon="1.80575">
        <ele>5.8</ele>
        <time>2022-04-22T09:22:14Z</time>
      </trkpt>
      <trkpt lat="50.11181" lon="1.80575">
        <ele>5.8</ele>
        <time>2022-04-22T09:22:15Z</time>
      </trkpt>
      <trkpt lat="50.11181" lon="1.80575">
        <ele>5.8</ele>
        <time>2022-04-22T09:22:16Z</time>
      </trkpt>
      <trkpt lat="50.11182" lon="1.80574">
        <ele>5.8</ele>
        <time>2022-04-22T09:22:17Z</time>
      </trkpt>
      <trkpt lat="50.11182" lon="1.80575">
        <ele>5.8</ele>
        <time>2022-04-22T09:22:18Z</time>
      </trkpt>
      <trkpt lat="50.11182" lon="1.80575">
        <ele>5.8</ele>
        <time>2022-04-22T09:22:19Z</time>
      </trkpt>
      <trkpt lat="50.11182" lon="1.80575">
        <ele>5.8</ele>
        <time>2022-04-22T09:22:20Z</time>
      </trkpt>
      <trkpt lat="50.11182" lon="1.80575">
        <ele>5.8</ele>
        <time>2022-04-22T09:22:21Z</time>
      </trkpt>
      <trkpt lat="50.11183" lon="1.80575">
        <ele>5.8</ele>
        <time>2022-04-22T09:22:22Z</time>
      </trkpt>
      <trkpt lat="50.11183" lon="1.80575">
        <ele>5.8</ele>
        <time>2022-04-22T09:22:23Z</time>
      </trkpt>
      <trkpt lat="50.11184" lon="1.80575">
        <ele>5.8</ele>
        <time>2022-04-22T09:22:24Z</time>
      </trkpt>
      <trkpt lat="50.11184" lon="1.80574">
        <ele>5.8</ele>
        <time>2022-04-22T09:22:25Z</time>
      </trkpt>
      <trkpt lat="50.11185" lon="1.80573">
        <ele>5.8</ele>
        <time>2022-04-22T09:22:26Z</time>
      </trkpt>
      <trkpt lat="50.11186" lon="1.80573">
        <ele>5.9</ele>
        <time>2022-04-22T09:22:27Z</time>
      </trkpt>
      <trkpt lat="50.11187" lon="1.80572">
        <ele>5.9</ele>
        <time>2022-04-22T09:22:29Z</time>
      </trkpt>
      <trkpt lat="50.11186" lon="1.80571">
        <ele>5.9</ele>
        <time>2022-04-22T09:22:30Z</time>
      </trkpt>
      <trkpt lat="50.11185" lon="1.8057">
        <ele>5.9</ele>
        <time>2022-04-22T09:22:32Z</time>
      </trkpt>
      <trkpt lat="50.11185" lon="1.8057">
        <ele>5.9</ele>
        <time>2022-04-22T09:22:33Z</time>
      </trkpt>
      <trkpt lat="50.11184" lon="1.8057">
        <ele>5.9</ele>
        <time>2022-04-22T09:22:34Z</time>
      </trkpt>
      <trkpt lat="50.11183" lon="1.80571">
        <ele>5.9</ele>
        <time>2022-04-22T09:22:36Z</time>
      </trkpt>
      <trkpt lat="50.11182" lon="1.80572">
        <ele>5.9</ele>
        <time>2022-04-22T09:22:37Z</time>
      </trkpt>
      <trkpt lat="50.11182" lon="1.80573">
        <ele>5.9</ele>
        <time>2022-04-22T09:22:38Z</time>
      </trkpt>
      <trkpt lat="50.11181" lon="1.80574">
        <ele>5.9</ele>
        <time>2022-04-22T09:22:39Z</time>
      </trkpt>
      <trkpt lat="50.11181" lon="1.80575">
        <ele>5.9</ele>
        <time>2022-04-22T09:22:40Z</time>
      </trkpt>
      <trkpt lat="50.11181" lon="1.80576">
        <ele>5.9</ele>
        <time>2022-04-22T09:22:41Z</time>
      </trkpt>
      <trkpt lat="50.11181" lon="1.80576">
        <ele>5.9</ele>
        <time>2022-04-22T09:22:42Z</time>
      </trkpt>
      <trkpt lat="50.11181" lon="1.80578">
        <ele>5.9</ele>
        <time>2022-04-22T09:22:43Z</time>
      </trkpt>
      <trkpt lat="50.11181" lon="1.80578">
        <ele>5.9</ele>
        <time>2022-04-22T09:22:44Z</time>
      </trkpt>
      <trkpt lat="50.11181" lon="1.80578">
        <ele>5.9</ele>
        <time>2022-04-22T09:22:45Z</time>
      </trkpt>
      <trkpt lat="50.11181" lon="1.80578">
        <ele>5.9</ele>
        <time>2022-04-22T09:22:46Z</time>
      </trkpt>
      <trkpt lat="50.11181" lon="1.80578">
        <ele>5.9</ele>
        <time>2022-04-22T09:22:47Z</time>
      </trkpt>
      <trkpt lat="50.1118" lon="1.80579">
        <ele>5.9</ele>
        <time>2022-04-22T09:22:48Z</time>
      </trkpt>
      <trkpt lat="50.1118" lon="1.80579">
        <ele>5.9</ele>
        <time>2022-04-22T09:22:49Z</time>
      </trkpt>
      <trkpt lat="50.1118" lon="1.80579">
        <ele>5.9</ele>
        <time>2022-04-22T09:22:50Z</time>
      </trkpt>
      <trkpt lat="50.1118" lon="1.80579">
        <ele>5.9</ele>
        <time>2022-04-22T09:22:51Z</time>
      </trkpt>
      <trkpt lat="50.1118" lon="1.8058">
        <ele>5.9</ele>
        <time>2022-04-22T09:22:52Z</time>
      </trkpt>
      <trkpt lat="50.1118" lon="1.8058">
        <ele>5.9</ele>
        <time>2022-04-22T09:22:53Z</time>
      </trkpt>
      <trkpt lat="50.1118" lon="1.8058">
        <ele>5.9</ele>
        <time>2022-04-22T09:22:54Z</time>
      </trkpt>
      <trkpt lat="50.1118" lon="1.8058">
        <ele>5.9</ele>
        <time>2022-04-22T09:22:55Z</time>
      </trkpt>
      <trkpt lat="50.1118" lon="1.8058">
        <ele>5.9</ele>
        <time>2022-04-22T09:22:56Z</time>
      </trkpt>
      <trkpt lat="50.1118" lon="1.8058">
        <ele>5.9</ele>
        <time>2022-04-22T09:22:57Z</time>
      </trkpt>
      <trkpt lat="50.1118" lon="1.8058">
        <ele>5.9</ele>
        <time>2022-04-22T09:22:58Z</time>
      </trkpt>
      <trkpt lat="50.1118" lon="1.8058">
        <ele>5.9</ele>
        <time>2022-04-22T09:22:59Z</time>
      </trkpt>
      <trkpt lat="50.1118" lon="1.8058">
        <ele>5.9</ele>
        <time>2022-04-22T09:23:00Z</time>
      </trkpt>
      <trkpt lat="50.1118" lon="1.8058">
        <ele>5.9</ele>
        <time>2022-04-22T09:23:01Z</time>
      </trkpt>
      <trkpt lat="50.1118" lon="1.8058">
        <ele>5.9</ele>
        <time>2022-04-22T09:23:02Z</time>
      </trkpt>
      <trkpt lat="50.1118" lon="1.8058">
        <ele>5.9</ele>
        <time>2022-04-22T09:23:03Z</time>
      </trkpt>
      <trkpt lat="50.1118" lon="1.8058">
        <ele>5.9</ele>
        <time>2022-04-22T09:23:04Z</time>
      </trkpt>
      <trkpt lat="50.1118" lon="1.8058">
        <ele>5.9</ele>
        <time>2022-04-22T09:23:05Z</time>
      </trkpt>
      <trkpt lat="50.1118" lon="1.8058">
        <ele>5.9</ele>
        <time>2022-04-22T09:23:06Z</time>
      </trkpt>
      <trkpt lat="50.1118" lon="1.8058">
        <ele>5.9</ele>
        <time>2022-04-22T09:23:07Z</time>
      </trkpt>
      <trkpt lat="50.1118" lon="1.8058">
        <ele>5.9</ele>
        <time>2022-04-22T09:23:08Z</time>
      </trkpt>
      <trkpt lat="50.1118" lon="1.8058">
        <ele>5.9</ele>
        <time>2022-04-22T09:23:09Z</time>
      </trkpt>
      <trkpt lat="50.1118" lon="1.8058">
        <ele>5.9</ele>
        <time>2022-04-22T09:23:10Z</time>
      </trkpt>
      <trkpt lat="50.1118" lon="1.8058">
        <ele>5.9</ele>
        <time>2022-04-22T09:23:11Z</time>
      </trkpt>
      <trkpt lat="50.1118" lon="1.8058">
        <ele>5.9</ele>
        <time>2022-04-22T09:23:12Z</time>
      </trkpt>
      <trkpt lat="50.1118" lon="1.8058">
        <ele>5.9</ele>
        <time>2022-04-22T09:23:13Z</time>
      </trkpt>
      <trkpt lat="50.1118" lon="1.8058">
        <ele>5.9</ele>
        <time>2022-04-22T09:23:14Z</time>
      </trkpt>
      <trkpt lat="50.1118" lon="1.8058">
        <ele>5.9</ele>
        <time>2022-04-22T09:23:15Z</time>
      </trkpt>
      <trkpt lat="50.1118" lon="1.8058">
        <ele>5.9</ele>
        <time>2022-04-22T09:23:16Z</time>
      </trkpt>
      <trkpt lat="50.1118" lon="1.8058">
        <ele>5.9</ele>
        <time>2022-04-22T09:23:17Z</time>
      </trkpt>
      <trkpt lat="50.1118" lon="1.8058">
        <ele>5.9</ele>
        <time>2022-04-22T09:23:18Z</time>
      </trkpt>
      <trkpt lat="50.1118" lon="1.8058">
        <ele>5.9</ele>
        <time>2022-04-22T09:23:19Z</time>
      </trkpt>
      <trkpt lat="50.1118" lon="1.8058">
        <ele>5.9</ele>
        <time>2022-04-22T09:23:20Z</time>
      </trkpt>
      <trkpt lat="50.1118" lon="1.8058">
        <ele>5.9</ele>
        <time>2022-04-22T09:23:21Z</time>
      </trkpt>
      <trkpt lat="50.1118" lon="1.8058">
        <ele>5.9</ele>
        <time>2022-04-22T09:23:22Z</time>
      </trkpt>
      <trkpt lat="50.1118" lon="1.8058">
        <ele>5.9</ele>
        <time>2022-04-22T09:23:23Z</time>
      </trkpt>
      <trkpt lat="50.1118" lon="1.8058">
        <ele>5.9</ele>
        <time>2022-04-22T09:23:24Z</time>
      </trkpt>
      <trkpt lat="50.1118" lon="1.8058">
        <ele>5.9</ele>
        <time>2022-04-22T09:23:25Z</time>
      </trkpt>
      <trkpt lat="50.1118" lon="1.8058">
        <ele>5.9</ele>
        <time>2022-04-22T09:23:26Z</time>
      </trkpt>
      <trkpt lat="50.1118" lon="1.8058">
        <ele>5.9</ele>
        <time>2022-04-22T09:23:27Z</time>
      </trkpt>
      <trkpt lat="50.1118" lon="1.8058">
        <ele>5.9</ele>
        <time>2022-04-22T09:23:28Z</time>
      </trkpt>
      <trkpt lat="50.1118" lon="1.8058">
        <ele>5.9</ele>
        <time>2022-04-22T09:23:29Z</time>
      </trkpt>
      <trkpt lat="50.1118" lon="1.8058">
        <ele>5.9</ele>
        <time>2022-04-22T09:23:30Z</time>
      </trkpt>
      <trkpt lat="50.1118" lon="1.8058">
        <ele>5.9</ele>
        <time>2022-04-22T09:23:31Z</time>
      </trkpt>
      <trkpt lat="50.1118" lon="1.8058">
        <ele>5.9</ele>
        <time>2022-04-22T09:23:32Z</time>
      </trkpt>
      <trkpt lat="50.1118" lon="1.8058">
        <ele>5.9</ele>
        <time>2022-04-22T09:23:33Z</time>
      </trkpt>
      <trkpt lat="50.1118" lon="1.8058">
        <ele>5.9</ele>
        <time>2022-04-22T09:23:34Z</time>
      </trkpt>
      <trkpt lat="50.1118" lon="1.8058">
        <ele>5.9</ele>
        <time>2022-04-22T09:23:35Z</time>
      </trkpt>
      <trkpt lat="50.1118" lon="1.8058">
        <ele>5.9</ele>
        <time>2022-04-22T09:23:36Z</time>
      </trkpt>
      <trkpt lat="50.1118" lon="1.8058">
        <ele>5.9</ele>
        <time>2022-04-22T09:23:37Z</time>
      </trkpt>
      <trkpt lat="50.1118" lon="1.8058">
        <ele>5.9</ele>
        <time>2022-04-22T09:23:38Z</time>
      </trkpt>
      <trkpt lat="50.1118" lon="1.8058">
        <ele>5.9</ele>
        <time>2022-04-22T09:23:39Z</time>
      </trkpt>
      <trkpt lat="50.1118" lon="1.8058">
        <ele>5.9</ele>
        <time>2022-04-22T09:23:40Z</time>
      </trkpt>
      <trkpt lat="50.1118" lon="1.8058">
        <ele>5.9</ele>
        <time>2022-04-22T09:23:41Z</time>
      </trkpt>
      <trkpt lat="50.1118" lon="1.8058">
        <ele>5.9</ele>
        <time>2022-04-22T09:23:42Z</time>
      </trkpt>
      <trkpt lat="50.1118" lon="1.8058">
        <ele>5.9</ele>
        <time>2022-04-22T09:23:43Z</time>
      </trkpt>
      <trkpt lat="50.1118" lon="1.8058">
        <ele>5.9</ele>
        <time>2022-04-22T09:23:44Z</time>
      </trkpt>
      <trkpt lat="50.1118" lon="1.8058">
        <ele>5.9</ele>
        <time>2022-04-22T09:23:45Z</time>
      </trkpt>
      <trkpt lat="50.1118" lon="1.8058">
        <ele>5.9</ele>
        <time>2022-04-22T09:23:46Z</time>
      </trkpt>
      <trkpt lat="50.1118" lon="1.8058">
        <ele>5.9</ele>
        <time>2022-04-22T09:23:47Z</time>
      </trkpt>
      <trkpt lat="50.1118" lon="1.8058">
        <ele>5.9</ele>
        <time>2022-04-22T09:23:48Z</time>
      </trkpt>
      <trkpt lat="50.1118" lon="1.8058">
        <ele>5.9</ele>
        <time>2022-04-22T09:23:49Z</time>
      </trkpt>
      <trkpt lat="50.1118" lon="1.8058">
        <ele>5.9</ele>
        <time>2022-04-22T09:23:50Z</time>
      </trkpt>
      <trkpt lat="50.1118" lon="1.8058">
        <ele>5.9</ele>
        <time>2022-04-22T09:23:51Z</time>
      </trkpt>
      <trkpt lat="50.1118" lon="1.8058">
        <ele>5.9</ele>
        <time>2022-04-22T09:23:52Z</time>
      </trkpt>
      <trkpt lat="50.1118" lon="1.8058">
        <ele>5.9</ele>
        <time>2022-04-22T09:23:53Z</time>
      </trkpt>
      <trkpt lat="50.1118" lon="1.8058">
        <ele>5.9</ele>
        <time>2022-04-22T09:23:54Z</time>
      </trkpt>
      <trkpt lat="50.1118" lon="1.8058">
        <ele>5.9</ele>
        <time>2022-04-22T09:23:55Z</time>
      </trkpt>
      <trkpt lat="50.1118" lon="1.8058">
        <ele>5.9</ele>
        <time>2022-04-22T09:23:56Z</time>
      </trkpt>
      <trkpt lat="50.1118" lon="1.8058">
        <ele>5.9</ele>
        <time>2022-04-22T09:23:57Z</time>
      </trkpt>
      <trkpt lat="50.1118" lon="1.8058">
        <ele>5.9</ele>
        <time>2022-04-22T09:23:58Z</time>
      </trkpt>
      <trkpt lat="50.1118" lon="1.8058">
        <ele>5.9</ele>
        <time>2022-04-22T09:23:59Z</time>
      </trkpt>
      <trkpt lat="50.1118" lon="1.8058">
        <ele>5.9</ele>
        <time>2022-04-22T09:24:00Z</time>
      </trkpt>
      <trkpt lat="50.1118" lon="1.8058">
        <ele>5.9</ele>
        <time>2022-04-22T09:24:01Z</time>
      </trkpt>
      <trkpt lat="50.1118" lon="1.8058">
        <ele>5.9</ele>
        <time>2022-04-22T09:24:02Z</time>
      </trkpt>
      <trkpt lat="50.1118" lon="1.8058">
        <ele>5.9</ele>
        <time>2022-04-22T09:24:03Z</time>
      </trkpt>
      <trkpt lat="50.1118" lon="1.8058">
        <ele>5.9</ele>
        <time>2022-04-22T09:24:04Z</time>
      </trkpt>
      <trkpt lat="50.1118" lon="1.8058">
        <ele>5.9</ele>
        <time>2022-04-22T09:24:05Z</time>
      </trkpt>
      <trkpt lat="50.1118" lon="1.8058">
        <ele>5.9</ele>
        <time>2022-04-22T09:24:06Z</time>
      </trkpt>
      <trkpt lat="50.1118" lon="1.8058">
        <ele>5.9</ele>
        <time>2022-04-22T09:24:07Z</time>
      </trkpt>
      <trkpt lat="50.1118" lon="1.8058">
        <ele>5.9</ele>
        <time>2022-04-22T09:24:08Z</time>
      </trkpt>
      <trkpt lat="50.1118" lon="1.8058">
        <ele>5.9</ele>
        <time>2022-04-22T09:24:09Z</time>
      </trkpt>
      <trkpt lat="50.1118" lon="1.8058">
        <ele>5.9</ele>
        <time>2022-04-22T09:24:10Z</time>
      </trkpt>
      <trkpt lat="50.1118" lon="1.8058">
        <ele>5.9</ele>
        <time>2022-04-22T09:24:11Z</time>
      </trkpt>
      <trkpt lat="50.1118" lon="1.8058">
        <ele>5.9</ele>
        <time>2022-04-22T09:24:12Z</time>
      </trkpt>
      <trkpt lat="50.1118" lon="1.8058">
        <ele>5.9</ele>
        <time>2022-04-22T09:24:13Z</time>
      </trkpt>
      <trkpt lat="50.1118" lon="1.8058">
        <ele>5.9</ele>
        <time>2022-04-22T09:24:14Z</time>
      </trkpt>
      <trkpt lat="50.1118" lon="1.8058">
        <ele>5.9</ele>
        <time>2022-04-22T09:24:15Z</time>
      </trkpt>
      <trkpt lat="50.11179" lon="1.80579">
        <ele>5.9</ele>
        <time>2022-04-22T09:24:16Z</time>
      </trkpt>
      <trkpt lat="50.11178" lon="1.80578">
        <ele>5.9</ele>
        <time>2022-04-22T09:24:17Z</time>
      </trkpt>
      <trkpt lat="50.11178" lon="1.80578">
        <ele>5.9</ele>
        <time>2022-04-22T09:24:18Z</time>
      </trkpt>
      <trkpt lat="50.11178" lon="1.80577">
        <ele>5.9</ele>
        <time>2022-04-22T09:24:19Z</time>
      </trkpt>
      <trkpt lat="50.11178" lon="1.80577">
        <ele>5.9</ele>
        <time>2022-04-22T09:24:21Z</time>
      </trkpt>
      <trkpt lat="50.11178" lon="1.80578">
        <ele>5.9</ele>
        <time>2022-04-22T09:24:22Z</time>
      </trkpt>
      <trkpt lat="50.11178" lon="1.80578">
        <ele>5.9</ele>
        <time>2022-04-22T09:24:23Z</time>
      </trkpt>
      <trkpt lat="50.11178" lon="1.80578">
        <ele>5.9</ele>
        <time>2022-04-22T09:24:24Z</time>
      </trkpt>
      <trkpt lat="50.11178" lon="1.80578">
        <ele>5.9</ele>
        <time>2022-04-22T09:24:25Z</time>
      </trkpt>
      <trkpt lat="50.11178" lon="1.80578">
        <ele>5.9</ele>
        <time>2022-04-22T09:24:27Z</time>
      </trkpt>
      <trkpt lat="50.11178" lon="1.80577">
        <ele>5.9</ele>
        <time>2022-04-22T09:24:29Z</time>
      </trkpt>
      <trkpt lat="50.11178" lon="1.80576">
        <ele>5.9</ele>
        <time>2022-04-22T09:24:30Z</time>
      </trkpt>
      <trkpt lat="50.11178" lon="1.80576">
        <ele>5.9</ele>
        <time>2022-04-22T09:24:31Z</time>
      </trkpt>
      <trkpt lat="50.11178" lon="1.80576">
        <ele>5.9</ele>
        <time>2022-04-22T09:24:32Z</time>
      </trkpt>
      <trkpt lat="50.11178" lon="1.80576">
        <ele>5.9</ele>
        <time>2022-04-22T09:24:34Z</time>
      </trkpt>
      <trkpt lat="50.11178" lon="1.80576">
        <ele>5.9</ele>
        <time>2022-04-22T09:24:35Z</time>
      </trkpt>
      <trkpt lat="50.11178" lon="1.80576">
        <ele>5.9</ele>
        <time>2022-04-22T09:24:36Z</time>
      </trkpt>
      <trkpt lat="50.11178" lon="1.80576">
        <ele>5.9</ele>
        <time>2022-04-22T09:24:37Z</time>
      </trkpt>
      <trkpt lat="50.11178" lon="1.80577">
        <ele>5.9</ele>
        <time>2022-04-22T09:24:39Z</time>
      </trkpt>
      <trkpt lat="50.11177" lon="1.80577">
        <ele>5.9</ele>
        <time>2022-04-22T09:24:40Z</time>
      </trkpt>
      <trkpt lat="50.11177" lon="1.80577">
        <ele>5.9</ele>
        <time>2022-04-22T09:24:41Z</time>
      </trkpt>
      <trkpt lat="50.11177" lon="1.80577">
        <ele>5.9</ele>
        <time>2022-04-22T09:24:42Z</time>
      </trkpt>
      <trkpt lat="50.11177" lon="1.80577">
        <ele>5.9</ele>
        <time>2022-04-22T09:24:43Z</time>
      </trkpt>
      <trkpt lat="50.11177" lon="1.80577">
        <ele>5.9</ele>
        <time>2022-04-22T09:24:44Z</time>
      </trkpt>
      <trkpt lat="50.11177" lon="1.80577">
        <ele>5.9</ele>
        <time>2022-04-22T09:24:45Z</time>
      </trkpt>
      <trkpt lat="50.11177" lon="1.80577">
        <ele>5.9</ele>
        <time>2022-04-22T09:24:46Z</time>
      </trkpt>
      <trkpt lat="50.11177" lon="1.80577">
        <ele>5.9</ele>
        <time>2022-04-22T09:24:47Z</time>
      </trkpt>
      <trkpt lat="50.11177" lon="1.80577">
        <ele>5.9</ele>
        <time>2022-04-22T09:24:48Z</time>
      </trkpt>
      <trkpt lat="50.11177" lon="1.80577">
        <ele>5.9</ele>
        <time>2022-04-22T09:24:49Z</time>
      </trkpt>
      <trkpt lat="50.11177" lon="1.80577">
        <ele>5.9</ele>
        <time>2022-04-22T09:24:50Z</time>
      </trkpt>
      <trkpt lat="50.11177" lon="1.80577">
        <ele>5.9</ele>
        <time>2022-04-22T09:24:51Z</time>
      </trkpt>
      <trkpt lat="50.11177" lon="1.80577">
        <ele>5.9</ele>
        <time>2022-04-22T09:24:52Z</time>
      </trkpt>
      <trkpt lat="50.11177" lon="1.80577">
        <ele>5.9</ele>
        <time>2022-04-22T09:24:53Z</time>
      </trkpt>
      <trkpt lat="50.11178" lon="1.80577">
        <ele>5.9</ele>
        <time>2022-04-22T09:24:54Z</time>
      </trkpt>
      <trkpt lat="50.11178" lon="1.80577">
        <ele>5.9</ele>
        <time>2022-04-22T09:24:55Z</time>
      </trkpt>
      <trkpt lat="50.11178" lon="1.80577">
        <ele>5.9</ele>
        <time>2022-04-22T09:24:56Z</time>
      </trkpt>
      <trkpt lat="50.11178" lon="1.80577">
        <ele>5.9</ele>
        <time>2022-04-22T09:24:57Z</time>
      </trkpt>
      <trkpt lat="50.11178" lon="1.80576">
        <ele>5.9</ele>
        <time>2022-04-22T09:24:58Z</time>
      </trkpt>
      <trkpt lat="50.11178" lon="1.80576">
        <ele>5.9</ele>
        <time>2022-04-22T09:24:59Z</time>
      </trkpt>
      <trkpt lat="50.11178" lon="1.80576">
        <ele>5.9</ele>
        <time>2022-04-22T09:25:00Z</time>
      </trkpt>
      <trkpt lat="50.11178" lon="1.80576">
        <ele>6</ele>
        <time>2022-04-22T09:25:01Z</time>
      </trkpt>
      <trkpt lat="50.11178" lon="1.80576">
        <ele>6</ele>
        <time>2022-04-22T09:25:02Z</time>
      </trkpt>
      <trkpt lat="50.11178" lon="1.80576">
        <ele>6</ele>
        <time>2022-04-22T09:25:03Z</time>
      </trkpt>
      <trkpt lat="50.11178" lon="1.80576">
        <ele>6</ele>
        <time>2022-04-22T09:25:04Z</time>
      </trkpt>
      <trkpt lat="50.11178" lon="1.80576">
        <ele>6</ele>
        <time>2022-04-22T09:25:05Z</time>
      </trkpt>
      <trkpt lat="50.11178" lon="1.80576">
        <ele>6</ele>
        <time>2022-04-22T09:25:06Z</time>
      </trkpt>
      <trkpt lat="50.11178" lon="1.80576">
        <ele>6</ele>
        <time>2022-04-22T09:25:07Z</time>
      </trkpt>
      <trkpt lat="50.11179" lon="1.80576">
        <ele>6</ele>
        <time>2022-04-22T09:25:08Z</time>
      </trkpt>
      <trkpt lat="50.1118" lon="1.80577">
        <ele>6</ele>
        <time>2022-04-22T09:25:09Z</time>
      </trkpt>
      <trkpt lat="50.11181" lon="1.80577">
        <ele>6</ele>
        <time>2022-04-22T09:25:10Z</time>
      </trkpt>
      <trkpt lat="50.11183" lon="1.80576">
        <ele>6</ele>
        <time>2022-04-22T09:25:11Z</time>
      </trkpt>
      <trkpt lat="50.11184" lon="1.80576">
        <ele>6</ele>
        <time>2022-04-22T09:25:12Z</time>
      </trkpt>
      <trkpt lat="50.11184" lon="1.80575">
        <ele>6</ele>
        <time>2022-04-22T09:25:13Z</time>
      </trkpt>
      <trkpt lat="50.11187" lon="1.80574">
        <ele>6</ele>
        <time>2022-04-22T09:25:14Z</time>
      </trkpt>
      <trkpt lat="50.11187" lon="1.80574">
        <ele>6</ele>
        <time>2022-04-22T09:25:15Z</time>
      </trkpt>
      <trkpt lat="50.11187" lon="1.80573">
        <ele>6</ele>
        <time>2022-04-22T09:25:16Z</time>
      </trkpt>
      <trkpt lat="50.11187" lon="1.80573">
        <ele>6</ele>
        <time>2022-04-22T09:25:18Z</time>
      </trkpt>
      <trkpt lat="50.11189" lon="1.80573">
        <ele>6</ele>
        <time>2022-04-22T09:25:19Z</time>
      </trkpt>
      <trkpt lat="50.1119" lon="1.80572">
        <ele>6</ele>
        <time>2022-04-22T09:25:20Z</time>
      </trkpt>
      <trkpt lat="50.1119" lon="1.80572">
        <ele>6</ele>
        <time>2022-04-22T09:25:21Z</time>
      </trkpt>
      <trkpt lat="50.11192" lon="1.8057">
        <ele>6</ele>
        <time>2022-04-22T09:25:22Z</time>
      </trkpt>
      <trkpt lat="50.11194" lon="1.8057">
        <ele>6.1</ele>
        <time>2022-04-22T09:25:23Z</time>
      </trkpt>
      <trkpt lat="50.11196" lon="1.8057">
        <ele>6.1</ele>
        <time>2022-04-22T09:25:24Z</time>
      </trkpt>
      <trkpt lat="50.11198" lon="1.8057">
        <ele>6.1</ele>
        <time>2022-04-22T09:25:25Z</time>
      </trkpt>
      <trkpt lat="50.11199" lon="1.8057">
        <ele>6.1</ele>
        <time>2022-04-22T09:25:27Z</time>
      </trkpt>
      <trkpt lat="50.112" lon="1.8057">
        <ele>6.1</ele>
        <time>2022-04-22T09:25:28Z</time>
      </trkpt>
      <trkpt lat="50.11201" lon="1.80569">
        <ele>6.1</ele>
        <time>2022-04-22T09:25:29Z</time>
      </trkpt>
      <trkpt lat="50.11203" lon="1.80568">
        <ele>6.1</ele>
        <time>2022-04-22T09:25:30Z</time>
      </trkpt>
      <trkpt lat="50.11204" lon="1.80567">
        <ele>6.1</ele>
        <time>2022-04-22T09:25:31Z</time>
      </trkpt>
      <trkpt lat="50.11204" lon="1.80567">
        <ele>6.1</ele>
        <time>2022-04-22T09:25:32Z</time>
      </trkpt>
      <trkpt lat="50.11206" lon="1.8056">
        <ele>6.1</ele>
        <time>2022-04-22T09:25:33Z</time>
      </trkpt>
      <trkpt lat="50.11204" lon="1.8056">
        <ele>6.1</ele>
        <time>2022-04-22T09:25:35Z</time>
      </trkpt>
      <trkpt lat="50.11203" lon="1.8056">
        <ele>6.1</ele>
        <time>2022-04-22T09:25:36Z</time>
      </trkpt>
      <trkpt lat="50.11203" lon="1.80558">
        <ele>6.1</ele>
        <time>2022-04-22T09:25:37Z</time>
      </trkpt>
      <trkpt lat="50.11203" lon="1.80557">
        <ele>6.1</ele>
        <time>2022-04-22T09:25:38Z</time>
      </trkpt>
      <trkpt lat="50.11203" lon="1.80556">
        <ele>6.1</ele>
        <time>2022-04-22T09:25:39Z</time>
      </trkpt>
      <trkpt lat="50.11203" lon="1.80554">
        <ele>6.2</ele>
        <time>2022-04-22T09:25:40Z</time>
      </trkpt>
      <trkpt lat="50.11203" lon="1.80552">
        <ele>6.2</ele>
        <time>2022-04-22T09:25:41Z</time>
      </trkpt>
      <trkpt lat="50.11203" lon="1.80551">
        <ele>6.2</ele>
        <time>2022-04-22T09:25:42Z</time>
      </trkpt>
      <trkpt lat="50.11203" lon="1.80549">
        <ele>6.2</ele>
        <time>2022-04-22T09:25:43Z</time>
      </trkpt>
      <trkpt lat="50.11203" lon="1.80547">
        <ele>6.2</ele>
        <time>2022-04-22T09:25:45Z</time>
      </trkpt>
      <trkpt lat="50.11203" lon="1.80546">
        <ele>6.2</ele>
        <time>2022-04-22T09:25:46Z</time>
      </trkpt>
      <trkpt lat="50.11203" lon="1.80544">
        <ele>6.2</ele>
        <time>2022-04-22T09:25:47Z</time>
      </trkpt>
      <trkpt lat="50.11204" lon="1.80541">
        <ele>6.2</ele>
        <time>2022-04-22T09:25:48Z</time>
      </trkpt>
      <trkpt lat="50.11204" lon="1.80539">
        <ele>6.2</ele>
        <time>2022-04-22T09:25:49Z</time>
      </trkpt>
      <trkpt lat="50.11204" lon="1.80538">
        <ele>6.2</ele>
        <time>2022-04-22T09:25:50Z</time>
      </trkpt>
      <trkpt lat="50.11205" lon="1.80535">
        <ele>6.2</ele>
        <time>2022-04-22T09:25:51Z</time>
      </trkpt>
      <trkpt lat="50.11205" lon="1.80532">
        <ele>6.2</ele>
        <time>2022-04-22T09:25:52Z</time>
      </trkpt>
      <trkpt lat="50.11205" lon="1.8053">
        <ele>6.2</ele>
        <time>2022-04-22T09:25:53Z</time>
      </trkpt>
      <trkpt lat="50.11206" lon="1.80528">
        <ele>6.2</ele>
        <time>2022-04-22T09:25:54Z</time>
      </trkpt>
      <trkpt lat="50.11206" lon="1.80525">
        <ele>6.2</ele>
        <time>2022-04-22T09:25:55Z</time>
      </trkpt>
      <trkpt lat="50.11207" lon="1.80523">
        <ele>6.2</ele>
        <time>2022-04-22T09:25:57Z</time>
      </trkpt>
      <trkpt lat="50.11207" lon="1.80521">
        <ele>6.2</ele>
        <time>2022-04-22T09:25:58Z</time>
      </trkpt>
      <trkpt lat="50.11208" lon="1.80519">
        <ele>6.2</ele>
        <time>2022-04-22T09:25:59Z</time>
      </trkpt>
      <trkpt lat="50.11208" lon="1.80517">
        <ele>6.2</ele>
        <time>2022-04-22T09:26:00Z</time>
      </trkpt>
      <trkpt lat="50.11209" lon="1.80514">
        <ele>6.2</ele>
        <time>2022-04-22T09:26:01Z</time>
      </trkpt>
      <trkpt lat="50.1121" lon="1.80511">
        <ele>6.2</ele>
        <time>2022-04-22T09:26:02Z</time>
      </trkpt>
      <trkpt lat="50.1121" lon="1.8051">
        <ele>6.2</ele>
        <time>2022-04-22T09:26:03Z</time>
      </trkpt>
      <trkpt lat="50.1121" lon="1.80509">
        <ele>6.2</ele>
        <time>2022-04-22T09:26:04Z</time>
      </trkpt>
      <trkpt lat="50.11211" lon="1.80507">
        <ele>6.2</ele>
        <time>2022-04-22T09:26:05Z</time>
      </trkpt>
      <trkpt lat="50.11211" lon="1.80505">
        <ele>6.2</ele>
        <time>2022-04-22T09:26:06Z</time>
      </trkpt>
      <trkpt lat="50.11212" lon="1.80502">
        <ele>6.2</ele>
        <time>2022-04-22T09:26:08Z</time>
      </trkpt>
      <trkpt lat="50.11212" lon="1.80501">
        <ele>6.2</ele>
        <time>2022-04-22T09:26:09Z</time>
      </trkpt>
      <trkpt lat="50.11213" lon="1.805">
        <ele>6.2</ele>
        <time>2022-04-22T09:26:10Z</time>
      </trkpt>
      <trkpt lat="50.11213" lon="1.80498">
        <ele>6.2</ele>
        <time>2022-04-22T09:26:11Z</time>
      </trkpt>
      <trkpt lat="50.11215" lon="1.80494">
        <ele>6.2</ele>
        <time>2022-04-22T09:26:13Z</time>
      </trkpt>
      <trkpt lat="50.11216" lon="1.80492">
        <ele>6.2</ele>
        <time>2022-04-22T09:26:15Z</time>
      </trkpt>
      <trkpt lat="50.11216" lon="1.8049">
        <ele>6.2</ele>
        <time>2022-04-22T09:26:16Z</time>
      </trkpt>
      <trkpt lat="50.11218" lon="1.80486">
        <ele>6.2</ele>
        <time>2022-04-22T09:26:18Z</time>
      </trkpt>
      <trkpt lat="50.11218" lon="1.80485">
        <ele>6.2</ele>
        <time>2022-04-22T09:26:19Z</time>
      </trkpt>
      <trkpt lat="50.11219" lon="1.80484">
        <ele>6.2</ele>
        <time>2022-04-22T09:26:20Z</time>
      </trkpt>
      <trkpt lat="50.1122" lon="1.80482">
        <ele>6.2</ele>
        <time>2022-04-22T09:26:21Z</time>
      </trkpt>
      <trkpt lat="50.11221" lon="1.80481">
        <ele>6.2</ele>
        <time>2022-04-22T09:26:22Z</time>
      </trkpt>
      <trkpt lat="50.11222" lon="1.80479">
        <ele>6.2</ele>
        <time>2022-04-22T09:26:23Z</time>
      </trkpt>
      <trkpt lat="50.11223" lon="1.80477">
        <ele>6.2</ele>
        <time>2022-04-22T09:26:24Z</time>
      </trkpt>
      <trkpt lat="50.11223" lon="1.80476">
        <ele>6.1</ele>
        <time>2022-04-22T09:26:25Z</time>
      </trkpt>
      <trkpt lat="50.11224" lon="1.80473">
        <ele>6.1</ele>
        <time>2022-04-22T09:26:26Z</time>
      </trkpt>
      <trkpt lat="50.11225" lon="1.80471">
        <ele>6.1</ele>
        <time>2022-04-22T09:26:27Z</time>
      </trkpt>
      <trkpt lat="50.11225" lon="1.8047">
        <ele>6.1</ele>
        <time>2022-04-22T09:26:28Z</time>
      </trkpt>
      <trkpt lat="50.11227" lon="1.80467">
        <ele>6.1</ele>
        <time>2022-04-22T09:26:29Z</time>
      </trkpt>
      <trkpt lat="50.11228" lon="1.80466">
        <ele>6.1</ele>
        <time>2022-04-22T09:26:31Z</time>
      </trkpt>
      <trkpt lat="50.11228" lon="1.80465">
        <ele>6</ele>
        <time>2022-04-22T09:26:32Z</time>
      </trkpt>
      <trkpt lat="50.11229" lon="1.80463">
        <ele>6</ele>
        <time>2022-04-22T09:26:33Z</time>
      </trkpt>
      <trkpt lat="50.11229" lon="1.80462">
        <ele>6</ele>
        <time>2022-04-22T09:26:34Z</time>
      </trkpt>
      <trkpt lat="50.1123" lon="1.8046">
        <ele>6</ele>
        <time>2022-04-22T09:26:35Z</time>
      </trkpt>
      <trkpt lat="50.11231" lon="1.80458">
        <ele>6</ele>
        <time>2022-04-22T09:26:36Z</time>
      </trkpt>
      <trkpt lat="50.11232" lon="1.80456">
        <ele>6</ele>
        <time>2022-04-22T09:26:37Z</time>
      </trkpt>
      <trkpt lat="50.11233" lon="1.80454">
        <ele>5.9</ele>
        <time>2022-04-22T09:26:38Z</time>
      </trkpt>
      <trkpt lat="50.11234" lon="1.80453">
        <ele>5.9</ele>
        <time>2022-04-22T09:26:39Z</time>
      </trkpt>
      <trkpt lat="50.11234" lon="1.80452">
        <ele>5.9</ele>
        <time>2022-04-22T09:26:40Z</time>
      </trkpt>
      <trkpt lat="50.11235" lon="1.8045">
        <ele>5.9</ele>
        <time>2022-04-22T09:26:41Z</time>
      </trkpt>
      <trkpt lat="50.11236" lon="1.80448">
        <ele>5.9</ele>
        <time>2022-04-22T09:26:42Z</time>
      </trkpt>
      <trkpt lat="50.11236" lon="1.80446">
        <ele>5.9</ele>
        <time>2022-04-22T09:26:43Z</time>
      </trkpt>
      <trkpt lat="50.11237" lon="1.80444">
        <ele>5.8</ele>
        <time>2022-04-22T09:26:44Z</time>
      </trkpt>
      <trkpt lat="50.11238" lon="1.80442">
        <ele>5.8</ele>
        <time>2022-04-22T09:26:46Z</time>
      </trkpt>
      <trkpt lat="50.11238" lon="1.80441">
        <ele>5.8</ele>
        <time>2022-04-22T09:26:47Z</time>
      </trkpt>
      <trkpt lat="50.11238" lon="1.80438">
        <ele>5.8</ele>
        <time>2022-04-22T09:26:48Z</time>
      </trkpt>
      <trkpt lat="50.11239" lon="1.80437">
        <ele>5.8</ele>
        <time>2022-04-22T09:26:49Z</time>
      </trkpt>
      <trkpt lat="50.1124" lon="1.80434">
        <ele>5.8</ele>
        <time>2022-04-22T09:26:50Z</time>
      </trkpt>
      <trkpt lat="50.1124" lon="1.80433">
        <ele>5.7</ele>
        <time>2022-04-22T09:26:51Z</time>
      </trkpt>
      <trkpt lat="50.1124" lon="1.80432">
        <ele>5.7</ele>
        <time>2022-04-22T09:26:52Z</time>
      </trkpt>
      <trkpt lat="50.11241" lon="1.8043">
        <ele>5.7</ele>
        <time>2022-04-22T09:26:53Z</time>
      </trkpt>
      <trkpt lat="50.11242" lon="1.80428">
        <ele>5.7</ele>
        <time>2022-04-22T09:26:54Z</time>
      </trkpt>
      <trkpt lat="50.11243" lon="1.80426">
        <ele>5.7</ele>
        <time>2022-04-22T09:26:55Z</time>
      </trkpt>
      <trkpt lat="50.11243" lon="1.80425">
        <ele>5.7</ele>
        <time>2022-04-22T09:26:56Z</time>
      </trkpt>
      <trkpt lat="50.11245" lon="1.80421">
        <ele>5.6</ele>
        <time>2022-04-22T09:26:58Z</time>
      </trkpt>
      <trkpt lat="50.11245" lon="1.8042">
        <ele>5.6</ele>
        <time>2022-04-22T09:26:59Z</time>
      </trkpt>
      <trkpt lat="50.11245" lon="1.80418">
        <ele>5.6</ele>
        <time>2022-04-22T09:27:00Z</time>
      </trkpt>
      <trkpt lat="50.11246" lon="1.80417">
        <ele>5.6</ele>
        <time>2022-04-22T09:27:01Z</time>
      </trkpt>
      <trkpt lat="50.11246" lon="1.80415">
        <ele>5.6</ele>
        <time>2022-04-22T09:27:02Z</time>
      </trkpt>
      <trkpt lat="50.11247" lon="1.80412">
        <ele>5.5</ele>
        <time>2022-04-22T09:27:03Z</time>
      </trkpt>
      <trkpt lat="50.11247" lon="1.80411">
        <ele>5.5</ele>
        <time>2022-04-22T09:27:05Z</time>
      </trkpt>
      <trkpt lat="50.11248" lon="1.8041">
        <ele>5.5</ele>
        <time>2022-04-22T09:27:06Z</time>
      </trkpt>
      <trkpt lat="50.11248" lon="1.80408">
        <ele>5.5</ele>
        <time>2022-04-22T09:27:07Z</time>
      </trkpt>
      <trkpt lat="50.11249" lon="1.80406">
        <ele>5.5</ele>
        <time>2022-04-22T09:27:08Z</time>
      </trkpt>
      <trkpt lat="50.11249" lon="1.80405">
        <ele>5.5</ele>
        <time>2022-04-22T09:27:09Z</time>
      </trkpt>
      <trkpt lat="50.1125" lon="1.80403">
        <ele>5.5</ele>
        <time>2022-04-22T09:27:10Z</time>
      </trkpt>
      <trkpt lat="50.1125" lon="1.80402">
        <ele>5.4</ele>
        <time>2022-04-22T09:27:11Z</time>
      </trkpt>
      <trkpt lat="50.11252" lon="1.80398">
        <ele>5.4</ele>
        <time>2022-04-22T09:27:13Z</time>
      </trkpt>
      <trkpt lat="50.11252" lon="1.80396">
        <ele>5.4</ele>
        <time>2022-04-22T09:27:14Z</time>
      </trkpt>
      <trkpt lat="50.11253" lon="1.80395">
        <ele>5.4</ele>
        <time>2022-04-22T09:27:15Z</time>
      </trkpt>
      <trkpt lat="50.11254" lon="1.80393">
        <ele>5.4</ele>
        <time>2022-04-22T09:27:16Z</time>
      </trkpt>
      <trkpt lat="50.11255" lon="1.80391">
        <ele>5.3</ele>
        <time>2022-04-22T09:27:17Z</time>
      </trkpt>
      <trkpt lat="50.11257" lon="1.80388">
        <ele>5.3</ele>
        <time>2022-04-22T09:27:19Z</time>
      </trkpt>
      <trkpt lat="50.11257" lon="1.80386">
        <ele>5.3</ele>
        <time>2022-04-22T09:27:20Z</time>
      </trkpt>
      <trkpt lat="50.11258" lon="1.80383">
        <ele>5.3</ele>
        <time>2022-04-22T09:27:21Z</time>
      </trkpt>
      <trkpt lat="50.11259" lon="1.80382">
        <ele>5.3</ele>
        <time>2022-04-22T09:27:23Z</time>
      </trkpt>
      <trkpt lat="50.11259" lon="1.8038">
        <ele>5.3</ele>
        <time>2022-04-22T09:27:24Z</time>
      </trkpt>
      <trkpt lat="50.1126" lon="1.80378">
        <ele>5.2</ele>
        <time>2022-04-22T09:27:25Z</time>
      </trkpt>
      <trkpt lat="50.1126" lon="1.80377">
        <ele>5.2</ele>
        <time>2022-04-22T09:27:26Z</time>
      </trkpt>
      <trkpt lat="50.11262" lon="1.80374">
        <ele>5.2</ele>
        <time>2022-04-22T09:27:28Z</time>
      </trkpt>
      <trkpt lat="50.11262" lon="1.80373">
        <ele>5.2</ele>
        <time>2022-04-22T09:27:29Z</time>
      </trkpt>
      <trkpt lat="50.11263" lon="1.80371">
        <ele>5.2</ele>
        <time>2022-04-22T09:27:30Z</time>
      </trkpt>
      <trkpt lat="50.11264" lon="1.80368">
        <ele>5.1</ele>
        <time>2022-04-22T09:27:31Z</time>
      </trkpt>
      <trkpt lat="50.11265" lon="1.80366">
        <ele>5.1</ele>
        <time>2022-04-22T09:27:32Z</time>
      </trkpt>
      <trkpt lat="50.11266" lon="1.80364">
        <ele>5.1</ele>
        <time>2022-04-22T09:27:33Z</time>
      </trkpt>
      <trkpt lat="50.11266" lon="1.80363">
        <ele>5.1</ele>
        <time>2022-04-22T09:27:35Z</time>
      </trkpt>
      <trkpt lat="50.11267" lon="1.80361">
        <ele>5.1</ele>
        <time>2022-04-22T09:27:36Z</time>
      </trkpt>
      <trkpt lat="50.11267" lon="1.8036">
        <ele>5.1</ele>
        <time>2022-04-22T09:27:37Z</time>
      </trkpt>
      <trkpt lat="50.11269" lon="1.80357">
        <ele>5</ele>
        <time>2022-04-22T09:27:38Z</time>
      </trkpt>
      <trkpt lat="50.11269" lon="1.80355">
        <ele>5</ele>
        <time>2022-04-22T09:27:39Z</time>
      </trkpt>
      <trkpt lat="50.1127" lon="1.80353">
        <ele>5</ele>
        <time>2022-04-22T09:27:40Z</time>
      </trkpt>
      <trkpt lat="50.11271" lon="1.80352">
        <ele>5</ele>
        <time>2022-04-22T09:27:41Z</time>
      </trkpt>
      <trkpt lat="50.11271" lon="1.8035">
        <ele>5</ele>
        <time>2022-04-22T09:27:42Z</time>
      </trkpt>
      <trkpt lat="50.11272" lon="1.80348">
        <ele>4.9</ele>
        <time>2022-04-22T09:27:43Z</time>
      </trkpt>
      <trkpt lat="50.11273" lon="1.80346">
        <ele>4.9</ele>
        <time>2022-04-22T09:27:44Z</time>
      </trkpt>
      <trkpt lat="50.11273" lon="1.80344">
        <ele>4.9</ele>
        <time>2022-04-22T09:27:45Z</time>
      </trkpt>
      <trkpt lat="50.11274" lon="1.80342">
        <ele>4.9</ele>
        <time>2022-04-22T09:27:47Z</time>
      </trkpt>
      <trkpt lat="50.11274" lon="1.80339">
        <ele>4.9</ele>
        <time>2022-04-22T09:27:48Z</time>
      </trkpt>
      <trkpt lat="50.11275" lon="1.80338">
        <ele>4.9</ele>
        <time>2022-04-22T09:27:49Z</time>
      </trkpt>
      <trkpt lat="50.11275" lon="1.80336">
        <ele>4.8</ele>
        <time>2022-04-22T09:27:50Z</time>
      </trkpt>
      <trkpt lat="50.11276" lon="1.80334">
        <ele>4.8</ele>
        <time>2022-04-22T09:27:51Z</time>
      </trkpt>
      <trkpt lat="50.11276" lon="1.80333">
        <ele>4.8</ele>
        <time>2022-04-22T09:27:52Z</time>
      </trkpt>
      <trkpt lat="50.11277" lon="1.8033">
        <ele>4.8</ele>
        <time>2022-04-22T09:27:53Z</time>
      </trkpt>
      <trkpt lat="50.11278" lon="1.80327">
        <ele>4.8</ele>
        <time>2022-04-22T09:27:54Z</time>
      </trkpt>
      <trkpt lat="50.11278" lon="1.80326">
        <ele>4.8</ele>
        <time>2022-04-22T09:27:55Z</time>
      </trkpt>
      <trkpt lat="50.11279" lon="1.80325">
        <ele>4.8</ele>
        <time>2022-04-22T09:27:57Z</time>
      </trkpt>
      <trkpt lat="50.11279" lon="1.80323">
        <ele>4.8</ele>
        <time>2022-04-22T09:27:58Z</time>
      </trkpt>
      <trkpt lat="50.1128" lon="1.80322">
        <ele>4.7</ele>
        <time>2022-04-22T09:27:59Z</time>
      </trkpt>
      <trkpt lat="50.1128" lon="1.80321">
        <ele>4.7</ele>
        <time>2022-04-22T09:28:00Z</time>
      </trkpt>
      <trkpt lat="50.11282" lon="1.80318">
        <ele>4.7</ele>
        <time>2022-04-22T09:28:01Z</time>
      </trkpt>
      <trkpt lat="50.11282" lon="1.80317">
        <ele>4.7</ele>
        <time>2022-04-22T09:28:02Z</time>
      </trkpt>
      <trkpt lat="50.11282" lon="1.80315">
        <ele>4.7</ele>
        <time>2022-04-22T09:28:03Z</time>
      </trkpt>
      <trkpt lat="50.11283" lon="1.80314">
        <ele>4.7</ele>
        <time>2022-04-22T09:28:04Z</time>
      </trkpt>
      <trkpt lat="50.11283" lon="1.80312">
        <ele>4.7</ele>
        <time>2022-04-22T09:28:05Z</time>
      </trkpt>
      <trkpt lat="50.11284" lon="1.8031">
        <ele>4.7</ele>
        <time>2022-04-22T09:28:06Z</time>
      </trkpt>
      <trkpt lat="50.11285" lon="1.80308">
        <ele>4.7</ele>
        <time>2022-04-22T09:28:08Z</time>
      </trkpt>
      <trkpt lat="50.11285" lon="1.80307">
        <ele>4.6</ele>
        <time>2022-04-22T09:28:09Z</time>
      </trkpt>
      <trkpt lat="50.11286" lon="1.80305">
        <ele>4.6</ele>
        <time>2022-04-22T09:28:10Z</time>
      </trkpt>
      <trkpt lat="50.11287" lon="1.80303">
        <ele>4.6</ele>
        <time>2022-04-22T09:28:11Z</time>
      </trkpt>
      <trkpt lat="50.11288" lon="1.803">
        <ele>4.6</ele>
        <time>2022-04-22T09:28:13Z</time>
      </trkpt>
      <trkpt lat="50.11289" lon="1.80299">
        <ele>4.6</ele>
        <time>2022-04-22T09:28:14Z</time>
      </trkpt>
      <trkpt lat="50.1129" lon="1.80296">
        <ele>4.6</ele>
        <time>2022-04-22T09:28:15Z</time>
      </trkpt>
      <trkpt lat="50.11291" lon="1.80295">
        <ele>4.6</ele>
        <time>2022-04-22T09:28:16Z</time>
      </trkpt>
      <trkpt lat="50.11292" lon="1.80293">
        <ele>4.5</ele>
        <time>2022-04-22T09:28:17Z</time>
      </trkpt>
      <trkpt lat="50.11293" lon="1.8029">
        <ele>4.5</ele>
        <time>2022-04-22T09:28:18Z</time>
      </trkpt>
      <trkpt lat="50.11294" lon="1.80288">
        <ele>4.5</ele>
        <time>2022-04-22T09:28:20Z</time>
      </trkpt>
      <trkpt lat="50.11295" lon="1.80287">
        <ele>4.5</ele>
        <time>2022-04-22T09:28:21Z</time>
      </trkpt>
      <trkpt lat="50.11295" lon="1.80286">
        <ele>4.5</ele>
        <time>2022-04-22T09:28:22Z</time>
      </trkpt>
      <trkpt lat="50.11296" lon="1.80284">
        <ele>4.5</ele>
        <time>2022-04-22T09:28:23Z</time>
      </trkpt>
      <trkpt lat="50.11297" lon="1.80282">
        <ele>4.5</ele>
        <time>2022-04-22T09:28:24Z</time>
      </trkpt>
      <trkpt lat="50.11298" lon="1.8028">
        <ele>4.5</ele>
        <time>2022-04-22T09:28:25Z</time>
      </trkpt>
      <trkpt lat="50.11299" lon="1.80278">
        <ele>4.5</ele>
        <time>2022-04-22T09:28:26Z</time>
      </trkpt>
      <trkpt lat="50.11299" lon="1.80277">
        <ele>4.4</ele>
        <time>2022-04-22T09:28:27Z</time>
      </trkpt>
      <trkpt lat="50.11301" lon="1.80275">
        <ele>4.4</ele>
        <time>2022-04-22T09:28:28Z</time>
      </trkpt>
      <trkpt lat="50.11301" lon="1.80274">
        <ele>4.4</ele>
        <time>2022-04-22T09:28:29Z</time>
      </trkpt>
      <trkpt lat="50.11302" lon="1.80271">
        <ele>4.4</ele>
        <time>2022-04-22T09:28:30Z</time>
      </trkpt>
      <trkpt lat="50.11303" lon="1.8027">
        <ele>4.4</ele>
        <time>2022-04-22T09:28:31Z</time>
      </trkpt>
      <trkpt lat="50.11303" lon="1.80269">
        <ele>4.4</ele>
        <time>2022-04-22T09:28:32Z</time>
      </trkpt>
      <trkpt lat="50.11305" lon="1.80266">
        <ele>4.4</ele>
        <time>2022-04-22T09:28:33Z</time>
      </trkpt>
      <trkpt lat="50.11305" lon="1.80265">
        <ele>4.4</ele>
        <time>2022-04-22T09:28:34Z</time>
      </trkpt>
      <trkpt lat="50.11306" lon="1.80263">
        <ele>4.4</ele>
        <time>2022-04-22T09:28:36Z</time>
      </trkpt>
      <trkpt lat="50.11306" lon="1.80262">
        <ele>4.4</ele>
        <time>2022-04-22T09:28:37Z</time>
      </trkpt>
      <trkpt lat="50.11307" lon="1.80261">
        <ele>4.4</ele>
        <time>2022-04-22T09:28:38Z</time>
      </trkpt>
      <trkpt lat="50.11307" lon="1.80259">
        <ele>4.4</ele>
        <time>2022-04-22T09:28:39Z</time>
      </trkpt>
      <trkpt lat="50.11308" lon="1.80257">
        <ele>4.3</ele>
        <time>2022-04-22T09:28:40Z</time>
      </trkpt>
      <trkpt lat="50.11308" lon="1.80256">
        <ele>4.3</ele>
        <time>2022-04-22T09:28:41Z</time>
      </trkpt>
      <trkpt lat="50.11309" lon="1.80254">
        <ele>4.3</ele>
        <time>2022-04-22T09:28:42Z</time>
      </trkpt>
      <trkpt lat="50.1131" lon="1.80251">
        <ele>4.3</ele>
        <time>2022-04-22T09:28:43Z</time>
      </trkpt>
      <trkpt lat="50.1131" lon="1.8025">
        <ele>4.3</ele>
        <time>2022-04-22T09:28:44Z</time>
      </trkpt>
      <trkpt lat="50.11311" lon="1.80249">
        <ele>4.3</ele>
        <time>2022-04-22T09:28:45Z</time>
      </trkpt>
      <trkpt lat="50.11311" lon="1.80247">
        <ele>4.3</ele>
        <time>2022-04-22T09:28:47Z</time>
      </trkpt>
      <trkpt lat="50.11312" lon="1.80244">
        <ele>4.2</ele>
        <time>2022-04-22T09:28:49Z</time>
      </trkpt>
      <trkpt lat="50.11313" lon="1.80243">
        <ele>4.2</ele>
        <time>2022-04-22T09:28:50Z</time>
      </trkpt>
      <trkpt lat="50.11313" lon="1.80241">
        <ele>4.2</ele>
        <time>2022-04-22T09:28:51Z</time>
      </trkpt>
      <trkpt lat="50.11314" lon="1.80239">
        <ele>4.2</ele>
        <time>2022-04-22T09:28:52Z</time>
      </trkpt>
      <trkpt lat="50.11315" lon="1.80235">
        <ele>4.2</ele>
        <time>2022-04-22T09:28:53Z</time>
      </trkpt>
      <trkpt lat="50.11316" lon="1.80234">
        <ele>4.2</ele>
        <time>2022-04-22T09:28:55Z</time>
      </trkpt>
      <trkpt lat="50.11317" lon="1.80233">
        <ele>4.1</ele>
        <time>2022-04-22T09:28:56Z</time>
      </trkpt>
      <trkpt lat="50.11317" lon="1.80231">
        <ele>4.1</ele>
        <time>2022-04-22T09:28:57Z</time>
      </trkpt>
      <trkpt lat="50.11319" lon="1.80229">
        <ele>4.1</ele>
        <time>2022-04-22T09:28:58Z</time>
      </trkpt>
      <trkpt lat="50.1132" lon="1.80227">
        <ele>4.1</ele>
        <time>2022-04-22T09:28:59Z</time>
      </trkpt>
      <trkpt lat="50.11321" lon="1.80225">
        <ele>4</ele>
        <time>2022-04-22T09:29:00Z</time>
      </trkpt>
      <trkpt lat="50.11322" lon="1.80223">
        <ele>4</ele>
        <time>2022-04-22T09:29:01Z</time>
      </trkpt>
      <trkpt lat="50.11323" lon="1.80222">
        <ele>4</ele>
        <time>2022-04-22T09:29:02Z</time>
      </trkpt>
      <trkpt lat="50.11324" lon="1.8022">
        <ele>4</ele>
        <time>2022-04-22T09:29:03Z</time>
      </trkpt>
      <trkpt lat="50.11324" lon="1.80219">
        <ele>4</ele>
        <time>2022-04-22T09:29:04Z</time>
      </trkpt>
      <trkpt lat="50.11325" lon="1.80218">
        <ele>4</ele>
        <time>2022-04-22T09:29:06Z</time>
      </trkpt>
      <trkpt lat="50.11326" lon="1.80216">
        <ele>3.9</ele>
        <time>2022-04-22T09:29:07Z</time>
      </trkpt>
      <trkpt lat="50.11328" lon="1.80213">
        <ele>3.9</ele>
        <time>2022-04-22T09:29:08Z</time>
      </trkpt>
      <trkpt lat="50.11329" lon="1.80212">
        <ele>3.9</ele>
        <time>2022-04-22T09:29:09Z</time>
      </trkpt>
      <trkpt lat="50.11329" lon="1.80209">
        <ele>3.9</ele>
        <time>2022-04-22T09:29:10Z</time>
      </trkpt>
      <trkpt lat="50.11331" lon="1.80206">
        <ele>3.8</ele>
        <time>2022-04-22T09:29:11Z</time>
      </trkpt>
      <trkpt lat="50.11332" lon="1.80205">
        <ele>3.8</ele>
        <time>2022-04-22T09:29:12Z</time>
      </trkpt>
      <trkpt lat="50.11333" lon="1.80202">
        <ele>3.8</ele>
        <time>2022-04-22T09:29:14Z</time>
      </trkpt>
      <trkpt lat="50.11333" lon="1.80201">
        <ele>3.8</ele>
        <time>2022-04-22T09:29:15Z</time>
      </trkpt>
      <trkpt lat="50.11334" lon="1.80199">
        <ele>3.7</ele>
        <time>2022-04-22T09:29:16Z</time>
      </trkpt>
      <trkpt lat="50.11336" lon="1.80195">
        <ele>3.7</ele>
        <time>2022-04-22T09:29:17Z</time>
      </trkpt>
      <trkpt lat="50.11336" lon="1.80195">
        <ele>3.7</ele>
        <time>2022-04-22T09:29:18Z</time>
      </trkpt>
      <trkpt lat="50.11337" lon="1.80192">
        <ele>3.7</ele>
        <time>2022-04-22T09:29:19Z</time>
      </trkpt>
      <trkpt lat="50.11338" lon="1.80191">
        <ele>3.7</ele>
        <time>2022-04-22T09:29:21Z</time>
      </trkpt>
      <trkpt lat="50.11338" lon="1.80189">
        <ele>3.7</ele>
        <time>2022-04-22T09:29:22Z</time>
      </trkpt>
      <trkpt lat="50.11338" lon="1.80187">
        <ele>3.7</ele>
        <time>2022-04-22T09:29:23Z</time>
      </trkpt>
      <trkpt lat="50.11339" lon="1.80185">
        <ele>3.7</ele>
        <time>2022-04-22T09:29:24Z</time>
      </trkpt>
      <trkpt lat="50.1134" lon="1.80182">
        <ele>3.6</ele>
        <time>2022-04-22T09:29:25Z</time>
      </trkpt>
      <trkpt lat="50.1134" lon="1.80181">
        <ele>3.6</ele>
        <time>2022-04-22T09:29:26Z</time>
      </trkpt>
      <trkpt lat="50.11341" lon="1.80179">
        <ele>3.6</ele>
        <time>2022-04-22T09:29:27Z</time>
      </trkpt>
      <trkpt lat="50.11341" lon="1.80178">
        <ele>3.6</ele>
        <time>2022-04-22T09:29:29Z</time>
      </trkpt>
      <trkpt lat="50.11341" lon="1.80176">
        <ele>3.6</ele>
        <time>2022-04-22T09:29:30Z</time>
      </trkpt>
      <trkpt lat="50.11342" lon="1.80174">
        <ele>3.6</ele>
        <time>2022-04-22T09:29:31Z</time>
      </trkpt>
      <trkpt lat="50.11343" lon="1.80172">
        <ele>3.6</ele>
        <time>2022-04-22T09:29:32Z</time>
      </trkpt>
      <trkpt lat="50.11344" lon="1.8017">
        <ele>3.6</ele>
        <time>2022-04-22T09:29:33Z</time>
      </trkpt>
      <trkpt lat="50.11344" lon="1.80167">
        <ele>3.6</ele>
        <time>2022-04-22T09:29:34Z</time>
      </trkpt>
      <trkpt lat="50.11345" lon="1.80166">
        <ele>3.6</ele>
        <time>2022-04-22T09:29:35Z</time>
      </trkpt>
      <trkpt lat="50.11345" lon="1.80165">
        <ele>3.6</ele>
        <time>2022-04-22T09:29:36Z</time>
      </trkpt>
      <trkpt lat="50.11346" lon="1.80162">
        <ele>3.6</ele>
        <time>2022-04-22T09:29:37Z</time>
      </trkpt>
      <trkpt lat="50.11346" lon="1.80161">
        <ele>3.6</ele>
        <time>2022-04-22T09:29:38Z</time>
      </trkpt>
      <trkpt lat="50.11347" lon="1.80159">
        <ele>3.6</ele>
        <time>2022-04-22T09:29:39Z</time>
      </trkpt>
      <trkpt lat="50.11347" lon="1.80158">
        <ele>3.6</ele>
        <time>2022-04-22T09:29:40Z</time>
      </trkpt>
      <trkpt lat="50.11348" lon="1.80157">
        <ele>3.6</ele>
        <time>2022-04-22T09:29:41Z</time>
      </trkpt>
      <trkpt lat="50.11349" lon="1.80154">
        <ele>3.6</ele>
        <time>2022-04-22T09:29:42Z</time>
      </trkpt>
      <trkpt lat="50.1135" lon="1.80153">
        <ele>3.6</ele>
        <time>2022-04-22T09:29:43Z</time>
      </trkpt>
      <trkpt lat="50.1135" lon="1.80152">
        <ele>3.6</ele>
        <time>2022-04-22T09:29:44Z</time>
      </trkpt>
      <trkpt lat="50.11351" lon="1.8015">
        <ele>3.6</ele>
        <time>2022-04-22T09:29:46Z</time>
      </trkpt>
      <trkpt lat="50.11352" lon="1.80149">
        <ele>3.6</ele>
        <time>2022-04-22T09:29:47Z</time>
      </trkpt>
      <trkpt lat="50.11353" lon="1.80147">
        <ele>3.6</ele>
        <time>2022-04-22T09:29:48Z</time>
      </trkpt>
      <trkpt lat="50.11353" lon="1.80146">
        <ele>3.6</ele>
        <time>2022-04-22T09:29:49Z</time>
      </trkpt>
      <trkpt lat="50.11354" lon="1.80144">
        <ele>3.6</ele>
        <time>2022-04-22T09:29:50Z</time>
      </trkpt>
      <trkpt lat="50.11355" lon="1.80142">
        <ele>3.5</ele>
        <time>2022-04-22T09:29:51Z</time>
      </trkpt>
      <trkpt lat="50.11356" lon="1.8014">
        <ele>3.5</ele>
        <time>2022-04-22T09:29:52Z</time>
      </trkpt>
      <trkpt lat="50.11357" lon="1.80139">
        <ele>3.5</ele>
        <time>2022-04-22T09:29:53Z</time>
      </trkpt>
      <trkpt lat="50.11357" lon="1.80137">
        <ele>3.5</ele>
        <time>2022-04-22T09:29:54Z</time>
      </trkpt>
      <trkpt lat="50.11358" lon="1.80136">
        <ele>3.5</ele>
        <time>2022-04-22T09:29:55Z</time>
      </trkpt>
      <trkpt lat="50.11359" lon="1.80134">
        <ele>3.5</ele>
        <time>2022-04-22T09:29:56Z</time>
      </trkpt>
      <trkpt lat="50.1136" lon="1.80132">
        <ele>3.5</ele>
        <time>2022-04-22T09:29:57Z</time>
      </trkpt>
      <trkpt lat="50.11361" lon="1.80131">
        <ele>3.5</ele>
        <time>2022-04-22T09:29:58Z</time>
      </trkpt>
      <trkpt lat="50.11362" lon="1.80129">
        <ele>3.5</ele>
        <time>2022-04-22T09:29:59Z</time>
      </trkpt>
      <trkpt lat="50.11362" lon="1.80127">
        <ele>3.5</ele>
        <time>2022-04-22T09:30:01Z</time>
      </trkpt>
      <trkpt lat="50.11363" lon="1.80125">
        <ele>3.5</ele>
        <time>2022-04-22T09:30:02Z</time>
      </trkpt>
      <trkpt lat="50.11365" lon="1.80123">
        <ele>3.5</ele>
        <time>2022-04-22T09:30:03Z</time>
      </trkpt>
      <trkpt lat="50.11365" lon="1.80122">
        <ele>3.5</ele>
        <time>2022-04-22T09:30:04Z</time>
      </trkpt>
      <trkpt lat="50.11366" lon="1.8012">
        <ele>3.6</ele>
        <time>2022-04-22T09:30:05Z</time>
      </trkpt>
      <trkpt lat="50.11367" lon="1.80118">
        <ele>3.6</ele>
        <time>2022-04-22T09:30:06Z</time>
      </trkpt>
      <trkpt lat="50.11369" lon="1.80116">
        <ele>3.6</ele>
        <time>2022-04-22T09:30:07Z</time>
      </trkpt>
      <trkpt lat="50.1137" lon="1.80114">
        <ele>3.6</ele>
        <time>2022-04-22T09:30:08Z</time>
      </trkpt>
      <trkpt lat="50.1137" lon="1.80112">
        <ele>3.6</ele>
        <time>2022-04-22T09:30:10Z</time>
      </trkpt>
      <trkpt lat="50.11371" lon="1.80111">
        <ele>3.6</ele>
        <time>2022-04-22T09:30:11Z</time>
      </trkpt>
      <trkpt lat="50.11371" lon="1.8011">
        <ele>3.6</ele>
        <time>2022-04-22T09:30:12Z</time>
      </trkpt>
      <trkpt lat="50.11372" lon="1.80109">
        <ele>3.6</ele>
        <time>2022-04-22T09:30:13Z</time>
      </trkpt>
      <trkpt lat="50.11372" lon="1.80107">
        <ele>3.6</ele>
        <time>2022-04-22T09:30:14Z</time>
      </trkpt>
      <trkpt lat="50.11372" lon="1.80106">
        <ele>3.6</ele>
        <time>2022-04-22T09:30:15Z</time>
      </trkpt>
      <trkpt lat="50.11373" lon="1.80104">
        <ele>3.6</ele>
        <time>2022-04-22T09:30:16Z</time>
      </trkpt>
      <trkpt lat="50.11374" lon="1.80102">
        <ele>3.6</ele>
        <time>2022-04-22T09:30:18Z</time>
      </trkpt>
      <trkpt lat="50.11374" lon="1.801">
        <ele>3.6</ele>
        <time>2022-04-22T09:30:19Z</time>
      </trkpt>
      <trkpt lat="50.11374" lon="1.80099">
        <ele>3.6</ele>
        <time>2022-04-22T09:30:20Z</time>
      </trkpt>
      <trkpt lat="50.11374" lon="1.80097">
        <ele>3.6</ele>
        <time>2022-04-22T09:30:21Z</time>
      </trkpt>
      <trkpt lat="50.11375" lon="1.80095">
        <ele>3.6</ele>
        <time>2022-04-22T09:30:22Z</time>
      </trkpt>
      <trkpt lat="50.11376" lon="1.80093">
        <ele>3.6</ele>
        <time>2022-04-22T09:30:23Z</time>
      </trkpt>
      <trkpt lat="50.11377" lon="1.8009">
        <ele>3.6</ele>
        <time>2022-04-22T09:30:24Z</time>
      </trkpt>
      <trkpt lat="50.11377" lon="1.80089">
        <ele>3.6</ele>
        <time>2022-04-22T09:30:25Z</time>
      </trkpt>
      <trkpt lat="50.11378" lon="1.80088">
        <ele>3.6</ele>
        <time>2022-04-22T09:30:26Z</time>
      </trkpt>
      <trkpt lat="50.11379" lon="1.80086">
        <ele>3.6</ele>
        <time>2022-04-22T09:30:27Z</time>
      </trkpt>
      <trkpt lat="50.11379" lon="1.80085">
        <ele>3.6</ele>
        <time>2022-04-22T09:30:28Z</time>
      </trkpt>
      <trkpt lat="50.1138" lon="1.80083">
        <ele>3.6</ele>
        <time>2022-04-22T09:30:29Z</time>
      </trkpt>
      <trkpt lat="50.11381" lon="1.80082">
        <ele>3.6</ele>
        <time>2022-04-22T09:30:30Z</time>
      </trkpt>
      <trkpt lat="50.11381" lon="1.8008">
        <ele>3.6</ele>
        <time>2022-04-22T09:30:31Z</time>
      </trkpt>
      <trkpt lat="50.11382" lon="1.80077">
        <ele>3.6</ele>
        <time>2022-04-22T09:30:33Z</time>
      </trkpt>
      <trkpt lat="50.11383" lon="1.80076">
        <ele>3.6</ele>
        <time>2022-04-22T09:30:34Z</time>
      </trkpt>
      <trkpt lat="50.11384" lon="1.80075">
        <ele>3.6</ele>
        <time>2022-04-22T09:30:35Z</time>
      </trkpt>
      <trkpt lat="50.11384" lon="1.80073">
        <ele>3.6</ele>
        <time>2022-04-22T09:30:36Z</time>
      </trkpt>
      <trkpt lat="50.11385" lon="1.80072">
        <ele>3.6</ele>
        <time>2022-04-22T09:30:37Z</time>
      </trkpt>
      <trkpt lat="50.11386" lon="1.8007">
        <ele>3.6</ele>
        <time>2022-04-22T09:30:38Z</time>
      </trkpt>
      <trkpt lat="50.11387" lon="1.80067">
        <ele>3.6</ele>
        <time>2022-04-22T09:30:39Z</time>
      </trkpt>
      <trkpt lat="50.11387" lon="1.80066">
        <ele>3.6</ele>
        <time>2022-04-22T09:30:40Z</time>
      </trkpt>
      <trkpt lat="50.11388" lon="1.80064">
        <ele>3.6</ele>
        <time>2022-04-22T09:30:41Z</time>
      </trkpt>
      <trkpt lat="50.11388" lon="1.80062">
        <ele>3.6</ele>
        <time>2022-04-22T09:30:42Z</time>
      </trkpt>
      <trkpt lat="50.11389" lon="1.8006">
        <ele>3.6</ele>
        <time>2022-04-22T09:30:43Z</time>
      </trkpt>
      <trkpt lat="50.1139" lon="1.80058">
        <ele>3.6</ele>
        <time>2022-04-22T09:30:44Z</time>
      </trkpt>
      <trkpt lat="50.11391" lon="1.80057">
        <ele>3.6</ele>
        <time>2022-04-22T09:30:45Z</time>
      </trkpt>
      <trkpt lat="50.11391" lon="1.80056">
        <ele>3.6</ele>
        <time>2022-04-22T09:30:46Z</time>
      </trkpt>
      <trkpt lat="50.11392" lon="1.80053">
        <ele>3.6</ele>
        <time>2022-04-22T09:30:48Z</time>
      </trkpt>
      <trkpt lat="50.11393" lon="1.80051">
        <ele>3.6</ele>
        <time>2022-04-22T09:30:49Z</time>
      </trkpt>
      <trkpt lat="50.11394" lon="1.80048">
        <ele>3.6</ele>
        <time>2022-04-22T09:30:50Z</time>
      </trkpt>
      <trkpt lat="50.11395" lon="1.80047">
        <ele>3.6</ele>
        <time>2022-04-22T09:30:51Z</time>
      </trkpt>
      <trkpt lat="50.11395" lon="1.80046">
        <ele>3.6</ele>
        <time>2022-04-22T09:30:52Z</time>
      </trkpt>
      <trkpt lat="50.11397" lon="1.80042">
        <ele>3.6</ele>
        <time>2022-04-22T09:30:53Z</time>
      </trkpt>
      <trkpt lat="50.11397" lon="1.8004">
        <ele>3.6</ele>
        <time>2022-04-22T09:30:55Z</time>
      </trkpt>
      <trkpt lat="50.11398" lon="1.80039">
        <ele>3.6</ele>
        <time>2022-04-22T09:30:56Z</time>
      </trkpt>
      <trkpt lat="50.11398" lon="1.80038">
        <ele>3.6</ele>
        <time>2022-04-22T09:30:57Z</time>
      </trkpt>
      <trkpt lat="50.11399" lon="1.80036">
        <ele>3.6</ele>
        <time>2022-04-22T09:30:58Z</time>
      </trkpt>
      <trkpt lat="50.11399" lon="1.80035">
        <ele>3.6</ele>
        <time>2022-04-22T09:30:59Z</time>
      </trkpt>
      <trkpt lat="50.114" lon="1.80033">
        <ele>3.6</ele>
        <time>2022-04-22T09:31:00Z</time>
      </trkpt>
      <trkpt lat="50.11401" lon="1.80032">
        <ele>3.6</ele>
        <time>2022-04-22T09:31:01Z</time>
      </trkpt>
      <trkpt lat="50.11401" lon="1.80031">
        <ele>3.6</ele>
        <time>2022-04-22T09:31:02Z</time>
      </trkpt>
      <trkpt lat="50.11402" lon="1.8003">
        <ele>3.6</ele>
        <time>2022-04-22T09:31:03Z</time>
      </trkpt>
      <trkpt lat="50.11403" lon="1.80029">
        <ele>3.6</ele>
        <time>2022-04-22T09:31:04Z</time>
      </trkpt>
      <trkpt lat="50.11405" lon="1.80026">
        <ele>3.6</ele>
        <time>2022-04-22T09:31:05Z</time>
      </trkpt>
      <trkpt lat="50.11405" lon="1.80024">
        <ele>3.6</ele>
        <time>2022-04-22T09:31:06Z</time>
      </trkpt>
      <trkpt lat="50.11406" lon="1.80023">
        <ele>3.6</ele>
        <time>2022-04-22T09:31:07Z</time>
      </trkpt>
      <trkpt lat="50.11407" lon="1.8002">
        <ele>3.6</ele>
        <time>2022-04-22T09:31:08Z</time>
      </trkpt>
      <trkpt lat="50.11408" lon="1.80019">
        <ele>3.6</ele>
        <time>2022-04-22T09:31:10Z</time>
      </trkpt>
      <trkpt lat="50.11408" lon="1.80018">
        <ele>3.6</ele>
        <time>2022-04-22T09:31:11Z</time>
      </trkpt>
      <trkpt lat="50.11409" lon="1.80016">
        <ele>3.6</ele>
        <time>2022-04-22T09:31:12Z</time>
      </trkpt>
      <trkpt lat="50.1141" lon="1.80014">
        <ele>3.6</ele>
        <time>2022-04-22T09:31:13Z</time>
      </trkpt>
      <trkpt lat="50.11412" lon="1.80011">
        <ele>3.6</ele>
        <time>2022-04-22T09:31:14Z</time>
      </trkpt>
      <trkpt lat="50.11412" lon="1.8001">
        <ele>3.6</ele>
        <time>2022-04-22T09:31:15Z</time>
      </trkpt>
      <trkpt lat="50.11413" lon="1.80009">
        <ele>3.6</ele>
        <time>2022-04-22T09:31:16Z</time>
      </trkpt>
      <trkpt lat="50.11414" lon="1.80008">
        <ele>3.6</ele>
        <time>2022-04-22T09:31:17Z</time>
      </trkpt>
      <trkpt lat="50.11415" lon="1.80006">
        <ele>3.6</ele>
        <time>2022-04-22T09:31:18Z</time>
      </trkpt>
      <trkpt lat="50.11415" lon="1.80004">
        <ele>3.6</ele>
        <time>2022-04-22T09:31:19Z</time>
      </trkpt>
      <trkpt lat="50.11416" lon="1.80003">
        <ele>3.6</ele>
        <time>2022-04-22T09:31:21Z</time>
      </trkpt>
      <trkpt lat="50.11417" lon="1.80001">
        <ele>3.6</ele>
        <time>2022-04-22T09:31:22Z</time>
      </trkpt>
      <trkpt lat="50.11418" lon="1.79998">
        <ele>3.6</ele>
        <time>2022-04-22T09:31:23Z</time>
      </trkpt>
      <trkpt lat="50.11418" lon="1.79997">
        <ele>3.6</ele>
        <time>2022-04-22T09:31:24Z</time>
      </trkpt>
      <trkpt lat="50.11419" lon="1.79995">
        <ele>3.6</ele>
        <time>2022-04-22T09:31:25Z</time>
      </trkpt>
      <trkpt lat="50.11419" lon="1.79993">
        <ele>3.6</ele>
        <time>2022-04-22T09:31:26Z</time>
      </trkpt>
      <trkpt lat="50.1142" lon="1.79989">
        <ele>3.6</ele>
        <time>2022-04-22T09:31:28Z</time>
      </trkpt>
      <trkpt lat="50.11421" lon="1.79987">
        <ele>3.6</ele>
        <time>2022-04-22T09:31:30Z</time>
      </trkpt>
      <trkpt lat="50.11421" lon="1.79985">
        <ele>3.5</ele>
        <time>2022-04-22T09:31:31Z</time>
      </trkpt>
      <trkpt lat="50.11422" lon="1.79983">
        <ele>3.5</ele>
        <time>2022-04-22T09:31:32Z</time>
      </trkpt>
      <trkpt lat="50.11423" lon="1.79981">
        <ele>3.5</ele>
        <time>2022-04-22T09:31:33Z</time>
      </trkpt>
      <trkpt lat="50.11424" lon="1.79979">
        <ele>3.5</ele>
        <time>2022-04-22T09:31:34Z</time>
      </trkpt>
      <trkpt lat="50.11424" lon="1.79978">
        <ele>3.5</ele>
        <time>2022-04-22T09:31:35Z</time>
      </trkpt>
      <trkpt lat="50.11425" lon="1.79976">
        <ele>3.5</ele>
        <time>2022-04-22T09:31:36Z</time>
      </trkpt>
      <trkpt lat="50.11426" lon="1.79975">
        <ele>3.5</ele>
        <time>2022-04-22T09:31:37Z</time>
      </trkpt>
      <trkpt lat="50.11427" lon="1.79973">
        <ele>3.5</ele>
        <time>2022-04-22T09:31:38Z</time>
      </trkpt>
      <trkpt lat="50.11428" lon="1.79972">
        <ele>3.5</ele>
        <time>2022-04-22T09:31:39Z</time>
      </trkpt>
      <trkpt lat="50.11429" lon="1.7997">
        <ele>3.5</ele>
        <time>2022-04-22T09:31:40Z</time>
      </trkpt>
      <trkpt lat="50.1143" lon="1.79969">
        <ele>3.5</ele>
        <time>2022-04-22T09:31:41Z</time>
      </trkpt>
      <trkpt lat="50.1143" lon="1.79967">
        <ele>3.5</ele>
        <time>2022-04-22T09:31:42Z</time>
      </trkpt>
      <trkpt lat="50.11431" lon="1.79965">
        <ele>3.5</ele>
        <time>2022-04-22T09:31:44Z</time>
      </trkpt>
      <trkpt lat="50.11432" lon="1.79964">
        <ele>3.5</ele>
        <time>2022-04-22T09:31:45Z</time>
      </trkpt>
      <trkpt lat="50.11433" lon="1.79962">
        <ele>3.5</ele>
        <time>2022-04-22T09:31:46Z</time>
      </trkpt>
      <trkpt lat="50.11433" lon="1.79961">
        <ele>3.5</ele>
        <time>2022-04-22T09:31:47Z</time>
      </trkpt>
      <trkpt lat="50.11435" lon="1.79958">
        <ele>3.5</ele>
        <time>2022-04-22T09:31:48Z</time>
      </trkpt>
      <trkpt lat="50.11435" lon="1.79957">
        <ele>3.5</ele>
        <time>2022-04-22T09:31:49Z</time>
      </trkpt>
      <trkpt lat="50.11436" lon="1.79955">
        <ele>3.5</ele>
        <time>2022-04-22T09:31:50Z</time>
      </trkpt>
      <trkpt lat="50.11436" lon="1.79954">
        <ele>3.5</ele>
        <time>2022-04-22T09:31:51Z</time>
      </trkpt>
      <trkpt lat="50.11437" lon="1.79952">
        <ele>3.5</ele>
        <time>2022-04-22T09:31:52Z</time>
      </trkpt>
      <trkpt lat="50.11438" lon="1.79949">
        <ele>3.5</ele>
        <time>2022-04-22T09:31:53Z</time>
      </trkpt>
      <trkpt lat="50.11439" lon="1.79948">
        <ele>3.5</ele>
        <time>2022-04-22T09:31:54Z</time>
      </trkpt>
      <trkpt lat="50.11439" lon="1.79947">
        <ele>3.5</ele>
        <time>2022-04-22T09:31:55Z</time>
      </trkpt>
      <trkpt lat="50.1144" lon="1.79946">
        <ele>3.5</ele>
        <time>2022-04-22T09:31:56Z</time>
      </trkpt>
      <trkpt lat="50.11441" lon="1.79944">
        <ele>3.5</ele>
        <time>2022-04-22T09:31:57Z</time>
      </trkpt>
      <trkpt lat="50.11442" lon="1.79942">
        <ele>3.5</ele>
        <time>2022-04-22T09:31:59Z</time>
      </trkpt>
      <trkpt lat="50.11443" lon="1.79941">
        <ele>3.5</ele>
        <time>2022-04-22T09:32:00Z</time>
      </trkpt>
      <trkpt lat="50.11443" lon="1.7994">
        <ele>3.5</ele>
        <time>2022-04-22T09:32:01Z</time>
      </trkpt>
      <trkpt lat="50.11444" lon="1.79939">
        <ele>3.5</ele>
        <time>2022-04-22T09:32:02Z</time>
      </trkpt>
      <trkpt lat="50.11445" lon="1.79937">
        <ele>3.5</ele>
        <time>2022-04-22T09:32:03Z</time>
      </trkpt>
      <trkpt lat="50.11446" lon="1.79935">
        <ele>3.5</ele>
        <time>2022-04-22T09:32:04Z</time>
      </trkpt>
      <trkpt lat="50.11447" lon="1.79933">
        <ele>3.5</ele>
        <time>2022-04-22T09:32:05Z</time>
      </trkpt>
      <trkpt lat="50.11448" lon="1.79932">
        <ele>3.5</ele>
        <time>2022-04-22T09:32:07Z</time>
      </trkpt>
      <trkpt lat="50.11449" lon="1.7993">
        <ele>3.5</ele>
        <time>2022-04-22T09:32:08Z</time>
      </trkpt>
      <trkpt lat="50.1145" lon="1.79928">
        <ele>3.5</ele>
        <time>2022-04-22T09:32:09Z</time>
      </trkpt>
      <trkpt lat="50.11451" lon="1.79927">
        <ele>3.5</ele>
        <time>2022-04-22T09:32:10Z</time>
      </trkpt>
      <trkpt lat="50.11452" lon="1.79925">
        <ele>3.5</ele>
        <time>2022-04-22T09:32:11Z</time>
      </trkpt>
      <trkpt lat="50.11454" lon="1.79921">
        <ele>3.5</ele>
        <time>2022-04-22T09:32:12Z</time>
      </trkpt>
      <trkpt lat="50.11454" lon="1.7992">
        <ele>3.5</ele>
        <time>2022-04-22T09:32:14Z</time>
      </trkpt>
      <trkpt lat="50.11455" lon="1.79918">
        <ele>3.5</ele>
        <time>2022-04-22T09:32:15Z</time>
      </trkpt>
      <trkpt lat="50.11456" lon="1.79916">
        <ele>3.5</ele>
        <time>2022-04-22T09:32:16Z</time>
      </trkpt>
      <trkpt lat="50.11456" lon="1.79915">
        <ele>3.5</ele>
        <time>2022-04-22T09:32:17Z</time>
      </trkpt>
      <trkpt lat="50.11457" lon="1.79912">
        <ele>3.5</ele>
        <time>2022-04-22T09:32:18Z</time>
      </trkpt>
      <trkpt lat="50.11458" lon="1.79911">
        <ele>3.5</ele>
        <time>2022-04-22T09:32:19Z</time>
      </trkpt>
      <trkpt lat="50.1146" lon="1.79908">
        <ele>3.5</ele>
        <time>2022-04-22T09:32:20Z</time>
      </trkpt>
      <trkpt lat="50.1146" lon="1.79906">
        <ele>3.5</ele>
        <time>2022-04-22T09:32:22Z</time>
      </trkpt>
      <trkpt lat="50.11461" lon="1.79905">
        <ele>3.4</ele>
        <time>2022-04-22T09:32:23Z</time>
      </trkpt>
      <trkpt lat="50.11462" lon="1.79904">
        <ele>3.4</ele>
        <time>2022-04-22T09:32:24Z</time>
      </trkpt>
      <trkpt lat="50.11462" lon="1.79902">
        <ele>3.4</ele>
        <time>2022-04-22T09:32:25Z</time>
      </trkpt>
      <trkpt lat="50.11463" lon="1.799">
        <ele>3.4</ele>
        <time>2022-04-22T09:32:26Z</time>
      </trkpt>
      <trkpt lat="50.11465" lon="1.79897">
        <ele>3.4</ele>
        <time>2022-04-22T09:32:27Z</time>
      </trkpt>
      <trkpt lat="50.11465" lon="1.79895">
        <ele>3.4</ele>
        <time>2022-04-22T09:32:28Z</time>
      </trkpt>
      <trkpt lat="50.11466" lon="1.79894">
        <ele>3.4</ele>
        <time>2022-04-22T09:32:29Z</time>
      </trkpt>
      <trkpt lat="50.11466" lon="1.79892">
        <ele>3.4</ele>
        <time>2022-04-22T09:32:31Z</time>
      </trkpt>
      <trkpt lat="50.11467" lon="1.79891">
        <ele>3.4</ele>
        <time>2022-04-22T09:32:32Z</time>
      </trkpt>
      <trkpt lat="50.11468" lon="1.79889">
        <ele>3.4</ele>
        <time>2022-04-22T09:32:33Z</time>
      </trkpt>
      <trkpt lat="50.11468" lon="1.79887">
        <ele>3.4</ele>
        <time>2022-04-22T09:32:34Z</time>
      </trkpt>
      <trkpt lat="50.11469" lon="1.79885">
        <ele>3.4</ele>
        <time>2022-04-22T09:32:35Z</time>
      </trkpt>
      <trkpt lat="50.1147" lon="1.79884">
        <ele>3.4</ele>
        <time>2022-04-22T09:32:36Z</time>
      </trkpt>
      <trkpt lat="50.11471" lon="1.79882">
        <ele>3.4</ele>
        <time>2022-04-22T09:32:37Z</time>
      </trkpt>
      <trkpt lat="50.11472" lon="1.7988">
        <ele>3.4</ele>
        <time>2022-04-22T09:32:38Z</time>
      </trkpt>
      <trkpt lat="50.11474" lon="1.79878">
        <ele>3.4</ele>
        <time>2022-04-22T09:32:39Z</time>
      </trkpt>
      <trkpt lat="50.11474" lon="1.79877">
        <ele>3.4</ele>
        <time>2022-04-22T09:32:40Z</time>
      </trkpt>
      <trkpt lat="50.11475" lon="1.79876">
        <ele>3.4</ele>
        <time>2022-04-22T09:32:41Z</time>
      </trkpt>
      <trkpt lat="50.11476" lon="1.79874">
        <ele>3.4</ele>
        <time>2022-04-22T09:32:42Z</time>
      </trkpt>
      <trkpt lat="50.11476" lon="1.79872">
        <ele>3.4</ele>
        <time>2022-04-22T09:32:43Z</time>
      </trkpt>
      <trkpt lat="50.11477" lon="1.7987">
        <ele>3.4</ele>
        <time>2022-04-22T09:32:44Z</time>
      </trkpt>
      <trkpt lat="50.11478" lon="1.79868">
        <ele>3.4</ele>
        <time>2022-04-22T09:32:45Z</time>
      </trkpt>
      <trkpt lat="50.11479" lon="1.79866">
        <ele>3.4</ele>
        <time>2022-04-22T09:32:47Z</time>
      </trkpt>
      <trkpt lat="50.11479" lon="1.79865">
        <ele>3.4</ele>
        <time>2022-04-22T09:32:48Z</time>
      </trkpt>
      <trkpt lat="50.11479" lon="1.79864">
        <ele>3.4</ele>
        <time>2022-04-22T09:32:49Z</time>
      </trkpt>
      <trkpt lat="50.1148" lon="1.79862">
        <ele>3.4</ele>
        <time>2022-04-22T09:32:50Z</time>
      </trkpt>
      <trkpt lat="50.1148" lon="1.7986">
        <ele>3.4</ele>
        <time>2022-04-22T09:32:51Z</time>
      </trkpt>
      <trkpt lat="50.11481" lon="1.79857">
        <ele>3.4</ele>
        <time>2022-04-22T09:32:52Z</time>
      </trkpt>
      <trkpt lat="50.11482" lon="1.79856">
        <ele>3.4</ele>
        <time>2022-04-22T09:32:53Z</time>
      </trkpt>
      <trkpt lat="50.11483" lon="1.79855">
        <ele>3.4</ele>
        <time>2022-04-22T09:32:54Z</time>
      </trkpt>
      <trkpt lat="50.11483" lon="1.79853">
        <ele>3.4</ele>
        <time>2022-04-22T09:32:55Z</time>
      </trkpt>
      <trkpt lat="50.11484" lon="1.79852">
        <ele>3.4</ele>
        <time>2022-04-22T09:32:56Z</time>
      </trkpt>
      <trkpt lat="50.11484" lon="1.79851">
        <ele>3.4</ele>
        <time>2022-04-22T09:32:57Z</time>
      </trkpt>
      <trkpt lat="50.11484" lon="1.7985">
        <ele>3.4</ele>
        <time>2022-04-22T09:32:58Z</time>
      </trkpt>
      <trkpt lat="50.11485" lon="1.79848">
        <ele>3.4</ele>
        <time>2022-04-22T09:32:59Z</time>
      </trkpt>
      <trkpt lat="50.11485" lon="1.79846">
        <ele>3.4</ele>
        <time>2022-04-22T09:33:01Z</time>
      </trkpt>
      <trkpt lat="50.11485" lon="1.79845">
        <ele>3.4</ele>
        <time>2022-04-22T09:33:02Z</time>
      </trkpt>
      <trkpt lat="50.11485" lon="1.79842">
        <ele>3.4</ele>
        <time>2022-04-22T09:33:03Z</time>
      </trkpt>
      <trkpt lat="50.11485" lon="1.7984">
        <ele>3.4</ele>
        <time>2022-04-22T09:33:04Z</time>
      </trkpt>
      <trkpt lat="50.11485" lon="1.79839">
        <ele>3.4</ele>
        <time>2022-04-22T09:33:05Z</time>
      </trkpt>
      <trkpt lat="50.11486" lon="1.79835">
        <ele>3.4</ele>
        <time>2022-04-22T09:33:06Z</time>
      </trkpt>
      <trkpt lat="50.11486" lon="1.79834">
        <ele>3.4</ele>
        <time>2022-04-22T09:33:07Z</time>
      </trkpt>
      <trkpt lat="50.11486" lon="1.79832">
        <ele>3.4</ele>
        <time>2022-04-22T09:33:08Z</time>
      </trkpt>
      <trkpt lat="50.11486" lon="1.79829">
        <ele>3.4</ele>
        <time>2022-04-22T09:33:09Z</time>
      </trkpt>
      <trkpt lat="50.11487" lon="1.79828">
        <ele>3.4</ele>
        <time>2022-04-22T09:33:10Z</time>
      </trkpt>
      <trkpt lat="50.11487" lon="1.79825">
        <ele>3.4</ele>
        <time>2022-04-22T09:33:11Z</time>
      </trkpt>
      <trkpt lat="50.11488" lon="1.79824">
        <ele>3.4</ele>
        <time>2022-04-22T09:33:12Z</time>
      </trkpt>
      <trkpt lat="50.11488" lon="1.79822">
        <ele>3.4</ele>
        <time>2022-04-22T09:33:14Z</time>
      </trkpt>
      <trkpt lat="50.11488" lon="1.79821">
        <ele>3.4</ele>
        <time>2022-04-22T09:33:15Z</time>
      </trkpt>
      <trkpt lat="50.11489" lon="1.79819">
        <ele>3.4</ele>
        <time>2022-04-22T09:33:16Z</time>
      </trkpt>
      <trkpt lat="50.11489" lon="1.79818">
        <ele>3.4</ele>
        <time>2022-04-22T09:33:17Z</time>
      </trkpt>
      <trkpt lat="50.1149" lon="1.79815">
        <ele>3.4</ele>
        <time>2022-04-22T09:33:18Z</time>
      </trkpt>
      <trkpt lat="50.1149" lon="1.79814">
        <ele>3.4</ele>
        <time>2022-04-22T09:33:19Z</time>
      </trkpt>
      <trkpt lat="50.11491" lon="1.79812">
        <ele>3.4</ele>
        <time>2022-04-22T09:33:20Z</time>
      </trkpt>
      <trkpt lat="50.11492" lon="1.79809">
        <ele>3.4</ele>
        <time>2022-04-22T09:33:21Z</time>
      </trkpt>
      <trkpt lat="50.11492" lon="1.79808">
        <ele>3.4</ele>
        <time>2022-04-22T09:33:22Z</time>
      </trkpt>
      <trkpt lat="50.11492" lon="1.79807">
        <ele>3.4</ele>
        <time>2022-04-22T09:33:23Z</time>
      </trkpt>
      <trkpt lat="50.11493" lon="1.79805">
        <ele>3.4</ele>
        <time>2022-04-22T09:33:25Z</time>
      </trkpt>
      <trkpt lat="50.11494" lon="1.79803">
        <ele>3.4</ele>
        <time>2022-04-22T09:33:26Z</time>
      </trkpt>
      <trkpt lat="50.11495" lon="1.79802">
        <ele>3.4</ele>
        <time>2022-04-22T09:33:27Z</time>
      </trkpt>
      <trkpt lat="50.11495" lon="1.798">
        <ele>3.4</ele>
        <time>2022-04-22T09:33:28Z</time>
      </trkpt>
      <trkpt lat="50.11497" lon="1.79797">
        <ele>3.4</ele>
        <time>2022-04-22T09:33:30Z</time>
      </trkpt>
      <trkpt lat="50.11498" lon="1.79796">
        <ele>3.4</ele>
        <time>2022-04-22T09:33:31Z</time>
      </trkpt>
      <trkpt lat="50.11499" lon="1.79793">
        <ele>3.4</ele>
        <time>2022-04-22T09:33:32Z</time>
      </trkpt>
      <trkpt lat="50.11499" lon="1.79792">
        <ele>3.4</ele>
        <time>2022-04-22T09:33:33Z</time>
      </trkpt>
      <trkpt lat="50.115" lon="1.79791">
        <ele>3.4</ele>
        <time>2022-04-22T09:33:34Z</time>
      </trkpt>
      <trkpt lat="50.11501" lon="1.79788">
        <ele>3.4</ele>
        <time>2022-04-22T09:33:35Z</time>
      </trkpt>
      <trkpt lat="50.11502" lon="1.79787">
        <ele>3.4</ele>
        <time>2022-04-22T09:33:36Z</time>
      </trkpt>
      <trkpt lat="50.11504" lon="1.79785">
        <ele>3.4</ele>
        <time>2022-04-22T09:33:38Z</time>
      </trkpt>
      <trkpt lat="50.11504" lon="1.79784">
        <ele>3.4</ele>
        <time>2022-04-22T09:33:39Z</time>
      </trkpt>
      <trkpt lat="50.11505" lon="1.79783">
        <ele>3.3</ele>
        <time>2022-04-22T09:33:40Z</time>
      </trkpt>
      <trkpt lat="50.11506" lon="1.79782">
        <ele>3.3</ele>
        <time>2022-04-22T09:33:41Z</time>
      </trkpt>
      <trkpt lat="50.11507" lon="1.7978">
        <ele>3.3</ele>
        <time>2022-04-22T09:33:42Z</time>
      </trkpt>
      <trkpt lat="50.11508" lon="1.79779">
        <ele>3.3</ele>
        <time>2022-04-22T09:33:43Z</time>
      </trkpt>
      <trkpt lat="50.11509" lon="1.79777">
        <ele>3.3</ele>
        <time>2022-04-22T09:33:44Z</time>
      </trkpt>
      <trkpt lat="50.11509" lon="1.79775">
        <ele>3.3</ele>
        <time>2022-04-22T09:33:45Z</time>
      </trkpt>
      <trkpt lat="50.11511" lon="1.79773">
        <ele>3.3</ele>
        <time>2022-04-22T09:33:47Z</time>
      </trkpt>
      <trkpt lat="50.11511" lon="1.79772">
        <ele>3.3</ele>
        <time>2022-04-22T09:33:48Z</time>
      </trkpt>
      <trkpt lat="50.11512" lon="1.79771">
        <ele>3.3</ele>
        <time>2022-04-22T09:33:49Z</time>
      </trkpt>
      <trkpt lat="50.11513" lon="1.79769">
        <ele>3.3</ele>
        <time>2022-04-22T09:33:50Z</time>
      </trkpt>
      <trkpt lat="50.11514" lon="1.79767">
        <ele>3.3</ele>
        <time>2022-04-22T09:33:51Z</time>
      </trkpt>
      <trkpt lat="50.11515" lon="1.79765">
        <ele>3.3</ele>
        <time>2022-04-22T09:33:53Z</time>
      </trkpt>
      <trkpt lat="50.11515" lon="1.79763">
        <ele>3.3</ele>
        <time>2022-04-22T09:33:54Z</time>
      </trkpt>
      <trkpt lat="50.11516" lon="1.79762">
        <ele>3.3</ele>
        <time>2022-04-22T09:33:55Z</time>
      </trkpt>
      <trkpt lat="50.11516" lon="1.79761">
        <ele>3.3</ele>
        <time>2022-04-22T09:33:56Z</time>
      </trkpt>
      <trkpt lat="50.11518" lon="1.79758">
        <ele>3.3</ele>
        <time>2022-04-22T09:33:57Z</time>
      </trkpt>
      <trkpt lat="50.1152" lon="1.79754">
        <ele>3.3</ele>
        <time>2022-04-22T09:33:59Z</time>
      </trkpt>
      <trkpt lat="50.1152" lon="1.79753">
        <ele>3.3</ele>
        <time>2022-04-22T09:34:01Z</time>
      </trkpt>
      <trkpt lat="50.11521" lon="1.79752">
        <ele>3.3</ele>
        <time>2022-04-22T09:34:02Z</time>
      </trkpt>
      <trkpt lat="50.11521" lon="1.7975">
        <ele>3.3</ele>
        <time>2022-04-22T09:34:03Z</time>
      </trkpt>
      <trkpt lat="50.11522" lon="1.79749">
        <ele>3.3</ele>
        <time>2022-04-22T09:34:04Z</time>
      </trkpt>
      <trkpt lat="50.11523" lon="1.79746">
        <ele>3.3</ele>
        <time>2022-04-22T09:34:05Z</time>
      </trkpt>
      <trkpt lat="50.11524" lon="1.79743">
        <ele>3.3</ele>
        <time>2022-04-22T09:34:06Z</time>
      </trkpt>
      <trkpt lat="50.11525" lon="1.79742">
        <ele>3.3</ele>
        <time>2022-04-22T09:34:07Z</time>
      </trkpt>
      <trkpt lat="50.11525" lon="1.79741">
        <ele>3.3</ele>
        <time>2022-04-22T09:34:08Z</time>
      </trkpt>
      <trkpt lat="50.11527" lon="1.79739">
        <ele>3.3</ele>
        <time>2022-04-22T09:34:09Z</time>
      </trkpt>
      <trkpt lat="50.11527" lon="1.79738">
        <ele>3.3</ele>
        <time>2022-04-22T09:34:10Z</time>
      </trkpt>
      <trkpt lat="50.11528" lon="1.79735">
        <ele>3.3</ele>
        <time>2022-04-22T09:34:11Z</time>
      </trkpt>
      <trkpt lat="50.11529" lon="1.79734">
        <ele>3.3</ele>
        <time>2022-04-22T09:34:12Z</time>
      </trkpt>
      <trkpt lat="50.11529" lon="1.79733">
        <ele>3.3</ele>
        <time>2022-04-22T09:34:13Z</time>
      </trkpt>
      <trkpt lat="50.11531" lon="1.7973">
        <ele>3.3</ele>
        <time>2022-04-22T09:34:14Z</time>
      </trkpt>
      <trkpt lat="50.11531" lon="1.79729">
        <ele>3.3</ele>
        <time>2022-04-22T09:34:16Z</time>
      </trkpt>
      <trkpt lat="50.11532" lon="1.79727">
        <ele>3.3</ele>
        <time>2022-04-22T09:34:17Z</time>
      </trkpt>
      <trkpt lat="50.11533" lon="1.79725">
        <ele>3.3</ele>
        <time>2022-04-22T09:34:18Z</time>
      </trkpt>
      <trkpt lat="50.11534" lon="1.79722">
        <ele>3.3</ele>
        <time>2022-04-22T09:34:20Z</time>
      </trkpt>
      <trkpt lat="50.11534" lon="1.7972">
        <ele>3.3</ele>
        <time>2022-04-22T09:34:21Z</time>
      </trkpt>
      <trkpt lat="50.11535" lon="1.79718">
        <ele>3.3</ele>
        <time>2022-04-22T09:34:22Z</time>
      </trkpt>
      <trkpt lat="50.11535" lon="1.79717">
        <ele>3.3</ele>
        <time>2022-04-22T09:34:23Z</time>
      </trkpt>
      <trkpt lat="50.11536" lon="1.79715">
        <ele>3.3</ele>
        <time>2022-04-22T09:34:24Z</time>
      </trkpt>
      <trkpt lat="50.11537" lon="1.79713">
        <ele>3.3</ele>
        <time>2022-04-22T09:34:25Z</time>
      </trkpt>
      <trkpt lat="50.11537" lon="1.79711">
        <ele>3.3</ele>
        <time>2022-04-22T09:34:26Z</time>
      </trkpt>
      <trkpt lat="50.11537" lon="1.7971">
        <ele>3.3</ele>
        <time>2022-04-22T09:34:27Z</time>
      </trkpt>
      <trkpt lat="50.11538" lon="1.79708">
        <ele>3.3</ele>
        <time>2022-04-22T09:34:28Z</time>
      </trkpt>
      <trkpt lat="50.11538" lon="1.79706">
        <ele>3.3</ele>
        <time>2022-04-22T09:34:29Z</time>
      </trkpt>
      <trkpt lat="50.11539" lon="1.79704">
        <ele>3.3</ele>
        <time>2022-04-22T09:34:31Z</time>
      </trkpt>
      <trkpt lat="50.11539" lon="1.79703">
        <ele>3.3</ele>
        <time>2022-04-22T09:34:32Z</time>
      </trkpt>
      <trkpt lat="50.1154" lon="1.79701">
        <ele>3.3</ele>
        <time>2022-04-22T09:34:33Z</time>
      </trkpt>
      <trkpt lat="50.1154" lon="1.79699">
        <ele>3.3</ele>
        <time>2022-04-22T09:34:34Z</time>
      </trkpt>
      <trkpt lat="50.11541" lon="1.79696">
        <ele>3.3</ele>
        <time>2022-04-22T09:34:35Z</time>
      </trkpt>
      <trkpt lat="50.11542" lon="1.79695">
        <ele>3.3</ele>
        <time>2022-04-22T09:34:36Z</time>
      </trkpt>
      <trkpt lat="50.11542" lon="1.79694">
        <ele>3.3</ele>
        <time>2022-04-22T09:34:37Z</time>
      </trkpt>
      <trkpt lat="50.11543" lon="1.79692">
        <ele>3.3</ele>
        <time>2022-04-22T09:34:38Z</time>
      </trkpt>
      <trkpt lat="50.11544" lon="1.7969">
        <ele>3.3</ele>
        <time>2022-04-22T09:34:40Z</time>
      </trkpt>
      <trkpt lat="50.11544" lon="1.79688">
        <ele>3.3</ele>
        <time>2022-04-22T09:34:41Z</time>
      </trkpt>
      <trkpt lat="50.11545" lon="1.79687">
        <ele>3.3</ele>
        <time>2022-04-22T09:34:42Z</time>
      </trkpt>
      <trkpt lat="50.11546" lon="1.79685">
        <ele>3.3</ele>
        <time>2022-04-22T09:34:43Z</time>
      </trkpt>
      <trkpt lat="50.11547" lon="1.79682">
        <ele>3.3</ele>
        <time>2022-04-22T09:34:44Z</time>
      </trkpt>
      <trkpt lat="50.11548" lon="1.79682">
        <ele>3.3</ele>
        <time>2022-04-22T09:34:45Z</time>
      </trkpt>
      <trkpt lat="50.11548" lon="1.79681">
        <ele>3.3</ele>
        <time>2022-04-22T09:34:46Z</time>
      </trkpt>
      <trkpt lat="50.11549" lon="1.79679">
        <ele>3.3</ele>
        <time>2022-04-22T09:34:47Z</time>
      </trkpt>
      <trkpt lat="50.11549" lon="1.79677">
        <ele>3.3</ele>
        <time>2022-04-22T09:34:48Z</time>
      </trkpt>
      <trkpt lat="50.1155" lon="1.79674">
        <ele>3.3</ele>
        <time>2022-04-22T09:34:50Z</time>
      </trkpt>
      <trkpt lat="50.11551" lon="1.79673">
        <ele>3.3</ele>
        <time>2022-04-22T09:34:51Z</time>
      </trkpt>
      <trkpt lat="50.11551" lon="1.79672">
        <ele>3.3</ele>
        <time>2022-04-22T09:34:52Z</time>
      </trkpt>
      <trkpt lat="50.11552" lon="1.7967">
        <ele>3.3</ele>
        <time>2022-04-22T09:34:53Z</time>
      </trkpt>
      <trkpt lat="50.11552" lon="1.79668">
        <ele>3.3</ele>
        <time>2022-04-22T09:34:54Z</time>
      </trkpt>
      <trkpt lat="50.11553" lon="1.79666">
        <ele>3.3</ele>
        <time>2022-04-22T09:34:55Z</time>
      </trkpt>
      <trkpt lat="50.11553" lon="1.79664">
        <ele>3.3</ele>
        <time>2022-04-22T09:34:56Z</time>
      </trkpt>
      <trkpt lat="50.11554" lon="1.79662">
        <ele>3.3</ele>
        <time>2022-04-22T09:34:57Z</time>
      </trkpt>
      <trkpt lat="50.11554" lon="1.79661">
        <ele>3.3</ele>
        <time>2022-04-22T09:34:58Z</time>
      </trkpt>
      <trkpt lat="50.11555" lon="1.79659">
        <ele>3.3</ele>
        <time>2022-04-22T09:34:59Z</time>
      </trkpt>
      <trkpt lat="50.11556" lon="1.79657">
        <ele>3.3</ele>
        <time>2022-04-22T09:35:00Z</time>
      </trkpt>
      <trkpt lat="50.11557" lon="1.79656">
        <ele>3.3</ele>
        <time>2022-04-22T09:35:01Z</time>
      </trkpt>
      <trkpt lat="50.11557" lon="1.79654">
        <ele>3.3</ele>
        <time>2022-04-22T09:35:02Z</time>
      </trkpt>
      <trkpt lat="50.11558" lon="1.79653">
        <ele>3.3</ele>
        <time>2022-04-22T09:35:03Z</time>
      </trkpt>
      <trkpt lat="50.11559" lon="1.79651">
        <ele>3.3</ele>
        <time>2022-04-22T09:35:04Z</time>
      </trkpt>
      <trkpt lat="50.1156" lon="1.79649">
        <ele>3.3</ele>
        <time>2022-04-22T09:35:05Z</time>
      </trkpt>
      <trkpt lat="50.11561" lon="1.79648">
        <ele>3.3</ele>
        <time>2022-04-22T09:35:06Z</time>
      </trkpt>
      <trkpt lat="50.11562" lon="1.79646">
        <ele>3.3</ele>
        <time>2022-04-22T09:35:07Z</time>
      </trkpt>
      <trkpt lat="50.11563" lon="1.79645">
        <ele>3.3</ele>
        <time>2022-04-22T09:35:09Z</time>
      </trkpt>
      <trkpt lat="50.11564" lon="1.79642">
        <ele>3.3</ele>
        <time>2022-04-22T09:35:10Z</time>
      </trkpt>
      <trkpt lat="50.11565" lon="1.79641">
        <ele>3.3</ele>
        <time>2022-04-22T09:35:11Z</time>
      </trkpt>
      <trkpt lat="50.11566" lon="1.7964">
        <ele>3.3</ele>
        <time>2022-04-22T09:35:12Z</time>
      </trkpt>
      <trkpt lat="50.11566" lon="1.79639">
        <ele>3.3</ele>
        <time>2022-04-22T09:35:13Z</time>
      </trkpt>
      <trkpt lat="50.11567" lon="1.79636">
        <ele>3.3</ele>
        <time>2022-04-22T09:35:14Z</time>
      </trkpt>
      <trkpt lat="50.11569" lon="1.79633">
        <ele>3.3</ele>
        <time>2022-04-22T09:35:15Z</time>
      </trkpt>
      <trkpt lat="50.1157" lon="1.79631">
        <ele>3.3</ele>
        <time>2022-04-22T09:35:16Z</time>
      </trkpt>
      <trkpt lat="50.1157" lon="1.7963">
        <ele>3.3</ele>
        <time>2022-04-22T09:35:17Z</time>
      </trkpt>
      <trkpt lat="50.11571" lon="1.79628">
        <ele>3.3</ele>
        <time>2022-04-22T09:35:19Z</time>
      </trkpt>
      <trkpt lat="50.11571" lon="1.79626">
        <ele>3.3</ele>
        <time>2022-04-22T09:35:20Z</time>
      </trkpt>
      <trkpt lat="50.11572" lon="1.79623">
        <ele>3.3</ele>
        <time>2022-04-22T09:35:21Z</time>
      </trkpt>
      <trkpt lat="50.11573" lon="1.79621">
        <ele>3.3</ele>
        <time>2022-04-22T09:35:22Z</time>
      </trkpt>
      <trkpt lat="50.11574" lon="1.7962">
        <ele>3.3</ele>
        <time>2022-04-22T09:35:23Z</time>
      </trkpt>
      <trkpt lat="50.11574" lon="1.79618">
        <ele>3.3</ele>
        <time>2022-04-22T09:35:24Z</time>
      </trkpt>
      <trkpt lat="50.11575" lon="1.79617">
        <ele>3.3</ele>
        <time>2022-04-22T09:35:26Z</time>
      </trkpt>
      <trkpt lat="50.11576" lon="1.79614">
        <ele>3.3</ele>
        <time>2022-04-22T09:35:27Z</time>
      </trkpt>
      <trkpt lat="50.11577" lon="1.79613">
        <ele>3.3</ele>
        <time>2022-04-22T09:35:28Z</time>
      </trkpt>
      <trkpt lat="50.11578" lon="1.7961">
        <ele>3.3</ele>
        <time>2022-04-22T09:35:29Z</time>
      </trkpt>
      <trkpt lat="50.11578" lon="1.79608">
        <ele>3.3</ele>
        <time>2022-04-22T09:35:30Z</time>
      </trkpt>
      <trkpt lat="50.11579" lon="1.79607">
        <ele>3.3</ele>
        <time>2022-04-22T09:35:31Z</time>
      </trkpt>
      <trkpt lat="50.11579" lon="1.79606">
        <ele>3.3</ele>
        <time>2022-04-22T09:35:32Z</time>
      </trkpt>
      <trkpt lat="50.1158" lon="1.79604">
        <ele>3.3</ele>
        <time>2022-04-22T09:35:33Z</time>
      </trkpt>
      <trkpt lat="50.1158" lon="1.79602">
        <ele>3.3</ele>
        <time>2022-04-22T09:35:35Z</time>
      </trkpt>
      <trkpt lat="50.11581" lon="1.79601">
        <ele>3.3</ele>
        <time>2022-04-22T09:35:36Z</time>
      </trkpt>
      <trkpt lat="50.11581" lon="1.79598">
        <ele>3.3</ele>
        <time>2022-04-22T09:35:37Z</time>
      </trkpt>
      <trkpt lat="50.11582" lon="1.79597">
        <ele>3.3</ele>
        <time>2022-04-22T09:35:38Z</time>
      </trkpt>
      <trkpt lat="50.11583" lon="1.79594">
        <ele>3.3</ele>
        <time>2022-04-22T09:35:39Z</time>
      </trkpt>
      <trkpt lat="50.11584" lon="1.79591">
        <ele>3.3</ele>
        <time>2022-04-22T09:35:40Z</time>
      </trkpt>
      <trkpt lat="50.11585" lon="1.79589">
        <ele>3.3</ele>
        <time>2022-04-22T09:35:42Z</time>
      </trkpt>
      <trkpt lat="50.11585" lon="1.79588">
        <ele>3.3</ele>
        <time>2022-04-22T09:35:43Z</time>
      </trkpt>
      <trkpt lat="50.11586" lon="1.79586">
        <ele>3.3</ele>
        <time>2022-04-22T09:35:44Z</time>
      </trkpt>
      <trkpt lat="50.11586" lon="1.79585">
        <ele>3.3</ele>
        <time>2022-04-22T09:35:45Z</time>
      </trkpt>
      <trkpt lat="50.11587" lon="1.79583">
        <ele>3.3</ele>
        <time>2022-04-22T09:35:46Z</time>
      </trkpt>
      <trkpt lat="50.11588" lon="1.79581">
        <ele>3.3</ele>
        <time>2022-04-22T09:35:47Z</time>
      </trkpt>
      <trkpt lat="50.11589" lon="1.79579">
        <ele>3.3</ele>
        <time>2022-04-22T09:35:48Z</time>
      </trkpt>
      <trkpt lat="50.11589" lon="1.79578">
        <ele>3.3</ele>
        <time>2022-04-22T09:35:49Z</time>
      </trkpt>
      <trkpt lat="50.1159" lon="1.79577">
        <ele>3.3</ele>
        <time>2022-04-22T09:35:50Z</time>
      </trkpt>
      <trkpt lat="50.11591" lon="1.79574">
        <ele>3.3</ele>
        <time>2022-04-22T09:35:51Z</time>
      </trkpt>
      <trkpt lat="50.11591" lon="1.79573">
        <ele>3.3</ele>
        <time>2022-04-22T09:35:52Z</time>
      </trkpt>
      <trkpt lat="50.11592" lon="1.79572">
        <ele>3.3</ele>
        <time>2022-04-22T09:35:53Z</time>
      </trkpt>
      <trkpt lat="50.11593" lon="1.79569">
        <ele>3.3</ele>
        <time>2022-04-22T09:35:54Z</time>
      </trkpt>
      <trkpt lat="50.11593" lon="1.79568">
        <ele>3.3</ele>
        <time>2022-04-22T09:35:55Z</time>
      </trkpt>
      <trkpt lat="50.11594" lon="1.79566">
        <ele>3.3</ele>
        <time>2022-04-22T09:35:56Z</time>
      </trkpt>
      <trkpt lat="50.11595" lon="1.79565">
        <ele>3.3</ele>
        <time>2022-04-22T09:35:58Z</time>
      </trkpt>
      <trkpt lat="50.11595" lon="1.79564">
        <ele>3.3</ele>
        <time>2022-04-22T09:35:59Z</time>
      </trkpt>
      <trkpt lat="50.11596" lon="1.79562">
        <ele>3.3</ele>
        <time>2022-04-22T09:36:00Z</time>
      </trkpt>
      <trkpt lat="50.11597" lon="1.7956">
        <ele>3.3</ele>
        <time>2022-04-22T09:36:01Z</time>
      </trkpt>
      <trkpt lat="50.11597" lon="1.79559">
        <ele>3.3</ele>
        <time>2022-04-22T09:36:02Z</time>
      </trkpt>
      <trkpt lat="50.11598" lon="1.79557">
        <ele>3.3</ele>
        <time>2022-04-22T09:36:03Z</time>
      </trkpt>
      <trkpt lat="50.11599" lon="1.79555">
        <ele>3.3</ele>
        <time>2022-04-22T09:36:04Z</time>
      </trkpt>
      <trkpt lat="50.116" lon="1.79554">
        <ele>3.3</ele>
        <time>2022-04-22T09:36:05Z</time>
      </trkpt>
      <trkpt lat="50.116" lon="1.79553">
        <ele>3.3</ele>
        <time>2022-04-22T09:36:06Z</time>
      </trkpt>
      <trkpt lat="50.11601" lon="1.79553">
        <ele>3.3</ele>
        <time>2022-04-22T09:36:07Z</time>
      </trkpt>
      <trkpt lat="50.11602" lon="1.7955">
        <ele>3.3</ele>
        <time>2022-04-22T09:36:08Z</time>
      </trkpt>
      <trkpt lat="50.11603" lon="1.79549">
        <ele>3.3</ele>
        <time>2022-04-22T09:36:09Z</time>
      </trkpt>
      <trkpt lat="50.11603" lon="1.79547">
        <ele>3.3</ele>
        <time>2022-04-22T09:36:10Z</time>
      </trkpt>
      <trkpt lat="50.11604" lon="1.79546">
        <ele>3.3</ele>
        <time>2022-04-22T09:36:11Z</time>
      </trkpt>
      <trkpt lat="50.11605" lon="1.79544">
        <ele>3.3</ele>
        <time>2022-04-22T09:36:13Z</time>
      </trkpt>
      <trkpt lat="50.11606" lon="1.79543">
        <ele>3.3</ele>
        <time>2022-04-22T09:36:14Z</time>
      </trkpt>
      <trkpt lat="50.11606" lon="1.79542">
        <ele>3.3</ele>
        <time>2022-04-22T09:36:15Z</time>
      </trkpt>
      <trkpt lat="50.11607" lon="1.79539">
        <ele>3.3</ele>
        <time>2022-04-22T09:36:16Z</time>
      </trkpt>
      <trkpt lat="50.11608" lon="1.79538">
        <ele>3.3</ele>
        <time>2022-04-22T09:36:17Z</time>
      </trkpt>
      <trkpt lat="50.11609" lon="1.79536">
        <ele>3.3</ele>
        <time>2022-04-22T09:36:18Z</time>
      </trkpt>
      <trkpt lat="50.1161" lon="1.79532">
        <ele>3.3</ele>
        <time>2022-04-22T09:36:19Z</time>
      </trkpt>
      <trkpt lat="50.11611" lon="1.79531">
        <ele>3.3</ele>
        <time>2022-04-22T09:36:21Z</time>
      </trkpt>
      <trkpt lat="50.11611" lon="1.79529">
        <ele>3.3</ele>
        <time>2022-04-22T09:36:22Z</time>
      </trkpt>
      <trkpt lat="50.11612" lon="1.79527">
        <ele>3.3</ele>
        <time>2022-04-22T09:36:23Z</time>
      </trkpt>
      <trkpt lat="50.11612" lon="1.79526">
        <ele>3.3</ele>
        <time>2022-04-22T09:36:24Z</time>
      </trkpt>
      <trkpt lat="50.11613" lon="1.79523">
        <ele>3.3</ele>
        <time>2022-04-22T09:36:25Z</time>
      </trkpt>
      <trkpt lat="50.11614" lon="1.79522">
        <ele>3.3</ele>
        <time>2022-04-22T09:36:26Z</time>
      </trkpt>
      <trkpt lat="50.11615" lon="1.79519">
        <ele>3.3</ele>
        <time>2022-04-22T09:36:27Z</time>
      </trkpt>
      <trkpt lat="50.11615" lon="1.79518">
        <ele>3.3</ele>
        <time>2022-04-22T09:36:29Z</time>
      </trkpt>
      <trkpt lat="50.11615" lon="1.79516">
        <ele>3.3</ele>
        <time>2022-04-22T09:36:30Z</time>
      </trkpt>
      <trkpt lat="50.11616" lon="1.79514">
        <ele>3.3</ele>
        <time>2022-04-22T09:36:31Z</time>
      </trkpt>
      <trkpt lat="50.11617" lon="1.79512">
        <ele>3.3</ele>
        <time>2022-04-22T09:36:32Z</time>
      </trkpt>
      <trkpt lat="50.11618" lon="1.79509">
        <ele>3.3</ele>
        <time>2022-04-22T09:36:33Z</time>
      </trkpt>
      <trkpt lat="50.11619" lon="1.79507">
        <ele>3.3</ele>
        <time>2022-04-22T09:36:34Z</time>
      </trkpt>
      <trkpt lat="50.1162" lon="1.79506">
        <ele>3.3</ele>
        <time>2022-04-22T09:36:35Z</time>
      </trkpt>
      <trkpt lat="50.1162" lon="1.79505">
        <ele>3.3</ele>
        <time>2022-04-22T09:36:36Z</time>
      </trkpt>
      <trkpt lat="50.11621" lon="1.79503">
        <ele>3.3</ele>
        <time>2022-04-22T09:36:37Z</time>
      </trkpt>
      <trkpt lat="50.11622" lon="1.79502">
        <ele>3.3</ele>
        <time>2022-04-22T09:36:38Z</time>
      </trkpt>
      <trkpt lat="50.11623" lon="1.795">
        <ele>3.3</ele>
        <time>2022-04-22T09:36:39Z</time>
      </trkpt>
      <trkpt lat="50.11624" lon="1.79498">
        <ele>3.3</ele>
        <time>2022-04-22T09:36:40Z</time>
      </trkpt>
      <trkpt lat="50.11625" lon="1.79497">
        <ele>3.3</ele>
        <time>2022-04-22T09:36:41Z</time>
      </trkpt>
      <trkpt lat="50.11625" lon="1.79496">
        <ele>3.3</ele>
        <time>2022-04-22T09:36:42Z</time>
      </trkpt>
      <trkpt lat="50.11626" lon="1.79495">
        <ele>3.3</ele>
        <time>2022-04-22T09:36:44Z</time>
      </trkpt>
      <trkpt lat="50.11627" lon="1.79494">
        <ele>3.3</ele>
        <time>2022-04-22T09:36:45Z</time>
      </trkpt>
      <trkpt lat="50.11628" lon="1.79492">
        <ele>3.3</ele>
        <time>2022-04-22T09:36:46Z</time>
      </trkpt>
      <trkpt lat="50.11629" lon="1.79489">
        <ele>3.3</ele>
        <time>2022-04-22T09:36:47Z</time>
      </trkpt>
      <trkpt lat="50.1163" lon="1.79488">
        <ele>3.3</ele>
        <time>2022-04-22T09:36:48Z</time>
      </trkpt>
      <trkpt lat="50.1163" lon="1.79487">
        <ele>3.3</ele>
        <time>2022-04-22T09:36:49Z</time>
      </trkpt>
      <trkpt lat="50.11631" lon="1.79485">
        <ele>3.3</ele>
        <time>2022-04-22T09:36:50Z</time>
      </trkpt>
      <trkpt lat="50.11632" lon="1.79484">
        <ele>3.3</ele>
        <time>2022-04-22T09:36:52Z</time>
      </trkpt>
      <trkpt lat="50.11632" lon="1.79482">
        <ele>3.3</ele>
        <time>2022-04-22T09:36:53Z</time>
      </trkpt>
      <trkpt lat="50.11633" lon="1.7948">
        <ele>3.3</ele>
        <time>2022-04-22T09:36:54Z</time>
      </trkpt>
      <trkpt lat="50.11634" lon="1.79478">
        <ele>3.3</ele>
        <time>2022-04-22T09:36:55Z</time>
      </trkpt>
      <trkpt lat="50.11634" lon="1.79476">
        <ele>3.3</ele>
        <time>2022-04-22T09:36:56Z</time>
      </trkpt>
      <trkpt lat="50.11635" lon="1.79475">
        <ele>3.3</ele>
        <time>2022-04-22T09:36:57Z</time>
      </trkpt>
      <trkpt lat="50.11635" lon="1.79473">
        <ele>3.3</ele>
        <time>2022-04-22T09:36:58Z</time>
      </trkpt>
      <trkpt lat="50.11636" lon="1.79471">
        <ele>3.3</ele>
        <time>2022-04-22T09:36:59Z</time>
      </trkpt>
      <trkpt lat="50.11637" lon="1.79469">
        <ele>3.3</ele>
        <time>2022-04-22T09:37:01Z</time>
      </trkpt>
      <trkpt lat="50.11637" lon="1.79467">
        <ele>3.3</ele>
        <time>2022-04-22T09:37:02Z</time>
      </trkpt>
      <trkpt lat="50.11637" lon="1.79466">
        <ele>3.3</ele>
        <time>2022-04-22T09:37:03Z</time>
      </trkpt>
      <trkpt lat="50.11638" lon="1.79464">
        <ele>3.3</ele>
        <time>2022-04-22T09:37:04Z</time>
      </trkpt>
      <trkpt lat="50.11639" lon="1.79461">
        <ele>3.3</ele>
        <time>2022-04-22T09:37:05Z</time>
      </trkpt>
      <trkpt lat="50.1164" lon="1.7946">
        <ele>3.3</ele>
        <time>2022-04-22T09:37:06Z</time>
      </trkpt>
      <trkpt lat="50.11641" lon="1.79458">
        <ele>3.3</ele>
        <time>2022-04-22T09:37:07Z</time>
      </trkpt>
      <trkpt lat="50.11642" lon="1.79457">
        <ele>3.3</ele>
        <time>2022-04-22T09:37:08Z</time>
      </trkpt>
      <trkpt lat="50.11642" lon="1.79456">
        <ele>3.3</ele>
        <time>2022-04-22T09:37:09Z</time>
      </trkpt>
      <trkpt lat="50.11643" lon="1.79453">
        <ele>3.3</ele>
        <time>2022-04-22T09:37:10Z</time>
      </trkpt>
      <trkpt lat="50.11644" lon="1.79452">
        <ele>3.3</ele>
        <time>2022-04-22T09:37:11Z</time>
      </trkpt>
      <trkpt lat="50.11644" lon="1.7945">
        <ele>3.3</ele>
        <time>2022-04-22T09:37:12Z</time>
      </trkpt>
      <trkpt lat="50.11645" lon="1.79449">
        <ele>3.3</ele>
        <time>2022-04-22T09:37:13Z</time>
      </trkpt>
      <trkpt lat="50.11646" lon="1.79447">
        <ele>3.4</ele>
        <time>2022-04-22T09:37:15Z</time>
      </trkpt>
      <trkpt lat="50.11647" lon="1.79444">
        <ele>3.4</ele>
        <time>2022-04-22T09:37:16Z</time>
      </trkpt>
      <trkpt lat="50.11647" lon="1.79443">
        <ele>3.4</ele>
        <time>2022-04-22T09:37:17Z</time>
      </trkpt>
      <trkpt lat="50.11647" lon="1.79442">
        <ele>3.4</ele>
        <time>2022-04-22T09:37:18Z</time>
      </trkpt>
      <trkpt lat="50.11648" lon="1.7944">
        <ele>3.4</ele>
        <time>2022-04-22T09:37:19Z</time>
      </trkpt>
      <trkpt lat="50.11649" lon="1.79439">
        <ele>3.4</ele>
        <time>2022-04-22T09:37:20Z</time>
      </trkpt>
      <trkpt lat="50.1165" lon="1.79436">
        <ele>3.4</ele>
        <time>2022-04-22T09:37:21Z</time>
      </trkpt>
      <trkpt lat="50.11652" lon="1.79434">
        <ele>3.4</ele>
        <time>2022-04-22T09:37:23Z</time>
      </trkpt>
      <trkpt lat="50.11653" lon="1.79433">
        <ele>3.4</ele>
        <time>2022-04-22T09:37:24Z</time>
      </trkpt>
      <trkpt lat="50.11654" lon="1.79432">
        <ele>3.4</ele>
        <time>2022-04-22T09:37:25Z</time>
      </trkpt>
      <trkpt lat="50.11655" lon="1.79429">
        <ele>3.4</ele>
        <time>2022-04-22T09:37:26Z</time>
      </trkpt>
      <trkpt lat="50.11656" lon="1.79428">
        <ele>3.4</ele>
        <time>2022-04-22T09:37:27Z</time>
      </trkpt>
      <trkpt lat="50.11656" lon="1.79426">
        <ele>3.4</ele>
        <time>2022-04-22T09:37:28Z</time>
      </trkpt>
      <trkpt lat="50.11657" lon="1.79423">
        <ele>3.4</ele>
        <time>2022-04-22T09:37:30Z</time>
      </trkpt>
      <trkpt lat="50.11659" lon="1.79419">
        <ele>3.5</ele>
        <time>2022-04-22T09:37:31Z</time>
      </trkpt>
      <trkpt lat="50.11659" lon="1.79419">
        <ele>3.5</ele>
        <time>2022-04-22T09:37:32Z</time>
      </trkpt>
      <trkpt lat="50.11659" lon="1.79418">
        <ele>3.5</ele>
        <time>2022-04-22T09:37:33Z</time>
      </trkpt>
      <trkpt lat="50.1166" lon="1.79415">
        <ele>3.5</ele>
        <time>2022-04-22T09:37:34Z</time>
      </trkpt>
      <trkpt lat="50.11661" lon="1.79414">
        <ele>3.5</ele>
        <time>2022-04-22T09:37:35Z</time>
      </trkpt>
      <trkpt lat="50.11662" lon="1.79411">
        <ele>3.5</ele>
        <time>2022-04-22T09:37:36Z</time>
      </trkpt>
      <trkpt lat="50.11662" lon="1.7941">
        <ele>3.5</ele>
        <time>2022-04-22T09:37:37Z</time>
      </trkpt>
      <trkpt lat="50.11662" lon="1.79409">
        <ele>3.5</ele>
        <time>2022-04-22T09:37:38Z</time>
      </trkpt>
      <trkpt lat="50.11663" lon="1.79408">
        <ele>3.5</ele>
        <time>2022-04-22T09:37:39Z</time>
      </trkpt>
      <trkpt lat="50.11664" lon="1.79405">
        <ele>3.5</ele>
        <time>2022-04-22T09:37:40Z</time>
      </trkpt>
      <trkpt lat="50.11664" lon="1.79404">
        <ele>3.5</ele>
        <time>2022-04-22T09:37:41Z</time>
      </trkpt>
      <trkpt lat="50.11665" lon="1.79403">
        <ele>3.5</ele>
        <time>2022-04-22T09:37:42Z</time>
      </trkpt>
      <trkpt lat="50.11665" lon="1.79401">
        <ele>3.5</ele>
        <time>2022-04-22T09:37:44Z</time>
      </trkpt>
      <trkpt lat="50.11666" lon="1.794">
        <ele>3.5</ele>
        <time>2022-04-22T09:37:45Z</time>
      </trkpt>
      <trkpt lat="50.11666" lon="1.79399">
        <ele>3.6</ele>
        <time>2022-04-22T09:37:46Z</time>
      </trkpt>
      <trkpt lat="50.11666" lon="1.79398">
        <ele>3.6</ele>
        <time>2022-04-22T09:37:47Z</time>
      </trkpt>
      <trkpt lat="50.11667" lon="1.79397">
        <ele>3.6</ele>
        <time>2022-04-22T09:37:48Z</time>
      </trkpt>
      <trkpt lat="50.11668" lon="1.79394">
        <ele>3.6</ele>
        <time>2022-04-22T09:37:49Z</time>
      </trkpt>
      <trkpt lat="50.11669" lon="1.79392">
        <ele>3.6</ele>
        <time>2022-04-22T09:37:50Z</time>
      </trkpt>
      <trkpt lat="50.11669" lon="1.79391">
        <ele>3.6</ele>
        <time>2022-04-22T09:37:51Z</time>
      </trkpt>
      <trkpt lat="50.1167" lon="1.7939">
        <ele>3.6</ele>
        <time>2022-04-22T09:37:52Z</time>
      </trkpt>
      <trkpt lat="50.11671" lon="1.79389">
        <ele>3.6</ele>
        <time>2022-04-22T09:37:53Z</time>
      </trkpt>
      <trkpt lat="50.11671" lon="1.79388">
        <ele>3.6</ele>
        <time>2022-04-22T09:37:54Z</time>
      </trkpt>
      <trkpt lat="50.11673" lon="1.79386">
        <ele>3.6</ele>
        <time>2022-04-22T09:37:55Z</time>
      </trkpt>
      <trkpt lat="50.11673" lon="1.79386">
        <ele>3.6</ele>
        <time>2022-04-22T09:37:56Z</time>
      </trkpt>
      <trkpt lat="50.11674" lon="1.79385">
        <ele>3.6</ele>
        <time>2022-04-22T09:37:57Z</time>
      </trkpt>
      <trkpt lat="50.11676" lon="1.79384">
        <ele>3.6</ele>
        <time>2022-04-22T09:37:59Z</time>
      </trkpt>
      <trkpt lat="50.11677" lon="1.79382">
        <ele>3.6</ele>
        <time>2022-04-22T09:38:01Z</time>
      </trkpt>
      <trkpt lat="50.11678" lon="1.79382">
        <ele>3.6</ele>
        <time>2022-04-22T09:38:02Z</time>
      </trkpt>
      <trkpt lat="50.11678" lon="1.79381">
        <ele>3.6</ele>
        <time>2022-04-22T09:38:03Z</time>
      </trkpt>
      <trkpt lat="50.11679" lon="1.7938">
        <ele>3.6</ele>
        <time>2022-04-22T09:38:04Z</time>
      </trkpt>
      <trkpt lat="50.1168" lon="1.79378">
        <ele>3.6</ele>
        <time>2022-04-22T09:38:05Z</time>
      </trkpt>
      <trkpt lat="50.11681" lon="1.79376">
        <ele>3.6</ele>
        <time>2022-04-22T09:38:06Z</time>
      </trkpt>
      <trkpt lat="50.11682" lon="1.79375">
        <ele>3.6</ele>
        <time>2022-04-22T09:38:07Z</time>
      </trkpt>
      <trkpt lat="50.11683" lon="1.79374">
        <ele>3.6</ele>
        <time>2022-04-22T09:38:08Z</time>
      </trkpt>
      <trkpt lat="50.11683" lon="1.79372">
        <ele>3.6</ele>
        <time>2022-04-22T09:38:09Z</time>
      </trkpt>
      <trkpt lat="50.11684" lon="1.7937">
        <ele>3.6</ele>
        <time>2022-04-22T09:38:10Z</time>
      </trkpt>
      <trkpt lat="50.11684" lon="1.79368">
        <ele>3.6</ele>
        <time>2022-04-22T09:38:11Z</time>
      </trkpt>
      <trkpt lat="50.11684" lon="1.79365">
        <ele>3.6</ele>
        <time>2022-04-22T09:38:12Z</time>
      </trkpt>
      <trkpt lat="50.11684" lon="1.79363">
        <ele>3.6</ele>
        <time>2022-04-22T09:38:13Z</time>
      </trkpt>
      <trkpt lat="50.11684" lon="1.7936">
        <ele>3.6</ele>
        <time>2022-04-22T09:38:14Z</time>
      </trkpt>
      <trkpt lat="50.11684" lon="1.79356">
        <ele>3.6</ele>
        <time>2022-04-22T09:38:16Z</time>
      </trkpt>
      <trkpt lat="50.11684" lon="1.79354">
        <ele>3.6</ele>
        <time>2022-04-22T09:38:17Z</time>
      </trkpt>
      <trkpt lat="50.11684" lon="1.79352">
        <ele>3.6</ele>
        <time>2022-04-22T09:38:18Z</time>
      </trkpt>
      <trkpt lat="50.11684" lon="1.7935">
        <ele>3.6</ele>
        <time>2022-04-22T09:38:19Z</time>
      </trkpt>
      <trkpt lat="50.11684" lon="1.79347">
        <ele>3.6</ele>
        <time>2022-04-22T09:38:20Z</time>
      </trkpt>
      <trkpt lat="50.11684" lon="1.79344">
        <ele>3.6</ele>
        <time>2022-04-22T09:38:21Z</time>
      </trkpt>
      <trkpt lat="50.11685" lon="1.79342">
        <ele>3.6</ele>
        <time>2022-04-22T09:38:22Z</time>
      </trkpt>
      <trkpt lat="50.11685" lon="1.79339">
        <ele>3.6</ele>
        <time>2022-04-22T09:38:23Z</time>
      </trkpt>
      <trkpt lat="50.11685" lon="1.79338">
        <ele>3.6</ele>
        <time>2022-04-22T09:38:24Z</time>
      </trkpt>
      <trkpt lat="50.11686" lon="1.79337">
        <ele>3.6</ele>
        <time>2022-04-22T09:38:25Z</time>
      </trkpt>
      <trkpt lat="50.11686" lon="1.79335">
        <ele>3.6</ele>
        <time>2022-04-22T09:38:26Z</time>
      </trkpt>
      <trkpt lat="50.11686" lon="1.79333">
        <ele>3.6</ele>
        <time>2022-04-22T09:38:27Z</time>
      </trkpt>
      <trkpt lat="50.11687" lon="1.79329">
        <ele>3.6</ele>
        <time>2022-04-22T09:38:29Z</time>
      </trkpt>
      <trkpt lat="50.11688" lon="1.79328">
        <ele>3.6</ele>
        <time>2022-04-22T09:38:30Z</time>
      </trkpt>
      <trkpt lat="50.11688" lon="1.79326">
        <ele>3.6</ele>
        <time>2022-04-22T09:38:31Z</time>
      </trkpt>
      <trkpt lat="50.11689" lon="1.79325">
        <ele>3.6</ele>
        <time>2022-04-22T09:38:32Z</time>
      </trkpt>
      <trkpt lat="50.11689" lon="1.79324">
        <ele>3.6</ele>
        <time>2022-04-22T09:38:33Z</time>
      </trkpt>
      <trkpt lat="50.1169" lon="1.79322">
        <ele>3.6</ele>
        <time>2022-04-22T09:38:34Z</time>
      </trkpt>
      <trkpt lat="50.11691" lon="1.7932">
        <ele>3.6</ele>
        <time>2022-04-22T09:38:35Z</time>
      </trkpt>
      <trkpt lat="50.11692" lon="1.79318">
        <ele>3.6</ele>
        <time>2022-04-22T09:38:36Z</time>
      </trkpt>
      <trkpt lat="50.11692" lon="1.79317">
        <ele>3.6</ele>
        <time>2022-04-22T09:38:37Z</time>
      </trkpt>
      <trkpt lat="50.11693" lon="1.79315">
        <ele>3.6</ele>
        <time>2022-04-22T09:38:38Z</time>
      </trkpt>
      <trkpt lat="50.11694" lon="1.79314">
        <ele>3.6</ele>
        <time>2022-04-22T09:38:39Z</time>
      </trkpt>
      <trkpt lat="50.11695" lon="1.79311">
        <ele>3.7</ele>
        <time>2022-04-22T09:38:41Z</time>
      </trkpt>
      <trkpt lat="50.11696" lon="1.7931">
        <ele>3.7</ele>
        <time>2022-04-22T09:38:42Z</time>
      </trkpt>
      <trkpt lat="50.11697" lon="1.79308">
        <ele>3.7</ele>
        <time>2022-04-22T09:38:43Z</time>
      </trkpt>
      <trkpt lat="50.11698" lon="1.79306">
        <ele>3.7</ele>
        <time>2022-04-22T09:38:44Z</time>
      </trkpt>
      <trkpt lat="50.11699" lon="1.79304">
        <ele>3.7</ele>
        <time>2022-04-22T09:38:45Z</time>
      </trkpt>
      <trkpt lat="50.117" lon="1.79302">
        <ele>3.7</ele>
        <time>2022-04-22T09:38:46Z</time>
      </trkpt>
      <trkpt lat="50.11702" lon="1.793">
        <ele>3.7</ele>
        <time>2022-04-22T09:38:47Z</time>
      </trkpt>
      <trkpt lat="50.11702" lon="1.79299">
        <ele>3.7</ele>
        <time>2022-04-22T09:38:49Z</time>
      </trkpt>
      <trkpt lat="50.11703" lon="1.79298">
        <ele>3.7</ele>
        <time>2022-04-22T09:38:50Z</time>
      </trkpt>
      <trkpt lat="50.11704" lon="1.79296">
        <ele>3.7</ele>
        <time>2022-04-22T09:38:51Z</time>
      </trkpt>
      <trkpt lat="50.11705" lon="1.79295">
        <ele>3.7</ele>
        <time>2022-04-22T09:38:52Z</time>
      </trkpt>
      <trkpt lat="50.11706" lon="1.79293">
        <ele>3.7</ele>
        <time>2022-04-22T09:38:53Z</time>
      </trkpt>
      <trkpt lat="50.11707" lon="1.79292">
        <ele>3.7</ele>
        <time>2022-04-22T09:38:54Z</time>
      </trkpt>
      <trkpt lat="50.11708" lon="1.79289">
        <ele>3.7</ele>
        <time>2022-04-22T09:38:56Z</time>
      </trkpt>
      <trkpt lat="50.11709" lon="1.79288">
        <ele>3.7</ele>
        <time>2022-04-22T09:38:58Z</time>
      </trkpt>
      <trkpt lat="50.11709" lon="1.79286">
        <ele>3.7</ele>
        <time>2022-04-22T09:38:59Z</time>
      </trkpt>
      <trkpt lat="50.1171" lon="1.79285">
        <ele>3.7</ele>
        <time>2022-04-22T09:39:00Z</time>
      </trkpt>
      <trkpt lat="50.11711" lon="1.79282">
        <ele>3.7</ele>
        <time>2022-04-22T09:39:01Z</time>
      </trkpt>
      <trkpt lat="50.11712" lon="1.79281">
        <ele>3.7</ele>
        <time>2022-04-22T09:39:02Z</time>
      </trkpt>
      <trkpt lat="50.11712" lon="1.79279">
        <ele>3.7</ele>
        <time>2022-04-22T09:39:03Z</time>
      </trkpt>
      <trkpt lat="50.11713" lon="1.79278">
        <ele>3.7</ele>
        <time>2022-04-22T09:39:04Z</time>
      </trkpt>
      <trkpt lat="50.11713" lon="1.79276">
        <ele>3.7</ele>
        <time>2022-04-22T09:39:05Z</time>
      </trkpt>
      <trkpt lat="50.11714" lon="1.79274">
        <ele>3.7</ele>
        <time>2022-04-22T09:39:07Z</time>
      </trkpt>
      <trkpt lat="50.11714" lon="1.79273">
        <ele>3.7</ele>
        <time>2022-04-22T09:39:08Z</time>
      </trkpt>
      <trkpt lat="50.11715" lon="1.7927">
        <ele>3.7</ele>
        <time>2022-04-22T09:39:09Z</time>
      </trkpt>
      <trkpt lat="50.11715" lon="1.79268">
        <ele>3.7</ele>
        <time>2022-04-22T09:39:10Z</time>
      </trkpt>
      <trkpt lat="50.11716" lon="1.79267">
        <ele>3.7</ele>
        <time>2022-04-22T09:39:11Z</time>
      </trkpt>
      <trkpt lat="50.11716" lon="1.79266">
        <ele>3.7</ele>
        <time>2022-04-22T09:39:12Z</time>
      </trkpt>
      <trkpt lat="50.11717" lon="1.79263">
        <ele>3.7</ele>
        <time>2022-04-22T09:39:13Z</time>
      </trkpt>
      <trkpt lat="50.11718" lon="1.79261">
        <ele>3.7</ele>
        <time>2022-04-22T09:39:15Z</time>
      </trkpt>
      <trkpt lat="50.11719" lon="1.79259">
        <ele>3.6</ele>
        <time>2022-04-22T09:39:16Z</time>
      </trkpt>
      <trkpt lat="50.1172" lon="1.79256">
        <ele>3.6</ele>
        <time>2022-04-22T09:39:17Z</time>
      </trkpt>
      <trkpt lat="50.1172" lon="1.79255">
        <ele>3.6</ele>
        <time>2022-04-22T09:39:18Z</time>
      </trkpt>
      <trkpt lat="50.11721" lon="1.79254">
        <ele>3.6</ele>
        <time>2022-04-22T09:39:19Z</time>
      </trkpt>
      <trkpt lat="50.11722" lon="1.79251">
        <ele>3.6</ele>
        <time>2022-04-22T09:39:21Z</time>
      </trkpt>
      <trkpt lat="50.11723" lon="1.79249">
        <ele>3.6</ele>
        <time>2022-04-22T09:39:22Z</time>
      </trkpt>
      <trkpt lat="50.11724" lon="1.79247">
        <ele>3.6</ele>
        <time>2022-04-22T09:39:23Z</time>
      </trkpt>
      <trkpt lat="50.11725" lon="1.79245">
        <ele>3.6</ele>
        <time>2022-04-22T09:39:24Z</time>
      </trkpt>
      <trkpt lat="50.11725" lon="1.79244">
        <ele>3.6</ele>
        <time>2022-04-22T09:39:25Z</time>
      </trkpt>
      <trkpt lat="50.11726" lon="1.79242">
        <ele>3.6</ele>
        <time>2022-04-22T09:39:26Z</time>
      </trkpt>
      <trkpt lat="50.11727" lon="1.79241">
        <ele>3.6</ele>
        <time>2022-04-22T09:39:27Z</time>
      </trkpt>
      <trkpt lat="50.11728" lon="1.79238">
        <ele>3.6</ele>
        <time>2022-04-22T09:39:28Z</time>
      </trkpt>
      <trkpt lat="50.11729" lon="1.79237">
        <ele>3.6</ele>
        <time>2022-04-22T09:39:29Z</time>
      </trkpt>
      <trkpt lat="50.1173" lon="1.79236">
        <ele>3.6</ele>
        <time>2022-04-22T09:39:30Z</time>
      </trkpt>
      <trkpt lat="50.1173" lon="1.79235">
        <ele>3.6</ele>
        <time>2022-04-22T09:39:32Z</time>
      </trkpt>
      <trkpt lat="50.11731" lon="1.79233">
        <ele>3.5</ele>
        <time>2022-04-22T09:39:33Z</time>
      </trkpt>
      <trkpt lat="50.11732" lon="1.79232">
        <ele>3.5</ele>
        <time>2022-04-22T09:39:34Z</time>
      </trkpt>
      <trkpt lat="50.11733" lon="1.7923">
        <ele>3.5</ele>
        <time>2022-04-22T09:39:35Z</time>
      </trkpt>
      <trkpt lat="50.11734" lon="1.79227">
        <ele>3.5</ele>
        <time>2022-04-22T09:39:36Z</time>
      </trkpt>
      <trkpt lat="50.11735" lon="1.79225">
        <ele>3.5</ele>
        <time>2022-04-22T09:39:37Z</time>
      </trkpt>
      <trkpt lat="50.11736" lon="1.79224">
        <ele>3.5</ele>
        <time>2022-04-22T09:39:39Z</time>
      </trkpt>
      <trkpt lat="50.11736" lon="1.79223">
        <ele>3.5</ele>
        <time>2022-04-22T09:39:40Z</time>
      </trkpt>
      <trkpt lat="50.11737" lon="1.7922">
        <ele>3.5</ele>
        <time>2022-04-22T09:39:41Z</time>
      </trkpt>
      <trkpt lat="50.11738" lon="1.79219">
        <ele>3.5</ele>
        <time>2022-04-22T09:39:42Z</time>
      </trkpt>
      <trkpt lat="50.11739" lon="1.79217">
        <ele>3.5</ele>
        <time>2022-04-22T09:39:43Z</time>
      </trkpt>
      <trkpt lat="50.1174" lon="1.79216">
        <ele>3.5</ele>
        <time>2022-04-22T09:39:44Z</time>
      </trkpt>
      <trkpt lat="50.1174" lon="1.79215">
        <ele>3.5</ele>
        <time>2022-04-22T09:39:45Z</time>
      </trkpt>
      <trkpt lat="50.11741" lon="1.79212">
        <ele>3.5</ele>
        <time>2022-04-22T09:39:47Z</time>
      </trkpt>
      <trkpt lat="50.11742" lon="1.79211">
        <ele>3.5</ele>
        <time>2022-04-22T09:39:48Z</time>
      </trkpt>
      <trkpt lat="50.11743" lon="1.79208">
        <ele>3.5</ele>
        <time>2022-04-22T09:39:49Z</time>
      </trkpt>
      <trkpt lat="50.11744" lon="1.79206">
        <ele>3.5</ele>
        <time>2022-04-22T09:39:50Z</time>
      </trkpt>
      <trkpt lat="50.11744" lon="1.79205">
        <ele>3.5</ele>
        <time>2022-04-22T09:39:51Z</time>
      </trkpt>
      <trkpt lat="50.11745" lon="1.79203">
        <ele>3.5</ele>
        <time>2022-04-22T09:39:52Z</time>
      </trkpt>
      <trkpt lat="50.11746" lon="1.79202">
        <ele>3.5</ele>
        <time>2022-04-22T09:39:53Z</time>
      </trkpt>
      <trkpt lat="50.11746" lon="1.79201">
        <ele>3.5</ele>
        <time>2022-04-22T09:39:54Z</time>
      </trkpt>
      <trkpt lat="50.11747" lon="1.79199">
        <ele>3.5</ele>
        <time>2022-04-22T09:39:55Z</time>
      </trkpt>
      <trkpt lat="50.11748" lon="1.79197">
        <ele>3.5</ele>
        <time>2022-04-22T09:39:56Z</time>
      </trkpt>
      <trkpt lat="50.11749" lon="1.79196">
        <ele>3.5</ele>
        <time>2022-04-22T09:39:57Z</time>
      </trkpt>
      <trkpt lat="50.1175" lon="1.79194">
        <ele>3.5</ele>
        <time>2022-04-22T09:39:58Z</time>
      </trkpt>
      <trkpt lat="50.11751" lon="1.79193">
        <ele>3.5</ele>
        <time>2022-04-22T09:40:00Z</time>
      </trkpt>
      <trkpt lat="50.11751" lon="1.79191">
        <ele>3.5</ele>
        <time>2022-04-22T09:40:01Z</time>
      </trkpt>
      <trkpt lat="50.11752" lon="1.79189">
        <ele>3.5</ele>
        <time>2022-04-22T09:40:02Z</time>
      </trkpt>
      <trkpt lat="50.11753" lon="1.79187">
        <ele>3.5</ele>
        <time>2022-04-22T09:40:03Z</time>
      </trkpt>
      <trkpt lat="50.11754" lon="1.79186">
        <ele>3.5</ele>
        <time>2022-04-22T09:40:04Z</time>
      </trkpt>
      <trkpt lat="50.11754" lon="1.79184">
        <ele>3.5</ele>
        <time>2022-04-22T09:40:05Z</time>
      </trkpt>
      <trkpt lat="50.11755" lon="1.79182">
        <ele>3.5</ele>
        <time>2022-04-22T09:40:06Z</time>
      </trkpt>
      <trkpt lat="50.11756" lon="1.79181">
        <ele>3.5</ele>
        <time>2022-04-22T09:40:07Z</time>
      </trkpt>
      <trkpt lat="50.11756" lon="1.79179">
        <ele>3.5</ele>
        <time>2022-04-22T09:40:08Z</time>
      </trkpt>
      <trkpt lat="50.11757" lon="1.79178">
        <ele>3.5</ele>
        <time>2022-04-22T09:40:09Z</time>
      </trkpt>
      <trkpt lat="50.11757" lon="1.79177">
        <ele>3.5</ele>
        <time>2022-04-22T09:40:10Z</time>
      </trkpt>
      <trkpt lat="50.11758" lon="1.79174">
        <ele>3.5</ele>
        <time>2022-04-22T09:40:11Z</time>
      </trkpt>
      <trkpt lat="50.11759" lon="1.79173">
        <ele>3.5</ele>
        <time>2022-04-22T09:40:12Z</time>
      </trkpt>
      <trkpt lat="50.11759" lon="1.79171">
        <ele>3.5</ele>
        <time>2022-04-22T09:40:13Z</time>
      </trkpt>
      <trkpt lat="50.1176" lon="1.7917">
        <ele>3.5</ele>
        <time>2022-04-22T09:40:15Z</time>
      </trkpt>
      <trkpt lat="50.11761" lon="1.79168">
        <ele>3.5</ele>
        <time>2022-04-22T09:40:16Z</time>
      </trkpt>
      <trkpt lat="50.11762" lon="1.79167">
        <ele>3.5</ele>
        <time>2022-04-22T09:40:17Z</time>
      </trkpt>
      <trkpt lat="50.11763" lon="1.79165">
        <ele>3.5</ele>
        <time>2022-04-22T09:40:18Z</time>
      </trkpt>
      <trkpt lat="50.11763" lon="1.79163">
        <ele>3.5</ele>
        <time>2022-04-22T09:40:19Z</time>
      </trkpt>
      <trkpt lat="50.11764" lon="1.79162">
        <ele>3.5</ele>
        <time>2022-04-22T09:40:20Z</time>
      </trkpt>
      <trkpt lat="50.11765" lon="1.7916">
        <ele>3.5</ele>
        <time>2022-04-22T09:40:22Z</time>
      </trkpt>
      <trkpt lat="50.11766" lon="1.79158">
        <ele>3.5</ele>
        <time>2022-04-22T09:40:23Z</time>
      </trkpt>
      <trkpt lat="50.11766" lon="1.79157">
        <ele>3.5</ele>
        <time>2022-04-22T09:40:24Z</time>
      </trkpt>
      <trkpt lat="50.11767" lon="1.79155">
        <ele>3.5</ele>
        <time>2022-04-22T09:40:25Z</time>
      </trkpt>
      <trkpt lat="50.11767" lon="1.79152">
        <ele>3.5</ele>
        <time>2022-04-22T09:40:26Z</time>
      </trkpt>
      <trkpt lat="50.11768" lon="1.79151">
        <ele>3.5</ele>
        <time>2022-04-22T09:40:27Z</time>
      </trkpt>
      <trkpt lat="50.11768" lon="1.79149">
        <ele>3.5</ele>
        <time>2022-04-22T09:40:28Z</time>
      </trkpt>
      <trkpt lat="50.11769" lon="1.79147">
        <ele>3.5</ele>
        <time>2022-04-22T09:40:30Z</time>
      </trkpt>
      <trkpt lat="50.11769" lon="1.79146">
        <ele>3.5</ele>
        <time>2022-04-22T09:40:31Z</time>
      </trkpt>
      <trkpt lat="50.1177" lon="1.79143">
        <ele>3.5</ele>
        <time>2022-04-22T09:40:32Z</time>
      </trkpt>
      <trkpt lat="50.1177" lon="1.79141">
        <ele>3.5</ele>
        <time>2022-04-22T09:40:33Z</time>
      </trkpt>
      <trkpt lat="50.11771" lon="1.7914">
        <ele>3.5</ele>
        <time>2022-04-22T09:40:34Z</time>
      </trkpt>
      <trkpt lat="50.11771" lon="1.79138">
        <ele>3.5</ele>
        <time>2022-04-22T09:40:35Z</time>
      </trkpt>
      <trkpt lat="50.11772" lon="1.79136">
        <ele>3.5</ele>
        <time>2022-04-22T09:40:36Z</time>
      </trkpt>
      <trkpt lat="50.11773" lon="1.79135">
        <ele>3.5</ele>
        <time>2022-04-22T09:40:37Z</time>
      </trkpt>
      <trkpt lat="50.11774" lon="1.79133">
        <ele>3.5</ele>
        <time>2022-04-22T09:40:38Z</time>
      </trkpt>
      <trkpt lat="50.11774" lon="1.79132">
        <ele>3.5</ele>
        <time>2022-04-22T09:40:39Z</time>
      </trkpt>
      <trkpt lat="50.11775" lon="1.7913">
        <ele>3.5</ele>
        <time>2022-04-22T09:40:40Z</time>
      </trkpt>
      <trkpt lat="50.11776" lon="1.79128">
        <ele>3.5</ele>
        <time>2022-04-22T09:40:41Z</time>
      </trkpt>
      <trkpt lat="50.11778" lon="1.79126">
        <ele>3.5</ele>
        <time>2022-04-22T09:40:43Z</time>
      </trkpt>
      <trkpt lat="50.11778" lon="1.79125">
        <ele>3.5</ele>
        <time>2022-04-22T09:40:44Z</time>
      </trkpt>
      <trkpt lat="50.11779" lon="1.79124">
        <ele>3.5</ele>
        <time>2022-04-22T09:40:45Z</time>
      </trkpt>
      <trkpt lat="50.1178" lon="1.79121">
        <ele>3.5</ele>
        <time>2022-04-22T09:40:46Z</time>
      </trkpt>
      <trkpt lat="50.11781" lon="1.7912">
        <ele>3.5</ele>
        <time>2022-04-22T09:40:47Z</time>
      </trkpt>
      <trkpt lat="50.11782" lon="1.79118">
        <ele>3.5</ele>
        <time>2022-04-22T09:40:48Z</time>
      </trkpt>
      <trkpt lat="50.11782" lon="1.79116">
        <ele>3.5</ele>
        <time>2022-04-22T09:40:49Z</time>
      </trkpt>
      <trkpt lat="50.11783" lon="1.79115">
        <ele>3.5</ele>
        <time>2022-04-22T09:40:51Z</time>
      </trkpt>
      <trkpt lat="50.11784" lon="1.79112">
        <ele>3.5</ele>
        <time>2022-04-22T09:40:52Z</time>
      </trkpt>
      <trkpt lat="50.11785" lon="1.79111">
        <ele>3.5</ele>
        <time>2022-04-22T09:40:53Z</time>
      </trkpt>
      <trkpt lat="50.11786" lon="1.79109">
        <ele>3.5</ele>
        <time>2022-04-22T09:40:54Z</time>
      </trkpt>
      <trkpt lat="50.11787" lon="1.79107">
        <ele>3.5</ele>
        <time>2022-04-22T09:40:55Z</time>
      </trkpt>
      <trkpt lat="50.11788" lon="1.79105">
        <ele>3.5</ele>
        <time>2022-04-22T09:40:57Z</time>
      </trkpt>
      <trkpt lat="50.11789" lon="1.79104">
        <ele>3.5</ele>
        <time>2022-04-22T09:40:58Z</time>
      </trkpt>
      <trkpt lat="50.11789" lon="1.79103">
        <ele>3.5</ele>
        <time>2022-04-22T09:40:59Z</time>
      </trkpt>
      <trkpt lat="50.1179" lon="1.79101">
        <ele>3.5</ele>
        <time>2022-04-22T09:41:00Z</time>
      </trkpt>
      <trkpt lat="50.11791" lon="1.791">
        <ele>3.5</ele>
        <time>2022-04-22T09:41:01Z</time>
      </trkpt>
      <trkpt lat="50.11792" lon="1.79097">
        <ele>3.5</ele>
        <time>2022-04-22T09:41:02Z</time>
      </trkpt>
      <trkpt lat="50.11793" lon="1.79096">
        <ele>3.5</ele>
        <time>2022-04-22T09:41:03Z</time>
      </trkpt>
      <trkpt lat="50.11793" lon="1.79094">
        <ele>3.5</ele>
        <time>2022-04-22T09:41:04Z</time>
      </trkpt>
      <trkpt lat="50.11794" lon="1.79093">
        <ele>3.5</ele>
        <time>2022-04-22T09:41:05Z</time>
      </trkpt>
      <trkpt lat="50.11795" lon="1.7909">
        <ele>3.5</ele>
        <time>2022-04-22T09:41:07Z</time>
      </trkpt>
      <trkpt lat="50.11796" lon="1.79087">
        <ele>3.5</ele>
        <time>2022-04-22T09:41:08Z</time>
      </trkpt>
      <trkpt lat="50.11796" lon="1.79085">
        <ele>3.5</ele>
        <time>2022-04-22T09:41:09Z</time>
      </trkpt>
      <trkpt lat="50.11797" lon="1.79084">
        <ele>3.5</ele>
        <time>2022-04-22T09:41:10Z</time>
      </trkpt>
      <trkpt lat="50.11798" lon="1.79081">
        <ele>3.5</ele>
        <time>2022-04-22T09:41:11Z</time>
      </trkpt>
      <trkpt lat="50.11798" lon="1.7908">
        <ele>3.5</ele>
        <time>2022-04-22T09:41:12Z</time>
      </trkpt>
      <trkpt lat="50.11799" lon="1.79077">
        <ele>3.5</ele>
        <time>2022-04-22T09:41:13Z</time>
      </trkpt>
      <trkpt lat="50.118" lon="1.79076">
        <ele>3.5</ele>
        <time>2022-04-22T09:41:15Z</time>
      </trkpt>
      <trkpt lat="50.118" lon="1.79075">
        <ele>3.5</ele>
        <time>2022-04-22T09:41:16Z</time>
      </trkpt>
      <trkpt lat="50.11801" lon="1.79073">
        <ele>3.5</ele>
        <time>2022-04-22T09:41:17Z</time>
      </trkpt>
      <trkpt lat="50.11802" lon="1.79071">
        <ele>3.5</ele>
        <time>2022-04-22T09:41:18Z</time>
      </trkpt>
      <trkpt lat="50.11803" lon="1.79068">
        <ele>3.5</ele>
        <time>2022-04-22T09:41:19Z</time>
      </trkpt>
      <trkpt lat="50.11803" lon="1.79067">
        <ele>3.5</ele>
        <time>2022-04-22T09:41:20Z</time>
      </trkpt>
      <trkpt lat="50.11804" lon="1.79065">
        <ele>3.5</ele>
        <time>2022-04-22T09:41:21Z</time>
      </trkpt>
      <trkpt lat="50.11804" lon="1.79064">
        <ele>3.5</ele>
        <time>2022-04-22T09:41:23Z</time>
      </trkpt>
      <trkpt lat="50.11805" lon="1.79062">
        <ele>3.5</ele>
        <time>2022-04-22T09:41:24Z</time>
      </trkpt>
      <trkpt lat="50.11805" lon="1.79061">
        <ele>3.5</ele>
        <time>2022-04-22T09:41:25Z</time>
      </trkpt>
      <trkpt lat="50.11806" lon="1.79059">
        <ele>3.5</ele>
        <time>2022-04-22T09:41:26Z</time>
      </trkpt>
      <trkpt lat="50.11807" lon="1.79056">
        <ele>3.5</ele>
        <time>2022-04-22T09:41:27Z</time>
      </trkpt>
      <trkpt lat="50.11807" lon="1.79054">
        <ele>3.4</ele>
        <time>2022-04-22T09:41:29Z</time>
      </trkpt>
      <trkpt lat="50.11807" lon="1.79053">
        <ele>3.4</ele>
        <time>2022-04-22T09:41:30Z</time>
      </trkpt>
      <trkpt lat="50.11808" lon="1.79051">
        <ele>3.4</ele>
        <time>2022-04-22T09:41:31Z</time>
      </trkpt>
      <trkpt lat="50.11808" lon="1.79048">
        <ele>3.4</ele>
        <time>2022-04-22T09:41:32Z</time>
      </trkpt>
      <trkpt lat="50.11809" lon="1.79047">
        <ele>3.4</ele>
        <time>2022-04-22T09:41:33Z</time>
      </trkpt>
      <trkpt lat="50.11809" lon="1.79046">
        <ele>3.4</ele>
        <time>2022-04-22T09:41:34Z</time>
      </trkpt>
      <trkpt lat="50.1181" lon="1.79044">
        <ele>3.4</ele>
        <time>2022-04-22T09:41:35Z</time>
      </trkpt>
      <trkpt lat="50.11811" lon="1.79041">
        <ele>3.4</ele>
        <time>2022-04-22T09:41:37Z</time>
      </trkpt>
      <trkpt lat="50.11811" lon="1.7904">
        <ele>3.4</ele>
        <time>2022-04-22T09:41:38Z</time>
      </trkpt>
      <trkpt lat="50.11811" lon="1.79038">
        <ele>3.4</ele>
        <time>2022-04-22T09:41:39Z</time>
      </trkpt>
      <trkpt lat="50.11812" lon="1.79036">
        <ele>3.4</ele>
        <time>2022-04-22T09:41:40Z</time>
      </trkpt>
      <trkpt lat="50.11812" lon="1.79035">
        <ele>3.4</ele>
        <time>2022-04-22T09:41:41Z</time>
      </trkpt>
      <trkpt lat="50.11813" lon="1.79032">
        <ele>3.4</ele>
        <time>2022-04-22T09:41:42Z</time>
      </trkpt>
      <trkpt lat="50.11814" lon="1.79029">
        <ele>3.4</ele>
        <time>2022-04-22T09:41:44Z</time>
      </trkpt>
      <trkpt lat="50.11815" lon="1.79027">
        <ele>3.4</ele>
        <time>2022-04-22T09:41:46Z</time>
      </trkpt>
      <trkpt lat="50.11815" lon="1.79025">
        <ele>3.4</ele>
        <time>2022-04-22T09:41:47Z</time>
      </trkpt>
      <trkpt lat="50.11816" lon="1.79024">
        <ele>3.4</ele>
        <time>2022-04-22T09:41:48Z</time>
      </trkpt>
      <trkpt lat="50.11817" lon="1.79021">
        <ele>3.4</ele>
        <time>2022-04-22T09:41:49Z</time>
      </trkpt>
      <trkpt lat="50.11817" lon="1.7902">
        <ele>3.4</ele>
        <time>2022-04-22T09:41:50Z</time>
      </trkpt>
      <trkpt lat="50.11818" lon="1.79018">
        <ele>3.4</ele>
        <time>2022-04-22T09:41:51Z</time>
      </trkpt>
      <trkpt lat="50.11819" lon="1.79016">
        <ele>3.4</ele>
        <time>2022-04-22T09:41:52Z</time>
      </trkpt>
      <trkpt lat="50.11819" lon="1.79015">
        <ele>3.4</ele>
        <time>2022-04-22T09:41:53Z</time>
      </trkpt>
      <trkpt lat="50.1182" lon="1.79014">
        <ele>3.4</ele>
        <time>2022-04-22T09:41:54Z</time>
      </trkpt>
      <trkpt lat="50.1182" lon="1.79012">
        <ele>3.4</ele>
        <time>2022-04-22T09:41:55Z</time>
      </trkpt>
      <trkpt lat="50.11822" lon="1.79008">
        <ele>3.4</ele>
        <time>2022-04-22T09:41:57Z</time>
      </trkpt>
      <trkpt lat="50.11823" lon="1.79007">
        <ele>3.4</ele>
        <time>2022-04-22T09:41:59Z</time>
      </trkpt>
      <trkpt lat="50.11824" lon="1.79005">
        <ele>3.4</ele>
        <time>2022-04-22T09:42:00Z</time>
      </trkpt>
      <trkpt lat="50.11825" lon="1.79003">
        <ele>3.4</ele>
        <time>2022-04-22T09:42:01Z</time>
      </trkpt>
      <trkpt lat="50.11826" lon="1.79001">
        <ele>3.4</ele>
        <time>2022-04-22T09:42:02Z</time>
      </trkpt>
      <trkpt lat="50.11827" lon="1.78999">
        <ele>3.4</ele>
        <time>2022-04-22T09:42:03Z</time>
      </trkpt>
      <trkpt lat="50.11828" lon="1.78997">
        <ele>3.4</ele>
        <time>2022-04-22T09:42:04Z</time>
      </trkpt>
      <trkpt lat="50.11829" lon="1.78996">
        <ele>3.4</ele>
        <time>2022-04-22T09:42:05Z</time>
      </trkpt>
      <trkpt lat="50.1183" lon="1.78993">
        <ele>3.4</ele>
        <time>2022-04-22T09:42:06Z</time>
      </trkpt>
      <trkpt lat="50.11831" lon="1.78991">
        <ele>3.4</ele>
        <time>2022-04-22T09:42:08Z</time>
      </trkpt>
      <trkpt lat="50.11832" lon="1.7899">
        <ele>3.4</ele>
        <time>2022-04-22T09:42:09Z</time>
      </trkpt>
      <trkpt lat="50.11832" lon="1.78988">
        <ele>3.4</ele>
        <time>2022-04-22T09:42:11Z</time>
      </trkpt>
      <trkpt lat="50.11833" lon="1.78986">
        <ele>3.4</ele>
        <time>2022-04-22T09:42:12Z</time>
      </trkpt>
      <trkpt lat="50.11835" lon="1.78983">
        <ele>3.4</ele>
        <time>2022-04-22T09:42:14Z</time>
      </trkpt>
      <trkpt lat="50.11835" lon="1.78981">
        <ele>3.4</ele>
        <time>2022-04-22T09:42:15Z</time>
      </trkpt>
      <trkpt lat="50.11836" lon="1.7898">
        <ele>3.4</ele>
        <time>2022-04-22T09:42:16Z</time>
      </trkpt>
      <trkpt lat="50.11837" lon="1.78977">
        <ele>3.4</ele>
        <time>2022-04-22T09:42:17Z</time>
      </trkpt>
      <trkpt lat="50.11838" lon="1.78975">
        <ele>3.4</ele>
        <time>2022-04-22T09:42:18Z</time>
      </trkpt>
      <trkpt lat="50.11838" lon="1.78973">
        <ele>3.4</ele>
        <time>2022-04-22T09:42:19Z</time>
      </trkpt>
      <trkpt lat="50.11839" lon="1.78972">
        <ele>3.4</ele>
        <time>2022-04-22T09:42:20Z</time>
      </trkpt>
      <trkpt lat="50.1184" lon="1.78969">
        <ele>3.4</ele>
        <time>2022-04-22T09:42:21Z</time>
      </trkpt>
      <trkpt lat="50.11841" lon="1.78968">
        <ele>3.4</ele>
        <time>2022-04-22T09:42:23Z</time>
      </trkpt>
      <trkpt lat="50.11841" lon="1.78968">
        <ele>3.4</ele>
        <time>2022-04-22T09:42:24Z</time>
      </trkpt>
      <trkpt lat="50.11842" lon="1.78965">
        <ele>3.4</ele>
        <time>2022-04-22T09:42:25Z</time>
      </trkpt>
      <trkpt lat="50.11843" lon="1.78963">
        <ele>3.4</ele>
        <time>2022-04-22T09:42:27Z</time>
      </trkpt>
      <trkpt lat="50.11844" lon="1.7896">
        <ele>3.4</ele>
        <time>2022-04-22T09:42:28Z</time>
      </trkpt>
      <trkpt lat="50.11845" lon="1.78959">
        <ele>3.4</ele>
        <time>2022-04-22T09:42:29Z</time>
      </trkpt>
      <trkpt lat="50.11845" lon="1.78958">
        <ele>3.4</ele>
        <time>2022-04-22T09:42:30Z</time>
      </trkpt>
      <trkpt lat="50.11846" lon="1.78956">
        <ele>3.4</ele>
        <time>2022-04-22T09:42:31Z</time>
      </trkpt>
      <trkpt lat="50.11848" lon="1.78954">
        <ele>3.4</ele>
        <time>2022-04-22T09:42:32Z</time>
      </trkpt>
      <trkpt lat="50.11849" lon="1.78951">
        <ele>3.4</ele>
        <time>2022-04-22T09:42:34Z</time>
      </trkpt>
      <trkpt lat="50.1185" lon="1.7895">
        <ele>3.4</ele>
        <time>2022-04-22T09:42:35Z</time>
      </trkpt>
      <trkpt lat="50.11851" lon="1.78949">
        <ele>3.4</ele>
        <time>2022-04-22T09:42:36Z</time>
      </trkpt>
      <trkpt lat="50.11852" lon="1.78946">
        <ele>3.4</ele>
        <time>2022-04-22T09:42:37Z</time>
      </trkpt>
      <trkpt lat="50.11853" lon="1.78945">
        <ele>3.4</ele>
        <time>2022-04-22T09:42:38Z</time>
      </trkpt>
      <trkpt lat="50.11854" lon="1.78943">
        <ele>3.4</ele>
        <time>2022-04-22T09:42:39Z</time>
      </trkpt>
      <trkpt lat="50.11855" lon="1.78942">
        <ele>3.4</ele>
        <time>2022-04-22T09:42:40Z</time>
      </trkpt>
      <trkpt lat="50.11856" lon="1.78939">
        <ele>3.4</ele>
        <time>2022-04-22T09:42:41Z</time>
      </trkpt>
      <trkpt lat="50.11857" lon="1.78938">
        <ele>3.4</ele>
        <time>2022-04-22T09:42:42Z</time>
      </trkpt>
      <trkpt lat="50.11858" lon="1.78935">
        <ele>3.4</ele>
        <time>2022-04-22T09:42:43Z</time>
      </trkpt>
      <trkpt lat="50.11859" lon="1.78934">
        <ele>3.4</ele>
        <time>2022-04-22T09:42:45Z</time>
      </trkpt>
      <trkpt lat="50.11859" lon="1.78933">
        <ele>3.4</ele>
        <time>2022-04-22T09:42:46Z</time>
      </trkpt>
      <trkpt lat="50.11861" lon="1.78931">
        <ele>3.4</ele>
        <time>2022-04-22T09:42:47Z</time>
      </trkpt>
      <trkpt lat="50.11861" lon="1.7893">
        <ele>3.4</ele>
        <time>2022-04-22T09:42:48Z</time>
      </trkpt>
      <trkpt lat="50.11862" lon="1.78928">
        <ele>3.3</ele>
        <time>2022-04-22T09:42:49Z</time>
      </trkpt>
      <trkpt lat="50.11863" lon="1.78926">
        <ele>3.3</ele>
        <time>2022-04-22T09:42:50Z</time>
      </trkpt>
      <trkpt lat="50.11864" lon="1.78923">
        <ele>3.3</ele>
        <time>2022-04-22T09:42:52Z</time>
      </trkpt>
      <trkpt lat="50.11865" lon="1.78922">
        <ele>3.3</ele>
        <time>2022-04-22T09:42:53Z</time>
      </trkpt>
      <trkpt lat="50.11865" lon="1.7892">
        <ele>3.3</ele>
        <time>2022-04-22T09:42:54Z</time>
      </trkpt>
      <trkpt lat="50.11866" lon="1.78919">
        <ele>3.3</ele>
        <time>2022-04-22T09:42:55Z</time>
      </trkpt>
      <trkpt lat="50.11866" lon="1.78918">
        <ele>3.3</ele>
        <time>2022-04-22T09:42:56Z</time>
      </trkpt>
      <trkpt lat="50.11867" lon="1.78914">
        <ele>3.3</ele>
        <time>2022-04-22T09:42:57Z</time>
      </trkpt>
      <trkpt lat="50.11867" lon="1.78913">
        <ele>3.3</ele>
        <time>2022-04-22T09:42:58Z</time>
      </trkpt>
      <trkpt lat="50.11868" lon="1.78912">
        <ele>3.3</ele>
        <time>2022-04-22T09:42:59Z</time>
      </trkpt>
      <trkpt lat="50.11868" lon="1.78909">
        <ele>3.3</ele>
        <time>2022-04-22T09:43:00Z</time>
      </trkpt>
      <trkpt lat="50.11869" lon="1.78907">
        <ele>3.3</ele>
        <time>2022-04-22T09:43:02Z</time>
      </trkpt>
      <trkpt lat="50.11869" lon="1.78905">
        <ele>3.3</ele>
        <time>2022-04-22T09:43:03Z</time>
      </trkpt>
      <trkpt lat="50.1187" lon="1.78904">
        <ele>3.3</ele>
        <time>2022-04-22T09:43:05Z</time>
      </trkpt>
      <trkpt lat="50.1187" lon="1.78902">
        <ele>3.3</ele>
        <time>2022-04-22T09:43:06Z</time>
      </trkpt>
      <trkpt lat="50.11871" lon="1.78899">
        <ele>3.3</ele>
        <time>2022-04-22T09:43:07Z</time>
      </trkpt>
      <trkpt lat="50.11871" lon="1.78898">
        <ele>3.3</ele>
        <time>2022-04-22T09:43:08Z</time>
      </trkpt>
      <trkpt lat="50.11872" lon="1.78894">
        <ele>3.3</ele>
        <time>2022-04-22T09:43:09Z</time>
      </trkpt>
      <trkpt lat="50.11873" lon="1.78892">
        <ele>3.3</ele>
        <time>2022-04-22T09:43:11Z</time>
      </trkpt>
      <trkpt lat="50.11873" lon="1.78891">
        <ele>3.3</ele>
        <time>2022-04-22T09:43:12Z</time>
      </trkpt>
      <trkpt lat="50.11874" lon="1.78889">
        <ele>3.3</ele>
        <time>2022-04-22T09:43:13Z</time>
      </trkpt>
      <trkpt lat="50.11874" lon="1.78887">
        <ele>3.3</ele>
        <time>2022-04-22T09:43:14Z</time>
      </trkpt>
      <trkpt lat="50.11875" lon="1.78886">
        <ele>3.3</ele>
        <time>2022-04-22T09:43:15Z</time>
      </trkpt>
      <trkpt lat="50.11875" lon="1.78884">
        <ele>3.3</ele>
        <time>2022-04-22T09:43:16Z</time>
      </trkpt>
      <trkpt lat="50.11876" lon="1.78881">
        <ele>3.3</ele>
        <time>2022-04-22T09:43:17Z</time>
      </trkpt>
      <trkpt lat="50.11877" lon="1.7888">
        <ele>3.4</ele>
        <time>2022-04-22T09:43:18Z</time>
      </trkpt>
      <trkpt lat="50.11877" lon="1.78878">
        <ele>3.4</ele>
        <time>2022-04-22T09:43:20Z</time>
      </trkpt>
      <trkpt lat="50.11878" lon="1.78877">
        <ele>3.4</ele>
        <time>2022-04-22T09:43:21Z</time>
      </trkpt>
      <trkpt lat="50.11879" lon="1.78875">
        <ele>3.4</ele>
        <time>2022-04-22T09:43:22Z</time>
      </trkpt>
      <trkpt lat="50.11879" lon="1.78874">
        <ele>3.4</ele>
        <time>2022-04-22T09:43:23Z</time>
      </trkpt>
      <trkpt lat="50.1188" lon="1.78872">
        <ele>3.4</ele>
        <time>2022-04-22T09:43:24Z</time>
      </trkpt>
      <trkpt lat="50.1188" lon="1.7887">
        <ele>3.4</ele>
        <time>2022-04-22T09:43:25Z</time>
      </trkpt>
      <trkpt lat="50.11881" lon="1.78869">
        <ele>3.4</ele>
        <time>2022-04-22T09:43:26Z</time>
      </trkpt>
      <trkpt lat="50.11882" lon="1.78867">
        <ele>3.4</ele>
        <time>2022-04-22T09:43:27Z</time>
      </trkpt>
      <trkpt lat="50.11882" lon="1.78866">
        <ele>3.4</ele>
        <time>2022-04-22T09:43:28Z</time>
      </trkpt>
      <trkpt lat="50.11883" lon="1.78864">
        <ele>3.4</ele>
        <time>2022-04-22T09:43:29Z</time>
      </trkpt>
      <trkpt lat="50.11884" lon="1.78862">
        <ele>3.4</ele>
        <time>2022-04-22T09:43:30Z</time>
      </trkpt>
      <trkpt lat="50.11884" lon="1.7886">
        <ele>3.4</ele>
        <time>2022-04-22T09:43:31Z</time>
      </trkpt>
      <trkpt lat="50.11885" lon="1.78859">
        <ele>3.4</ele>
        <time>2022-04-22T09:43:32Z</time>
      </trkpt>
      <trkpt lat="50.11885" lon="1.78858">
        <ele>3.4</ele>
        <time>2022-04-22T09:43:33Z</time>
      </trkpt>
      <trkpt lat="50.11886" lon="1.78856">
        <ele>3.4</ele>
        <time>2022-04-22T09:43:34Z</time>
      </trkpt>
      <trkpt lat="50.11886" lon="1.78854">
        <ele>3.4</ele>
        <time>2022-04-22T09:43:36Z</time>
      </trkpt>
      <trkpt lat="50.11887" lon="1.78852">
        <ele>3.4</ele>
        <time>2022-04-22T09:43:37Z</time>
      </trkpt>
      <trkpt lat="50.11887" lon="1.7885">
        <ele>3.4</ele>
        <time>2022-04-22T09:43:38Z</time>
      </trkpt>
      <trkpt lat="50.11888" lon="1.78848">
        <ele>3.4</ele>
        <time>2022-04-22T09:43:39Z</time>
      </trkpt>
      <trkpt lat="50.11888" lon="1.78846">
        <ele>3.4</ele>
        <time>2022-04-22T09:43:40Z</time>
      </trkpt>
      <trkpt lat="50.11889" lon="1.78845">
        <ele>3.4</ele>
        <time>2022-04-22T09:43:41Z</time>
      </trkpt>
      <trkpt lat="50.1189" lon="1.78843">
        <ele>3.4</ele>
        <time>2022-04-22T09:43:42Z</time>
      </trkpt>
      <trkpt lat="50.1189" lon="1.78841">
        <ele>3.4</ele>
        <time>2022-04-22T09:43:44Z</time>
      </trkpt>
      <trkpt lat="50.1189" lon="1.7884">
        <ele>3.4</ele>
        <time>2022-04-22T09:43:45Z</time>
      </trkpt>
      <trkpt lat="50.11891" lon="1.78838">
        <ele>3.4</ele>
        <time>2022-04-22T09:43:46Z</time>
      </trkpt>
      <trkpt lat="50.11891" lon="1.78836">
        <ele>3.4</ele>
        <time>2022-04-22T09:43:47Z</time>
      </trkpt>
      <trkpt lat="50.11892" lon="1.78832">
        <ele>3.4</ele>
        <time>2022-04-22T09:43:48Z</time>
      </trkpt>
      <trkpt lat="50.11893" lon="1.78831">
        <ele>3.3</ele>
        <time>2022-04-22T09:43:49Z</time>
      </trkpt>
      <trkpt lat="50.11893" lon="1.7883">
        <ele>3.3</ele>
        <time>2022-04-22T09:43:50Z</time>
      </trkpt>
      <trkpt lat="50.11894" lon="1.78828">
        <ele>3.3</ele>
        <time>2022-04-22T09:43:51Z</time>
      </trkpt>
      <trkpt lat="50.11895" lon="1.78826">
        <ele>3.3</ele>
        <time>2022-04-22T09:43:53Z</time>
      </trkpt>
      <trkpt lat="50.11896" lon="1.78824">
        <ele>3.3</ele>
        <time>2022-04-22T09:43:54Z</time>
      </trkpt>
      <trkpt lat="50.11897" lon="1.78823">
        <ele>3.3</ele>
        <time>2022-04-22T09:43:55Z</time>
      </trkpt>
      <trkpt lat="50.11898" lon="1.78822">
        <ele>3.3</ele>
        <time>2022-04-22T09:43:56Z</time>
      </trkpt>
      <trkpt lat="50.11898" lon="1.7882">
        <ele>3.3</ele>
        <time>2022-04-22T09:43:57Z</time>
      </trkpt>
      <trkpt lat="50.119" lon="1.78818">
        <ele>3.3</ele>
        <time>2022-04-22T09:43:58Z</time>
      </trkpt>
      <trkpt lat="50.11901" lon="1.78816">
        <ele>3.3</ele>
        <time>2022-04-22T09:43:59Z</time>
      </trkpt>
      <trkpt lat="50.11902" lon="1.78815">
        <ele>3.3</ele>
        <time>2022-04-22T09:44:00Z</time>
      </trkpt>
      <trkpt lat="50.11904" lon="1.78812">
        <ele>3.3</ele>
        <time>2022-04-22T09:44:01Z</time>
      </trkpt>
      <trkpt lat="50.11904" lon="1.7881">
        <ele>3.3</ele>
        <time>2022-04-22T09:44:02Z</time>
      </trkpt>
      <trkpt lat="50.11905" lon="1.7881">
        <ele>3.3</ele>
        <time>2022-04-22T09:44:03Z</time>
      </trkpt>
      <trkpt lat="50.11906" lon="1.78808">
        <ele>3.3</ele>
        <time>2022-04-22T09:44:04Z</time>
      </trkpt>
      <trkpt lat="50.11907" lon="1.78807">
        <ele>3.2</ele>
        <time>2022-04-22T09:44:05Z</time>
      </trkpt>
      <trkpt lat="50.11907" lon="1.78805">
        <ele>3.2</ele>
        <time>2022-04-22T09:44:06Z</time>
      </trkpt>
      <trkpt lat="50.11909" lon="1.78803">
        <ele>3.2</ele>
        <time>2022-04-22T09:44:07Z</time>
      </trkpt>
      <trkpt lat="50.11909" lon="1.78802">
        <ele>3.2</ele>
        <time>2022-04-22T09:44:09Z</time>
      </trkpt>
      <trkpt lat="50.1191" lon="1.788">
        <ele>3.2</ele>
        <time>2022-04-22T09:44:10Z</time>
      </trkpt>
      <trkpt lat="50.11911" lon="1.78799">
        <ele>3.2</ele>
        <time>2022-04-22T09:44:11Z</time>
      </trkpt>
      <trkpt lat="50.11911" lon="1.78797">
        <ele>3.2</ele>
        <time>2022-04-22T09:44:12Z</time>
      </trkpt>
      <trkpt lat="50.11912" lon="1.78795">
        <ele>3.2</ele>
        <time>2022-04-22T09:44:13Z</time>
      </trkpt>
      <trkpt lat="50.11913" lon="1.78793">
        <ele>3.2</ele>
        <time>2022-04-22T09:44:14Z</time>
      </trkpt>
      <trkpt lat="50.11913" lon="1.78791">
        <ele>3.2</ele>
        <time>2022-04-22T09:44:15Z</time>
      </trkpt>
      <trkpt lat="50.11914" lon="1.7879">
        <ele>3.2</ele>
        <time>2022-04-22T09:44:16Z</time>
      </trkpt>
      <trkpt lat="50.11915" lon="1.78787">
        <ele>3.2</ele>
        <time>2022-04-22T09:44:17Z</time>
      </trkpt>
      <trkpt lat="50.11916" lon="1.78786">
        <ele>3.2</ele>
        <time>2022-04-22T09:44:18Z</time>
      </trkpt>
      <trkpt lat="50.11916" lon="1.78784">
        <ele>3.2</ele>
        <time>2022-04-22T09:44:19Z</time>
      </trkpt>
      <trkpt lat="50.11917" lon="1.78783">
        <ele>3.2</ele>
        <time>2022-04-22T09:44:20Z</time>
      </trkpt>
      <trkpt lat="50.11918" lon="1.78782">
        <ele>3.2</ele>
        <time>2022-04-22T09:44:21Z</time>
      </trkpt>
      <trkpt lat="50.11919" lon="1.78779">
        <ele>3.2</ele>
        <time>2022-04-22T09:44:22Z</time>
      </trkpt>
      <trkpt lat="50.1192" lon="1.78778">
        <ele>3.2</ele>
        <time>2022-04-22T09:44:23Z</time>
      </trkpt>
      <trkpt lat="50.11922" lon="1.78776">
        <ele>3.2</ele>
        <time>2022-04-22T09:44:24Z</time>
      </trkpt>
      <trkpt lat="50.11922" lon="1.78775">
        <ele>3.2</ele>
        <time>2022-04-22T09:44:26Z</time>
      </trkpt>
      <trkpt lat="50.11923" lon="1.78774">
        <ele>3.2</ele>
        <time>2022-04-22T09:44:27Z</time>
      </trkpt>
      <trkpt lat="50.11924" lon="1.78771">
        <ele>3.2</ele>
        <time>2022-04-22T09:44:28Z</time>
      </trkpt>
      <trkpt lat="50.11925" lon="1.7877">
        <ele>3.2</ele>
        <time>2022-04-22T09:44:29Z</time>
      </trkpt>
      <trkpt lat="50.11926" lon="1.78767">
        <ele>3.2</ele>
        <time>2022-04-22T09:44:30Z</time>
      </trkpt>
      <trkpt lat="50.11927" lon="1.78765">
        <ele>3.2</ele>
        <time>2022-04-22T09:44:31Z</time>
      </trkpt>
      <trkpt lat="50.11928" lon="1.78764">
        <ele>3.2</ele>
        <time>2022-04-22T09:44:32Z</time>
      </trkpt>
      <trkpt lat="50.11928" lon="1.78762">
        <ele>3.2</ele>
        <time>2022-04-22T09:44:33Z</time>
      </trkpt>
      <trkpt lat="50.11929" lon="1.78761">
        <ele>3.2</ele>
        <time>2022-04-22T09:44:35Z</time>
      </trkpt>
      <trkpt lat="50.11929" lon="1.78759">
        <ele>3.2</ele>
        <time>2022-04-22T09:44:36Z</time>
      </trkpt>
      <trkpt lat="50.1193" lon="1.78758">
        <ele>3.2</ele>
        <time>2022-04-22T09:44:37Z</time>
      </trkpt>
      <trkpt lat="50.1193" lon="1.78755">
        <ele>3.2</ele>
        <time>2022-04-22T09:44:38Z</time>
      </trkpt>
      <trkpt lat="50.11931" lon="1.78753">
        <ele>3.2</ele>
        <time>2022-04-22T09:44:39Z</time>
      </trkpt>
      <trkpt lat="50.11932" lon="1.78751">
        <ele>3.2</ele>
        <time>2022-04-22T09:44:40Z</time>
      </trkpt>
      <trkpt lat="50.11932" lon="1.7875">
        <ele>3.2</ele>
        <time>2022-04-22T09:44:41Z</time>
      </trkpt>
      <trkpt lat="50.11933" lon="1.78747">
        <ele>3.2</ele>
        <time>2022-04-22T09:44:43Z</time>
      </trkpt>
      <trkpt lat="50.11934" lon="1.78746">
        <ele>3.2</ele>
        <time>2022-04-22T09:44:44Z</time>
      </trkpt>
      <trkpt lat="50.11934" lon="1.78745">
        <ele>3.2</ele>
        <time>2022-04-22T09:44:45Z</time>
      </trkpt>
      <trkpt lat="50.11935" lon="1.78741">
        <ele>3.2</ele>
        <time>2022-04-22T09:44:46Z</time>
      </trkpt>
      <trkpt lat="50.11936" lon="1.7874">
        <ele>3.2</ele>
        <time>2022-04-22T09:44:47Z</time>
      </trkpt>
      <trkpt lat="50.11936" lon="1.78739">
        <ele>3.2</ele>
        <time>2022-04-22T09:44:48Z</time>
      </trkpt>
      <trkpt lat="50.11937" lon="1.78738">
        <ele>3.2</ele>
        <time>2022-04-22T09:44:49Z</time>
      </trkpt>
      <trkpt lat="50.11937" lon="1.78736">
        <ele>3.2</ele>
        <time>2022-04-22T09:44:51Z</time>
      </trkpt>
      <trkpt lat="50.11938" lon="1.78733">
        <ele>3.2</ele>
        <time>2022-04-22T09:44:53Z</time>
      </trkpt>
      <trkpt lat="50.11938" lon="1.78732">
        <ele>3.2</ele>
        <time>2022-04-22T09:44:54Z</time>
      </trkpt>
      <trkpt lat="50.11939" lon="1.78731">
        <ele>3.2</ele>
        <time>2022-04-22T09:44:55Z</time>
      </trkpt>
      <trkpt lat="50.11939" lon="1.78729">
        <ele>3.2</ele>
        <time>2022-04-22T09:44:56Z</time>
      </trkpt>
      <trkpt lat="50.1194" lon="1.78727">
        <ele>3.2</ele>
        <time>2022-04-22T09:44:57Z</time>
      </trkpt>
      <trkpt lat="50.11941" lon="1.78724">
        <ele>3.3</ele>
        <time>2022-04-22T09:44:58Z</time>
      </trkpt>
      <trkpt lat="50.11941" lon="1.78723">
        <ele>3.3</ele>
        <time>2022-04-22T09:44:59Z</time>
      </trkpt>
      <trkpt lat="50.11941" lon="1.78722">
        <ele>3.3</ele>
        <time>2022-04-22T09:45:00Z</time>
      </trkpt>
      <trkpt lat="50.11942" lon="1.78719">
        <ele>3.3</ele>
        <time>2022-04-22T09:45:02Z</time>
      </trkpt>
      <trkpt lat="50.11943" lon="1.78717">
        <ele>3.3</ele>
        <time>2022-04-22T09:45:03Z</time>
      </trkpt>
      <trkpt lat="50.11943" lon="1.78716">
        <ele>3.3</ele>
        <time>2022-04-22T09:45:04Z</time>
      </trkpt>
      <trkpt lat="50.11944" lon="1.78715">
        <ele>3.3</ele>
        <time>2022-04-22T09:45:05Z</time>
      </trkpt>
      <trkpt lat="50.11945" lon="1.78713">
        <ele>3.3</ele>
        <time>2022-04-22T09:45:06Z</time>
      </trkpt>
      <trkpt lat="50.11945" lon="1.78711">
        <ele>3.3</ele>
        <time>2022-04-22T09:45:07Z</time>
      </trkpt>
      <trkpt lat="50.11946" lon="1.78709">
        <ele>3.3</ele>
        <time>2022-04-22T09:45:08Z</time>
      </trkpt>
      <trkpt lat="50.11947" lon="1.78706">
        <ele>3.3</ele>
        <time>2022-04-22T09:45:09Z</time>
      </trkpt>
      <trkpt lat="50.11947" lon="1.78705">
        <ele>3.3</ele>
        <time>2022-04-22T09:45:10Z</time>
      </trkpt>
      <trkpt lat="50.11948" lon="1.78704">
        <ele>3.3</ele>
        <time>2022-04-22T09:45:11Z</time>
      </trkpt>
      <trkpt lat="50.11949" lon="1.78702">
        <ele>3.3</ele>
        <time>2022-04-22T09:45:12Z</time>
      </trkpt>
      <trkpt lat="50.1195" lon="1.78699">
        <ele>3.3</ele>
        <time>2022-04-22T09:45:14Z</time>
      </trkpt>
      <trkpt lat="50.11951" lon="1.78697">
        <ele>3.3</ele>
        <time>2022-04-22T09:45:15Z</time>
      </trkpt>
      <trkpt lat="50.11952" lon="1.78695">
        <ele>3.3</ele>
        <time>2022-04-22T09:45:16Z</time>
      </trkpt>
      <trkpt lat="50.11953" lon="1.78691">
        <ele>3.3</ele>
        <time>2022-04-22T09:45:18Z</time>
      </trkpt>
      <trkpt lat="50.11954" lon="1.7869">
        <ele>3.3</ele>
        <time>2022-04-22T09:45:19Z</time>
      </trkpt>
      <trkpt lat="50.11955" lon="1.78688">
        <ele>3.3</ele>
        <time>2022-04-22T09:45:20Z</time>
      </trkpt>
      <trkpt lat="50.11956" lon="1.78687">
        <ele>3.3</ele>
        <time>2022-04-22T09:45:21Z</time>
      </trkpt>
      <trkpt lat="50.11957" lon="1.78685">
        <ele>3.3</ele>
        <time>2022-04-22T09:45:22Z</time>
      </trkpt>
      <trkpt lat="50.1196" lon="1.78684">
        <ele>3.4</ele>
        <time>2022-04-22T09:45:24Z</time>
      </trkpt>
      <trkpt lat="50.11961" lon="1.78682">
        <ele>3.4</ele>
        <time>2022-04-22T09:45:25Z</time>
      </trkpt>
      <trkpt lat="50.11962" lon="1.78681">
        <ele>3.4</ele>
        <time>2022-04-22T09:45:26Z</time>
      </trkpt>
      <trkpt lat="50.11963" lon="1.78679">
        <ele>3.4</ele>
        <time>2022-04-22T09:45:27Z</time>
      </trkpt>
      <trkpt lat="50.11964" lon="1.78677">
        <ele>3.4</ele>
        <time>2022-04-22T09:45:29Z</time>
      </trkpt>
      <trkpt lat="50.11965" lon="1.78674">
        <ele>3.4</ele>
        <time>2022-04-22T09:45:30Z</time>
      </trkpt>
      <trkpt lat="50.11966" lon="1.78672">
        <ele>3.4</ele>
        <time>2022-04-22T09:45:31Z</time>
      </trkpt>
      <trkpt lat="50.11967" lon="1.78671">
        <ele>3.4</ele>
        <time>2022-04-22T09:45:32Z</time>
      </trkpt>
      <trkpt lat="50.11968" lon="1.78669">
        <ele>3.4</ele>
        <time>2022-04-22T09:45:33Z</time>
      </trkpt>
      <trkpt lat="50.1197" lon="1.78666">
        <ele>3.4</ele>
        <time>2022-04-22T09:45:34Z</time>
      </trkpt>
      <trkpt lat="50.1197" lon="1.78665">
        <ele>3.4</ele>
        <time>2022-04-22T09:45:35Z</time>
      </trkpt>
      <trkpt lat="50.11971" lon="1.78663">
        <ele>3.4</ele>
        <time>2022-04-22T09:45:37Z</time>
      </trkpt>
      <trkpt lat="50.11972" lon="1.78662">
        <ele>3.3</ele>
        <time>2022-04-22T09:45:38Z</time>
      </trkpt>
      <trkpt lat="50.11974" lon="1.78659">
        <ele>3.3</ele>
        <time>2022-04-22T09:45:39Z</time>
      </trkpt>
      <trkpt lat="50.11975" lon="1.78658">
        <ele>3.3</ele>
        <time>2022-04-22T09:45:40Z</time>
      </trkpt>
      <trkpt lat="50.11976" lon="1.78657">
        <ele>3.3</ele>
        <time>2022-04-22T09:45:41Z</time>
      </trkpt>
      <trkpt lat="50.11976" lon="1.78655">
        <ele>3.3</ele>
        <time>2022-04-22T09:45:42Z</time>
      </trkpt>
      <trkpt lat="50.11977" lon="1.78654">
        <ele>3.3</ele>
        <time>2022-04-22T09:45:43Z</time>
      </trkpt>
      <trkpt lat="50.11978" lon="1.78652">
        <ele>3.3</ele>
        <time>2022-04-22T09:45:44Z</time>
      </trkpt>
      <trkpt lat="50.11978" lon="1.7865">
        <ele>3.3</ele>
        <time>2022-04-22T09:45:45Z</time>
      </trkpt>
      <trkpt lat="50.11979" lon="1.78649">
        <ele>3.3</ele>
        <time>2022-04-22T09:45:46Z</time>
      </trkpt>
      <trkpt lat="50.11979" lon="1.78647">
        <ele>3.3</ele>
        <time>2022-04-22T09:45:47Z</time>
      </trkpt>
      <trkpt lat="50.1198" lon="1.78646">
        <ele>3.3</ele>
        <time>2022-04-22T09:45:48Z</time>
      </trkpt>
      <trkpt lat="50.1198" lon="1.78643">
        <ele>3.3</ele>
        <time>2022-04-22T09:45:50Z</time>
      </trkpt>
      <trkpt lat="50.11981" lon="1.78642">
        <ele>3.3</ele>
        <time>2022-04-22T09:45:51Z</time>
      </trkpt>
      <trkpt lat="50.11981" lon="1.78641">
        <ele>3.3</ele>
        <time>2022-04-22T09:45:52Z</time>
      </trkpt>
      <trkpt lat="50.11981" lon="1.78639">
        <ele>3.3</ele>
        <time>2022-04-22T09:45:53Z</time>
      </trkpt>
      <trkpt lat="50.11983" lon="1.78636">
        <ele>3.3</ele>
        <time>2022-04-22T09:45:54Z</time>
      </trkpt>
      <trkpt lat="50.11983" lon="1.78635">
        <ele>3.3</ele>
        <time>2022-04-22T09:45:55Z</time>
      </trkpt>
      <trkpt lat="50.11983" lon="1.78633">
        <ele>3.3</ele>
        <time>2022-04-22T09:45:56Z</time>
      </trkpt>
      <trkpt lat="50.11984" lon="1.78631">
        <ele>3.3</ele>
        <time>2022-04-22T09:45:57Z</time>
      </trkpt>
      <trkpt lat="50.11984" lon="1.7863">
        <ele>3.3</ele>
        <time>2022-04-22T09:45:58Z</time>
      </trkpt>
      <trkpt lat="50.11984" lon="1.78627">
        <ele>3.3</ele>
        <time>2022-04-22T09:45:59Z</time>
      </trkpt>
      <trkpt lat="50.11985" lon="1.78625">
        <ele>3.3</ele>
        <time>2022-04-22T09:46:01Z</time>
      </trkpt>
      <trkpt lat="50.11985" lon="1.78624">
        <ele>3.3</ele>
        <time>2022-04-22T09:46:02Z</time>
      </trkpt>
      <trkpt lat="50.11985" lon="1.78622">
        <ele>3.3</ele>
        <time>2022-04-22T09:46:03Z</time>
      </trkpt>
      <trkpt lat="50.11986" lon="1.78619">
        <ele>3.3</ele>
        <time>2022-04-22T09:46:04Z</time>
      </trkpt>
      <trkpt lat="50.11986" lon="1.78617">
        <ele>3.3</ele>
        <time>2022-04-22T09:46:05Z</time>
      </trkpt>
      <trkpt lat="50.11987" lon="1.78614">
        <ele>3.3</ele>
        <time>2022-04-22T09:46:06Z</time>
      </trkpt>
      <trkpt lat="50.11988" lon="1.78613">
        <ele>3.3</ele>
        <time>2022-04-22T09:46:08Z</time>
      </trkpt>
      <trkpt lat="50.11988" lon="1.78612">
        <ele>3.3</ele>
        <time>2022-04-22T09:46:09Z</time>
      </trkpt>
      <trkpt lat="50.11989" lon="1.78609">
        <ele>3.3</ele>
        <time>2022-04-22T09:46:10Z</time>
      </trkpt>
      <trkpt lat="50.1199" lon="1.78608">
        <ele>3.3</ele>
        <time>2022-04-22T09:46:11Z</time>
      </trkpt>
      <trkpt lat="50.11991" lon="1.78606">
        <ele>3.3</ele>
        <time>2022-04-22T09:46:12Z</time>
      </trkpt>
      <trkpt lat="50.11992" lon="1.78604">
        <ele>3.3</ele>
        <time>2022-04-22T09:46:13Z</time>
      </trkpt>
      <trkpt lat="50.11993" lon="1.78601">
        <ele>3.3</ele>
        <time>2022-04-22T09:46:15Z</time>
      </trkpt>
      <trkpt lat="50.11993" lon="1.786">
        <ele>3.3</ele>
        <time>2022-04-22T09:46:16Z</time>
      </trkpt>
      <trkpt lat="50.11994" lon="1.78597">
        <ele>3.3</ele>
        <time>2022-04-22T09:46:17Z</time>
      </trkpt>
      <trkpt lat="50.11994" lon="1.78596">
        <ele>3.3</ele>
        <time>2022-04-22T09:46:18Z</time>
      </trkpt>
      <trkpt lat="50.11995" lon="1.78594">
        <ele>3.3</ele>
        <time>2022-04-22T09:46:19Z</time>
      </trkpt>
      <trkpt lat="50.11995" lon="1.78592">
        <ele>3.3</ele>
        <time>2022-04-22T09:46:20Z</time>
      </trkpt>
      <trkpt lat="50.11996" lon="1.7859">
        <ele>3.3</ele>
        <time>2022-04-22T09:46:21Z</time>
      </trkpt>
      <trkpt lat="50.11996" lon="1.78587">
        <ele>3.3</ele>
        <time>2022-04-22T09:46:23Z</time>
      </trkpt>
      <trkpt lat="50.11997" lon="1.78586">
        <ele>3.3</ele>
        <time>2022-04-22T09:46:24Z</time>
      </trkpt>
      <trkpt lat="50.11997" lon="1.78585">
        <ele>3.3</ele>
        <time>2022-04-22T09:46:25Z</time>
      </trkpt>
      <trkpt lat="50.11998" lon="1.78582">
        <ele>3.4</ele>
        <time>2022-04-22T09:46:26Z</time>
      </trkpt>
      <trkpt lat="50.11998" lon="1.78581">
        <ele>3.4</ele>
        <time>2022-04-22T09:46:27Z</time>
      </trkpt>
      <trkpt lat="50.12" lon="1.78578">
        <ele>3.4</ele>
        <time>2022-04-22T09:46:28Z</time>
      </trkpt>
      <trkpt lat="50.12" lon="1.78577">
        <ele>3.4</ele>
        <time>2022-04-22T09:46:29Z</time>
      </trkpt>
      <trkpt lat="50.12001" lon="1.78575">
        <ele>3.4</ele>
        <time>2022-04-22T09:46:30Z</time>
      </trkpt>
      <trkpt lat="50.12002" lon="1.78574">
        <ele>3.4</ele>
        <time>2022-04-22T09:46:31Z</time>
      </trkpt>
      <trkpt lat="50.12002" lon="1.78572">
        <ele>3.4</ele>
        <time>2022-04-22T09:46:33Z</time>
      </trkpt>
      <trkpt lat="50.12003" lon="1.78571">
        <ele>3.4</ele>
        <time>2022-04-22T09:46:34Z</time>
      </trkpt>
      <trkpt lat="50.12004" lon="1.78569">
        <ele>3.4</ele>
        <time>2022-04-22T09:46:35Z</time>
      </trkpt>
      <trkpt lat="50.12005" lon="1.78567">
        <ele>3.4</ele>
        <time>2022-04-22T09:46:36Z</time>
      </trkpt>
      <trkpt lat="50.12005" lon="1.78566">
        <ele>3.4</ele>
        <time>2022-04-22T09:46:37Z</time>
      </trkpt>
      <trkpt lat="50.12007" lon="1.78563">
        <ele>3.4</ele>
        <time>2022-04-22T09:46:38Z</time>
      </trkpt>
      <trkpt lat="50.12008" lon="1.78562">
        <ele>3.4</ele>
        <time>2022-04-22T09:46:39Z</time>
      </trkpt>
      <trkpt lat="50.12009" lon="1.7856">
        <ele>3.4</ele>
        <time>2022-04-22T09:46:40Z</time>
      </trkpt>
      <trkpt lat="50.1201" lon="1.78558">
        <ele>3.4</ele>
        <time>2022-04-22T09:46:41Z</time>
      </trkpt>
      <trkpt lat="50.12011" lon="1.78557">
        <ele>3.4</ele>
        <time>2022-04-22T09:46:42Z</time>
      </trkpt>
      <trkpt lat="50.12011" lon="1.78557">
        <ele>3.4</ele>
        <time>2022-04-22T09:46:43Z</time>
      </trkpt>
      <trkpt lat="50.12012" lon="1.78555">
        <ele>3.5</ele>
        <time>2022-04-22T09:46:45Z</time>
      </trkpt>
      <trkpt lat="50.12014" lon="1.78553">
        <ele>3.5</ele>
        <time>2022-04-22T09:46:46Z</time>
      </trkpt>
      <trkpt lat="50.12014" lon="1.78552">
        <ele>3.5</ele>
        <time>2022-04-22T09:46:47Z</time>
      </trkpt>
      <trkpt lat="50.12015" lon="1.78551">
        <ele>3.5</ele>
        <time>2022-04-22T09:46:48Z</time>
      </trkpt>
      <trkpt lat="50.12016" lon="1.78549">
        <ele>3.5</ele>
        <time>2022-04-22T09:46:49Z</time>
      </trkpt>
      <trkpt lat="50.12018" lon="1.78546">
        <ele>3.5</ele>
        <time>2022-04-22T09:46:50Z</time>
      </trkpt>
      <trkpt lat="50.12019" lon="1.78544">
        <ele>3.5</ele>
        <time>2022-04-22T09:46:52Z</time>
      </trkpt>
      <trkpt lat="50.1202" lon="1.78543">
        <ele>3.5</ele>
        <time>2022-04-22T09:46:53Z</time>
      </trkpt>
      <trkpt lat="50.1202" lon="1.78542">
        <ele>3.5</ele>
        <time>2022-04-22T09:46:54Z</time>
      </trkpt>
      <trkpt lat="50.12021" lon="1.7854">
        <ele>3.5</ele>
        <time>2022-04-22T09:46:55Z</time>
      </trkpt>
      <trkpt lat="50.12022" lon="1.78538">
        <ele>3.5</ele>
        <time>2022-04-22T09:46:56Z</time>
      </trkpt>
      <trkpt lat="50.12023" lon="1.78537">
        <ele>3.5</ele>
        <time>2022-04-22T09:46:57Z</time>
      </trkpt>
      <trkpt lat="50.12023" lon="1.78536">
        <ele>3.5</ele>
        <time>2022-04-22T09:46:58Z</time>
      </trkpt>
      <trkpt lat="50.12024" lon="1.78534">
        <ele>3.5</ele>
        <time>2022-04-22T09:46:59Z</time>
      </trkpt>
      <trkpt lat="50.12025" lon="1.78531">
        <ele>3.5</ele>
        <time>2022-04-22T09:47:00Z</time>
      </trkpt>
      <trkpt lat="50.12025" lon="1.7853">
        <ele>3.5</ele>
        <time>2022-04-22T09:47:01Z</time>
      </trkpt>
      <trkpt lat="50.12026" lon="1.78529">
        <ele>3.5</ele>
        <time>2022-04-22T09:47:02Z</time>
      </trkpt>
      <trkpt lat="50.12026" lon="1.78527">
        <ele>3.5</ele>
        <time>2022-04-22T09:47:03Z</time>
      </trkpt>
      <trkpt lat="50.12027" lon="1.78525">
        <ele>3.5</ele>
        <time>2022-04-22T09:47:05Z</time>
      </trkpt>
      <trkpt lat="50.12028" lon="1.78523">
        <ele>3.5</ele>
        <time>2022-04-22T09:47:06Z</time>
      </trkpt>
      <trkpt lat="50.12028" lon="1.78522">
        <ele>3.5</ele>
        <time>2022-04-22T09:47:07Z</time>
      </trkpt>
      <trkpt lat="50.12029" lon="1.7852">
        <ele>3.5</ele>
        <time>2022-04-22T09:47:08Z</time>
      </trkpt>
      <trkpt lat="50.1203" lon="1.78517">
        <ele>3.5</ele>
        <time>2022-04-22T09:47:09Z</time>
      </trkpt>
      <trkpt lat="50.1203" lon="1.78515">
        <ele>3.6</ele>
        <time>2022-04-22T09:47:10Z</time>
      </trkpt>
      <trkpt lat="50.1203" lon="1.78514">
        <ele>3.6</ele>
        <time>2022-04-22T09:47:11Z</time>
      </trkpt>
      <trkpt lat="50.12031" lon="1.78511">
        <ele>3.6</ele>
        <time>2022-04-22T09:47:13Z</time>
      </trkpt>
      <trkpt lat="50.12032" lon="1.7851">
        <ele>3.6</ele>
        <time>2022-04-22T09:47:14Z</time>
      </trkpt>
      <trkpt lat="50.12032" lon="1.78509">
        <ele>3.6</ele>
        <time>2022-04-22T09:47:15Z</time>
      </trkpt>
      <trkpt lat="50.12033" lon="1.78506">
        <ele>3.6</ele>
        <time>2022-04-22T09:47:16Z</time>
      </trkpt>
      <trkpt lat="50.12034" lon="1.78504">
        <ele>3.6</ele>
        <time>2022-04-22T09:47:17Z</time>
      </trkpt>
      <trkpt lat="50.12034" lon="1.78502">
        <ele>3.6</ele>
        <time>2022-04-22T09:47:18Z</time>
      </trkpt>
      <trkpt lat="50.12035" lon="1.785">
        <ele>3.6</ele>
        <time>2022-04-22T09:47:20Z</time>
      </trkpt>
      <trkpt lat="50.12036" lon="1.78497">
        <ele>3.6</ele>
        <time>2022-04-22T09:47:21Z</time>
      </trkpt>
      <trkpt lat="50.12037" lon="1.78496">
        <ele>3.5</ele>
        <time>2022-04-22T09:47:22Z</time>
      </trkpt>
      <trkpt lat="50.12037" lon="1.78495">
        <ele>3.5</ele>
        <time>2022-04-22T09:47:23Z</time>
      </trkpt>
      <trkpt lat="50.12038" lon="1.78493">
        <ele>3.5</ele>
        <time>2022-04-22T09:47:24Z</time>
      </trkpt>
      <trkpt lat="50.12039" lon="1.78491">
        <ele>3.5</ele>
        <time>2022-04-22T09:47:25Z</time>
      </trkpt>
      <trkpt lat="50.1204" lon="1.78489">
        <ele>3.5</ele>
        <time>2022-04-22T09:47:26Z</time>
      </trkpt>
      <trkpt lat="50.12041" lon="1.78488">
        <ele>3.5</ele>
        <time>2022-04-22T09:47:27Z</time>
      </trkpt>
      <trkpt lat="50.12042" lon="1.78486">
        <ele>3.5</ele>
        <time>2022-04-22T09:47:28Z</time>
      </trkpt>
      <trkpt lat="50.12042" lon="1.78485">
        <ele>3.5</ele>
        <time>2022-04-22T09:47:29Z</time>
      </trkpt>
      <trkpt lat="50.12044" lon="1.78482">
        <ele>3.5</ele>
        <time>2022-04-22T09:47:30Z</time>
      </trkpt>
      <trkpt lat="50.12044" lon="1.78481">
        <ele>3.5</ele>
        <time>2022-04-22T09:47:31Z</time>
      </trkpt>
      <trkpt lat="50.12045" lon="1.7848">
        <ele>3.5</ele>
        <time>2022-04-22T09:47:33Z</time>
      </trkpt>
      <trkpt lat="50.12046" lon="1.78478">
        <ele>3.5</ele>
        <time>2022-04-22T09:47:34Z</time>
      </trkpt>
      <trkpt lat="50.12046" lon="1.78477">
        <ele>3.5</ele>
        <time>2022-04-22T09:47:35Z</time>
      </trkpt>
      <trkpt lat="50.12047" lon="1.78474">
        <ele>3.5</ele>
        <time>2022-04-22T09:47:36Z</time>
      </trkpt>
      <trkpt lat="50.12048" lon="1.78473">
        <ele>3.5</ele>
        <time>2022-04-22T09:47:37Z</time>
      </trkpt>
      <trkpt lat="50.12048" lon="1.78472">
        <ele>3.5</ele>
        <time>2022-04-22T09:47:38Z</time>
      </trkpt>
      <trkpt lat="50.12048" lon="1.78471">
        <ele>3.5</ele>
        <time>2022-04-22T09:47:39Z</time>
      </trkpt>
      <trkpt lat="50.12049" lon="1.78468">
        <ele>3.5</ele>
        <time>2022-04-22T09:47:41Z</time>
      </trkpt>
      <trkpt lat="50.12049" lon="1.78467">
        <ele>3.5</ele>
        <time>2022-04-22T09:47:42Z</time>
      </trkpt>
      <trkpt lat="50.12049" lon="1.78466">
        <ele>3.5</ele>
        <time>2022-04-22T09:47:43Z</time>
      </trkpt>
      <trkpt lat="50.1205" lon="1.78464">
        <ele>3.5</ele>
        <time>2022-04-22T09:47:44Z</time>
      </trkpt>
      <trkpt lat="50.1205" lon="1.78462">
        <ele>3.5</ele>
        <time>2022-04-22T09:47:45Z</time>
      </trkpt>
      <trkpt lat="50.12052" lon="1.78458">
        <ele>3.5</ele>
        <time>2022-04-22T09:47:46Z</time>
      </trkpt>
      <trkpt lat="50.12052" lon="1.78457">
        <ele>3.5</ele>
        <time>2022-04-22T09:47:48Z</time>
      </trkpt>
      <trkpt lat="50.12053" lon="1.78455">
        <ele>3.5</ele>
        <time>2022-04-22T09:47:49Z</time>
      </trkpt>
      <trkpt lat="50.12053" lon="1.78454">
        <ele>3.5</ele>
        <time>2022-04-22T09:47:50Z</time>
      </trkpt>
      <trkpt lat="50.12054" lon="1.78452">
        <ele>3.5</ele>
        <time>2022-04-22T09:47:51Z</time>
      </trkpt>
      <trkpt lat="50.12054" lon="1.78451">
        <ele>3.5</ele>
        <time>2022-04-22T09:47:52Z</time>
      </trkpt>
      <trkpt lat="50.12055" lon="1.7845">
        <ele>3.5</ele>
        <time>2022-04-22T09:47:53Z</time>
      </trkpt>
      <trkpt lat="50.12056" lon="1.78448">
        <ele>3.5</ele>
        <time>2022-04-22T09:47:54Z</time>
      </trkpt>
      <trkpt lat="50.12056" lon="1.78447">
        <ele>3.5</ele>
        <time>2022-04-22T09:47:55Z</time>
      </trkpt>
      <trkpt lat="50.12057" lon="1.78445">
        <ele>3.5</ele>
        <time>2022-04-22T09:47:57Z</time>
      </trkpt>
      <trkpt lat="50.12057" lon="1.78443">
        <ele>3.5</ele>
        <time>2022-04-22T09:47:58Z</time>
      </trkpt>
      <trkpt lat="50.12058" lon="1.78441">
        <ele>3.4</ele>
        <time>2022-04-22T09:47:59Z</time>
      </trkpt>
      <trkpt lat="50.12058" lon="1.78439">
        <ele>3.4</ele>
        <time>2022-04-22T09:48:00Z</time>
      </trkpt>
      <trkpt lat="50.12059" lon="1.78438">
        <ele>3.4</ele>
        <time>2022-04-22T09:48:01Z</time>
      </trkpt>
      <trkpt lat="50.12059" lon="1.78436">
        <ele>3.4</ele>
        <time>2022-04-22T09:48:02Z</time>
      </trkpt>
      <trkpt lat="50.1206" lon="1.78434">
        <ele>3.4</ele>
        <time>2022-04-22T09:48:04Z</time>
      </trkpt>
      <trkpt lat="50.12061" lon="1.78432">
        <ele>3.4</ele>
        <time>2022-04-22T09:48:05Z</time>
      </trkpt>
      <trkpt lat="50.12062" lon="1.78429">
        <ele>3.4</ele>
        <time>2022-04-22T09:48:06Z</time>
      </trkpt>
      <trkpt lat="50.12062" lon="1.78427">
        <ele>3.4</ele>
        <time>2022-04-22T09:48:07Z</time>
      </trkpt>
      <trkpt lat="50.12063" lon="1.78426">
        <ele>3.4</ele>
        <time>2022-04-22T09:48:08Z</time>
      </trkpt>
      <trkpt lat="50.12064" lon="1.78424">
        <ele>3.4</ele>
        <time>2022-04-22T09:48:09Z</time>
      </trkpt>
      <trkpt lat="50.12065" lon="1.78422">
        <ele>3.4</ele>
        <time>2022-04-22T09:48:10Z</time>
      </trkpt>
      <trkpt lat="50.12066" lon="1.78419">
        <ele>3.4</ele>
        <time>2022-04-22T09:48:11Z</time>
      </trkpt>
      <trkpt lat="50.12066" lon="1.78418">
        <ele>3.4</ele>
        <time>2022-04-22T09:48:12Z</time>
      </trkpt>
      <trkpt lat="50.12067" lon="1.78416">
        <ele>3.4</ele>
        <time>2022-04-22T09:48:13Z</time>
      </trkpt>
      <trkpt lat="50.12068" lon="1.78415">
        <ele>3.3</ele>
        <time>2022-04-22T09:48:14Z</time>
      </trkpt>
      <trkpt lat="50.12069" lon="1.78412">
        <ele>3.3</ele>
        <time>2022-04-22T09:48:16Z</time>
      </trkpt>
      <trkpt lat="50.12069" lon="1.78411">
        <ele>3.3</ele>
        <time>2022-04-22T09:48:17Z</time>
      </trkpt>
      <trkpt lat="50.1207" lon="1.7841">
        <ele>3.3</ele>
        <time>2022-04-22T09:48:18Z</time>
      </trkpt>
      <trkpt lat="50.12071" lon="1.78408">
        <ele>3.3</ele>
        <time>2022-04-22T09:48:19Z</time>
      </trkpt>
      <trkpt lat="50.12072" lon="1.78407">
        <ele>3.3</ele>
        <time>2022-04-22T09:48:20Z</time>
      </trkpt>
      <trkpt lat="50.12073" lon="1.78405">
        <ele>3.3</ele>
        <time>2022-04-22T09:48:21Z</time>
      </trkpt>
      <trkpt lat="50.12074" lon="1.78404">
        <ele>3.3</ele>
        <time>2022-04-22T09:48:22Z</time>
      </trkpt>
      <trkpt lat="50.12074" lon="1.78402">
        <ele>3.3</ele>
        <time>2022-04-22T09:48:23Z</time>
      </trkpt>
      <trkpt lat="50.12075" lon="1.78401">
        <ele>3.3</ele>
        <time>2022-04-22T09:48:24Z</time>
      </trkpt>
      <trkpt lat="50.12076" lon="1.78399">
        <ele>3.3</ele>
        <time>2022-04-22T09:48:25Z</time>
      </trkpt>
      <trkpt lat="50.12077" lon="1.78397">
        <ele>3.3</ele>
        <time>2022-04-22T09:48:26Z</time>
      </trkpt>
      <trkpt lat="50.12078" lon="1.78396">
        <ele>3.3</ele>
        <time>2022-04-22T09:48:27Z</time>
      </trkpt>
      <trkpt lat="50.12079" lon="1.78394">
        <ele>3.3</ele>
        <time>2022-04-22T09:48:28Z</time>
      </trkpt>
      <trkpt lat="50.1208" lon="1.78392">
        <ele>3.3</ele>
        <time>2022-04-22T09:48:30Z</time>
      </trkpt>
      <trkpt lat="50.12082" lon="1.7839">
        <ele>3.3</ele>
        <time>2022-04-22T09:48:31Z</time>
      </trkpt>
      <trkpt lat="50.12082" lon="1.78389">
        <ele>3.3</ele>
        <time>2022-04-22T09:48:32Z</time>
      </trkpt>
      <trkpt lat="50.12084" lon="1.78387">
        <ele>3.3</ele>
        <time>2022-04-22T09:48:33Z</time>
      </trkpt>
      <trkpt lat="50.12084" lon="1.78386">
        <ele>3.3</ele>
        <time>2022-04-22T09:48:34Z</time>
      </trkpt>
      <trkpt lat="50.12085" lon="1.78385">
        <ele>3.3</ele>
        <time>2022-04-22T09:48:35Z</time>
      </trkpt>
      <trkpt lat="50.12086" lon="1.78383">
        <ele>3.3</ele>
        <time>2022-04-22T09:48:36Z</time>
      </trkpt>
      <trkpt lat="50.12087" lon="1.78382">
        <ele>3.3</ele>
        <time>2022-04-22T09:48:37Z</time>
      </trkpt>
      <trkpt lat="50.12088" lon="1.7838">
        <ele>3.3</ele>
        <time>2022-04-22T09:48:38Z</time>
      </trkpt>
      <trkpt lat="50.12088" lon="1.78379">
        <ele>3.3</ele>
        <time>2022-04-22T09:48:39Z</time>
      </trkpt>
      <trkpt lat="50.12089" lon="1.78378">
        <ele>3.3</ele>
        <time>2022-04-22T09:48:40Z</time>
      </trkpt>
      <trkpt lat="50.1209" lon="1.78376">
        <ele>3.3</ele>
        <time>2022-04-22T09:48:41Z</time>
      </trkpt>
      <trkpt lat="50.12091" lon="1.78375">
        <ele>3.3</ele>
        <time>2022-04-22T09:48:42Z</time>
      </trkpt>
      <trkpt lat="50.12092" lon="1.78373">
        <ele>3.3</ele>
        <time>2022-04-22T09:48:44Z</time>
      </trkpt>
      <trkpt lat="50.12093" lon="1.78372">
        <ele>3.3</ele>
        <time>2022-04-22T09:48:45Z</time>
      </trkpt>
      <trkpt lat="50.12094" lon="1.7837">
        <ele>3.3</ele>
        <time>2022-04-22T09:48:46Z</time>
      </trkpt>
      <trkpt lat="50.12095" lon="1.78368">
        <ele>3.3</ele>
        <time>2022-04-22T09:48:47Z</time>
      </trkpt>
      <trkpt lat="50.12096" lon="1.78366">
        <ele>3.3</ele>
        <time>2022-04-22T09:48:48Z</time>
      </trkpt>
      <trkpt lat="50.12097" lon="1.78365">
        <ele>3.3</ele>
        <time>2022-04-22T09:48:49Z</time>
      </trkpt>
      <trkpt lat="50.12097" lon="1.78364">
        <ele>3.3</ele>
        <time>2022-04-22T09:48:50Z</time>
      </trkpt>
      <trkpt lat="50.12098" lon="1.78362">
        <ele>3.3</ele>
        <time>2022-04-22T09:48:52Z</time>
      </trkpt>
      <trkpt lat="50.12098" lon="1.78361">
        <ele>3.3</ele>
        <time>2022-04-22T09:48:53Z</time>
      </trkpt>
      <trkpt lat="50.12099" lon="1.78359">
        <ele>3.3</ele>
        <time>2022-04-22T09:48:54Z</time>
      </trkpt>
      <trkpt lat="50.12099" lon="1.78357">
        <ele>3.3</ele>
        <time>2022-04-22T09:48:55Z</time>
      </trkpt>
      <trkpt lat="50.121" lon="1.78355">
        <ele>3.3</ele>
        <time>2022-04-22T09:48:56Z</time>
      </trkpt>
      <trkpt lat="50.121" lon="1.78353">
        <ele>3.3</ele>
        <time>2022-04-22T09:48:58Z</time>
      </trkpt>
      <trkpt lat="50.12101" lon="1.78352">
        <ele>3.3</ele>
        <time>2022-04-22T09:48:59Z</time>
      </trkpt>
      <trkpt lat="50.12101" lon="1.7835">
        <ele>3.3</ele>
        <time>2022-04-22T09:49:00Z</time>
      </trkpt>
      <trkpt lat="50.12102" lon="1.78347">
        <ele>3.3</ele>
        <time>2022-04-22T09:49:01Z</time>
      </trkpt>
      <trkpt lat="50.12102" lon="1.78345">
        <ele>3.3</ele>
        <time>2022-04-22T09:49:02Z</time>
      </trkpt>
      <trkpt lat="50.12103" lon="1.78344">
        <ele>3.3</ele>
        <time>2022-04-22T09:49:03Z</time>
      </trkpt>
      <trkpt lat="50.12103" lon="1.78342">
        <ele>3.3</ele>
        <time>2022-04-22T09:49:05Z</time>
      </trkpt>
      <trkpt lat="50.12104" lon="1.7834">
        <ele>3.3</ele>
        <time>2022-04-22T09:49:06Z</time>
      </trkpt>
      <trkpt lat="50.12105" lon="1.78337">
        <ele>3.4</ele>
        <time>2022-04-22T09:49:07Z</time>
      </trkpt>
      <trkpt lat="50.12105" lon="1.78336">
        <ele>3.4</ele>
        <time>2022-04-22T09:49:08Z</time>
      </trkpt>
      <trkpt lat="50.12106" lon="1.78335">
        <ele>3.4</ele>
        <time>2022-04-22T09:49:09Z</time>
      </trkpt>
      <trkpt lat="50.12106" lon="1.78333">
        <ele>3.4</ele>
        <time>2022-04-22T09:49:10Z</time>
      </trkpt>
      <trkpt lat="50.12107" lon="1.7833">
        <ele>3.4</ele>
        <time>2022-04-22T09:49:12Z</time>
      </trkpt>
      <trkpt lat="50.12107" lon="1.78329">
        <ele>3.4</ele>
        <time>2022-04-22T09:49:13Z</time>
      </trkpt>
      <trkpt lat="50.12107" lon="1.78328">
        <ele>3.4</ele>
        <time>2022-04-22T09:49:14Z</time>
      </trkpt>
      <trkpt lat="50.12107" lon="1.78326">
        <ele>3.4</ele>
        <time>2022-04-22T09:49:15Z</time>
      </trkpt>
      <trkpt lat="50.12108" lon="1.78321">
        <ele>3.4</ele>
        <time>2022-04-22T09:49:16Z</time>
      </trkpt>
      <trkpt lat="50.12109" lon="1.7832">
        <ele>3.4</ele>
        <time>2022-04-22T09:49:18Z</time>
      </trkpt>
      <trkpt lat="50.12109" lon="1.78319">
        <ele>3.4</ele>
        <time>2022-04-22T09:49:19Z</time>
      </trkpt>
      <trkpt lat="50.12109" lon="1.78317">
        <ele>3.4</ele>
        <time>2022-04-22T09:49:20Z</time>
      </trkpt>
      <trkpt lat="50.1211" lon="1.78316">
        <ele>3.4</ele>
        <time>2022-04-22T09:49:21Z</time>
      </trkpt>
      <trkpt lat="50.1211" lon="1.78314">
        <ele>3.4</ele>
        <time>2022-04-22T09:49:22Z</time>
      </trkpt>
      <trkpt lat="50.12111" lon="1.78312">
        <ele>3.4</ele>
        <time>2022-04-22T09:49:23Z</time>
      </trkpt>
      <trkpt lat="50.12111" lon="1.78311">
        <ele>3.4</ele>
        <time>2022-04-22T09:49:24Z</time>
      </trkpt>
      <trkpt lat="50.12112" lon="1.78309">
        <ele>3.4</ele>
        <time>2022-04-22T09:49:25Z</time>
      </trkpt>
      <trkpt lat="50.12113" lon="1.78306">
        <ele>3.4</ele>
        <time>2022-04-22T09:49:26Z</time>
      </trkpt>
      <trkpt lat="50.12114" lon="1.78305">
        <ele>3.4</ele>
        <time>2022-04-22T09:49:27Z</time>
      </trkpt>
      <trkpt lat="50.12115" lon="1.78304">
        <ele>3.4</ele>
        <time>2022-04-22T09:49:28Z</time>
      </trkpt>
      <trkpt lat="50.12115" lon="1.78302">
        <ele>3.4</ele>
        <time>2022-04-22T09:49:29Z</time>
      </trkpt>
      <trkpt lat="50.12116" lon="1.783">
        <ele>3.4</ele>
        <time>2022-04-22T09:49:31Z</time>
      </trkpt>
      <trkpt lat="50.12117" lon="1.78298">
        <ele>3.4</ele>
        <time>2022-04-22T09:49:32Z</time>
      </trkpt>
      <trkpt lat="50.12118" lon="1.78297">
        <ele>3.4</ele>
        <time>2022-04-22T09:49:33Z</time>
      </trkpt>
      <trkpt lat="50.12119" lon="1.78296">
        <ele>3.4</ele>
        <time>2022-04-22T09:49:34Z</time>
      </trkpt>
      <trkpt lat="50.12119" lon="1.78294">
        <ele>3.4</ele>
        <time>2022-04-22T09:49:35Z</time>
      </trkpt>
      <trkpt lat="50.12121" lon="1.7829">
        <ele>3.4</ele>
        <time>2022-04-22T09:49:36Z</time>
      </trkpt>
      <trkpt lat="50.12122" lon="1.78288">
        <ele>3.4</ele>
        <time>2022-04-22T09:49:38Z</time>
      </trkpt>
      <trkpt lat="50.12123" lon="1.78287">
        <ele>3.4</ele>
        <time>2022-04-22T09:49:39Z</time>
      </trkpt>
      <trkpt lat="50.12123" lon="1.78286">
        <ele>3.4</ele>
        <time>2022-04-22T09:49:40Z</time>
      </trkpt>
      <trkpt lat="50.12124" lon="1.78285">
        <ele>3.4</ele>
        <time>2022-04-22T09:49:41Z</time>
      </trkpt>
      <trkpt lat="50.12125" lon="1.78283">
        <ele>3.4</ele>
        <time>2022-04-22T09:49:42Z</time>
      </trkpt>
      <trkpt lat="50.12126" lon="1.78281">
        <ele>3.4</ele>
        <time>2022-04-22T09:49:43Z</time>
      </trkpt>
      <trkpt lat="50.12127" lon="1.78278">
        <ele>3.4</ele>
        <time>2022-04-22T09:49:44Z</time>
      </trkpt>
      <trkpt lat="50.12128" lon="1.78277">
        <ele>3.4</ele>
        <time>2022-04-22T09:49:45Z</time>
      </trkpt>
      <trkpt lat="50.12129" lon="1.78275">
        <ele>3.4</ele>
        <time>2022-04-22T09:49:46Z</time>
      </trkpt>
      <trkpt lat="50.12129" lon="1.78274">
        <ele>3.4</ele>
        <time>2022-04-22T09:49:47Z</time>
      </trkpt>
      <trkpt lat="50.1213" lon="1.78273">
        <ele>3.4</ele>
        <time>2022-04-22T09:49:48Z</time>
      </trkpt>
      <trkpt lat="50.12131" lon="1.78272">
        <ele>3.4</ele>
        <time>2022-04-22T09:49:50Z</time>
      </trkpt>
      <trkpt lat="50.12132" lon="1.78271">
        <ele>3.4</ele>
        <time>2022-04-22T09:49:51Z</time>
      </trkpt>
      <trkpt lat="50.12132" lon="1.78269">
        <ele>3.4</ele>
        <time>2022-04-22T09:49:52Z</time>
      </trkpt>
      <trkpt lat="50.12133" lon="1.78268">
        <ele>3.4</ele>
        <time>2022-04-22T09:49:53Z</time>
      </trkpt>
      <trkpt lat="50.12134" lon="1.78266">
        <ele>3.4</ele>
        <time>2022-04-22T09:49:54Z</time>
      </trkpt>
      <trkpt lat="50.12135" lon="1.78264">
        <ele>3.4</ele>
        <time>2022-04-22T09:49:55Z</time>
      </trkpt>
      <trkpt lat="50.12136" lon="1.78262">
        <ele>3.4</ele>
        <time>2022-04-22T09:49:56Z</time>
      </trkpt>
      <trkpt lat="50.12136" lon="1.78261">
        <ele>3.4</ele>
        <time>2022-04-22T09:49:57Z</time>
      </trkpt>
      <trkpt lat="50.12137" lon="1.78259">
        <ele>3.4</ele>
        <time>2022-04-22T09:49:58Z</time>
      </trkpt>
      <trkpt lat="50.12137" lon="1.78258">
        <ele>3.4</ele>
        <time>2022-04-22T09:49:59Z</time>
      </trkpt>
      <trkpt lat="50.12137" lon="1.78256">
        <ele>3.4</ele>
        <time>2022-04-22T09:50:01Z</time>
      </trkpt>
      <trkpt lat="50.12137" lon="1.78255">
        <ele>3.4</ele>
        <time>2022-04-22T09:50:02Z</time>
      </trkpt>
      <trkpt lat="50.12137" lon="1.78253">
        <ele>3.4</ele>
        <time>2022-04-22T09:50:03Z</time>
      </trkpt>
      <trkpt lat="50.12137" lon="1.78252">
        <ele>3.4</ele>
        <time>2022-04-22T09:50:04Z</time>
      </trkpt>
      <trkpt lat="50.12138" lon="1.78251">
        <ele>3.4</ele>
        <time>2022-04-22T09:50:05Z</time>
      </trkpt>
      <trkpt lat="50.12139" lon="1.78249">
        <ele>3.5</ele>
        <time>2022-04-22T09:50:06Z</time>
      </trkpt>
      <trkpt lat="50.12139" lon="1.78246">
        <ele>3.5</ele>
        <time>2022-04-22T09:50:08Z</time>
      </trkpt>
      <trkpt lat="50.12139" lon="1.78244">
        <ele>3.5</ele>
        <time>2022-04-22T09:50:09Z</time>
      </trkpt>
      <trkpt lat="50.12139" lon="1.78242">
        <ele>3.5</ele>
        <time>2022-04-22T09:50:10Z</time>
      </trkpt>
      <trkpt lat="50.12139" lon="1.78241">
        <ele>3.5</ele>
        <time>2022-04-22T09:50:11Z</time>
      </trkpt>
      <trkpt lat="50.12138" lon="1.7824">
        <ele>3.5</ele>
        <time>2022-04-22T09:50:12Z</time>
      </trkpt>
      <trkpt lat="50.12138" lon="1.7824">
        <ele>3.5</ele>
        <time>2022-04-22T09:50:13Z</time>
      </trkpt>
      <trkpt lat="50.12138" lon="1.78239">
        <ele>3.5</ele>
        <time>2022-04-22T09:50:14Z</time>
      </trkpt>
      <trkpt lat="50.12138" lon="1.7824">
        <ele>3.5</ele>
        <time>2022-04-22T09:50:15Z</time>
      </trkpt>
      <trkpt lat="50.12137" lon="1.7824">
        <ele>3.5</ele>
        <time>2022-04-22T09:50:16Z</time>
      </trkpt>
      <trkpt lat="50.12137" lon="1.7824">
        <ele>3.5</ele>
        <time>2022-04-22T09:50:17Z</time>
      </trkpt>
      <trkpt lat="50.12137" lon="1.78241">
        <ele>3.5</ele>
        <time>2022-04-22T09:50:18Z</time>
      </trkpt>
      <trkpt lat="50.12137" lon="1.78241">
        <ele>3.5</ele>
        <time>2022-04-22T09:50:19Z</time>
      </trkpt>
      <trkpt lat="50.12138" lon="1.78241">
        <ele>3.5</ele>
        <time>2022-04-22T09:50:20Z</time>
      </trkpt>
      <trkpt lat="50.12138" lon="1.78241">
        <ele>3.5</ele>
        <time>2022-04-22T09:50:21Z</time>
      </trkpt>
      <trkpt lat="50.12138" lon="1.78241">
        <ele>3.5</ele>
        <time>2022-04-22T09:50:22Z</time>
      </trkpt>
      <trkpt lat="50.12139" lon="1.7824">
        <ele>3.5</ele>
        <time>2022-04-22T09:50:24Z</time>
      </trkpt>
      <trkpt lat="50.12139" lon="1.7824">
        <ele>3.5</ele>
        <time>2022-04-22T09:50:25Z</time>
      </trkpt>
      <trkpt lat="50.12139" lon="1.7824">
        <ele>3.5</ele>
        <time>2022-04-22T09:50:26Z</time>
      </trkpt>
      <trkpt lat="50.1214" lon="1.78239">
        <ele>3.5</ele>
        <time>2022-04-22T09:50:27Z</time>
      </trkpt>
      <trkpt lat="50.12141" lon="1.78238">
        <ele>3.5</ele>
        <time>2022-04-22T09:50:28Z</time>
      </trkpt>
      <trkpt lat="50.12142" lon="1.78237">
        <ele>3.5</ele>
        <time>2022-04-22T09:50:30Z</time>
      </trkpt>
      <trkpt lat="50.12142" lon="1.78236">
        <ele>3.5</ele>
        <time>2022-04-22T09:50:31Z</time>
      </trkpt>
      <trkpt lat="50.12144" lon="1.78235">
        <ele>3.5</ele>
        <time>2022-04-22T09:50:32Z</time>
      </trkpt>
      <trkpt lat="50.12145" lon="1.78233">
        <ele>3.5</ele>
        <time>2022-04-22T09:50:33Z</time>
      </trkpt>
      <trkpt lat="50.12146" lon="1.78232">
        <ele>3.5</ele>
        <time>2022-04-22T09:50:34Z</time>
      </trkpt>
      <trkpt lat="50.12148" lon="1.78231">
        <ele>3.5</ele>
        <time>2022-04-22T09:50:35Z</time>
      </trkpt>
      <trkpt lat="50.12149" lon="1.78229">
        <ele>3.5</ele>
        <time>2022-04-22T09:50:36Z</time>
      </trkpt>
      <trkpt lat="50.1215" lon="1.78227">
        <ele>3.6</ele>
        <time>2022-04-22T09:50:38Z</time>
      </trkpt>
      <trkpt lat="50.12151" lon="1.78226">
        <ele>3.6</ele>
        <time>2022-04-22T09:50:39Z</time>
      </trkpt>
      <trkpt lat="50.12153" lon="1.78223">
        <ele>3.6</ele>
        <time>2022-04-22T09:50:40Z</time>
      </trkpt>
      <trkpt lat="50.12154" lon="1.78221">
        <ele>3.6</ele>
        <time>2022-04-22T09:50:41Z</time>
      </trkpt>
      <trkpt lat="50.12155" lon="1.78219">
        <ele>3.6</ele>
        <time>2022-04-22T09:50:42Z</time>
      </trkpt>
      <trkpt lat="50.12155" lon="1.78218">
        <ele>3.6</ele>
        <time>2022-04-22T09:50:43Z</time>
      </trkpt>
      <trkpt lat="50.12156" lon="1.78216">
        <ele>3.6</ele>
        <time>2022-04-22T09:50:44Z</time>
      </trkpt>
      <trkpt lat="50.12156" lon="1.78215">
        <ele>3.6</ele>
        <time>2022-04-22T09:50:45Z</time>
      </trkpt>
      <trkpt lat="50.12157" lon="1.78212">
        <ele>3.6</ele>
        <time>2022-04-22T09:50:46Z</time>
      </trkpt>
      <trkpt lat="50.12157" lon="1.7821">
        <ele>3.6</ele>
        <time>2022-04-22T09:50:47Z</time>
      </trkpt>
      <trkpt lat="50.12158" lon="1.78209">
        <ele>3.6</ele>
        <time>2022-04-22T09:50:48Z</time>
      </trkpt>
      <trkpt lat="50.12159" lon="1.78207">
        <ele>3.6</ele>
        <time>2022-04-22T09:50:49Z</time>
      </trkpt>
      <trkpt lat="50.1216" lon="1.78204">
        <ele>3.6</ele>
        <time>2022-04-22T09:50:50Z</time>
      </trkpt>
      <trkpt lat="50.1216" lon="1.78202">
        <ele>3.6</ele>
        <time>2022-04-22T09:50:52Z</time>
      </trkpt>
      <trkpt lat="50.12161" lon="1.78201">
        <ele>3.6</ele>
        <time>2022-04-22T09:50:53Z</time>
      </trkpt>
      <trkpt lat="50.12161" lon="1.782">
        <ele>3.6</ele>
        <time>2022-04-22T09:50:54Z</time>
      </trkpt>
      <trkpt lat="50.12162" lon="1.78198">
        <ele>3.6</ele>
        <time>2022-04-22T09:50:55Z</time>
      </trkpt>
      <trkpt lat="50.12163" lon="1.78197">
        <ele>3.6</ele>
        <time>2022-04-22T09:50:56Z</time>
      </trkpt>
      <trkpt lat="50.12164" lon="1.78195">
        <ele>3.6</ele>
        <time>2022-04-22T09:50:57Z</time>
      </trkpt>
      <trkpt lat="50.12165" lon="1.78193">
        <ele>3.6</ele>
        <time>2022-04-22T09:50:58Z</time>
      </trkpt>
      <trkpt lat="50.12165" lon="1.78192">
        <ele>3.6</ele>
        <time>2022-04-22T09:50:59Z</time>
      </trkpt>
      <trkpt lat="50.12166" lon="1.78189">
        <ele>3.6</ele>
        <time>2022-04-22T09:51:01Z</time>
      </trkpt>
      <trkpt lat="50.12167" lon="1.78188">
        <ele>3.7</ele>
        <time>2022-04-22T09:51:02Z</time>
      </trkpt>
      <trkpt lat="50.12168" lon="1.78186">
        <ele>3.7</ele>
        <time>2022-04-22T09:51:03Z</time>
      </trkpt>
      <trkpt lat="50.12168" lon="1.78184">
        <ele>3.7</ele>
        <time>2022-04-22T09:51:04Z</time>
      </trkpt>
      <trkpt lat="50.12169" lon="1.78181">
        <ele>3.7</ele>
        <time>2022-04-22T09:51:05Z</time>
      </trkpt>
      <trkpt lat="50.1217" lon="1.78179">
        <ele>3.7</ele>
        <time>2022-04-22T09:51:06Z</time>
      </trkpt>
      <trkpt lat="50.12171" lon="1.78177">
        <ele>3.7</ele>
        <time>2022-04-22T09:51:08Z</time>
      </trkpt>
      <trkpt lat="50.12172" lon="1.78175">
        <ele>3.7</ele>
        <time>2022-04-22T09:51:09Z</time>
      </trkpt>
      <trkpt lat="50.12173" lon="1.78173">
        <ele>3.7</ele>
        <time>2022-04-22T09:51:10Z</time>
      </trkpt>
      <trkpt lat="50.12174" lon="1.78172">
        <ele>3.7</ele>
        <time>2022-04-22T09:51:11Z</time>
      </trkpt>
      <trkpt lat="50.12174" lon="1.7817">
        <ele>3.7</ele>
        <time>2022-04-22T09:51:12Z</time>
      </trkpt>
      <trkpt lat="50.12175" lon="1.78167">
        <ele>3.7</ele>
        <time>2022-04-22T09:51:13Z</time>
      </trkpt>
      <trkpt lat="50.12177" lon="1.78164">
        <ele>3.7</ele>
        <time>2022-04-22T09:51:14Z</time>
      </trkpt>
      <trkpt lat="50.12177" lon="1.78163">
        <ele>3.7</ele>
        <time>2022-04-22T09:51:15Z</time>
      </trkpt>
      <trkpt lat="50.12177" lon="1.78161">
        <ele>3.8</ele>
        <time>2022-04-22T09:51:16Z</time>
      </trkpt>
      <trkpt lat="50.12178" lon="1.78158">
        <ele>3.8</ele>
        <time>2022-04-22T09:51:17Z</time>
      </trkpt>
      <trkpt lat="50.12179" lon="1.78157">
        <ele>3.8</ele>
        <time>2022-04-22T09:51:18Z</time>
      </trkpt>
      <trkpt lat="50.12179" lon="1.78156">
        <ele>3.8</ele>
        <time>2022-04-22T09:51:19Z</time>
      </trkpt>
      <trkpt lat="50.1218" lon="1.78154">
        <ele>3.8</ele>
        <time>2022-04-22T09:51:20Z</time>
      </trkpt>
      <trkpt lat="50.12181" lon="1.78152">
        <ele>3.8</ele>
        <time>2022-04-22T09:51:22Z</time>
      </trkpt>
      <trkpt lat="50.12182" lon="1.7815">
        <ele>3.8</ele>
        <time>2022-04-22T09:51:23Z</time>
      </trkpt>
      <trkpt lat="50.12182" lon="1.78148">
        <ele>3.8</ele>
        <time>2022-04-22T09:51:24Z</time>
      </trkpt>
      <trkpt lat="50.12183" lon="1.78147">
        <ele>3.8</ele>
        <time>2022-04-22T09:51:25Z</time>
      </trkpt>
      <trkpt lat="50.12184" lon="1.78145">
        <ele>3.9</ele>
        <time>2022-04-22T09:51:26Z</time>
      </trkpt>
      <trkpt lat="50.12185" lon="1.78142">
        <ele>3.9</ele>
        <time>2022-04-22T09:51:27Z</time>
      </trkpt>
      <trkpt lat="50.12185" lon="1.78141">
        <ele>3.9</ele>
        <time>2022-04-22T09:51:28Z</time>
      </trkpt>
      <trkpt lat="50.12186" lon="1.7814">
        <ele>3.9</ele>
        <time>2022-04-22T09:51:29Z</time>
      </trkpt>
      <trkpt lat="50.12186" lon="1.78138">
        <ele>3.9</ele>
        <time>2022-04-22T09:51:31Z</time>
      </trkpt>
      <trkpt lat="50.12187" lon="1.78136">
        <ele>3.9</ele>
        <time>2022-04-22T09:51:32Z</time>
      </trkpt>
      <trkpt lat="50.12189" lon="1.78133">
        <ele>3.9</ele>
        <time>2022-04-22T09:51:33Z</time>
      </trkpt>
      <trkpt lat="50.12189" lon="1.78132">
        <ele>3.9</ele>
        <time>2022-04-22T09:51:34Z</time>
      </trkpt>
      <trkpt lat="50.12189" lon="1.78131">
        <ele>3.9</ele>
        <time>2022-04-22T09:51:35Z</time>
      </trkpt>
      <trkpt lat="50.12191" lon="1.78128">
        <ele>4</ele>
        <time>2022-04-22T09:51:36Z</time>
      </trkpt>
      <trkpt lat="50.12191" lon="1.78127">
        <ele>4</ele>
        <time>2022-04-22T09:51:38Z</time>
      </trkpt>
      <trkpt lat="50.12192" lon="1.78126">
        <ele>4</ele>
        <time>2022-04-22T09:51:39Z</time>
      </trkpt>
      <trkpt lat="50.12193" lon="1.78122">
        <ele>4</ele>
        <time>2022-04-22T09:51:40Z</time>
      </trkpt>
      <trkpt lat="50.12193" lon="1.78121">
        <ele>4</ele>
        <time>2022-04-22T09:51:41Z</time>
      </trkpt>
      <trkpt lat="50.12193" lon="1.7812">
        <ele>4</ele>
        <time>2022-04-22T09:51:42Z</time>
      </trkpt>
      <trkpt lat="50.12194" lon="1.78117">
        <ele>4</ele>
        <time>2022-04-22T09:51:44Z</time>
      </trkpt>
      <trkpt lat="50.12194" lon="1.78116">
        <ele>4</ele>
        <time>2022-04-22T09:51:45Z</time>
      </trkpt>
      <trkpt lat="50.12195" lon="1.78115">
        <ele>4</ele>
        <time>2022-04-22T09:51:46Z</time>
      </trkpt>
      <trkpt lat="50.12195" lon="1.78112">
        <ele>4</ele>
        <time>2022-04-22T09:51:47Z</time>
      </trkpt>
      <trkpt lat="50.12196" lon="1.7811">
        <ele>4</ele>
        <time>2022-04-22T09:51:48Z</time>
      </trkpt>
      <trkpt lat="50.12197" lon="1.78109">
        <ele>4.1</ele>
        <time>2022-04-22T09:51:50Z</time>
      </trkpt>
      <trkpt lat="50.12197" lon="1.78107">
        <ele>4.1</ele>
        <time>2022-04-22T09:51:51Z</time>
      </trkpt>
      <trkpt lat="50.12198" lon="1.78106">
        <ele>4.1</ele>
        <time>2022-04-22T09:51:52Z</time>
      </trkpt>
      <trkpt lat="50.12199" lon="1.78104">
        <ele>4.1</ele>
        <time>2022-04-22T09:51:53Z</time>
      </trkpt>
      <trkpt lat="50.12199" lon="1.78102">
        <ele>4.1</ele>
        <time>2022-04-22T09:51:54Z</time>
      </trkpt>
      <trkpt lat="50.122" lon="1.78101">
        <ele>4.1</ele>
        <time>2022-04-22T09:51:55Z</time>
      </trkpt>
      <trkpt lat="50.12201" lon="1.781">
        <ele>4.1</ele>
        <time>2022-04-22T09:51:56Z</time>
      </trkpt>
      <trkpt lat="50.12201" lon="1.78098">
        <ele>4.1</ele>
        <time>2022-04-22T09:51:57Z</time>
      </trkpt>
      <trkpt lat="50.12202" lon="1.78097">
        <ele>4.1</ele>
        <time>2022-04-22T09:51:58Z</time>
      </trkpt>
      <trkpt lat="50.12203" lon="1.78095">
        <ele>4.1</ele>
        <time>2022-04-22T09:51:59Z</time>
      </trkpt>
      <trkpt lat="50.12204" lon="1.78093">
        <ele>4.1</ele>
        <time>2022-04-22T09:52:01Z</time>
      </trkpt>
      <trkpt lat="50.12204" lon="1.78091">
        <ele>4.1</ele>
        <time>2022-04-22T09:52:02Z</time>
      </trkpt>
      <trkpt lat="50.12205" lon="1.78089">
        <ele>4.1</ele>
        <time>2022-04-22T09:52:03Z</time>
      </trkpt>
      <trkpt lat="50.12206" lon="1.78086">
        <ele>4.2</ele>
        <time>2022-04-22T09:52:04Z</time>
      </trkpt>
      <trkpt lat="50.12206" lon="1.78085">
        <ele>4.2</ele>
        <time>2022-04-22T09:52:05Z</time>
      </trkpt>
      <trkpt lat="50.12207" lon="1.78084">
        <ele>4.2</ele>
        <time>2022-04-22T09:52:06Z</time>
      </trkpt>
      <trkpt lat="50.12207" lon="1.78082">
        <ele>4.2</ele>
        <time>2022-04-22T09:52:08Z</time>
      </trkpt>
      <trkpt lat="50.12208" lon="1.7808">
        <ele>4.2</ele>
        <time>2022-04-22T09:52:09Z</time>
      </trkpt>
      <trkpt lat="50.1221" lon="1.78077">
        <ele>4.2</ele>
        <time>2022-04-22T09:52:10Z</time>
      </trkpt>
      <trkpt lat="50.1221" lon="1.78076">
        <ele>4.2</ele>
        <time>2022-04-22T09:52:11Z</time>
      </trkpt>
      <trkpt lat="50.12211" lon="1.78075">
        <ele>4.2</ele>
        <time>2022-04-22T09:52:12Z</time>
      </trkpt>
      <trkpt lat="50.12212" lon="1.78073">
        <ele>4.2</ele>
        <time>2022-04-22T09:52:13Z</time>
      </trkpt>
      <trkpt lat="50.12213" lon="1.7807">
        <ele>4.3</ele>
        <time>2022-04-22T09:52:14Z</time>
      </trkpt>
      <trkpt lat="50.12214" lon="1.78068">
        <ele>4.3</ele>
        <time>2022-04-22T09:52:15Z</time>
      </trkpt>
      <trkpt lat="50.12215" lon="1.78067">
        <ele>4.3</ele>
        <time>2022-04-22T09:52:16Z</time>
      </trkpt>
      <trkpt lat="50.12216" lon="1.78066">
        <ele>4.3</ele>
        <time>2022-04-22T09:52:17Z</time>
      </trkpt>
      <trkpt lat="50.12216" lon="1.78064">
        <ele>4.3</ele>
        <time>2022-04-22T09:52:18Z</time>
      </trkpt>
      <trkpt lat="50.12217" lon="1.78062">
        <ele>4.3</ele>
        <time>2022-04-22T09:52:19Z</time>
      </trkpt>
      <trkpt lat="50.12218" lon="1.7806">
        <ele>4.4</ele>
        <time>2022-04-22T09:52:21Z</time>
      </trkpt>
      <trkpt lat="50.12219" lon="1.78058">
        <ele>4.4</ele>
        <time>2022-04-22T09:52:22Z</time>
      </trkpt>
      <trkpt lat="50.12219" lon="1.78056">
        <ele>4.4</ele>
        <time>2022-04-22T09:52:23Z</time>
      </trkpt>
      <trkpt lat="50.1222" lon="1.78054">
        <ele>4.4</ele>
        <time>2022-04-22T09:52:25Z</time>
      </trkpt>
      <trkpt lat="50.12221" lon="1.78051">
        <ele>4.5</ele>
        <time>2022-04-22T09:52:26Z</time>
      </trkpt>
      <trkpt lat="50.12222" lon="1.78048">
        <ele>4.5</ele>
        <time>2022-04-22T09:52:27Z</time>
      </trkpt>
      <trkpt lat="50.12222" lon="1.78047">
        <ele>4.5</ele>
        <time>2022-04-22T09:52:28Z</time>
      </trkpt>
      <trkpt lat="50.12223" lon="1.78046">
        <ele>4.5</ele>
        <time>2022-04-22T09:52:29Z</time>
      </trkpt>
      <trkpt lat="50.12223" lon="1.78044">
        <ele>4.5</ele>
        <time>2022-04-22T09:52:30Z</time>
      </trkpt>
      <trkpt lat="50.12224" lon="1.78041">
        <ele>4.6</ele>
        <time>2022-04-22T09:52:31Z</time>
      </trkpt>
      <trkpt lat="50.12224" lon="1.7804">
        <ele>4.6</ele>
        <time>2022-04-22T09:52:33Z</time>
      </trkpt>
      <trkpt lat="50.12224" lon="1.78039">
        <ele>4.6</ele>
        <time>2022-04-22T09:52:34Z</time>
      </trkpt>
      <trkpt lat="50.12225" lon="1.78038">
        <ele>4.6</ele>
        <time>2022-04-22T09:52:35Z</time>
      </trkpt>
      <trkpt lat="50.12225" lon="1.78036">
        <ele>4.7</ele>
        <time>2022-04-22T09:52:36Z</time>
      </trkpt>
      <trkpt lat="50.12226" lon="1.78034">
        <ele>4.7</ele>
        <time>2022-04-22T09:52:37Z</time>
      </trkpt>
      <trkpt lat="50.12226" lon="1.78033">
        <ele>4.7</ele>
        <time>2022-04-22T09:52:38Z</time>
      </trkpt>
      <trkpt lat="50.12227" lon="1.78031">
        <ele>4.7</ele>
        <time>2022-04-22T09:52:39Z</time>
      </trkpt>
      <trkpt lat="50.12228" lon="1.78029">
        <ele>4.7</ele>
        <time>2022-04-22T09:52:40Z</time>
      </trkpt>
      <trkpt lat="50.12228" lon="1.78027">
        <ele>4.8</ele>
        <time>2022-04-22T09:52:41Z</time>
      </trkpt>
      <trkpt lat="50.12229" lon="1.78026">
        <ele>4.8</ele>
        <time>2022-04-22T09:52:42Z</time>
      </trkpt>
      <trkpt lat="50.12229" lon="1.78024">
        <ele>4.8</ele>
        <time>2022-04-22T09:52:44Z</time>
      </trkpt>
      <trkpt lat="50.1223" lon="1.78023">
        <ele>4.8</ele>
        <time>2022-04-22T09:52:45Z</time>
      </trkpt>
      <trkpt lat="50.12231" lon="1.78021">
        <ele>4.8</ele>
        <time>2022-04-22T09:52:46Z</time>
      </trkpt>
      <trkpt lat="50.12232" lon="1.78018">
        <ele>4.9</ele>
        <time>2022-04-22T09:52:47Z</time>
      </trkpt>
      <trkpt lat="50.12233" lon="1.78017">
        <ele>4.9</ele>
        <time>2022-04-22T09:52:48Z</time>
      </trkpt>
      <trkpt lat="50.12233" lon="1.78016">
        <ele>4.9</ele>
        <time>2022-04-22T09:52:49Z</time>
      </trkpt>
      <trkpt lat="50.12234" lon="1.78014">
        <ele>4.9</ele>
        <time>2022-04-22T09:52:50Z</time>
      </trkpt>
      <trkpt lat="50.12234" lon="1.78012">
        <ele>4.9</ele>
        <time>2022-04-22T09:52:51Z</time>
      </trkpt>
      <trkpt lat="50.12235" lon="1.7801">
        <ele>4.9</ele>
        <time>2022-04-22T09:52:53Z</time>
      </trkpt>
      <trkpt lat="50.12236" lon="1.7801">
        <ele>5.1</ele>
        <time>2022-04-22T09:52:54Z</time>
      </trkpt>
      <trkpt lat="50.12236" lon="1.7801">
        <ele>5.1</ele>
        <time>2022-04-22T09:52:56Z</time>
      </trkpt>
      <trkpt lat="50.12237" lon="1.7801">
        <ele>5.1</ele>
        <time>2022-04-22T09:52:57Z</time>
      </trkpt>
      <trkpt lat="50.12238" lon="1.7801">
        <ele>5.1</ele>
        <time>2022-04-22T09:52:58Z</time>
      </trkpt>
      <trkpt lat="50.12239" lon="1.7801">
        <ele>5.1</ele>
        <time>2022-04-22T09:52:59Z</time>
      </trkpt>
      <trkpt lat="50.12239" lon="1.78009">
        <ele>5.2</ele>
        <time>2022-04-22T09:53:00Z</time>
      </trkpt>
      <trkpt lat="50.1224" lon="1.78009">
        <ele>5.2</ele>
        <time>2022-04-22T09:53:01Z</time>
      </trkpt>
      <trkpt lat="50.12241" lon="1.7801">
        <ele>5.2</ele>
        <time>2022-04-22T09:53:02Z</time>
      </trkpt>
      <trkpt lat="50.12242" lon="1.7801">
        <ele>5.2</ele>
        <time>2022-04-22T09:53:03Z</time>
      </trkpt>
      <trkpt lat="50.12244" lon="1.78012">
        <ele>5.3</ele>
        <time>2022-04-22T09:53:04Z</time>
      </trkpt>
      <trkpt lat="50.12245" lon="1.78014">
        <ele>5.3</ele>
        <time>2022-04-22T09:53:06Z</time>
      </trkpt>
      <trkpt lat="50.12247" lon="1.78016">
        <ele>5.3</ele>
        <time>2022-04-22T09:53:07Z</time>
      </trkpt>
      <trkpt lat="50.12247" lon="1.78017">
        <ele>5.3</ele>
        <time>2022-04-22T09:53:08Z</time>
      </trkpt>
      <trkpt lat="50.12248" lon="1.78018">
        <ele>5.3</ele>
        <time>2022-04-22T09:53:09Z</time>
      </trkpt>
      <trkpt lat="50.12249" lon="1.7802">
        <ele>5.3</ele>
        <time>2022-04-22T09:53:11Z</time>
      </trkpt>
      <trkpt lat="50.1225" lon="1.78021">
        <ele>5.4</ele>
        <time>2022-04-22T09:53:12Z</time>
      </trkpt>
      <trkpt lat="50.12251" lon="1.78023">
        <ele>5.4</ele>
        <time>2022-04-22T09:53:13Z</time>
      </trkpt>
      <trkpt lat="50.12252" lon="1.78024">
        <ele>5.4</ele>
        <time>2022-04-22T09:53:14Z</time>
      </trkpt>
      <trkpt lat="50.12253" lon="1.78025">
        <ele>5.4</ele>
        <time>2022-04-22T09:53:16Z</time>
      </trkpt>
      <trkpt lat="50.12254" lon="1.78027">
        <ele>5.4</ele>
        <time>2022-04-22T09:53:17Z</time>
      </trkpt>
      <trkpt lat="50.12254" lon="1.78028">
        <ele>5.4</ele>
        <time>2022-04-22T09:53:18Z</time>
      </trkpt>
      <trkpt lat="50.12255" lon="1.78029">
        <ele>5.4</ele>
        <time>2022-04-22T09:53:19Z</time>
      </trkpt>
      <trkpt lat="50.12255" lon="1.78031">
        <ele>5.4</ele>
        <time>2022-04-22T09:53:20Z</time>
      </trkpt>
      <trkpt lat="50.12256" lon="1.78033">
        <ele>5.4</ele>
        <time>2022-04-22T09:53:21Z</time>
      </trkpt>
      <trkpt lat="50.12256" lon="1.78034">
        <ele>5.4</ele>
        <time>2022-04-22T09:53:22Z</time>
      </trkpt>
      <trkpt lat="50.12257" lon="1.78035">
        <ele>5.4</ele>
        <time>2022-04-22T09:53:24Z</time>
      </trkpt>
      <trkpt lat="50.12258" lon="1.78037">
        <ele>5.4</ele>
        <time>2022-04-22T09:53:25Z</time>
      </trkpt>
      <trkpt lat="50.12259" lon="1.78038">
        <ele>5.4</ele>
        <time>2022-04-22T09:53:26Z</time>
      </trkpt>
      <trkpt lat="50.1226" lon="1.7804">
        <ele>5.4</ele>
        <time>2022-04-22T09:53:27Z</time>
      </trkpt>
      <trkpt lat="50.12261" lon="1.7804">
        <ele>5.4</ele>
        <time>2022-04-22T09:53:28Z</time>
      </trkpt>
      <trkpt lat="50.12262" lon="1.78041">
        <ele>5.4</ele>
        <time>2022-04-22T09:53:29Z</time>
      </trkpt>
      <trkpt lat="50.12263" lon="1.78042">
        <ele>5.4</ele>
        <time>2022-04-22T09:53:30Z</time>
      </trkpt>
      <trkpt lat="50.12264" lon="1.78043">
        <ele>5.4</ele>
        <time>2022-04-22T09:53:31Z</time>
      </trkpt>
      <trkpt lat="50.12264" lon="1.78044">
        <ele>5.4</ele>
        <time>2022-04-22T09:53:33Z</time>
      </trkpt>
      <trkpt lat="50.12265" lon="1.78045">
        <ele>5.4</ele>
        <time>2022-04-22T09:53:34Z</time>
      </trkpt>
      <trkpt lat="50.12266" lon="1.78047">
        <ele>5.5</ele>
        <time>2022-04-22T09:53:35Z</time>
      </trkpt>
      <trkpt lat="50.12267" lon="1.78049">
        <ele>5.5</ele>
        <time>2022-04-22T09:53:37Z</time>
      </trkpt>
      <trkpt lat="50.12268" lon="1.78051">
        <ele>5.4</ele>
        <time>2022-04-22T09:53:38Z</time>
      </trkpt>
      <trkpt lat="50.12269" lon="1.78052">
        <ele>5.4</ele>
        <time>2022-04-22T09:53:39Z</time>
      </trkpt>
      <trkpt lat="50.12269" lon="1.78053">
        <ele>5.4</ele>
        <time>2022-04-22T09:53:40Z</time>
      </trkpt>
      <trkpt lat="50.1227" lon="1.78054">
        <ele>5.3</ele>
        <time>2022-04-22T09:53:41Z</time>
      </trkpt>
      <trkpt lat="50.12271" lon="1.78055">
        <ele>5.3</ele>
        <time>2022-04-22T09:53:43Z</time>
      </trkpt>
      <trkpt lat="50.12272" lon="1.78056">
        <ele>5.2</ele>
        <time>2022-04-22T09:53:44Z</time>
      </trkpt>
      <trkpt lat="50.12272" lon="1.78057">
        <ele>5.2</ele>
        <time>2022-04-22T09:53:45Z</time>
      </trkpt>
      <trkpt lat="50.12272" lon="1.78058">
        <ele>5.2</ele>
        <time>2022-04-22T09:53:46Z</time>
      </trkpt>
      <trkpt lat="50.12273" lon="1.78058">
        <ele>5.2</ele>
        <time>2022-04-22T09:53:47Z</time>
      </trkpt>
      <trkpt lat="50.12274" lon="1.78059">
        <ele>5.1</ele>
        <time>2022-04-22T09:53:48Z</time>
      </trkpt>
      <trkpt lat="50.12275" lon="1.78059">
        <ele>5.1</ele>
        <time>2022-04-22T09:53:50Z</time>
      </trkpt>
      <trkpt lat="50.12275" lon="1.7806">
        <ele>5.1</ele>
        <time>2022-04-22T09:53:51Z</time>
      </trkpt>
      <trkpt lat="50.12276" lon="1.78061">
        <ele>5</ele>
        <time>2022-04-22T09:53:52Z</time>
      </trkpt>
      <trkpt lat="50.12277" lon="1.78062">
        <ele>5</ele>
        <time>2022-04-22T09:53:53Z</time>
      </trkpt>
      <trkpt lat="50.12278" lon="1.78064">
        <ele>4.9</ele>
        <time>2022-04-22T09:53:54Z</time>
      </trkpt>
      <trkpt lat="50.12279" lon="1.78064">
        <ele>4.9</ele>
        <time>2022-04-22T09:53:55Z</time>
      </trkpt>
      <trkpt lat="50.1228" lon="1.78066">
        <ele>4.8</ele>
        <time>2022-04-22T09:53:56Z</time>
      </trkpt>
      <trkpt lat="50.12281" lon="1.78067">
        <ele>4.8</ele>
        <time>2022-04-22T09:53:57Z</time>
      </trkpt>
      <trkpt lat="50.12282" lon="1.78068">
        <ele>4.7</ele>
        <time>2022-04-22T09:53:58Z</time>
      </trkpt>
      <trkpt lat="50.12283" lon="1.78068">
        <ele>4.7</ele>
        <time>2022-04-22T09:54:00Z</time>
      </trkpt>
      <trkpt lat="50.12284" lon="1.7807">
        <ele>4.7</ele>
        <time>2022-04-22T09:54:01Z</time>
      </trkpt>
      <trkpt lat="50.12285" lon="1.78071">
        <ele>4.6</ele>
        <time>2022-04-22T09:54:02Z</time>
      </trkpt>
      <trkpt lat="50.12286" lon="1.78072">
        <ele>4.6</ele>
        <time>2022-04-22T09:54:03Z</time>
      </trkpt>
      <trkpt lat="50.12287" lon="1.78074">
        <ele>4.5</ele>
        <time>2022-04-22T09:54:04Z</time>
      </trkpt>
      <trkpt lat="50.12288" lon="1.78075">
        <ele>4.5</ele>
        <time>2022-04-22T09:54:05Z</time>
      </trkpt>
      <trkpt lat="50.1229" lon="1.78078">
        <ele>4.4</ele>
        <time>2022-04-22T09:54:06Z</time>
      </trkpt>
      <trkpt lat="50.1229" lon="1.78079">
        <ele>4.4</ele>
        <time>2022-04-22T09:54:07Z</time>
      </trkpt>
      <trkpt lat="50.1229" lon="1.78081">
        <ele>4.3</ele>
        <time>2022-04-22T09:54:09Z</time>
      </trkpt>
      <trkpt lat="50.12291" lon="1.78082">
        <ele>4.3</ele>
        <time>2022-04-22T09:54:10Z</time>
      </trkpt>
      <trkpt lat="50.12292" lon="1.78084">
        <ele>4.3</ele>
        <time>2022-04-22T09:54:11Z</time>
      </trkpt>
      <trkpt lat="50.12293" lon="1.78086">
        <ele>4.2</ele>
        <time>2022-04-22T09:54:12Z</time>
      </trkpt>
      <trkpt lat="50.12294" lon="1.78089">
        <ele>4.2</ele>
        <time>2022-04-22T09:54:13Z</time>
      </trkpt>
      <trkpt lat="50.12294" lon="1.7809">
        <ele>4.2</ele>
        <time>2022-04-22T09:54:14Z</time>
      </trkpt>
      <trkpt lat="50.12295" lon="1.78091">
        <ele>4.1</ele>
        <time>2022-04-22T09:54:15Z</time>
      </trkpt>
      <trkpt lat="50.12297" lon="1.78092">
        <ele>4.1</ele>
        <time>2022-04-22T09:54:16Z</time>
      </trkpt>
      <trkpt lat="50.12298" lon="1.78093">
        <ele>4.1</ele>
        <time>2022-04-22T09:54:17Z</time>
      </trkpt>
      <trkpt lat="50.12299" lon="1.78093">
        <ele>4</ele>
        <time>2022-04-22T09:54:19Z</time>
      </trkpt>
      <trkpt lat="50.123" lon="1.78094">
        <ele>4</ele>
        <time>2022-04-22T09:54:20Z</time>
      </trkpt>
      <trkpt lat="50.123" lon="1.78094">
        <ele>4</ele>
        <time>2022-04-22T09:54:21Z</time>
      </trkpt>
      <trkpt lat="50.12301" lon="1.78094">
        <ele>4</ele>
        <time>2022-04-22T09:54:22Z</time>
      </trkpt>
      <trkpt lat="50.12304" lon="1.78095">
        <ele>3.9</ele>
        <time>2022-04-22T09:54:23Z</time>
      </trkpt>
      <trkpt lat="50.12304" lon="1.78096">
        <ele>3.9</ele>
        <time>2022-04-22T09:54:24Z</time>
      </trkpt>
      <trkpt lat="50.12305" lon="1.78096">
        <ele>3.9</ele>
        <time>2022-04-22T09:54:25Z</time>
      </trkpt>
      <trkpt lat="50.12306" lon="1.78097">
        <ele>3.9</ele>
        <time>2022-04-22T09:54:26Z</time>
      </trkpt>
      <trkpt lat="50.12308" lon="1.78098">
        <ele>3.9</ele>
        <time>2022-04-22T09:54:27Z</time>
      </trkpt>
      <trkpt lat="50.12309" lon="1.78098">
        <ele>3.9</ele>
        <time>2022-04-22T09:54:29Z</time>
      </trkpt>
      <trkpt lat="50.1231" lon="1.78099">
        <ele>3.8</ele>
        <time>2022-04-22T09:54:30Z</time>
      </trkpt>
      <trkpt lat="50.1231" lon="1.78099">
        <ele>3.8</ele>
        <time>2022-04-22T09:54:31Z</time>
      </trkpt>
      <trkpt lat="50.12312" lon="1.781">
        <ele>3.8</ele>
        <time>2022-04-22T09:54:32Z</time>
      </trkpt>
      <trkpt lat="50.12313" lon="1.781">
        <ele>3.8</ele>
        <time>2022-04-22T09:54:33Z</time>
      </trkpt>
      <trkpt lat="50.12314" lon="1.78101">
        <ele>3.8</ele>
        <time>2022-04-22T09:54:34Z</time>
      </trkpt>
      <trkpt lat="50.12316" lon="1.78102">
        <ele>3.8</ele>
        <time>2022-04-22T09:54:35Z</time>
      </trkpt>
      <trkpt lat="50.12317" lon="1.78103">
        <ele>3.8</ele>
        <time>2022-04-22T09:54:37Z</time>
      </trkpt>
      <trkpt lat="50.12319" lon="1.78103">
        <ele>3.8</ele>
        <time>2022-04-22T09:54:38Z</time>
      </trkpt>
      <trkpt lat="50.1232" lon="1.78104">
        <ele>3.8</ele>
        <time>2022-04-22T09:54:39Z</time>
      </trkpt>
      <trkpt lat="50.12322" lon="1.78105">
        <ele>3.7</ele>
        <time>2022-04-22T09:54:40Z</time>
      </trkpt>
      <trkpt lat="50.12323" lon="1.78106">
        <ele>3.7</ele>
        <time>2022-04-22T09:54:41Z</time>
      </trkpt>
      <trkpt lat="50.12325" lon="1.78107">
        <ele>3.7</ele>
        <time>2022-04-22T09:54:42Z</time>
      </trkpt>
      <trkpt lat="50.12327" lon="1.78109">
        <ele>3.7</ele>
        <time>2022-04-22T09:54:44Z</time>
      </trkpt>
      <trkpt lat="50.12328" lon="1.7811">
        <ele>3.7</ele>
        <time>2022-04-22T09:54:45Z</time>
      </trkpt>
      <trkpt lat="50.1233" lon="1.78111">
        <ele>3.7</ele>
        <time>2022-04-22T09:54:46Z</time>
      </trkpt>
      <trkpt lat="50.12331" lon="1.78112">
        <ele>3.7</ele>
        <time>2022-04-22T09:54:47Z</time>
      </trkpt>
      <trkpt lat="50.12333" lon="1.78113">
        <ele>3.7</ele>
        <time>2022-04-22T09:54:48Z</time>
      </trkpt>
      <trkpt lat="50.12334" lon="1.78113">
        <ele>3.7</ele>
        <time>2022-04-22T09:54:49Z</time>
      </trkpt>
      <trkpt lat="50.12335" lon="1.78114">
        <ele>3.7</ele>
        <time>2022-04-22T09:54:50Z</time>
      </trkpt>
      <trkpt lat="50.12337" lon="1.78115">
        <ele>3.7</ele>
        <time>2022-04-22T09:54:51Z</time>
      </trkpt>
      <trkpt lat="50.12338" lon="1.78116">
        <ele>3.7</ele>
        <time>2022-04-22T09:54:52Z</time>
      </trkpt>
      <trkpt lat="50.12341" lon="1.78117">
        <ele>3.7</ele>
        <time>2022-04-22T09:54:53Z</time>
      </trkpt>
      <trkpt lat="50.12342" lon="1.78117">
        <ele>3.7</ele>
        <time>2022-04-22T09:54:55Z</time>
      </trkpt>
      <trkpt lat="50.12343" lon="1.78118">
        <ele>3.7</ele>
        <time>2022-04-22T09:54:56Z</time>
      </trkpt>
      <trkpt lat="50.12344" lon="1.78118">
        <ele>3.7</ele>
        <time>2022-04-22T09:54:57Z</time>
      </trkpt>
      <trkpt lat="50.12345" lon="1.78119">
        <ele>3.7</ele>
        <time>2022-04-22T09:54:58Z</time>
      </trkpt>
      <trkpt lat="50.12346" lon="1.7812">
        <ele>3.7</ele>
        <time>2022-04-22T09:54:59Z</time>
      </trkpt>
      <trkpt lat="50.12347" lon="1.78121">
        <ele>3.7</ele>
        <time>2022-04-22T09:55:00Z</time>
      </trkpt>
      <trkpt lat="50.12349" lon="1.78122">
        <ele>3.7</ele>
        <time>2022-04-22T09:55:01Z</time>
      </trkpt>
      <trkpt lat="50.1235" lon="1.78123">
        <ele>3.7</ele>
        <time>2022-04-22T09:55:02Z</time>
      </trkpt>
      <trkpt lat="50.12351" lon="1.78123">
        <ele>3.7</ele>
        <time>2022-04-22T09:55:03Z</time>
      </trkpt>
      <trkpt lat="50.12352" lon="1.78124">
        <ele>3.7</ele>
        <time>2022-04-22T09:55:04Z</time>
      </trkpt>
      <trkpt lat="50.12353" lon="1.78124">
        <ele>3.7</ele>
        <time>2022-04-22T09:55:06Z</time>
      </trkpt>
      <trkpt lat="50.12354" lon="1.78124">
        <ele>3.7</ele>
        <time>2022-04-22T09:55:07Z</time>
      </trkpt>
      <trkpt lat="50.12355" lon="1.78124">
        <ele>3.7</ele>
        <time>2022-04-22T09:55:08Z</time>
      </trkpt>
      <trkpt lat="50.12356" lon="1.78125">
        <ele>3.7</ele>
        <time>2022-04-22T09:55:09Z</time>
      </trkpt>
      <trkpt lat="50.12357" lon="1.78125">
        <ele>3.7</ele>
        <time>2022-04-22T09:55:10Z</time>
      </trkpt>
      <trkpt lat="50.12358" lon="1.78126">
        <ele>3.7</ele>
        <time>2022-04-22T09:55:11Z</time>
      </trkpt>
      <trkpt lat="50.12359" lon="1.78126">
        <ele>3.7</ele>
        <time>2022-04-22T09:55:12Z</time>
      </trkpt>
      <trkpt lat="50.12361" lon="1.78127">
        <ele>3.7</ele>
        <time>2022-04-22T09:55:13Z</time>
      </trkpt>
      <trkpt lat="50.12362" lon="1.78128">
        <ele>3.7</ele>
        <time>2022-04-22T09:55:14Z</time>
      </trkpt>
      <trkpt lat="50.12363" lon="1.78128">
        <ele>3.7</ele>
        <time>2022-04-22T09:55:15Z</time>
      </trkpt>
      <trkpt lat="50.12364" lon="1.78128">
        <ele>3.7</ele>
        <time>2022-04-22T09:55:16Z</time>
      </trkpt>
      <trkpt lat="50.12366" lon="1.78129">
        <ele>3.7</ele>
        <time>2022-04-22T09:55:17Z</time>
      </trkpt>
      <trkpt lat="50.12367" lon="1.78129">
        <ele>3.7</ele>
        <time>2022-04-22T09:55:19Z</time>
      </trkpt>
      <trkpt lat="50.12367" lon="1.7813">
        <ele>3.7</ele>
        <time>2022-04-22T09:55:20Z</time>
      </trkpt>
      <trkpt lat="50.12368" lon="1.7813">
        <ele>3.7</ele>
        <time>2022-04-22T09:55:21Z</time>
      </trkpt>
      <trkpt lat="50.12369" lon="1.7813">
        <ele>3.7</ele>
        <time>2022-04-22T09:55:22Z</time>
      </trkpt>
      <trkpt lat="50.1237" lon="1.78131">
        <ele>3.7</ele>
        <time>2022-04-22T09:55:23Z</time>
      </trkpt>
      <trkpt lat="50.12372" lon="1.78132">
        <ele>3.7</ele>
        <time>2022-04-22T09:55:24Z</time>
      </trkpt>
      <trkpt lat="50.12373" lon="1.78133">
        <ele>3.7</ele>
        <time>2022-04-22T09:55:25Z</time>
      </trkpt>
      <trkpt lat="50.12374" lon="1.78133">
        <ele>3.7</ele>
        <time>2022-04-22T09:55:26Z</time>
      </trkpt>
      <trkpt lat="50.12376" lon="1.78135">
        <ele>3.7</ele>
        <time>2022-04-22T09:55:28Z</time>
      </trkpt>
      <trkpt lat="50.12377" lon="1.78135">
        <ele>3.7</ele>
        <time>2022-04-22T09:55:29Z</time>
      </trkpt>
      <trkpt lat="50.12377" lon="1.78136">
        <ele>3.7</ele>
        <time>2022-04-22T09:55:30Z</time>
      </trkpt>
      <trkpt lat="50.12379" lon="1.78137">
        <ele>3.7</ele>
        <time>2022-04-22T09:55:31Z</time>
      </trkpt>
      <trkpt lat="50.1238" lon="1.78137">
        <ele>3.7</ele>
        <time>2022-04-22T09:55:32Z</time>
      </trkpt>
      <trkpt lat="50.12382" lon="1.78139">
        <ele>3.7</ele>
        <time>2022-04-22T09:55:33Z</time>
      </trkpt>
      <trkpt lat="50.12383" lon="1.78139">
        <ele>3.7</ele>
        <time>2022-04-22T09:55:34Z</time>
      </trkpt>
      <trkpt lat="50.12383" lon="1.7814">
        <ele>3.7</ele>
        <time>2022-04-22T09:55:35Z</time>
      </trkpt>
      <trkpt lat="50.12385" lon="1.78141">
        <ele>3.7</ele>
        <time>2022-04-22T09:55:36Z</time>
      </trkpt>
      <trkpt lat="50.12386" lon="1.78142">
        <ele>3.7</ele>
        <time>2022-04-22T09:55:37Z</time>
      </trkpt>
      <trkpt lat="50.12388" lon="1.78143">
        <ele>3.7</ele>
        <time>2022-04-22T09:55:39Z</time>
      </trkpt>
      <trkpt lat="50.12389" lon="1.78144">
        <ele>3.7</ele>
        <time>2022-04-22T09:55:40Z</time>
      </trkpt>
      <trkpt lat="50.1239" lon="1.78145">
        <ele>3.7</ele>
        <time>2022-04-22T09:55:41Z</time>
      </trkpt>
      <trkpt lat="50.12391" lon="1.78145">
        <ele>3.7</ele>
        <time>2022-04-22T09:55:42Z</time>
      </trkpt>
      <trkpt lat="50.12392" lon="1.78146">
        <ele>3.7</ele>
        <time>2022-04-22T09:55:43Z</time>
      </trkpt>
      <trkpt lat="50.12393" lon="1.78147">
        <ele>3.7</ele>
        <time>2022-04-22T09:55:45Z</time>
      </trkpt>
      <trkpt lat="50.12394" lon="1.78147">
        <ele>3.7</ele>
        <time>2022-04-22T09:55:46Z</time>
      </trkpt>
      <trkpt lat="50.12395" lon="1.78148">
        <ele>3.7</ele>
        <time>2022-04-22T09:55:47Z</time>
      </trkpt>
      <trkpt lat="50.12396" lon="1.78148">
        <ele>3.7</ele>
        <time>2022-04-22T09:55:48Z</time>
      </trkpt>
      <trkpt lat="50.12397" lon="1.78149">
        <ele>3.7</ele>
        <time>2022-04-22T09:55:49Z</time>
      </trkpt>
      <trkpt lat="50.12398" lon="1.7815">
        <ele>3.7</ele>
        <time>2022-04-22T09:55:50Z</time>
      </trkpt>
      <trkpt lat="50.124" lon="1.78151">
        <ele>3.7</ele>
        <time>2022-04-22T09:55:52Z</time>
      </trkpt>
      <trkpt lat="50.12401" lon="1.78152">
        <ele>3.7</ele>
        <time>2022-04-22T09:55:53Z</time>
      </trkpt>
      <trkpt lat="50.12402" lon="1.78152">
        <ele>3.7</ele>
        <time>2022-04-22T09:55:54Z</time>
      </trkpt>
      <trkpt lat="50.12403" lon="1.78153">
        <ele>3.7</ele>
        <time>2022-04-22T09:55:55Z</time>
      </trkpt>
      <trkpt lat="50.12404" lon="1.78154">
        <ele>3.7</ele>
        <time>2022-04-22T09:55:56Z</time>
      </trkpt>
      <trkpt lat="50.12406" lon="1.78155">
        <ele>3.7</ele>
        <time>2022-04-22T09:55:57Z</time>
      </trkpt>
      <trkpt lat="50.12407" lon="1.78155">
        <ele>3.7</ele>
        <time>2022-04-22T09:55:58Z</time>
      </trkpt>
      <trkpt lat="50.12408" lon="1.78156">
        <ele>3.7</ele>
        <time>2022-04-22T09:55:59Z</time>
      </trkpt>
      <trkpt lat="50.12409" lon="1.78156">
        <ele>3.7</ele>
        <time>2022-04-22T09:56:00Z</time>
      </trkpt>
      <trkpt lat="50.1241" lon="1.78157">
        <ele>3.7</ele>
        <time>2022-04-22T09:56:01Z</time>
      </trkpt>
      <trkpt lat="50.12411" lon="1.78157">
        <ele>3.7</ele>
        <time>2022-04-22T09:56:02Z</time>
      </trkpt>
      <trkpt lat="50.12413" lon="1.78158">
        <ele>3.7</ele>
        <time>2022-04-22T09:56:03Z</time>
      </trkpt>
      <trkpt lat="50.12414" lon="1.78158">
        <ele>3.7</ele>
        <time>2022-04-22T09:56:05Z</time>
      </trkpt>
      <trkpt lat="50.12416" lon="1.78159">
        <ele>3.7</ele>
        <time>2022-04-22T09:56:06Z</time>
      </trkpt>
      <trkpt lat="50.12417" lon="1.78159">
        <ele>3.7</ele>
        <time>2022-04-22T09:56:07Z</time>
      </trkpt>
      <trkpt lat="50.12418" lon="1.7816">
        <ele>3.7</ele>
        <time>2022-04-22T09:56:08Z</time>
      </trkpt>
      <trkpt lat="50.12419" lon="1.7816">
        <ele>3.7</ele>
        <time>2022-04-22T09:56:09Z</time>
      </trkpt>
      <trkpt lat="50.1242" lon="1.78161">
        <ele>3.7</ele>
        <time>2022-04-22T09:56:10Z</time>
      </trkpt>
      <trkpt lat="50.12422" lon="1.78161">
        <ele>3.7</ele>
        <time>2022-04-22T09:56:11Z</time>
      </trkpt>
      <trkpt lat="50.12423" lon="1.78161">
        <ele>3.7</ele>
        <time>2022-04-22T09:56:12Z</time>
      </trkpt>
      <trkpt lat="50.12425" lon="1.78161">
        <ele>3.7</ele>
        <time>2022-04-22T09:56:13Z</time>
      </trkpt>
      <trkpt lat="50.12426" lon="1.78161">
        <ele>3.7</ele>
        <time>2022-04-22T09:56:14Z</time>
      </trkpt>
      <trkpt lat="50.12428" lon="1.78161">
        <ele>3.8</ele>
        <time>2022-04-22T09:56:15Z</time>
      </trkpt>
      <trkpt lat="50.12429" lon="1.78161">
        <ele>3.8</ele>
        <time>2022-04-22T09:56:17Z</time>
      </trkpt>
      <trkpt lat="50.1243" lon="1.78161">
        <ele>3.8</ele>
        <time>2022-04-22T09:56:18Z</time>
      </trkpt>
      <trkpt lat="50.12431" lon="1.78161">
        <ele>3.8</ele>
        <time>2022-04-22T09:56:19Z</time>
      </trkpt>
      <trkpt lat="50.12433" lon="1.78162">
        <ele>3.8</ele>
        <time>2022-04-22T09:56:20Z</time>
      </trkpt>
      <trkpt lat="50.12434" lon="1.78162">
        <ele>3.8</ele>
        <time>2022-04-22T09:56:21Z</time>
      </trkpt>
      <trkpt lat="50.12436" lon="1.78163">
        <ele>3.8</ele>
        <time>2022-04-22T09:56:22Z</time>
      </trkpt>
      <trkpt lat="50.12437" lon="1.78163">
        <ele>3.8</ele>
        <time>2022-04-22T09:56:23Z</time>
      </trkpt>
      <trkpt lat="50.12438" lon="1.78164">
        <ele>3.8</ele>
        <time>2022-04-22T09:56:24Z</time>
      </trkpt>
      <trkpt lat="50.1244" lon="1.78165">
        <ele>3.8</ele>
        <time>2022-04-22T09:56:25Z</time>
      </trkpt>
      <trkpt lat="50.12441" lon="1.78166">
        <ele>3.8</ele>
        <time>2022-04-22T09:56:27Z</time>
      </trkpt>
      <trkpt lat="50.12442" lon="1.78166">
        <ele>3.8</ele>
        <time>2022-04-22T09:56:28Z</time>
      </trkpt>
      <trkpt lat="50.12443" lon="1.78167">
        <ele>3.8</ele>
        <time>2022-04-22T09:56:29Z</time>
      </trkpt>
      <trkpt lat="50.12444" lon="1.78167">
        <ele>3.8</ele>
        <time>2022-04-22T09:56:30Z</time>
      </trkpt>
      <trkpt lat="50.12446" lon="1.78168">
        <ele>3.8</ele>
        <time>2022-04-22T09:56:31Z</time>
      </trkpt>
      <trkpt lat="50.12447" lon="1.78169">
        <ele>3.8</ele>
        <time>2022-04-22T09:56:32Z</time>
      </trkpt>
      <trkpt lat="50.12449" lon="1.78169">
        <ele>3.8</ele>
        <time>2022-04-22T09:56:33Z</time>
      </trkpt>
      <trkpt lat="50.1245" lon="1.7817">
        <ele>3.8</ele>
        <time>2022-04-22T09:56:34Z</time>
      </trkpt>
      <trkpt lat="50.12451" lon="1.7817">
        <ele>3.8</ele>
        <time>2022-04-22T09:56:35Z</time>
      </trkpt>
      <trkpt lat="50.12452" lon="1.78171">
        <ele>3.8</ele>
        <time>2022-04-22T09:56:36Z</time>
      </trkpt>
      <trkpt lat="50.12453" lon="1.78172">
        <ele>3.8</ele>
        <time>2022-04-22T09:56:37Z</time>
      </trkpt>
      <trkpt lat="50.12455" lon="1.78173">
        <ele>3.8</ele>
        <time>2022-04-22T09:56:40Z</time>
      </trkpt>
      <trkpt lat="50.12456" lon="1.78173">
        <ele>3.8</ele>
        <time>2022-04-22T09:56:41Z</time>
      </trkpt>
      <trkpt lat="50.12457" lon="1.78174">
        <ele>3.8</ele>
        <time>2022-04-22T09:56:42Z</time>
      </trkpt>
      <trkpt lat="50.12458" lon="1.78175">
        <ele>3.8</ele>
        <time>2022-04-22T09:56:43Z</time>
      </trkpt>
      <trkpt lat="50.12459" lon="1.78175">
        <ele>3.8</ele>
        <time>2022-04-22T09:56:44Z</time>
      </trkpt>
      <trkpt lat="50.1246" lon="1.78176">
        <ele>3.8</ele>
        <time>2022-04-22T09:56:45Z</time>
      </trkpt>
      <trkpt lat="50.12461" lon="1.78177">
        <ele>3.8</ele>
        <time>2022-04-22T09:56:46Z</time>
      </trkpt>
      <trkpt lat="50.12462" lon="1.78177">
        <ele>3.8</ele>
        <time>2022-04-22T09:56:47Z</time>
      </trkpt>
      <trkpt lat="50.12464" lon="1.78178">
        <ele>3.8</ele>
        <time>2022-04-22T09:56:49Z</time>
      </trkpt>
      <trkpt lat="50.12465" lon="1.78179">
        <ele>3.8</ele>
        <time>2022-04-22T09:56:50Z</time>
      </trkpt>
      <trkpt lat="50.12466" lon="1.7818">
        <ele>3.8</ele>
        <time>2022-04-22T09:56:51Z</time>
      </trkpt>
      <trkpt lat="50.12467" lon="1.78181">
        <ele>3.8</ele>
        <time>2022-04-22T09:56:52Z</time>
      </trkpt>
      <trkpt lat="50.12468" lon="1.78182">
        <ele>3.8</ele>
        <time>2022-04-22T09:56:53Z</time>
      </trkpt>
      <trkpt lat="50.12469" lon="1.78182">
        <ele>3.8</ele>
        <time>2022-04-22T09:56:54Z</time>
      </trkpt>
      <trkpt lat="50.12471" lon="1.78184">
        <ele>3.8</ele>
        <time>2022-04-22T09:56:55Z</time>
      </trkpt>
      <trkpt lat="50.12471" lon="1.78185">
        <ele>3.8</ele>
        <time>2022-04-22T09:56:56Z</time>
      </trkpt>
      <trkpt lat="50.12472" lon="1.78186">
        <ele>3.8</ele>
        <time>2022-04-22T09:56:57Z</time>
      </trkpt>
      <trkpt lat="50.12473" lon="1.78186">
        <ele>3.8</ele>
        <time>2022-04-22T09:56:58Z</time>
      </trkpt>
      <trkpt lat="50.12474" lon="1.78187">
        <ele>3.9</ele>
        <time>2022-04-22T09:57:00Z</time>
      </trkpt>
      <trkpt lat="50.12475" lon="1.78188">
        <ele>3.9</ele>
        <time>2022-04-22T09:57:01Z</time>
      </trkpt>
      <trkpt lat="50.12477" lon="1.7819">
        <ele>3.9</ele>
        <time>2022-04-22T09:57:02Z</time>
      </trkpt>
      <trkpt lat="50.12477" lon="1.7819">
        <ele>3.9</ele>
        <time>2022-04-22T09:57:03Z</time>
      </trkpt>
      <trkpt lat="50.12478" lon="1.78191">
        <ele>3.9</ele>
        <time>2022-04-22T09:57:04Z</time>
      </trkpt>
      <trkpt lat="50.1248" lon="1.78192">
        <ele>3.9</ele>
        <time>2022-04-22T09:57:05Z</time>
      </trkpt>
      <trkpt lat="50.12481" lon="1.78193">
        <ele>3.9</ele>
        <time>2022-04-22T09:57:06Z</time>
      </trkpt>
      <trkpt lat="50.12482" lon="1.78194">
        <ele>3.9</ele>
        <time>2022-04-22T09:57:08Z</time>
      </trkpt>
      <trkpt lat="50.12483" lon="1.78194">
        <ele>3.9</ele>
        <time>2022-04-22T09:57:09Z</time>
      </trkpt>
      <trkpt lat="50.12484" lon="1.78195">
        <ele>3.9</ele>
        <time>2022-04-22T09:57:10Z</time>
      </trkpt>
      <trkpt lat="50.12485" lon="1.78196">
        <ele>3.9</ele>
        <time>2022-04-22T09:57:11Z</time>
      </trkpt>
      <trkpt lat="50.12486" lon="1.78196">
        <ele>3.9</ele>
        <time>2022-04-22T09:57:12Z</time>
      </trkpt>
      <trkpt lat="50.12488" lon="1.78197">
        <ele>3.9</ele>
        <time>2022-04-22T09:57:13Z</time>
      </trkpt>
      <trkpt lat="50.1249" lon="1.78197">
        <ele>3.9</ele>
        <time>2022-04-22T09:57:14Z</time>
      </trkpt>
      <trkpt lat="50.12491" lon="1.78198">
        <ele>3.9</ele>
        <time>2022-04-22T09:57:15Z</time>
      </trkpt>
      <trkpt lat="50.12491" lon="1.78198">
        <ele>3.9</ele>
        <time>2022-04-22T09:57:16Z</time>
      </trkpt>
      <trkpt lat="50.12493" lon="1.78199">
        <ele>3.9</ele>
        <time>2022-04-22T09:57:18Z</time>
      </trkpt>
      <trkpt lat="50.12494" lon="1.782">
        <ele>3.9</ele>
        <time>2022-04-22T09:57:19Z</time>
      </trkpt>
      <trkpt lat="50.12495" lon="1.782">
        <ele>3.9</ele>
        <time>2022-04-22T09:57:20Z</time>
      </trkpt>
      <trkpt lat="50.12497" lon="1.78201">
        <ele>3.9</ele>
        <time>2022-04-22T09:57:21Z</time>
      </trkpt>
      <trkpt lat="50.12498" lon="1.78201">
        <ele>3.9</ele>
        <time>2022-04-22T09:57:22Z</time>
      </trkpt>
      <trkpt lat="50.12499" lon="1.78201">
        <ele>3.9</ele>
        <time>2022-04-22T09:57:23Z</time>
      </trkpt>
      <trkpt lat="50.12501" lon="1.78202">
        <ele>3.9</ele>
        <time>2022-04-22T09:57:24Z</time>
      </trkpt>
      <trkpt lat="50.12502" lon="1.78202">
        <ele>3.9</ele>
        <time>2022-04-22T09:57:25Z</time>
      </trkpt>
      <trkpt lat="50.12503" lon="1.78203">
        <ele>4</ele>
        <time>2022-04-22T09:57:26Z</time>
      </trkpt>
      <trkpt lat="50.12505" lon="1.78205">
        <ele>4</ele>
        <time>2022-04-22T09:57:27Z</time>
      </trkpt>
      <trkpt lat="50.12505" lon="1.78206">
        <ele>4</ele>
        <time>2022-04-22T09:57:29Z</time>
      </trkpt>
      <trkpt lat="50.12506" lon="1.78207">
        <ele>4</ele>
        <time>2022-04-22T09:57:30Z</time>
      </trkpt>
      <trkpt lat="50.12507" lon="1.78208">
        <ele>4</ele>
        <time>2022-04-22T09:57:31Z</time>
      </trkpt>
      <trkpt lat="50.12508" lon="1.78209">
        <ele>4</ele>
        <time>2022-04-22T09:57:32Z</time>
      </trkpt>
      <trkpt lat="50.12509" lon="1.7821">
        <ele>4</ele>
        <time>2022-04-22T09:57:33Z</time>
      </trkpt>
      <trkpt lat="50.1251" lon="1.78211">
        <ele>4</ele>
        <time>2022-04-22T09:57:34Z</time>
      </trkpt>
      <trkpt lat="50.12512" lon="1.78213">
        <ele>4</ele>
        <time>2022-04-22T09:57:35Z</time>
      </trkpt>
      <trkpt lat="50.12513" lon="1.78214">
        <ele>4</ele>
        <time>2022-04-22T09:57:36Z</time>
      </trkpt>
      <trkpt lat="50.12514" lon="1.78215">
        <ele>4</ele>
        <time>2022-04-22T09:57:37Z</time>
      </trkpt>
      <trkpt lat="50.12515" lon="1.78216">
        <ele>4</ele>
        <time>2022-04-22T09:57:38Z</time>
      </trkpt>
      <trkpt lat="50.12517" lon="1.78218">
        <ele>4</ele>
        <time>2022-04-22T09:57:39Z</time>
      </trkpt>
      <trkpt lat="50.12518" lon="1.78218">
        <ele>4</ele>
        <time>2022-04-22T09:57:40Z</time>
      </trkpt>
      <trkpt lat="50.12519" lon="1.78219">
        <ele>4</ele>
        <time>2022-04-22T09:57:42Z</time>
      </trkpt>
      <trkpt lat="50.1252" lon="1.7822">
        <ele>4</ele>
        <time>2022-04-22T09:57:43Z</time>
      </trkpt>
      <trkpt lat="50.12521" lon="1.78221">
        <ele>4</ele>
        <time>2022-04-22T09:57:44Z</time>
      </trkpt>
      <trkpt lat="50.12522" lon="1.78221">
        <ele>4.1</ele>
        <time>2022-04-22T09:57:45Z</time>
      </trkpt>
      <trkpt lat="50.12523" lon="1.78223">
        <ele>4.1</ele>
        <time>2022-04-22T09:57:46Z</time>
      </trkpt>
      <trkpt lat="50.12524" lon="1.78224">
        <ele>4.1</ele>
        <time>2022-04-22T09:57:47Z</time>
      </trkpt>
      <trkpt lat="50.12526" lon="1.78225">
        <ele>4.1</ele>
        <time>2022-04-22T09:57:48Z</time>
      </trkpt>
      <trkpt lat="50.12527" lon="1.78226">
        <ele>4.1</ele>
        <time>2022-04-22T09:57:49Z</time>
      </trkpt>
      <trkpt lat="50.12528" lon="1.78226">
        <ele>4.1</ele>
        <time>2022-04-22T09:57:50Z</time>
      </trkpt>
      <trkpt lat="50.1253" lon="1.78228">
        <ele>4.1</ele>
        <time>2022-04-22T09:57:51Z</time>
      </trkpt>
      <trkpt lat="50.12531" lon="1.78228">
        <ele>4.1</ele>
        <time>2022-04-22T09:57:53Z</time>
      </trkpt>
      <trkpt lat="50.12532" lon="1.78229">
        <ele>4.1</ele>
        <time>2022-04-22T09:57:54Z</time>
      </trkpt>
      <trkpt lat="50.12533" lon="1.7823">
        <ele>4.1</ele>
        <time>2022-04-22T09:57:55Z</time>
      </trkpt>
      <trkpt lat="50.12534" lon="1.7823">
        <ele>4.1</ele>
        <time>2022-04-22T09:57:56Z</time>
      </trkpt>
      <trkpt lat="50.12535" lon="1.78231">
        <ele>4.1</ele>
        <time>2022-04-22T09:57:57Z</time>
      </trkpt>
      <trkpt lat="50.12537" lon="1.78233">
        <ele>4.1</ele>
        <time>2022-04-22T09:57:58Z</time>
      </trkpt>
      <trkpt lat="50.12538" lon="1.78234">
        <ele>4.2</ele>
        <time>2022-04-22T09:57:59Z</time>
      </trkpt>
      <trkpt lat="50.12539" lon="1.78235">
        <ele>4.2</ele>
        <time>2022-04-22T09:58:00Z</time>
      </trkpt>
      <trkpt lat="50.1254" lon="1.78236">
        <ele>4.2</ele>
        <time>2022-04-22T09:58:01Z</time>
      </trkpt>
      <trkpt lat="50.12541" lon="1.78237">
        <ele>4.2</ele>
        <time>2022-04-22T09:58:03Z</time>
      </trkpt>
      <trkpt lat="50.12542" lon="1.78238">
        <ele>4.2</ele>
        <time>2022-04-22T09:58:04Z</time>
      </trkpt>
      <trkpt lat="50.12543" lon="1.78239">
        <ele>4.2</ele>
        <time>2022-04-22T09:58:05Z</time>
      </trkpt>
      <trkpt lat="50.12545" lon="1.7824">
        <ele>4.2</ele>
        <time>2022-04-22T09:58:06Z</time>
      </trkpt>
      <trkpt lat="50.12545" lon="1.78241">
        <ele>4.2</ele>
        <time>2022-04-22T09:58:07Z</time>
      </trkpt>
      <trkpt lat="50.12546" lon="1.78242">
        <ele>4.2</ele>
        <time>2022-04-22T09:58:08Z</time>
      </trkpt>
      <trkpt lat="50.12548" lon="1.78244">
        <ele>4.2</ele>
        <time>2022-04-22T09:58:09Z</time>
      </trkpt>
      <trkpt lat="50.12548" lon="1.78245">
        <ele>4.3</ele>
        <time>2022-04-22T09:58:10Z</time>
      </trkpt>
      <trkpt lat="50.12549" lon="1.78245">
        <ele>4.3</ele>
        <time>2022-04-22T09:58:11Z</time>
      </trkpt>
      <trkpt lat="50.1255" lon="1.78247">
        <ele>4.3</ele>
        <time>2022-04-22T09:58:13Z</time>
      </trkpt>
      <trkpt lat="50.12551" lon="1.78248">
        <ele>4.3</ele>
        <time>2022-04-22T09:58:14Z</time>
      </trkpt>
      <trkpt lat="50.12551" lon="1.78249">
        <ele>4.3</ele>
        <time>2022-04-22T09:58:15Z</time>
      </trkpt>
      <trkpt lat="50.12553" lon="1.78251">
        <ele>4.3</ele>
        <time>2022-04-22T09:58:16Z</time>
      </trkpt>
      <trkpt lat="50.12553" lon="1.78252">
        <ele>4.3</ele>
        <time>2022-04-22T09:58:17Z</time>
      </trkpt>
      <trkpt lat="50.12554" lon="1.78253">
        <ele>4.3</ele>
        <time>2022-04-22T09:58:18Z</time>
      </trkpt>
      <trkpt lat="50.12555" lon="1.78254">
        <ele>4.4</ele>
        <time>2022-04-22T09:58:19Z</time>
      </trkpt>
      <trkpt lat="50.12555" lon="1.78256">
        <ele>4.4</ele>
        <time>2022-04-22T09:58:20Z</time>
      </trkpt>
      <trkpt lat="50.12556" lon="1.78257">
        <ele>4.4</ele>
        <time>2022-04-22T09:58:21Z</time>
      </trkpt>
      <trkpt lat="50.12557" lon="1.78259">
        <ele>4.4</ele>
        <time>2022-04-22T09:58:23Z</time>
      </trkpt>
      <trkpt lat="50.12557" lon="1.7826">
        <ele>4.4</ele>
        <time>2022-04-22T09:58:24Z</time>
      </trkpt>
      <trkpt lat="50.12558" lon="1.78261">
        <ele>4.4</ele>
        <time>2022-04-22T09:58:25Z</time>
      </trkpt>
      <trkpt lat="50.12559" lon="1.78264">
        <ele>4.5</ele>
        <time>2022-04-22T09:58:26Z</time>
      </trkpt>
      <trkpt lat="50.1256" lon="1.78265">
        <ele>4.5</ele>
        <time>2022-04-22T09:58:27Z</time>
      </trkpt>
      <trkpt lat="50.12561" lon="1.78266">
        <ele>4.5</ele>
        <time>2022-04-22T09:58:28Z</time>
      </trkpt>
      <trkpt lat="50.12562" lon="1.78269">
        <ele>4.5</ele>
        <time>2022-04-22T09:58:30Z</time>
      </trkpt>
      <trkpt lat="50.12563" lon="1.7827">
        <ele>4.5</ele>
        <time>2022-04-22T09:58:31Z</time>
      </trkpt>
      <trkpt lat="50.12563" lon="1.78271">
        <ele>4.6</ele>
        <time>2022-04-22T09:58:32Z</time>
      </trkpt>
      <trkpt lat="50.12565" lon="1.78273">
        <ele>4.6</ele>
        <time>2022-04-22T09:58:33Z</time>
      </trkpt>
      <trkpt lat="50.12565" lon="1.78273">
        <ele>4.6</ele>
        <time>2022-04-22T09:58:34Z</time>
      </trkpt>
      <trkpt lat="50.12566" lon="1.78274">
        <ele>4.6</ele>
        <time>2022-04-22T09:58:35Z</time>
      </trkpt>
      <trkpt lat="50.12568" lon="1.78276">
        <ele>4.7</ele>
        <time>2022-04-22T09:58:36Z</time>
      </trkpt>
      <trkpt lat="50.12568" lon="1.78277">
        <ele>4.7</ele>
        <time>2022-04-22T09:58:38Z</time>
      </trkpt>
      <trkpt lat="50.12569" lon="1.78277">
        <ele>4.7</ele>
        <time>2022-04-22T09:58:39Z</time>
      </trkpt>
      <trkpt lat="50.12571" lon="1.78279">
        <ele>4.7</ele>
        <time>2022-04-22T09:58:40Z</time>
      </trkpt>
      <trkpt lat="50.12572" lon="1.7828">
        <ele>4.8</ele>
        <time>2022-04-22T09:58:41Z</time>
      </trkpt>
      <trkpt lat="50.12572" lon="1.78281">
        <ele>4.8</ele>
        <time>2022-04-22T09:58:42Z</time>
      </trkpt>
      <trkpt lat="50.12573" lon="1.78282">
        <ele>4.8</ele>
        <time>2022-04-22T09:58:44Z</time>
      </trkpt>
      <trkpt lat="50.12574" lon="1.78283">
        <ele>4.8</ele>
        <time>2022-04-22T09:58:45Z</time>
      </trkpt>
      <trkpt lat="50.12575" lon="1.78284">
        <ele>4.8</ele>
        <time>2022-04-22T09:58:46Z</time>
      </trkpt>
      <trkpt lat="50.12576" lon="1.78285">
        <ele>4.9</ele>
        <time>2022-04-22T09:58:47Z</time>
      </trkpt>
      <trkpt lat="50.12577" lon="1.78285">
        <ele>4.9</ele>
        <time>2022-04-22T09:58:48Z</time>
      </trkpt>
      <trkpt lat="50.12579" lon="1.78286">
        <ele>4.9</ele>
        <time>2022-04-22T09:58:49Z</time>
      </trkpt>
      <trkpt lat="50.1258" lon="1.78286">
        <ele>4.9</ele>
        <time>2022-04-22T09:58:50Z</time>
      </trkpt>
      <trkpt lat="50.12581" lon="1.78287">
        <ele>5</ele>
        <time>2022-04-22T09:58:52Z</time>
      </trkpt>
      <trkpt lat="50.12583" lon="1.78287">
        <ele>5</ele>
        <time>2022-04-22T09:58:54Z</time>
      </trkpt>
      <trkpt lat="50.12583" lon="1.78287">
        <ele>5</ele>
        <time>2022-04-22T09:58:55Z</time>
      </trkpt>
      <trkpt lat="50.12584" lon="1.78287">
        <ele>5</ele>
        <time>2022-04-22T09:58:56Z</time>
      </trkpt>
      <trkpt lat="50.12584" lon="1.78286">
        <ele>5</ele>
        <time>2022-04-22T09:58:57Z</time>
      </trkpt>
      <trkpt lat="50.12585" lon="1.78286">
        <ele>5.1</ele>
        <time>2022-04-22T09:58:58Z</time>
      </trkpt>
      <trkpt lat="50.12585" lon="1.78286">
        <ele>5.1</ele>
        <time>2022-04-22T09:58:59Z</time>
      </trkpt>
      <trkpt lat="50.12585" lon="1.78287">
        <ele>5.1</ele>
        <time>2022-04-22T09:59:00Z</time>
      </trkpt>
      <trkpt lat="50.12586" lon="1.78287">
        <ele>5.1</ele>
        <time>2022-04-22T09:59:01Z</time>
      </trkpt>
      <trkpt lat="50.12587" lon="1.78288">
        <ele>5.1</ele>
        <time>2022-04-22T09:59:02Z</time>
      </trkpt>
      <trkpt lat="50.12588" lon="1.78288">
        <ele>5.1</ele>
        <time>2022-04-22T09:59:03Z</time>
      </trkpt>
      <trkpt lat="50.12589" lon="1.78289">
        <ele>5.2</ele>
        <time>2022-04-22T09:59:04Z</time>
      </trkpt>
      <trkpt lat="50.1259" lon="1.7829">
        <ele>5.2</ele>
        <time>2022-04-22T09:59:06Z</time>
      </trkpt>
      <trkpt lat="50.12591" lon="1.78291">
        <ele>5.2</ele>
        <time>2022-04-22T09:59:07Z</time>
      </trkpt>
      <trkpt lat="50.12591" lon="1.78292">
        <ele>5.2</ele>
        <time>2022-04-22T09:59:08Z</time>
      </trkpt>
      <trkpt lat="50.12592" lon="1.78293">
        <ele>5.2</ele>
        <time>2022-04-22T09:59:09Z</time>
      </trkpt>
      <trkpt lat="50.12593" lon="1.78294">
        <ele>5.3</ele>
        <time>2022-04-22T09:59:10Z</time>
      </trkpt>
      <trkpt lat="50.12593" lon="1.78294">
        <ele>5.3</ele>
        <time>2022-04-22T09:59:11Z</time>
      </trkpt>
      <trkpt lat="50.12594" lon="1.78295">
        <ele>5.3</ele>
        <time>2022-04-22T09:59:12Z</time>
      </trkpt>
      <trkpt lat="50.12595" lon="1.78296">
        <ele>5.3</ele>
        <time>2022-04-22T09:59:13Z</time>
      </trkpt>
      <trkpt lat="50.12596" lon="1.78297">
        <ele>5.3</ele>
        <time>2022-04-22T09:59:14Z</time>
      </trkpt>
      <trkpt lat="50.12597" lon="1.78298">
        <ele>5.3</ele>
        <time>2022-04-22T09:59:15Z</time>
      </trkpt>
      <trkpt lat="50.12598" lon="1.78299">
        <ele>5.4</ele>
        <time>2022-04-22T09:59:16Z</time>
      </trkpt>
      <trkpt lat="50.126" lon="1.783">
        <ele>5.4</ele>
        <time>2022-04-22T09:59:17Z</time>
      </trkpt>
      <trkpt lat="50.126" lon="1.78301">
        <ele>5.4</ele>
        <time>2022-04-22T09:59:18Z</time>
      </trkpt>
      <trkpt lat="50.12601" lon="1.78301">
        <ele>5.4</ele>
        <time>2022-04-22T09:59:19Z</time>
      </trkpt>
      <trkpt lat="50.12602" lon="1.78302">
        <ele>5.4</ele>
        <time>2022-04-22T09:59:20Z</time>
      </trkpt>
      <trkpt lat="50.12603" lon="1.78303">
        <ele>5.4</ele>
        <time>2022-04-22T09:59:21Z</time>
      </trkpt>
      <trkpt lat="50.12604" lon="1.78305">
        <ele>5.4</ele>
        <time>2022-04-22T09:59:23Z</time>
      </trkpt>
      <trkpt lat="50.12604" lon="1.78306">
        <ele>5.4</ele>
        <time>2022-04-22T09:59:24Z</time>
      </trkpt>
      <trkpt lat="50.12604" lon="1.78307">
        <ele>5.4</ele>
        <time>2022-04-22T09:59:25Z</time>
      </trkpt>
      <trkpt lat="50.12605" lon="1.7831">
        <ele>5.4</ele>
        <time>2022-04-22T09:59:26Z</time>
      </trkpt>
      <trkpt lat="50.12605" lon="1.78312">
        <ele>5.4</ele>
        <time>2022-04-22T09:59:27Z</time>
      </trkpt>
      <trkpt lat="50.12604" lon="1.78314">
        <ele>5.4</ele>
        <time>2022-04-22T09:59:28Z</time>
      </trkpt>
      <trkpt lat="50.12603" lon="1.78316">
        <ele>5.4</ele>
        <time>2022-04-22T09:59:30Z</time>
      </trkpt>
      <trkpt lat="50.12601" lon="1.78319">
        <ele>5.4</ele>
        <time>2022-04-22T09:59:32Z</time>
      </trkpt>
      <trkpt lat="50.126" lon="1.7832">
        <ele>5.4</ele>
        <time>2022-04-22T09:59:33Z</time>
      </trkpt>
      <trkpt lat="50.126" lon="1.78322">
        <ele>5.4</ele>
        <time>2022-04-22T09:59:34Z</time>
      </trkpt>
      <trkpt lat="50.12599" lon="1.78324">
        <ele>5.4</ele>
        <time>2022-04-22T09:59:35Z</time>
      </trkpt>
      <trkpt lat="50.126" lon="1.78326">
        <ele>5.4</ele>
        <time>2022-04-22T09:59:37Z</time>
      </trkpt>
      <trkpt lat="50.12601" lon="1.78327">
        <ele>5.4</ele>
        <time>2022-04-22T09:59:38Z</time>
      </trkpt>
      <trkpt lat="50.12602" lon="1.78327">
        <ele>5.4</ele>
        <time>2022-04-22T09:59:39Z</time>
      </trkpt>
      <trkpt lat="50.12604" lon="1.78327">
        <ele>5.4</ele>
        <time>2022-04-22T09:59:40Z</time>
      </trkpt>
      <trkpt lat="50.12605" lon="1.78327">
        <ele>5.4</ele>
        <time>2022-04-22T09:59:42Z</time>
      </trkpt>
      <trkpt lat="50.12607" lon="1.78327">
        <ele>5.4</ele>
        <time>2022-04-22T09:59:43Z</time>
      </trkpt>
      <trkpt lat="50.12608" lon="1.78327">
        <ele>5.4</ele>
        <time>2022-04-22T09:59:44Z</time>
      </trkpt>
      <trkpt lat="50.12609" lon="1.78327">
        <ele>5.4</ele>
        <time>2022-04-22T09:59:45Z</time>
      </trkpt>
      <trkpt lat="50.12611" lon="1.78327">
        <ele>5.4</ele>
        <time>2022-04-22T09:59:47Z</time>
      </trkpt>
      <trkpt lat="50.12611" lon="1.78326">
        <ele>5.4</ele>
        <time>2022-04-22T09:59:48Z</time>
      </trkpt>
      <trkpt lat="50.12613" lon="1.78326">
        <ele>5.4</ele>
        <time>2022-04-22T09:59:50Z</time>
      </trkpt>
      <trkpt lat="50.12613" lon="1.78326">
        <ele>5.4</ele>
        <time>2022-04-22T09:59:51Z</time>
      </trkpt>
      <trkpt lat="50.12613" lon="1.78326">
        <ele>5.4</ele>
        <time>2022-04-22T09:59:52Z</time>
      </trkpt>
      <trkpt lat="50.12613" lon="1.78326">
        <ele>5.4</ele>
        <time>2022-04-22T09:59:53Z</time>
      </trkpt>
      <trkpt lat="50.12613" lon="1.78326">
        <ele>5.4</ele>
        <time>2022-04-22T09:59:54Z</time>
      </trkpt>
      <trkpt lat="50.12613" lon="1.78326">
        <ele>5.4</ele>
        <time>2022-04-22T09:59:55Z</time>
      </trkpt>
      <trkpt lat="50.12613" lon="1.78326">
        <ele>5.4</ele>
        <time>2022-04-22T09:59:56Z</time>
      </trkpt>
      <trkpt lat="50.12613" lon="1.78326">
        <ele>5.4</ele>
        <time>2022-04-22T09:59:57Z</time>
      </trkpt>
      <trkpt lat="50.12613" lon="1.78326">
        <ele>5.4</ele>
        <time>2022-04-22T09:59:58Z</time>
      </trkpt>
      <trkpt lat="50.12613" lon="1.78326">
        <ele>5.4</ele>
        <time>2022-04-22T09:59:59Z</time>
      </trkpt>
      <trkpt lat="50.12613" lon="1.78326">
        <ele>5.4</ele>
        <time>2022-04-22T10:00:00Z</time>
      </trkpt>
      <trkpt lat="50.12613" lon="1.78326">
        <ele>5.4</ele>
        <time>2022-04-22T10:00:01Z</time>
      </trkpt>
      <trkpt lat="50.12613" lon="1.78326">
        <ele>5.4</ele>
        <time>2022-04-22T10:00:02Z</time>
      </trkpt>
      <trkpt lat="50.12613" lon="1.78326">
        <ele>5.4</ele>
        <time>2022-04-22T10:00:03Z</time>
      </trkpt>
      <trkpt lat="50.12613" lon="1.78326">
        <ele>5.4</ele>
        <time>2022-04-22T10:00:04Z</time>
      </trkpt>
      <trkpt lat="50.12613" lon="1.78326">
        <ele>5.4</ele>
        <time>2022-04-22T10:00:05Z</time>
      </trkpt>
      <trkpt lat="50.12613" lon="1.78326">
        <ele>5.4</ele>
        <time>2022-04-22T10:00:06Z</time>
      </trkpt>
      <trkpt lat="50.12613" lon="1.78326">
        <ele>5.4</ele>
        <time>2022-04-22T10:00:07Z</time>
      </trkpt>
      <trkpt lat="50.12613" lon="1.78326">
        <ele>5.4</ele>
        <time>2022-04-22T10:00:08Z</time>
      </trkpt>
      <trkpt lat="50.12613" lon="1.78326">
        <ele>5.4</ele>
        <time>2022-04-22T10:00:09Z</time>
      </trkpt>
      <trkpt lat="50.12613" lon="1.78326">
        <ele>5.4</ele>
        <time>2022-04-22T10:00:10Z</time>
      </trkpt>
      <trkpt lat="50.12613" lon="1.78326">
        <ele>5.4</ele>
        <time>2022-04-22T10:00:11Z</time>
      </trkpt>
      <trkpt lat="50.12613" lon="1.78326">
        <ele>5.4</ele>
        <time>2022-04-22T10:00:12Z</time>
      </trkpt>
      <trkpt lat="50.12613" lon="1.78326">
        <ele>5.4</ele>
        <time>2022-04-22T10:00:13Z</time>
      </trkpt>
      <trkpt lat="50.12613" lon="1.78326">
        <ele>5.4</ele>
        <time>2022-04-22T10:00:14Z</time>
      </trkpt>
      <trkpt lat="50.12613" lon="1.78325">
        <ele>5.4</ele>
        <time>2022-04-22T10:00:15Z</time>
      </trkpt>
      <trkpt lat="50.12613" lon="1.78325">
        <ele>5.4</ele>
        <time>2022-04-22T10:00:16Z</time>
      </trkpt>
      <trkpt lat="50.12613" lon="1.78325">
        <ele>5.4</ele>
        <time>2022-04-22T10:00:17Z</time>
      </trkpt>
      <trkpt lat="50.12613" lon="1.78325">
        <ele>5.4</ele>
        <time>2022-04-22T10:00:18Z</time>
      </trkpt>
      <trkpt lat="50.12613" lon="1.78325">
        <ele>5.4</ele>
        <time>2022-04-22T10:00:19Z</time>
      </trkpt>
      <trkpt lat="50.12613" lon="1.78325">
        <ele>5.4</ele>
        <time>2022-04-22T10:00:20Z</time>
      </trkpt>
      <trkpt lat="50.12613" lon="1.78325">
        <ele>5.4</ele>
        <time>2022-04-22T10:00:21Z</time>
      </trkpt>
      <trkpt lat="50.12613" lon="1.78325">
        <ele>5.4</ele>
        <time>2022-04-22T10:00:22Z</time>
      </trkpt>
      <trkpt lat="50.12613" lon="1.78325">
        <ele>5.4</ele>
        <time>2022-04-22T10:00:23Z</time>
      </trkpt>
      <trkpt lat="50.12613" lon="1.78325">
        <ele>5.4</ele>
        <time>2022-04-22T10:00:24Z</time>
      </trkpt>
      <trkpt lat="50.12613" lon="1.78325">
        <ele>5.4</ele>
        <time>2022-04-22T10:00:25Z</time>
      </trkpt>
      <trkpt lat="50.12613" lon="1.78325">
        <ele>5.4</ele>
        <time>2022-04-22T10:00:26Z</time>
      </trkpt>
      <trkpt lat="50.12613" lon="1.78325">
        <ele>5.4</ele>
        <time>2022-04-22T10:00:27Z</time>
      </trkpt>
      <trkpt lat="50.12613" lon="1.78325">
        <ele>5.4</ele>
        <time>2022-04-22T10:00:28Z</time>
      </trkpt>
      <trkpt lat="50.12613" lon="1.78325">
        <ele>5.4</ele>
        <time>2022-04-22T10:00:29Z</time>
      </trkpt>
      <trkpt lat="50.12613" lon="1.78325">
        <ele>5.4</ele>
        <time>2022-04-22T10:00:30Z</time>
      </trkpt>
      <trkpt lat="50.12613" lon="1.78325">
        <ele>5.4</ele>
        <time>2022-04-22T10:00:31Z</time>
      </trkpt>
      <trkpt lat="50.12613" lon="1.78325">
        <ele>5.4</ele>
        <time>2022-04-22T10:00:32Z</time>
      </trkpt>
      <trkpt lat="50.12613" lon="1.78325">
        <ele>5.4</ele>
        <time>2022-04-22T10:00:33Z</time>
      </trkpt>
      <trkpt lat="50.12613" lon="1.78325">
        <ele>5.4</ele>
        <time>2022-04-22T10:00:34Z</time>
      </trkpt>
      <trkpt lat="50.12613" lon="1.78325">
        <ele>5.4</ele>
        <time>2022-04-22T10:00:35Z</time>
      </trkpt>
      <trkpt lat="50.12613" lon="1.78325">
        <ele>5.4</ele>
        <time>2022-04-22T10:00:36Z</time>
      </trkpt>
      <trkpt lat="50.12613" lon="1.78325">
        <ele>5.4</ele>
        <time>2022-04-22T10:00:37Z</time>
      </trkpt>
      <trkpt lat="50.12613" lon="1.78325">
        <ele>5.4</ele>
        <time>2022-04-22T10:00:38Z</time>
      </trkpt>
      <trkpt lat="50.12613" lon="1.78325">
        <ele>5.4</ele>
        <time>2022-04-22T10:00:39Z</time>
      </trkpt>
      <trkpt lat="50.12613" lon="1.78324">
        <ele>5.4</ele>
        <time>2022-04-22T10:00:40Z</time>
      </trkpt>
      <trkpt lat="50.12613" lon="1.78324">
        <ele>5.4</ele>
        <time>2022-04-22T10:00:41Z</time>
      </trkpt>
      <trkpt lat="50.12613" lon="1.78324">
        <ele>5.4</ele>
        <time>2022-04-22T10:00:42Z</time>
      </trkpt>
      <trkpt lat="50.12613" lon="1.78324">
        <ele>5.4</ele>
        <time>2022-04-22T10:00:43Z</time>
      </trkpt>
      <trkpt lat="50.12613" lon="1.78324">
        <ele>5.4</ele>
        <time>2022-04-22T10:00:44Z</time>
      </trkpt>
      <trkpt lat="50.12613" lon="1.78324">
        <ele>5.4</ele>
        <time>2022-04-22T10:00:45Z</time>
      </trkpt>
      <trkpt lat="50.12613" lon="1.78324">
        <ele>5.4</ele>
        <time>2022-04-22T10:00:46Z</time>
      </trkpt>
      <trkpt lat="50.12612" lon="1.78324">
        <ele>5.4</ele>
        <time>2022-04-22T10:00:47Z</time>
      </trkpt>
      <trkpt lat="50.12612" lon="1.78324">
        <ele>5.4</ele>
        <time>2022-04-22T10:00:48Z</time>
      </trkpt>
      <trkpt lat="50.12612" lon="1.78324">
        <ele>5.4</ele>
        <time>2022-04-22T10:00:49Z</time>
      </trkpt>
      <trkpt lat="50.12612" lon="1.78324">
        <ele>5.4</ele>
        <time>2022-04-22T10:00:50Z</time>
      </trkpt>
      <trkpt lat="50.12612" lon="1.78324">
        <ele>5.4</ele>
        <time>2022-04-22T10:00:51Z</time>
      </trkpt>
      <trkpt lat="50.12612" lon="1.78324">
        <ele>5.4</ele>
        <time>2022-04-22T10:00:52Z</time>
      </trkpt>
      <trkpt lat="50.12612" lon="1.78324">
        <ele>5.4</ele>
        <time>2022-04-22T10:00:53Z</time>
      </trkpt>
      <trkpt lat="50.12612" lon="1.78324">
        <ele>5.4</ele>
        <time>2022-04-22T10:00:54Z</time>
      </trkpt>
      <trkpt lat="50.12612" lon="1.78324">
        <ele>5.4</ele>
        <time>2022-04-22T10:00:55Z</time>
      </trkpt>
      <trkpt lat="50.12612" lon="1.78324">
        <ele>5.4</ele>
        <time>2022-04-22T10:00:56Z</time>
      </trkpt>
      <trkpt lat="50.12612" lon="1.78324">
        <ele>5.4</ele>
        <time>2022-04-22T10:00:57Z</time>
      </trkpt>
      <trkpt lat="50.12612" lon="1.78324">
        <ele>5.4</ele>
        <time>2022-04-22T10:00:58Z</time>
      </trkpt>
      <trkpt lat="50.12612" lon="1.78324">
        <ele>5.4</ele>
        <time>2022-04-22T10:00:59Z</time>
      </trkpt>
      <trkpt lat="50.12612" lon="1.78324">
        <ele>5.4</ele>
        <time>2022-04-22T10:01:00Z</time>
      </trkpt>
      <trkpt lat="50.12612" lon="1.78324">
        <ele>5.4</ele>
        <time>2022-04-22T10:01:01Z</time>
      </trkpt>
      <trkpt lat="50.12612" lon="1.78324">
        <ele>5.4</ele>
        <time>2022-04-22T10:01:02Z</time>
      </trkpt>
      <trkpt lat="50.12612" lon="1.78324">
        <ele>5.4</ele>
        <time>2022-04-22T10:01:03Z</time>
      </trkpt>
      <trkpt lat="50.12612" lon="1.78323">
        <ele>5.4</ele>
        <time>2022-04-22T10:01:04Z</time>
      </trkpt>
      <trkpt lat="50.12612" lon="1.78323">
        <ele>5.4</ele>
        <time>2022-04-22T10:01:05Z</time>
      </trkpt>
      <trkpt lat="50.12612" lon="1.78323">
        <ele>5.4</ele>
        <time>2022-04-22T10:01:06Z</time>
      </trkpt>
      <trkpt lat="50.12612" lon="1.78323">
        <ele>5.4</ele>
        <time>2022-04-22T10:01:07Z</time>
      </trkpt>
      <trkpt lat="50.12612" lon="1.78323">
        <ele>5.4</ele>
        <time>2022-04-22T10:01:08Z</time>
      </trkpt>
      <trkpt lat="50.12612" lon="1.78323">
        <ele>5.4</ele>
        <time>2022-04-22T10:01:09Z</time>
      </trkpt>
      <trkpt lat="50.12612" lon="1.78323">
        <ele>5.4</ele>
        <time>2022-04-22T10:01:10Z</time>
      </trkpt>
      <trkpt lat="50.12612" lon="1.78323">
        <ele>5.4</ele>
        <time>2022-04-22T10:01:11Z</time>
      </trkpt>
      <trkpt lat="50.12612" lon="1.78323">
        <ele>5.4</ele>
        <time>2022-04-22T10:01:12Z</time>
      </trkpt>
      <trkpt lat="50.12612" lon="1.78323">
        <ele>5.4</ele>
        <time>2022-04-22T10:01:13Z</time>
      </trkpt>
      <trkpt lat="50.12612" lon="1.78323">
        <ele>5.4</ele>
        <time>2022-04-22T10:01:14Z</time>
      </trkpt>
      <trkpt lat="50.12612" lon="1.78323">
        <ele>5.4</ele>
        <time>2022-04-22T10:01:15Z</time>
      </trkpt>
      <trkpt lat="50.12612" lon="1.78323">
        <ele>5.4</ele>
        <time>2022-04-22T10:01:16Z</time>
      </trkpt>
      <trkpt lat="50.12612" lon="1.78323">
        <ele>5.4</ele>
        <time>2022-04-22T10:01:17Z</time>
      </trkpt>
      <trkpt lat="50.12612" lon="1.78323">
        <ele>5.4</ele>
        <time>2022-04-22T10:01:18Z</time>
      </trkpt>
      <trkpt lat="50.12612" lon="1.78323">
        <ele>5.4</ele>
        <time>2022-04-22T10:01:19Z</time>
      </trkpt>
      <trkpt lat="50.12612" lon="1.78323">
        <ele>5.4</ele>
        <time>2022-04-22T10:01:20Z</time>
      </trkpt>
      <trkpt lat="50.12612" lon="1.78323">
        <ele>5.4</ele>
        <time>2022-04-22T10:01:21Z</time>
      </trkpt>
      <trkpt lat="50.12612" lon="1.78323">
        <ele>5.4</ele>
        <time>2022-04-22T10:01:22Z</time>
      </trkpt>
      <trkpt lat="50.12612" lon="1.78323">
        <ele>5.4</ele>
        <time>2022-04-22T10:01:23Z</time>
      </trkpt>
      <trkpt lat="50.12612" lon="1.78323">
        <ele>5.4</ele>
        <time>2022-04-22T10:01:24Z</time>
      </trkpt>
      <trkpt lat="50.12612" lon="1.78323">
        <ele>5.4</ele>
        <time>2022-04-22T10:01:25Z</time>
      </trkpt>
      <trkpt lat="50.12612" lon="1.78323">
        <ele>5.4</ele>
        <time>2022-04-22T10:01:26Z</time>
      </trkpt>
      <trkpt lat="50.12612" lon="1.78323">
        <ele>5.4</ele>
        <time>2022-04-22T10:01:27Z</time>
      </trkpt>
      <trkpt lat="50.12612" lon="1.78323">
        <ele>5.4</ele>
        <time>2022-04-22T10:01:28Z</time>
      </trkpt>
      <trkpt lat="50.12612" lon="1.78322">
        <ele>5.4</ele>
        <time>2022-04-22T10:01:29Z</time>
      </trkpt>
      <trkpt lat="50.12612" lon="1.78322">
        <ele>5.4</ele>
        <time>2022-04-22T10:01:30Z</time>
      </trkpt>
      <trkpt lat="50.12612" lon="1.78322">
        <ele>5.4</ele>
        <time>2022-04-22T10:01:31Z</time>
      </trkpt>
      <trkpt lat="50.12612" lon="1.78322">
        <ele>5.4</ele>
        <time>2022-04-22T10:01:32Z</time>
      </trkpt>
      <trkpt lat="50.12612" lon="1.78322">
        <ele>5.4</ele>
        <time>2022-04-22T10:01:33Z</time>
      </trkpt>
      <trkpt lat="50.12612" lon="1.78322">
        <ele>5.4</ele>
        <time>2022-04-22T10:01:34Z</time>
      </trkpt>
      <trkpt lat="50.12612" lon="1.78322">
        <ele>5.4</ele>
        <time>2022-04-22T10:01:35Z</time>
      </trkpt>
      <trkpt lat="50.12612" lon="1.78322">
        <ele>5.4</ele>
        <time>2022-04-22T10:01:36Z</time>
      </trkpt>
      <trkpt lat="50.12612" lon="1.78322">
        <ele>5.4</ele>
        <time>2022-04-22T10:01:37Z</time>
      </trkpt>
      <trkpt lat="50.12612" lon="1.78322">
        <ele>5.4</ele>
        <time>2022-04-22T10:01:38Z</time>
      </trkpt>
      <trkpt lat="50.12612" lon="1.78322">
        <ele>5.4</ele>
        <time>2022-04-22T10:01:39Z</time>
      </trkpt>
      <trkpt lat="50.12612" lon="1.78322">
        <ele>5.4</ele>
        <time>2022-04-22T10:01:40Z</time>
      </trkpt>
      <trkpt lat="50.12612" lon="1.78322">
        <ele>5.4</ele>
        <time>2022-04-22T10:01:41Z</time>
      </trkpt>
      <trkpt lat="50.12612" lon="1.78322">
        <ele>5.4</ele>
        <time>2022-04-22T10:01:42Z</time>
      </trkpt>
      <trkpt lat="50.12612" lon="1.78322">
        <ele>5.4</ele>
        <time>2022-04-22T10:01:43Z</time>
      </trkpt>
      <trkpt lat="50.12611" lon="1.78322">
        <ele>5.4</ele>
        <time>2022-04-22T10:01:44Z</time>
      </trkpt>
      <trkpt lat="50.12611" lon="1.78322">
        <ele>5.4</ele>
        <time>2022-04-22T10:01:45Z</time>
      </trkpt>
      <trkpt lat="50.12611" lon="1.78322">
        <ele>5.4</ele>
        <time>2022-04-22T10:01:46Z</time>
      </trkpt>
      <trkpt lat="50.12611" lon="1.78322">
        <ele>5.4</ele>
        <time>2022-04-22T10:01:47Z</time>
      </trkpt>
      <trkpt lat="50.12611" lon="1.78322">
        <ele>5.4</ele>
        <time>2022-04-22T10:01:48Z</time>
      </trkpt>
      <trkpt lat="50.12611" lon="1.78322">
        <ele>5.4</ele>
        <time>2022-04-22T10:01:49Z</time>
      </trkpt>
      <trkpt lat="50.12611" lon="1.78322">
        <ele>5.4</ele>
        <time>2022-04-22T10:01:50Z</time>
      </trkpt>
      <trkpt lat="50.12611" lon="1.78322">
        <ele>5.4</ele>
        <time>2022-04-22T10:01:51Z</time>
      </trkpt>
      <trkpt lat="50.12611" lon="1.78322">
        <ele>5.4</ele>
        <time>2022-04-22T10:01:52Z</time>
      </trkpt>
      <trkpt lat="50.12611" lon="1.78322">
        <ele>5.4</ele>
        <time>2022-04-22T10:01:53Z</time>
      </trkpt>
      <trkpt lat="50.12611" lon="1.78321">
        <ele>5.4</ele>
        <time>2022-04-22T10:01:54Z</time>
      </trkpt>
      <trkpt lat="50.12611" lon="1.78321">
        <ele>5.4</ele>
        <time>2022-04-22T10:01:55Z</time>
      </trkpt>
      <trkpt lat="50.12611" lon="1.78321">
        <ele>5.4</ele>
        <time>2022-04-22T10:01:56Z</time>
      </trkpt>
      <trkpt lat="50.12611" lon="1.78321">
        <ele>5.4</ele>
        <time>2022-04-22T10:01:57Z</time>
      </trkpt>
      <trkpt lat="50.12611" lon="1.78321">
        <ele>5.4</ele>
        <time>2022-04-22T10:01:58Z</time>
      </trkpt>
      <trkpt lat="50.12611" lon="1.78321">
        <ele>5.4</ele>
        <time>2022-04-22T10:01:59Z</time>
      </trkpt>
      <trkpt lat="50.12611" lon="1.78321">
        <ele>5.4</ele>
        <time>2022-04-22T10:02:00Z</time>
      </trkpt>
      <trkpt lat="50.12611" lon="1.78321">
        <ele>5.4</ele>
        <time>2022-04-22T10:02:01Z</time>
      </trkpt>
      <trkpt lat="50.12611" lon="1.78321">
        <ele>5.4</ele>
        <time>2022-04-22T10:02:02Z</time>
      </trkpt>
      <trkpt lat="50.12611" lon="1.78319">
        <ele>5.4</ele>
        <time>2022-04-22T10:02:03Z</time>
      </trkpt>
      <trkpt lat="50.12611" lon="1.78319">
        <ele>5.4</ele>
        <time>2022-04-22T10:02:04Z</time>
      </trkpt>
      <trkpt lat="50.12611" lon="1.78319">
        <ele>5.4</ele>
        <time>2022-04-22T10:02:05Z</time>
      </trkpt>
      <trkpt lat="50.12611" lon="1.78319">
        <ele>5.4</ele>
        <time>2022-04-22T10:02:06Z</time>
      </trkpt>
      <trkpt lat="50.12611" lon="1.78319">
        <ele>5.4</ele>
        <time>2022-04-22T10:02:07Z</time>
      </trkpt>
      <trkpt lat="50.12611" lon="1.78319">
        <ele>5.4</ele>
        <time>2022-04-22T10:02:08Z</time>
      </trkpt>
      <trkpt lat="50.12611" lon="1.78319">
        <ele>5.4</ele>
        <time>2022-04-22T10:02:09Z</time>
      </trkpt>
      <trkpt lat="50.12611" lon="1.78319">
        <ele>5.4</ele>
        <time>2022-04-22T10:02:10Z</time>
      </trkpt>
      <trkpt lat="50.12611" lon="1.78319">
        <ele>5.4</ele>
        <time>2022-04-22T10:02:11Z</time>
      </trkpt>
      <trkpt lat="50.12611" lon="1.78319">
        <ele>5.4</ele>
        <time>2022-04-22T10:02:12Z</time>
      </trkpt>
      <trkpt lat="50.12611" lon="1.78319">
        <ele>5.4</ele>
        <time>2022-04-22T10:02:13Z</time>
      </trkpt>
      <trkpt lat="50.12611" lon="1.78319">
        <ele>5.4</ele>
        <time>2022-04-22T10:02:14Z</time>
      </trkpt>
      <trkpt lat="50.12611" lon="1.78319">
        <ele>5.4</ele>
        <time>2022-04-22T10:02:15Z</time>
      </trkpt>
      <trkpt lat="50.12611" lon="1.78319">
        <ele>5.4</ele>
        <time>2022-04-22T10:02:16Z</time>
      </trkpt>
      <trkpt lat="50.12611" lon="1.78319">
        <ele>5.4</ele>
        <time>2022-04-22T10:02:17Z</time>
      </trkpt>
      <trkpt lat="50.12611" lon="1.78319">
        <ele>5.4</ele>
        <time>2022-04-22T10:02:18Z</time>
      </trkpt>
      <trkpt lat="50.12611" lon="1.78319">
        <ele>5.4</ele>
        <time>2022-04-22T10:02:19Z</time>
      </trkpt>
      <trkpt lat="50.12611" lon="1.78319">
        <ele>5.4</ele>
        <time>2022-04-22T10:02:20Z</time>
      </trkpt>
      <trkpt lat="50.12611" lon="1.78319">
        <ele>5.4</ele>
        <time>2022-04-22T10:02:21Z</time>
      </trkpt>
      <trkpt lat="50.12611" lon="1.78319">
        <ele>5.4</ele>
        <time>2022-04-22T10:02:22Z</time>
      </trkpt>
      <trkpt lat="50.12612" lon="1.78319">
        <ele>5.4</ele>
        <time>2022-04-22T10:02:23Z</time>
      </trkpt>
      <trkpt lat="50.12612" lon="1.78319">
        <ele>5.4</ele>
        <time>2022-04-22T10:02:24Z</time>
      </trkpt>
      <trkpt lat="50.12612" lon="1.78319">
        <ele>5.4</ele>
        <time>2022-04-22T10:02:25Z</time>
      </trkpt>
      <trkpt lat="50.12612" lon="1.78318">
        <ele>5.4</ele>
        <time>2022-04-22T10:02:26Z</time>
      </trkpt>
      <trkpt lat="50.12612" lon="1.78318">
        <ele>5.4</ele>
        <time>2022-04-22T10:02:27Z</time>
      </trkpt>
      <trkpt lat="50.12612" lon="1.78318">
        <ele>5.4</ele>
        <time>2022-04-22T10:02:28Z</time>
      </trkpt>
      <trkpt lat="50.12612" lon="1.78318">
        <ele>5.4</ele>
        <time>2022-04-22T10:02:29Z</time>
      </trkpt>
      <trkpt lat="50.12612" lon="1.78318">
        <ele>5.4</ele>
        <time>2022-04-22T10:02:30Z</time>
      </trkpt>
      <trkpt lat="50.12612" lon="1.78318">
        <ele>5.4</ele>
        <time>2022-04-22T10:02:31Z</time>
      </trkpt>
      <trkpt lat="50.12612" lon="1.78318">
        <ele>5.4</ele>
        <time>2022-04-22T10:02:32Z</time>
      </trkpt>
      <trkpt lat="50.12612" lon="1.78318">
        <ele>5.4</ele>
        <time>2022-04-22T10:02:34Z</time>
      </trkpt>
      <trkpt lat="50.12612" lon="1.78318">
        <ele>5.4</ele>
        <time>2022-04-22T10:02:35Z</time>
      </trkpt>
      <trkpt lat="50.12612" lon="1.78318">
        <ele>5.4</ele>
        <time>2022-04-22T10:02:36Z</time>
      </trkpt>
      <trkpt lat="50.12612" lon="1.78318">
        <ele>5.4</ele>
        <time>2022-04-22T10:02:37Z</time>
      </trkpt>
      <trkpt lat="50.12612" lon="1.78318">
        <ele>5.4</ele>
        <time>2022-04-22T10:02:38Z</time>
      </trkpt>
      <trkpt lat="50.12612" lon="1.78318">
        <ele>5.4</ele>
        <time>2022-04-22T10:02:39Z</time>
      </trkpt>
      <trkpt lat="50.12612" lon="1.78318">
        <ele>5.4</ele>
        <time>2022-04-22T10:02:40Z</time>
      </trkpt>
      <trkpt lat="50.12612" lon="1.78318">
        <ele>5.4</ele>
        <time>2022-04-22T10:02:41Z</time>
      </trkpt>
      <trkpt lat="50.12612" lon="1.78318">
        <ele>5.4</ele>
        <time>2022-04-22T10:02:42Z</time>
      </trkpt>
      <trkpt lat="50.12612" lon="1.78318">
        <ele>5.4</ele>
        <time>2022-04-22T10:02:43Z</time>
      </trkpt>
      <trkpt lat="50.12612" lon="1.78318">
        <ele>5.4</ele>
        <time>2022-04-22T10:02:44Z</time>
      </trkpt>
      <trkpt lat="50.12612" lon="1.78318">
        <ele>5.4</ele>
        <time>2022-04-22T10:02:45Z</time>
      </trkpt>
      <trkpt lat="50.12612" lon="1.78318">
        <ele>5.4</ele>
        <time>2022-04-22T10:02:46Z</time>
      </trkpt>
      <trkpt lat="50.12612" lon="1.78318">
        <ele>5.4</ele>
        <time>2022-04-22T10:02:47Z</time>
      </trkpt>
      <trkpt lat="50.12612" lon="1.78318">
        <ele>5.4</ele>
        <time>2022-04-22T10:02:48Z</time>
      </trkpt>
      <trkpt lat="50.12612" lon="1.78318">
        <ele>5.4</ele>
        <time>2022-04-22T10:02:49Z</time>
      </trkpt>
      <trkpt lat="50.12612" lon="1.78317">
        <ele>5.4</ele>
        <time>2022-04-22T10:02:50Z</time>
      </trkpt>
      <trkpt lat="50.12612" lon="1.78317">
        <ele>5.4</ele>
        <time>2022-04-22T10:02:51Z</time>
      </trkpt>
      <trkpt lat="50.12613" lon="1.78317">
        <ele>5.4</ele>
        <time>2022-04-22T10:02:52Z</time>
      </trkpt>
      <trkpt lat="50.12613" lon="1.78317">
        <ele>5.4</ele>
        <time>2022-04-22T10:02:53Z</time>
      </trkpt>
      <trkpt lat="50.12613" lon="1.78317">
        <ele>5.4</ele>
        <time>2022-04-22T10:02:54Z</time>
      </trkpt>
      <trkpt lat="50.12613" lon="1.78317">
        <ele>5.4</ele>
        <time>2022-04-22T10:02:55Z</time>
      </trkpt>
      <trkpt lat="50.12613" lon="1.78317">
        <ele>5.4</ele>
        <time>2022-04-22T10:02:56Z</time>
      </trkpt>
      <trkpt lat="50.12613" lon="1.78317">
        <ele>5.4</ele>
        <time>2022-04-22T10:02:57Z</time>
      </trkpt>
      <trkpt lat="50.12613" lon="1.78317">
        <ele>5.4</ele>
        <time>2022-04-22T10:02:58Z</time>
      </trkpt>
      <trkpt lat="50.12613" lon="1.78317">
        <ele>5.4</ele>
        <time>2022-04-22T10:02:59Z</time>
      </trkpt>
      <trkpt lat="50.12613" lon="1.78317">
        <ele>5.4</ele>
        <time>2022-04-22T10:03:00Z</time>
      </trkpt>
      <trkpt lat="50.12613" lon="1.78317">
        <ele>5.4</ele>
        <time>2022-04-22T10:03:01Z</time>
      </trkpt>
      <trkpt lat="50.12613" lon="1.78317">
        <ele>5.4</ele>
        <time>2022-04-22T10:03:02Z</time>
      </trkpt>
      <trkpt lat="50.12613" lon="1.78317">
        <ele>5.4</ele>
        <time>2022-04-22T10:03:03Z</time>
      </trkpt>
      <trkpt lat="50.12613" lon="1.78317">
        <ele>5.4</ele>
        <time>2022-04-22T10:03:04Z</time>
      </trkpt>
      <trkpt lat="50.12613" lon="1.78317">
        <ele>5.4</ele>
        <time>2022-04-22T10:03:05Z</time>
      </trkpt>
      <trkpt lat="50.12613" lon="1.78317">
        <ele>5.4</ele>
        <time>2022-04-22T10:03:06Z</time>
      </trkpt>
      <trkpt lat="50.12613" lon="1.78317">
        <ele>5.4</ele>
        <time>2022-04-22T10:03:07Z</time>
      </trkpt>
      <trkpt lat="50.12613" lon="1.78317">
        <ele>5.4</ele>
        <time>2022-04-22T10:03:08Z</time>
      </trkpt>
      <trkpt lat="50.12613" lon="1.78317">
        <ele>5.4</ele>
        <time>2022-04-22T10:03:09Z</time>
      </trkpt>
      <trkpt lat="50.12613" lon="1.78317">
        <ele>5.4</ele>
        <time>2022-04-22T10:03:10Z</time>
      </trkpt>
      <trkpt lat="50.12613" lon="1.78317">
        <ele>5.4</ele>
        <time>2022-04-22T10:03:11Z</time>
      </trkpt>
      <trkpt lat="50.12613" lon="1.78317">
        <ele>5.4</ele>
        <time>2022-04-22T10:03:12Z</time>
      </trkpt>
      <trkpt lat="50.12613" lon="1.78316">
        <ele>5.4</ele>
        <time>2022-04-22T10:03:13Z</time>
      </trkpt>
      <trkpt lat="50.12613" lon="1.78316">
        <ele>5.4</ele>
        <time>2022-04-22T10:03:14Z</time>
      </trkpt>
      <trkpt lat="50.12613" lon="1.78316">
        <ele>5.4</ele>
        <time>2022-04-22T10:03:15Z</time>
      </trkpt>
      <trkpt lat="50.12613" lon="1.78316">
        <ele>5.4</ele>
        <time>2022-04-22T10:03:16Z</time>
      </trkpt>
      <trkpt lat="50.12613" lon="1.78316">
        <ele>5.4</ele>
        <time>2022-04-22T10:03:17Z</time>
      </trkpt>
      <trkpt lat="50.12613" lon="1.78316">
        <ele>5.4</ele>
        <time>2022-04-22T10:03:18Z</time>
      </trkpt>
      <trkpt lat="50.12613" lon="1.78316">
        <ele>5.4</ele>
        <time>2022-04-22T10:03:19Z</time>
      </trkpt>
      <trkpt lat="50.12614" lon="1.78316">
        <ele>5.4</ele>
        <time>2022-04-22T10:03:20Z</time>
      </trkpt>
      <trkpt lat="50.12614" lon="1.78316">
        <ele>5.4</ele>
        <time>2022-04-22T10:03:21Z</time>
      </trkpt>
      <trkpt lat="50.12614" lon="1.78316">
        <ele>5.4</ele>
        <time>2022-04-22T10:03:22Z</time>
      </trkpt>
      <trkpt lat="50.12614" lon="1.78316">
        <ele>5.4</ele>
        <time>2022-04-22T10:03:23Z</time>
      </trkpt>
      <trkpt lat="50.12614" lon="1.78316">
        <ele>5.4</ele>
        <time>2022-04-22T10:03:24Z</time>
      </trkpt>
      <trkpt lat="50.12614" lon="1.78316">
        <ele>5.4</ele>
        <time>2022-04-22T10:03:25Z</time>
      </trkpt>
      <trkpt lat="50.12614" lon="1.78316">
        <ele>5.4</ele>
        <time>2022-04-22T10:03:26Z</time>
      </trkpt>
      <trkpt lat="50.12614" lon="1.78316">
        <ele>5.4</ele>
        <time>2022-04-22T10:03:27Z</time>
      </trkpt>
      <trkpt lat="50.12614" lon="1.78316">
        <ele>5.4</ele>
        <time>2022-04-22T10:03:28Z</time>
      </trkpt>
      <trkpt lat="50.12614" lon="1.78316">
        <ele>5.4</ele>
        <time>2022-04-22T10:03:29Z</time>
      </trkpt>
      <trkpt lat="50.12614" lon="1.78316">
        <ele>5.4</ele>
        <time>2022-04-22T10:03:30Z</time>
      </trkpt>
      <trkpt lat="50.12614" lon="1.78316">
        <ele>5.4</ele>
        <time>2022-04-22T10:03:31Z</time>
      </trkpt>
      <trkpt lat="50.12614" lon="1.78316">
        <ele>5.4</ele>
        <time>2022-04-22T10:03:32Z</time>
      </trkpt>
      <trkpt lat="50.12614" lon="1.78316">
        <ele>5.4</ele>
        <time>2022-04-22T10:03:33Z</time>
      </trkpt>
      <trkpt lat="50.12614" lon="1.78316">
        <ele>5.4</ele>
        <time>2022-04-22T10:03:34Z</time>
      </trkpt>
      <trkpt lat="50.12614" lon="1.78316">
        <ele>5.4</ele>
        <time>2022-04-22T10:03:35Z</time>
      </trkpt>
      <trkpt lat="50.12614" lon="1.78315">
        <ele>5.4</ele>
        <time>2022-04-22T10:03:36Z</time>
      </trkpt>
      <trkpt lat="50.12614" lon="1.78315">
        <ele>5.4</ele>
        <time>2022-04-22T10:03:37Z</time>
      </trkpt>
      <trkpt lat="50.12614" lon="1.78315">
        <ele>5.4</ele>
        <time>2022-04-22T10:03:38Z</time>
      </trkpt>
      <trkpt lat="50.12614" lon="1.78315">
        <ele>5.4</ele>
        <time>2022-04-22T10:03:39Z</time>
      </trkpt>
      <trkpt lat="50.12614" lon="1.78315">
        <ele>5.4</ele>
        <time>2022-04-22T10:03:40Z</time>
      </trkpt>
      <trkpt lat="50.12614" lon="1.78315">
        <ele>5.4</ele>
        <time>2022-04-22T10:03:41Z</time>
      </trkpt>
      <trkpt lat="50.12614" lon="1.78315">
        <ele>5.4</ele>
        <time>2022-04-22T10:03:42Z</time>
      </trkpt>
      <trkpt lat="50.12614" lon="1.78315">
        <ele>5.4</ele>
        <time>2022-04-22T10:03:43Z</time>
      </trkpt>
      <trkpt lat="50.12614" lon="1.78315">
        <ele>5.4</ele>
        <time>2022-04-22T10:03:44Z</time>
      </trkpt>
      <trkpt lat="50.12614" lon="1.78315">
        <ele>5.4</ele>
        <time>2022-04-22T10:03:45Z</time>
      </trkpt>
      <trkpt lat="50.12614" lon="1.78315">
        <ele>5.4</ele>
        <time>2022-04-22T10:03:46Z</time>
      </trkpt>
      <trkpt lat="50.12614" lon="1.78315">
        <ele>5.4</ele>
        <time>2022-04-22T10:03:47Z</time>
      </trkpt>
      <trkpt lat="50.12615" lon="1.78315">
        <ele>5.4</ele>
        <time>2022-04-22T10:03:48Z</time>
      </trkpt>
      <trkpt lat="50.12615" lon="1.78315">
        <ele>5.4</ele>
        <time>2022-04-22T10:03:49Z</time>
      </trkpt>
      <trkpt lat="50.12615" lon="1.78315">
        <ele>5.4</ele>
        <time>2022-04-22T10:03:50Z</time>
      </trkpt>
      <trkpt lat="50.12615" lon="1.78315">
        <ele>5.4</ele>
        <time>2022-04-22T10:03:51Z</time>
      </trkpt>
      <trkpt lat="50.12615" lon="1.78315">
        <ele>5.4</ele>
        <time>2022-04-22T10:03:52Z</time>
      </trkpt>
      <trkpt lat="50.12615" lon="1.78315">
        <ele>5.4</ele>
        <time>2022-04-22T10:03:53Z</time>
      </trkpt>
      <trkpt lat="50.12615" lon="1.78315">
        <ele>5.4</ele>
        <time>2022-04-22T10:03:54Z</time>
      </trkpt>
      <trkpt lat="50.12615" lon="1.78315">
        <ele>5.4</ele>
        <time>2022-04-22T10:03:55Z</time>
      </trkpt>
      <trkpt lat="50.12615" lon="1.78315">
        <ele>5.4</ele>
        <time>2022-04-22T10:03:56Z</time>
      </trkpt>
      <trkpt lat="50.12615" lon="1.78315">
        <ele>5.4</ele>
        <time>2022-04-22T10:03:57Z</time>
      </trkpt>
      <trkpt lat="50.12615" lon="1.78315">
        <ele>5.4</ele>
        <time>2022-04-22T10:03:58Z</time>
      </trkpt>
      <trkpt lat="50.12615" lon="1.78314">
        <ele>5.4</ele>
        <time>2022-04-22T10:03:59Z</time>
      </trkpt>
      <trkpt lat="50.12615" lon="1.78314">
        <ele>5.4</ele>
        <time>2022-04-22T10:04:00Z</time>
      </trkpt>
      <trkpt lat="50.12615" lon="1.78314">
        <ele>5.4</ele>
        <time>2022-04-22T10:04:01Z</time>
      </trkpt>
      <trkpt lat="50.12615" lon="1.78314">
        <ele>5.4</ele>
        <time>2022-04-22T10:04:02Z</time>
      </trkpt>
      <trkpt lat="50.12615" lon="1.78314">
        <ele>5.4</ele>
        <time>2022-04-22T10:04:03Z</time>
      </trkpt>
      <trkpt lat="50.12615" lon="1.78314">
        <ele>5.4</ele>
        <time>2022-04-22T10:04:04Z</time>
      </trkpt>
      <trkpt lat="50.12615" lon="1.78314">
        <ele>5.4</ele>
        <time>2022-04-22T10:04:05Z</time>
      </trkpt>
      <trkpt lat="50.12615" lon="1.78314">
        <ele>5.4</ele>
        <time>2022-04-22T10:04:06Z</time>
      </trkpt>
      <trkpt lat="50.12615" lon="1.78314">
        <ele>5.4</ele>
        <time>2022-04-22T10:04:07Z</time>
      </trkpt>
      <trkpt lat="50.12615" lon="1.78314">
        <ele>5.4</ele>
        <time>2022-04-22T10:04:08Z</time>
      </trkpt>
      <trkpt lat="50.12615" lon="1.78314">
        <ele>5.4</ele>
        <time>2022-04-22T10:04:09Z</time>
      </trkpt>
      <trkpt lat="50.12615" lon="1.78314">
        <ele>5.4</ele>
        <time>2022-04-22T10:04:10Z</time>
      </trkpt>
      <trkpt lat="50.12615" lon="1.78314">
        <ele>5.4</ele>
        <time>2022-04-22T10:04:11Z</time>
      </trkpt>
      <trkpt lat="50.12615" lon="1.78314">
        <ele>5.4</ele>
        <time>2022-04-22T10:04:12Z</time>
      </trkpt>
      <trkpt lat="50.12615" lon="1.78314">
        <ele>5.4</ele>
        <time>2022-04-22T10:04:13Z</time>
      </trkpt>
      <trkpt lat="50.12615" lon="1.78314">
        <ele>5.4</ele>
        <time>2022-04-22T10:04:14Z</time>
      </trkpt>
      <trkpt lat="50.12616" lon="1.78314">
        <ele>5.4</ele>
        <time>2022-04-22T10:04:15Z</time>
      </trkpt>
      <trkpt lat="50.12616" lon="1.78314">
        <ele>5.4</ele>
        <time>2022-04-22T10:04:16Z</time>
      </trkpt>
      <trkpt lat="50.12616" lon="1.78314">
        <ele>5.4</ele>
        <time>2022-04-22T10:04:17Z</time>
      </trkpt>
      <trkpt lat="50.12616" lon="1.78314">
        <ele>5.4</ele>
        <time>2022-04-22T10:04:18Z</time>
      </trkpt>
      <trkpt lat="50.12616" lon="1.78314">
        <ele>5.4</ele>
        <time>2022-04-22T10:04:19Z</time>
      </trkpt>
      <trkpt lat="50.12616" lon="1.78314">
        <ele>5.4</ele>
        <time>2022-04-22T10:04:20Z</time>
      </trkpt>
      <trkpt lat="50.12616" lon="1.78314">
        <ele>5.4</ele>
        <time>2022-04-22T10:04:21Z</time>
      </trkpt>
      <trkpt lat="50.12616" lon="1.78314">
        <ele>5.4</ele>
        <time>2022-04-22T10:04:22Z</time>
      </trkpt>
      <trkpt lat="50.12616" lon="1.78313">
        <ele>5.4</ele>
        <time>2022-04-22T10:04:23Z</time>
      </trkpt>
      <trkpt lat="50.12616" lon="1.78313">
        <ele>5.4</ele>
        <time>2022-04-22T10:04:24Z</time>
      </trkpt>
      <trkpt lat="50.12616" lon="1.78313">
        <ele>5.4</ele>
        <time>2022-04-22T10:04:25Z</time>
      </trkpt>
      <trkpt lat="50.12616" lon="1.78313">
        <ele>5.4</ele>
        <time>2022-04-22T10:04:26Z</time>
      </trkpt>
      <trkpt lat="50.12616" lon="1.78313">
        <ele>5.4</ele>
        <time>2022-04-22T10:04:27Z</time>
      </trkpt>
      <trkpt lat="50.12616" lon="1.78313">
        <ele>5.4</ele>
        <time>2022-04-22T10:04:28Z</time>
      </trkpt>
      <trkpt lat="50.12616" lon="1.78313">
        <ele>5.4</ele>
        <time>2022-04-22T10:04:29Z</time>
      </trkpt>
      <trkpt lat="50.12616" lon="1.78313">
        <ele>5.4</ele>
        <time>2022-04-22T10:04:30Z</time>
      </trkpt>
      <trkpt lat="50.12616" lon="1.78313">
        <ele>5.4</ele>
        <time>2022-04-22T10:04:31Z</time>
      </trkpt>
      <trkpt lat="50.12616" lon="1.78313">
        <ele>5.4</ele>
        <time>2022-04-22T10:04:32Z</time>
      </trkpt>
      <trkpt lat="50.12616" lon="1.78313">
        <ele>5.4</ele>
        <time>2022-04-22T10:04:33Z</time>
      </trkpt>
      <trkpt lat="50.12616" lon="1.78313">
        <ele>5.4</ele>
        <time>2022-04-22T10:04:34Z</time>
      </trkpt>
      <trkpt lat="50.12616" lon="1.78313">
        <ele>5.4</ele>
        <time>2022-04-22T10:04:35Z</time>
      </trkpt>
      <trkpt lat="50.12616" lon="1.78313">
        <ele>5.4</ele>
        <time>2022-04-22T10:04:36Z</time>
      </trkpt>
      <trkpt lat="50.12616" lon="1.78313">
        <ele>5.4</ele>
        <time>2022-04-22T10:04:37Z</time>
      </trkpt>
      <trkpt lat="50.12616" lon="1.78313">
        <ele>5.4</ele>
        <time>2022-04-22T10:04:38Z</time>
      </trkpt>
      <trkpt lat="50.12616" lon="1.78313">
        <ele>5.4</ele>
        <time>2022-04-22T10:04:39Z</time>
      </trkpt>
      <trkpt lat="50.12616" lon="1.78313">
        <ele>5.4</ele>
        <time>2022-04-22T10:04:40Z</time>
      </trkpt>
      <trkpt lat="50.12616" lon="1.78313">
        <ele>5.4</ele>
        <time>2022-04-22T10:04:41Z</time>
      </trkpt>
      <trkpt lat="50.12616" lon="1.78313">
        <ele>5.4</ele>
        <time>2022-04-22T10:04:42Z</time>
      </trkpt>
      <trkpt lat="50.12617" lon="1.78313">
        <ele>5.4</ele>
        <time>2022-04-22T10:04:43Z</time>
      </trkpt>
      <trkpt lat="50.12617" lon="1.78313">
        <ele>5.4</ele>
        <time>2022-04-22T10:04:44Z</time>
      </trkpt>
      <trkpt lat="50.12617" lon="1.78313">
        <ele>5.4</ele>
        <time>2022-04-22T10:04:45Z</time>
      </trkpt>
      <trkpt lat="50.12617" lon="1.78312">
        <ele>5.4</ele>
        <time>2022-04-22T10:04:46Z</time>
      </trkpt>
      <trkpt lat="50.12617" lon="1.78312">
        <ele>5.4</ele>
        <time>2022-04-22T10:04:47Z</time>
      </trkpt>
      <trkpt lat="50.12617" lon="1.78312">
        <ele>5.4</ele>
        <time>2022-04-22T10:04:48Z</time>
      </trkpt>
      <trkpt lat="50.12617" lon="1.78312">
        <ele>5.4</ele>
        <time>2022-04-22T10:04:49Z</time>
      </trkpt>
      <trkpt lat="50.12617" lon="1.78312">
        <ele>5.4</ele>
        <time>2022-04-22T10:04:50Z</time>
      </trkpt>
      <trkpt lat="50.12617" lon="1.78312">
        <ele>5.4</ele>
        <time>2022-04-22T10:04:51Z</time>
      </trkpt>
      <trkpt lat="50.12617" lon="1.78312">
        <ele>5.4</ele>
        <time>2022-04-22T10:04:52Z</time>
      </trkpt>
      <trkpt lat="50.12617" lon="1.78312">
        <ele>5.4</ele>
        <time>2022-04-22T10:04:53Z</time>
      </trkpt>
      <trkpt lat="50.12617" lon="1.78312">
        <ele>5.4</ele>
        <time>2022-04-22T10:04:54Z</time>
      </trkpt>
      <trkpt lat="50.12617" lon="1.78312">
        <ele>5.4</ele>
        <time>2022-04-22T10:04:55Z</time>
      </trkpt>
      <trkpt lat="50.12617" lon="1.78312">
        <ele>5.4</ele>
        <time>2022-04-22T10:04:56Z</time>
      </trkpt>
      <trkpt lat="50.12617" lon="1.78312">
        <ele>5.4</ele>
        <time>2022-04-22T10:04:57Z</time>
      </trkpt>
      <trkpt lat="50.12617" lon="1.78312">
        <ele>5.4</ele>
        <time>2022-04-22T10:04:58Z</time>
      </trkpt>
      <trkpt lat="50.12617" lon="1.78312">
        <ele>5.4</ele>
        <time>2022-04-22T10:04:59Z</time>
      </trkpt>
      <trkpt lat="50.12617" lon="1.78312">
        <ele>5.4</ele>
        <time>2022-04-22T10:05:00Z</time>
      </trkpt>
      <trkpt lat="50.12617" lon="1.78312">
        <ele>5.4</ele>
        <time>2022-04-22T10:05:01Z</time>
      </trkpt>
      <trkpt lat="50.12617" lon="1.78312">
        <ele>5.4</ele>
        <time>2022-04-22T10:05:02Z</time>
      </trkpt>
      <trkpt lat="50.12617" lon="1.78312">
        <ele>5.4</ele>
        <time>2022-04-22T10:05:03Z</time>
      </trkpt>
      <trkpt lat="50.12617" lon="1.78312">
        <ele>5.4</ele>
        <time>2022-04-22T10:05:04Z</time>
      </trkpt>
      <trkpt lat="50.12617" lon="1.78312">
        <ele>5.4</ele>
        <time>2022-04-22T10:05:05Z</time>
      </trkpt>
      <trkpt lat="50.12617" lon="1.78312">
        <ele>5.4</ele>
        <time>2022-04-22T10:05:06Z</time>
      </trkpt>
      <trkpt lat="50.12617" lon="1.78312">
        <ele>5.4</ele>
        <time>2022-04-22T10:05:07Z</time>
      </trkpt>
      <trkpt lat="50.12617" lon="1.78312">
        <ele>5.4</ele>
        <time>2022-04-22T10:05:08Z</time>
      </trkpt>
      <trkpt lat="50.12617" lon="1.78311">
        <ele>5.4</ele>
        <time>2022-04-22T10:05:09Z</time>
      </trkpt>
      <trkpt lat="50.12617" lon="1.78311">
        <ele>5.4</ele>
        <time>2022-04-22T10:05:10Z</time>
      </trkpt>
      <trkpt lat="50.12618" lon="1.78311">
        <ele>5.4</ele>
        <time>2022-04-22T10:05:11Z</time>
      </trkpt>
      <trkpt lat="50.12618" lon="1.78311">
        <ele>5.4</ele>
        <time>2022-04-22T10:05:12Z</time>
      </trkpt>
      <trkpt lat="50.12618" lon="1.78311">
        <ele>5.4</ele>
        <time>2022-04-22T10:05:13Z</time>
      </trkpt>
      <trkpt lat="50.12618" lon="1.78311">
        <ele>5.4</ele>
        <time>2022-04-22T10:05:14Z</time>
      </trkpt>
      <trkpt lat="50.12618" lon="1.78311">
        <ele>5.4</ele>
        <time>2022-04-22T10:05:15Z</time>
      </trkpt>
      <trkpt lat="50.12618" lon="1.78311">
        <ele>5.4</ele>
        <time>2022-04-22T10:05:16Z</time>
      </trkpt>
      <trkpt lat="50.12618" lon="1.78311">
        <ele>5.4</ele>
        <time>2022-04-22T10:05:17Z</time>
      </trkpt>
      <trkpt lat="50.12618" lon="1.78311">
        <ele>5.4</ele>
        <time>2022-04-22T10:05:18Z</time>
      </trkpt>
      <trkpt lat="50.12618" lon="1.78311">
        <ele>5.4</ele>
        <time>2022-04-22T10:05:19Z</time>
      </trkpt>
      <trkpt lat="50.12618" lon="1.78311">
        <ele>5.4</ele>
        <time>2022-04-22T10:05:20Z</time>
      </trkpt>
      <trkpt lat="50.12618" lon="1.78311">
        <ele>5.4</ele>
        <time>2022-04-22T10:05:21Z</time>
      </trkpt>
      <trkpt lat="50.12618" lon="1.78311">
        <ele>5.4</ele>
        <time>2022-04-22T10:05:22Z</time>
      </trkpt>
      <trkpt lat="50.12621" lon="1.78308">
        <ele>5.4</ele>
        <time>2022-04-22T10:05:23Z</time>
      </trkpt>
      <trkpt lat="50.12622" lon="1.78307">
        <ele>5.4</ele>
        <time>2022-04-22T10:05:24Z</time>
      </trkpt>
      <trkpt lat="50.12622" lon="1.78307">
        <ele>5.4</ele>
        <time>2022-04-22T10:05:25Z</time>
      </trkpt>
      <trkpt lat="50.12622" lon="1.78307">
        <ele>5.4</ele>
        <time>2022-04-22T10:05:26Z</time>
      </trkpt>
      <trkpt lat="50.12622" lon="1.78307">
        <ele>5.4</ele>
        <time>2022-04-22T10:05:27Z</time>
      </trkpt>
      <trkpt lat="50.12622" lon="1.78307">
        <ele>5.4</ele>
        <time>2022-04-22T10:05:28Z</time>
      </trkpt>
      <trkpt lat="50.12622" lon="1.78307">
        <ele>5.4</ele>
        <time>2022-04-22T10:05:29Z</time>
      </trkpt>
      <trkpt lat="50.12623" lon="1.78307">
        <ele>5.4</ele>
        <time>2022-04-22T10:05:30Z</time>
      </trkpt>
      <trkpt lat="50.12623" lon="1.78307">
        <ele>5.4</ele>
        <time>2022-04-22T10:05:31Z</time>
      </trkpt>
      <trkpt lat="50.12623" lon="1.78307">
        <ele>5.4</ele>
        <time>2022-04-22T10:05:32Z</time>
      </trkpt>
      <trkpt lat="50.12623" lon="1.78307">
        <ele>5.4</ele>
        <time>2022-04-22T10:05:33Z</time>
      </trkpt>
      <trkpt lat="50.12623" lon="1.78307">
        <ele>5.4</ele>
        <time>2022-04-22T10:05:34Z</time>
      </trkpt>
      <trkpt lat="50.12623" lon="1.78307">
        <ele>5.4</ele>
        <time>2022-04-22T10:05:35Z</time>
      </trkpt>
      <trkpt lat="50.12623" lon="1.78307">
        <ele>5.4</ele>
        <time>2022-04-22T10:05:36Z</time>
      </trkpt>
      <trkpt lat="50.12622" lon="1.78307">
        <ele>5.4</ele>
        <time>2022-04-22T10:05:37Z</time>
      </trkpt>
      <trkpt lat="50.12622" lon="1.78307">
        <ele>5.4</ele>
        <time>2022-04-22T10:05:38Z</time>
      </trkpt>
      <trkpt lat="50.12622" lon="1.78307">
        <ele>5.4</ele>
        <time>2022-04-22T10:05:39Z</time>
      </trkpt>
      <trkpt lat="50.12622" lon="1.78307">
        <ele>5.4</ele>
        <time>2022-04-22T10:05:40Z</time>
      </trkpt>
      <trkpt lat="50.12622" lon="1.78307">
        <ele>5.4</ele>
        <time>2022-04-22T10:05:41Z</time>
      </trkpt>
      <trkpt lat="50.12622" lon="1.78307">
        <ele>5.4</ele>
        <time>2022-04-22T10:05:42Z</time>
      </trkpt>
      <trkpt lat="50.12622" lon="1.78307">
        <ele>5.4</ele>
        <time>2022-04-22T10:05:43Z</time>
      </trkpt>
      <trkpt lat="50.12622" lon="1.78307">
        <ele>5.4</ele>
        <time>2022-04-22T10:05:44Z</time>
      </trkpt>
      <trkpt lat="50.12622" lon="1.78307">
        <ele>5.4</ele>
        <time>2022-04-22T10:05:45Z</time>
      </trkpt>
      <trkpt lat="50.12622" lon="1.78307">
        <ele>5.4</ele>
        <time>2022-04-22T10:05:46Z</time>
      </trkpt>
      <trkpt lat="50.12622" lon="1.78307">
        <ele>5.4</ele>
        <time>2022-04-22T10:05:47Z</time>
      </trkpt>
      <trkpt lat="50.12622" lon="1.78307">
        <ele>5.4</ele>
        <time>2022-04-22T10:05:48Z</time>
      </trkpt>
      <trkpt lat="50.12622" lon="1.78307">
        <ele>5.4</ele>
        <time>2022-04-22T10:05:49Z</time>
      </trkpt>
      <trkpt lat="50.12622" lon="1.78307">
        <ele>5.4</ele>
        <time>2022-04-22T10:05:50Z</time>
      </trkpt>
      <trkpt lat="50.12622" lon="1.78307">
        <ele>5.4</ele>
        <time>2022-04-22T10:05:51Z</time>
      </trkpt>
      <trkpt lat="50.12622" lon="1.78307">
        <ele>5.4</ele>
        <time>2022-04-22T10:05:52Z</time>
      </trkpt>
      <trkpt lat="50.12622" lon="1.78307">
        <ele>5.4</ele>
        <time>2022-04-22T10:05:53Z</time>
      </trkpt>
      <trkpt lat="50.12622" lon="1.78307">
        <ele>5.4</ele>
        <time>2022-04-22T10:05:54Z</time>
      </trkpt>
      <trkpt lat="50.12622" lon="1.78307">
        <ele>5.4</ele>
        <time>2022-04-22T10:05:55Z</time>
      </trkpt>
      <trkpt lat="50.12622" lon="1.78307">
        <ele>5.4</ele>
        <time>2022-04-22T10:05:56Z</time>
      </trkpt>
      <trkpt lat="50.12622" lon="1.78307">
        <ele>5.4</ele>
        <time>2022-04-22T10:05:57Z</time>
      </trkpt>
      <trkpt lat="50.12622" lon="1.78307">
        <ele>5.4</ele>
        <time>2022-04-22T10:05:58Z</time>
      </trkpt>
      <trkpt lat="50.12622" lon="1.78307">
        <ele>5.4</ele>
        <time>2022-04-22T10:05:59Z</time>
      </trkpt>
      <trkpt lat="50.12622" lon="1.78308">
        <ele>5.4</ele>
        <time>2022-04-22T10:06:00Z</time>
      </trkpt>
      <trkpt lat="50.12622" lon="1.78308">
        <ele>5.4</ele>
        <time>2022-04-22T10:06:01Z</time>
      </trkpt>
      <trkpt lat="50.12622" lon="1.78309">
        <ele>5.4</ele>
        <time>2022-04-22T10:06:02Z</time>
      </trkpt>
      <trkpt lat="50.12622" lon="1.7831">
        <ele>5.4</ele>
        <time>2022-04-22T10:06:03Z</time>
      </trkpt>
      <trkpt lat="50.12622" lon="1.78311">
        <ele>5.4</ele>
        <time>2022-04-22T10:06:04Z</time>
      </trkpt>
      <trkpt lat="50.12622" lon="1.78311">
        <ele>5.4</ele>
        <time>2022-04-22T10:06:05Z</time>
      </trkpt>
      <trkpt lat="50.12621" lon="1.78311">
        <ele>5.4</ele>
        <time>2022-04-22T10:06:06Z</time>
      </trkpt>
      <trkpt lat="50.12621" lon="1.78312">
        <ele>5.4</ele>
        <time>2022-04-22T10:06:07Z</time>
      </trkpt>
      <trkpt lat="50.12621" lon="1.78312">
        <ele>5.4</ele>
        <time>2022-04-22T10:06:08Z</time>
      </trkpt>
      <trkpt lat="50.12621" lon="1.78312">
        <ele>5.4</ele>
        <time>2022-04-22T10:06:09Z</time>
      </trkpt>
      <trkpt lat="50.12621" lon="1.78312">
        <ele>5.4</ele>
        <time>2022-04-22T10:06:10Z</time>
      </trkpt>
      <trkpt lat="50.12621" lon="1.78311">
        <ele>5.4</ele>
        <time>2022-04-22T10:06:11Z</time>
      </trkpt>
      <trkpt lat="50.12621" lon="1.78311">
        <ele>5.4</ele>
        <time>2022-04-22T10:06:12Z</time>
      </trkpt>
      <trkpt lat="50.12621" lon="1.78311">
        <ele>5.4</ele>
        <time>2022-04-22T10:06:14Z</time>
      </trkpt>
      <trkpt lat="50.1262" lon="1.78311">
        <ele>5.4</ele>
        <time>2022-04-22T10:06:15Z</time>
      </trkpt>
      <trkpt lat="50.1262" lon="1.78311">
        <ele>5.4</ele>
        <time>2022-04-22T10:06:16Z</time>
      </trkpt>
      <trkpt lat="50.12619" lon="1.78312">
        <ele>5.4</ele>
        <time>2022-04-22T10:06:17Z</time>
      </trkpt>
      <trkpt lat="50.12619" lon="1.78313">
        <ele>5.4</ele>
        <time>2022-04-22T10:06:18Z</time>
      </trkpt>
      <trkpt lat="50.12619" lon="1.78314">
        <ele>5.4</ele>
        <time>2022-04-22T10:06:19Z</time>
      </trkpt>
      <trkpt lat="50.12619" lon="1.78314">
        <ele>5.4</ele>
        <time>2022-04-22T10:06:20Z</time>
      </trkpt>
      <trkpt lat="50.12619" lon="1.78313">
        <ele>5.4</ele>
        <time>2022-04-22T10:06:21Z</time>
      </trkpt>
      <trkpt lat="50.12619" lon="1.78313">
        <ele>5.4</ele>
        <time>2022-04-22T10:06:22Z</time>
      </trkpt>
      <trkpt lat="50.12619" lon="1.78313">
        <ele>5.4</ele>
        <time>2022-04-22T10:06:23Z</time>
      </trkpt>
      <trkpt lat="50.12619" lon="1.78313">
        <ele>5.4</ele>
        <time>2022-04-22T10:06:24Z</time>
      </trkpt>
      <trkpt lat="50.12619" lon="1.78313">
        <ele>5.4</ele>
        <time>2022-04-22T10:06:25Z</time>
      </trkpt>
      <trkpt lat="50.12619" lon="1.78313">
        <ele>5.4</ele>
        <time>2022-04-22T10:06:26Z</time>
      </trkpt>
      <trkpt lat="50.12619" lon="1.78313">
        <ele>5.4</ele>
        <time>2022-04-22T10:06:27Z</time>
      </trkpt>
      <trkpt lat="50.12619" lon="1.78313">
        <ele>5.4</ele>
        <time>2022-04-22T10:06:28Z</time>
      </trkpt>
      <trkpt lat="50.12619" lon="1.78313">
        <ele>5.4</ele>
        <time>2022-04-22T10:06:29Z</time>
      </trkpt>
      <trkpt lat="50.1262" lon="1.78313">
        <ele>5.4</ele>
        <time>2022-04-22T10:06:30Z</time>
      </trkpt>
      <trkpt lat="50.1262" lon="1.78314">
        <ele>5.4</ele>
        <time>2022-04-22T10:06:31Z</time>
      </trkpt>
      <trkpt lat="50.1262" lon="1.78314">
        <ele>5.4</ele>
        <time>2022-04-22T10:06:32Z</time>
      </trkpt>
      <trkpt lat="50.12619" lon="1.78313">
        <ele>5.4</ele>
        <time>2022-04-22T10:06:33Z</time>
      </trkpt>
      <trkpt lat="50.1262" lon="1.78313">
        <ele>5.4</ele>
        <time>2022-04-22T10:06:34Z</time>
      </trkpt>
      <trkpt lat="50.12619" lon="1.78313">
        <ele>5.4</ele>
        <time>2022-04-22T10:06:35Z</time>
      </trkpt>
      <trkpt lat="50.1262" lon="1.78314">
        <ele>5.4</ele>
        <time>2022-04-22T10:06:36Z</time>
      </trkpt>
      <trkpt lat="50.12621" lon="1.78314">
        <ele>5.4</ele>
        <time>2022-04-22T10:06:37Z</time>
      </trkpt>
      <trkpt lat="50.12621" lon="1.78314">
        <ele>5.4</ele>
        <time>2022-04-22T10:06:38Z</time>
      </trkpt>
      <trkpt lat="50.12621" lon="1.78314">
        <ele>5.4</ele>
        <time>2022-04-22T10:06:39Z</time>
      </trkpt>
      <trkpt lat="50.12621" lon="1.78314">
        <ele>5.4</ele>
        <time>2022-04-22T10:06:40Z</time>
      </trkpt>
      <trkpt lat="50.12621" lon="1.78314">
        <ele>5.4</ele>
        <time>2022-04-22T10:06:41Z</time>
      </trkpt>
      <trkpt lat="50.12621" lon="1.78314">
        <ele>5.4</ele>
        <time>2022-04-22T10:06:42Z</time>
      </trkpt>
      <trkpt lat="50.12621" lon="1.78314">
        <ele>5.4</ele>
        <time>2022-04-22T10:06:43Z</time>
      </trkpt>
      <trkpt lat="50.12621" lon="1.78314">
        <ele>5.4</ele>
        <time>2022-04-22T10:06:44Z</time>
      </trkpt>
      <trkpt lat="50.12621" lon="1.78314">
        <ele>5.4</ele>
        <time>2022-04-22T10:06:45Z</time>
      </trkpt>
      <trkpt lat="50.12621" lon="1.78314">
        <ele>5.4</ele>
        <time>2022-04-22T10:06:46Z</time>
      </trkpt>
      <trkpt lat="50.12621" lon="1.78314">
        <ele>5.4</ele>
        <time>2022-04-22T10:06:47Z</time>
      </trkpt>
      <trkpt lat="50.12621" lon="1.78314">
        <ele>5.4</ele>
        <time>2022-04-22T10:06:48Z</time>
      </trkpt>
      <trkpt lat="50.12621" lon="1.78314">
        <ele>5.4</ele>
        <time>2022-04-22T10:06:49Z</time>
      </trkpt>
      <trkpt lat="50.12621" lon="1.78314">
        <ele>5.4</ele>
        <time>2022-04-22T10:06:50Z</time>
      </trkpt>
      <trkpt lat="50.12621" lon="1.78314">
        <ele>5.4</ele>
        <time>2022-04-22T10:06:51Z</time>
      </trkpt>
      <trkpt lat="50.12621" lon="1.78314">
        <ele>5.4</ele>
        <time>2022-04-22T10:06:52Z</time>
      </trkpt>
      <trkpt lat="50.12621" lon="1.78314">
        <ele>5.4</ele>
        <time>2022-04-22T10:06:53Z</time>
      </trkpt>
      <trkpt lat="50.12621" lon="1.78314">
        <ele>5.4</ele>
        <time>2022-04-22T10:06:54Z</time>
      </trkpt>
      <trkpt lat="50.12621" lon="1.78314">
        <ele>5.4</ele>
        <time>2022-04-22T10:06:55Z</time>
      </trkpt>
      <trkpt lat="50.12621" lon="1.78314">
        <ele>5.4</ele>
        <time>2022-04-22T10:06:56Z</time>
      </trkpt>
      <trkpt lat="50.12621" lon="1.78314">
        <ele>5.4</ele>
        <time>2022-04-22T10:06:57Z</time>
      </trkpt>
      <trkpt lat="50.12621" lon="1.78314">
        <ele>5.4</ele>
        <time>2022-04-22T10:06:58Z</time>
      </trkpt>
      <trkpt lat="50.12621" lon="1.78314">
        <ele>5.4</ele>
        <time>2022-04-22T10:06:59Z</time>
      </trkpt>
      <trkpt lat="50.12621" lon="1.78314">
        <ele>5.4</ele>
        <time>2022-04-22T10:07:00Z</time>
      </trkpt>
      <trkpt lat="50.12621" lon="1.78314">
        <ele>5.4</ele>
        <time>2022-04-22T10:07:01Z</time>
      </trkpt>
      <trkpt lat="50.12621" lon="1.78314">
        <ele>5.4</ele>
        <time>2022-04-22T10:07:02Z</time>
      </trkpt>
      <trkpt lat="50.12621" lon="1.78314">
        <ele>5.4</ele>
        <time>2022-04-22T10:07:03Z</time>
      </trkpt>
      <trkpt lat="50.12621" lon="1.78314">
        <ele>5.4</ele>
        <time>2022-04-22T10:07:04Z</time>
      </trkpt>
      <trkpt lat="50.12621" lon="1.78314">
        <ele>5.4</ele>
        <time>2022-04-22T10:07:05Z</time>
      </trkpt>
      <trkpt lat="50.12621" lon="1.78314">
        <ele>5.4</ele>
        <time>2022-04-22T10:07:06Z</time>
      </trkpt>
      <trkpt lat="50.12621" lon="1.78314">
        <ele>5.4</ele>
        <time>2022-04-22T10:07:07Z</time>
      </trkpt>
      <trkpt lat="50.12621" lon="1.78314">
        <ele>5.4</ele>
        <time>2022-04-22T10:07:08Z</time>
      </trkpt>
      <trkpt lat="50.12621" lon="1.78314">
        <ele>5.4</ele>
        <time>2022-04-22T10:07:09Z</time>
      </trkpt>
      <trkpt lat="50.12621" lon="1.78314">
        <ele>5.4</ele>
        <time>2022-04-22T10:07:10Z</time>
      </trkpt>
      <trkpt lat="50.12621" lon="1.78314">
        <ele>5.4</ele>
        <time>2022-04-22T10:07:11Z</time>
      </trkpt>
      <trkpt lat="50.12621" lon="1.78314">
        <ele>5.4</ele>
        <time>2022-04-22T10:07:12Z</time>
      </trkpt>
      <trkpt lat="50.12621" lon="1.78314">
        <ele>5.4</ele>
        <time>2022-04-22T10:07:13Z</time>
      </trkpt>
      <trkpt lat="50.12621" lon="1.78314">
        <ele>5.4</ele>
        <time>2022-04-22T10:07:14Z</time>
      </trkpt>
      <trkpt lat="50.12621" lon="1.78314">
        <ele>5.4</ele>
        <time>2022-04-22T10:07:15Z</time>
      </trkpt>
      <trkpt lat="50.12621" lon="1.78314">
        <ele>5.4</ele>
        <time>2022-04-22T10:07:16Z</time>
      </trkpt>
      <trkpt lat="50.12621" lon="1.78314">
        <ele>5.4</ele>
        <time>2022-04-22T10:07:17Z</time>
      </trkpt>
      <trkpt lat="50.12621" lon="1.78314">
        <ele>5.4</ele>
        <time>2022-04-22T10:07:18Z</time>
      </trkpt>
      <trkpt lat="50.12621" lon="1.78314">
        <ele>5.4</ele>
        <time>2022-04-22T10:07:19Z</time>
      </trkpt>
      <trkpt lat="50.12621" lon="1.78314">
        <ele>5.4</ele>
        <time>2022-04-22T10:07:20Z</time>
      </trkpt>
      <trkpt lat="50.12621" lon="1.78314">
        <ele>5.4</ele>
        <time>2022-04-22T10:07:21Z</time>
      </trkpt>
      <trkpt lat="50.12621" lon="1.78314">
        <ele>5.4</ele>
        <time>2022-04-22T10:07:22Z</time>
      </trkpt>
      <trkpt lat="50.12621" lon="1.78314">
        <ele>5.4</ele>
        <time>2022-04-22T10:07:23Z</time>
      </trkpt>
      <trkpt lat="50.12621" lon="1.78314">
        <ele>5.4</ele>
        <time>2022-04-22T10:07:24Z</time>
      </trkpt>
      <trkpt lat="50.12621" lon="1.78314">
        <ele>5.4</ele>
        <time>2022-04-22T10:07:25Z</time>
      </trkpt>
      <trkpt lat="50.12621" lon="1.78314">
        <ele>5.4</ele>
        <time>2022-04-22T10:07:26Z</time>
      </trkpt>
      <trkpt lat="50.12621" lon="1.78314">
        <ele>5.4</ele>
        <time>2022-04-22T10:07:27Z</time>
      </trkpt>
      <trkpt lat="50.12621" lon="1.78314">
        <ele>5.4</ele>
        <time>2022-04-22T10:07:28Z</time>
      </trkpt>
      <trkpt lat="50.12621" lon="1.78314">
        <ele>5.4</ele>
        <time>2022-04-22T10:07:29Z</time>
      </trkpt>
      <trkpt lat="50.12621" lon="1.78314">
        <ele>5.4</ele>
        <time>2022-04-22T10:07:30Z</time>
      </trkpt>
      <trkpt lat="50.12621" lon="1.78314">
        <ele>5.4</ele>
        <time>2022-04-22T10:07:31Z</time>
      </trkpt>
      <trkpt lat="50.12621" lon="1.78314">
        <ele>5.4</ele>
        <time>2022-04-22T10:07:32Z</time>
      </trkpt>
      <trkpt lat="50.12621" lon="1.78314">
        <ele>5.4</ele>
        <time>2022-04-22T10:07:33Z</time>
      </trkpt>
      <trkpt lat="50.12621" lon="1.78314">
        <ele>5.4</ele>
        <time>2022-04-22T10:07:34Z</time>
      </trkpt>
      <trkpt lat="50.12621" lon="1.78314">
        <ele>5.4</ele>
        <time>2022-04-22T10:07:35Z</time>
      </trkpt>
      <trkpt lat="50.12621" lon="1.78314">
        <ele>5.4</ele>
        <time>2022-04-22T10:07:36Z</time>
      </trkpt>
      <trkpt lat="50.12621" lon="1.78314">
        <ele>5.4</ele>
        <time>2022-04-22T10:07:37Z</time>
      </trkpt>
      <trkpt lat="50.12621" lon="1.78314">
        <ele>5.4</ele>
        <time>2022-04-22T10:07:38Z</time>
      </trkpt>
      <trkpt lat="50.12621" lon="1.78314">
        <ele>5.4</ele>
        <time>2022-04-22T10:07:39Z</time>
      </trkpt>
      <trkpt lat="50.12621" lon="1.78314">
        <ele>5.4</ele>
        <time>2022-04-22T10:07:40Z</time>
      </trkpt>
      <trkpt lat="50.12621" lon="1.78314">
        <ele>5.4</ele>
        <time>2022-04-22T10:07:41Z</time>
      </trkpt>
      <trkpt lat="50.12621" lon="1.78314">
        <ele>5.4</ele>
        <time>2022-04-22T10:07:42Z</time>
      </trkpt>
      <trkpt lat="50.12621" lon="1.78314">
        <ele>5.4</ele>
        <time>2022-04-22T10:07:43Z</time>
      </trkpt>
      <trkpt lat="50.12621" lon="1.78314">
        <ele>5.4</ele>
        <time>2022-04-22T10:07:44Z</time>
      </trkpt>
      <trkpt lat="50.12621" lon="1.78314">
        <ele>5.4</ele>
        <time>2022-04-22T10:07:45Z</time>
      </trkpt>
      <trkpt lat="50.12621" lon="1.78314">
        <ele>5.4</ele>
        <time>2022-04-22T10:07:46Z</time>
      </trkpt>
      <trkpt lat="50.12621" lon="1.78314">
        <ele>5.4</ele>
        <time>2022-04-22T10:07:47Z</time>
      </trkpt>
      <trkpt lat="50.12621" lon="1.78314">
        <ele>5.4</ele>
        <time>2022-04-22T10:07:48Z</time>
      </trkpt>
      <trkpt lat="50.12621" lon="1.78314">
        <ele>5.4</ele>
        <time>2022-04-22T10:07:49Z</time>
      </trkpt>
      <trkpt lat="50.12621" lon="1.78314">
        <ele>5.4</ele>
        <time>2022-04-22T10:07:50Z</time>
      </trkpt>
      <trkpt lat="50.12621" lon="1.78314">
        <ele>5.4</ele>
        <time>2022-04-22T10:07:51Z</time>
      </trkpt>
      <trkpt lat="50.12621" lon="1.78314">
        <ele>5.4</ele>
        <time>2022-04-22T10:07:52Z</time>
      </trkpt>
      <trkpt lat="50.12621" lon="1.78314">
        <ele>5.4</ele>
        <time>2022-04-22T10:07:53Z</time>
      </trkpt>
      <trkpt lat="50.12621" lon="1.78314">
        <ele>5.4</ele>
        <time>2022-04-22T10:07:54Z</time>
      </trkpt>
      <trkpt lat="50.12621" lon="1.78314">
        <ele>5.4</ele>
        <time>2022-04-22T10:07:55Z</time>
      </trkpt>
      <trkpt lat="50.12621" lon="1.78314">
        <ele>5.4</ele>
        <time>2022-04-22T10:07:56Z</time>
      </trkpt>
      <trkpt lat="50.12621" lon="1.78314">
        <ele>5.4</ele>
        <time>2022-04-22T10:07:57Z</time>
      </trkpt>
      <trkpt lat="50.12621" lon="1.78314">
        <ele>5.4</ele>
        <time>2022-04-22T10:07:58Z</time>
      </trkpt>
      <trkpt lat="50.12621" lon="1.78314">
        <ele>5.4</ele>
        <time>2022-04-22T10:07:59Z</time>
      </trkpt>
      <trkpt lat="50.12621" lon="1.78314">
        <ele>5.4</ele>
        <time>2022-04-22T10:08:00Z</time>
      </trkpt>
      <trkpt lat="50.12621" lon="1.78314">
        <ele>5.4</ele>
        <time>2022-04-22T10:08:01Z</time>
      </trkpt>
      <trkpt lat="50.12621" lon="1.78314">
        <ele>5.4</ele>
        <time>2022-04-22T10:08:02Z</time>
      </trkpt>
      <trkpt lat="50.12621" lon="1.78314">
        <ele>5.4</ele>
        <time>2022-04-22T10:08:03Z</time>
      </trkpt>
      <trkpt lat="50.12621" lon="1.78314">
        <ele>5.4</ele>
        <time>2022-04-22T10:08:04Z</time>
      </trkpt>
      <trkpt lat="50.12621" lon="1.78314">
        <ele>5.4</ele>
        <time>2022-04-22T10:08:05Z</time>
      </trkpt>
      <trkpt lat="50.12621" lon="1.78314">
        <ele>5.4</ele>
        <time>2022-04-22T10:08:06Z</time>
      </trkpt>
      <trkpt lat="50.12621" lon="1.78314">
        <ele>5.4</ele>
        <time>2022-04-22T10:08:07Z</time>
      </trkpt>
      <trkpt lat="50.12621" lon="1.78314">
        <ele>5.4</ele>
        <time>2022-04-22T10:08:08Z</time>
      </trkpt>
      <trkpt lat="50.12621" lon="1.78314">
        <ele>5.4</ele>
        <time>2022-04-22T10:08:09Z</time>
      </trkpt>
      <trkpt lat="50.12621" lon="1.78314">
        <ele>5.4</ele>
        <time>2022-04-22T10:08:10Z</time>
      </trkpt>
      <trkpt lat="50.12621" lon="1.78314">
        <ele>5.4</ele>
        <time>2022-04-22T10:08:11Z</time>
      </trkpt>
      <trkpt lat="50.12621" lon="1.78314">
        <ele>5.4</ele>
        <time>2022-04-22T10:08:12Z</time>
      </trkpt>
      <trkpt lat="50.12621" lon="1.78314">
        <ele>5.4</ele>
        <time>2022-04-22T10:08:13Z</time>
      </trkpt>
      <trkpt lat="50.12621" lon="1.78314">
        <ele>5.4</ele>
        <time>2022-04-22T10:08:14Z</time>
      </trkpt>
      <trkpt lat="50.12621" lon="1.78314">
        <ele>5.4</ele>
        <time>2022-04-22T10:08:15Z</time>
      </trkpt>
      <trkpt lat="50.12621" lon="1.78314">
        <ele>5.4</ele>
        <time>2022-04-22T10:08:16Z</time>
      </trkpt>
      <trkpt lat="50.12621" lon="1.78314">
        <ele>5.4</ele>
        <time>2022-04-22T10:08:17Z</time>
      </trkpt>
      <trkpt lat="50.12621" lon="1.78314">
        <ele>5.4</ele>
        <time>2022-04-22T10:08:18Z</time>
      </trkpt>
      <trkpt lat="50.12621" lon="1.78314">
        <ele>5.4</ele>
        <time>2022-04-22T10:08:19Z</time>
      </trkpt>
      <trkpt lat="50.12622" lon="1.78314">
        <ele>5.4</ele>
        <time>2022-04-22T10:08:20Z</time>
      </trkpt>
      <trkpt lat="50.12626" lon="1.78314">
        <ele>5.4</ele>
        <time>2022-04-22T10:08:21Z</time>
      </trkpt>
      <trkpt lat="50.12628" lon="1.78313">
        <ele>5.4</ele>
        <time>2022-04-22T10:08:22Z</time>
      </trkpt>
      <trkpt lat="50.12627" lon="1.78314">
        <ele>5.4</ele>
        <time>2022-04-22T10:08:23Z</time>
      </trkpt>
      <trkpt lat="50.12627" lon="1.78315">
        <ele>5.4</ele>
        <time>2022-04-22T10:08:24Z</time>
      </trkpt>
      <trkpt lat="50.12627" lon="1.78316">
        <ele>5.4</ele>
        <time>2022-04-22T10:08:26Z</time>
      </trkpt>
      <trkpt lat="50.12627" lon="1.78317">
        <ele>5.4</ele>
        <time>2022-04-22T10:08:27Z</time>
      </trkpt>
      <trkpt lat="50.12627" lon="1.78317">
        <ele>5.4</ele>
        <time>2022-04-22T10:08:28Z</time>
      </trkpt>
      <trkpt lat="50.12628" lon="1.78317">
        <ele>5.4</ele>
        <time>2022-04-22T10:08:29Z</time>
      </trkpt>
      <trkpt lat="50.12629" lon="1.78318">
        <ele>5.4</ele>
        <time>2022-04-22T10:08:30Z</time>
      </trkpt>
      <trkpt lat="50.12632" lon="1.78319">
        <ele>5.4</ele>
        <time>2022-04-22T10:08:32Z</time>
      </trkpt>
      <trkpt lat="50.12632" lon="1.78318">
        <ele>5.4</ele>
        <time>2022-04-22T10:08:33Z</time>
      </trkpt>
      <trkpt lat="50.12633" lon="1.78319">
        <ele>5.4</ele>
        <time>2022-04-22T10:08:34Z</time>
      </trkpt>
      <trkpt lat="50.12634" lon="1.7832">
        <ele>5.4</ele>
        <time>2022-04-22T10:08:36Z</time>
      </trkpt>
      <trkpt lat="50.12634" lon="1.7832">
        <ele>5.4</ele>
        <time>2022-04-22T10:08:37Z</time>
      </trkpt>
      <trkpt lat="50.12635" lon="1.78321">
        <ele>5.4</ele>
        <time>2022-04-22T10:08:38Z</time>
      </trkpt>
      <trkpt lat="50.12636" lon="1.7832">
        <ele>5.4</ele>
        <time>2022-04-22T10:08:39Z</time>
      </trkpt>
      <trkpt lat="50.12637" lon="1.7832">
        <ele>5.4</ele>
        <time>2022-04-22T10:08:40Z</time>
      </trkpt>
      <trkpt lat="50.12639" lon="1.78318">
        <ele>5.4</ele>
        <time>2022-04-22T10:08:42Z</time>
      </trkpt>
      <trkpt lat="50.12639" lon="1.78318">
        <ele>5.4</ele>
        <time>2022-04-22T10:08:43Z</time>
      </trkpt>
      <trkpt lat="50.1264" lon="1.78317">
        <ele>5.3</ele>
        <time>2022-04-22T10:08:44Z</time>
      </trkpt>
      <trkpt lat="50.12641" lon="1.78316">
        <ele>5.3</ele>
        <time>2022-04-22T10:08:45Z</time>
      </trkpt>
      <trkpt lat="50.12642" lon="1.78314">
        <ele>5.3</ele>
        <time>2022-04-22T10:08:46Z</time>
      </trkpt>
      <trkpt lat="50.12643" lon="1.78312">
        <ele>5.3</ele>
        <time>2022-04-22T10:08:47Z</time>
      </trkpt>
      <trkpt lat="50.12643" lon="1.7831">
        <ele>5.2</ele>
        <time>2022-04-22T10:08:48Z</time>
      </trkpt>
      <trkpt lat="50.12645" lon="1.78305">
        <ele>5.2</ele>
        <time>2022-04-22T10:08:49Z</time>
      </trkpt>
      <trkpt lat="50.12645" lon="1.78303">
        <ele>5.2</ele>
        <time>2022-04-22T10:08:51Z</time>
      </trkpt>
      <trkpt lat="50.12645" lon="1.78301">
        <ele>5.1</ele>
        <time>2022-04-22T10:08:52Z</time>
      </trkpt>
      <trkpt lat="50.12646" lon="1.78298">
        <ele>5.1</ele>
        <time>2022-04-22T10:08:53Z</time>
      </trkpt>
      <trkpt lat="50.12647" lon="1.78295">
        <ele>5.1</ele>
        <time>2022-04-22T10:08:54Z</time>
      </trkpt>
      <trkpt lat="50.12647" lon="1.78293">
        <ele>5</ele>
        <time>2022-04-22T10:08:55Z</time>
      </trkpt>
      <trkpt lat="50.12648" lon="1.78291">
        <ele>5</ele>
        <time>2022-04-22T10:08:56Z</time>
      </trkpt>
      <trkpt lat="50.12649" lon="1.78289">
        <ele>5</ele>
        <time>2022-04-22T10:08:57Z</time>
      </trkpt>
      <trkpt lat="50.1265" lon="1.78287">
        <ele>5</ele>
        <time>2022-04-22T10:08:58Z</time>
      </trkpt>
      <trkpt lat="50.1265" lon="1.78285">
        <ele>4.9</ele>
        <time>2022-04-22T10:08:59Z</time>
      </trkpt>
      <trkpt lat="50.12651" lon="1.78282">
        <ele>4.9</ele>
        <time>2022-04-22T10:09:00Z</time>
      </trkpt>
      <trkpt lat="50.12651" lon="1.7828">
        <ele>4.9</ele>
        <time>2022-04-22T10:09:02Z</time>
      </trkpt>
      <trkpt lat="50.12651" lon="1.78279">
        <ele>4.9</ele>
        <time>2022-04-22T10:09:03Z</time>
      </trkpt>
      <trkpt lat="50.12651" lon="1.78277">
        <ele>4.9</ele>
        <time>2022-04-22T10:09:04Z</time>
      </trkpt>
      <trkpt lat="50.12651" lon="1.78275">
        <ele>4.9</ele>
        <time>2022-04-22T10:09:05Z</time>
      </trkpt>
      <trkpt lat="50.12652" lon="1.78273">
        <ele>4.8</ele>
        <time>2022-04-22T10:09:06Z</time>
      </trkpt>
      <trkpt lat="50.12652" lon="1.7827">
        <ele>4.8</ele>
        <time>2022-04-22T10:09:07Z</time>
      </trkpt>
      <trkpt lat="50.12653" lon="1.78268">
        <ele>4.8</ele>
        <time>2022-04-22T10:09:08Z</time>
      </trkpt>
      <trkpt lat="50.12654" lon="1.78266">
        <ele>4.8</ele>
        <time>2022-04-22T10:09:09Z</time>
      </trkpt>
      <trkpt lat="50.12654" lon="1.78264">
        <ele>4.8</ele>
        <time>2022-04-22T10:09:10Z</time>
      </trkpt>
      <trkpt lat="50.12655" lon="1.78263">
        <ele>4.7</ele>
        <time>2022-04-22T10:09:12Z</time>
      </trkpt>
      <trkpt lat="50.12655" lon="1.78262">
        <ele>4.7</ele>
        <time>2022-04-22T10:09:13Z</time>
      </trkpt>
      <trkpt lat="50.12655" lon="1.78261">
        <ele>4.7</ele>
        <time>2022-04-22T10:09:14Z</time>
      </trkpt>
      <trkpt lat="50.12656" lon="1.78259">
        <ele>4.7</ele>
        <time>2022-04-22T10:09:15Z</time>
      </trkpt>
      <trkpt lat="50.12656" lon="1.78257">
        <ele>4.7</ele>
        <time>2022-04-22T10:09:16Z</time>
      </trkpt>
      <trkpt lat="50.12657" lon="1.78255">
        <ele>4.7</ele>
        <time>2022-04-22T10:09:17Z</time>
      </trkpt>
      <trkpt lat="50.12658" lon="1.78252">
        <ele>4.7</ele>
        <time>2022-04-22T10:09:18Z</time>
      </trkpt>
      <trkpt lat="50.12658" lon="1.7825">
        <ele>4.6</ele>
        <time>2022-04-22T10:09:19Z</time>
      </trkpt>
      <trkpt lat="50.12659" lon="1.78248">
        <ele>4.6</ele>
        <time>2022-04-22T10:09:20Z</time>
      </trkpt>
      <trkpt lat="50.1266" lon="1.78245">
        <ele>4.6</ele>
        <time>2022-04-22T10:09:22Z</time>
      </trkpt>
      <trkpt lat="50.1266" lon="1.78243">
        <ele>4.6</ele>
        <time>2022-04-22T10:09:23Z</time>
      </trkpt>
      <trkpt lat="50.12661" lon="1.78238">
        <ele>4.6</ele>
        <time>2022-04-22T10:09:24Z</time>
      </trkpt>
      <trkpt lat="50.12661" lon="1.78237">
        <ele>4.6</ele>
        <time>2022-04-22T10:09:25Z</time>
      </trkpt>
      <trkpt lat="50.12662" lon="1.78234">
        <ele>4.5</ele>
        <time>2022-04-22T10:09:26Z</time>
      </trkpt>
      <trkpt lat="50.12662" lon="1.78232">
        <ele>4.5</ele>
        <time>2022-04-22T10:09:27Z</time>
      </trkpt>
      <trkpt lat="50.12662" lon="1.7823">
        <ele>4.5</ele>
        <time>2022-04-22T10:09:28Z</time>
      </trkpt>
      <trkpt lat="50.12663" lon="1.78228">
        <ele>4.5</ele>
        <time>2022-04-22T10:09:29Z</time>
      </trkpt>
      <trkpt lat="50.12663" lon="1.78226">
        <ele>4.5</ele>
        <time>2022-04-22T10:09:31Z</time>
      </trkpt>
      <trkpt lat="50.12663" lon="1.78223">
        <ele>4.5</ele>
        <time>2022-04-22T10:09:32Z</time>
      </trkpt>
      <trkpt lat="50.12664" lon="1.78222">
        <ele>4.5</ele>
        <time>2022-04-22T10:09:33Z</time>
      </trkpt>
      <trkpt lat="50.12664" lon="1.78221">
        <ele>4.5</ele>
        <time>2022-04-22T10:09:34Z</time>
      </trkpt>
      <trkpt lat="50.12664" lon="1.78218">
        <ele>4.4</ele>
        <time>2022-04-22T10:09:35Z</time>
      </trkpt>
      <trkpt lat="50.12665" lon="1.78217">
        <ele>4.4</ele>
        <time>2022-04-22T10:09:36Z</time>
      </trkpt>
      <trkpt lat="50.12665" lon="1.78214">
        <ele>4.4</ele>
        <time>2022-04-22T10:09:37Z</time>
      </trkpt>
      <trkpt lat="50.12666" lon="1.78212">
        <ele>4.4</ele>
        <time>2022-04-22T10:09:38Z</time>
      </trkpt>
      <trkpt lat="50.12666" lon="1.78211">
        <ele>4.4</ele>
        <time>2022-04-22T10:09:39Z</time>
      </trkpt>
      <trkpt lat="50.12666" lon="1.7821">
        <ele>4.4</ele>
        <time>2022-04-22T10:09:40Z</time>
      </trkpt>
      <trkpt lat="50.12667" lon="1.78208">
        <ele>4.4</ele>
        <time>2022-04-22T10:09:42Z</time>
      </trkpt>
      <trkpt lat="50.12667" lon="1.78207">
        <ele>4.4</ele>
        <time>2022-04-22T10:09:43Z</time>
      </trkpt>
      <trkpt lat="50.12669" lon="1.78203">
        <ele>4.3</ele>
        <time>2022-04-22T10:09:44Z</time>
      </trkpt>
      <trkpt lat="50.12669" lon="1.78203">
        <ele>4.3</ele>
        <time>2022-04-22T10:09:45Z</time>
      </trkpt>
      <trkpt lat="50.12669" lon="1.78202">
        <ele>4.3</ele>
        <time>2022-04-22T10:09:46Z</time>
      </trkpt>
      <trkpt lat="50.1267" lon="1.78198">
        <ele>4.3</ele>
        <time>2022-04-22T10:09:47Z</time>
      </trkpt>
      <trkpt lat="50.1267" lon="1.78195">
        <ele>4.3</ele>
        <time>2022-04-22T10:09:48Z</time>
      </trkpt>
      <trkpt lat="50.1267" lon="1.78193">
        <ele>4.3</ele>
        <time>2022-04-22T10:09:49Z</time>
      </trkpt>
      <trkpt lat="50.1267" lon="1.78193">
        <ele>4.3</ele>
        <time>2022-04-22T10:09:51Z</time>
      </trkpt>
      <trkpt lat="50.12669" lon="1.78191">
        <ele>4.3</ele>
        <time>2022-04-22T10:09:52Z</time>
      </trkpt>
      <trkpt lat="50.12669" lon="1.78189">
        <ele>4.3</ele>
        <time>2022-04-22T10:09:53Z</time>
      </trkpt>
      <trkpt lat="50.12668" lon="1.78185">
        <ele>4.2</ele>
        <time>2022-04-22T10:09:54Z</time>
      </trkpt>
      <trkpt lat="50.12668" lon="1.78184">
        <ele>4.2</ele>
        <time>2022-04-22T10:09:55Z</time>
      </trkpt>
      <trkpt lat="50.12668" lon="1.78182">
        <ele>4.2</ele>
        <time>2022-04-22T10:09:56Z</time>
      </trkpt>
      <trkpt lat="50.12669" lon="1.7818">
        <ele>4.2</ele>
        <time>2022-04-22T10:09:57Z</time>
      </trkpt>
      <trkpt lat="50.12669" lon="1.78178">
        <ele>4.2</ele>
        <time>2022-04-22T10:09:58Z</time>
      </trkpt>
      <trkpt lat="50.12669" lon="1.78176">
        <ele>4.2</ele>
        <time>2022-04-22T10:09:59Z</time>
      </trkpt>
      <trkpt lat="50.12669" lon="1.78174">
        <ele>4.2</ele>
        <time>2022-04-22T10:10:01Z</time>
      </trkpt>
      <trkpt lat="50.1267" lon="1.78171">
        <ele>4.2</ele>
        <time>2022-04-22T10:10:02Z</time>
      </trkpt>
      <trkpt lat="50.1267" lon="1.78169">
        <ele>4.2</ele>
        <time>2022-04-22T10:10:03Z</time>
      </trkpt>
      <trkpt lat="50.12671" lon="1.78167">
        <ele>4.2</ele>
        <time>2022-04-22T10:10:04Z</time>
      </trkpt>
      <trkpt lat="50.12671" lon="1.78167">
        <ele>4.2</ele>
        <time>2022-04-22T10:10:05Z</time>
      </trkpt>
      <trkpt lat="50.12671" lon="1.78165">
        <ele>4.2</ele>
        <time>2022-04-22T10:10:06Z</time>
      </trkpt>
      <trkpt lat="50.12672" lon="1.78163">
        <ele>4.2</ele>
        <time>2022-04-22T10:10:07Z</time>
      </trkpt>
      <trkpt lat="50.12672" lon="1.78162">
        <ele>4.2</ele>
        <time>2022-04-22T10:10:08Z</time>
      </trkpt>
      <trkpt lat="50.12673" lon="1.78159">
        <ele>4.2</ele>
        <time>2022-04-22T10:10:10Z</time>
      </trkpt>
      <trkpt lat="50.12674" lon="1.78158">
        <ele>4.2</ele>
        <time>2022-04-22T10:10:11Z</time>
      </trkpt>
      <trkpt lat="50.12674" lon="1.78157">
        <ele>4.2</ele>
        <time>2022-04-22T10:10:12Z</time>
      </trkpt>
      <trkpt lat="50.12675" lon="1.78156">
        <ele>4.2</ele>
        <time>2022-04-22T10:10:13Z</time>
      </trkpt>
      <trkpt lat="50.12676" lon="1.78154">
        <ele>4.2</ele>
        <time>2022-04-22T10:10:14Z</time>
      </trkpt>
      <trkpt lat="50.12677" lon="1.78153">
        <ele>4.2</ele>
        <time>2022-04-22T10:10:15Z</time>
      </trkpt>
      <trkpt lat="50.12678" lon="1.78152">
        <ele>4.2</ele>
        <time>2022-04-22T10:10:16Z</time>
      </trkpt>
      <trkpt lat="50.12679" lon="1.78151">
        <ele>4.2</ele>
        <time>2022-04-22T10:10:17Z</time>
      </trkpt>
      <trkpt lat="50.12679" lon="1.7815">
        <ele>4.2</ele>
        <time>2022-04-22T10:10:18Z</time>
      </trkpt>
      <trkpt lat="50.1268" lon="1.78147">
        <ele>4.2</ele>
        <time>2022-04-22T10:10:19Z</time>
      </trkpt>
      <trkpt lat="50.1268" lon="1.78147">
        <ele>4.2</ele>
        <time>2022-04-22T10:10:21Z</time>
      </trkpt>
      <trkpt lat="50.12681" lon="1.78146">
        <ele>4.2</ele>
        <time>2022-04-22T10:10:22Z</time>
      </trkpt>
      <trkpt lat="50.12681" lon="1.78144">
        <ele>4.2</ele>
        <time>2022-04-22T10:10:23Z</time>
      </trkpt>
      <trkpt lat="50.12682" lon="1.78142">
        <ele>4.2</ele>
        <time>2022-04-22T10:10:24Z</time>
      </trkpt>
      <trkpt lat="50.12682" lon="1.78139">
        <ele>4.2</ele>
        <time>2022-04-22T10:10:26Z</time>
      </trkpt>
      <trkpt lat="50.12683" lon="1.78136">
        <ele>4.2</ele>
        <time>2022-04-22T10:10:27Z</time>
      </trkpt>
      <trkpt lat="50.12683" lon="1.78135">
        <ele>4.2</ele>
        <time>2022-04-22T10:10:28Z</time>
      </trkpt>
      <trkpt lat="50.12683" lon="1.78134">
        <ele>4.2</ele>
        <time>2022-04-22T10:10:29Z</time>
      </trkpt>
      <trkpt lat="50.12684" lon="1.78131">
        <ele>4.2</ele>
        <time>2022-04-22T10:10:30Z</time>
      </trkpt>
      <trkpt lat="50.12684" lon="1.78129">
        <ele>4.2</ele>
        <time>2022-04-22T10:10:31Z</time>
      </trkpt>
      <trkpt lat="50.12684" lon="1.78128">
        <ele>4.2</ele>
        <time>2022-04-22T10:10:32Z</time>
      </trkpt>
      <trkpt lat="50.12684" lon="1.78126">
        <ele>4.2</ele>
        <time>2022-04-22T10:10:33Z</time>
      </trkpt>
      <trkpt lat="50.12685" lon="1.78125">
        <ele>4.2</ele>
        <time>2022-04-22T10:10:34Z</time>
      </trkpt>
      <trkpt lat="50.12685" lon="1.78123">
        <ele>4.2</ele>
        <time>2022-04-22T10:10:35Z</time>
      </trkpt>
      <trkpt lat="50.12686" lon="1.78122">
        <ele>4.2</ele>
        <time>2022-04-22T10:10:37Z</time>
      </trkpt>
      <trkpt lat="50.12687" lon="1.7812">
        <ele>4.2</ele>
        <time>2022-04-22T10:10:38Z</time>
      </trkpt>
      <trkpt lat="50.12687" lon="1.78118">
        <ele>4.2</ele>
        <time>2022-04-22T10:10:39Z</time>
      </trkpt>
      <trkpt lat="50.12688" lon="1.78115">
        <ele>4.2</ele>
        <time>2022-04-22T10:10:40Z</time>
      </trkpt>
      <trkpt lat="50.12689" lon="1.78112">
        <ele>4.2</ele>
        <time>2022-04-22T10:10:41Z</time>
      </trkpt>
      <trkpt lat="50.12689" lon="1.78111">
        <ele>4.2</ele>
        <time>2022-04-22T10:10:43Z</time>
      </trkpt>
      <trkpt lat="50.12689" lon="1.7811">
        <ele>4.2</ele>
        <time>2022-04-22T10:10:44Z</time>
      </trkpt>
      <trkpt lat="50.12689" lon="1.78108">
        <ele>4.2</ele>
        <time>2022-04-22T10:10:45Z</time>
      </trkpt>
      <trkpt lat="50.1269" lon="1.78106">
        <ele>4.2</ele>
        <time>2022-04-22T10:10:46Z</time>
      </trkpt>
      <trkpt lat="50.12691" lon="1.78103">
        <ele>4.2</ele>
        <time>2022-04-22T10:10:48Z</time>
      </trkpt>
      <trkpt lat="50.12691" lon="1.78102">
        <ele>4.2</ele>
        <time>2022-04-22T10:10:49Z</time>
      </trkpt>
      <trkpt lat="50.12692" lon="1.781">
        <ele>4.2</ele>
        <time>2022-04-22T10:10:50Z</time>
      </trkpt>
      <trkpt lat="50.12692" lon="1.78099">
        <ele>4.2</ele>
        <time>2022-04-22T10:10:51Z</time>
      </trkpt>
      <trkpt lat="50.12693" lon="1.78096">
        <ele>4.2</ele>
        <time>2022-04-22T10:10:52Z</time>
      </trkpt>
      <trkpt lat="50.12694" lon="1.78093">
        <ele>4.2</ele>
        <time>2022-04-22T10:10:53Z</time>
      </trkpt>
      <trkpt lat="50.12694" lon="1.78092">
        <ele>4.2</ele>
        <time>2022-04-22T10:10:54Z</time>
      </trkpt>
      <trkpt lat="50.12694" lon="1.78091">
        <ele>4.2</ele>
        <time>2022-04-22T10:10:55Z</time>
      </trkpt>
      <trkpt lat="50.12695" lon="1.7809">
        <ele>4.2</ele>
        <time>2022-04-22T10:10:56Z</time>
      </trkpt>
      <trkpt lat="50.12696" lon="1.78088">
        <ele>4.2</ele>
        <time>2022-04-22T10:10:57Z</time>
      </trkpt>
      <trkpt lat="50.12696" lon="1.78087">
        <ele>4.2</ele>
        <time>2022-04-22T10:10:58Z</time>
      </trkpt>
      <trkpt lat="50.12697" lon="1.78083">
        <ele>4.2</ele>
        <time>2022-04-22T10:11:00Z</time>
      </trkpt>
      <trkpt lat="50.12697" lon="1.78083">
        <ele>4.2</ele>
        <time>2022-04-22T10:11:01Z</time>
      </trkpt>
      <trkpt lat="50.12698" lon="1.78082">
        <ele>4.2</ele>
        <time>2022-04-22T10:11:02Z</time>
      </trkpt>
      <trkpt lat="50.12699" lon="1.78079">
        <ele>4.2</ele>
        <time>2022-04-22T10:11:03Z</time>
      </trkpt>
      <trkpt lat="50.12699" lon="1.78076">
        <ele>4.2</ele>
        <time>2022-04-22T10:11:05Z</time>
      </trkpt>
      <trkpt lat="50.12699" lon="1.78076">
        <ele>4.2</ele>
        <time>2022-04-22T10:11:06Z</time>
      </trkpt>
      <trkpt lat="50.127" lon="1.78075">
        <ele>4.2</ele>
        <time>2022-04-22T10:11:07Z</time>
      </trkpt>
      <trkpt lat="50.127" lon="1.78073">
        <ele>4.2</ele>
        <time>2022-04-22T10:11:08Z</time>
      </trkpt>
      <trkpt lat="50.12701" lon="1.78072">
        <ele>4.2</ele>
        <time>2022-04-22T10:11:09Z</time>
      </trkpt>
      <trkpt lat="50.12701" lon="1.78069">
        <ele>4.2</ele>
        <time>2022-04-22T10:11:10Z</time>
      </trkpt>
      <trkpt lat="50.12702" lon="1.78068">
        <ele>4.2</ele>
        <time>2022-04-22T10:11:11Z</time>
      </trkpt>
      <trkpt lat="50.12702" lon="1.78067">
        <ele>4.2</ele>
        <time>2022-04-22T10:11:12Z</time>
      </trkpt>
      <trkpt lat="50.12703" lon="1.78065">
        <ele>4.2</ele>
        <time>2022-04-22T10:11:13Z</time>
      </trkpt>
      <trkpt lat="50.12704" lon="1.78063">
        <ele>4.2</ele>
        <time>2022-04-22T10:11:15Z</time>
      </trkpt>
      <trkpt lat="50.12705" lon="1.78062">
        <ele>4.2</ele>
        <time>2022-04-22T10:11:16Z</time>
      </trkpt>
      <trkpt lat="50.12705" lon="1.7806">
        <ele>4.2</ele>
        <time>2022-04-22T10:11:17Z</time>
      </trkpt>
      <trkpt lat="50.12706" lon="1.78058">
        <ele>4.2</ele>
        <time>2022-04-22T10:11:18Z</time>
      </trkpt>
      <trkpt lat="50.12707" lon="1.78056">
        <ele>4.2</ele>
        <time>2022-04-22T10:11:20Z</time>
      </trkpt>
      <trkpt lat="50.12708" lon="1.78054">
        <ele>4.2</ele>
        <time>2022-04-22T10:11:21Z</time>
      </trkpt>
      <trkpt lat="50.12709" lon="1.78052">
        <ele>4.2</ele>
        <time>2022-04-22T10:11:22Z</time>
      </trkpt>
      <trkpt lat="50.12709" lon="1.7805">
        <ele>4.2</ele>
        <time>2022-04-22T10:11:23Z</time>
      </trkpt>
      <trkpt lat="50.1271" lon="1.78049">
        <ele>4.2</ele>
        <time>2022-04-22T10:11:24Z</time>
      </trkpt>
      <trkpt lat="50.1271" lon="1.78047">
        <ele>4.2</ele>
        <time>2022-04-22T10:11:25Z</time>
      </trkpt>
      <trkpt lat="50.12711" lon="1.78045">
        <ele>4.2</ele>
        <time>2022-04-22T10:11:26Z</time>
      </trkpt>
      <trkpt lat="50.12711" lon="1.78043">
        <ele>4.2</ele>
        <time>2022-04-22T10:11:28Z</time>
      </trkpt>
      <trkpt lat="50.12712" lon="1.78041">
        <ele>4.2</ele>
        <time>2022-04-22T10:11:29Z</time>
      </trkpt>
      <trkpt lat="50.12713" lon="1.78039">
        <ele>4.2</ele>
        <time>2022-04-22T10:11:30Z</time>
      </trkpt>
      <trkpt lat="50.12713" lon="1.78037">
        <ele>4.2</ele>
        <time>2022-04-22T10:11:31Z</time>
      </trkpt>
      <trkpt lat="50.12714" lon="1.78036">
        <ele>4.2</ele>
        <time>2022-04-22T10:11:32Z</time>
      </trkpt>
      <trkpt lat="50.12715" lon="1.78034">
        <ele>4.2</ele>
        <time>2022-04-22T10:11:33Z</time>
      </trkpt>
      <trkpt lat="50.12715" lon="1.78032">
        <ele>4.2</ele>
        <time>2022-04-22T10:11:34Z</time>
      </trkpt>
      <trkpt lat="50.12716" lon="1.78031">
        <ele>4.2</ele>
        <time>2022-04-22T10:11:35Z</time>
      </trkpt>
      <trkpt lat="50.12717" lon="1.78028">
        <ele>4.2</ele>
        <time>2022-04-22T10:11:37Z</time>
      </trkpt>
      <trkpt lat="50.12717" lon="1.78027">
        <ele>4.2</ele>
        <time>2022-04-22T10:11:38Z</time>
      </trkpt>
      <trkpt lat="50.12718" lon="1.78026">
        <ele>4.2</ele>
        <time>2022-04-22T10:11:39Z</time>
      </trkpt>
      <trkpt lat="50.12718" lon="1.78023">
        <ele>4.2</ele>
        <time>2022-04-22T10:11:40Z</time>
      </trkpt>
      <trkpt lat="50.12719" lon="1.78022">
        <ele>4.2</ele>
        <time>2022-04-22T10:11:41Z</time>
      </trkpt>
      <trkpt lat="50.1272" lon="1.78019">
        <ele>4.2</ele>
        <time>2022-04-22T10:11:42Z</time>
      </trkpt>
      <trkpt lat="50.1272" lon="1.78017">
        <ele>4.2</ele>
        <time>2022-04-22T10:11:43Z</time>
      </trkpt>
      <trkpt lat="50.1272" lon="1.78016">
        <ele>4.2</ele>
        <time>2022-04-22T10:11:44Z</time>
      </trkpt>
      <trkpt lat="50.12721" lon="1.78014">
        <ele>4.2</ele>
        <time>2022-04-22T10:11:45Z</time>
      </trkpt>
      <trkpt lat="50.12721" lon="1.78012">
        <ele>4.2</ele>
        <time>2022-04-22T10:11:46Z</time>
      </trkpt>
      <trkpt lat="50.12722" lon="1.78009">
        <ele>4.2</ele>
        <time>2022-04-22T10:11:48Z</time>
      </trkpt>
      <trkpt lat="50.12723" lon="1.78008">
        <ele>4.2</ele>
        <time>2022-04-22T10:11:49Z</time>
      </trkpt>
      <trkpt lat="50.12723" lon="1.78006">
        <ele>4.2</ele>
        <time>2022-04-22T10:11:50Z</time>
      </trkpt>
      <trkpt lat="50.12723" lon="1.78006">
        <ele>4.2</ele>
        <time>2022-04-22T10:11:51Z</time>
      </trkpt>
      <trkpt lat="50.12724" lon="1.78004">
        <ele>4.2</ele>
        <time>2022-04-22T10:11:52Z</time>
      </trkpt>
      <trkpt lat="50.12725" lon="1.78002">
        <ele>4.2</ele>
        <time>2022-04-22T10:11:53Z</time>
      </trkpt>
      <trkpt lat="50.12726" lon="1.77999">
        <ele>4.2</ele>
        <time>2022-04-22T10:11:55Z</time>
      </trkpt>
      <trkpt lat="50.12727" lon="1.77998">
        <ele>4.2</ele>
        <time>2022-04-22T10:11:56Z</time>
      </trkpt>
      <trkpt lat="50.12727" lon="1.77997">
        <ele>4.2</ele>
        <time>2022-04-22T10:11:57Z</time>
      </trkpt>
      <trkpt lat="50.12728" lon="1.77994">
        <ele>4.2</ele>
        <time>2022-04-22T10:11:58Z</time>
      </trkpt>
      <trkpt lat="50.12729" lon="1.77992">
        <ele>4.2</ele>
        <time>2022-04-22T10:11:59Z</time>
      </trkpt>
      <trkpt lat="50.12729" lon="1.77991">
        <ele>4.2</ele>
        <time>2022-04-22T10:12:00Z</time>
      </trkpt>
      <trkpt lat="50.1273" lon="1.7799">
        <ele>4.2</ele>
        <time>2022-04-22T10:12:01Z</time>
      </trkpt>
      <trkpt lat="50.1273" lon="1.77988">
        <ele>4.2</ele>
        <time>2022-04-22T10:12:02Z</time>
      </trkpt>
      <trkpt lat="50.12731" lon="1.77986">
        <ele>4.2</ele>
        <time>2022-04-22T10:12:03Z</time>
      </trkpt>
      <trkpt lat="50.12732" lon="1.77985">
        <ele>4.2</ele>
        <time>2022-04-22T10:12:04Z</time>
      </trkpt>
      <trkpt lat="50.12733" lon="1.77982">
        <ele>4.2</ele>
        <time>2022-04-22T10:12:06Z</time>
      </trkpt>
      <trkpt lat="50.12734" lon="1.77981">
        <ele>4.3</ele>
        <time>2022-04-22T10:12:07Z</time>
      </trkpt>
      <trkpt lat="50.12734" lon="1.77979">
        <ele>4.3</ele>
        <time>2022-04-22T10:12:08Z</time>
      </trkpt>
      <trkpt lat="50.12735" lon="1.77978">
        <ele>4.3</ele>
        <time>2022-04-22T10:12:09Z</time>
      </trkpt>
      <trkpt lat="50.12737" lon="1.77975">
        <ele>4.3</ele>
        <time>2022-04-22T10:12:10Z</time>
      </trkpt>
      <trkpt lat="50.12737" lon="1.77974">
        <ele>4.3</ele>
        <time>2022-04-22T10:12:11Z</time>
      </trkpt>
      <trkpt lat="50.12737" lon="1.77973">
        <ele>4.3</ele>
        <time>2022-04-22T10:12:12Z</time>
      </trkpt>
      <trkpt lat="50.12738" lon="1.77972">
        <ele>4.3</ele>
        <time>2022-04-22T10:12:14Z</time>
      </trkpt>
      <trkpt lat="50.12738" lon="1.77971">
        <ele>4.3</ele>
        <time>2022-04-22T10:12:15Z</time>
      </trkpt>
      <trkpt lat="50.12739" lon="1.77972">
        <ele>4.3</ele>
        <time>2022-04-22T10:12:16Z</time>
      </trkpt>
      <trkpt lat="50.12739" lon="1.77973">
        <ele>4.3</ele>
        <time>2022-04-22T10:12:17Z</time>
      </trkpt>
      <trkpt lat="50.12739" lon="1.77974">
        <ele>4.3</ele>
        <time>2022-04-22T10:12:18Z</time>
      </trkpt>
      <trkpt lat="50.12739" lon="1.77974">
        <ele>4.3</ele>
        <time>2022-04-22T10:12:20Z</time>
      </trkpt>
      <trkpt lat="50.12738" lon="1.77974">
        <ele>4.3</ele>
        <time>2022-04-22T10:12:21Z</time>
      </trkpt>
      <trkpt lat="50.12737" lon="1.77974">
        <ele>4.3</ele>
        <time>2022-04-22T10:12:22Z</time>
      </trkpt>
      <trkpt lat="50.12737" lon="1.77974">
        <ele>4.3</ele>
        <time>2022-04-22T10:12:24Z</time>
      </trkpt>
      <trkpt lat="50.12737" lon="1.77974">
        <ele>4.3</ele>
        <time>2022-04-22T10:12:25Z</time>
      </trkpt>
      <trkpt lat="50.12736" lon="1.77974">
        <ele>4.3</ele>
        <time>2022-04-22T10:12:26Z</time>
      </trkpt>
      <trkpt lat="50.12736" lon="1.77974">
        <ele>4.3</ele>
        <time>2022-04-22T10:12:27Z</time>
      </trkpt>
      <trkpt lat="50.13654" lon="1.74558">
        <ele>3.8</ele>
        <time>2022-04-22T12:04:03Z</time>
      </trkpt>
      <trkpt lat="50.13654" lon="1.74558">
        <ele>3.8</ele>
        <time>2022-04-22T12:04:04Z</time>
      </trkpt>
      <trkpt lat="50.13654" lon="1.74558">
        <ele>3.8</ele>
        <time>2022-04-22T12:04:05Z</time>
      </trkpt>
      <trkpt lat="50.13654" lon="1.74558">
        <ele>3.8</ele>
        <time>2022-04-22T12:04:06Z</time>
      </trkpt>
      <trkpt lat="50.13654" lon="1.74558">
        <ele>3.8</ele>
        <time>2022-04-22T12:04:07Z</time>
      </trkpt>
      <trkpt lat="50.13654" lon="1.74558">
        <ele>3.8</ele>
        <time>2022-04-22T12:04:08Z</time>
      </trkpt>
      <trkpt lat="50.13654" lon="1.74558">
        <ele>3.8</ele>
        <time>2022-04-22T12:04:09Z</time>
      </trkpt>
      <trkpt lat="50.13654" lon="1.74558">
        <ele>3.8</ele>
        <time>2022-04-22T12:04:10Z</time>
      </trkpt>
      <trkpt lat="50.13654" lon="1.74558">
        <ele>3.8</ele>
        <time>2022-04-22T12:04:11Z</time>
      </trkpt>
      <trkpt lat="50.13654" lon="1.74558">
        <ele>3.8</ele>
        <time>2022-04-22T12:04:12Z</time>
      </trkpt>
      <trkpt lat="50.13654" lon="1.74558">
        <ele>3.8</ele>
        <time>2022-04-22T12:04:13Z</time>
      </trkpt>
      <trkpt lat="50.13654" lon="1.74558">
        <ele>3.8</ele>
        <time>2022-04-22T12:04:14Z</time>
      </trkpt>
      <trkpt lat="50.13654" lon="1.74558">
        <ele>3.8</ele>
        <time>2022-04-22T12:04:15Z</time>
      </trkpt>
      <trkpt lat="50.13654" lon="1.74558">
        <ele>3.8</ele>
        <time>2022-04-22T12:04:16Z</time>
      </trkpt>
      <trkpt lat="50.13654" lon="1.74558">
        <ele>3.8</ele>
        <time>2022-04-22T12:04:17Z</time>
      </trkpt>
      <trkpt lat="50.13654" lon="1.74558">
        <ele>3.8</ele>
        <time>2022-04-22T12:04:18Z</time>
      </trkpt>
      <trkpt lat="50.13654" lon="1.74558">
        <ele>3.8</ele>
        <time>2022-04-22T12:04:19Z</time>
      </trkpt>
      <trkpt lat="50.13654" lon="1.74558">
        <ele>3.8</ele>
        <time>2022-04-22T12:04:20Z</time>
      </trkpt>
      <trkpt lat="50.13654" lon="1.74558">
        <ele>3.8</ele>
        <time>2022-04-22T12:04:21Z</time>
      </trkpt>
      <trkpt lat="50.13654" lon="1.74558">
        <ele>3.8</ele>
        <time>2022-04-22T12:04:22Z</time>
      </trkpt>
      <trkpt lat="50.13654" lon="1.74558">
        <ele>3.8</ele>
        <time>2022-04-22T12:04:23Z</time>
      </trkpt>
      <trkpt lat="50.13654" lon="1.74558">
        <ele>3.8</ele>
        <time>2022-04-22T12:04:24Z</time>
      </trkpt>
      <trkpt lat="50.13654" lon="1.74558">
        <ele>3.8</ele>
        <time>2022-04-22T12:04:25Z</time>
      </trkpt>
      <trkpt lat="50.13654" lon="1.74558">
        <ele>3.8</ele>
        <time>2022-04-22T12:04:26Z</time>
      </trkpt>
      <trkpt lat="50.13654" lon="1.74558">
        <ele>3.8</ele>
        <time>2022-04-22T12:04:27Z</time>
      </trkpt>
      <trkpt lat="50.13654" lon="1.74558">
        <ele>3.8</ele>
        <time>2022-04-22T12:04:28Z</time>
      </trkpt>
      <trkpt lat="50.13654" lon="1.74558">
        <ele>3.8</ele>
        <time>2022-04-22T12:04:29Z</time>
      </trkpt>
      <trkpt lat="50.13654" lon="1.74558">
        <ele>3.8</ele>
        <time>2022-04-22T12:04:30Z</time>
      </trkpt>
      <trkpt lat="50.13654" lon="1.74558">
        <ele>3.8</ele>
        <time>2022-04-22T12:04:31Z</time>
      </trkpt>
      <trkpt lat="50.13654" lon="1.74558">
        <ele>3.8</ele>
        <time>2022-04-22T12:04:32Z</time>
      </trkpt>
      <trkpt lat="50.13654" lon="1.74558">
        <ele>3.8</ele>
        <time>2022-04-22T12:04:33Z</time>
      </trkpt>
      <trkpt lat="50.13654" lon="1.74558">
        <ele>3.8</ele>
        <time>2022-04-22T12:04:34Z</time>
      </trkpt>
      <trkpt lat="50.13654" lon="1.74558">
        <ele>3.8</ele>
        <time>2022-04-22T12:04:35Z</time>
      </trkpt>
      <trkpt lat="50.13654" lon="1.74558">
        <ele>3.8</ele>
        <time>2022-04-22T12:04:36Z</time>
      </trkpt>
      <trkpt lat="50.13654" lon="1.74558">
        <ele>3.8</ele>
        <time>2022-04-22T12:04:37Z</time>
      </trkpt>
      <trkpt lat="50.13654" lon="1.74558">
        <ele>3.8</ele>
        <time>2022-04-22T12:04:38Z</time>
      </trkpt>
      <trkpt lat="50.13654" lon="1.74558">
        <ele>3.8</ele>
        <time>2022-04-22T12:04:39Z</time>
      </trkpt>
      <trkpt lat="50.13654" lon="1.74558">
        <ele>3.8</ele>
        <time>2022-04-22T12:04:40Z</time>
      </trkpt>
      <trkpt lat="50.13654" lon="1.74558">
        <ele>3.8</ele>
        <time>2022-04-22T12:04:41Z</time>
      </trkpt>
      <trkpt lat="50.13654" lon="1.74558">
        <ele>3.8</ele>
        <time>2022-04-22T12:04:42Z</time>
      </trkpt>
      <trkpt lat="50.13654" lon="1.74558">
        <ele>3.8</ele>
        <time>2022-04-22T12:04:43Z</time>
      </trkpt>
      <trkpt lat="50.13654" lon="1.74558">
        <ele>3.8</ele>
        <time>2022-04-22T12:04:44Z</time>
      </trkpt>
      <trkpt lat="50.13655" lon="1.74526">
        <ele>4.4</ele>
        <time>2022-04-22T12:13:22Z</time>
      </trkpt>
      <trkpt lat="50.13655" lon="1.74527">
        <ele>4.4</ele>
        <time>2022-04-22T12:13:24Z</time>
      </trkpt>
      <trkpt lat="50.13655" lon="1.74527">
        <ele>4.4</ele>
        <time>2022-04-22T12:13:25Z</time>
      </trkpt>
      <trkpt lat="50.13655" lon="1.74527">
        <ele>4.4</ele>
        <time>2022-04-22T12:13:26Z</time>
      </trkpt>
      <trkpt lat="50.13655" lon="1.74527">
        <ele>4.4</ele>
        <time>2022-04-22T12:13:27Z</time>
      </trkpt>
      <trkpt lat="50.13655" lon="1.74527">
        <ele>4.4</ele>
        <time>2022-04-22T12:13:28Z</time>
      </trkpt>
      <trkpt lat="50.13655" lon="1.74527">
        <ele>4.4</ele>
        <time>2022-04-22T12:13:29Z</time>
      </trkpt>
      <trkpt lat="50.13655" lon="1.74527">
        <ele>4.4</ele>
        <time>2022-04-22T12:13:30Z</time>
      </trkpt>
      <trkpt lat="50.13655" lon="1.74526">
        <ele>4.4</ele>
        <time>2022-04-22T12:13:31Z</time>
      </trkpt>
      <trkpt lat="50.13655" lon="1.74525">
        <ele>4.4</ele>
        <time>2022-04-22T12:13:32Z</time>
      </trkpt>
      <trkpt lat="50.13655" lon="1.74524">
        <ele>4.5</ele>
        <time>2022-04-22T12:13:33Z</time>
      </trkpt>
      <trkpt lat="50.13656" lon="1.74523">
        <ele>4.5</ele>
        <time>2022-04-22T12:13:34Z</time>
      </trkpt>
      <trkpt lat="50.13656" lon="1.74521">
        <ele>4.5</ele>
        <time>2022-04-22T12:13:35Z</time>
      </trkpt>
      <trkpt lat="50.13656" lon="1.7452">
        <ele>4.6</ele>
        <time>2022-04-22T12:13:36Z</time>
      </trkpt>
      <trkpt lat="50.13656" lon="1.74519">
        <ele>4.6</ele>
        <time>2022-04-22T12:13:37Z</time>
      </trkpt>
      <trkpt lat="50.13656" lon="1.74517">
        <ele>4.6</ele>
        <time>2022-04-22T12:13:38Z</time>
      </trkpt>
      <trkpt lat="50.13657" lon="1.74516">
        <ele>4.6</ele>
        <time>2022-04-22T12:13:39Z</time>
      </trkpt>
      <trkpt lat="50.13657" lon="1.74515">
        <ele>4.7</ele>
        <time>2022-04-22T12:13:40Z</time>
      </trkpt>
      <trkpt lat="50.13657" lon="1.74513">
        <ele>4.7</ele>
        <time>2022-04-22T12:13:41Z</time>
      </trkpt>
      <trkpt lat="50.13657" lon="1.74512">
        <ele>4.7</ele>
        <time>2022-04-22T12:13:42Z</time>
      </trkpt>
      <trkpt lat="50.13657" lon="1.7451">
        <ele>5.2</ele>
        <time>2022-04-22T12:13:43Z</time>
      </trkpt>
      <trkpt lat="50.13658" lon="1.74508">
        <ele>5.2</ele>
        <time>2022-04-22T12:13:44Z</time>
      </trkpt>
      <trkpt lat="50.13659" lon="1.74508">
        <ele>5.2</ele>
        <time>2022-04-22T12:13:45Z</time>
      </trkpt>
      <trkpt lat="50.1366" lon="1.74507">
        <ele>5.2</ele>
        <time>2022-04-22T12:13:47Z</time>
      </trkpt>
      <trkpt lat="50.1366" lon="1.74506">
        <ele>5.2</ele>
        <time>2022-04-22T12:13:48Z</time>
      </trkpt>
      <trkpt lat="50.1366" lon="1.74505">
        <ele>5.2</ele>
        <time>2022-04-22T12:13:49Z</time>
      </trkpt>
      <trkpt lat="50.1366" lon="1.74504">
        <ele>5.2</ele>
        <time>2022-04-22T12:13:51Z</time>
      </trkpt>
      <trkpt lat="50.1366" lon="1.74503">
        <ele>5.2</ele>
        <time>2022-04-22T12:13:52Z</time>
      </trkpt>
      <trkpt lat="50.1366" lon="1.74502">
        <ele>5.2</ele>
        <time>2022-04-22T12:13:53Z</time>
      </trkpt>
      <trkpt lat="50.1366" lon="1.74501">
        <ele>5.2</ele>
        <time>2022-04-22T12:13:54Z</time>
      </trkpt>
      <trkpt lat="50.1366" lon="1.745">
        <ele>5.2</ele>
        <time>2022-04-22T12:13:56Z</time>
      </trkpt>
      <trkpt lat="50.1366" lon="1.74499">
        <ele>5.2</ele>
        <time>2022-04-22T12:13:57Z</time>
      </trkpt>
      <trkpt lat="50.1366" lon="1.74499">
        <ele>5.2</ele>
        <time>2022-04-22T12:13:59Z</time>
      </trkpt>
      <trkpt lat="50.1366" lon="1.74499">
        <ele>5.3</ele>
        <time>2022-04-22T12:14:00Z</time>
      </trkpt>
      <trkpt lat="50.1366" lon="1.74498">
        <ele>5.3</ele>
        <time>2022-04-22T12:14:01Z</time>
      </trkpt>
      <trkpt lat="50.13659" lon="1.74498">
        <ele>5.3</ele>
        <time>2022-04-22T12:14:02Z</time>
      </trkpt>
      <trkpt lat="50.13659" lon="1.74497">
        <ele>5.3</ele>
        <time>2022-04-22T12:14:04Z</time>
      </trkpt>
      <trkpt lat="50.13658" lon="1.74495">
        <ele>5.3</ele>
        <time>2022-04-22T12:14:06Z</time>
      </trkpt>
      <trkpt lat="50.13658" lon="1.74494">
        <ele>5.3</ele>
        <time>2022-04-22T12:14:07Z</time>
      </trkpt>
      <trkpt lat="50.13658" lon="1.74493">
        <ele>5.3</ele>
        <time>2022-04-22T12:14:08Z</time>
      </trkpt>
      <trkpt lat="50.13658" lon="1.74492">
        <ele>5.3</ele>
        <time>2022-04-22T12:14:09Z</time>
      </trkpt>
      <trkpt lat="50.13658" lon="1.74492">
        <ele>5.3</ele>
        <time>2022-04-22T12:14:10Z</time>
      </trkpt>
      <trkpt lat="50.13658" lon="1.74491">
        <ele>5.3</ele>
        <time>2022-04-22T12:14:11Z</time>
      </trkpt>
      <trkpt lat="50.13658" lon="1.74491">
        <ele>5.3</ele>
        <time>2022-04-22T12:14:12Z</time>
      </trkpt>
      <trkpt lat="50.13658" lon="1.74491">
        <ele>5.3</ele>
        <time>2022-04-22T12:14:13Z</time>
      </trkpt>
      <trkpt lat="50.13658" lon="1.7449">
        <ele>5.3</ele>
        <time>2022-04-22T12:14:15Z</time>
      </trkpt>
      <trkpt lat="50.13657" lon="1.7449">
        <ele>5.3</ele>
        <time>2022-04-22T12:14:16Z</time>
      </trkpt>
      <trkpt lat="50.13657" lon="1.74489">
        <ele>5.3</ele>
        <time>2022-04-22T12:14:17Z</time>
      </trkpt>
      <trkpt lat="50.13657" lon="1.74488">
        <ele>5.3</ele>
        <time>2022-04-22T12:14:18Z</time>
      </trkpt>
      <trkpt lat="50.13656" lon="1.74487">
        <ele>5.3</ele>
        <time>2022-04-22T12:14:20Z</time>
      </trkpt>
      <trkpt lat="50.13656" lon="1.74486">
        <ele>5.3</ele>
        <time>2022-04-22T12:14:21Z</time>
      </trkpt>
      <trkpt lat="50.13655" lon="1.74483">
        <ele>5.3</ele>
        <time>2022-04-22T12:14:22Z</time>
      </trkpt>
      <trkpt lat="50.13655" lon="1.74481">
        <ele>5.4</ele>
        <time>2022-04-22T12:14:23Z</time>
      </trkpt>
      <trkpt lat="50.13654" lon="1.74478">
        <ele>5.4</ele>
        <time>2022-04-22T12:14:24Z</time>
      </trkpt>
      <trkpt lat="50.13654" lon="1.74475">
        <ele>5.4</ele>
        <time>2022-04-22T12:14:26Z</time>
      </trkpt>
      <trkpt lat="50.13653" lon="1.74471">
        <ele>5.4</ele>
        <time>2022-04-22T12:14:27Z</time>
      </trkpt>
      <trkpt lat="50.13652" lon="1.7447">
        <ele>5.4</ele>
        <time>2022-04-22T12:14:28Z</time>
      </trkpt>
      <trkpt lat="50.13652" lon="1.74465">
        <ele>5.4</ele>
        <time>2022-04-22T12:14:29Z</time>
      </trkpt>
      <trkpt lat="50.13651" lon="1.74464">
        <ele>5.4</ele>
        <time>2022-04-22T12:14:30Z</time>
      </trkpt>
      <trkpt lat="50.13651" lon="1.7446">
        <ele>5.4</ele>
        <time>2022-04-22T12:14:32Z</time>
      </trkpt>
      <trkpt lat="50.1365" lon="1.74459">
        <ele>5.4</ele>
        <time>2022-04-22T12:14:33Z</time>
      </trkpt>
      <trkpt lat="50.1365" lon="1.74458">
        <ele>5.4</ele>
        <time>2022-04-22T12:14:34Z</time>
      </trkpt>
      <trkpt lat="50.13649" lon="1.74456">
        <ele>5.4</ele>
        <time>2022-04-22T12:14:35Z</time>
      </trkpt>
      <trkpt lat="50.13649" lon="1.74455">
        <ele>5.4</ele>
        <time>2022-04-22T12:14:37Z</time>
      </trkpt>
      <trkpt lat="50.13649" lon="1.74454">
        <ele>5.4</ele>
        <time>2022-04-22T12:14:38Z</time>
      </trkpt>
      <trkpt lat="50.13648" lon="1.74453">
        <ele>5.4</ele>
        <time>2022-04-22T12:14:39Z</time>
      </trkpt>
      <trkpt lat="50.13648" lon="1.74452">
        <ele>5.4</ele>
        <time>2022-04-22T12:14:40Z</time>
      </trkpt>
      <trkpt lat="50.13648" lon="1.7445">
        <ele>5.4</ele>
        <time>2022-04-22T12:14:41Z</time>
      </trkpt>
      <trkpt lat="50.13647" lon="1.74449">
        <ele>5.4</ele>
        <time>2022-04-22T12:14:42Z</time>
      </trkpt>
      <trkpt lat="50.13647" lon="1.74448">
        <ele>5.4</ele>
        <time>2022-04-22T12:14:43Z</time>
      </trkpt>
      <trkpt lat="50.13647" lon="1.74447">
        <ele>5.4</ele>
        <time>2022-04-22T12:14:44Z</time>
      </trkpt>
      <trkpt lat="50.13646" lon="1.74446">
        <ele>5.4</ele>
        <time>2022-04-22T12:14:45Z</time>
      </trkpt>
      <trkpt lat="50.13646" lon="1.74445">
        <ele>5.4</ele>
        <time>2022-04-22T12:14:47Z</time>
      </trkpt>
      <trkpt lat="50.13646" lon="1.74444">
        <ele>5.4</ele>
        <time>2022-04-22T12:14:48Z</time>
      </trkpt>
      <trkpt lat="50.13646" lon="1.74443">
        <ele>5.4</ele>
        <time>2022-04-22T12:14:49Z</time>
      </trkpt>
      <trkpt lat="50.13646" lon="1.74441">
        <ele>5.4</ele>
        <time>2022-04-22T12:14:50Z</time>
      </trkpt>
      <trkpt lat="50.13646" lon="1.74441">
        <ele>5.4</ele>
        <time>2022-04-22T12:14:51Z</time>
      </trkpt>
      <trkpt lat="50.13646" lon="1.74439">
        <ele>5.3</ele>
        <time>2022-04-22T12:14:52Z</time>
      </trkpt>
      <trkpt lat="50.13645" lon="1.74438">
        <ele>5.3</ele>
        <time>2022-04-22T12:14:54Z</time>
      </trkpt>
      <trkpt lat="50.13646" lon="1.74436">
        <ele>5.3</ele>
        <time>2022-04-22T12:14:55Z</time>
      </trkpt>
      <trkpt lat="50.13645" lon="1.74434">
        <ele>5.3</ele>
        <time>2022-04-22T12:14:56Z</time>
      </trkpt>
      <trkpt lat="50.13645" lon="1.74433">
        <ele>5.3</ele>
        <time>2022-04-22T12:14:57Z</time>
      </trkpt>
      <trkpt lat="50.13645" lon="1.74432">
        <ele>5.3</ele>
        <time>2022-04-22T12:14:58Z</time>
      </trkpt>
      <trkpt lat="50.13644" lon="1.7443">
        <ele>5.3</ele>
        <time>2022-04-22T12:14:59Z</time>
      </trkpt>
      <trkpt lat="50.13644" lon="1.74428">
        <ele>5.3</ele>
        <time>2022-04-22T12:15:00Z</time>
      </trkpt>
      <trkpt lat="50.13643" lon="1.74426">
        <ele>5.3</ele>
        <time>2022-04-22T12:15:01Z</time>
      </trkpt>
      <trkpt lat="50.13643" lon="1.74424">
        <ele>5.3</ele>
        <time>2022-04-22T12:15:03Z</time>
      </trkpt>
      <trkpt lat="50.13642" lon="1.74421">
        <ele>5.3</ele>
        <time>2022-04-22T12:15:04Z</time>
      </trkpt>
      <trkpt lat="50.13642" lon="1.74418">
        <ele>5.2</ele>
        <time>2022-04-22T12:15:05Z</time>
      </trkpt>
      <trkpt lat="50.13642" lon="1.74416">
        <ele>5.2</ele>
        <time>2022-04-22T12:15:06Z</time>
      </trkpt>
      <trkpt lat="50.13642" lon="1.74414">
        <ele>5.2</ele>
        <time>2022-04-22T12:15:07Z</time>
      </trkpt>
      <trkpt lat="50.13642" lon="1.74412">
        <ele>5.2</ele>
        <time>2022-04-22T12:15:08Z</time>
      </trkpt>
      <trkpt lat="50.13642" lon="1.74409">
        <ele>5.2</ele>
        <time>2022-04-22T12:15:10Z</time>
      </trkpt>
      <trkpt lat="50.13642" lon="1.74408">
        <ele>5.2</ele>
        <time>2022-04-22T12:15:11Z</time>
      </trkpt>
      <trkpt lat="50.13642" lon="1.74408">
        <ele>5.2</ele>
        <time>2022-04-22T12:15:12Z</time>
      </trkpt>
      <trkpt lat="50.13641" lon="1.74407">
        <ele>5.2</ele>
        <time>2022-04-22T12:15:13Z</time>
      </trkpt>
      <trkpt lat="50.13641" lon="1.74405">
        <ele>5.2</ele>
        <time>2022-04-22T12:15:15Z</time>
      </trkpt>
      <trkpt lat="50.1364" lon="1.74404">
        <ele>5.2</ele>
        <time>2022-04-22T12:15:16Z</time>
      </trkpt>
      <trkpt lat="50.13639" lon="1.74404">
        <ele>5.2</ele>
        <time>2022-04-22T12:15:17Z</time>
      </trkpt>
      <trkpt lat="50.13639" lon="1.74404">
        <ele>5.2</ele>
        <time>2022-04-22T12:15:18Z</time>
      </trkpt>
      <trkpt lat="50.13638" lon="1.74402">
        <ele>5.2</ele>
        <time>2022-04-22T12:15:19Z</time>
      </trkpt>
      <trkpt lat="50.13636" lon="1.744">
        <ele>5.1</ele>
        <time>2022-04-22T12:15:20Z</time>
      </trkpt>
      <trkpt lat="50.13636" lon="1.74398">
        <ele>5.1</ele>
        <time>2022-04-22T12:15:21Z</time>
      </trkpt>
      <trkpt lat="50.13635" lon="1.74397">
        <ele>5.1</ele>
        <time>2022-04-22T12:15:23Z</time>
      </trkpt>
      <trkpt lat="50.13635" lon="1.74396">
        <ele>5.1</ele>
        <time>2022-04-22T12:15:24Z</time>
      </trkpt>
      <trkpt lat="50.13634" lon="1.74394">
        <ele>5.1</ele>
        <time>2022-04-22T12:15:25Z</time>
      </trkpt>
      <trkpt lat="50.13633" lon="1.74393">
        <ele>5.1</ele>
        <time>2022-04-22T12:15:26Z</time>
      </trkpt>
      <trkpt lat="50.13633" lon="1.74391">
        <ele>5.1</ele>
        <time>2022-04-22T12:15:27Z</time>
      </trkpt>
      <trkpt lat="50.13632" lon="1.7439">
        <ele>5.1</ele>
        <time>2022-04-22T12:15:28Z</time>
      </trkpt>
      <trkpt lat="50.13631" lon="1.74389">
        <ele>5.1</ele>
        <time>2022-04-22T12:15:29Z</time>
      </trkpt>
      <trkpt lat="50.1363" lon="1.74386">
        <ele>5.1</ele>
        <time>2022-04-22T12:15:31Z</time>
      </trkpt>
      <trkpt lat="50.13629" lon="1.74385">
        <ele>5.1</ele>
        <time>2022-04-22T12:15:32Z</time>
      </trkpt>
      <trkpt lat="50.13629" lon="1.74384">
        <ele>5.1</ele>
        <time>2022-04-22T12:15:33Z</time>
      </trkpt>
      <trkpt lat="50.13628" lon="1.74383">
        <ele>5.1</ele>
        <time>2022-04-22T12:15:34Z</time>
      </trkpt>
      <trkpt lat="50.13627" lon="1.74381">
        <ele>5.1</ele>
        <time>2022-04-22T12:15:36Z</time>
      </trkpt>
      <trkpt lat="50.13627" lon="1.74381">
        <ele>5.1</ele>
        <time>2022-04-22T12:15:37Z</time>
      </trkpt>
      <trkpt lat="50.13626" lon="1.74379">
        <ele>5.1</ele>
        <time>2022-04-22T12:15:38Z</time>
      </trkpt>
      <trkpt lat="50.13625" lon="1.74377">
        <ele>5.1</ele>
        <time>2022-04-22T12:15:39Z</time>
      </trkpt>
      <trkpt lat="50.13625" lon="1.74376">
        <ele>5.1</ele>
        <time>2022-04-22T12:15:40Z</time>
      </trkpt>
      <trkpt lat="50.13624" lon="1.74375">
        <ele>5.1</ele>
        <time>2022-04-22T12:15:41Z</time>
      </trkpt>
      <trkpt lat="50.13623" lon="1.74373">
        <ele>5</ele>
        <time>2022-04-22T12:15:42Z</time>
      </trkpt>
      <trkpt lat="50.13622" lon="1.74368">
        <ele>5</ele>
        <time>2022-04-22T12:15:43Z</time>
      </trkpt>
      <trkpt lat="50.13621" lon="1.74367">
        <ele>5</ele>
        <time>2022-04-22T12:15:44Z</time>
      </trkpt>
      <trkpt lat="50.13621" lon="1.74361">
        <ele>5</ele>
        <time>2022-04-22T12:15:46Z</time>
      </trkpt>
      <trkpt lat="50.1362" lon="1.7436">
        <ele>5</ele>
        <time>2022-04-22T12:15:47Z</time>
      </trkpt>
      <trkpt lat="50.13619" lon="1.74355">
        <ele>5</ele>
        <time>2022-04-22T12:15:48Z</time>
      </trkpt>
      <trkpt lat="50.13619" lon="1.74353">
        <ele>5</ele>
        <time>2022-04-22T12:15:49Z</time>
      </trkpt>
      <trkpt lat="50.13618" lon="1.74348">
        <ele>5</ele>
        <time>2022-04-22T12:15:50Z</time>
      </trkpt>
      <trkpt lat="50.13618" lon="1.74346">
        <ele>5</ele>
        <time>2022-04-22T12:15:51Z</time>
      </trkpt>
      <trkpt lat="50.13616" lon="1.74342">
        <ele>5</ele>
        <time>2022-04-22T12:15:52Z</time>
      </trkpt>
      <trkpt lat="50.13616" lon="1.7434">
        <ele>5</ele>
        <time>2022-04-22T12:15:53Z</time>
      </trkpt>
      <trkpt lat="50.13615" lon="1.74337">
        <ele>5</ele>
        <time>2022-04-22T12:15:54Z</time>
      </trkpt>
      <trkpt lat="50.13614" lon="1.74334">
        <ele>5</ele>
        <time>2022-04-22T12:15:56Z</time>
      </trkpt>
      <trkpt lat="50.13613" lon="1.74329">
        <ele>5</ele>
        <time>2022-04-22T12:15:57Z</time>
      </trkpt>
      <trkpt lat="50.13613" lon="1.74328">
        <ele>5</ele>
        <time>2022-04-22T12:15:58Z</time>
      </trkpt>
      <trkpt lat="50.13612" lon="1.74326">
        <ele>5</ele>
        <time>2022-04-22T12:15:59Z</time>
      </trkpt>
      <trkpt lat="50.13611" lon="1.74324">
        <ele>5</ele>
        <time>2022-04-22T12:16:00Z</time>
      </trkpt>
      <trkpt lat="50.13609" lon="1.74322">
        <ele>5</ele>
        <time>2022-04-22T12:16:01Z</time>
      </trkpt>
      <trkpt lat="50.13608" lon="1.7432">
        <ele>5</ele>
        <time>2022-04-22T12:16:02Z</time>
      </trkpt>
      <trkpt lat="50.13607" lon="1.7432">
        <ele>5</ele>
        <time>2022-04-22T12:16:03Z</time>
      </trkpt>
      <trkpt lat="50.13606" lon="1.74319">
        <ele>5</ele>
        <time>2022-04-22T12:16:04Z</time>
      </trkpt>
      <trkpt lat="50.13605" lon="1.74319">
        <ele>5</ele>
        <time>2022-04-22T12:16:06Z</time>
      </trkpt>
      <trkpt lat="50.13605" lon="1.74319">
        <ele>5</ele>
        <time>2022-04-22T12:16:07Z</time>
      </trkpt>
      <trkpt lat="50.13603" lon="1.74318">
        <ele>4.9</ele>
        <time>2022-04-22T12:16:08Z</time>
      </trkpt>
      <trkpt lat="50.13602" lon="1.74317">
        <ele>4.9</ele>
        <time>2022-04-22T12:16:09Z</time>
      </trkpt>
      <trkpt lat="50.136" lon="1.74316">
        <ele>4.9</ele>
        <time>2022-04-22T12:16:11Z</time>
      </trkpt>
      <trkpt lat="50.13599" lon="1.74315">
        <ele>4.9</ele>
        <time>2022-04-22T12:16:12Z</time>
      </trkpt>
      <trkpt lat="50.13598" lon="1.74315">
        <ele>4.9</ele>
        <time>2022-04-22T12:16:13Z</time>
      </trkpt>
      <trkpt lat="50.13597" lon="1.74314">
        <ele>4.9</ele>
        <time>2022-04-22T12:16:14Z</time>
      </trkpt>
      <trkpt lat="50.13597" lon="1.74314">
        <ele>4.9</ele>
        <time>2022-04-22T12:16:15Z</time>
      </trkpt>
      <trkpt lat="50.13596" lon="1.74313">
        <ele>4.9</ele>
        <time>2022-04-22T12:16:16Z</time>
      </trkpt>
      <trkpt lat="50.13595" lon="1.74312">
        <ele>4.9</ele>
        <time>2022-04-22T12:16:17Z</time>
      </trkpt>
      <trkpt lat="50.13594" lon="1.74312">
        <ele>4.9</ele>
        <time>2022-04-22T12:16:18Z</time>
      </trkpt>
      <trkpt lat="50.13593" lon="1.74311">
        <ele>4.9</ele>
        <time>2022-04-22T12:16:19Z</time>
      </trkpt>
      <trkpt lat="50.13593" lon="1.7431">
        <ele>4.9</ele>
        <time>2022-04-22T12:16:21Z</time>
      </trkpt>
      <trkpt lat="50.13592" lon="1.74309">
        <ele>5</ele>
        <time>2022-04-22T12:16:22Z</time>
      </trkpt>
      <trkpt lat="50.13591" lon="1.74308">
        <ele>5</ele>
        <time>2022-04-22T12:16:23Z</time>
      </trkpt>
      <trkpt lat="50.1359" lon="1.74307">
        <ele>5</ele>
        <time>2022-04-22T12:16:24Z</time>
      </trkpt>
      <trkpt lat="50.13589" lon="1.74306">
        <ele>5</ele>
        <time>2022-04-22T12:16:25Z</time>
      </trkpt>
      <trkpt lat="50.13589" lon="1.74305">
        <ele>5</ele>
        <time>2022-04-22T12:16:26Z</time>
      </trkpt>
      <trkpt lat="50.13588" lon="1.74304">
        <ele>5</ele>
        <time>2022-04-22T12:16:27Z</time>
      </trkpt>
      <trkpt lat="50.13587" lon="1.74303">
        <ele>5</ele>
        <time>2022-04-22T12:16:28Z</time>
      </trkpt>
      <trkpt lat="50.13586" lon="1.74302">
        <ele>5</ele>
        <time>2022-04-22T12:16:30Z</time>
      </trkpt>
      <trkpt lat="50.13586" lon="1.74301">
        <ele>5</ele>
        <time>2022-04-22T12:16:31Z</time>
      </trkpt>
      <trkpt lat="50.13584" lon="1.743">
        <ele>5</ele>
        <time>2022-04-22T12:16:32Z</time>
      </trkpt>
      <trkpt lat="50.13583" lon="1.74299">
        <ele>5</ele>
        <time>2022-04-22T12:16:33Z</time>
      </trkpt>
      <trkpt lat="50.13582" lon="1.74298">
        <ele>5</ele>
        <time>2022-04-22T12:16:34Z</time>
      </trkpt>
      <trkpt lat="50.13582" lon="1.74297">
        <ele>5</ele>
        <time>2022-04-22T12:16:35Z</time>
      </trkpt>
      <trkpt lat="50.13581" lon="1.74296">
        <ele>5</ele>
        <time>2022-04-22T12:16:36Z</time>
      </trkpt>
      <trkpt lat="50.13579" lon="1.74295">
        <ele>5</ele>
        <time>2022-04-22T12:16:37Z</time>
      </trkpt>
      <trkpt lat="50.13579" lon="1.74294">
        <ele>5</ele>
        <time>2022-04-22T12:16:39Z</time>
      </trkpt>
      <trkpt lat="50.13578" lon="1.74293">
        <ele>5</ele>
        <time>2022-04-22T12:16:40Z</time>
      </trkpt>
      <trkpt lat="50.13577" lon="1.74292">
        <ele>5.1</ele>
        <time>2022-04-22T12:16:41Z</time>
      </trkpt>
      <trkpt lat="50.13576" lon="1.74291">
        <ele>5.1</ele>
        <time>2022-04-22T12:16:42Z</time>
      </trkpt>
      <trkpt lat="50.13574" lon="1.7429">
        <ele>5.1</ele>
        <time>2022-04-22T12:16:43Z</time>
      </trkpt>
      <trkpt lat="50.13573" lon="1.74289">
        <ele>5.1</ele>
        <time>2022-04-22T12:16:44Z</time>
      </trkpt>
      <trkpt lat="50.13573" lon="1.74289">
        <ele>5.1</ele>
        <time>2022-04-22T12:16:45Z</time>
      </trkpt>
      <trkpt lat="50.13572" lon="1.74288">
        <ele>5.1</ele>
        <time>2022-04-22T12:16:46Z</time>
      </trkpt>
      <trkpt lat="50.1357" lon="1.74287">
        <ele>5.1</ele>
        <time>2022-04-22T12:16:47Z</time>
      </trkpt>
      <trkpt lat="50.1357" lon="1.74286">
        <ele>5.1</ele>
        <time>2022-04-22T12:16:49Z</time>
      </trkpt>
      <trkpt lat="50.13568" lon="1.74285">
        <ele>5.1</ele>
        <time>2022-04-22T12:16:50Z</time>
      </trkpt>
      <trkpt lat="50.13568" lon="1.74283">
        <ele>5.1</ele>
        <time>2022-04-22T12:16:52Z</time>
      </trkpt>
      <trkpt lat="50.13568" lon="1.74281">
        <ele>5.1</ele>
        <time>2022-04-22T12:16:53Z</time>
      </trkpt>
      <trkpt lat="50.13569" lon="1.74278">
        <ele>5</ele>
        <time>2022-04-22T12:16:54Z</time>
      </trkpt>
      <trkpt lat="50.13569" lon="1.74277">
        <ele>5</ele>
        <time>2022-04-22T12:16:55Z</time>
      </trkpt>
      <trkpt lat="50.13569" lon="1.74276">
        <ele>5</ele>
        <time>2022-04-22T12:16:56Z</time>
      </trkpt>
      <trkpt lat="50.13571" lon="1.74274">
        <ele>5</ele>
        <time>2022-04-22T12:16:58Z</time>
      </trkpt>
      <trkpt lat="50.13571" lon="1.74272">
        <ele>4.9</ele>
        <time>2022-04-22T12:16:59Z</time>
      </trkpt>
      <trkpt lat="50.13572" lon="1.74271">
        <ele>4.9</ele>
        <time>2022-04-22T12:17:01Z</time>
      </trkpt>
      <trkpt lat="50.13573" lon="1.74269">
        <ele>4.8</ele>
        <time>2022-04-22T12:17:02Z</time>
      </trkpt>
      <trkpt lat="50.13573" lon="1.74268">
        <ele>4.8</ele>
        <time>2022-04-22T12:17:03Z</time>
      </trkpt>
      <trkpt lat="50.13574" lon="1.74267">
        <ele>4.8</ele>
        <time>2022-04-22T12:17:04Z</time>
      </trkpt>
      <trkpt lat="50.13574" lon="1.74266">
        <ele>4.7</ele>
        <time>2022-04-22T12:17:06Z</time>
      </trkpt>
      <trkpt lat="50.13575" lon="1.74264">
        <ele>4.7</ele>
        <time>2022-04-22T12:17:07Z</time>
      </trkpt>
      <trkpt lat="50.13576" lon="1.74263">
        <ele>4.6</ele>
        <time>2022-04-22T12:17:08Z</time>
      </trkpt>
      <trkpt lat="50.13576" lon="1.74262">
        <ele>4.6</ele>
        <time>2022-04-22T12:17:09Z</time>
      </trkpt>
      <trkpt lat="50.13577" lon="1.74261">
        <ele>4.5</ele>
        <time>2022-04-22T12:17:11Z</time>
      </trkpt>
      <trkpt lat="50.13578" lon="1.74261">
        <ele>4.5</ele>
        <time>2022-04-22T12:17:12Z</time>
      </trkpt>
      <trkpt lat="50.13578" lon="1.74261">
        <ele>4.5</ele>
        <time>2022-04-22T12:17:13Z</time>
      </trkpt>
      <trkpt lat="50.13578" lon="1.74261">
        <ele>4.5</ele>
        <time>2022-04-22T12:17:14Z</time>
      </trkpt>
      <trkpt lat="50.13578" lon="1.74262">
        <ele>4.5</ele>
        <time>2022-04-22T12:17:15Z</time>
      </trkpt>
      <trkpt lat="50.13578" lon="1.74262">
        <ele>4.5</ele>
        <time>2022-04-22T12:17:16Z</time>
      </trkpt>
      <trkpt lat="50.13578" lon="1.74262">
        <ele>4.5</ele>
        <time>2022-04-22T12:17:17Z</time>
      </trkpt>
      <trkpt lat="50.13578" lon="1.74262">
        <ele>4.4</ele>
        <time>2022-04-22T12:17:18Z</time>
      </trkpt>
      <trkpt lat="50.13578" lon="1.74263">
        <ele>4.4</ele>
        <time>2022-04-22T12:17:19Z</time>
      </trkpt>
      <trkpt lat="50.13578" lon="1.74263">
        <ele>4.4</ele>
        <time>2022-04-22T12:17:20Z</time>
      </trkpt>
      <trkpt lat="50.13578" lon="1.74263">
        <ele>4.4</ele>
        <time>2022-04-22T12:17:21Z</time>
      </trkpt>
      <trkpt lat="50.13578" lon="1.74263">
        <ele>4.4</ele>
        <time>2022-04-22T12:17:22Z</time>
      </trkpt>
      <trkpt lat="50.13578" lon="1.74263">
        <ele>4.4</ele>
        <time>2022-04-22T12:17:23Z</time>
      </trkpt>
      <trkpt lat="50.13578" lon="1.74264">
        <ele>4.4</ele>
        <time>2022-04-22T12:17:24Z</time>
      </trkpt>
      <trkpt lat="50.13578" lon="1.74264">
        <ele>4.4</ele>
        <time>2022-04-22T12:17:25Z</time>
      </trkpt>
      <trkpt lat="50.13579" lon="1.74265">
        <ele>4.3</ele>
        <time>2022-04-22T12:17:27Z</time>
      </trkpt>
      <trkpt lat="50.1358" lon="1.74265">
        <ele>4.3</ele>
        <time>2022-04-22T12:17:28Z</time>
      </trkpt>
      <trkpt lat="50.1358" lon="1.74264">
        <ele>4.3</ele>
        <time>2022-04-22T12:17:29Z</time>
      </trkpt>
      <trkpt lat="50.1358" lon="1.74264">
        <ele>4.3</ele>
        <time>2022-04-22T12:17:30Z</time>
      </trkpt>
      <trkpt lat="50.13581" lon="1.74263">
        <ele>4.2</ele>
        <time>2022-04-22T12:17:32Z</time>
      </trkpt>
      <trkpt lat="50.13581" lon="1.74261">
        <ele>4.2</ele>
        <time>2022-04-22T12:17:33Z</time>
      </trkpt>
      <trkpt lat="50.13581" lon="1.74258">
        <ele>4.1</ele>
        <time>2022-04-22T12:17:34Z</time>
      </trkpt>
      <trkpt lat="50.13581" lon="1.74257">
        <ele>4.1</ele>
        <time>2022-04-22T12:17:35Z</time>
      </trkpt>
      <trkpt lat="50.13582" lon="1.74255">
        <ele>4.1</ele>
        <time>2022-04-22T12:17:36Z</time>
      </trkpt>
      <trkpt lat="50.13582" lon="1.74253">
        <ele>4</ele>
        <time>2022-04-22T12:17:37Z</time>
      </trkpt>
      <trkpt lat="50.13583" lon="1.74251">
        <ele>4</ele>
        <time>2022-04-22T12:17:39Z</time>
      </trkpt>
      <trkpt lat="50.13583" lon="1.74249">
        <ele>3.9</ele>
        <time>2022-04-22T12:17:40Z</time>
      </trkpt>
      <trkpt lat="50.13584" lon="1.74247">
        <ele>3.9</ele>
        <time>2022-04-22T12:17:41Z</time>
      </trkpt>
      <trkpt lat="50.13584" lon="1.74246">
        <ele>3.9</ele>
        <time>2022-04-22T12:17:42Z</time>
      </trkpt>
      <trkpt lat="50.13585" lon="1.74243">
        <ele>3.8</ele>
        <time>2022-04-22T12:17:43Z</time>
      </trkpt>
      <trkpt lat="50.13586" lon="1.74241">
        <ele>3.8</ele>
        <time>2022-04-22T12:17:44Z</time>
      </trkpt>
      <trkpt lat="50.13586" lon="1.7424">
        <ele>3.8</ele>
        <time>2022-04-22T12:17:45Z</time>
      </trkpt>
      <trkpt lat="50.13586" lon="1.74239">
        <ele>3.8</ele>
        <time>2022-04-22T12:17:47Z</time>
      </trkpt>
      <trkpt lat="50.13587" lon="1.74237">
        <ele>3.7</ele>
        <time>2022-04-22T12:17:48Z</time>
      </trkpt>
      <trkpt lat="50.13587" lon="1.74236">
        <ele>3.7</ele>
        <time>2022-04-22T12:17:49Z</time>
      </trkpt>
      <trkpt lat="50.13587" lon="1.74234">
        <ele>3.7</ele>
        <time>2022-04-22T12:17:50Z</time>
      </trkpt>
      <trkpt lat="50.13587" lon="1.74232">
        <ele>3.7</ele>
        <time>2022-04-22T12:17:51Z</time>
      </trkpt>
      <trkpt lat="50.13587" lon="1.7423">
        <ele>3.7</ele>
        <time>2022-04-22T12:17:52Z</time>
      </trkpt>
      <trkpt lat="50.13588" lon="1.74229">
        <ele>3.6</ele>
        <time>2022-04-22T12:17:53Z</time>
      </trkpt>
      <trkpt lat="50.13588" lon="1.74227">
        <ele>3.6</ele>
        <time>2022-04-22T12:17:55Z</time>
      </trkpt>
      <trkpt lat="50.13588" lon="1.74226">
        <ele>3.6</ele>
        <time>2022-04-22T12:17:56Z</time>
      </trkpt>
      <trkpt lat="50.13588" lon="1.74224">
        <ele>3.6</ele>
        <time>2022-04-22T12:17:57Z</time>
      </trkpt>
      <trkpt lat="50.13589" lon="1.74221">
        <ele>3.6</ele>
        <time>2022-04-22T12:17:58Z</time>
      </trkpt>
      <trkpt lat="50.13589" lon="1.74218">
        <ele>3.5</ele>
        <time>2022-04-22T12:18:00Z</time>
      </trkpt>
      <trkpt lat="50.13589" lon="1.74216">
        <ele>3.5</ele>
        <time>2022-04-22T12:18:01Z</time>
      </trkpt>
      <trkpt lat="50.13589" lon="1.74211">
        <ele>3.5</ele>
        <time>2022-04-22T12:18:02Z</time>
      </trkpt>
      <trkpt lat="50.13589" lon="1.7421">
        <ele>3.5</ele>
        <time>2022-04-22T12:18:04Z</time>
      </trkpt>
      <trkpt lat="50.13588" lon="1.74209">
        <ele>3.5</ele>
        <time>2022-04-22T12:18:05Z</time>
      </trkpt>
      <trkpt lat="50.13588" lon="1.74207">
        <ele>3.5</ele>
        <time>2022-04-22T12:18:06Z</time>
      </trkpt>
      <trkpt lat="50.13588" lon="1.74206">
        <ele>3.5</ele>
        <time>2022-04-22T12:18:07Z</time>
      </trkpt>
      <trkpt lat="50.13587" lon="1.74204">
        <ele>3.4</ele>
        <time>2022-04-22T12:18:08Z</time>
      </trkpt>
      <trkpt lat="50.13587" lon="1.74202">
        <ele>3.4</ele>
        <time>2022-04-22T12:18:09Z</time>
      </trkpt>
      <trkpt lat="50.13585" lon="1.74199">
        <ele>3.4</ele>
        <time>2022-04-22T12:18:11Z</time>
      </trkpt>
      <trkpt lat="50.13585" lon="1.74198">
        <ele>3.4</ele>
        <time>2022-04-22T12:18:12Z</time>
      </trkpt>
      <trkpt lat="50.13584" lon="1.74197">
        <ele>3.4</ele>
        <time>2022-04-22T12:18:13Z</time>
      </trkpt>
      <trkpt lat="50.13583" lon="1.74195">
        <ele>3.4</ele>
        <time>2022-04-22T12:18:14Z</time>
      </trkpt>
      <trkpt lat="50.13583" lon="1.74194">
        <ele>3.4</ele>
        <time>2022-04-22T12:18:15Z</time>
      </trkpt>
      <trkpt lat="50.13582" lon="1.74193">
        <ele>3.4</ele>
        <time>2022-04-22T12:18:16Z</time>
      </trkpt>
      <trkpt lat="50.13581" lon="1.7419">
        <ele>3.3</ele>
        <time>2022-04-22T12:18:17Z</time>
      </trkpt>
      <trkpt lat="50.1358" lon="1.74189">
        <ele>3.3</ele>
        <time>2022-04-22T12:18:19Z</time>
      </trkpt>
      <trkpt lat="50.1358" lon="1.74189">
        <ele>3.3</ele>
        <time>2022-04-22T12:18:20Z</time>
      </trkpt>
      <trkpt lat="50.13579" lon="1.74187">
        <ele>3.3</ele>
        <time>2022-04-22T12:18:21Z</time>
      </trkpt>
      <trkpt lat="50.13578" lon="1.74185">
        <ele>3.3</ele>
        <time>2022-04-22T12:18:22Z</time>
      </trkpt>
      <trkpt lat="50.13577" lon="1.74183">
        <ele>3.3</ele>
        <time>2022-04-22T12:18:23Z</time>
      </trkpt>
      <trkpt lat="50.13577" lon="1.74181">
        <ele>3.3</ele>
        <time>2022-04-22T12:18:24Z</time>
      </trkpt>
      <trkpt lat="50.13576" lon="1.74179">
        <ele>3.3</ele>
        <time>2022-04-22T12:18:26Z</time>
      </trkpt>
      <trkpt lat="50.13575" lon="1.74177">
        <ele>3.3</ele>
        <time>2022-04-22T12:18:27Z</time>
      </trkpt>
      <trkpt lat="50.13575" lon="1.74176">
        <ele>3.2</ele>
        <time>2022-04-22T12:18:28Z</time>
      </trkpt>
      <trkpt lat="50.13573" lon="1.74174">
        <ele>3.2</ele>
        <time>2022-04-22T12:18:29Z</time>
      </trkpt>
      <trkpt lat="50.13573" lon="1.74173">
        <ele>3.2</ele>
        <time>2022-04-22T12:18:30Z</time>
      </trkpt>
      <trkpt lat="50.13572" lon="1.74172">
        <ele>3.2</ele>
        <time>2022-04-22T12:18:31Z</time>
      </trkpt>
      <trkpt lat="50.13571" lon="1.74169">
        <ele>3.2</ele>
        <time>2022-04-22T12:18:32Z</time>
      </trkpt>
      <trkpt lat="50.13571" lon="1.74168">
        <ele>3.2</ele>
        <time>2022-04-22T12:18:34Z</time>
      </trkpt>
      <trkpt lat="50.13571" lon="1.74166">
        <ele>3.2</ele>
        <time>2022-04-22T12:18:35Z</time>
      </trkpt>
      <trkpt lat="50.1357" lon="1.74164">
        <ele>3.2</ele>
        <time>2022-04-22T12:18:36Z</time>
      </trkpt>
      <trkpt lat="50.13569" lon="1.74163">
        <ele>3.2</ele>
        <time>2022-04-22T12:18:37Z</time>
      </trkpt>
      <trkpt lat="50.13568" lon="1.7416">
        <ele>3.2</ele>
        <time>2022-04-22T12:18:38Z</time>
      </trkpt>
      <trkpt lat="50.13568" lon="1.74159">
        <ele>3.2</ele>
        <time>2022-04-22T12:18:39Z</time>
      </trkpt>
      <trkpt lat="50.13568" lon="1.74158">
        <ele>3.2</ele>
        <time>2022-04-22T12:18:40Z</time>
      </trkpt>
      <trkpt lat="50.13565" lon="1.74152">
        <ele>3.2</ele>
        <time>2022-04-22T12:18:42Z</time>
      </trkpt>
      <trkpt lat="50.13563" lon="1.74148">
        <ele>3.2</ele>
        <time>2022-04-22T12:18:43Z</time>
      </trkpt>
      <trkpt lat="50.13563" lon="1.74147">
        <ele>3.2</ele>
        <time>2022-04-22T12:18:44Z</time>
      </trkpt>
      <trkpt lat="50.13562" lon="1.74146">
        <ele>3.2</ele>
        <time>2022-04-22T12:18:45Z</time>
      </trkpt>
      <trkpt lat="50.13562" lon="1.74144">
        <ele>3.2</ele>
        <time>2022-04-22T12:18:46Z</time>
      </trkpt>
      <trkpt lat="50.13561" lon="1.74143">
        <ele>3.2</ele>
        <time>2022-04-22T12:18:47Z</time>
      </trkpt>
      <trkpt lat="50.1356" lon="1.74142">
        <ele>3.3</ele>
        <time>2022-04-22T12:18:49Z</time>
      </trkpt>
      <trkpt lat="50.13559" lon="1.74141">
        <ele>3.3</ele>
        <time>2022-04-22T12:18:50Z</time>
      </trkpt>
      <trkpt lat="50.13558" lon="1.74138">
        <ele>3.3</ele>
        <time>2022-04-22T12:18:51Z</time>
      </trkpt>
      <trkpt lat="50.13558" lon="1.74137">
        <ele>3.3</ele>
        <time>2022-04-22T12:18:52Z</time>
      </trkpt>
      <trkpt lat="50.13558" lon="1.74136">
        <ele>3.3</ele>
        <time>2022-04-22T12:18:53Z</time>
      </trkpt>
      <trkpt lat="50.13557" lon="1.74134">
        <ele>3.3</ele>
        <time>2022-04-22T12:18:54Z</time>
      </trkpt>
      <trkpt lat="50.13557" lon="1.74133">
        <ele>3.3</ele>
        <time>2022-04-22T12:18:55Z</time>
      </trkpt>
      <trkpt lat="50.13556" lon="1.74131">
        <ele>3.3</ele>
        <time>2022-04-22T12:18:57Z</time>
      </trkpt>
      <trkpt lat="50.13556" lon="1.74129">
        <ele>3.3</ele>
        <time>2022-04-22T12:18:58Z</time>
      </trkpt>
      <trkpt lat="50.13555" lon="1.74127">
        <ele>3.3</ele>
        <time>2022-04-22T12:18:59Z</time>
      </trkpt>
      <trkpt lat="50.13555" lon="1.74126">
        <ele>3.4</ele>
        <time>2022-04-22T12:19:00Z</time>
      </trkpt>
      <trkpt lat="50.13555" lon="1.74124">
        <ele>3.4</ele>
        <time>2022-04-22T12:19:01Z</time>
      </trkpt>
      <trkpt lat="50.13555" lon="1.74122">
        <ele>3.4</ele>
        <time>2022-04-22T12:19:02Z</time>
      </trkpt>
      <trkpt lat="50.13555" lon="1.74119">
        <ele>3.4</ele>
        <time>2022-04-22T12:19:04Z</time>
      </trkpt>
      <trkpt lat="50.13554" lon="1.74118">
        <ele>3.4</ele>
        <time>2022-04-22T12:19:05Z</time>
      </trkpt>
      <trkpt lat="50.13554" lon="1.74117">
        <ele>3.4</ele>
        <time>2022-04-22T12:19:06Z</time>
      </trkpt>
      <trkpt lat="50.13553" lon="1.74116">
        <ele>3.4</ele>
        <time>2022-04-22T12:19:07Z</time>
      </trkpt>
      <trkpt lat="50.13552" lon="1.74114">
        <ele>3.4</ele>
        <time>2022-04-22T12:19:08Z</time>
      </trkpt>
      <trkpt lat="50.13551" lon="1.74112">
        <ele>3.4</ele>
        <time>2022-04-22T12:19:10Z</time>
      </trkpt>
      <trkpt lat="50.13551" lon="1.74112">
        <ele>3.5</ele>
        <time>2022-04-22T12:19:11Z</time>
      </trkpt>
      <trkpt lat="50.13551" lon="1.74111">
        <ele>3.5</ele>
        <time>2022-04-22T12:19:12Z</time>
      </trkpt>
      <trkpt lat="50.1355" lon="1.74111">
        <ele>3.5</ele>
        <time>2022-04-22T12:19:13Z</time>
      </trkpt>
      <trkpt lat="50.1355" lon="1.7411">
        <ele>3.5</ele>
        <time>2022-04-22T12:19:14Z</time>
      </trkpt>
      <trkpt lat="50.13551" lon="1.7411">
        <ele>3.5</ele>
        <time>2022-04-22T12:19:15Z</time>
      </trkpt>
      <trkpt lat="50.13551" lon="1.7411">
        <ele>3.5</ele>
        <time>2022-04-22T12:19:19Z</time>
      </trkpt>
      <trkpt lat="50.13552" lon="1.7411">
        <ele>3.5</ele>
        <time>2022-04-22T12:19:20Z</time>
      </trkpt>
      <trkpt lat="50.13552" lon="1.7411">
        <ele>3.5</ele>
        <time>2022-04-22T12:19:21Z</time>
      </trkpt>
      <trkpt lat="50.13552" lon="1.74111">
        <ele>3.5</ele>
        <time>2022-04-22T12:19:22Z</time>
      </trkpt>
      <trkpt lat="50.13552" lon="1.74111">
        <ele>3.5</ele>
        <time>2022-04-22T12:19:23Z</time>
      </trkpt>
      <trkpt lat="50.13552" lon="1.74111">
        <ele>3.5</ele>
        <time>2022-04-22T12:19:24Z</time>
      </trkpt>
      <trkpt lat="50.13552" lon="1.74112">
        <ele>3.5</ele>
        <time>2022-04-22T12:19:25Z</time>
      </trkpt>
      <trkpt lat="50.13552" lon="1.74112">
        <ele>3.5</ele>
        <time>2022-04-22T12:19:27Z</time>
      </trkpt>
      <trkpt lat="50.13553" lon="1.74112">
        <ele>3.5</ele>
        <time>2022-04-22T12:19:29Z</time>
      </trkpt>
      <trkpt lat="50.13553" lon="1.74112">
        <ele>3.5</ele>
        <time>2022-04-22T12:19:30Z</time>
      </trkpt>
      <trkpt lat="50.13553" lon="1.74112">
        <ele>3.5</ele>
        <time>2022-04-22T12:19:31Z</time>
      </trkpt>
      <trkpt lat="50.13554" lon="1.74112">
        <ele>3.5</ele>
        <time>2022-04-22T12:19:33Z</time>
      </trkpt>
      <trkpt lat="50.13554" lon="1.74112">
        <ele>3.5</ele>
        <time>2022-04-22T12:19:34Z</time>
      </trkpt>
      <trkpt lat="50.13555" lon="1.74112">
        <ele>3.5</ele>
        <time>2022-04-22T12:19:35Z</time>
      </trkpt>
      <trkpt lat="50.13555" lon="1.74111">
        <ele>3.5</ele>
        <time>2022-04-22T12:19:37Z</time>
      </trkpt>
      <trkpt lat="50.13555" lon="1.74109">
        <ele>3.5</ele>
        <time>2022-04-22T12:19:38Z</time>
      </trkpt>
      <trkpt lat="50.13553" lon="1.74107">
        <ele>3.5</ele>
        <time>2022-04-22T12:19:39Z</time>
      </trkpt>
      <trkpt lat="50.13552" lon="1.74105">
        <ele>3.5</ele>
        <time>2022-04-22T12:19:40Z</time>
      </trkpt>
      <trkpt lat="50.13551" lon="1.74104">
        <ele>3.6</ele>
        <time>2022-04-22T12:19:41Z</time>
      </trkpt>
      <trkpt lat="50.13549" lon="1.74102">
        <ele>3.6</ele>
        <time>2022-04-22T12:19:42Z</time>
      </trkpt>
      <trkpt lat="50.13548" lon="1.74102">
        <ele>3.6</ele>
        <time>2022-04-22T12:19:43Z</time>
      </trkpt>
      <trkpt lat="50.13545" lon="1.74099">
        <ele>3.6</ele>
        <time>2022-04-22T12:19:45Z</time>
      </trkpt>
      <trkpt lat="50.13544" lon="1.74099">
        <ele>3.6</ele>
        <time>2022-04-22T12:19:46Z</time>
      </trkpt>
      <trkpt lat="50.13543" lon="1.74097">
        <ele>3.6</ele>
        <time>2022-04-22T12:19:47Z</time>
      </trkpt>
      <trkpt lat="50.13542" lon="1.74095">
        <ele>3.6</ele>
        <time>2022-04-22T12:19:48Z</time>
      </trkpt>
      <trkpt lat="50.13541" lon="1.74092">
        <ele>3.6</ele>
        <time>2022-04-22T12:19:50Z</time>
      </trkpt>
      <trkpt lat="50.1354" lon="1.74091">
        <ele>3.6</ele>
        <time>2022-04-22T12:19:51Z</time>
      </trkpt>
      <trkpt lat="50.1354" lon="1.74089">
        <ele>3.6</ele>
        <time>2022-04-22T12:19:52Z</time>
      </trkpt>
      <trkpt lat="50.13539" lon="1.74088">
        <ele>3.6</ele>
        <time>2022-04-22T12:19:53Z</time>
      </trkpt>
      <trkpt lat="50.13539" lon="1.74087">
        <ele>3.6</ele>
        <time>2022-04-22T12:19:55Z</time>
      </trkpt>
      <trkpt lat="50.13538" lon="1.74085">
        <ele>3.6</ele>
        <time>2022-04-22T12:19:56Z</time>
      </trkpt>
      <trkpt lat="50.13538" lon="1.74084">
        <ele>3.6</ele>
        <time>2022-04-22T12:19:57Z</time>
      </trkpt>
      <trkpt lat="50.13538" lon="1.74082">
        <ele>3.6</ele>
        <time>2022-04-22T12:19:58Z</time>
      </trkpt>
      <trkpt lat="50.13538" lon="1.74081">
        <ele>3.6</ele>
        <time>2022-04-22T12:19:59Z</time>
      </trkpt>
      <trkpt lat="50.13538" lon="1.74079">
        <ele>3.6</ele>
        <time>2022-04-22T12:20:00Z</time>
      </trkpt>
      <trkpt lat="50.13538" lon="1.74077">
        <ele>3.6</ele>
        <time>2022-04-22T12:20:02Z</time>
      </trkpt>
      <trkpt lat="50.13538" lon="1.74076">
        <ele>3.6</ele>
        <time>2022-04-22T12:20:03Z</time>
      </trkpt>
      <trkpt lat="50.13538" lon="1.74074">
        <ele>3.6</ele>
        <time>2022-04-22T12:20:04Z</time>
      </trkpt>
      <trkpt lat="50.13538" lon="1.74072">
        <ele>3.6</ele>
        <time>2022-04-22T12:20:05Z</time>
      </trkpt>
      <trkpt lat="50.13539" lon="1.7407">
        <ele>3.6</ele>
        <time>2022-04-22T12:20:06Z</time>
      </trkpt>
      <trkpt lat="50.13539" lon="1.74069">
        <ele>3.6</ele>
        <time>2022-04-22T12:20:07Z</time>
      </trkpt>
      <trkpt lat="50.13539" lon="1.74068">
        <ele>3.6</ele>
        <time>2022-04-22T12:20:08Z</time>
      </trkpt>
      <trkpt lat="50.13539" lon="1.74067">
        <ele>3.6</ele>
        <time>2022-04-22T12:20:09Z</time>
      </trkpt>
      <trkpt lat="50.13539" lon="1.74065">
        <ele>3.6</ele>
        <time>2022-04-22T12:20:10Z</time>
      </trkpt>
      <trkpt lat="50.13539" lon="1.74062">
        <ele>3.6</ele>
        <time>2022-04-22T12:20:11Z</time>
      </trkpt>
      <trkpt lat="50.1354" lon="1.74059">
        <ele>3.5</ele>
        <time>2022-04-22T12:20:13Z</time>
      </trkpt>
      <trkpt lat="50.1354" lon="1.74058">
        <ele>3.5</ele>
        <time>2022-04-22T12:20:14Z</time>
      </trkpt>
      <trkpt lat="50.1354" lon="1.74054">
        <ele>3.5</ele>
        <time>2022-04-22T12:20:15Z</time>
      </trkpt>
      <trkpt lat="50.1354" lon="1.74053">
        <ele>3.5</ele>
        <time>2022-04-22T12:20:16Z</time>
      </trkpt>
      <trkpt lat="50.1354" lon="1.74051">
        <ele>3.5</ele>
        <time>2022-04-22T12:20:17Z</time>
      </trkpt>
      <trkpt lat="50.13539" lon="1.7405">
        <ele>3.4</ele>
        <time>2022-04-22T12:20:18Z</time>
      </trkpt>
      <trkpt lat="50.13539" lon="1.74048">
        <ele>3.4</ele>
        <time>2022-04-22T12:20:20Z</time>
      </trkpt>
      <trkpt lat="50.13539" lon="1.74046">
        <ele>3.4</ele>
        <time>2022-04-22T12:20:21Z</time>
      </trkpt>
      <trkpt lat="50.13539" lon="1.74044">
        <ele>3.4</ele>
        <time>2022-04-22T12:20:22Z</time>
      </trkpt>
      <trkpt lat="50.13539" lon="1.74043">
        <ele>3.4</ele>
        <time>2022-04-22T12:20:23Z</time>
      </trkpt>
      <trkpt lat="50.13538" lon="1.74041">
        <ele>3.4</ele>
        <time>2022-04-22T12:20:24Z</time>
      </trkpt>
      <trkpt lat="50.13538" lon="1.74038">
        <ele>3.3</ele>
        <time>2022-04-22T12:20:26Z</time>
      </trkpt>
      <trkpt lat="50.13538" lon="1.74037">
        <ele>3.3</ele>
        <time>2022-04-22T12:20:27Z</time>
      </trkpt>
      <trkpt lat="50.13538" lon="1.74036">
        <ele>3.3</ele>
        <time>2022-04-22T12:20:28Z</time>
      </trkpt>
      <trkpt lat="50.13537" lon="1.74032">
        <ele>3.3</ele>
        <time>2022-04-22T12:20:29Z</time>
      </trkpt>
      <trkpt lat="50.13537" lon="1.74031">
        <ele>3.3</ele>
        <time>2022-04-22T12:20:30Z</time>
      </trkpt>
      <trkpt lat="50.13537" lon="1.7403">
        <ele>3.3</ele>
        <time>2022-04-22T12:20:31Z</time>
      </trkpt>
      <trkpt lat="50.13537" lon="1.74027">
        <ele>3.2</ele>
        <time>2022-04-22T12:20:33Z</time>
      </trkpt>
      <trkpt lat="50.13537" lon="1.74025">
        <ele>3.2</ele>
        <time>2022-04-22T12:20:34Z</time>
      </trkpt>
      <trkpt lat="50.13537" lon="1.74024">
        <ele>3.2</ele>
        <time>2022-04-22T12:20:35Z</time>
      </trkpt>
      <trkpt lat="50.13537" lon="1.74021">
        <ele>3.2</ele>
        <time>2022-04-22T12:20:36Z</time>
      </trkpt>
      <trkpt lat="50.13537" lon="1.74019">
        <ele>3.2</ele>
        <time>2022-04-22T12:20:37Z</time>
      </trkpt>
      <trkpt lat="50.13537" lon="1.74018">
        <ele>3.2</ele>
        <time>2022-04-22T12:20:38Z</time>
      </trkpt>
      <trkpt lat="50.13537" lon="1.74017">
        <ele>3.2</ele>
        <time>2022-04-22T12:20:40Z</time>
      </trkpt>
      <trkpt lat="50.13537" lon="1.74015">
        <ele>3.2</ele>
        <time>2022-04-22T12:20:41Z</time>
      </trkpt>
      <trkpt lat="50.13537" lon="1.74013">
        <ele>3.2</ele>
        <time>2022-04-22T12:20:42Z</time>
      </trkpt>
      <trkpt lat="50.13538" lon="1.74009">
        <ele>3.2</ele>
        <time>2022-04-22T12:20:43Z</time>
      </trkpt>
      <trkpt lat="50.13538" lon="1.74008">
        <ele>3.2</ele>
        <time>2022-04-22T12:20:44Z</time>
      </trkpt>
      <trkpt lat="50.13538" lon="1.74007">
        <ele>3.2</ele>
        <time>2022-04-22T12:20:45Z</time>
      </trkpt>
      <trkpt lat="50.13538" lon="1.74005">
        <ele>3.2</ele>
        <time>2022-04-22T12:20:47Z</time>
      </trkpt>
      <trkpt lat="50.13538" lon="1.74002">
        <ele>3.2</ele>
        <time>2022-04-22T12:20:48Z</time>
      </trkpt>
      <trkpt lat="50.13537" lon="1.74">
        <ele>3.2</ele>
        <time>2022-04-22T12:20:49Z</time>
      </trkpt>
      <trkpt lat="50.13537" lon="1.73999">
        <ele>3.2</ele>
        <time>2022-04-22T12:20:50Z</time>
      </trkpt>
      <trkpt lat="50.13537" lon="1.73997">
        <ele>3.2</ele>
        <time>2022-04-22T12:20:51Z</time>
      </trkpt>
      <trkpt lat="50.13536" lon="1.73994">
        <ele>3.2</ele>
        <time>2022-04-22T12:20:53Z</time>
      </trkpt>
      <trkpt lat="50.13536" lon="1.73993">
        <ele>3.2</ele>
        <time>2022-04-22T12:20:54Z</time>
      </trkpt>
      <trkpt lat="50.13536" lon="1.73992">
        <ele>3.2</ele>
        <time>2022-04-22T12:20:55Z</time>
      </trkpt>
      <trkpt lat="50.13536" lon="1.7399">
        <ele>3.2</ele>
        <time>2022-04-22T12:20:56Z</time>
      </trkpt>
      <trkpt lat="50.13536" lon="1.73988">
        <ele>3.2</ele>
        <time>2022-04-22T12:20:57Z</time>
      </trkpt>
      <trkpt lat="50.13537" lon="1.73986">
        <ele>3.2</ele>
        <time>2022-04-22T12:20:58Z</time>
      </trkpt>
      <trkpt lat="50.13537" lon="1.73983">
        <ele>3.2</ele>
        <time>2022-04-22T12:21:00Z</time>
      </trkpt>
      <trkpt lat="50.13537" lon="1.73982">
        <ele>3.2</ele>
        <time>2022-04-22T12:21:01Z</time>
      </trkpt>
      <trkpt lat="50.13537" lon="1.73981">
        <ele>3.2</ele>
        <time>2022-04-22T12:21:02Z</time>
      </trkpt>
      <trkpt lat="50.13537" lon="1.73978">
        <ele>3.2</ele>
        <time>2022-04-22T12:21:03Z</time>
      </trkpt>
      <trkpt lat="50.13537" lon="1.73977">
        <ele>3.2</ele>
        <time>2022-04-22T12:21:04Z</time>
      </trkpt>
      <trkpt lat="50.13538" lon="1.73975">
        <ele>3.2</ele>
        <time>2022-04-22T12:21:05Z</time>
      </trkpt>
      <trkpt lat="50.13537" lon="1.73973">
        <ele>3.2</ele>
        <time>2022-04-22T12:21:07Z</time>
      </trkpt>
      <trkpt lat="50.13537" lon="1.73971">
        <ele>3.3</ele>
        <time>2022-04-22T12:21:08Z</time>
      </trkpt>
      <trkpt lat="50.13537" lon="1.7397">
        <ele>3.3</ele>
        <time>2022-04-22T12:21:09Z</time>
      </trkpt>
      <trkpt lat="50.13537" lon="1.73968">
        <ele>3.3</ele>
        <time>2022-04-22T12:21:10Z</time>
      </trkpt>
      <trkpt lat="50.13537" lon="1.73966">
        <ele>3.3</ele>
        <time>2022-04-22T12:21:11Z</time>
      </trkpt>
      <trkpt lat="50.13537" lon="1.73965">
        <ele>3.3</ele>
        <time>2022-04-22T12:21:12Z</time>
      </trkpt>
      <trkpt lat="50.13537" lon="1.73962">
        <ele>3.3</ele>
        <time>2022-04-22T12:21:14Z</time>
      </trkpt>
      <trkpt lat="50.13537" lon="1.7396">
        <ele>3.3</ele>
        <time>2022-04-22T12:21:15Z</time>
      </trkpt>
      <trkpt lat="50.13537" lon="1.73959">
        <ele>3.3</ele>
        <time>2022-04-22T12:21:16Z</time>
      </trkpt>
      <trkpt lat="50.13538" lon="1.73957">
        <ele>3.3</ele>
        <time>2022-04-22T12:21:17Z</time>
      </trkpt>
      <trkpt lat="50.13538" lon="1.73955">
        <ele>3.3</ele>
        <time>2022-04-22T12:21:18Z</time>
      </trkpt>
      <trkpt lat="50.13539" lon="1.73953">
        <ele>3.3</ele>
        <time>2022-04-22T12:21:19Z</time>
      </trkpt>
      <trkpt lat="50.13539" lon="1.73952">
        <ele>3.4</ele>
        <time>2022-04-22T12:21:21Z</time>
      </trkpt>
      <trkpt lat="50.1354" lon="1.7395">
        <ele>3.4</ele>
        <time>2022-04-22T12:21:22Z</time>
      </trkpt>
      <trkpt lat="50.1354" lon="1.73947">
        <ele>3.4</ele>
        <time>2022-04-22T12:21:23Z</time>
      </trkpt>
      <trkpt lat="50.13541" lon="1.73945">
        <ele>3.4</ele>
        <time>2022-04-22T12:21:24Z</time>
      </trkpt>
      <trkpt lat="50.13542" lon="1.73943">
        <ele>3.4</ele>
        <time>2022-04-22T12:21:25Z</time>
      </trkpt>
      <trkpt lat="50.13542" lon="1.73942">
        <ele>3.4</ele>
        <time>2022-04-22T12:21:27Z</time>
      </trkpt>
      <trkpt lat="50.13542" lon="1.7394">
        <ele>3.4</ele>
        <time>2022-04-22T12:21:28Z</time>
      </trkpt>
      <trkpt lat="50.13543" lon="1.73939">
        <ele>3.4</ele>
        <time>2022-04-22T12:21:29Z</time>
      </trkpt>
      <trkpt lat="50.13543" lon="1.73938">
        <ele>3.4</ele>
        <time>2022-04-22T12:21:30Z</time>
      </trkpt>
      <trkpt lat="50.13543" lon="1.73936">
        <ele>3.4</ele>
        <time>2022-04-22T12:21:31Z</time>
      </trkpt>
      <trkpt lat="50.13544" lon="1.73935">
        <ele>3.4</ele>
        <time>2022-04-22T12:21:32Z</time>
      </trkpt>
      <trkpt lat="50.13544" lon="1.73933">
        <ele>3.5</ele>
        <time>2022-04-22T12:21:34Z</time>
      </trkpt>
      <trkpt lat="50.13545" lon="1.73931">
        <ele>3.5</ele>
        <time>2022-04-22T12:21:35Z</time>
      </trkpt>
      <trkpt lat="50.13545" lon="1.73929">
        <ele>3.5</ele>
        <time>2022-04-22T12:21:36Z</time>
      </trkpt>
      <trkpt lat="50.13545" lon="1.73927">
        <ele>3.5</ele>
        <time>2022-04-22T12:21:37Z</time>
      </trkpt>
      <trkpt lat="50.13546" lon="1.73924">
        <ele>3.5</ele>
        <time>2022-04-22T12:21:38Z</time>
      </trkpt>
      <trkpt lat="50.13546" lon="1.73923">
        <ele>3.5</ele>
        <time>2022-04-22T12:21:39Z</time>
      </trkpt>
      <trkpt lat="50.13546" lon="1.73922">
        <ele>3.5</ele>
        <time>2022-04-22T12:21:40Z</time>
      </trkpt>
      <trkpt lat="50.13546" lon="1.7392">
        <ele>3.5</ele>
        <time>2022-04-22T12:21:42Z</time>
      </trkpt>
      <trkpt lat="50.13547" lon="1.73917">
        <ele>3.5</ele>
        <time>2022-04-22T12:21:43Z</time>
      </trkpt>
      <trkpt lat="50.13547" lon="1.73916">
        <ele>3.6</ele>
        <time>2022-04-22T12:21:44Z</time>
      </trkpt>
      <trkpt lat="50.13548" lon="1.73914">
        <ele>3.6</ele>
        <time>2022-04-22T12:21:45Z</time>
      </trkpt>
      <trkpt lat="50.13548" lon="1.73913">
        <ele>3.6</ele>
        <time>2022-04-22T12:21:46Z</time>
      </trkpt>
      <trkpt lat="50.13549" lon="1.7391">
        <ele>3.6</ele>
        <time>2022-04-22T12:21:47Z</time>
      </trkpt>
      <trkpt lat="50.1355" lon="1.73908">
        <ele>3.6</ele>
        <time>2022-04-22T12:21:49Z</time>
      </trkpt>
      <trkpt lat="50.1355" lon="1.73906">
        <ele>3.6</ele>
        <time>2022-04-22T12:21:50Z</time>
      </trkpt>
      <trkpt lat="50.1355" lon="1.73905">
        <ele>3.6</ele>
        <time>2022-04-22T12:21:51Z</time>
      </trkpt>
      <trkpt lat="50.13551" lon="1.73903">
        <ele>3.6</ele>
        <time>2022-04-22T12:21:52Z</time>
      </trkpt>
      <trkpt lat="50.13551" lon="1.739">
        <ele>3.6</ele>
        <time>2022-04-22T12:21:53Z</time>
      </trkpt>
      <trkpt lat="50.13552" lon="1.73899">
        <ele>3.6</ele>
        <time>2022-04-22T12:21:55Z</time>
      </trkpt>
      <trkpt lat="50.13552" lon="1.73898">
        <ele>3.6</ele>
        <time>2022-04-22T12:21:56Z</time>
      </trkpt>
      <trkpt lat="50.13552" lon="1.73896">
        <ele>3.6</ele>
        <time>2022-04-22T12:21:57Z</time>
      </trkpt>
      <trkpt lat="50.13553" lon="1.73894">
        <ele>3.6</ele>
        <time>2022-04-22T12:21:58Z</time>
      </trkpt>
      <trkpt lat="50.13553" lon="1.73893">
        <ele>3.6</ele>
        <time>2022-04-22T12:21:59Z</time>
      </trkpt>
      <trkpt lat="50.13554" lon="1.7389">
        <ele>3.6</ele>
        <time>2022-04-22T12:22:00Z</time>
      </trkpt>
      <trkpt lat="50.13554" lon="1.73889">
        <ele>3.6</ele>
        <time>2022-04-22T12:22:01Z</time>
      </trkpt>
      <trkpt lat="50.13554" lon="1.73888">
        <ele>3.6</ele>
        <time>2022-04-22T12:22:02Z</time>
      </trkpt>
      <trkpt lat="50.13554" lon="1.73887">
        <ele>3.6</ele>
        <time>2022-04-22T12:22:03Z</time>
      </trkpt>
      <trkpt lat="50.13555" lon="1.73886">
        <ele>3.6</ele>
        <time>2022-04-22T12:22:04Z</time>
      </trkpt>
      <trkpt lat="50.13556" lon="1.73883">
        <ele>3.6</ele>
        <time>2022-04-22T12:22:06Z</time>
      </trkpt>
      <trkpt lat="50.13556" lon="1.73882">
        <ele>3.6</ele>
        <time>2022-04-22T12:22:07Z</time>
      </trkpt>
      <trkpt lat="50.13557" lon="1.73881">
        <ele>3.5</ele>
        <time>2022-04-22T12:22:09Z</time>
      </trkpt>
      <trkpt lat="50.13557" lon="1.73879">
        <ele>3.5</ele>
        <time>2022-04-22T12:22:10Z</time>
      </trkpt>
      <trkpt lat="50.13559" lon="1.73876">
        <ele>3.5</ele>
        <time>2022-04-22T12:22:11Z</time>
      </trkpt>
      <trkpt lat="50.13559" lon="1.73875">
        <ele>3.5</ele>
        <time>2022-04-22T12:22:12Z</time>
      </trkpt>
      <trkpt lat="50.1356" lon="1.73873">
        <ele>3.5</ele>
        <time>2022-04-22T12:22:13Z</time>
      </trkpt>
      <trkpt lat="50.13561" lon="1.73871">
        <ele>3.5</ele>
        <time>2022-04-22T12:22:14Z</time>
      </trkpt>
      <trkpt lat="50.13561" lon="1.7387">
        <ele>3.5</ele>
        <time>2022-04-22T12:22:16Z</time>
      </trkpt>
      <trkpt lat="50.13562" lon="1.73868">
        <ele>3.5</ele>
        <time>2022-04-22T12:22:17Z</time>
      </trkpt>
      <trkpt lat="50.13563" lon="1.73866">
        <ele>3.5</ele>
        <time>2022-04-22T12:22:18Z</time>
      </trkpt>
      <trkpt lat="50.13563" lon="1.73864">
        <ele>3.5</ele>
        <time>2022-04-22T12:22:19Z</time>
      </trkpt>
      <trkpt lat="50.13564" lon="1.73862">
        <ele>3.5</ele>
        <time>2022-04-22T12:22:21Z</time>
      </trkpt>
      <trkpt lat="50.13565" lon="1.7386">
        <ele>3.5</ele>
        <time>2022-04-22T12:22:22Z</time>
      </trkpt>
      <trkpt lat="50.13565" lon="1.73859">
        <ele>3.5</ele>
        <time>2022-04-22T12:22:23Z</time>
      </trkpt>
      <trkpt lat="50.13566" lon="1.73856">
        <ele>3.5</ele>
        <time>2022-04-22T12:22:24Z</time>
      </trkpt>
      <trkpt lat="50.13567" lon="1.73855">
        <ele>3.5</ele>
        <time>2022-04-22T12:22:25Z</time>
      </trkpt>
      <trkpt lat="50.13567" lon="1.73854">
        <ele>3.5</ele>
        <time>2022-04-22T12:22:26Z</time>
      </trkpt>
      <trkpt lat="50.13568" lon="1.73852">
        <ele>3.5</ele>
        <time>2022-04-22T12:22:27Z</time>
      </trkpt>
      <trkpt lat="50.13569" lon="1.7385">
        <ele>3.5</ele>
        <time>2022-04-22T12:22:29Z</time>
      </trkpt>
      <trkpt lat="50.13569" lon="1.73849">
        <ele>3.5</ele>
        <time>2022-04-22T12:22:30Z</time>
      </trkpt>
      <trkpt lat="50.1357" lon="1.73847">
        <ele>3.4</ele>
        <time>2022-04-22T12:22:31Z</time>
      </trkpt>
      <trkpt lat="50.13571" lon="1.73846">
        <ele>3.4</ele>
        <time>2022-04-22T12:22:32Z</time>
      </trkpt>
      <trkpt lat="50.13572" lon="1.73844">
        <ele>3.4</ele>
        <time>2022-04-22T12:22:33Z</time>
      </trkpt>
      <trkpt lat="50.13573" lon="1.73843">
        <ele>3.4</ele>
        <time>2022-04-22T12:22:34Z</time>
      </trkpt>
      <trkpt lat="50.13574" lon="1.7384">
        <ele>3.4</ele>
        <time>2022-04-22T12:22:35Z</time>
      </trkpt>
      <trkpt lat="50.13575" lon="1.73839">
        <ele>3.4</ele>
        <time>2022-04-22T12:22:37Z</time>
      </trkpt>
      <trkpt lat="50.13575" lon="1.73839">
        <ele>3.4</ele>
        <time>2022-04-22T12:22:38Z</time>
      </trkpt>
      <trkpt lat="50.13577" lon="1.73837">
        <ele>3.4</ele>
        <time>2022-04-22T12:22:39Z</time>
      </trkpt>
      <trkpt lat="50.13577" lon="1.73836">
        <ele>3.4</ele>
        <time>2022-04-22T12:22:40Z</time>
      </trkpt>
      <trkpt lat="50.13578" lon="1.73835">
        <ele>3.4</ele>
        <time>2022-04-22T12:22:41Z</time>
      </trkpt>
      <trkpt lat="50.13579" lon="1.73833">
        <ele>3.4</ele>
        <time>2022-04-22T12:22:42Z</time>
      </trkpt>
      <trkpt lat="50.1358" lon="1.73832">
        <ele>3.4</ele>
        <time>2022-04-22T12:22:43Z</time>
      </trkpt>
      <trkpt lat="50.13581" lon="1.7383">
        <ele>3.4</ele>
        <time>2022-04-22T12:22:45Z</time>
      </trkpt>
      <trkpt lat="50.13582" lon="1.7383">
        <ele>3.4</ele>
        <time>2022-04-22T12:22:46Z</time>
      </trkpt>
      <trkpt lat="50.13583" lon="1.73828">
        <ele>3.4</ele>
        <time>2022-04-22T12:22:47Z</time>
      </trkpt>
      <trkpt lat="50.13585" lon="1.73826">
        <ele>3.4</ele>
        <time>2022-04-22T12:22:48Z</time>
      </trkpt>
      <trkpt lat="50.13585" lon="1.73825">
        <ele>3.4</ele>
        <time>2022-04-22T12:22:49Z</time>
      </trkpt>
      <trkpt lat="50.13586" lon="1.73825">
        <ele>3.4</ele>
        <time>2022-04-22T12:22:50Z</time>
      </trkpt>
      <trkpt lat="50.13587" lon="1.73823">
        <ele>3.4</ele>
        <time>2022-04-22T12:22:52Z</time>
      </trkpt>
      <trkpt lat="50.13587" lon="1.73822">
        <ele>3.4</ele>
        <time>2022-04-22T12:22:53Z</time>
      </trkpt>
      <trkpt lat="50.13588" lon="1.73821">
        <ele>3.4</ele>
        <time>2022-04-22T12:22:54Z</time>
      </trkpt>
      <trkpt lat="50.13589" lon="1.7382">
        <ele>3.5</ele>
        <time>2022-04-22T12:22:55Z</time>
      </trkpt>
      <trkpt lat="50.1359" lon="1.73819">
        <ele>3.5</ele>
        <time>2022-04-22T12:22:56Z</time>
      </trkpt>
      <trkpt lat="50.13591" lon="1.73818">
        <ele>3.5</ele>
        <time>2022-04-22T12:22:57Z</time>
      </trkpt>
      <trkpt lat="50.13593" lon="1.73816">
        <ele>3.5</ele>
        <time>2022-04-22T12:22:59Z</time>
      </trkpt>
      <trkpt lat="50.13593" lon="1.73815">
        <ele>3.5</ele>
        <time>2022-04-22T12:23:00Z</time>
      </trkpt>
      <trkpt lat="50.13594" lon="1.73815">
        <ele>3.5</ele>
        <time>2022-04-22T12:23:01Z</time>
      </trkpt>
      <trkpt lat="50.13595" lon="1.73813">
        <ele>3.5</ele>
        <time>2022-04-22T12:23:02Z</time>
      </trkpt>
      <trkpt lat="50.13596" lon="1.73812">
        <ele>3.5</ele>
        <time>2022-04-22T12:23:03Z</time>
      </trkpt>
      <trkpt lat="50.13597" lon="1.73811">
        <ele>3.5</ele>
        <time>2022-04-22T12:23:04Z</time>
      </trkpt>
      <trkpt lat="50.13598" lon="1.7381">
        <ele>3.5</ele>
        <time>2022-04-22T12:23:05Z</time>
      </trkpt>
      <trkpt lat="50.13599" lon="1.73808">
        <ele>3.5</ele>
        <time>2022-04-22T12:23:06Z</time>
      </trkpt>
      <trkpt lat="50.136" lon="1.73807">
        <ele>3.5</ele>
        <time>2022-04-22T12:23:08Z</time>
      </trkpt>
      <trkpt lat="50.136" lon="1.73805">
        <ele>3.5</ele>
        <time>2022-04-22T12:23:09Z</time>
      </trkpt>
      <trkpt lat="50.13601" lon="1.73804">
        <ele>3.5</ele>
        <time>2022-04-22T12:23:10Z</time>
      </trkpt>
      <trkpt lat="50.13602" lon="1.73803">
        <ele>3.5</ele>
        <time>2022-04-22T12:23:11Z</time>
      </trkpt>
      <trkpt lat="50.13603" lon="1.73802">
        <ele>3.5</ele>
        <time>2022-04-22T12:23:12Z</time>
      </trkpt>
      <trkpt lat="50.13604" lon="1.738">
        <ele>3.5</ele>
        <time>2022-04-22T12:23:13Z</time>
      </trkpt>
      <trkpt lat="50.13605" lon="1.73799">
        <ele>3.5</ele>
        <time>2022-04-22T12:23:14Z</time>
      </trkpt>
      <trkpt lat="50.13606" lon="1.73798">
        <ele>3.5</ele>
        <time>2022-04-22T12:23:16Z</time>
      </trkpt>
      <trkpt lat="50.13607" lon="1.73797">
        <ele>3.5</ele>
        <time>2022-04-22T12:23:17Z</time>
      </trkpt>
      <trkpt lat="50.13608" lon="1.73796">
        <ele>3.5</ele>
        <time>2022-04-22T12:23:18Z</time>
      </trkpt>
      <trkpt lat="50.13609" lon="1.73794">
        <ele>3.5</ele>
        <time>2022-04-22T12:23:19Z</time>
      </trkpt>
      <trkpt lat="50.1361" lon="1.73794">
        <ele>3.5</ele>
        <time>2022-04-22T12:23:20Z</time>
      </trkpt>
      <trkpt lat="50.13611" lon="1.73792">
        <ele>3.5</ele>
        <time>2022-04-22T12:23:21Z</time>
      </trkpt>
      <trkpt lat="50.13612" lon="1.73791">
        <ele>3.5</ele>
        <time>2022-04-22T12:23:23Z</time>
      </trkpt>
      <trkpt lat="50.13613" lon="1.7379">
        <ele>3.5</ele>
        <time>2022-04-22T12:23:24Z</time>
      </trkpt>
      <trkpt lat="50.13614" lon="1.73789">
        <ele>3.5</ele>
        <time>2022-04-22T12:23:25Z</time>
      </trkpt>
      <trkpt lat="50.13615" lon="1.73788">
        <ele>3.5</ele>
        <time>2022-04-22T12:23:26Z</time>
      </trkpt>
      <trkpt lat="50.13616" lon="1.73787">
        <ele>3.5</ele>
        <time>2022-04-22T12:23:27Z</time>
      </trkpt>
      <trkpt lat="50.13617" lon="1.73786">
        <ele>3.5</ele>
        <time>2022-04-22T12:23:28Z</time>
      </trkpt>
      <trkpt lat="50.13618" lon="1.73785">
        <ele>3.5</ele>
        <time>2022-04-22T12:23:29Z</time>
      </trkpt>
      <trkpt lat="50.13619" lon="1.73784">
        <ele>3.5</ele>
        <time>2022-04-22T12:23:31Z</time>
      </trkpt>
      <trkpt lat="50.1362" lon="1.73782">
        <ele>3.5</ele>
        <time>2022-04-22T12:23:32Z</time>
      </trkpt>
      <trkpt lat="50.13621" lon="1.73781">
        <ele>3.5</ele>
        <time>2022-04-22T12:23:33Z</time>
      </trkpt>
      <trkpt lat="50.13621" lon="1.7378">
        <ele>3.5</ele>
        <time>2022-04-22T12:23:34Z</time>
      </trkpt>
      <trkpt lat="50.13622" lon="1.73778">
        <ele>3.5</ele>
        <time>2022-04-22T12:23:35Z</time>
      </trkpt>
      <trkpt lat="50.13623" lon="1.73777">
        <ele>3.5</ele>
        <time>2022-04-22T12:23:36Z</time>
      </trkpt>
      <trkpt lat="50.13624" lon="1.73776">
        <ele>3.5</ele>
        <time>2022-04-22T12:23:37Z</time>
      </trkpt>
      <trkpt lat="50.13626" lon="1.73773">
        <ele>3.5</ele>
        <time>2022-04-22T12:23:38Z</time>
      </trkpt>
      <trkpt lat="50.13626" lon="1.73773">
        <ele>3.5</ele>
        <time>2022-04-22T12:23:40Z</time>
      </trkpt>
      <trkpt lat="50.13627" lon="1.73772">
        <ele>3.5</ele>
        <time>2022-04-22T12:23:41Z</time>
      </trkpt>
      <trkpt lat="50.13628" lon="1.7377">
        <ele>3.5</ele>
        <time>2022-04-22T12:23:42Z</time>
      </trkpt>
      <trkpt lat="50.13629" lon="1.73769">
        <ele>3.5</ele>
        <time>2022-04-22T12:23:43Z</time>
      </trkpt>
      <trkpt lat="50.13629" lon="1.73768">
        <ele>3.5</ele>
        <time>2022-04-22T12:23:44Z</time>
      </trkpt>
      <trkpt lat="50.1363" lon="1.73767">
        <ele>3.6</ele>
        <time>2022-04-22T12:23:45Z</time>
      </trkpt>
      <trkpt lat="50.13631" lon="1.73766">
        <ele>3.6</ele>
        <time>2022-04-22T12:23:46Z</time>
      </trkpt>
      <trkpt lat="50.13632" lon="1.73765">
        <ele>3.6</ele>
        <time>2022-04-22T12:23:48Z</time>
      </trkpt>
      <trkpt lat="50.13634" lon="1.73764">
        <ele>3.6</ele>
        <time>2022-04-22T12:23:49Z</time>
      </trkpt>
      <trkpt lat="50.13634" lon="1.73763">
        <ele>3.6</ele>
        <time>2022-04-22T12:23:50Z</time>
      </trkpt>
      <trkpt lat="50.13635" lon="1.73762">
        <ele>3.6</ele>
        <time>2022-04-22T12:23:51Z</time>
      </trkpt>
      <trkpt lat="50.13636" lon="1.73761">
        <ele>3.6</ele>
        <time>2022-04-22T12:23:52Z</time>
      </trkpt>
      <trkpt lat="50.13637" lon="1.7376">
        <ele>3.6</ele>
        <time>2022-04-22T12:23:54Z</time>
      </trkpt>
      <trkpt lat="50.13638" lon="1.73759">
        <ele>3.6</ele>
        <time>2022-04-22T12:23:55Z</time>
      </trkpt>
      <trkpt lat="50.13639" lon="1.73759">
        <ele>3.6</ele>
        <time>2022-04-22T12:23:56Z</time>
      </trkpt>
      <trkpt lat="50.1364" lon="1.73759">
        <ele>3.7</ele>
        <time>2022-04-22T12:23:57Z</time>
      </trkpt>
      <trkpt lat="50.1364" lon="1.73761">
        <ele>3.7</ele>
        <time>2022-04-22T12:23:58Z</time>
      </trkpt>
      <trkpt lat="50.13641" lon="1.73762">
        <ele>3.7</ele>
        <time>2022-04-22T12:23:59Z</time>
      </trkpt>
      <trkpt lat="50.13641" lon="1.73763">
        <ele>3.7</ele>
        <time>2022-04-22T12:24:00Z</time>
      </trkpt>
      <trkpt lat="50.1364" lon="1.73764">
        <ele>3.7</ele>
        <time>2022-04-22T12:24:01Z</time>
      </trkpt>
      <trkpt lat="50.1364" lon="1.73765">
        <ele>3.7</ele>
        <time>2022-04-22T12:24:02Z</time>
      </trkpt>
      <trkpt lat="50.1364" lon="1.73765">
        <ele>3.7</ele>
        <time>2022-04-22T12:24:03Z</time>
      </trkpt>
      <trkpt lat="50.13641" lon="1.73765">
        <ele>3.7</ele>
        <time>2022-04-22T12:24:06Z</time>
      </trkpt>
      <trkpt lat="50.13641" lon="1.73766">
        <ele>3.7</ele>
        <time>2022-04-22T12:24:07Z</time>
      </trkpt>
      <trkpt lat="50.13641" lon="1.73766">
        <ele>3.7</ele>
        <time>2022-04-22T12:24:12Z</time>
      </trkpt>
      <trkpt lat="50.13641" lon="1.73766">
        <ele>3.7</ele>
        <time>2022-04-22T12:24:13Z</time>
      </trkpt>
      <trkpt lat="50.13641" lon="1.73766">
        <ele>3.7</ele>
        <time>2022-04-22T12:24:14Z</time>
      </trkpt>
      <trkpt lat="50.13641" lon="1.73766">
        <ele>3.7</ele>
        <time>2022-04-22T12:24:15Z</time>
      </trkpt>
      <trkpt lat="50.13641" lon="1.73766">
        <ele>3.7</ele>
        <time>2022-04-22T12:24:16Z</time>
      </trkpt>
      <trkpt lat="50.13641" lon="1.73766">
        <ele>3.7</ele>
        <time>2022-04-22T12:24:17Z</time>
      </trkpt>
      <trkpt lat="50.13641" lon="1.73766">
        <ele>3.7</ele>
        <time>2022-04-22T12:24:18Z</time>
      </trkpt>
      <trkpt lat="50.13641" lon="1.73766">
        <ele>3.7</ele>
        <time>2022-04-22T12:24:19Z</time>
      </trkpt>
      <trkpt lat="50.13641" lon="1.73766">
        <ele>3.7</ele>
        <time>2022-04-22T12:24:20Z</time>
      </trkpt>
      <trkpt lat="50.13641" lon="1.73766">
        <ele>3.7</ele>
        <time>2022-04-22T12:24:21Z</time>
      </trkpt>
      <trkpt lat="50.13641" lon="1.73766">
        <ele>3.7</ele>
        <time>2022-04-22T12:24:22Z</time>
      </trkpt>
      <trkpt lat="50.13641" lon="1.73766">
        <ele>3.7</ele>
        <time>2022-04-22T12:24:23Z</time>
      </trkpt>
      <trkpt lat="50.13641" lon="1.73766">
        <ele>3.7</ele>
        <time>2022-04-22T12:24:24Z</time>
      </trkpt>
      <trkpt lat="50.13641" lon="1.73766">
        <ele>3.7</ele>
        <time>2022-04-22T12:24:25Z</time>
      </trkpt>
      <trkpt lat="50.13641" lon="1.73766">
        <ele>3.7</ele>
        <time>2022-04-22T12:24:26Z</time>
      </trkpt>
      <trkpt lat="50.13641" lon="1.73766">
        <ele>3.7</ele>
        <time>2022-04-22T12:24:27Z</time>
      </trkpt>
      <trkpt lat="50.13641" lon="1.73766">
        <ele>3.7</ele>
        <time>2022-04-22T12:24:28Z</time>
      </trkpt>
      <trkpt lat="50.13641" lon="1.73766">
        <ele>3.7</ele>
        <time>2022-04-22T12:24:29Z</time>
      </trkpt>
      <trkpt lat="50.13641" lon="1.73766">
        <ele>3.7</ele>
        <time>2022-04-22T12:24:30Z</time>
      </trkpt>
      <trkpt lat="50.13641" lon="1.73766">
        <ele>3.7</ele>
        <time>2022-04-22T12:24:31Z</time>
      </trkpt>
      <trkpt lat="50.13641" lon="1.73766">
        <ele>3.7</ele>
        <time>2022-04-22T12:24:32Z</time>
      </trkpt>
      <trkpt lat="50.13641" lon="1.73766">
        <ele>3.7</ele>
        <time>2022-04-22T12:24:35Z</time>
      </trkpt>
      <trkpt lat="50.14762" lon="1.695">
        <ele>4.6</ele>
        <time>2022-04-22T13:26:31Z</time>
      </trkpt>
      <trkpt lat="50.14763" lon="1.69498">
        <ele>4.6</ele>
        <time>2022-04-22T13:26:33Z</time>
      </trkpt>
      <trkpt lat="50.14763" lon="1.69497">
        <ele>4.6</ele>
        <time>2022-04-22T13:26:34Z</time>
      </trkpt>
      <trkpt lat="50.14764" lon="1.69496">
        <ele>4.6</ele>
        <time>2022-04-22T13:26:35Z</time>
      </trkpt>
      <trkpt lat="50.14765" lon="1.69495">
        <ele>4.6</ele>
        <time>2022-04-22T13:26:36Z</time>
      </trkpt>
      <trkpt lat="50.14766" lon="1.69493">
        <ele>4.6</ele>
        <time>2022-04-22T13:26:38Z</time>
      </trkpt>
      <trkpt lat="50.14766" lon="1.69492">
        <ele>4.6</ele>
        <time>2022-04-22T13:26:39Z</time>
      </trkpt>
      <trkpt lat="50.14767" lon="1.69491">
        <ele>4.6</ele>
        <time>2022-04-22T13:26:40Z</time>
      </trkpt>
      <trkpt lat="50.14768" lon="1.6949">
        <ele>4.6</ele>
        <time>2022-04-22T13:26:41Z</time>
      </trkpt>
      <trkpt lat="50.14768" lon="1.69489">
        <ele>4.5</ele>
        <time>2022-04-22T13:26:42Z</time>
      </trkpt>
      <trkpt lat="50.14769" lon="1.69488">
        <ele>4.5</ele>
        <time>2022-04-22T13:26:43Z</time>
      </trkpt>
      <trkpt lat="50.1477" lon="1.69486">
        <ele>4.5</ele>
        <time>2022-04-22T13:26:45Z</time>
      </trkpt>
      <trkpt lat="50.1477" lon="1.69485">
        <ele>4.5</ele>
        <time>2022-04-22T13:26:46Z</time>
      </trkpt>
      <trkpt lat="50.14771" lon="1.69483">
        <ele>4.5</ele>
        <time>2022-04-22T13:26:47Z</time>
      </trkpt>
      <trkpt lat="50.14771" lon="1.69482">
        <ele>4.5</ele>
        <time>2022-04-22T13:26:48Z</time>
      </trkpt>
      <trkpt lat="50.14771" lon="1.6948">
        <ele>4.5</ele>
        <time>2022-04-22T13:26:50Z</time>
      </trkpt>
      <trkpt lat="50.14771" lon="1.69479">
        <ele>4.5</ele>
        <time>2022-04-22T13:26:51Z</time>
      </trkpt>
      <trkpt lat="50.14771" lon="1.69477">
        <ele>4.5</ele>
        <time>2022-04-22T13:26:52Z</time>
      </trkpt>
      <trkpt lat="50.14771" lon="1.69476">
        <ele>4.5</ele>
        <time>2022-04-22T13:26:53Z</time>
      </trkpt>
      <trkpt lat="50.14772" lon="1.69474">
        <ele>4.5</ele>
        <time>2022-04-22T13:26:54Z</time>
      </trkpt>
      <trkpt lat="50.14772" lon="1.69473">
        <ele>4.5</ele>
        <time>2022-04-22T13:26:55Z</time>
      </trkpt>
      <trkpt lat="50.14773" lon="1.69472">
        <ele>4.5</ele>
        <time>2022-04-22T13:26:56Z</time>
      </trkpt>
      <trkpt lat="50.14773" lon="1.69471">
        <ele>4.5</ele>
        <time>2022-04-22T13:26:57Z</time>
      </trkpt>
      <trkpt lat="50.14774" lon="1.6947">
        <ele>4.5</ele>
        <time>2022-04-22T13:26:58Z</time>
      </trkpt>
      <trkpt lat="50.14774" lon="1.69468">
        <ele>4.5</ele>
        <time>2022-04-22T13:27:00Z</time>
      </trkpt>
      <trkpt lat="50.14775" lon="1.69467">
        <ele>4.5</ele>
        <time>2022-04-22T13:27:01Z</time>
      </trkpt>
      <trkpt lat="50.14775" lon="1.69466">
        <ele>4.5</ele>
        <time>2022-04-22T13:27:02Z</time>
      </trkpt>
      <trkpt lat="50.14776" lon="1.69464">
        <ele>4.5</ele>
        <time>2022-04-22T13:27:03Z</time>
      </trkpt>
      <trkpt lat="50.14776" lon="1.69463">
        <ele>4.5</ele>
        <time>2022-04-22T13:27:04Z</time>
      </trkpt>
      <trkpt lat="50.14777" lon="1.69462">
        <ele>4.5</ele>
        <time>2022-04-22T13:27:05Z</time>
      </trkpt>
      <trkpt lat="50.14779" lon="1.69464">
        <ele>4.5</ele>
        <time>2022-04-22T13:27:06Z</time>
      </trkpt>
      <trkpt lat="50.14781" lon="1.69464">
        <ele>4.5</ele>
        <time>2022-04-22T13:27:07Z</time>
      </trkpt>
      <trkpt lat="50.14782" lon="1.69463">
        <ele>4.5</ele>
        <time>2022-04-22T13:27:08Z</time>
      </trkpt>
      <trkpt lat="50.14782" lon="1.69462">
        <ele>4.5</ele>
        <time>2022-04-22T13:27:10Z</time>
      </trkpt>
      <trkpt lat="50.14783" lon="1.69459">
        <ele>4.5</ele>
        <time>2022-04-22T13:27:11Z</time>
      </trkpt>
      <trkpt lat="50.14784" lon="1.69457">
        <ele>4.5</ele>
        <time>2022-04-22T13:27:12Z</time>
      </trkpt>
      <trkpt lat="50.14785" lon="1.69456">
        <ele>4.5</ele>
        <time>2022-04-22T13:27:13Z</time>
      </trkpt>
      <trkpt lat="50.14786" lon="1.69453">
        <ele>4.5</ele>
        <time>2022-04-22T13:27:15Z</time>
      </trkpt>
      <trkpt lat="50.14787" lon="1.69453">
        <ele>4.5</ele>
        <time>2022-04-22T13:27:16Z</time>
      </trkpt>
      <trkpt lat="50.14789" lon="1.69453">
        <ele>4.5</ele>
        <time>2022-04-22T13:27:17Z</time>
      </trkpt>
      <trkpt lat="50.1479" lon="1.69452">
        <ele>4.5</ele>
        <time>2022-04-22T13:27:18Z</time>
      </trkpt>
      <trkpt lat="50.14791" lon="1.6945">
        <ele>4.5</ele>
        <time>2022-04-22T13:27:19Z</time>
      </trkpt>
      <trkpt lat="50.14791" lon="1.69448">
        <ele>4.5</ele>
        <time>2022-04-22T13:27:21Z</time>
      </trkpt>
      <trkpt lat="50.14792" lon="1.69447">
        <ele>4.5</ele>
        <time>2022-04-22T13:27:22Z</time>
      </trkpt>
      <trkpt lat="50.14793" lon="1.69445">
        <ele>4.5</ele>
        <time>2022-04-22T13:27:23Z</time>
      </trkpt>
      <trkpt lat="50.14794" lon="1.69443">
        <ele>4.5</ele>
        <time>2022-04-22T13:27:24Z</time>
      </trkpt>
      <trkpt lat="50.14795" lon="1.69442">
        <ele>4.5</ele>
        <time>2022-04-22T13:27:25Z</time>
      </trkpt>
      <trkpt lat="50.14798" lon="1.69441">
        <ele>4.5</ele>
        <time>2022-04-22T13:27:26Z</time>
      </trkpt>
      <trkpt lat="50.14798" lon="1.69441">
        <ele>4.5</ele>
        <time>2022-04-22T13:27:27Z</time>
      </trkpt>
      <trkpt lat="50.148" lon="1.69439">
        <ele>4.5</ele>
        <time>2022-04-22T13:27:29Z</time>
      </trkpt>
      <trkpt lat="50.14801" lon="1.69437">
        <ele>4.5</ele>
        <time>2022-04-22T13:27:30Z</time>
      </trkpt>
      <trkpt lat="50.14802" lon="1.69435">
        <ele>4.5</ele>
        <time>2022-04-22T13:27:31Z</time>
      </trkpt>
      <trkpt lat="50.14803" lon="1.69433">
        <ele>4.5</ele>
        <time>2022-04-22T13:27:32Z</time>
      </trkpt>
      <trkpt lat="50.14804" lon="1.69432">
        <ele>4.5</ele>
        <time>2022-04-22T13:27:33Z</time>
      </trkpt>
      <trkpt lat="50.14805" lon="1.6943">
        <ele>4.5</ele>
        <time>2022-04-22T13:27:34Z</time>
      </trkpt>
      <trkpt lat="50.14808" lon="1.69426">
        <ele>4.5</ele>
        <time>2022-04-22T13:27:35Z</time>
      </trkpt>
      <trkpt lat="50.14809" lon="1.69424">
        <ele>4.5</ele>
        <time>2022-04-22T13:27:36Z</time>
      </trkpt>
      <trkpt lat="50.14811" lon="1.69421">
        <ele>4.5</ele>
        <time>2022-04-22T13:27:37Z</time>
      </trkpt>
      <trkpt lat="50.14812" lon="1.6942">
        <ele>4.5</ele>
        <time>2022-04-22T13:27:38Z</time>
      </trkpt>
      <trkpt lat="50.14814" lon="1.69416">
        <ele>4.5</ele>
        <time>2022-04-22T13:27:40Z</time>
      </trkpt>
      <trkpt lat="50.14814" lon="1.69415">
        <ele>4.5</ele>
        <time>2022-04-22T13:27:41Z</time>
      </trkpt>
      <trkpt lat="50.14816" lon="1.69413">
        <ele>4.5</ele>
        <time>2022-04-22T13:27:42Z</time>
      </trkpt>
      <trkpt lat="50.14816" lon="1.69412">
        <ele>4.5</ele>
        <time>2022-04-22T13:27:43Z</time>
      </trkpt>
      <trkpt lat="50.14817" lon="1.69411">
        <ele>4.5</ele>
        <time>2022-04-22T13:27:44Z</time>
      </trkpt>
      <trkpt lat="50.14818" lon="1.69409">
        <ele>4.5</ele>
        <time>2022-04-22T13:27:45Z</time>
      </trkpt>
      <trkpt lat="50.1482" lon="1.69404">
        <ele>4.5</ele>
        <time>2022-04-22T13:27:46Z</time>
      </trkpt>
      <trkpt lat="50.1482" lon="1.69403">
        <ele>4.5</ele>
        <time>2022-04-22T13:27:48Z</time>
      </trkpt>
      <trkpt lat="50.14821" lon="1.69402">
        <ele>4.5</ele>
        <time>2022-04-22T13:27:49Z</time>
      </trkpt>
      <trkpt lat="50.14822" lon="1.69401">
        <ele>4.5</ele>
        <time>2022-04-22T13:27:50Z</time>
      </trkpt>
      <trkpt lat="50.14822" lon="1.69399">
        <ele>4.5</ele>
        <time>2022-04-22T13:27:51Z</time>
      </trkpt>
      <trkpt lat="50.14824" lon="1.69397">
        <ele>4.5</ele>
        <time>2022-04-22T13:27:52Z</time>
      </trkpt>
      <trkpt lat="50.14824" lon="1.69395">
        <ele>4.5</ele>
        <time>2022-04-22T13:27:53Z</time>
      </trkpt>
      <trkpt lat="50.14825" lon="1.69394">
        <ele>4.5</ele>
        <time>2022-04-22T13:27:54Z</time>
      </trkpt>
      <trkpt lat="50.14826" lon="1.69393">
        <ele>4.5</ele>
        <time>2022-04-22T13:27:55Z</time>
      </trkpt>
      <trkpt lat="50.14826" lon="1.69391">
        <ele>4.5</ele>
        <time>2022-04-22T13:27:56Z</time>
      </trkpt>
      <trkpt lat="50.14828" lon="1.69389">
        <ele>4.5</ele>
        <time>2022-04-22T13:27:57Z</time>
      </trkpt>
      <trkpt lat="50.14828" lon="1.69389">
        <ele>4.5</ele>
        <time>2022-04-22T13:27:58Z</time>
      </trkpt>
      <trkpt lat="50.14829" lon="1.69387">
        <ele>4.5</ele>
        <time>2022-04-22T13:27:59Z</time>
      </trkpt>
      <trkpt lat="50.1483" lon="1.69386">
        <ele>4.5</ele>
        <time>2022-04-22T13:28:00Z</time>
      </trkpt>
      <trkpt lat="50.14831" lon="1.69384">
        <ele>4.6</ele>
        <time>2022-04-22T13:28:02Z</time>
      </trkpt>
      <trkpt lat="50.14832" lon="1.69383">
        <ele>4.6</ele>
        <time>2022-04-22T13:28:03Z</time>
      </trkpt>
      <trkpt lat="50.14832" lon="1.69383">
        <ele>4.6</ele>
        <time>2022-04-22T13:28:04Z</time>
      </trkpt>
      <trkpt lat="50.14833" lon="1.69382">
        <ele>4.6</ele>
        <time>2022-04-22T13:28:05Z</time>
      </trkpt>
      <trkpt lat="50.14834" lon="1.69381">
        <ele>4.6</ele>
        <time>2022-04-22T13:28:06Z</time>
      </trkpt>
      <trkpt lat="50.14836" lon="1.69378">
        <ele>4.6</ele>
        <time>2022-04-22T13:28:08Z</time>
      </trkpt>
      <trkpt lat="50.14837" lon="1.69377">
        <ele>4.6</ele>
        <time>2022-04-22T13:28:09Z</time>
      </trkpt>
      <trkpt lat="50.14837" lon="1.69376">
        <ele>4.6</ele>
        <time>2022-04-22T13:28:10Z</time>
      </trkpt>
      <trkpt lat="50.14838" lon="1.69375">
        <ele>4.6</ele>
        <time>2022-04-22T13:28:11Z</time>
      </trkpt>
      <trkpt lat="50.1484" lon="1.69374">
        <ele>4.6</ele>
        <time>2022-04-22T13:28:12Z</time>
      </trkpt>
      <trkpt lat="50.1484" lon="1.69373">
        <ele>4.6</ele>
        <time>2022-04-22T13:28:13Z</time>
      </trkpt>
      <trkpt lat="50.14841" lon="1.69372">
        <ele>4.6</ele>
        <time>2022-04-22T13:28:14Z</time>
      </trkpt>
      <trkpt lat="50.14842" lon="1.6937">
        <ele>4.6</ele>
        <time>2022-04-22T13:28:16Z</time>
      </trkpt>
      <trkpt lat="50.14843" lon="1.69368">
        <ele>4.7</ele>
        <time>2022-04-22T13:28:17Z</time>
      </trkpt>
      <trkpt lat="50.14844" lon="1.69367">
        <ele>4.7</ele>
        <time>2022-04-22T13:28:18Z</time>
      </trkpt>
      <trkpt lat="50.14845" lon="1.69366">
        <ele>4.7</ele>
        <time>2022-04-22T13:28:19Z</time>
      </trkpt>
      <trkpt lat="50.14846" lon="1.69365">
        <ele>4.7</ele>
        <time>2022-04-22T13:28:20Z</time>
      </trkpt>
      <trkpt lat="50.14847" lon="1.69363">
        <ele>4.7</ele>
        <time>2022-04-22T13:28:21Z</time>
      </trkpt>
      <trkpt lat="50.14848" lon="1.69361">
        <ele>4.7</ele>
        <time>2022-04-22T13:28:23Z</time>
      </trkpt>
      <trkpt lat="50.14849" lon="1.6936">
        <ele>4.7</ele>
        <time>2022-04-22T13:28:24Z</time>
      </trkpt>
      <trkpt lat="50.1485" lon="1.69359">
        <ele>4.7</ele>
        <time>2022-04-22T13:28:25Z</time>
      </trkpt>
      <trkpt lat="50.1485" lon="1.69358">
        <ele>4.8</ele>
        <time>2022-04-22T13:28:26Z</time>
      </trkpt>
      <trkpt lat="50.14852" lon="1.69355">
        <ele>4.8</ele>
        <time>2022-04-22T13:28:27Z</time>
      </trkpt>
      <trkpt lat="50.14853" lon="1.69354">
        <ele>4.8</ele>
        <time>2022-04-22T13:28:28Z</time>
      </trkpt>
      <trkpt lat="50.14853" lon="1.69354">
        <ele>4.8</ele>
        <time>2022-04-22T13:28:29Z</time>
      </trkpt>
      <trkpt lat="50.14854" lon="1.69353">
        <ele>4.8</ele>
        <time>2022-04-22T13:28:30Z</time>
      </trkpt>
      <trkpt lat="50.14855" lon="1.69351">
        <ele>4.8</ele>
        <time>2022-04-22T13:28:31Z</time>
      </trkpt>
      <trkpt lat="50.14856" lon="1.6935">
        <ele>4.8</ele>
        <time>2022-04-22T13:28:32Z</time>
      </trkpt>
      <trkpt lat="50.14857" lon="1.69348">
        <ele>4.8</ele>
        <time>2022-04-22T13:28:33Z</time>
      </trkpt>
      <trkpt lat="50.14858" lon="1.69347">
        <ele>4.8</ele>
        <time>2022-04-22T13:28:34Z</time>
      </trkpt>
      <trkpt lat="50.1486" lon="1.69345">
        <ele>4.9</ele>
        <time>2022-04-22T13:28:35Z</time>
      </trkpt>
      <trkpt lat="50.14862" lon="1.69344">
        <ele>4.9</ele>
        <time>2022-04-22T13:28:36Z</time>
      </trkpt>
      <trkpt lat="50.14863" lon="1.69343">
        <ele>4.9</ele>
        <time>2022-04-22T13:28:37Z</time>
      </trkpt>
      <trkpt lat="50.14867" lon="1.69341">
        <ele>4.9</ele>
        <time>2022-04-22T13:28:39Z</time>
      </trkpt>
      <trkpt lat="50.14868" lon="1.69341">
        <ele>4.9</ele>
        <time>2022-04-22T13:28:40Z</time>
      </trkpt>
      <trkpt lat="50.14871" lon="1.69338">
        <ele>5</ele>
        <time>2022-04-22T13:28:41Z</time>
      </trkpt>
      <trkpt lat="50.14872" lon="1.69338">
        <ele>5</ele>
        <time>2022-04-22T13:28:42Z</time>
      </trkpt>
      <trkpt lat="50.14873" lon="1.69335">
        <ele>5</ele>
        <time>2022-04-22T13:28:43Z</time>
      </trkpt>
      <trkpt lat="50.14874" lon="1.69333">
        <ele>5</ele>
        <time>2022-04-22T13:28:45Z</time>
      </trkpt>
      <trkpt lat="50.14875" lon="1.69331">
        <ele>5</ele>
        <time>2022-04-22T13:28:46Z</time>
      </trkpt>
      <trkpt lat="50.14875" lon="1.6933">
        <ele>5</ele>
        <time>2022-04-22T13:28:47Z</time>
      </trkpt>
      <trkpt lat="50.14876" lon="1.69329">
        <ele>5</ele>
        <time>2022-04-22T13:28:48Z</time>
      </trkpt>
      <trkpt lat="50.14878" lon="1.69326">
        <ele>5</ele>
        <time>2022-04-22T13:28:49Z</time>
      </trkpt>
      <trkpt lat="50.14878" lon="1.69325">
        <ele>5</ele>
        <time>2022-04-22T13:28:50Z</time>
      </trkpt>
      <trkpt lat="50.14879" lon="1.69325">
        <ele>5</ele>
        <time>2022-04-22T13:28:51Z</time>
      </trkpt>
      <trkpt lat="50.1488" lon="1.69324">
        <ele>5</ele>
        <time>2022-04-22T13:28:53Z</time>
      </trkpt>
      <trkpt lat="50.1488" lon="1.69323">
        <ele>5</ele>
        <time>2022-04-22T13:28:54Z</time>
      </trkpt>
      <trkpt lat="50.14881" lon="1.69321">
        <ele>5</ele>
        <time>2022-04-22T13:28:55Z</time>
      </trkpt>
      <trkpt lat="50.14882" lon="1.6932">
        <ele>5.1</ele>
        <time>2022-04-22T13:28:56Z</time>
      </trkpt>
      <trkpt lat="50.14882" lon="1.69319">
        <ele>5.1</ele>
        <time>2022-04-22T13:28:57Z</time>
      </trkpt>
      <trkpt lat="50.14883" lon="1.69317">
        <ele>5.1</ele>
        <time>2022-04-22T13:28:58Z</time>
      </trkpt>
      <trkpt lat="50.14884" lon="1.69314">
        <ele>5.1</ele>
        <time>2022-04-22T13:28:59Z</time>
      </trkpt>
      <trkpt lat="50.14884" lon="1.69313">
        <ele>5.1</ele>
        <time>2022-04-22T13:29:00Z</time>
      </trkpt>
      <trkpt lat="50.14884" lon="1.69312">
        <ele>5.1</ele>
        <time>2022-04-22T13:29:01Z</time>
      </trkpt>
      <trkpt lat="50.14884" lon="1.69311">
        <ele>5.1</ele>
        <time>2022-04-22T13:29:02Z</time>
      </trkpt>
      <trkpt lat="50.14884" lon="1.6931">
        <ele>5.1</ele>
        <time>2022-04-22T13:29:03Z</time>
      </trkpt>
      <trkpt lat="50.14885" lon="1.69309">
        <ele>5.1</ele>
        <time>2022-04-22T13:29:04Z</time>
      </trkpt>
      <trkpt lat="50.14885" lon="1.69307">
        <ele>5.1</ele>
        <time>2022-04-22T13:29:05Z</time>
      </trkpt>
      <trkpt lat="50.14885" lon="1.69307">
        <ele>5.1</ele>
        <time>2022-04-22T13:29:07Z</time>
      </trkpt>
      <trkpt lat="50.14886" lon="1.69306">
        <ele>5.1</ele>
        <time>2022-04-22T13:29:08Z</time>
      </trkpt>
      <trkpt lat="50.14886" lon="1.69304">
        <ele>5.1</ele>
        <time>2022-04-22T13:29:09Z</time>
      </trkpt>
      <trkpt lat="50.14887" lon="1.69303">
        <ele>5.1</ele>
        <time>2022-04-22T13:29:10Z</time>
      </trkpt>
      <trkpt lat="50.14888" lon="1.69302">
        <ele>5.1</ele>
        <time>2022-04-22T13:29:11Z</time>
      </trkpt>
      <trkpt lat="50.14889" lon="1.693">
        <ele>5.1</ele>
        <time>2022-04-22T13:29:12Z</time>
      </trkpt>
      <trkpt lat="50.14889" lon="1.69299">
        <ele>5.1</ele>
        <time>2022-04-22T13:29:14Z</time>
      </trkpt>
      <trkpt lat="50.1489" lon="1.69297">
        <ele>5.1</ele>
        <time>2022-04-22T13:29:15Z</time>
      </trkpt>
      <trkpt lat="50.14892" lon="1.69295">
        <ele>5.1</ele>
        <time>2022-04-22T13:29:16Z</time>
      </trkpt>
      <trkpt lat="50.14893" lon="1.69293">
        <ele>5.1</ele>
        <time>2022-04-22T13:29:17Z</time>
      </trkpt>
      <trkpt lat="50.14894" lon="1.69292">
        <ele>5.1</ele>
        <time>2022-04-22T13:29:18Z</time>
      </trkpt>
      <trkpt lat="50.14895" lon="1.6929">
        <ele>5.1</ele>
        <time>2022-04-22T13:29:19Z</time>
      </trkpt>
      <trkpt lat="50.14896" lon="1.69288">
        <ele>5.1</ele>
        <time>2022-04-22T13:29:20Z</time>
      </trkpt>
      <trkpt lat="50.14897" lon="1.69286">
        <ele>5.1</ele>
        <time>2022-04-22T13:29:22Z</time>
      </trkpt>
      <trkpt lat="50.14899" lon="1.69283">
        <ele>5.1</ele>
        <time>2022-04-22T13:29:23Z</time>
      </trkpt>
      <trkpt lat="50.149" lon="1.69282">
        <ele>5.1</ele>
        <time>2022-04-22T13:29:24Z</time>
      </trkpt>
      <trkpt lat="50.149" lon="1.69281">
        <ele>5.1</ele>
        <time>2022-04-22T13:29:25Z</time>
      </trkpt>
      <trkpt lat="50.14902" lon="1.69278">
        <ele>5.1</ele>
        <time>2022-04-22T13:29:26Z</time>
      </trkpt>
      <trkpt lat="50.14903" lon="1.69277">
        <ele>5.1</ele>
        <time>2022-04-22T13:29:27Z</time>
      </trkpt>
      <trkpt lat="50.14905" lon="1.69275">
        <ele>5.1</ele>
        <time>2022-04-22T13:29:28Z</time>
      </trkpt>
      <trkpt lat="50.14907" lon="1.69273">
        <ele>5.1</ele>
        <time>2022-04-22T13:29:29Z</time>
      </trkpt>
      <trkpt lat="50.14907" lon="1.69272">
        <ele>5.1</ele>
        <time>2022-04-22T13:29:30Z</time>
      </trkpt>
      <trkpt lat="50.14909" lon="1.69271">
        <ele>5.1</ele>
        <time>2022-04-22T13:29:31Z</time>
      </trkpt>
      <trkpt lat="50.1491" lon="1.69269">
        <ele>5</ele>
        <time>2022-04-22T13:29:32Z</time>
      </trkpt>
      <trkpt lat="50.14911" lon="1.69268">
        <ele>5</ele>
        <time>2022-04-22T13:29:34Z</time>
      </trkpt>
      <trkpt lat="50.14913" lon="1.69265">
        <ele>5</ele>
        <time>2022-04-22T13:29:35Z</time>
      </trkpt>
      <trkpt lat="50.14914" lon="1.69264">
        <ele>5</ele>
        <time>2022-04-22T13:29:36Z</time>
      </trkpt>
      <trkpt lat="50.14916" lon="1.69262">
        <ele>5</ele>
        <time>2022-04-22T13:29:37Z</time>
      </trkpt>
      <trkpt lat="50.14917" lon="1.69261">
        <ele>5</ele>
        <time>2022-04-22T13:29:38Z</time>
      </trkpt>
      <trkpt lat="50.14917" lon="1.6926">
        <ele>5</ele>
        <time>2022-04-22T13:29:39Z</time>
      </trkpt>
      <trkpt lat="50.14919" lon="1.69258">
        <ele>5</ele>
        <time>2022-04-22T13:29:40Z</time>
      </trkpt>
      <trkpt lat="50.1492" lon="1.69257">
        <ele>5</ele>
        <time>2022-04-22T13:29:41Z</time>
      </trkpt>
      <trkpt lat="50.1492" lon="1.69255">
        <ele>5</ele>
        <time>2022-04-22T13:29:42Z</time>
      </trkpt>
      <trkpt lat="50.14921" lon="1.69253">
        <ele>5</ele>
        <time>2022-04-22T13:29:43Z</time>
      </trkpt>
      <trkpt lat="50.14922" lon="1.69252">
        <ele>5</ele>
        <time>2022-04-22T13:29:44Z</time>
      </trkpt>
      <trkpt lat="50.14923" lon="1.6925">
        <ele>5</ele>
        <time>2022-04-22T13:29:45Z</time>
      </trkpt>
      <trkpt lat="50.14923" lon="1.69249">
        <ele>5</ele>
        <time>2022-04-22T13:29:47Z</time>
      </trkpt>
      <trkpt lat="50.14924" lon="1.69247">
        <ele>5</ele>
        <time>2022-04-22T13:29:48Z</time>
      </trkpt>
      <trkpt lat="50.14925" lon="1.69246">
        <ele>5</ele>
        <time>2022-04-22T13:29:49Z</time>
      </trkpt>
      <trkpt lat="50.14925" lon="1.69245">
        <ele>5</ele>
        <time>2022-04-22T13:29:50Z</time>
      </trkpt>
      <trkpt lat="50.14926" lon="1.69243">
        <ele>5</ele>
        <time>2022-04-22T13:29:51Z</time>
      </trkpt>
      <trkpt lat="50.14927" lon="1.69242">
        <ele>5</ele>
        <time>2022-04-22T13:29:52Z</time>
      </trkpt>
      <trkpt lat="50.14928" lon="1.6924">
        <ele>5</ele>
        <time>2022-04-22T13:29:53Z</time>
      </trkpt>
      <trkpt lat="50.14929" lon="1.6924">
        <ele>5</ele>
        <time>2022-04-22T13:29:54Z</time>
      </trkpt>
      <trkpt lat="50.1493" lon="1.69238">
        <ele>5</ele>
        <time>2022-04-22T13:29:55Z</time>
      </trkpt>
      <trkpt lat="50.14931" lon="1.69236">
        <ele>5</ele>
        <time>2022-04-22T13:29:57Z</time>
      </trkpt>
      <trkpt lat="50.14932" lon="1.69235">
        <ele>5</ele>
        <time>2022-04-22T13:29:58Z</time>
      </trkpt>
      <trkpt lat="50.14932" lon="1.69233">
        <ele>5</ele>
        <time>2022-04-22T13:29:59Z</time>
      </trkpt>
      <trkpt lat="50.14933" lon="1.69232">
        <ele>5</ele>
        <time>2022-04-22T13:30:00Z</time>
      </trkpt>
      <trkpt lat="50.14933" lon="1.69231">
        <ele>5</ele>
        <time>2022-04-22T13:30:01Z</time>
      </trkpt>
      <trkpt lat="50.14934" lon="1.69231">
        <ele>5</ele>
        <time>2022-04-22T13:30:02Z</time>
      </trkpt>
      <trkpt lat="50.14934" lon="1.6923">
        <ele>5</ele>
        <time>2022-04-22T13:30:04Z</time>
      </trkpt>
      <trkpt lat="50.14935" lon="1.69229">
        <ele>5</ele>
        <time>2022-04-22T13:30:05Z</time>
      </trkpt>
      <trkpt lat="50.14936" lon="1.69228">
        <ele>5</ele>
        <time>2022-04-22T13:30:06Z</time>
      </trkpt>
      <trkpt lat="50.14936" lon="1.69228">
        <ele>5</ele>
        <time>2022-04-22T13:30:07Z</time>
      </trkpt>
      <trkpt lat="50.14937" lon="1.69227">
        <ele>5</ele>
        <time>2022-04-22T13:30:08Z</time>
      </trkpt>
      <trkpt lat="50.14938" lon="1.69226">
        <ele>5</ele>
        <time>2022-04-22T13:30:09Z</time>
      </trkpt>
      <trkpt lat="50.14939" lon="1.69224">
        <ele>5</ele>
        <time>2022-04-22T13:30:10Z</time>
      </trkpt>
      <trkpt lat="50.1494" lon="1.69224">
        <ele>5</ele>
        <time>2022-04-22T13:30:11Z</time>
      </trkpt>
      <trkpt lat="50.14941" lon="1.69223">
        <ele>5</ele>
        <time>2022-04-22T13:30:12Z</time>
      </trkpt>
      <trkpt lat="50.14942" lon="1.69222">
        <ele>5.1</ele>
        <time>2022-04-22T13:30:14Z</time>
      </trkpt>
      <trkpt lat="50.14942" lon="1.6922">
        <ele>5.1</ele>
        <time>2022-04-22T13:30:15Z</time>
      </trkpt>
      <trkpt lat="50.14944" lon="1.69219">
        <ele>5.1</ele>
        <time>2022-04-22T13:30:16Z</time>
      </trkpt>
      <trkpt lat="50.14945" lon="1.69218">
        <ele>5.1</ele>
        <time>2022-04-22T13:30:17Z</time>
      </trkpt>
      <trkpt lat="50.14945" lon="1.69217">
        <ele>5.1</ele>
        <time>2022-04-22T13:30:18Z</time>
      </trkpt>
      <trkpt lat="50.14946" lon="1.69215">
        <ele>5.1</ele>
        <time>2022-04-22T13:30:19Z</time>
      </trkpt>
      <trkpt lat="50.14948" lon="1.69213">
        <ele>5.1</ele>
        <time>2022-04-22T13:30:20Z</time>
      </trkpt>
      <trkpt lat="50.14949" lon="1.69212">
        <ele>5.1</ele>
        <time>2022-04-22T13:30:21Z</time>
      </trkpt>
      <trkpt lat="50.14949" lon="1.69211">
        <ele>5.1</ele>
        <time>2022-04-22T13:30:22Z</time>
      </trkpt>
      <trkpt lat="50.14951" lon="1.69208">
        <ele>5.1</ele>
        <time>2022-04-22T13:30:23Z</time>
      </trkpt>
      <trkpt lat="50.14951" lon="1.69207">
        <ele>5.1</ele>
        <time>2022-04-22T13:30:25Z</time>
      </trkpt>
      <trkpt lat="50.14952" lon="1.69206">
        <ele>5.1</ele>
        <time>2022-04-22T13:30:26Z</time>
      </trkpt>
      <trkpt lat="50.14952" lon="1.69204">
        <ele>5.1</ele>
        <time>2022-04-22T13:30:27Z</time>
      </trkpt>
      <trkpt lat="50.14953" lon="1.69203">
        <ele>5.1</ele>
        <time>2022-04-22T13:30:28Z</time>
      </trkpt>
      <trkpt lat="50.14954" lon="1.69202">
        <ele>5.2</ele>
        <time>2022-04-22T13:30:29Z</time>
      </trkpt>
      <trkpt lat="50.14955" lon="1.692">
        <ele>5.2</ele>
        <time>2022-04-22T13:30:30Z</time>
      </trkpt>
      <trkpt lat="50.14956" lon="1.69198">
        <ele>5.2</ele>
        <time>2022-04-22T13:30:31Z</time>
      </trkpt>
      <trkpt lat="50.14957" lon="1.69198">
        <ele>5.2</ele>
        <time>2022-04-22T13:30:32Z</time>
      </trkpt>
      <trkpt lat="50.14958" lon="1.69197">
        <ele>5.2</ele>
        <time>2022-04-22T13:30:33Z</time>
      </trkpt>
      <trkpt lat="50.14959" lon="1.69196">
        <ele>5.2</ele>
        <time>2022-04-22T13:30:34Z</time>
      </trkpt>
      <trkpt lat="50.1496" lon="1.69193">
        <ele>5.2</ele>
        <time>2022-04-22T13:30:35Z</time>
      </trkpt>
      <trkpt lat="50.14961" lon="1.69192">
        <ele>5.2</ele>
        <time>2022-04-22T13:30:37Z</time>
      </trkpt>
      <trkpt lat="50.14962" lon="1.69191">
        <ele>5.2</ele>
        <time>2022-04-22T13:30:38Z</time>
      </trkpt>
      <trkpt lat="50.14962" lon="1.6919">
        <ele>5.2</ele>
        <time>2022-04-22T13:30:39Z</time>
      </trkpt>
      <trkpt lat="50.14963" lon="1.69188">
        <ele>5.2</ele>
        <time>2022-04-22T13:30:40Z</time>
      </trkpt>
      <trkpt lat="50.14964" lon="1.69186">
        <ele>5.2</ele>
        <time>2022-04-22T13:30:41Z</time>
      </trkpt>
      <trkpt lat="50.14965" lon="1.69185">
        <ele>5.2</ele>
        <time>2022-04-22T13:30:42Z</time>
      </trkpt>
      <trkpt lat="50.14966" lon="1.69183">
        <ele>5.2</ele>
        <time>2022-04-22T13:30:43Z</time>
      </trkpt>
      <trkpt lat="50.14967" lon="1.69181">
        <ele>5.2</ele>
        <time>2022-04-22T13:30:44Z</time>
      </trkpt>
      <trkpt lat="50.14967" lon="1.6918">
        <ele>5.2</ele>
        <time>2022-04-22T13:30:45Z</time>
      </trkpt>
      <trkpt lat="50.14968" lon="1.69179">
        <ele>5.2</ele>
        <time>2022-04-22T13:30:46Z</time>
      </trkpt>
      <trkpt lat="50.14968" lon="1.69178">
        <ele>5.2</ele>
        <time>2022-04-22T13:30:48Z</time>
      </trkpt>
      <trkpt lat="50.14969" lon="1.69176">
        <ele>5.2</ele>
        <time>2022-04-22T13:30:49Z</time>
      </trkpt>
      <trkpt lat="50.1497" lon="1.69175">
        <ele>5.2</ele>
        <time>2022-04-22T13:30:50Z</time>
      </trkpt>
      <trkpt lat="50.14971" lon="1.69173">
        <ele>5.2</ele>
        <time>2022-04-22T13:30:51Z</time>
      </trkpt>
      <trkpt lat="50.14972" lon="1.69172">
        <ele>5.2</ele>
        <time>2022-04-22T13:30:52Z</time>
      </trkpt>
      <trkpt lat="50.14973" lon="1.69169">
        <ele>5.2</ele>
        <time>2022-04-22T13:30:54Z</time>
      </trkpt>
      <trkpt lat="50.14973" lon="1.69168">
        <ele>5.2</ele>
        <time>2022-04-22T13:30:55Z</time>
      </trkpt>
      <trkpt lat="50.14974" lon="1.69167">
        <ele>5.2</ele>
        <time>2022-04-22T13:30:56Z</time>
      </trkpt>
      <trkpt lat="50.14975" lon="1.69165">
        <ele>5.2</ele>
        <time>2022-04-22T13:30:57Z</time>
      </trkpt>
      <trkpt lat="50.14976" lon="1.69164">
        <ele>5.2</ele>
        <time>2022-04-22T13:30:58Z</time>
      </trkpt>
      <trkpt lat="50.14976" lon="1.69163">
        <ele>5.2</ele>
        <time>2022-04-22T13:30:59Z</time>
      </trkpt>
      <trkpt lat="50.14977" lon="1.69162">
        <ele>5.2</ele>
        <time>2022-04-22T13:31:00Z</time>
      </trkpt>
      <trkpt lat="50.14977" lon="1.69161">
        <ele>5.2</ele>
        <time>2022-04-22T13:31:01Z</time>
      </trkpt>
      <trkpt lat="50.14978" lon="1.6916">
        <ele>5.2</ele>
        <time>2022-04-22T13:31:02Z</time>
      </trkpt>
      <trkpt lat="50.14979" lon="1.69159">
        <ele>5.2</ele>
        <time>2022-04-22T13:31:03Z</time>
      </trkpt>
      <trkpt lat="50.14979" lon="1.69157">
        <ele>5.2</ele>
        <time>2022-04-22T13:31:05Z</time>
      </trkpt>
      <trkpt lat="50.1498" lon="1.69155">
        <ele>5.2</ele>
        <time>2022-04-22T13:31:06Z</time>
      </trkpt>
      <trkpt lat="50.1498" lon="1.69154">
        <ele>5.2</ele>
        <time>2022-04-22T13:31:07Z</time>
      </trkpt>
      <trkpt lat="50.1498" lon="1.69153">
        <ele>5.2</ele>
        <time>2022-04-22T13:31:08Z</time>
      </trkpt>
      <trkpt lat="50.14981" lon="1.69151">
        <ele>5.2</ele>
        <time>2022-04-22T13:31:09Z</time>
      </trkpt>
      <trkpt lat="50.14981" lon="1.6915">
        <ele>5.2</ele>
        <time>2022-04-22T13:31:10Z</time>
      </trkpt>
      <trkpt lat="50.14982" lon="1.69147">
        <ele>5.2</ele>
        <time>2022-04-22T13:31:11Z</time>
      </trkpt>
      <trkpt lat="50.14982" lon="1.69146">
        <ele>5.2</ele>
        <time>2022-04-22T13:31:12Z</time>
      </trkpt>
      <trkpt lat="50.14983" lon="1.69145">
        <ele>5.2</ele>
        <time>2022-04-22T13:31:13Z</time>
      </trkpt>
      <trkpt lat="50.14983" lon="1.69143">
        <ele>5.2</ele>
        <time>2022-04-22T13:31:14Z</time>
      </trkpt>
      <trkpt lat="50.14984" lon="1.6914">
        <ele>5.1</ele>
        <time>2022-04-22T13:31:16Z</time>
      </trkpt>
      <trkpt lat="50.14984" lon="1.69139">
        <ele>5.1</ele>
        <time>2022-04-22T13:31:17Z</time>
      </trkpt>
      <trkpt lat="50.14984" lon="1.69138">
        <ele>5.1</ele>
        <time>2022-04-22T13:31:18Z</time>
      </trkpt>
      <trkpt lat="50.14985" lon="1.69137">
        <ele>5.1</ele>
        <time>2022-04-22T13:31:19Z</time>
      </trkpt>
      <trkpt lat="50.14985" lon="1.69136">
        <ele>5.1</ele>
        <time>2022-04-22T13:31:20Z</time>
      </trkpt>
      <trkpt lat="50.14987" lon="1.69134">
        <ele>5.1</ele>
        <time>2022-04-22T13:31:21Z</time>
      </trkpt>
      <trkpt lat="50.14988" lon="1.69134">
        <ele>5.1</ele>
        <time>2022-04-22T13:31:22Z</time>
      </trkpt>
      <trkpt lat="50.14988" lon="1.69133">
        <ele>5.1</ele>
        <time>2022-04-22T13:31:23Z</time>
      </trkpt>
      <trkpt lat="50.14989" lon="1.69132">
        <ele>5.1</ele>
        <time>2022-04-22T13:31:24Z</time>
      </trkpt>
      <trkpt lat="50.1499" lon="1.69129">
        <ele>5.1</ele>
        <time>2022-04-22T13:31:26Z</time>
      </trkpt>
      <trkpt lat="50.1499" lon="1.69128">
        <ele>5.1</ele>
        <time>2022-04-22T13:31:27Z</time>
      </trkpt>
      <trkpt lat="50.14991" lon="1.69127">
        <ele>5.1</ele>
        <time>2022-04-22T13:31:28Z</time>
      </trkpt>
      <trkpt lat="50.14991" lon="1.69125">
        <ele>5.1</ele>
        <time>2022-04-22T13:31:29Z</time>
      </trkpt>
      <trkpt lat="50.14992" lon="1.69124">
        <ele>5.1</ele>
        <time>2022-04-22T13:31:30Z</time>
      </trkpt>
      <trkpt lat="50.14993" lon="1.69121">
        <ele>5.2</ele>
        <time>2022-04-22T13:31:31Z</time>
      </trkpt>
      <trkpt lat="50.14993" lon="1.6912">
        <ele>5.2</ele>
        <time>2022-04-22T13:31:32Z</time>
      </trkpt>
      <trkpt lat="50.14994" lon="1.69119">
        <ele>5.2</ele>
        <time>2022-04-22T13:31:33Z</time>
      </trkpt>
      <trkpt lat="50.14996" lon="1.69117">
        <ele>5.2</ele>
        <time>2022-04-22T13:31:35Z</time>
      </trkpt>
      <trkpt lat="50.14997" lon="1.69114">
        <ele>5.2</ele>
        <time>2022-04-22T13:31:36Z</time>
      </trkpt>
      <trkpt lat="50.14998" lon="1.69113">
        <ele>5.2</ele>
        <time>2022-04-22T13:31:37Z</time>
      </trkpt>
      <trkpt lat="50.14998" lon="1.69113">
        <ele>5.2</ele>
        <time>2022-04-22T13:31:38Z</time>
      </trkpt>
      <trkpt lat="50.14999" lon="1.69112">
        <ele>5.2</ele>
        <time>2022-04-22T13:31:39Z</time>
      </trkpt>
      <trkpt lat="50.15001" lon="1.69109">
        <ele>5.2</ele>
        <time>2022-04-22T13:31:41Z</time>
      </trkpt>
      <trkpt lat="50.15002" lon="1.69108">
        <ele>5.2</ele>
        <time>2022-04-22T13:31:42Z</time>
      </trkpt>
      <trkpt lat="50.15004" lon="1.69106">
        <ele>5.2</ele>
        <time>2022-04-22T13:31:43Z</time>
      </trkpt>
      <trkpt lat="50.15005" lon="1.69105">
        <ele>5.2</ele>
        <time>2022-04-22T13:31:44Z</time>
      </trkpt>
      <trkpt lat="50.15006" lon="1.69103">
        <ele>5.2</ele>
        <time>2022-04-22T13:31:46Z</time>
      </trkpt>
      <trkpt lat="50.15008" lon="1.69101">
        <ele>5.2</ele>
        <time>2022-04-22T13:31:47Z</time>
      </trkpt>
      <trkpt lat="50.15008" lon="1.691">
        <ele>5.2</ele>
        <time>2022-04-22T13:31:48Z</time>
      </trkpt>
      <trkpt lat="50.1501" lon="1.69098">
        <ele>5.2</ele>
        <time>2022-04-22T13:31:49Z</time>
      </trkpt>
      <trkpt lat="50.1501" lon="1.69096">
        <ele>5.3</ele>
        <time>2022-04-22T13:31:50Z</time>
      </trkpt>
      <trkpt lat="50.15011" lon="1.69095">
        <ele>5.3</ele>
        <time>2022-04-22T13:31:51Z</time>
      </trkpt>
      <trkpt lat="50.15012" lon="1.69094">
        <ele>5.3</ele>
        <time>2022-04-22T13:31:52Z</time>
      </trkpt>
      <trkpt lat="50.15012" lon="1.69092">
        <ele>5.3</ele>
        <time>2022-04-22T13:31:53Z</time>
      </trkpt>
      <trkpt lat="50.15013" lon="1.69091">
        <ele>5.3</ele>
        <time>2022-04-22T13:31:54Z</time>
      </trkpt>
      <trkpt lat="50.15014" lon="1.69089">
        <ele>5.3</ele>
        <time>2022-04-22T13:31:56Z</time>
      </trkpt>
      <trkpt lat="50.15014" lon="1.69086">
        <ele>5.3</ele>
        <time>2022-04-22T13:31:57Z</time>
      </trkpt>
      <trkpt lat="50.15015" lon="1.69085">
        <ele>5.3</ele>
        <time>2022-04-22T13:31:58Z</time>
      </trkpt>
      <trkpt lat="50.15015" lon="1.69083">
        <ele>5.3</ele>
        <time>2022-04-22T13:31:59Z</time>
      </trkpt>
      <trkpt lat="50.15016" lon="1.69081">
        <ele>5.3</ele>
        <time>2022-04-22T13:32:00Z</time>
      </trkpt>
      <trkpt lat="50.15016" lon="1.69078">
        <ele>5.3</ele>
        <time>2022-04-22T13:32:01Z</time>
      </trkpt>
      <trkpt lat="50.15016" lon="1.69077">
        <ele>5.3</ele>
        <time>2022-04-22T13:32:02Z</time>
      </trkpt>
      <trkpt lat="50.15017" lon="1.69076">
        <ele>5.3</ele>
        <time>2022-04-22T13:32:03Z</time>
      </trkpt>
      <trkpt lat="50.15017" lon="1.69074">
        <ele>5.3</ele>
        <time>2022-04-22T13:32:04Z</time>
      </trkpt>
      <trkpt lat="50.15017" lon="1.69072">
        <ele>5.3</ele>
        <time>2022-04-22T13:32:05Z</time>
      </trkpt>
      <trkpt lat="50.15018" lon="1.69069">
        <ele>5.3</ele>
        <time>2022-04-22T13:32:07Z</time>
      </trkpt>
      <trkpt lat="50.15018" lon="1.69068">
        <ele>5.3</ele>
        <time>2022-04-22T13:32:08Z</time>
      </trkpt>
      <trkpt lat="50.15018" lon="1.69064">
        <ele>5.3</ele>
        <time>2022-04-22T13:32:09Z</time>
      </trkpt>
      <trkpt lat="50.15018" lon="1.69063">
        <ele>5.3</ele>
        <time>2022-04-22T13:32:10Z</time>
      </trkpt>
      <trkpt lat="50.15018" lon="1.69061">
        <ele>5.3</ele>
        <time>2022-04-22T13:32:11Z</time>
      </trkpt>
      <trkpt lat="50.15018" lon="1.6906">
        <ele>5.3</ele>
        <time>2022-04-22T13:32:12Z</time>
      </trkpt>
      <trkpt lat="50.15018" lon="1.69058">
        <ele>5.3</ele>
        <time>2022-04-22T13:32:13Z</time>
      </trkpt>
      <trkpt lat="50.15018" lon="1.69056">
        <ele>5.3</ele>
        <time>2022-04-22T13:32:14Z</time>
      </trkpt>
      <trkpt lat="50.15018" lon="1.69055">
        <ele>5.4</ele>
        <time>2022-04-22T13:32:15Z</time>
      </trkpt>
      <trkpt lat="50.15018" lon="1.69052">
        <ele>5.4</ele>
        <time>2022-04-22T13:32:17Z</time>
      </trkpt>
      <trkpt lat="50.15018" lon="1.69051">
        <ele>5.4</ele>
        <time>2022-04-22T13:32:18Z</time>
      </trkpt>
      <trkpt lat="50.15017" lon="1.6905">
        <ele>5.4</ele>
        <time>2022-04-22T13:32:19Z</time>
      </trkpt>
      <trkpt lat="50.15017" lon="1.69048">
        <ele>5.4</ele>
        <time>2022-04-22T13:32:20Z</time>
      </trkpt>
      <trkpt lat="50.15017" lon="1.69046">
        <ele>5.4</ele>
        <time>2022-04-22T13:32:21Z</time>
      </trkpt>
      <trkpt lat="50.15017" lon="1.69044">
        <ele>5.4</ele>
        <time>2022-04-22T13:32:22Z</time>
      </trkpt>
      <trkpt lat="50.15017" lon="1.69043">
        <ele>5.4</ele>
        <time>2022-04-22T13:32:23Z</time>
      </trkpt>
      <trkpt lat="50.15017" lon="1.6904">
        <ele>5.4</ele>
        <time>2022-04-22T13:32:24Z</time>
      </trkpt>
      <trkpt lat="50.15016" lon="1.69038">
        <ele>5.4</ele>
        <time>2022-04-22T13:32:26Z</time>
      </trkpt>
      <trkpt lat="50.15016" lon="1.69037">
        <ele>5.4</ele>
        <time>2022-04-22T13:32:27Z</time>
      </trkpt>
      <trkpt lat="50.15016" lon="1.69035">
        <ele>5.4</ele>
        <time>2022-04-22T13:32:28Z</time>
      </trkpt>
      <trkpt lat="50.15016" lon="1.69034">
        <ele>5.4</ele>
        <time>2022-04-22T13:32:29Z</time>
      </trkpt>
      <trkpt lat="50.15016" lon="1.69032">
        <ele>5.4</ele>
        <time>2022-04-22T13:32:30Z</time>
      </trkpt>
      <trkpt lat="50.15015" lon="1.6903">
        <ele>5.4</ele>
        <time>2022-04-22T13:32:31Z</time>
      </trkpt>
      <trkpt lat="50.15015" lon="1.69029">
        <ele>5.4</ele>
        <time>2022-04-22T13:32:32Z</time>
      </trkpt>
      <trkpt lat="50.15015" lon="1.69027">
        <ele>5.5</ele>
        <time>2022-04-22T13:32:34Z</time>
      </trkpt>
      <trkpt lat="50.15014" lon="1.69026">
        <ele>5.5</ele>
        <time>2022-04-22T13:32:35Z</time>
      </trkpt>
      <trkpt lat="50.15014" lon="1.69025">
        <ele>5.5</ele>
        <time>2022-04-22T13:32:36Z</time>
      </trkpt>
      <trkpt lat="50.15013" lon="1.69023">
        <ele>5.5</ele>
        <time>2022-04-22T13:32:37Z</time>
      </trkpt>
      <trkpt lat="50.15012" lon="1.69022">
        <ele>5.5</ele>
        <time>2022-04-22T13:32:38Z</time>
      </trkpt>
      <trkpt lat="50.15012" lon="1.6902">
        <ele>5.5</ele>
        <time>2022-04-22T13:32:39Z</time>
      </trkpt>
      <trkpt lat="50.15011" lon="1.69018">
        <ele>5.5</ele>
        <time>2022-04-22T13:32:40Z</time>
      </trkpt>
      <trkpt lat="50.15009" lon="1.69015">
        <ele>5.6</ele>
        <time>2022-04-22T13:32:41Z</time>
      </trkpt>
      <trkpt lat="50.15008" lon="1.69014">
        <ele>5.6</ele>
        <time>2022-04-22T13:32:43Z</time>
      </trkpt>
      <trkpt lat="50.15008" lon="1.69013">
        <ele>5.6</ele>
        <time>2022-04-22T13:32:44Z</time>
      </trkpt>
      <trkpt lat="50.15007" lon="1.69012">
        <ele>5.6</ele>
        <time>2022-04-22T13:32:45Z</time>
      </trkpt>
      <trkpt lat="50.15006" lon="1.69012">
        <ele>5.6</ele>
        <time>2022-04-22T13:32:46Z</time>
      </trkpt>
      <trkpt lat="50.15005" lon="1.6901">
        <ele>5.6</ele>
        <time>2022-04-22T13:32:47Z</time>
      </trkpt>
      <trkpt lat="50.15004" lon="1.69009">
        <ele>5.7</ele>
        <time>2022-04-22T13:32:48Z</time>
      </trkpt>
      <trkpt lat="50.15003" lon="1.69008">
        <ele>5.7</ele>
        <time>2022-04-22T13:32:49Z</time>
      </trkpt>
      <trkpt lat="50.15001" lon="1.69007">
        <ele>5.7</ele>
        <time>2022-04-22T13:32:50Z</time>
      </trkpt>
      <trkpt lat="50.14999" lon="1.69004">
        <ele>5.8</ele>
        <time>2022-04-22T13:32:51Z</time>
      </trkpt>
      <trkpt lat="50.14998" lon="1.69003">
        <ele>5.8</ele>
        <time>2022-04-22T13:32:53Z</time>
      </trkpt>
      <trkpt lat="50.14997" lon="1.69002">
        <ele>5.8</ele>
        <time>2022-04-22T13:32:54Z</time>
      </trkpt>
      <trkpt lat="50.14996" lon="1.69001">
        <ele>5.8</ele>
        <time>2022-04-22T13:32:55Z</time>
      </trkpt>
      <trkpt lat="50.14995" lon="1.69001">
        <ele>5.8</ele>
        <time>2022-04-22T13:32:56Z</time>
      </trkpt>
      <trkpt lat="50.14994" lon="1.68999">
        <ele>5.9</ele>
        <time>2022-04-22T13:32:57Z</time>
      </trkpt>
      <trkpt lat="50.14993" lon="1.68998">
        <ele>5.9</ele>
        <time>2022-04-22T13:32:58Z</time>
      </trkpt>
      <trkpt lat="50.14992" lon="1.68997">
        <ele>5.9</ele>
        <time>2022-04-22T13:32:59Z</time>
      </trkpt>
      <trkpt lat="50.1499" lon="1.68996">
        <ele>6</ele>
        <time>2022-04-22T13:33:00Z</time>
      </trkpt>
      <trkpt lat="50.14989" lon="1.68995">
        <ele>6</ele>
        <time>2022-04-22T13:33:02Z</time>
      </trkpt>
      <trkpt lat="50.14987" lon="1.68994">
        <ele>6.1</ele>
        <time>2022-04-22T13:33:03Z</time>
      </trkpt>
      <trkpt lat="50.14986" lon="1.68993">
        <ele>6.1</ele>
        <time>2022-04-22T13:33:04Z</time>
      </trkpt>
      <trkpt lat="50.14985" lon="1.68992">
        <ele>6.1</ele>
        <time>2022-04-22T13:33:05Z</time>
      </trkpt>
      <trkpt lat="50.14983" lon="1.6899">
        <ele>6.2</ele>
        <time>2022-04-22T13:33:07Z</time>
      </trkpt>
      <trkpt lat="50.14983" lon="1.6899">
        <ele>6.2</ele>
        <time>2022-04-22T13:33:08Z</time>
      </trkpt>
      <trkpt lat="50.14982" lon="1.68989">
        <ele>6.3</ele>
        <time>2022-04-22T13:33:09Z</time>
      </trkpt>
      <trkpt lat="50.14981" lon="1.68988">
        <ele>6.3</ele>
        <time>2022-04-22T13:33:10Z</time>
      </trkpt>
      <trkpt lat="50.14979" lon="1.68986">
        <ele>6.4</ele>
        <time>2022-04-22T13:33:12Z</time>
      </trkpt>
      <trkpt lat="50.14978" lon="1.68984">
        <ele>6.4</ele>
        <time>2022-04-22T13:33:13Z</time>
      </trkpt>
      <trkpt lat="50.14977" lon="1.68983">
        <ele>6.5</ele>
        <time>2022-04-22T13:33:14Z</time>
      </trkpt>
      <trkpt lat="50.14977" lon="1.68982">
        <ele>6.5</ele>
        <time>2022-04-22T13:33:15Z</time>
      </trkpt>
      <trkpt lat="50.14975" lon="1.6898">
        <ele>6.6</ele>
        <time>2022-04-22T13:33:16Z</time>
      </trkpt>
      <trkpt lat="50.14975" lon="1.68979">
        <ele>6.6</ele>
        <time>2022-04-22T13:33:18Z</time>
      </trkpt>
      <trkpt lat="50.14974" lon="1.68977">
        <ele>6.7</ele>
        <time>2022-04-22T13:33:19Z</time>
      </trkpt>
      <trkpt lat="50.14973" lon="1.68976">
        <ele>6.7</ele>
        <time>2022-04-22T13:33:20Z</time>
      </trkpt>
      <trkpt lat="50.14973" lon="1.68973">
        <ele>6.8</ele>
        <time>2022-04-22T13:33:22Z</time>
      </trkpt>
      <trkpt lat="50.14972" lon="1.68971">
        <ele>6.9</ele>
        <time>2022-04-22T13:33:23Z</time>
      </trkpt>
      <trkpt lat="50.14972" lon="1.68969">
        <ele>6.9</ele>
        <time>2022-04-22T13:33:24Z</time>
      </trkpt>
      <trkpt lat="50.14971" lon="1.68968">
        <ele>7</ele>
        <time>2022-04-22T13:33:25Z</time>
      </trkpt>
      <trkpt lat="50.14971" lon="1.68966">
        <ele>7.1</ele>
        <time>2022-04-22T13:33:26Z</time>
      </trkpt>
      <trkpt lat="50.1497" lon="1.68963">
        <ele>7.1</ele>
        <time>2022-04-22T13:33:28Z</time>
      </trkpt>
      <trkpt lat="50.1497" lon="1.68961">
        <ele>7.2</ele>
        <time>2022-04-22T13:33:29Z</time>
      </trkpt>
      <trkpt lat="50.14969" lon="1.68959">
        <ele>7.3</ele>
        <time>2022-04-22T13:33:30Z</time>
      </trkpt>
      <trkpt lat="50.14969" lon="1.68957">
        <ele>7.4</ele>
        <time>2022-04-22T13:33:31Z</time>
      </trkpt>
      <trkpt lat="50.1497" lon="1.68956">
        <ele>7.5</ele>
        <time>2022-04-22T13:33:32Z</time>
      </trkpt>
      <trkpt lat="50.1497" lon="1.68955">
        <ele>7.5</ele>
        <time>2022-04-22T13:33:33Z</time>
      </trkpt>
      <trkpt lat="50.14971" lon="1.68954">
        <ele>7.6</ele>
        <time>2022-04-22T13:33:34Z</time>
      </trkpt>
      <trkpt lat="50.14971" lon="1.68951">
        <ele>7.9</ele>
        <time>2022-04-22T13:33:35Z</time>
      </trkpt>
      <trkpt lat="50.14971" lon="1.6895">
        <ele>7.8</ele>
        <time>2022-04-22T13:33:36Z</time>
      </trkpt>
      <trkpt lat="50.14972" lon="1.68949">
        <ele>7.8</ele>
        <time>2022-04-22T13:33:37Z</time>
      </trkpt>
      <trkpt lat="50.14973" lon="1.68946">
        <ele>7.8</ele>
        <time>2022-04-22T13:33:39Z</time>
      </trkpt>
      <trkpt lat="50.14973" lon="1.68945">
        <ele>7.8</ele>
        <time>2022-04-22T13:33:40Z</time>
      </trkpt>
      <trkpt lat="50.14974" lon="1.68944">
        <ele>7.8</ele>
        <time>2022-04-22T13:33:41Z</time>
      </trkpt>
      <trkpt lat="50.14975" lon="1.68942">
        <ele>7.7</ele>
        <time>2022-04-22T13:33:42Z</time>
      </trkpt>
      <trkpt lat="50.14977" lon="1.6894">
        <ele>7.7</ele>
        <time>2022-04-22T13:33:44Z</time>
      </trkpt>
      <trkpt lat="50.14977" lon="1.68939">
        <ele>7.7</ele>
        <time>2022-04-22T13:33:45Z</time>
      </trkpt>
      <trkpt lat="50.14978" lon="1.68939">
        <ele>7.7</ele>
        <time>2022-04-22T13:33:46Z</time>
      </trkpt>
      <trkpt lat="50.14979" lon="1.68938">
        <ele>7.6</ele>
        <time>2022-04-22T13:33:47Z</time>
      </trkpt>
      <trkpt lat="50.1498" lon="1.68937">
        <ele>7.6</ele>
        <time>2022-04-22T13:33:48Z</time>
      </trkpt>
      <trkpt lat="50.14982" lon="1.68936">
        <ele>7.6</ele>
        <time>2022-04-22T13:33:49Z</time>
      </trkpt>
      <trkpt lat="50.14983" lon="1.68935">
        <ele>7.6</ele>
        <time>2022-04-22T13:33:50Z</time>
      </trkpt>
      <trkpt lat="50.14984" lon="1.68934">
        <ele>7.5</ele>
        <time>2022-04-22T13:33:52Z</time>
      </trkpt>
      <trkpt lat="50.14985" lon="1.68933">
        <ele>7.5</ele>
        <time>2022-04-22T13:33:53Z</time>
      </trkpt>
      <trkpt lat="50.14986" lon="1.68932">
        <ele>7.5</ele>
        <time>2022-04-22T13:33:54Z</time>
      </trkpt>
      <trkpt lat="50.14987" lon="1.68931">
        <ele>7.5</ele>
        <time>2022-04-22T13:33:55Z</time>
      </trkpt>
      <trkpt lat="50.14988" lon="1.6893">
        <ele>7.5</ele>
        <time>2022-04-22T13:33:56Z</time>
      </trkpt>
      <trkpt lat="50.14988" lon="1.6893">
        <ele>7.4</ele>
        <time>2022-04-22T13:33:57Z</time>
      </trkpt>
      <trkpt lat="50.14988" lon="1.68929">
        <ele>7.4</ele>
        <time>2022-04-22T13:33:58Z</time>
      </trkpt>
      <trkpt lat="50.14988" lon="1.68927">
        <ele>7.4</ele>
        <time>2022-04-22T13:33:59Z</time>
      </trkpt>
      <trkpt lat="50.14988" lon="1.68926">
        <ele>7.4</ele>
        <time>2022-04-22T13:34:01Z</time>
      </trkpt>
      <trkpt lat="50.14988" lon="1.68925">
        <ele>7.4</ele>
        <time>2022-04-22T13:34:02Z</time>
      </trkpt>
      <trkpt lat="50.14989" lon="1.68924">
        <ele>7.4</ele>
        <time>2022-04-22T13:34:03Z</time>
      </trkpt>
      <trkpt lat="50.14989" lon="1.68922">
        <ele>7.3</ele>
        <time>2022-04-22T13:34:04Z</time>
      </trkpt>
      <trkpt lat="50.1499" lon="1.68921">
        <ele>7.3</ele>
        <time>2022-04-22T13:34:05Z</time>
      </trkpt>
      <trkpt lat="50.14991" lon="1.68919">
        <ele>7.3</ele>
        <time>2022-04-22T13:34:06Z</time>
      </trkpt>
      <trkpt lat="50.14992" lon="1.68917">
        <ele>7.3</ele>
        <time>2022-04-22T13:34:07Z</time>
      </trkpt>
      <trkpt lat="50.14993" lon="1.68915">
        <ele>7.2</ele>
        <time>2022-04-22T13:34:08Z</time>
      </trkpt>
      <trkpt lat="50.14994" lon="1.68914">
        <ele>7.2</ele>
        <time>2022-04-22T13:34:09Z</time>
      </trkpt>
      <trkpt lat="50.14995" lon="1.68912">
        <ele>7.1</ele>
        <time>2022-04-22T13:34:10Z</time>
      </trkpt>
      <trkpt lat="50.14997" lon="1.68911">
        <ele>7.1</ele>
        <time>2022-04-22T13:34:11Z</time>
      </trkpt>
      <trkpt lat="50.14998" lon="1.6891">
        <ele>7.1</ele>
        <time>2022-04-22T13:34:13Z</time>
      </trkpt>
      <trkpt lat="50.15" lon="1.68909">
        <ele>7.1</ele>
        <time>2022-04-22T13:34:14Z</time>
      </trkpt>
      <trkpt lat="50.15001" lon="1.68909">
        <ele>7</ele>
        <time>2022-04-22T13:34:15Z</time>
      </trkpt>
      <trkpt lat="50.15002" lon="1.68908">
        <ele>7</ele>
        <time>2022-04-22T13:34:16Z</time>
      </trkpt>
      <trkpt lat="50.15003" lon="1.68907">
        <ele>6.9</ele>
        <time>2022-04-22T13:34:17Z</time>
      </trkpt>
      <trkpt lat="50.15004" lon="1.68905">
        <ele>6.9</ele>
        <time>2022-04-22T13:34:18Z</time>
      </trkpt>
      <trkpt lat="50.15005" lon="1.68903">
        <ele>6.8</ele>
        <time>2022-04-22T13:34:19Z</time>
      </trkpt>
      <trkpt lat="50.15006" lon="1.68901">
        <ele>6.8</ele>
        <time>2022-04-22T13:34:20Z</time>
      </trkpt>
      <trkpt lat="50.15007" lon="1.689">
        <ele>6.7</ele>
        <time>2022-04-22T13:34:21Z</time>
      </trkpt>
      <trkpt lat="50.15008" lon="1.68898">
        <ele>6.7</ele>
        <time>2022-04-22T13:34:22Z</time>
      </trkpt>
      <trkpt lat="50.15009" lon="1.68895">
        <ele>6.6</ele>
        <time>2022-04-22T13:34:23Z</time>
      </trkpt>
      <trkpt lat="50.1501" lon="1.68894">
        <ele>6.6</ele>
        <time>2022-04-22T13:34:24Z</time>
      </trkpt>
      <trkpt lat="50.1501" lon="1.68893">
        <ele>6.6</ele>
        <time>2022-04-22T13:34:25Z</time>
      </trkpt>
      <trkpt lat="50.15011" lon="1.68891">
        <ele>6.5</ele>
        <time>2022-04-22T13:34:26Z</time>
      </trkpt>
      <trkpt lat="50.15012" lon="1.68889">
        <ele>6.5</ele>
        <time>2022-04-22T13:34:27Z</time>
      </trkpt>
      <trkpt lat="50.15013" lon="1.68888">
        <ele>6.4</ele>
        <time>2022-04-22T13:34:28Z</time>
      </trkpt>
      <trkpt lat="50.15014" lon="1.68885">
        <ele>6.4</ele>
        <time>2022-04-22T13:34:30Z</time>
      </trkpt>
      <trkpt lat="50.15015" lon="1.68885">
        <ele>6.4</ele>
        <time>2022-04-22T13:34:31Z</time>
      </trkpt>
      <trkpt lat="50.15016" lon="1.68884">
        <ele>6.3</ele>
        <time>2022-04-22T13:34:32Z</time>
      </trkpt>
      <trkpt lat="50.15017" lon="1.68883">
        <ele>6.3</ele>
        <time>2022-04-22T13:34:33Z</time>
      </trkpt>
      <trkpt lat="50.15018" lon="1.68882">
        <ele>6.3</ele>
        <time>2022-04-22T13:34:34Z</time>
      </trkpt>
      <trkpt lat="50.15019" lon="1.68881">
        <ele>6.3</ele>
        <time>2022-04-22T13:34:36Z</time>
      </trkpt>
      <trkpt lat="50.1502" lon="1.68881">
        <ele>6.2</ele>
        <time>2022-04-22T13:34:37Z</time>
      </trkpt>
      <trkpt lat="50.15021" lon="1.6888">
        <ele>6.2</ele>
        <time>2022-04-22T13:34:38Z</time>
      </trkpt>
      <trkpt lat="50.15022" lon="1.68878">
        <ele>6.2</ele>
        <time>2022-04-22T13:34:39Z</time>
      </trkpt>
      <trkpt lat="50.15022" lon="1.68878">
        <ele>6.2</ele>
        <time>2022-04-22T13:34:40Z</time>
      </trkpt>
      <trkpt lat="50.15023" lon="1.68876">
        <ele>6.1</ele>
        <time>2022-04-22T13:34:41Z</time>
      </trkpt>
      <trkpt lat="50.15023" lon="1.68874">
        <ele>6.1</ele>
        <time>2022-04-22T13:34:42Z</time>
      </trkpt>
      <trkpt lat="50.15024" lon="1.68873">
        <ele>6.1</ele>
        <time>2022-04-22T13:34:43Z</time>
      </trkpt>
      <trkpt lat="50.15025" lon="1.68872">
        <ele>6.1</ele>
        <time>2022-04-22T13:34:44Z</time>
      </trkpt>
      <trkpt lat="50.15025" lon="1.68871">
        <ele>6.1</ele>
        <time>2022-04-22T13:34:46Z</time>
      </trkpt>
      <trkpt lat="50.15025" lon="1.6887">
        <ele>6</ele>
        <time>2022-04-22T13:34:47Z</time>
      </trkpt>
      <trkpt lat="50.15026" lon="1.68869">
        <ele>6</ele>
        <time>2022-04-22T13:34:48Z</time>
      </trkpt>
      <trkpt lat="50.15026" lon="1.68868">
        <ele>6</ele>
        <time>2022-04-22T13:34:49Z</time>
      </trkpt>
      <trkpt lat="50.15027" lon="1.68867">
        <ele>6</ele>
        <time>2022-04-22T13:34:50Z</time>
      </trkpt>
      <trkpt lat="50.15027" lon="1.68866">
        <ele>6</ele>
        <time>2022-04-22T13:34:51Z</time>
      </trkpt>
      <trkpt lat="50.15028" lon="1.68865">
        <ele>6</ele>
        <time>2022-04-22T13:34:52Z</time>
      </trkpt>
      <trkpt lat="50.15028" lon="1.68864">
        <ele>6</ele>
        <time>2022-04-22T13:34:53Z</time>
      </trkpt>
      <trkpt lat="50.15029" lon="1.68863">
        <ele>6</ele>
        <time>2022-04-22T13:34:55Z</time>
      </trkpt>
      <trkpt lat="50.15029" lon="1.68862">
        <ele>5.9</ele>
        <time>2022-04-22T13:34:56Z</time>
      </trkpt>
      <trkpt lat="50.1503" lon="1.68861">
        <ele>5.9</ele>
        <time>2022-04-22T13:34:57Z</time>
      </trkpt>
      <trkpt lat="50.15031" lon="1.6886">
        <ele>5.9</ele>
        <time>2022-04-22T13:34:58Z</time>
      </trkpt>
      <trkpt lat="50.15032" lon="1.68857">
        <ele>5.9</ele>
        <time>2022-04-22T13:34:59Z</time>
      </trkpt>
      <trkpt lat="50.15033" lon="1.68856">
        <ele>5.9</ele>
        <time>2022-04-22T13:35:00Z</time>
      </trkpt>
      <trkpt lat="50.15034" lon="1.68855">
        <ele>5.9</ele>
        <time>2022-04-22T13:35:01Z</time>
      </trkpt>
      <trkpt lat="50.15035" lon="1.68854">
        <ele>5.8</ele>
        <time>2022-04-22T13:35:02Z</time>
      </trkpt>
      <trkpt lat="50.15036" lon="1.68853">
        <ele>5.8</ele>
        <time>2022-04-22T13:35:04Z</time>
      </trkpt>
      <trkpt lat="50.15037" lon="1.68851">
        <ele>5.8</ele>
        <time>2022-04-22T13:35:05Z</time>
      </trkpt>
      <trkpt lat="50.15038" lon="1.6885">
        <ele>5.8</ele>
        <time>2022-04-22T13:35:06Z</time>
      </trkpt>
      <trkpt lat="50.15038" lon="1.68849">
        <ele>5.8</ele>
        <time>2022-04-22T13:35:07Z</time>
      </trkpt>
      <trkpt lat="50.15039" lon="1.68848">
        <ele>5.8</ele>
        <time>2022-04-22T13:35:08Z</time>
      </trkpt>
      <trkpt lat="50.15041" lon="1.68847">
        <ele>5.7</ele>
        <time>2022-04-22T13:35:09Z</time>
      </trkpt>
      <trkpt lat="50.15043" lon="1.68845">
        <ele>5.7</ele>
        <time>2022-04-22T13:35:10Z</time>
      </trkpt>
      <trkpt lat="50.15043" lon="1.68844">
        <ele>5.7</ele>
        <time>2022-04-22T13:35:11Z</time>
      </trkpt>
      <trkpt lat="50.15044" lon="1.68843">
        <ele>5.7</ele>
        <time>2022-04-22T13:35:12Z</time>
      </trkpt>
      <trkpt lat="50.15046" lon="1.68841">
        <ele>5.7</ele>
        <time>2022-04-22T13:35:13Z</time>
      </trkpt>
      <trkpt lat="50.15047" lon="1.6884">
        <ele>5.6</ele>
        <time>2022-04-22T13:35:15Z</time>
      </trkpt>
      <trkpt lat="50.15047" lon="1.68838">
        <ele>5.6</ele>
        <time>2022-04-22T13:35:16Z</time>
      </trkpt>
      <trkpt lat="50.15048" lon="1.68837">
        <ele>5.6</ele>
        <time>2022-04-22T13:35:17Z</time>
      </trkpt>
      <trkpt lat="50.15049" lon="1.68836">
        <ele>5.6</ele>
        <time>2022-04-22T13:35:18Z</time>
      </trkpt>
      <trkpt lat="50.1505" lon="1.68834">
        <ele>5.6</ele>
        <time>2022-04-22T13:35:19Z</time>
      </trkpt>
      <trkpt lat="50.15051" lon="1.68833">
        <ele>5.6</ele>
        <time>2022-04-22T13:35:20Z</time>
      </trkpt>
      <trkpt lat="50.15053" lon="1.6883">
        <ele>5.6</ele>
        <time>2022-04-22T13:35:21Z</time>
      </trkpt>
      <trkpt lat="50.15054" lon="1.68829">
        <ele>5.5</ele>
        <time>2022-04-22T13:35:23Z</time>
      </trkpt>
      <trkpt lat="50.15055" lon="1.68828">
        <ele>5.5</ele>
        <time>2022-04-22T13:35:24Z</time>
      </trkpt>
      <trkpt lat="50.15055" lon="1.68827">
        <ele>5.5</ele>
        <time>2022-04-22T13:35:25Z</time>
      </trkpt>
      <trkpt lat="50.15056" lon="1.68826">
        <ele>5.5</ele>
        <time>2022-04-22T13:35:26Z</time>
      </trkpt>
      <trkpt lat="50.15058" lon="1.68824">
        <ele>5.5</ele>
        <time>2022-04-22T13:35:27Z</time>
      </trkpt>
      <trkpt lat="50.15059" lon="1.68823">
        <ele>5.5</ele>
        <time>2022-04-22T13:35:28Z</time>
      </trkpt>
      <trkpt lat="50.1506" lon="1.68823">
        <ele>5.5</ele>
        <time>2022-04-22T13:35:29Z</time>
      </trkpt>
      <trkpt lat="50.1506" lon="1.68822">
        <ele>5.5</ele>
        <time>2022-04-22T13:35:31Z</time>
      </trkpt>
      <trkpt lat="50.15061" lon="1.68821">
        <ele>5.5</ele>
        <time>2022-04-22T13:35:32Z</time>
      </trkpt>
      <trkpt lat="50.15062" lon="1.6882">
        <ele>5.4</ele>
        <time>2022-04-22T13:35:33Z</time>
      </trkpt>
      <trkpt lat="50.15064" lon="1.68819">
        <ele>5.4</ele>
        <time>2022-04-22T13:35:34Z</time>
      </trkpt>
      <trkpt lat="50.15065" lon="1.68818">
        <ele>5.4</ele>
        <time>2022-04-22T13:35:35Z</time>
      </trkpt>
      <trkpt lat="50.15065" lon="1.68817">
        <ele>5.4</ele>
        <time>2022-04-22T13:35:36Z</time>
      </trkpt>
      <trkpt lat="50.15066" lon="1.68816">
        <ele>5.4</ele>
        <time>2022-04-22T13:35:37Z</time>
      </trkpt>
      <trkpt lat="50.15067" lon="1.68815">
        <ele>5.4</ele>
        <time>2022-04-22T13:35:38Z</time>
      </trkpt>
      <trkpt lat="50.15068" lon="1.68814">
        <ele>5.4</ele>
        <time>2022-04-22T13:35:40Z</time>
      </trkpt>
      <trkpt lat="50.15069" lon="1.68813">
        <ele>5.4</ele>
        <time>2022-04-22T13:35:41Z</time>
      </trkpt>
      <trkpt lat="50.1507" lon="1.68812">
        <ele>5.4</ele>
        <time>2022-04-22T13:35:42Z</time>
      </trkpt>
      <trkpt lat="50.15071" lon="1.68811">
        <ele>5.4</ele>
        <time>2022-04-22T13:35:43Z</time>
      </trkpt>
      <trkpt lat="50.15072" lon="1.6881">
        <ele>5.4</ele>
        <time>2022-04-22T13:35:44Z</time>
      </trkpt>
      <trkpt lat="50.15073" lon="1.6881">
        <ele>5.4</ele>
        <time>2022-04-22T13:35:45Z</time>
      </trkpt>
      <trkpt lat="50.15074" lon="1.68808">
        <ele>5.4</ele>
        <time>2022-04-22T13:35:46Z</time>
      </trkpt>
      <trkpt lat="50.15075" lon="1.68806">
        <ele>5.4</ele>
        <time>2022-04-22T13:35:48Z</time>
      </trkpt>
      <trkpt lat="50.15076" lon="1.68805">
        <ele>5.4</ele>
        <time>2022-04-22T13:35:49Z</time>
      </trkpt>
      <trkpt lat="50.15076" lon="1.68804">
        <ele>5.4</ele>
        <time>2022-04-22T13:35:50Z</time>
      </trkpt>
      <trkpt lat="50.15077" lon="1.68803">
        <ele>5.4</ele>
        <time>2022-04-22T13:35:51Z</time>
      </trkpt>
      <trkpt lat="50.15077" lon="1.68802">
        <ele>5.4</ele>
        <time>2022-04-22T13:35:52Z</time>
      </trkpt>
      <trkpt lat="50.15078" lon="1.688">
        <ele>5.4</ele>
        <time>2022-04-22T13:35:53Z</time>
      </trkpt>
      <trkpt lat="50.15081" lon="1.68797">
        <ele>5.4</ele>
        <time>2022-04-22T13:35:54Z</time>
      </trkpt>
      <trkpt lat="50.15082" lon="1.68794">
        <ele>5.4</ele>
        <time>2022-04-22T13:35:55Z</time>
      </trkpt>
      <trkpt lat="50.15083" lon="1.68793">
        <ele>5.4</ele>
        <time>2022-04-22T13:35:57Z</time>
      </trkpt>
      <trkpt lat="50.15083" lon="1.68791">
        <ele>5.4</ele>
        <time>2022-04-22T13:35:58Z</time>
      </trkpt>
      <trkpt lat="50.15086" lon="1.68788">
        <ele>5.4</ele>
        <time>2022-04-22T13:35:59Z</time>
      </trkpt>
      <trkpt lat="50.15086" lon="1.68788">
        <ele>5.4</ele>
        <time>2022-04-22T13:36:00Z</time>
      </trkpt>
      <trkpt lat="50.15087" lon="1.68786">
        <ele>5.4</ele>
        <time>2022-04-22T13:36:02Z</time>
      </trkpt>
      <trkpt lat="50.15088" lon="1.68784">
        <ele>5.4</ele>
        <time>2022-04-22T13:36:03Z</time>
      </trkpt>
      <trkpt lat="50.1509" lon="1.68782">
        <ele>5.4</ele>
        <time>2022-04-22T13:36:04Z</time>
      </trkpt>
      <trkpt lat="50.15091" lon="1.6878">
        <ele>5.4</ele>
        <time>2022-04-22T13:36:05Z</time>
      </trkpt>
      <trkpt lat="50.15092" lon="1.68779">
        <ele>5.4</ele>
        <time>2022-04-22T13:36:06Z</time>
      </trkpt>
      <trkpt lat="50.15092" lon="1.68778">
        <ele>5.4</ele>
        <time>2022-04-22T13:36:07Z</time>
      </trkpt>
      <trkpt lat="50.15093" lon="1.68777">
        <ele>5.5</ele>
        <time>2022-04-22T13:36:08Z</time>
      </trkpt>
      <trkpt lat="50.15093" lon="1.68776">
        <ele>5.5</ele>
        <time>2022-04-22T13:36:09Z</time>
      </trkpt>
      <trkpt lat="50.15092" lon="1.68777">
        <ele>5.5</ele>
        <time>2022-04-22T13:36:11Z</time>
      </trkpt>
      <trkpt lat="50.15091" lon="1.68777">
        <ele>5.5</ele>
        <time>2022-04-22T13:36:12Z</time>
      </trkpt>
      <trkpt lat="50.15091" lon="1.68776">
        <ele>5.5</ele>
        <time>2022-04-22T13:36:13Z</time>
      </trkpt>
      <trkpt lat="50.15092" lon="1.68775">
        <ele>5.5</ele>
        <time>2022-04-22T13:36:14Z</time>
      </trkpt>
      <trkpt lat="50.15092" lon="1.68774">
        <ele>5.5</ele>
        <time>2022-04-22T13:36:15Z</time>
      </trkpt>
      <trkpt lat="50.15093" lon="1.68772">
        <ele>5.5</ele>
        <time>2022-04-22T13:36:16Z</time>
      </trkpt>
      <trkpt lat="50.15094" lon="1.6877">
        <ele>5.5</ele>
        <time>2022-04-22T13:36:17Z</time>
      </trkpt>
      <trkpt lat="50.15095" lon="1.68768">
        <ele>5.6</ele>
        <time>2022-04-22T13:36:19Z</time>
      </trkpt>
      <trkpt lat="50.15096" lon="1.68767">
        <ele>5.6</ele>
        <time>2022-04-22T13:36:20Z</time>
      </trkpt>
      <trkpt lat="50.15096" lon="1.68765">
        <ele>5.6</ele>
        <time>2022-04-22T13:36:21Z</time>
      </trkpt>
      <trkpt lat="50.15098" lon="1.68762">
        <ele>5.6</ele>
        <time>2022-04-22T13:36:22Z</time>
      </trkpt>
      <trkpt lat="50.15099" lon="1.68761">
        <ele>5.6</ele>
        <time>2022-04-22T13:36:23Z</time>
      </trkpt>
      <trkpt lat="50.15099" lon="1.68761">
        <ele>5.7</ele>
        <time>2022-04-22T13:36:24Z</time>
      </trkpt>
      <trkpt lat="50.151" lon="1.68759">
        <ele>5.7</ele>
        <time>2022-04-22T13:36:25Z</time>
      </trkpt>
      <trkpt lat="50.15101" lon="1.68757">
        <ele>5.7</ele>
        <time>2022-04-22T13:36:26Z</time>
      </trkpt>
      <trkpt lat="50.15103" lon="1.68753">
        <ele>5.8</ele>
        <time>2022-04-22T13:36:27Z</time>
      </trkpt>
      <trkpt lat="50.15103" lon="1.68751">
        <ele>5.8</ele>
        <time>2022-04-22T13:36:29Z</time>
      </trkpt>
      <trkpt lat="50.15104" lon="1.6875">
        <ele>5.8</ele>
        <time>2022-04-22T13:36:30Z</time>
      </trkpt>
      <trkpt lat="50.15104" lon="1.68749">
        <ele>5.8</ele>
        <time>2022-04-22T13:36:31Z</time>
      </trkpt>
      <trkpt lat="50.15105" lon="1.68747">
        <ele>5.9</ele>
        <time>2022-04-22T13:36:32Z</time>
      </trkpt>
      <trkpt lat="50.15106" lon="1.68748">
        <ele>5.9</ele>
        <time>2022-04-22T13:36:33Z</time>
      </trkpt>
      <trkpt lat="50.15106" lon="1.68748">
        <ele>5.9</ele>
        <time>2022-04-22T13:36:34Z</time>
      </trkpt>
      <trkpt lat="50.15107" lon="1.68747">
        <ele>5.9</ele>
        <time>2022-04-22T13:36:35Z</time>
      </trkpt>
      <trkpt lat="50.15108" lon="1.68747">
        <ele>5.9</ele>
        <time>2022-04-22T13:36:37Z</time>
      </trkpt>
      <trkpt lat="50.15109" lon="1.68746">
        <ele>6</ele>
        <time>2022-04-22T13:36:38Z</time>
      </trkpt>
      <trkpt lat="50.1511" lon="1.68744">
        <ele>6</ele>
        <time>2022-04-22T13:36:39Z</time>
      </trkpt>
      <trkpt lat="50.1511" lon="1.68742">
        <ele>6</ele>
        <time>2022-04-22T13:36:40Z</time>
      </trkpt>
      <trkpt lat="50.15111" lon="1.6874">
        <ele>6.1</ele>
        <time>2022-04-22T13:36:41Z</time>
      </trkpt>
      <trkpt lat="50.15112" lon="1.68739">
        <ele>6.1</ele>
        <time>2022-04-22T13:36:42Z</time>
      </trkpt>
      <trkpt lat="50.15113" lon="1.68737">
        <ele>6.1</ele>
        <time>2022-04-22T13:36:44Z</time>
      </trkpt>
      <trkpt lat="50.15114" lon="1.68736">
        <ele>6.1</ele>
        <time>2022-04-22T13:36:45Z</time>
      </trkpt>
      <trkpt lat="50.15117" lon="1.6874">
        <ele>6.1</ele>
        <time>2022-04-22T13:36:47Z</time>
      </trkpt>
      <trkpt lat="50.15118" lon="1.68741">
        <ele>6.1</ele>
        <time>2022-04-22T13:36:48Z</time>
      </trkpt>
      <trkpt lat="50.15119" lon="1.68741">
        <ele>6.1</ele>
        <time>2022-04-22T13:36:49Z</time>
      </trkpt>
      <trkpt lat="50.1512" lon="1.68741">
        <ele>6.1</ele>
        <time>2022-04-22T13:36:50Z</time>
      </trkpt>
      <trkpt lat="50.15121" lon="1.68741">
        <ele>6.1</ele>
        <time>2022-04-22T13:36:51Z</time>
      </trkpt>
      <trkpt lat="50.15123" lon="1.68741">
        <ele>6.1</ele>
        <time>2022-04-22T13:36:52Z</time>
      </trkpt>
      <trkpt lat="50.15125" lon="1.6874">
        <ele>6.1</ele>
        <time>2022-04-22T13:36:54Z</time>
      </trkpt>
      <trkpt lat="50.15125" lon="1.6874">
        <ele>6.1</ele>
        <time>2022-04-22T13:36:55Z</time>
      </trkpt>
      <trkpt lat="50.15126" lon="1.68739">
        <ele>6.1</ele>
        <time>2022-04-22T13:36:56Z</time>
      </trkpt>
      <trkpt lat="50.15128" lon="1.68738">
        <ele>6.1</ele>
        <time>2022-04-22T13:36:57Z</time>
      </trkpt>
      <trkpt lat="50.15129" lon="1.68738">
        <ele>6.1</ele>
        <time>2022-04-22T13:36:58Z</time>
      </trkpt>
      <trkpt lat="50.1513" lon="1.68738">
        <ele>6.1</ele>
        <time>2022-04-22T13:36:59Z</time>
      </trkpt>
      <trkpt lat="50.15131" lon="1.68739">
        <ele>6.1</ele>
        <time>2022-04-22T13:37:01Z</time>
      </trkpt>
      <trkpt lat="50.15132" lon="1.6874">
        <ele>6.1</ele>
        <time>2022-04-22T13:37:02Z</time>
      </trkpt>
      <trkpt lat="50.15132" lon="1.68742">
        <ele>6.1</ele>
        <time>2022-04-22T13:37:03Z</time>
      </trkpt>
      <trkpt lat="50.15132" lon="1.68745">
        <ele>6.1</ele>
        <time>2022-04-22T13:37:05Z</time>
      </trkpt>
      <trkpt lat="50.15132" lon="1.68746">
        <ele>6.1</ele>
        <time>2022-04-22T13:37:06Z</time>
      </trkpt>
      <trkpt lat="50.15132" lon="1.68746">
        <ele>6.1</ele>
        <time>2022-04-22T13:37:07Z</time>
      </trkpt>
      <trkpt lat="50.15132" lon="1.68746">
        <ele>6.1</ele>
        <time>2022-04-22T13:37:08Z</time>
      </trkpt>
      <trkpt lat="50.15132" lon="1.68745">
        <ele>6.1</ele>
        <time>2022-04-22T13:37:10Z</time>
      </trkpt>
      <trkpt lat="50.15132" lon="1.68745">
        <ele>6.1</ele>
        <time>2022-04-22T13:37:11Z</time>
      </trkpt>
      <trkpt lat="50.15131" lon="1.68745">
        <ele>6.1</ele>
        <time>2022-04-22T13:37:12Z</time>
      </trkpt>
      <trkpt lat="50.15131" lon="1.68745">
        <ele>6.1</ele>
        <time>2022-04-22T13:37:13Z</time>
      </trkpt>
      <trkpt lat="50.15131" lon="1.68744">
        <ele>6.1</ele>
        <time>2022-04-22T13:37:14Z</time>
      </trkpt>
      <trkpt lat="50.15131" lon="1.68744">
        <ele>6.1</ele>
        <time>2022-04-22T13:37:16Z</time>
      </trkpt>
      <trkpt lat="50.15131" lon="1.68745">
        <ele>6.1</ele>
        <time>2022-04-22T13:37:17Z</time>
      </trkpt>
      <trkpt lat="50.15132" lon="1.68745">
        <ele>6.1</ele>
        <time>2022-04-22T13:37:18Z</time>
      </trkpt>
      <trkpt lat="50.15132" lon="1.68746">
        <ele>6.1</ele>
        <time>2022-04-22T13:37:20Z</time>
      </trkpt>
      <trkpt lat="50.15132" lon="1.68746">
        <ele>6.1</ele>
        <time>2022-04-22T13:37:21Z</time>
      </trkpt>
      <trkpt lat="50.15133" lon="1.68746">
        <ele>6.1</ele>
        <time>2022-04-22T13:37:22Z</time>
      </trkpt>
      <trkpt lat="50.15134" lon="1.68746">
        <ele>6.1</ele>
        <time>2022-04-22T13:37:23Z</time>
      </trkpt>
      <trkpt lat="50.15135" lon="1.68746">
        <ele>6.1</ele>
        <time>2022-04-22T13:37:24Z</time>
      </trkpt>
      <trkpt lat="50.15135" lon="1.68745">
        <ele>6.1</ele>
        <time>2022-04-22T13:37:25Z</time>
      </trkpt>
      <trkpt lat="50.15136" lon="1.68745">
        <ele>6.1</ele>
        <time>2022-04-22T13:37:26Z</time>
      </trkpt>
      <trkpt lat="50.15136" lon="1.68745">
        <ele>6.1</ele>
        <time>2022-04-22T13:37:27Z</time>
      </trkpt>
      <trkpt lat="50.15137" lon="1.68745">
        <ele>6.1</ele>
        <time>2022-04-22T13:37:28Z</time>
      </trkpt>
      <trkpt lat="50.15137" lon="1.68745">
        <ele>6.1</ele>
        <time>2022-04-22T13:37:29Z</time>
      </trkpt>
      <trkpt lat="50.15137" lon="1.68745">
        <ele>6.1</ele>
        <time>2022-04-22T13:37:30Z</time>
      </trkpt>
      <trkpt lat="50.15138" lon="1.68745">
        <ele>6.1</ele>
        <time>2022-04-22T13:37:31Z</time>
      </trkpt>
      <trkpt lat="50.15138" lon="1.68745">
        <ele>6.1</ele>
        <time>2022-04-22T13:37:32Z</time>
      </trkpt>
      <trkpt lat="50.15139" lon="1.68745">
        <ele>6.1</ele>
        <time>2022-04-22T13:37:33Z</time>
      </trkpt>
      <trkpt lat="50.15139" lon="1.68745">
        <ele>6.1</ele>
        <time>2022-04-22T13:37:34Z</time>
      </trkpt>
      <trkpt lat="50.15139" lon="1.68745">
        <ele>6.1</ele>
        <time>2022-04-22T13:37:35Z</time>
      </trkpt>
      <trkpt lat="50.1514" lon="1.68745">
        <ele>6.1</ele>
        <time>2022-04-22T13:37:36Z</time>
      </trkpt>
      <trkpt lat="50.1514" lon="1.68745">
        <ele>6.1</ele>
        <time>2022-04-22T13:37:38Z</time>
      </trkpt>
      <trkpt lat="50.1514" lon="1.68745">
        <ele>6.1</ele>
        <time>2022-04-22T13:37:39Z</time>
      </trkpt>
      <trkpt lat="50.15141" lon="1.68745">
        <ele>6.1</ele>
        <time>2022-04-22T13:37:40Z</time>
      </trkpt>
      <trkpt lat="50.15141" lon="1.68745">
        <ele>6.1</ele>
        <time>2022-04-22T13:37:42Z</time>
      </trkpt>
      <trkpt lat="50.15141" lon="1.68744">
        <ele>6.1</ele>
        <time>2022-04-22T13:37:43Z</time>
      </trkpt>
      <trkpt lat="50.15142" lon="1.68744">
        <ele>6.1</ele>
        <time>2022-04-22T13:37:44Z</time>
      </trkpt>
      <trkpt lat="50.15142" lon="1.68744">
        <ele>6.1</ele>
        <time>2022-04-22T13:37:45Z</time>
      </trkpt>
      <trkpt lat="50.15144" lon="1.68745">
        <ele>6.1</ele>
        <time>2022-04-22T13:37:46Z</time>
      </trkpt>
      <trkpt lat="50.15145" lon="1.68745">
        <ele>6.1</ele>
        <time>2022-04-22T13:37:47Z</time>
      </trkpt>
      <trkpt lat="50.15146" lon="1.68746">
        <ele>6.1</ele>
        <time>2022-04-22T13:37:48Z</time>
      </trkpt>
      <trkpt lat="50.15147" lon="1.68746">
        <ele>6.1</ele>
        <time>2022-04-22T13:37:49Z</time>
      </trkpt>
      <trkpt lat="50.15148" lon="1.68747">
        <ele>6.1</ele>
        <time>2022-04-22T13:37:50Z</time>
      </trkpt>
      <trkpt lat="50.1515" lon="1.68748">
        <ele>6</ele>
        <time>2022-04-22T13:37:52Z</time>
      </trkpt>
      <trkpt lat="50.1515" lon="1.68749">
        <ele>6</ele>
        <time>2022-04-22T13:37:53Z</time>
      </trkpt>
      <trkpt lat="50.1515" lon="1.68751">
        <ele>6</ele>
        <time>2022-04-22T13:37:54Z</time>
      </trkpt>
      <trkpt lat="50.15151" lon="1.68752">
        <ele>6</ele>
        <time>2022-04-22T13:37:55Z</time>
      </trkpt>
      <trkpt lat="50.15153" lon="1.68754">
        <ele>6</ele>
        <time>2022-04-22T13:37:56Z</time>
      </trkpt>
      <trkpt lat="50.15153" lon="1.68754">
        <ele>6</ele>
        <time>2022-04-22T13:37:57Z</time>
      </trkpt>
      <trkpt lat="50.15154" lon="1.68755">
        <ele>6</ele>
        <time>2022-04-22T13:37:58Z</time>
      </trkpt>
      <trkpt lat="50.15155" lon="1.68756">
        <ele>6</ele>
        <time>2022-04-22T13:37:59Z</time>
      </trkpt>
      <trkpt lat="50.15156" lon="1.68758">
        <ele>6</ele>
        <time>2022-04-22T13:38:00Z</time>
      </trkpt>
      <trkpt lat="50.15158" lon="1.6876">
        <ele>6</ele>
        <time>2022-04-22T13:38:02Z</time>
      </trkpt>
      <trkpt lat="50.15159" lon="1.68761">
        <ele>6</ele>
        <time>2022-04-22T13:38:03Z</time>
      </trkpt>
      <trkpt lat="50.15158" lon="1.68762">
        <ele>6</ele>
        <time>2022-04-22T13:38:04Z</time>
      </trkpt>
      <trkpt lat="50.15158" lon="1.68764">
        <ele>6</ele>
        <time>2022-04-22T13:38:05Z</time>
      </trkpt>
      <trkpt lat="50.15159" lon="1.68765">
        <ele>6</ele>
        <time>2022-04-22T13:38:06Z</time>
      </trkpt>
      <trkpt lat="50.15159" lon="1.68766">
        <ele>6</ele>
        <time>2022-04-22T13:38:07Z</time>
      </trkpt>
      <trkpt lat="50.1516" lon="1.68768">
        <ele>6</ele>
        <time>2022-04-22T13:38:08Z</time>
      </trkpt>
      <trkpt lat="50.15161" lon="1.68769">
        <ele>6</ele>
        <time>2022-04-22T13:38:09Z</time>
      </trkpt>
      <trkpt lat="50.15162" lon="1.68771">
        <ele>6</ele>
        <time>2022-04-22T13:38:10Z</time>
      </trkpt>
      <trkpt lat="50.15162" lon="1.68773">
        <ele>6</ele>
        <time>2022-04-22T13:38:11Z</time>
      </trkpt>
      <trkpt lat="50.15163" lon="1.68775">
        <ele>6</ele>
        <time>2022-04-22T13:38:12Z</time>
      </trkpt>
      <trkpt lat="50.15164" lon="1.68777">
        <ele>6</ele>
        <time>2022-04-22T13:38:13Z</time>
      </trkpt>
      <trkpt lat="50.15166" lon="1.68781">
        <ele>6.1</ele>
        <time>2022-04-22T13:38:15Z</time>
      </trkpt>
      <trkpt lat="50.15167" lon="1.68782">
        <ele>6.1</ele>
        <time>2022-04-22T13:38:16Z</time>
      </trkpt>
      <trkpt lat="50.15168" lon="1.68784">
        <ele>6.1</ele>
        <time>2022-04-22T13:38:17Z</time>
      </trkpt>
      <trkpt lat="50.15169" lon="1.68785">
        <ele>6.1</ele>
        <time>2022-04-22T13:38:18Z</time>
      </trkpt>
      <trkpt lat="50.15171" lon="1.68787">
        <ele>6.1</ele>
        <time>2022-04-22T13:38:19Z</time>
      </trkpt>
      <trkpt lat="50.15172" lon="1.68787">
        <ele>6.1</ele>
        <time>2022-04-22T13:38:20Z</time>
      </trkpt>
      <trkpt lat="50.15173" lon="1.68788">
        <ele>6.1</ele>
        <time>2022-04-22T13:38:21Z</time>
      </trkpt>
      <trkpt lat="50.15175" lon="1.68789">
        <ele>6.1</ele>
        <time>2022-04-22T13:38:22Z</time>
      </trkpt>
      <trkpt lat="50.15177" lon="1.6879">
        <ele>6.1</ele>
        <time>2022-04-22T13:38:23Z</time>
      </trkpt>
      <trkpt lat="50.15178" lon="1.6879">
        <ele>6.1</ele>
        <time>2022-04-22T13:38:25Z</time>
      </trkpt>
      <trkpt lat="50.15178" lon="1.6879">
        <ele>6.1</ele>
        <time>2022-04-22T13:38:26Z</time>
      </trkpt>
      <trkpt lat="50.15181" lon="1.68791">
        <ele>6.1</ele>
        <time>2022-04-22T13:38:27Z</time>
      </trkpt>
      <trkpt lat="50.15181" lon="1.68791">
        <ele>6.1</ele>
        <time>2022-04-22T13:38:28Z</time>
      </trkpt>
      <trkpt lat="50.15182" lon="1.68791">
        <ele>6.1</ele>
        <time>2022-04-22T13:38:29Z</time>
      </trkpt>
      <trkpt lat="50.15183" lon="1.68791">
        <ele>6</ele>
        <time>2022-04-22T13:38:30Z</time>
      </trkpt>
      <trkpt lat="50.15185" lon="1.68791">
        <ele>6</ele>
        <time>2022-04-22T13:38:31Z</time>
      </trkpt>
      <trkpt lat="50.15187" lon="1.68791">
        <ele>6</ele>
        <time>2022-04-22T13:38:32Z</time>
      </trkpt>
      <trkpt lat="50.15188" lon="1.68791">
        <ele>6</ele>
        <time>2022-04-22T13:38:33Z</time>
      </trkpt>
      <trkpt lat="50.15188" lon="1.68791">
        <ele>6</ele>
        <time>2022-04-22T13:38:34Z</time>
      </trkpt>
      <trkpt lat="50.1519" lon="1.68791">
        <ele>6</ele>
        <time>2022-04-22T13:38:35Z</time>
      </trkpt>
      <trkpt lat="50.15191" lon="1.68791">
        <ele>6</ele>
        <time>2022-04-22T13:38:37Z</time>
      </trkpt>
      <trkpt lat="50.15192" lon="1.68791">
        <ele>6</ele>
        <time>2022-04-22T13:38:38Z</time>
      </trkpt>
      <trkpt lat="50.15193" lon="1.6879">
        <ele>6</ele>
        <time>2022-04-22T13:38:39Z</time>
      </trkpt>
      <trkpt lat="50.15195" lon="1.6879">
        <ele>6</ele>
        <time>2022-04-22T13:38:40Z</time>
      </trkpt>
      <trkpt lat="50.15196" lon="1.6879">
        <ele>6</ele>
        <time>2022-04-22T13:38:41Z</time>
      </trkpt>
      <trkpt lat="50.15197" lon="1.68789">
        <ele>6</ele>
        <time>2022-04-22T13:38:43Z</time>
      </trkpt>
      <trkpt lat="50.15198" lon="1.68789">
        <ele>6</ele>
        <time>2022-04-22T13:38:44Z</time>
      </trkpt>
      <trkpt lat="50.15199" lon="1.68789">
        <ele>6</ele>
        <time>2022-04-22T13:38:45Z</time>
      </trkpt>
      <trkpt lat="50.152" lon="1.68788">
        <ele>6</ele>
        <time>2022-04-22T13:38:46Z</time>
      </trkpt>
      <trkpt lat="50.15203" lon="1.68788">
        <ele>6</ele>
        <time>2022-04-22T13:38:47Z</time>
      </trkpt>
      <trkpt lat="50.15203" lon="1.68788">
        <ele>6</ele>
        <time>2022-04-22T13:38:48Z</time>
      </trkpt>
      <trkpt lat="50.15204" lon="1.68788">
        <ele>6</ele>
        <time>2022-04-22T13:38:49Z</time>
      </trkpt>
      <trkpt lat="50.15205" lon="1.68787">
        <ele>6</ele>
        <time>2022-04-22T13:38:50Z</time>
      </trkpt>
      <trkpt lat="50.15206" lon="1.68787">
        <ele>6</ele>
        <time>2022-04-22T13:38:51Z</time>
      </trkpt>
      <trkpt lat="50.15207" lon="1.68788">
        <ele>6</ele>
        <time>2022-04-22T13:38:52Z</time>
      </trkpt>
      <trkpt lat="50.15209" lon="1.68787">
        <ele>6</ele>
        <time>2022-04-22T13:38:54Z</time>
      </trkpt>
      <trkpt lat="50.1521" lon="1.68787">
        <ele>6</ele>
        <time>2022-04-22T13:38:55Z</time>
      </trkpt>
      <trkpt lat="50.15211" lon="1.68787">
        <ele>6</ele>
        <time>2022-04-22T13:38:56Z</time>
      </trkpt>
      <trkpt lat="50.15212" lon="1.68787">
        <ele>6</ele>
        <time>2022-04-22T13:38:57Z</time>
      </trkpt>
      <trkpt lat="50.15214" lon="1.68787">
        <ele>6</ele>
        <time>2022-04-22T13:38:58Z</time>
      </trkpt>
      <trkpt lat="50.15216" lon="1.68787">
        <ele>6</ele>
        <time>2022-04-22T13:38:59Z</time>
      </trkpt>
      <trkpt lat="50.15217" lon="1.68787">
        <ele>6</ele>
        <time>2022-04-22T13:39:00Z</time>
      </trkpt>
      <trkpt lat="50.15218" lon="1.68787">
        <ele>6</ele>
        <time>2022-04-22T13:39:01Z</time>
      </trkpt>
      <trkpt lat="50.1522" lon="1.68786">
        <ele>6</ele>
        <time>2022-04-22T13:39:02Z</time>
      </trkpt>
      <trkpt lat="50.15221" lon="1.68786">
        <ele>6</ele>
        <time>2022-04-22T13:39:03Z</time>
      </trkpt>
      <trkpt lat="50.15222" lon="1.68786">
        <ele>6</ele>
        <time>2022-04-22T13:39:04Z</time>
      </trkpt>
      <trkpt lat="50.15223" lon="1.68786">
        <ele>6.1</ele>
        <time>2022-04-22T13:39:06Z</time>
      </trkpt>
      <trkpt lat="50.15226" lon="1.68786">
        <ele>6.1</ele>
        <time>2022-04-22T13:39:08Z</time>
      </trkpt>
      <trkpt lat="50.15228" lon="1.68786">
        <ele>6.1</ele>
        <time>2022-04-22T13:39:09Z</time>
      </trkpt>
      <trkpt lat="50.15228" lon="1.68785">
        <ele>6.1</ele>
        <time>2022-04-22T13:39:10Z</time>
      </trkpt>
      <trkpt lat="50.15229" lon="1.68785">
        <ele>6.1</ele>
        <time>2022-04-22T13:39:11Z</time>
      </trkpt>
      <trkpt lat="50.15231" lon="1.68784">
        <ele>6.1</ele>
        <time>2022-04-22T13:39:12Z</time>
      </trkpt>
      <trkpt lat="50.15232" lon="1.68784">
        <ele>6.1</ele>
        <time>2022-04-22T13:39:13Z</time>
      </trkpt>
      <trkpt lat="50.15234" lon="1.68784">
        <ele>6.1</ele>
        <time>2022-04-22T13:39:15Z</time>
      </trkpt>
      <trkpt lat="50.15235" lon="1.68784">
        <ele>6.1</ele>
        <time>2022-04-22T13:39:16Z</time>
      </trkpt>
      <trkpt lat="50.15237" lon="1.68783">
        <ele>6.1</ele>
        <time>2022-04-22T13:39:17Z</time>
      </trkpt>
      <trkpt lat="50.15237" lon="1.68782">
        <ele>6.1</ele>
        <time>2022-04-22T13:39:18Z</time>
      </trkpt>
      <trkpt lat="50.15238" lon="1.68782">
        <ele>6.1</ele>
        <time>2022-04-22T13:39:19Z</time>
      </trkpt>
      <trkpt lat="50.1524" lon="1.68781">
        <ele>6.1</ele>
        <time>2022-04-22T13:39:20Z</time>
      </trkpt>
      <trkpt lat="50.15242" lon="1.68781">
        <ele>6.1</ele>
        <time>2022-04-22T13:39:22Z</time>
      </trkpt>
      <trkpt lat="50.15242" lon="1.6878">
        <ele>6.1</ele>
        <time>2022-04-22T13:39:23Z</time>
      </trkpt>
      <trkpt lat="50.15243" lon="1.6878">
        <ele>6.1</ele>
        <time>2022-04-22T13:39:24Z</time>
      </trkpt>
      <trkpt lat="50.15244" lon="1.6878">
        <ele>6.1</ele>
        <time>2022-04-22T13:39:25Z</time>
      </trkpt>
      <trkpt lat="50.15246" lon="1.6878">
        <ele>6.1</ele>
        <time>2022-04-22T13:39:26Z</time>
      </trkpt>
      <trkpt lat="50.15247" lon="1.68779">
        <ele>6.1</ele>
        <time>2022-04-22T13:39:28Z</time>
      </trkpt>
      <trkpt lat="50.1525" lon="1.68779">
        <ele>6.1</ele>
        <time>2022-04-22T13:39:29Z</time>
      </trkpt>
      <trkpt lat="50.1525" lon="1.68778">
        <ele>6.1</ele>
        <time>2022-04-22T13:39:30Z</time>
      </trkpt>
      <trkpt lat="50.15251" lon="1.68778">
        <ele>6.1</ele>
        <time>2022-04-22T13:39:31Z</time>
      </trkpt>
      <trkpt lat="50.15253" lon="1.68778">
        <ele>6.1</ele>
        <time>2022-04-22T13:39:32Z</time>
      </trkpt>
      <trkpt lat="50.15254" lon="1.68777">
        <ele>6.1</ele>
        <time>2022-04-22T13:39:33Z</time>
      </trkpt>
      <trkpt lat="50.15255" lon="1.68777">
        <ele>6.1</ele>
        <time>2022-04-22T13:39:34Z</time>
      </trkpt>
      <trkpt lat="50.15256" lon="1.68777">
        <ele>6.1</ele>
        <time>2022-04-22T13:39:35Z</time>
      </trkpt>
      <trkpt lat="50.15257" lon="1.68776">
        <ele>6.1</ele>
        <time>2022-04-22T13:39:36Z</time>
      </trkpt>
      <trkpt lat="50.1526" lon="1.68775">
        <ele>6.1</ele>
        <time>2022-04-22T13:39:37Z</time>
      </trkpt>
      <trkpt lat="50.15261" lon="1.68775">
        <ele>6.1</ele>
        <time>2022-04-22T13:39:39Z</time>
      </trkpt>
      <trkpt lat="50.15262" lon="1.68774">
        <ele>6.1</ele>
        <time>2022-04-22T13:39:40Z</time>
      </trkpt>
      <trkpt lat="50.15263" lon="1.68774">
        <ele>6.1</ele>
        <time>2022-04-22T13:39:41Z</time>
      </trkpt>
      <trkpt lat="50.15263" lon="1.68773">
        <ele>6.1</ele>
        <time>2022-04-22T13:39:42Z</time>
      </trkpt>
      <trkpt lat="50.15266" lon="1.68772">
        <ele>6</ele>
        <time>2022-04-22T13:39:43Z</time>
      </trkpt>
      <trkpt lat="50.15266" lon="1.68771">
        <ele>6</ele>
        <time>2022-04-22T13:39:44Z</time>
      </trkpt>
      <trkpt lat="50.15267" lon="1.68771">
        <ele>6</ele>
        <time>2022-04-22T13:39:45Z</time>
      </trkpt>
      <trkpt lat="50.15268" lon="1.6877">
        <ele>6</ele>
        <time>2022-04-22T13:39:46Z</time>
      </trkpt>
      <trkpt lat="50.1527" lon="1.68769">
        <ele>6</ele>
        <time>2022-04-22T13:39:48Z</time>
      </trkpt>
      <trkpt lat="50.1527" lon="1.68768">
        <ele>6</ele>
        <time>2022-04-22T13:39:49Z</time>
      </trkpt>
      <trkpt lat="50.15271" lon="1.68767">
        <ele>6</ele>
        <time>2022-04-22T13:39:50Z</time>
      </trkpt>
      <trkpt lat="50.15272" lon="1.68766">
        <ele>6</ele>
        <time>2022-04-22T13:39:51Z</time>
      </trkpt>
      <trkpt lat="50.15273" lon="1.68765">
        <ele>6</ele>
        <time>2022-04-22T13:39:52Z</time>
      </trkpt>
      <trkpt lat="50.15275" lon="1.68764">
        <ele>6</ele>
        <time>2022-04-22T13:39:53Z</time>
      </trkpt>
      <trkpt lat="50.15276" lon="1.68763">
        <ele>5.9</ele>
        <time>2022-04-22T13:39:54Z</time>
      </trkpt>
      <trkpt lat="50.15277" lon="1.68762">
        <ele>5.9</ele>
        <time>2022-04-22T13:39:55Z</time>
      </trkpt>
      <trkpt lat="50.15278" lon="1.68761">
        <ele>5.9</ele>
        <time>2022-04-22T13:39:56Z</time>
      </trkpt>
      <trkpt lat="50.15279" lon="1.6876">
        <ele>5.9</ele>
        <time>2022-04-22T13:39:57Z</time>
      </trkpt>
      <trkpt lat="50.1528" lon="1.68759">
        <ele>5.9</ele>
        <time>2022-04-22T13:39:58Z</time>
      </trkpt>
      <trkpt lat="50.15282" lon="1.68758">
        <ele>5.8</ele>
        <time>2022-04-22T13:40:00Z</time>
      </trkpt>
      <trkpt lat="50.15283" lon="1.68757">
        <ele>5.8</ele>
        <time>2022-04-22T13:40:01Z</time>
      </trkpt>
      <trkpt lat="50.15284" lon="1.68756">
        <ele>5.8</ele>
        <time>2022-04-22T13:40:02Z</time>
      </trkpt>
      <trkpt lat="50.15285" lon="1.68754">
        <ele>5.8</ele>
        <time>2022-04-22T13:40:03Z</time>
      </trkpt>
      <trkpt lat="50.15286" lon="1.68753">
        <ele>5.8</ele>
        <time>2022-04-22T13:40:04Z</time>
      </trkpt>
      <trkpt lat="50.15287" lon="1.68752">
        <ele>5.8</ele>
        <time>2022-04-22T13:40:05Z</time>
      </trkpt>
      <trkpt lat="50.15288" lon="1.68751">
        <ele>5.8</ele>
        <time>2022-04-22T13:40:06Z</time>
      </trkpt>
      <trkpt lat="50.15289" lon="1.6875">
        <ele>5.8</ele>
        <time>2022-04-22T13:40:07Z</time>
      </trkpt>
      <trkpt lat="50.15291" lon="1.68749">
        <ele>5.8</ele>
        <time>2022-04-22T13:40:08Z</time>
      </trkpt>
      <trkpt lat="50.15291" lon="1.68748">
        <ele>5.7</ele>
        <time>2022-04-22T13:40:09Z</time>
      </trkpt>
      <trkpt lat="50.15292" lon="1.68747">
        <ele>5.7</ele>
        <time>2022-04-22T13:40:10Z</time>
      </trkpt>
      <trkpt lat="50.15293" lon="1.68745">
        <ele>5.7</ele>
        <time>2022-04-22T13:40:11Z</time>
      </trkpt>
      <trkpt lat="50.15294" lon="1.68742">
        <ele>5.7</ele>
        <time>2022-04-22T13:40:12Z</time>
      </trkpt>
      <trkpt lat="50.15295" lon="1.68741">
        <ele>5.7</ele>
        <time>2022-04-22T13:40:13Z</time>
      </trkpt>
      <trkpt lat="50.15295" lon="1.68739">
        <ele>5.8</ele>
        <time>2022-04-22T13:40:15Z</time>
      </trkpt>
      <trkpt lat="50.15296" lon="1.68738">
        <ele>5.8</ele>
        <time>2022-04-22T13:40:16Z</time>
      </trkpt>
      <trkpt lat="50.15297" lon="1.68736">
        <ele>5.8</ele>
        <time>2022-04-22T13:40:17Z</time>
      </trkpt>
      <trkpt lat="50.15298" lon="1.68734">
        <ele>5.8</ele>
        <time>2022-04-22T13:40:18Z</time>
      </trkpt>
      <trkpt lat="50.15298" lon="1.68733">
        <ele>5.8</ele>
        <time>2022-04-22T13:40:19Z</time>
      </trkpt>
      <trkpt lat="50.15298" lon="1.68732">
        <ele>5.8</ele>
        <time>2022-04-22T13:40:20Z</time>
      </trkpt>
      <trkpt lat="50.15299" lon="1.68731">
        <ele>5.8</ele>
        <time>2022-04-22T13:40:21Z</time>
      </trkpt>
      <trkpt lat="50.15299" lon="1.68729">
        <ele>5.8</ele>
        <time>2022-04-22T13:40:22Z</time>
      </trkpt>
      <trkpt lat="50.15299" lon="1.68727">
        <ele>5.8</ele>
        <time>2022-04-22T13:40:23Z</time>
      </trkpt>
      <trkpt lat="50.153" lon="1.68727">
        <ele>5.8</ele>
        <time>2022-04-22T13:40:24Z</time>
      </trkpt>
      <trkpt lat="50.153" lon="1.68726">
        <ele>5.8</ele>
        <time>2022-04-22T13:40:25Z</time>
      </trkpt>
      <trkpt lat="50.153" lon="1.68724">
        <ele>5.8</ele>
        <time>2022-04-22T13:40:26Z</time>
      </trkpt>
      <trkpt lat="50.15301" lon="1.68722">
        <ele>5.8</ele>
        <time>2022-04-22T13:40:28Z</time>
      </trkpt>
      <trkpt lat="50.15302" lon="1.68721">
        <ele>5.8</ele>
        <time>2022-04-22T13:40:29Z</time>
      </trkpt>
      <trkpt lat="50.15302" lon="1.68719">
        <ele>5.8</ele>
        <time>2022-04-22T13:40:30Z</time>
      </trkpt>
      <trkpt lat="50.15303" lon="1.68718">
        <ele>5.8</ele>
        <time>2022-04-22T13:40:31Z</time>
      </trkpt>
      <trkpt lat="50.15303" lon="1.68716">
        <ele>5.8</ele>
        <time>2022-04-22T13:40:32Z</time>
      </trkpt>
      <trkpt lat="50.15304" lon="1.68714">
        <ele>5.8</ele>
        <time>2022-04-22T13:40:33Z</time>
      </trkpt>
      <trkpt lat="50.15304" lon="1.68713">
        <ele>5.9</ele>
        <time>2022-04-22T13:40:34Z</time>
      </trkpt>
      <trkpt lat="50.15306" lon="1.68711">
        <ele>5.9</ele>
        <time>2022-04-22T13:40:35Z</time>
      </trkpt>
      <trkpt lat="50.15307" lon="1.6871">
        <ele>5.9</ele>
        <time>2022-04-22T13:40:37Z</time>
      </trkpt>
      <trkpt lat="50.15307" lon="1.68709">
        <ele>5.9</ele>
        <time>2022-04-22T13:40:38Z</time>
      </trkpt>
      <trkpt lat="50.15309" lon="1.68709">
        <ele>5.9</ele>
        <time>2022-04-22T13:40:39Z</time>
      </trkpt>
      <trkpt lat="50.1531" lon="1.68708">
        <ele>5.9</ele>
        <time>2022-04-22T13:40:40Z</time>
      </trkpt>
      <trkpt lat="50.15311" lon="1.68707">
        <ele>5.9</ele>
        <time>2022-04-22T13:40:41Z</time>
      </trkpt>
      <trkpt lat="50.15311" lon="1.68706">
        <ele>5.9</ele>
        <time>2022-04-22T13:40:42Z</time>
      </trkpt>
      <trkpt lat="50.15313" lon="1.68704">
        <ele>5.9</ele>
        <time>2022-04-22T13:40:43Z</time>
      </trkpt>
      <trkpt lat="50.15315" lon="1.68703">
        <ele>5.9</ele>
        <time>2022-04-22T13:40:44Z</time>
      </trkpt>
      <trkpt lat="50.15316" lon="1.68702">
        <ele>6</ele>
        <time>2022-04-22T13:40:45Z</time>
      </trkpt>
      <trkpt lat="50.15317" lon="1.68701">
        <ele>6</ele>
        <time>2022-04-22T13:40:46Z</time>
      </trkpt>
      <trkpt lat="50.15319" lon="1.687">
        <ele>6</ele>
        <time>2022-04-22T13:40:48Z</time>
      </trkpt>
      <trkpt lat="50.1532" lon="1.68699">
        <ele>6</ele>
        <time>2022-04-22T13:40:49Z</time>
      </trkpt>
      <trkpt lat="50.15321" lon="1.68697">
        <ele>6</ele>
        <time>2022-04-22T13:40:50Z</time>
      </trkpt>
      <trkpt lat="50.15322" lon="1.68696">
        <ele>6</ele>
        <time>2022-04-22T13:40:51Z</time>
      </trkpt>
      <trkpt lat="50.15322" lon="1.68696">
        <ele>6</ele>
        <time>2022-04-22T13:40:52Z</time>
      </trkpt>
      <trkpt lat="50.15324" lon="1.68693">
        <ele>6.1</ele>
        <time>2022-04-22T13:40:53Z</time>
      </trkpt>
      <trkpt lat="50.15325" lon="1.68692">
        <ele>6.1</ele>
        <time>2022-04-22T13:40:54Z</time>
      </trkpt>
      <trkpt lat="50.15326" lon="1.68692">
        <ele>6.1</ele>
        <time>2022-04-22T13:40:55Z</time>
      </trkpt>
      <trkpt lat="50.15328" lon="1.68691">
        <ele>6.1</ele>
        <time>2022-04-22T13:40:56Z</time>
      </trkpt>
      <trkpt lat="50.15329" lon="1.6869">
        <ele>6.1</ele>
        <time>2022-04-22T13:40:57Z</time>
      </trkpt>
      <trkpt lat="50.1533" lon="1.68689">
        <ele>6.1</ele>
        <time>2022-04-22T13:40:59Z</time>
      </trkpt>
      <trkpt lat="50.15332" lon="1.68687">
        <ele>6.2</ele>
        <time>2022-04-22T13:41:00Z</time>
      </trkpt>
      <trkpt lat="50.15333" lon="1.68686">
        <ele>6.2</ele>
        <time>2022-04-22T13:41:01Z</time>
      </trkpt>
      <trkpt lat="50.15333" lon="1.68684">
        <ele>6.2</ele>
        <time>2022-04-22T13:41:02Z</time>
      </trkpt>
      <trkpt lat="50.15335" lon="1.68683">
        <ele>6.2</ele>
        <time>2022-04-22T13:41:03Z</time>
      </trkpt>
      <trkpt lat="50.15336" lon="1.68681">
        <ele>6.2</ele>
        <time>2022-04-22T13:41:05Z</time>
      </trkpt>
      <trkpt lat="50.15337" lon="1.6868">
        <ele>6.2</ele>
        <time>2022-04-22T13:41:06Z</time>
      </trkpt>
      <trkpt lat="50.15338" lon="1.68679">
        <ele>6.2</ele>
        <time>2022-04-22T13:41:07Z</time>
      </trkpt>
      <trkpt lat="50.1534" lon="1.68677">
        <ele>6.2</ele>
        <time>2022-04-22T13:41:08Z</time>
      </trkpt>
      <trkpt lat="50.1534" lon="1.68676">
        <ele>6.2</ele>
        <time>2022-04-22T13:41:09Z</time>
      </trkpt>
      <trkpt lat="50.15341" lon="1.68675">
        <ele>6.2</ele>
        <time>2022-04-22T13:41:10Z</time>
      </trkpt>
      <trkpt lat="50.15342" lon="1.68673">
        <ele>6.2</ele>
        <time>2022-04-22T13:41:11Z</time>
      </trkpt>
      <trkpt lat="50.15344" lon="1.6867">
        <ele>6.2</ele>
        <time>2022-04-22T13:41:12Z</time>
      </trkpt>
      <trkpt lat="50.15344" lon="1.68669">
        <ele>6.2</ele>
        <time>2022-04-22T13:41:13Z</time>
      </trkpt>
      <trkpt lat="50.15345" lon="1.68667">
        <ele>6.1</ele>
        <time>2022-04-22T13:41:14Z</time>
      </trkpt>
      <trkpt lat="50.15346" lon="1.68666">
        <ele>6.1</ele>
        <time>2022-04-22T13:41:15Z</time>
      </trkpt>
      <trkpt lat="50.15347" lon="1.68665">
        <ele>6.1</ele>
        <time>2022-04-22T13:41:16Z</time>
      </trkpt>
      <trkpt lat="50.15347" lon="1.68663">
        <ele>6.1</ele>
        <time>2022-04-22T13:41:17Z</time>
      </trkpt>
      <trkpt lat="50.15349" lon="1.68661">
        <ele>6.1</ele>
        <time>2022-04-22T13:41:18Z</time>
      </trkpt>
      <trkpt lat="50.15349" lon="1.6866">
        <ele>6.1</ele>
        <time>2022-04-22T13:41:20Z</time>
      </trkpt>
      <trkpt lat="50.1535" lon="1.68658">
        <ele>6.1</ele>
        <time>2022-04-22T13:41:21Z</time>
      </trkpt>
      <trkpt lat="50.15351" lon="1.68657">
        <ele>6.1</ele>
        <time>2022-04-22T13:41:22Z</time>
      </trkpt>
      <trkpt lat="50.15352" lon="1.68656">
        <ele>6.1</ele>
        <time>2022-04-22T13:41:23Z</time>
      </trkpt>
      <trkpt lat="50.15354" lon="1.68654">
        <ele>6.1</ele>
        <time>2022-04-22T13:41:24Z</time>
      </trkpt>
      <trkpt lat="50.15356" lon="1.68652">
        <ele>6.1</ele>
        <time>2022-04-22T13:41:25Z</time>
      </trkpt>
      <trkpt lat="50.15356" lon="1.68652">
        <ele>6.1</ele>
        <time>2022-04-22T13:41:26Z</time>
      </trkpt>
      <trkpt lat="50.15357" lon="1.68651">
        <ele>6.1</ele>
        <time>2022-04-22T13:41:27Z</time>
      </trkpt>
      <trkpt lat="50.1536" lon="1.68649">
        <ele>6.1</ele>
        <time>2022-04-22T13:41:28Z</time>
      </trkpt>
      <trkpt lat="50.15361" lon="1.68648">
        <ele>6.1</ele>
        <time>2022-04-22T13:41:29Z</time>
      </trkpt>
      <trkpt lat="50.15362" lon="1.68646">
        <ele>6.1</ele>
        <time>2022-04-22T13:41:30Z</time>
      </trkpt>
      <trkpt lat="50.15363" lon="1.68646">
        <ele>6.1</ele>
        <time>2022-04-22T13:41:31Z</time>
      </trkpt>
      <trkpt lat="50.15364" lon="1.68645">
        <ele>6.1</ele>
        <time>2022-04-22T13:41:32Z</time>
      </trkpt>
      <trkpt lat="50.15366" lon="1.68642">
        <ele>6.1</ele>
        <time>2022-04-22T13:41:33Z</time>
      </trkpt>
      <trkpt lat="50.15366" lon="1.68641">
        <ele>6.1</ele>
        <time>2022-04-22T13:41:35Z</time>
      </trkpt>
      <trkpt lat="50.15368" lon="1.6864">
        <ele>6.1</ele>
        <time>2022-04-22T13:41:36Z</time>
      </trkpt>
      <trkpt lat="50.15369" lon="1.68638">
        <ele>6.1</ele>
        <time>2022-04-22T13:41:37Z</time>
      </trkpt>
      <trkpt lat="50.1537" lon="1.68637">
        <ele>6.1</ele>
        <time>2022-04-22T13:41:38Z</time>
      </trkpt>
      <trkpt lat="50.15371" lon="1.68634">
        <ele>6.1</ele>
        <time>2022-04-22T13:41:39Z</time>
      </trkpt>
      <trkpt lat="50.15372" lon="1.68633">
        <ele>6</ele>
        <time>2022-04-22T13:41:40Z</time>
      </trkpt>
      <trkpt lat="50.15373" lon="1.68631">
        <ele>6</ele>
        <time>2022-04-22T13:41:41Z</time>
      </trkpt>
      <trkpt lat="50.15374" lon="1.68628">
        <ele>6</ele>
        <time>2022-04-22T13:41:43Z</time>
      </trkpt>
      <trkpt lat="50.15375" lon="1.68627">
        <ele>6</ele>
        <time>2022-04-22T13:41:44Z</time>
      </trkpt>
      <trkpt lat="50.15376" lon="1.68626">
        <ele>6</ele>
        <time>2022-04-22T13:41:45Z</time>
      </trkpt>
      <trkpt lat="50.15376" lon="1.68625">
        <ele>6</ele>
        <time>2022-04-22T13:41:46Z</time>
      </trkpt>
      <trkpt lat="50.15377" lon="1.68624">
        <ele>6</ele>
        <time>2022-04-22T13:41:47Z</time>
      </trkpt>
      <trkpt lat="50.15378" lon="1.68622">
        <ele>6</ele>
        <time>2022-04-22T13:41:48Z</time>
      </trkpt>
      <trkpt lat="50.15379" lon="1.6862">
        <ele>6</ele>
        <time>2022-04-22T13:41:49Z</time>
      </trkpt>
      <trkpt lat="50.1538" lon="1.68618">
        <ele>6</ele>
        <time>2022-04-22T13:41:51Z</time>
      </trkpt>
      <trkpt lat="50.1538" lon="1.68617">
        <ele>6</ele>
        <time>2022-04-22T13:41:52Z</time>
      </trkpt>
      <trkpt lat="50.15381" lon="1.68615">
        <ele>6</ele>
        <time>2022-04-22T13:41:53Z</time>
      </trkpt>
      <trkpt lat="50.15383" lon="1.68613">
        <ele>6</ele>
        <time>2022-04-22T13:41:54Z</time>
      </trkpt>
      <trkpt lat="50.15383" lon="1.68613">
        <ele>6</ele>
        <time>2022-04-22T13:41:55Z</time>
      </trkpt>
      <trkpt lat="50.15384" lon="1.68612">
        <ele>6</ele>
        <time>2022-04-22T13:41:56Z</time>
      </trkpt>
      <trkpt lat="50.15385" lon="1.6861">
        <ele>6</ele>
        <time>2022-04-22T13:41:57Z</time>
      </trkpt>
      <trkpt lat="50.15386" lon="1.68609">
        <ele>6</ele>
        <time>2022-04-22T13:41:58Z</time>
      </trkpt>
      <trkpt lat="50.15387" lon="1.68608">
        <ele>6</ele>
        <time>2022-04-22T13:41:59Z</time>
      </trkpt>
      <trkpt lat="50.15387" lon="1.68607">
        <ele>6</ele>
        <time>2022-04-22T13:42:00Z</time>
      </trkpt>
      <trkpt lat="50.15388" lon="1.68606">
        <ele>6</ele>
        <time>2022-04-22T13:42:01Z</time>
      </trkpt>
      <trkpt lat="50.15389" lon="1.68605">
        <ele>6</ele>
        <time>2022-04-22T13:42:02Z</time>
      </trkpt>
      <trkpt lat="50.15389" lon="1.68603">
        <ele>6</ele>
        <time>2022-04-22T13:42:03Z</time>
      </trkpt>
      <trkpt lat="50.15391" lon="1.68602">
        <ele>6</ele>
        <time>2022-04-22T13:42:04Z</time>
      </trkpt>
      <trkpt lat="50.15393" lon="1.686">
        <ele>6</ele>
        <time>2022-04-22T13:42:05Z</time>
      </trkpt>
      <trkpt lat="50.15393" lon="1.68599">
        <ele>6</ele>
        <time>2022-04-22T13:42:07Z</time>
      </trkpt>
      <trkpt lat="50.15394" lon="1.68599">
        <ele>6</ele>
        <time>2022-04-22T13:42:08Z</time>
      </trkpt>
      <trkpt lat="50.15396" lon="1.68597">
        <ele>6</ele>
        <time>2022-04-22T13:42:09Z</time>
      </trkpt>
      <trkpt lat="50.15397" lon="1.68596">
        <ele>6</ele>
        <time>2022-04-22T13:42:10Z</time>
      </trkpt>
      <trkpt lat="50.15398" lon="1.68595">
        <ele>6</ele>
        <time>2022-04-22T13:42:11Z</time>
      </trkpt>
      <trkpt lat="50.15399" lon="1.68594">
        <ele>6</ele>
        <time>2022-04-22T13:42:12Z</time>
      </trkpt>
      <trkpt lat="50.154" lon="1.68593">
        <ele>6</ele>
        <time>2022-04-22T13:42:13Z</time>
      </trkpt>
      <trkpt lat="50.15401" lon="1.6859">
        <ele>6</ele>
        <time>2022-04-22T13:42:14Z</time>
      </trkpt>
      <trkpt lat="50.15402" lon="1.6859">
        <ele>6</ele>
        <time>2022-04-22T13:42:15Z</time>
      </trkpt>
      <trkpt lat="50.15403" lon="1.68589">
        <ele>6</ele>
        <time>2022-04-22T13:42:16Z</time>
      </trkpt>
      <trkpt lat="50.15403" lon="1.68588">
        <ele>6</ele>
        <time>2022-04-22T13:42:17Z</time>
      </trkpt>
      <trkpt lat="50.15404" lon="1.68587">
        <ele>6</ele>
        <time>2022-04-22T13:42:18Z</time>
      </trkpt>
      <trkpt lat="50.15407" lon="1.68583">
        <ele>6</ele>
        <time>2022-04-22T13:42:21Z</time>
      </trkpt>
      <trkpt lat="50.15408" lon="1.68582">
        <ele>6</ele>
        <time>2022-04-22T13:42:22Z</time>
      </trkpt>
      <trkpt lat="50.1541" lon="1.6858">
        <ele>6</ele>
        <time>2022-04-22T13:42:23Z</time>
      </trkpt>
      <trkpt lat="50.15411" lon="1.68579">
        <ele>6.1</ele>
        <time>2022-04-22T13:42:24Z</time>
      </trkpt>
      <trkpt lat="50.15412" lon="1.68578">
        <ele>6.1</ele>
        <time>2022-04-22T13:42:25Z</time>
      </trkpt>
      <trkpt lat="50.15413" lon="1.68576">
        <ele>6.1</ele>
        <time>2022-04-22T13:42:26Z</time>
      </trkpt>
      <trkpt lat="50.15414" lon="1.68575">
        <ele>6.1</ele>
        <time>2022-04-22T13:42:27Z</time>
      </trkpt>
      <trkpt lat="50.15416" lon="1.68572">
        <ele>6.2</ele>
        <time>2022-04-22T13:42:29Z</time>
      </trkpt>
      <trkpt lat="50.15416" lon="1.68571">
        <ele>6.2</ele>
        <time>2022-04-22T13:42:30Z</time>
      </trkpt>
      <trkpt lat="50.15417" lon="1.6857">
        <ele>6.2</ele>
        <time>2022-04-22T13:42:31Z</time>
      </trkpt>
      <trkpt lat="50.15418" lon="1.68569">
        <ele>6.2</ele>
        <time>2022-04-22T13:42:32Z</time>
      </trkpt>
      <trkpt lat="50.15418" lon="1.68567">
        <ele>6.2</ele>
        <time>2022-04-22T13:42:33Z</time>
      </trkpt>
      <trkpt lat="50.15419" lon="1.68565">
        <ele>6.3</ele>
        <time>2022-04-22T13:42:34Z</time>
      </trkpt>
      <trkpt lat="50.15419" lon="1.68563">
        <ele>6.3</ele>
        <time>2022-04-22T13:42:35Z</time>
      </trkpt>
      <trkpt lat="50.15419" lon="1.68562">
        <ele>6.3</ele>
        <time>2022-04-22T13:42:37Z</time>
      </trkpt>
      <trkpt lat="50.15419" lon="1.6856">
        <ele>6.3</ele>
        <time>2022-04-22T13:42:38Z</time>
      </trkpt>
      <trkpt lat="50.1542" lon="1.68558">
        <ele>6.4</ele>
        <time>2022-04-22T13:42:39Z</time>
      </trkpt>
      <trkpt lat="50.1542" lon="1.68557">
        <ele>6.4</ele>
        <time>2022-04-22T13:42:40Z</time>
      </trkpt>
      <trkpt lat="50.1542" lon="1.68556">
        <ele>6.4</ele>
        <time>2022-04-22T13:42:41Z</time>
      </trkpt>
      <trkpt lat="50.1542" lon="1.68554">
        <ele>6.4</ele>
        <time>2022-04-22T13:42:43Z</time>
      </trkpt>
      <trkpt lat="50.15421" lon="1.68551">
        <ele>6.4</ele>
        <time>2022-04-22T13:42:44Z</time>
      </trkpt>
      <trkpt lat="50.15421" lon="1.6855">
        <ele>6.5</ele>
        <time>2022-04-22T13:42:45Z</time>
      </trkpt>
      <trkpt lat="50.15421" lon="1.68549">
        <ele>6.5</ele>
        <time>2022-04-22T13:42:46Z</time>
      </trkpt>
      <trkpt lat="50.15422" lon="1.68546">
        <ele>6.5</ele>
        <time>2022-04-22T13:42:47Z</time>
      </trkpt>
      <trkpt lat="50.15423" lon="1.68545">
        <ele>6.5</ele>
        <time>2022-04-22T13:42:48Z</time>
      </trkpt>
      <trkpt lat="50.15423" lon="1.68544">
        <ele>6.5</ele>
        <time>2022-04-22T13:42:49Z</time>
      </trkpt>
      <trkpt lat="50.15424" lon="1.68541">
        <ele>6.6</ele>
        <time>2022-04-22T13:42:50Z</time>
      </trkpt>
      <trkpt lat="50.15425" lon="1.6854">
        <ele>6.6</ele>
        <time>2022-04-22T13:42:52Z</time>
      </trkpt>
      <trkpt lat="50.15426" lon="1.68539">
        <ele>6.6</ele>
        <time>2022-04-22T13:42:53Z</time>
      </trkpt>
      <trkpt lat="50.15427" lon="1.68537">
        <ele>6.6</ele>
        <time>2022-04-22T13:42:54Z</time>
      </trkpt>
      <trkpt lat="50.15427" lon="1.68536">
        <ele>6.6</ele>
        <time>2022-04-22T13:42:55Z</time>
      </trkpt>
      <trkpt lat="50.15427" lon="1.68535">
        <ele>6.6</ele>
        <time>2022-04-22T13:42:56Z</time>
      </trkpt>
      <trkpt lat="50.15428" lon="1.68533">
        <ele>6.6</ele>
        <time>2022-04-22T13:42:57Z</time>
      </trkpt>
      <trkpt lat="50.15429" lon="1.68532">
        <ele>6.6</ele>
        <time>2022-04-22T13:42:58Z</time>
      </trkpt>
      <trkpt lat="50.1543" lon="1.68529">
        <ele>6.6</ele>
        <time>2022-04-22T13:43:00Z</time>
      </trkpt>
      <trkpt lat="50.1543" lon="1.68528">
        <ele>6.7</ele>
        <time>2022-04-22T13:43:01Z</time>
      </trkpt>
      <trkpt lat="50.15431" lon="1.68526">
        <ele>6.7</ele>
        <time>2022-04-22T13:43:02Z</time>
      </trkpt>
      <trkpt lat="50.15432" lon="1.68525">
        <ele>6.7</ele>
        <time>2022-04-22T13:43:03Z</time>
      </trkpt>
      <trkpt lat="50.15433" lon="1.68524">
        <ele>6.7</ele>
        <time>2022-04-22T13:43:04Z</time>
      </trkpt>
      <trkpt lat="50.15434" lon="1.68522">
        <ele>6.7</ele>
        <time>2022-04-22T13:43:05Z</time>
      </trkpt>
      <trkpt lat="50.15435" lon="1.6852">
        <ele>6.7</ele>
        <time>2022-04-22T13:43:07Z</time>
      </trkpt>
      <trkpt lat="50.15435" lon="1.68519">
        <ele>6.7</ele>
        <time>2022-04-22T13:43:08Z</time>
      </trkpt>
      <trkpt lat="50.15436" lon="1.68516">
        <ele>6.7</ele>
        <time>2022-04-22T13:43:09Z</time>
      </trkpt>
      <trkpt lat="50.15437" lon="1.68515">
        <ele>6.7</ele>
        <time>2022-04-22T13:43:10Z</time>
      </trkpt>
      <trkpt lat="50.15438" lon="1.68513">
        <ele>6.7</ele>
        <time>2022-04-22T13:43:11Z</time>
      </trkpt>
      <trkpt lat="50.15439" lon="1.68512">
        <ele>6.7</ele>
        <time>2022-04-22T13:43:12Z</time>
      </trkpt>
      <trkpt lat="50.15441" lon="1.68509">
        <ele>6.7</ele>
        <time>2022-04-22T13:43:13Z</time>
      </trkpt>
      <trkpt lat="50.15442" lon="1.68508">
        <ele>6.7</ele>
        <time>2022-04-22T13:43:14Z</time>
      </trkpt>
      <trkpt lat="50.15443" lon="1.68508">
        <ele>6.7</ele>
        <time>2022-04-22T13:43:15Z</time>
      </trkpt>
      <trkpt lat="50.15444" lon="1.68507">
        <ele>6.7</ele>
        <time>2022-04-22T13:43:16Z</time>
      </trkpt>
      <trkpt lat="50.15446" lon="1.68505">
        <ele>6.7</ele>
        <time>2022-04-22T13:43:18Z</time>
      </trkpt>
      <trkpt lat="50.15448" lon="1.68503">
        <ele>6.7</ele>
        <time>2022-04-22T13:43:19Z</time>
      </trkpt>
      <trkpt lat="50.15449" lon="1.68501">
        <ele>6.7</ele>
        <time>2022-04-22T13:43:21Z</time>
      </trkpt>
      <trkpt lat="50.1545" lon="1.685">
        <ele>6.7</ele>
        <time>2022-04-22T13:43:22Z</time>
      </trkpt>
      <trkpt lat="50.15451" lon="1.68498">
        <ele>6.7</ele>
        <time>2022-04-22T13:43:23Z</time>
      </trkpt>
      <trkpt lat="50.15453" lon="1.68497">
        <ele>6.7</ele>
        <time>2022-04-22T13:43:24Z</time>
      </trkpt>
      <trkpt lat="50.15454" lon="1.68495">
        <ele>6.7</ele>
        <time>2022-04-22T13:43:25Z</time>
      </trkpt>
      <trkpt lat="50.15455" lon="1.68494">
        <ele>6.6</ele>
        <time>2022-04-22T13:43:26Z</time>
      </trkpt>
      <trkpt lat="50.15457" lon="1.68493">
        <ele>6.6</ele>
        <time>2022-04-22T13:43:27Z</time>
      </trkpt>
      <trkpt lat="50.15459" lon="1.6849">
        <ele>6.6</ele>
        <time>2022-04-22T13:43:28Z</time>
      </trkpt>
      <trkpt lat="50.1546" lon="1.6849">
        <ele>6.6</ele>
        <time>2022-04-22T13:43:29Z</time>
      </trkpt>
      <trkpt lat="50.1546" lon="1.68489">
        <ele>6.6</ele>
        <time>2022-04-22T13:43:30Z</time>
      </trkpt>
      <trkpt lat="50.15461" lon="1.68488">
        <ele>6.6</ele>
        <time>2022-04-22T13:43:31Z</time>
      </trkpt>
      <trkpt lat="50.15463" lon="1.68487">
        <ele>6.6</ele>
        <time>2022-04-22T13:43:32Z</time>
      </trkpt>
      <trkpt lat="50.15465" lon="1.68486">
        <ele>6.6</ele>
        <time>2022-04-22T13:43:34Z</time>
      </trkpt>
      <trkpt lat="50.15466" lon="1.68486">
        <ele>6.6</ele>
        <time>2022-04-22T13:43:35Z</time>
      </trkpt>
      <trkpt lat="50.15468" lon="1.68484">
        <ele>6.6</ele>
        <time>2022-04-22T13:43:36Z</time>
      </trkpt>
      <trkpt lat="50.15469" lon="1.68483">
        <ele>6.6</ele>
        <time>2022-04-22T13:43:37Z</time>
      </trkpt>
      <trkpt lat="50.1547" lon="1.68482">
        <ele>6.6</ele>
        <time>2022-04-22T13:43:38Z</time>
      </trkpt>
      <trkpt lat="50.15471" lon="1.6848">
        <ele>6.6</ele>
        <time>2022-04-22T13:43:39Z</time>
      </trkpt>
      <trkpt lat="50.15472" lon="1.68479">
        <ele>6.6</ele>
        <time>2022-04-22T13:43:40Z</time>
      </trkpt>
      <trkpt lat="50.15472" lon="1.68478">
        <ele>6.6</ele>
        <time>2022-04-22T13:43:41Z</time>
      </trkpt>
      <trkpt lat="50.15473" lon="1.68476">
        <ele>6.6</ele>
        <time>2022-04-22T13:43:42Z</time>
      </trkpt>
      <trkpt lat="50.15474" lon="1.68475">
        <ele>6.6</ele>
        <time>2022-04-22T13:43:43Z</time>
      </trkpt>
      <trkpt lat="50.15474" lon="1.68473">
        <ele>6.6</ele>
        <time>2022-04-22T13:43:44Z</time>
      </trkpt>
      <trkpt lat="50.15474" lon="1.68472">
        <ele>6.6</ele>
        <time>2022-04-22T13:43:45Z</time>
      </trkpt>
      <trkpt lat="50.15475" lon="1.6847">
        <ele>6.7</ele>
        <time>2022-04-22T13:43:46Z</time>
      </trkpt>
      <trkpt lat="50.15476" lon="1.68467">
        <ele>6.7</ele>
        <time>2022-04-22T13:43:47Z</time>
      </trkpt>
      <trkpt lat="50.15476" lon="1.68466">
        <ele>6.7</ele>
        <time>2022-04-22T13:43:49Z</time>
      </trkpt>
      <trkpt lat="50.15477" lon="1.68465">
        <ele>6.7</ele>
        <time>2022-04-22T13:43:50Z</time>
      </trkpt>
      <trkpt lat="50.15477" lon="1.68463">
        <ele>6.7</ele>
        <time>2022-04-22T13:43:51Z</time>
      </trkpt>
      <trkpt lat="50.15477" lon="1.68462">
        <ele>6.7</ele>
        <time>2022-04-22T13:43:52Z</time>
      </trkpt>
      <trkpt lat="50.15478" lon="1.6846">
        <ele>6.7</ele>
        <time>2022-04-22T13:43:53Z</time>
      </trkpt>
      <trkpt lat="50.15479" lon="1.68456">
        <ele>6.7</ele>
        <time>2022-04-22T13:43:55Z</time>
      </trkpt>
      <trkpt lat="50.1548" lon="1.68455">
        <ele>6.7</ele>
        <time>2022-04-22T13:43:56Z</time>
      </trkpt>
      <trkpt lat="50.1548" lon="1.68453">
        <ele>6.6</ele>
        <time>2022-04-22T13:43:57Z</time>
      </trkpt>
      <trkpt lat="50.15481" lon="1.68451">
        <ele>6.6</ele>
        <time>2022-04-22T13:43:58Z</time>
      </trkpt>
      <trkpt lat="50.15483" lon="1.68448">
        <ele>6.6</ele>
        <time>2022-04-22T13:43:59Z</time>
      </trkpt>
      <trkpt lat="50.15483" lon="1.68446">
        <ele>6.6</ele>
        <time>2022-04-22T13:44:01Z</time>
      </trkpt>
      <trkpt lat="50.15484" lon="1.68445">
        <ele>6.5</ele>
        <time>2022-04-22T13:44:02Z</time>
      </trkpt>
      <trkpt lat="50.15484" lon="1.68444">
        <ele>6.5</ele>
        <time>2022-04-22T13:44:03Z</time>
      </trkpt>
      <trkpt lat="50.15485" lon="1.68442">
        <ele>6.5</ele>
        <time>2022-04-22T13:44:04Z</time>
      </trkpt>
      <trkpt lat="50.15486" lon="1.68439">
        <ele>6.5</ele>
        <time>2022-04-22T13:44:05Z</time>
      </trkpt>
      <trkpt lat="50.15486" lon="1.68439">
        <ele>6.5</ele>
        <time>2022-04-22T13:44:06Z</time>
      </trkpt>
      <trkpt lat="50.15488" lon="1.68436">
        <ele>6.4</ele>
        <time>2022-04-22T13:44:07Z</time>
      </trkpt>
      <trkpt lat="50.15488" lon="1.68435">
        <ele>6.4</ele>
        <time>2022-04-22T13:44:08Z</time>
      </trkpt>
      <trkpt lat="50.15488" lon="1.68434">
        <ele>6.4</ele>
        <time>2022-04-22T13:44:09Z</time>
      </trkpt>
      <trkpt lat="50.15489" lon="1.68432">
        <ele>6.4</ele>
        <time>2022-04-22T13:44:10Z</time>
      </trkpt>
      <trkpt lat="50.1549" lon="1.68431">
        <ele>6.3</ele>
        <time>2022-04-22T13:44:11Z</time>
      </trkpt>
      <trkpt lat="50.1549" lon="1.6843">
        <ele>6.3</ele>
        <time>2022-04-22T13:44:12Z</time>
      </trkpt>
      <trkpt lat="50.15491" lon="1.68428">
        <ele>6.3</ele>
        <time>2022-04-22T13:44:13Z</time>
      </trkpt>
      <trkpt lat="50.15492" lon="1.68425">
        <ele>6.3</ele>
        <time>2022-04-22T13:44:15Z</time>
      </trkpt>
      <trkpt lat="50.15492" lon="1.68424">
        <ele>6.2</ele>
        <time>2022-04-22T13:44:16Z</time>
      </trkpt>
      <trkpt lat="50.15492" lon="1.68422">
        <ele>6.2</ele>
        <time>2022-04-22T13:44:17Z</time>
      </trkpt>
      <trkpt lat="50.15493" lon="1.68421">
        <ele>6.2</ele>
        <time>2022-04-22T13:44:18Z</time>
      </trkpt>
      <trkpt lat="50.15493" lon="1.68419">
        <ele>6.1</ele>
        <time>2022-04-22T13:44:19Z</time>
      </trkpt>
      <trkpt lat="50.15494" lon="1.68416">
        <ele>6.1</ele>
        <time>2022-04-22T13:44:20Z</time>
      </trkpt>
      <trkpt lat="50.15495" lon="1.68416">
        <ele>6.1</ele>
        <time>2022-04-22T13:44:21Z</time>
      </trkpt>
      <trkpt lat="50.15496" lon="1.68415">
        <ele>6.1</ele>
        <time>2022-04-22T13:44:22Z</time>
      </trkpt>
      <trkpt lat="50.15496" lon="1.68415">
        <ele>6</ele>
        <time>2022-04-22T13:44:23Z</time>
      </trkpt>
      <trkpt lat="50.15497" lon="1.68414">
        <ele>6</ele>
        <time>2022-04-22T13:44:24Z</time>
      </trkpt>
      <trkpt lat="50.15499" lon="1.68412">
        <ele>5.9</ele>
        <time>2022-04-22T13:44:25Z</time>
      </trkpt>
      <trkpt lat="50.155" lon="1.68411">
        <ele>5.9</ele>
        <time>2022-04-22T13:44:26Z</time>
      </trkpt>
      <trkpt lat="50.15501" lon="1.6841">
        <ele>5.9</ele>
        <time>2022-04-22T13:44:28Z</time>
      </trkpt>
      <trkpt lat="50.15501" lon="1.68409">
        <ele>5.9</ele>
        <time>2022-04-22T13:44:29Z</time>
      </trkpt>
      <trkpt lat="50.15502" lon="1.68409">
        <ele>5.9</ele>
        <time>2022-04-22T13:44:30Z</time>
      </trkpt>
      <trkpt lat="50.15503" lon="1.68408">
        <ele>5.8</ele>
        <time>2022-04-22T13:44:31Z</time>
      </trkpt>
      <trkpt lat="50.15504" lon="1.68405">
        <ele>5.8</ele>
        <time>2022-04-22T13:44:32Z</time>
      </trkpt>
      <trkpt lat="50.15505" lon="1.68404">
        <ele>5.8</ele>
        <time>2022-04-22T13:44:33Z</time>
      </trkpt>
      <trkpt lat="50.15505" lon="1.68403">
        <ele>5.8</ele>
        <time>2022-04-22T13:44:34Z</time>
      </trkpt>
      <trkpt lat="50.15506" lon="1.684">
        <ele>5.7</ele>
        <time>2022-04-22T13:44:35Z</time>
      </trkpt>
      <trkpt lat="50.15507" lon="1.68399">
        <ele>5.7</ele>
        <time>2022-04-22T13:44:37Z</time>
      </trkpt>
      <trkpt lat="50.15507" lon="1.68399">
        <ele>5.7</ele>
        <time>2022-04-22T13:44:38Z</time>
      </trkpt>
      <trkpt lat="50.15508" lon="1.68397">
        <ele>5.7</ele>
        <time>2022-04-22T13:44:39Z</time>
      </trkpt>
      <trkpt lat="50.15509" lon="1.68395">
        <ele>5.6</ele>
        <time>2022-04-22T13:44:40Z</time>
      </trkpt>
      <trkpt lat="50.1551" lon="1.68393">
        <ele>5.6</ele>
        <time>2022-04-22T13:44:41Z</time>
      </trkpt>
      <trkpt lat="50.15511" lon="1.68392">
        <ele>5.6</ele>
        <time>2022-04-22T13:44:42Z</time>
      </trkpt>
      <trkpt lat="50.15512" lon="1.6839">
        <ele>5.6</ele>
        <time>2022-04-22T13:44:44Z</time>
      </trkpt>
      <trkpt lat="50.15513" lon="1.68387">
        <ele>5.6</ele>
        <time>2022-04-22T13:44:45Z</time>
      </trkpt>
      <trkpt lat="50.15513" lon="1.68386">
        <ele>5.6</ele>
        <time>2022-04-22T13:44:46Z</time>
      </trkpt>
      <trkpt lat="50.15513" lon="1.68385">
        <ele>5.5</ele>
        <time>2022-04-22T13:44:47Z</time>
      </trkpt>
      <trkpt lat="50.15514" lon="1.68383">
        <ele>5.5</ele>
        <time>2022-04-22T13:44:48Z</time>
      </trkpt>
      <trkpt lat="50.15514" lon="1.68382">
        <ele>5.5</ele>
        <time>2022-04-22T13:44:49Z</time>
      </trkpt>
      <trkpt lat="50.15515" lon="1.68378">
        <ele>5.5</ele>
        <time>2022-04-22T13:44:51Z</time>
      </trkpt>
      <trkpt lat="50.15516" lon="1.68377">
        <ele>5.5</ele>
        <time>2022-04-22T13:44:52Z</time>
      </trkpt>
      <trkpt lat="50.15517" lon="1.68374">
        <ele>5.5</ele>
        <time>2022-04-22T13:44:53Z</time>
      </trkpt>
      <trkpt lat="50.15517" lon="1.68373">
        <ele>5.5</ele>
        <time>2022-04-22T13:44:54Z</time>
      </trkpt>
      <trkpt lat="50.15518" lon="1.68372">
        <ele>5.5</ele>
        <time>2022-04-22T13:44:55Z</time>
      </trkpt>
      <trkpt lat="50.15518" lon="1.68369">
        <ele>5.5</ele>
        <time>2022-04-22T13:44:56Z</time>
      </trkpt>
      <trkpt lat="50.15518" lon="1.68368">
        <ele>5.5</ele>
        <time>2022-04-22T13:44:58Z</time>
      </trkpt>
      <trkpt lat="50.15518" lon="1.68366">
        <ele>5.5</ele>
        <time>2022-04-22T13:44:59Z</time>
      </trkpt>
      <trkpt lat="50.15517" lon="1.68365">
        <ele>5.5</ele>
        <time>2022-04-22T13:45:00Z</time>
      </trkpt>
      <trkpt lat="50.15518" lon="1.68364">
        <ele>5.5</ele>
        <time>2022-04-22T13:45:01Z</time>
      </trkpt>
      <trkpt lat="50.15518" lon="1.68362">
        <ele>5.5</ele>
        <time>2022-04-22T13:45:02Z</time>
      </trkpt>
      <trkpt lat="50.15519" lon="1.68361">
        <ele>5.5</ele>
        <time>2022-04-22T13:45:03Z</time>
      </trkpt>
      <trkpt lat="50.15519" lon="1.68359">
        <ele>5.5</ele>
        <time>2022-04-22T13:45:04Z</time>
      </trkpt>
      <trkpt lat="50.1552" lon="1.68357">
        <ele>5.4</ele>
        <time>2022-04-22T13:45:06Z</time>
      </trkpt>
      <trkpt lat="50.1552" lon="1.68355">
        <ele>5.4</ele>
        <time>2022-04-22T13:45:07Z</time>
      </trkpt>
      <trkpt lat="50.1552" lon="1.68353">
        <ele>5.4</ele>
        <time>2022-04-22T13:45:08Z</time>
      </trkpt>
      <trkpt lat="50.15521" lon="1.68351">
        <ele>5.4</ele>
        <time>2022-04-22T13:45:09Z</time>
      </trkpt>
      <trkpt lat="50.15521" lon="1.6835">
        <ele>5.4</ele>
        <time>2022-04-22T13:45:10Z</time>
      </trkpt>
      <trkpt lat="50.15522" lon="1.68347">
        <ele>5.4</ele>
        <time>2022-04-22T13:45:11Z</time>
      </trkpt>
      <trkpt lat="50.15523" lon="1.68346">
        <ele>5.4</ele>
        <time>2022-04-22T13:45:12Z</time>
      </trkpt>
      <trkpt lat="50.15523" lon="1.68345">
        <ele>5.4</ele>
        <time>2022-04-22T13:45:13Z</time>
      </trkpt>
      <trkpt lat="50.15524" lon="1.68343">
        <ele>5.4</ele>
        <time>2022-04-22T13:45:14Z</time>
      </trkpt>
      <trkpt lat="50.15524" lon="1.6834">
        <ele>5.4</ele>
        <time>2022-04-22T13:45:15Z</time>
      </trkpt>
      <trkpt lat="50.15525" lon="1.68337">
        <ele>5.4</ele>
        <time>2022-04-22T13:45:17Z</time>
      </trkpt>
      <trkpt lat="50.15525" lon="1.68335">
        <ele>5.3</ele>
        <time>2022-04-22T13:45:18Z</time>
      </trkpt>
      <trkpt lat="50.15525" lon="1.68334">
        <ele>5.3</ele>
        <time>2022-04-22T13:45:19Z</time>
      </trkpt>
      <trkpt lat="50.15526" lon="1.68332">
        <ele>5.3</ele>
        <time>2022-04-22T13:45:20Z</time>
      </trkpt>
      <trkpt lat="50.15526" lon="1.68331">
        <ele>5.3</ele>
        <time>2022-04-22T13:45:21Z</time>
      </trkpt>
      <trkpt lat="50.15527" lon="1.68329">
        <ele>5.3</ele>
        <time>2022-04-22T13:45:23Z</time>
      </trkpt>
      <trkpt lat="50.15528" lon="1.68326">
        <ele>5.3</ele>
        <time>2022-04-22T13:45:24Z</time>
      </trkpt>
      <trkpt lat="50.15528" lon="1.68324">
        <ele>5.3</ele>
        <time>2022-04-22T13:45:25Z</time>
      </trkpt>
      <trkpt lat="50.15528" lon="1.68323">
        <ele>5.3</ele>
        <time>2022-04-22T13:45:26Z</time>
      </trkpt>
      <trkpt lat="50.15529" lon="1.68322">
        <ele>5.3</ele>
        <time>2022-04-22T13:45:27Z</time>
      </trkpt>
      <trkpt lat="50.15529" lon="1.6832">
        <ele>5.3</ele>
        <time>2022-04-22T13:45:28Z</time>
      </trkpt>
      <trkpt lat="50.15529" lon="1.68319">
        <ele>5.3</ele>
        <time>2022-04-22T13:45:29Z</time>
      </trkpt>
      <trkpt lat="50.1553" lon="1.68317">
        <ele>5.2</ele>
        <time>2022-04-22T13:45:31Z</time>
      </trkpt>
      <trkpt lat="50.15531" lon="1.68316">
        <ele>5.2</ele>
        <time>2022-04-22T13:45:32Z</time>
      </trkpt>
      <trkpt lat="50.15531" lon="1.68315">
        <ele>5.2</ele>
        <time>2022-04-22T13:45:33Z</time>
      </trkpt>
      <trkpt lat="50.15532" lon="1.68313">
        <ele>5.2</ele>
        <time>2022-04-22T13:45:34Z</time>
      </trkpt>
      <trkpt lat="50.15533" lon="1.68311">
        <ele>5.2</ele>
        <time>2022-04-22T13:45:36Z</time>
      </trkpt>
      <trkpt lat="50.15534" lon="1.6831">
        <ele>5.2</ele>
        <time>2022-04-22T13:45:37Z</time>
      </trkpt>
      <trkpt lat="50.15535" lon="1.68309">
        <ele>5.2</ele>
        <time>2022-04-22T13:45:38Z</time>
      </trkpt>
      <trkpt lat="50.15536" lon="1.68307">
        <ele>5.2</ele>
        <time>2022-04-22T13:45:39Z</time>
      </trkpt>
      <trkpt lat="50.15537" lon="1.68305">
        <ele>5.2</ele>
        <time>2022-04-22T13:45:40Z</time>
      </trkpt>
      <trkpt lat="50.15538" lon="1.68304">
        <ele>5.2</ele>
        <time>2022-04-22T13:45:41Z</time>
      </trkpt>
      <trkpt lat="50.15539" lon="1.68301">
        <ele>5.2</ele>
        <time>2022-04-22T13:45:42Z</time>
      </trkpt>
      <trkpt lat="50.15539" lon="1.683">
        <ele>5.2</ele>
        <time>2022-04-22T13:45:43Z</time>
      </trkpt>
      <trkpt lat="50.1554" lon="1.68299">
        <ele>5.2</ele>
        <time>2022-04-22T13:45:44Z</time>
      </trkpt>
      <trkpt lat="50.15541" lon="1.68297">
        <ele>5.2</ele>
        <time>2022-04-22T13:45:45Z</time>
      </trkpt>
      <trkpt lat="50.15542" lon="1.68296">
        <ele>5.2</ele>
        <time>2022-04-22T13:45:46Z</time>
      </trkpt>
      <trkpt lat="50.15543" lon="1.68293">
        <ele>5.2</ele>
        <time>2022-04-22T13:45:48Z</time>
      </trkpt>
      <trkpt lat="50.15544" lon="1.68292">
        <ele>5.2</ele>
        <time>2022-04-22T13:45:49Z</time>
      </trkpt>
      <trkpt lat="50.15544" lon="1.68291">
        <ele>5.2</ele>
        <time>2022-04-22T13:45:50Z</time>
      </trkpt>
      <trkpt lat="50.15545" lon="1.68289">
        <ele>5.2</ele>
        <time>2022-04-22T13:45:51Z</time>
      </trkpt>
      <trkpt lat="50.15546" lon="1.68287">
        <ele>5.2</ele>
        <time>2022-04-22T13:45:52Z</time>
      </trkpt>
      <trkpt lat="50.15548" lon="1.68285">
        <ele>5.2</ele>
        <time>2022-04-22T13:45:53Z</time>
      </trkpt>
      <trkpt lat="50.15548" lon="1.68283">
        <ele>5.2</ele>
        <time>2022-04-22T13:45:54Z</time>
      </trkpt>
      <trkpt lat="50.15549" lon="1.68282">
        <ele>5.2</ele>
        <time>2022-04-22T13:45:55Z</time>
      </trkpt>
      <trkpt lat="50.1555" lon="1.6828">
        <ele>5.2</ele>
        <time>2022-04-22T13:45:56Z</time>
      </trkpt>
      <trkpt lat="50.15551" lon="1.68279">
        <ele>5.2</ele>
        <time>2022-04-22T13:45:57Z</time>
      </trkpt>
      <trkpt lat="50.15552" lon="1.68278">
        <ele>5.2</ele>
        <time>2022-04-22T13:45:58Z</time>
      </trkpt>
      <trkpt lat="50.15553" lon="1.68277">
        <ele>5.2</ele>
        <time>2022-04-22T13:46:00Z</time>
      </trkpt>
      <trkpt lat="50.15554" lon="1.68275">
        <ele>5.2</ele>
        <time>2022-04-22T13:46:01Z</time>
      </trkpt>
      <trkpt lat="50.15556" lon="1.68273">
        <ele>5.2</ele>
        <time>2022-04-22T13:46:02Z</time>
      </trkpt>
      <trkpt lat="50.15556" lon="1.68272">
        <ele>5.2</ele>
        <time>2022-04-22T13:46:03Z</time>
      </trkpt>
      <trkpt lat="50.15557" lon="1.68271">
        <ele>5.2</ele>
        <time>2022-04-22T13:46:04Z</time>
      </trkpt>
      <trkpt lat="50.15559" lon="1.68268">
        <ele>5.2</ele>
        <time>2022-04-22T13:46:05Z</time>
      </trkpt>
      <trkpt lat="50.15559" lon="1.68267">
        <ele>5.2</ele>
        <time>2022-04-22T13:46:06Z</time>
      </trkpt>
      <trkpt lat="50.1556" lon="1.68266">
        <ele>5.2</ele>
        <time>2022-04-22T13:46:07Z</time>
      </trkpt>
      <trkpt lat="50.15561" lon="1.68264">
        <ele>5.1</ele>
        <time>2022-04-22T13:46:08Z</time>
      </trkpt>
      <trkpt lat="50.15562" lon="1.68263">
        <ele>5.1</ele>
        <time>2022-04-22T13:46:09Z</time>
      </trkpt>
      <trkpt lat="50.15563" lon="1.68261">
        <ele>5.1</ele>
        <time>2022-04-22T13:46:10Z</time>
      </trkpt>
      <trkpt lat="50.15565" lon="1.68259">
        <ele>5.1</ele>
        <time>2022-04-22T13:46:11Z</time>
      </trkpt>
      <trkpt lat="50.15566" lon="1.68259">
        <ele>5.1</ele>
        <time>2022-04-22T13:46:13Z</time>
      </trkpt>
      <trkpt lat="50.15566" lon="1.68258">
        <ele>5.1</ele>
        <time>2022-04-22T13:46:14Z</time>
      </trkpt>
      <trkpt lat="50.15567" lon="1.68255">
        <ele>5.1</ele>
        <time>2022-04-22T13:46:15Z</time>
      </trkpt>
      <trkpt lat="50.15568" lon="1.68254">
        <ele>5.1</ele>
        <time>2022-04-22T13:46:16Z</time>
      </trkpt>
      <trkpt lat="50.15568" lon="1.68253">
        <ele>5.1</ele>
        <time>2022-04-22T13:46:17Z</time>
      </trkpt>
      <trkpt lat="50.15569" lon="1.68252">
        <ele>5.1</ele>
        <time>2022-04-22T13:46:18Z</time>
      </trkpt>
      <trkpt lat="50.1557" lon="1.6825">
        <ele>5.1</ele>
        <time>2022-04-22T13:46:19Z</time>
      </trkpt>
      <trkpt lat="50.15571" lon="1.68249">
        <ele>5.1</ele>
        <time>2022-04-22T13:46:20Z</time>
      </trkpt>
      <trkpt lat="50.15571" lon="1.68248">
        <ele>5.1</ele>
        <time>2022-04-22T13:46:21Z</time>
      </trkpt>
      <trkpt lat="50.15572" lon="1.68246">
        <ele>5.1</ele>
        <time>2022-04-22T13:46:22Z</time>
      </trkpt>
      <trkpt lat="50.15572" lon="1.68245">
        <ele>5.1</ele>
        <time>2022-04-22T13:46:23Z</time>
      </trkpt>
      <trkpt lat="50.15573" lon="1.68243">
        <ele>5.1</ele>
        <time>2022-04-22T13:46:25Z</time>
      </trkpt>
      <trkpt lat="50.15573" lon="1.68241">
        <ele>5.1</ele>
        <time>2022-04-22T13:46:26Z</time>
      </trkpt>
      <trkpt lat="50.15574" lon="1.6824">
        <ele>5.1</ele>
        <time>2022-04-22T13:46:27Z</time>
      </trkpt>
      <trkpt lat="50.15574" lon="1.68238">
        <ele>5.1</ele>
        <time>2022-04-22T13:46:28Z</time>
      </trkpt>
      <trkpt lat="50.15574" lon="1.68237">
        <ele>5.1</ele>
        <time>2022-04-22T13:46:29Z</time>
      </trkpt>
      <trkpt lat="50.15574" lon="1.68236">
        <ele>5.1</ele>
        <time>2022-04-22T13:46:30Z</time>
      </trkpt>
      <trkpt lat="50.15575" lon="1.68234">
        <ele>5.1</ele>
        <time>2022-04-22T13:46:31Z</time>
      </trkpt>
      <trkpt lat="50.15574" lon="1.68233">
        <ele>5.1</ele>
        <time>2022-04-22T13:46:32Z</time>
      </trkpt>
      <trkpt lat="50.15575" lon="1.68232">
        <ele>5.1</ele>
        <time>2022-04-22T13:46:33Z</time>
      </trkpt>
      <trkpt lat="50.15575" lon="1.6823">
        <ele>5.1</ele>
        <time>2022-04-22T13:46:34Z</time>
      </trkpt>
      <trkpt lat="50.15575" lon="1.68227">
        <ele>5.1</ele>
        <time>2022-04-22T13:46:35Z</time>
      </trkpt>
      <trkpt lat="50.15575" lon="1.68226">
        <ele>5.1</ele>
        <time>2022-04-22T13:46:36Z</time>
      </trkpt>
      <trkpt lat="50.15575" lon="1.68223">
        <ele>5.1</ele>
        <time>2022-04-22T13:46:37Z</time>
      </trkpt>
      <trkpt lat="50.15575" lon="1.68221">
        <ele>5.1</ele>
        <time>2022-04-22T13:46:39Z</time>
      </trkpt>
      <trkpt lat="50.15576" lon="1.6822">
        <ele>5.1</ele>
        <time>2022-04-22T13:46:40Z</time>
      </trkpt>
      <trkpt lat="50.15576" lon="1.68218">
        <ele>5</ele>
        <time>2022-04-22T13:46:41Z</time>
      </trkpt>
      <trkpt lat="50.15577" lon="1.68216">
        <ele>5</ele>
        <time>2022-04-22T13:46:42Z</time>
      </trkpt>
      <trkpt lat="50.15578" lon="1.68213">
        <ele>5</ele>
        <time>2022-04-22T13:46:43Z</time>
      </trkpt>
      <trkpt lat="50.15578" lon="1.68212">
        <ele>5</ele>
        <time>2022-04-22T13:46:44Z</time>
      </trkpt>
      <trkpt lat="50.15578" lon="1.68211">
        <ele>5</ele>
        <time>2022-04-22T13:46:45Z</time>
      </trkpt>
      <trkpt lat="50.15579" lon="1.68208">
        <ele>5</ele>
        <time>2022-04-22T13:46:46Z</time>
      </trkpt>
      <trkpt lat="50.1558" lon="1.68207">
        <ele>5</ele>
        <time>2022-04-22T13:46:47Z</time>
      </trkpt>
      <trkpt lat="50.15581" lon="1.68206">
        <ele>5</ele>
        <time>2022-04-22T13:46:48Z</time>
      </trkpt>
      <trkpt lat="50.15581" lon="1.68205">
        <ele>5</ele>
        <time>2022-04-22T13:46:49Z</time>
      </trkpt>
      <trkpt lat="50.15582" lon="1.68202">
        <ele>5</ele>
        <time>2022-04-22T13:46:50Z</time>
      </trkpt>
      <trkpt lat="50.15583" lon="1.68199">
        <ele>5</ele>
        <time>2022-04-22T13:46:51Z</time>
      </trkpt>
      <trkpt lat="50.15583" lon="1.68198">
        <ele>5</ele>
        <time>2022-04-22T13:46:53Z</time>
      </trkpt>
      <trkpt lat="50.15583" lon="1.68197">
        <ele>5</ele>
        <time>2022-04-22T13:46:54Z</time>
      </trkpt>
      <trkpt lat="50.15584" lon="1.68195">
        <ele>5</ele>
        <time>2022-04-22T13:46:55Z</time>
      </trkpt>
      <trkpt lat="50.15585" lon="1.68193">
        <ele>5</ele>
        <time>2022-04-22T13:46:56Z</time>
      </trkpt>
      <trkpt lat="50.15586" lon="1.6819">
        <ele>5</ele>
        <time>2022-04-22T13:46:57Z</time>
      </trkpt>
      <trkpt lat="50.15586" lon="1.68188">
        <ele>5</ele>
        <time>2022-04-22T13:46:58Z</time>
      </trkpt>
      <trkpt lat="50.15587" lon="1.68187">
        <ele>5</ele>
        <time>2022-04-22T13:46:59Z</time>
      </trkpt>
      <trkpt lat="50.15588" lon="1.68183">
        <ele>5</ele>
        <time>2022-04-22T13:47:00Z</time>
      </trkpt>
      <trkpt lat="50.15589" lon="1.68182">
        <ele>5</ele>
        <time>2022-04-22T13:47:01Z</time>
      </trkpt>
      <trkpt lat="50.15589" lon="1.68181">
        <ele>5</ele>
        <time>2022-04-22T13:47:02Z</time>
      </trkpt>
      <trkpt lat="50.1559" lon="1.68179">
        <ele>5</ele>
        <time>2022-04-22T13:47:03Z</time>
      </trkpt>
      <trkpt lat="50.1559" lon="1.68177">
        <ele>5</ele>
        <time>2022-04-22T13:47:04Z</time>
      </trkpt>
      <trkpt lat="50.15591" lon="1.68175">
        <ele>5</ele>
        <time>2022-04-22T13:47:05Z</time>
      </trkpt>
      <trkpt lat="50.15593" lon="1.68172">
        <ele>5</ele>
        <time>2022-04-22T13:47:07Z</time>
      </trkpt>
      <trkpt lat="50.15594" lon="1.6817">
        <ele>5</ele>
        <time>2022-04-22T13:47:08Z</time>
      </trkpt>
      <trkpt lat="50.15595" lon="1.68168">
        <ele>4.9</ele>
        <time>2022-04-22T13:47:09Z</time>
      </trkpt>
      <trkpt lat="50.15596" lon="1.68165">
        <ele>4.9</ele>
        <time>2022-04-22T13:47:10Z</time>
      </trkpt>
      <trkpt lat="50.15597" lon="1.68163">
        <ele>4.9</ele>
        <time>2022-04-22T13:47:11Z</time>
      </trkpt>
      <trkpt lat="50.15598" lon="1.68162">
        <ele>4.9</ele>
        <time>2022-04-22T13:47:12Z</time>
      </trkpt>
      <trkpt lat="50.15598" lon="1.6816">
        <ele>4.9</ele>
        <time>2022-04-22T13:47:13Z</time>
      </trkpt>
      <trkpt lat="50.15599" lon="1.68159">
        <ele>4.9</ele>
        <time>2022-04-22T13:47:14Z</time>
      </trkpt>
      <trkpt lat="50.156" lon="1.68156">
        <ele>4.9</ele>
        <time>2022-04-22T13:47:15Z</time>
      </trkpt>
      <trkpt lat="50.15601" lon="1.68155">
        <ele>4.9</ele>
        <time>2022-04-22T13:47:16Z</time>
      </trkpt>
      <trkpt lat="50.15601" lon="1.68154">
        <ele>4.9</ele>
        <time>2022-04-22T13:47:17Z</time>
      </trkpt>
      <trkpt lat="50.15602" lon="1.68151">
        <ele>4.9</ele>
        <time>2022-04-22T13:47:19Z</time>
      </trkpt>
      <trkpt lat="50.15603" lon="1.68149">
        <ele>4.9</ele>
        <time>2022-04-22T13:47:20Z</time>
      </trkpt>
      <trkpt lat="50.15604" lon="1.68148">
        <ele>4.9</ele>
        <time>2022-04-22T13:47:21Z</time>
      </trkpt>
      <trkpt lat="50.15604" lon="1.68147">
        <ele>4.9</ele>
        <time>2022-04-22T13:47:22Z</time>
      </trkpt>
      <trkpt lat="50.15605" lon="1.68146">
        <ele>4.9</ele>
        <time>2022-04-22T13:47:23Z</time>
      </trkpt>
      <trkpt lat="50.15606" lon="1.68145">
        <ele>4.9</ele>
        <time>2022-04-22T13:47:24Z</time>
      </trkpt>
      <trkpt lat="50.15608" lon="1.68144">
        <ele>4.9</ele>
        <time>2022-04-22T13:47:25Z</time>
      </trkpt>
      <trkpt lat="50.15609" lon="1.68144">
        <ele>4.9</ele>
        <time>2022-04-22T13:47:26Z</time>
      </trkpt>
      <trkpt lat="50.1561" lon="1.68143">
        <ele>4.9</ele>
        <time>2022-04-22T13:47:27Z</time>
      </trkpt>
      <trkpt lat="50.15611" lon="1.68142">
        <ele>4.9</ele>
        <time>2022-04-22T13:47:28Z</time>
      </trkpt>
      <trkpt lat="50.15612" lon="1.68141">
        <ele>4.9</ele>
        <time>2022-04-22T13:47:29Z</time>
      </trkpt>
      <trkpt lat="50.15613" lon="1.68139">
        <ele>4.9</ele>
        <time>2022-04-22T13:47:31Z</time>
      </trkpt>
      <trkpt lat="50.15614" lon="1.68138">
        <ele>4.9</ele>
        <time>2022-04-22T13:47:32Z</time>
      </trkpt>
      <trkpt lat="50.15615" lon="1.68137">
        <ele>4.9</ele>
        <time>2022-04-22T13:47:33Z</time>
      </trkpt>
      <trkpt lat="50.15616" lon="1.68136">
        <ele>4.9</ele>
        <time>2022-04-22T13:47:34Z</time>
      </trkpt>
      <trkpt lat="50.15616" lon="1.68134">
        <ele>4.9</ele>
        <time>2022-04-22T13:47:35Z</time>
      </trkpt>
      <trkpt lat="50.15617" lon="1.68131">
        <ele>5</ele>
        <time>2022-04-22T13:47:36Z</time>
      </trkpt>
      <trkpt lat="50.15619" lon="1.6813">
        <ele>5</ele>
        <time>2022-04-22T13:47:38Z</time>
      </trkpt>
      <trkpt lat="50.15619" lon="1.68129">
        <ele>5</ele>
        <time>2022-04-22T13:47:39Z</time>
      </trkpt>
      <trkpt lat="50.1562" lon="1.68128">
        <ele>5</ele>
        <time>2022-04-22T13:47:40Z</time>
      </trkpt>
      <trkpt lat="50.15621" lon="1.68127">
        <ele>5</ele>
        <time>2022-04-22T13:47:41Z</time>
      </trkpt>
      <trkpt lat="50.15622" lon="1.68126">
        <ele>5</ele>
        <time>2022-04-22T13:47:42Z</time>
      </trkpt>
      <trkpt lat="50.15623" lon="1.68125">
        <ele>5</ele>
        <time>2022-04-22T13:47:43Z</time>
      </trkpt>
      <trkpt lat="50.15623" lon="1.68124">
        <ele>5</ele>
        <time>2022-04-22T13:47:44Z</time>
      </trkpt>
      <trkpt lat="50.15624" lon="1.68124">
        <ele>5</ele>
        <time>2022-04-22T13:47:45Z</time>
      </trkpt>
      <trkpt lat="50.15625" lon="1.68123">
        <ele>4.9</ele>
        <time>2022-04-22T13:47:46Z</time>
      </trkpt>
      <trkpt lat="50.15625" lon="1.68122">
        <ele>4.9</ele>
        <time>2022-04-22T13:47:48Z</time>
      </trkpt>
      <trkpt lat="50.15626" lon="1.68121">
        <ele>4.9</ele>
        <time>2022-04-22T13:47:49Z</time>
      </trkpt>
      <trkpt lat="50.15627" lon="1.6812">
        <ele>4.9</ele>
        <time>2022-04-22T13:47:50Z</time>
      </trkpt>
      <trkpt lat="50.15628" lon="1.68117">
        <ele>4.9</ele>
        <time>2022-04-22T13:47:51Z</time>
      </trkpt>
      <trkpt lat="50.15629" lon="1.68117">
        <ele>4.9</ele>
        <time>2022-04-22T13:47:52Z</time>
      </trkpt>
      <trkpt lat="50.1563" lon="1.68115">
        <ele>4.9</ele>
        <time>2022-04-22T13:47:53Z</time>
      </trkpt>
      <trkpt lat="50.15631" lon="1.68113">
        <ele>4.9</ele>
        <time>2022-04-22T13:47:55Z</time>
      </trkpt>
      <trkpt lat="50.15633" lon="1.68111">
        <ele>4.9</ele>
        <time>2022-04-22T13:47:56Z</time>
      </trkpt>
      <trkpt lat="50.15634" lon="1.68109">
        <ele>4.9</ele>
        <time>2022-04-22T13:47:57Z</time>
      </trkpt>
      <trkpt lat="50.15635" lon="1.68107">
        <ele>4.8</ele>
        <time>2022-04-22T13:47:58Z</time>
      </trkpt>
      <trkpt lat="50.15636" lon="1.68106">
        <ele>4.8</ele>
        <time>2022-04-22T13:47:59Z</time>
      </trkpt>
      <trkpt lat="50.15636" lon="1.68105">
        <ele>4.8</ele>
        <time>2022-04-22T13:48:00Z</time>
      </trkpt>
      <trkpt lat="50.15638" lon="1.68102">
        <ele>4.8</ele>
        <time>2022-04-22T13:48:01Z</time>
      </trkpt>
      <trkpt lat="50.15638" lon="1.68101">
        <ele>4.8</ele>
        <time>2022-04-22T13:48:02Z</time>
      </trkpt>
      <trkpt lat="50.15639" lon="1.681">
        <ele>4.8</ele>
        <time>2022-04-22T13:48:03Z</time>
      </trkpt>
      <trkpt lat="50.1564" lon="1.68099">
        <ele>4.8</ele>
        <time>2022-04-22T13:48:05Z</time>
      </trkpt>
      <trkpt lat="50.15641" lon="1.68096">
        <ele>4.8</ele>
        <time>2022-04-22T13:48:06Z</time>
      </trkpt>
      <trkpt lat="50.15641" lon="1.68095">
        <ele>4.7</ele>
        <time>2022-04-22T13:48:07Z</time>
      </trkpt>
      <trkpt lat="50.15642" lon="1.68093">
        <ele>4.7</ele>
        <time>2022-04-22T13:48:08Z</time>
      </trkpt>
      <trkpt lat="50.15642" lon="1.68091">
        <ele>4.7</ele>
        <time>2022-04-22T13:48:09Z</time>
      </trkpt>
      <trkpt lat="50.15643" lon="1.6809">
        <ele>4.7</ele>
        <time>2022-04-22T13:48:10Z</time>
      </trkpt>
      <trkpt lat="50.15643" lon="1.68087">
        <ele>4.7</ele>
        <time>2022-04-22T13:48:12Z</time>
      </trkpt>
      <trkpt lat="50.15644" lon="1.68086">
        <ele>4.7</ele>
        <time>2022-04-22T13:48:13Z</time>
      </trkpt>
      <trkpt lat="50.15644" lon="1.68084">
        <ele>4.7</ele>
        <time>2022-04-22T13:48:14Z</time>
      </trkpt>
      <trkpt lat="50.15644" lon="1.68082">
        <ele>4.7</ele>
        <time>2022-04-22T13:48:15Z</time>
      </trkpt>
      <trkpt lat="50.15645" lon="1.68079">
        <ele>4.6</ele>
        <time>2022-04-22T13:48:16Z</time>
      </trkpt>
      <trkpt lat="50.15645" lon="1.68078">
        <ele>4.6</ele>
        <time>2022-04-22T13:48:17Z</time>
      </trkpt>
      <trkpt lat="50.15646" lon="1.68077">
        <ele>4.6</ele>
        <time>2022-04-22T13:48:18Z</time>
      </trkpt>
      <trkpt lat="50.15646" lon="1.68075">
        <ele>4.6</ele>
        <time>2022-04-22T13:48:19Z</time>
      </trkpt>
      <trkpt lat="50.15647" lon="1.68075">
        <ele>4.6</ele>
        <time>2022-04-22T13:48:20Z</time>
      </trkpt>
      <trkpt lat="50.15648" lon="1.68073">
        <ele>4.6</ele>
        <time>2022-04-22T13:48:21Z</time>
      </trkpt>
      <trkpt lat="50.15648" lon="1.68072">
        <ele>4.6</ele>
        <time>2022-04-22T13:48:22Z</time>
      </trkpt>
      <trkpt lat="50.15649" lon="1.6807">
        <ele>4.6</ele>
        <time>2022-04-22T13:48:23Z</time>
      </trkpt>
      <trkpt lat="50.15649" lon="1.68069">
        <ele>4.5</ele>
        <time>2022-04-22T13:48:25Z</time>
      </trkpt>
      <trkpt lat="50.1565" lon="1.68066">
        <ele>4.5</ele>
        <time>2022-04-22T13:48:26Z</time>
      </trkpt>
      <trkpt lat="50.1565" lon="1.68065">
        <ele>4.5</ele>
        <time>2022-04-22T13:48:27Z</time>
      </trkpt>
      <trkpt lat="50.15651" lon="1.68064">
        <ele>4.5</ele>
        <time>2022-04-22T13:48:28Z</time>
      </trkpt>
      <trkpt lat="50.15651" lon="1.68062">
        <ele>4.5</ele>
        <time>2022-04-22T13:48:29Z</time>
      </trkpt>
      <trkpt lat="50.15652" lon="1.6806">
        <ele>4.5</ele>
        <time>2022-04-22T13:48:31Z</time>
      </trkpt>
      <trkpt lat="50.15652" lon="1.68057">
        <ele>4.5</ele>
        <time>2022-04-22T13:48:32Z</time>
      </trkpt>
      <trkpt lat="50.15653" lon="1.68055">
        <ele>4.4</ele>
        <time>2022-04-22T13:48:33Z</time>
      </trkpt>
      <trkpt lat="50.15653" lon="1.68053">
        <ele>4.4</ele>
        <time>2022-04-22T13:48:34Z</time>
      </trkpt>
      <trkpt lat="50.15654" lon="1.68052">
        <ele>4.4</ele>
        <time>2022-04-22T13:48:35Z</time>
      </trkpt>
      <trkpt lat="50.15655" lon="1.68049">
        <ele>4.4</ele>
        <time>2022-04-22T13:48:36Z</time>
      </trkpt>
      <trkpt lat="50.15655" lon="1.68048">
        <ele>4.4</ele>
        <time>2022-04-22T13:48:37Z</time>
      </trkpt>
      <trkpt lat="50.15658" lon="1.68047">
        <ele>4.4</ele>
        <time>2022-04-22T13:48:38Z</time>
      </trkpt>
      <trkpt lat="50.15659" lon="1.68046">
        <ele>4.3</ele>
        <time>2022-04-22T13:48:39Z</time>
      </trkpt>
      <trkpt lat="50.1566" lon="1.68046">
        <ele>4.3</ele>
        <time>2022-04-22T13:48:40Z</time>
      </trkpt>
      <trkpt lat="50.15661" lon="1.68044">
        <ele>4.3</ele>
        <time>2022-04-22T13:48:41Z</time>
      </trkpt>
      <trkpt lat="50.15662" lon="1.68042">
        <ele>4.3</ele>
        <time>2022-04-22T13:48:43Z</time>
      </trkpt>
      <trkpt lat="50.15663" lon="1.68041">
        <ele>4.3</ele>
        <time>2022-04-22T13:48:44Z</time>
      </trkpt>
      <trkpt lat="50.15664" lon="1.68039">
        <ele>4.3</ele>
        <time>2022-04-22T13:48:45Z</time>
      </trkpt>
      <trkpt lat="50.15666" lon="1.68037">
        <ele>4.3</ele>
        <time>2022-04-22T13:48:46Z</time>
      </trkpt>
      <trkpt lat="50.15667" lon="1.68036">
        <ele>4.2</ele>
        <time>2022-04-22T13:48:47Z</time>
      </trkpt>
      <trkpt lat="50.15668" lon="1.68034">
        <ele>4.2</ele>
        <time>2022-04-22T13:48:48Z</time>
      </trkpt>
      <trkpt lat="50.15669" lon="1.68032">
        <ele>4.2</ele>
        <time>2022-04-22T13:48:49Z</time>
      </trkpt>
      <trkpt lat="50.1567" lon="1.68031">
        <ele>4.2</ele>
        <time>2022-04-22T13:48:50Z</time>
      </trkpt>
      <trkpt lat="50.15671" lon="1.68028">
        <ele>4.2</ele>
        <time>2022-04-22T13:48:51Z</time>
      </trkpt>
      <trkpt lat="50.15671" lon="1.68027">
        <ele>4.2</ele>
        <time>2022-04-22T13:48:52Z</time>
      </trkpt>
      <trkpt lat="50.15672" lon="1.68025">
        <ele>4.2</ele>
        <time>2022-04-22T13:48:53Z</time>
      </trkpt>
      <trkpt lat="50.15673" lon="1.68024">
        <ele>4.2</ele>
        <time>2022-04-22T13:48:55Z</time>
      </trkpt>
      <trkpt lat="50.15674" lon="1.68023">
        <ele>4.1</ele>
        <time>2022-04-22T13:48:56Z</time>
      </trkpt>
      <trkpt lat="50.15675" lon="1.68021">
        <ele>4.1</ele>
        <time>2022-04-22T13:48:57Z</time>
      </trkpt>
      <trkpt lat="50.15676" lon="1.68021">
        <ele>4.1</ele>
        <time>2022-04-22T13:48:58Z</time>
      </trkpt>
      <trkpt lat="50.15677" lon="1.68021">
        <ele>4.1</ele>
        <time>2022-04-22T13:48:59Z</time>
      </trkpt>
      <trkpt lat="50.15679" lon="1.6802">
        <ele>4.1</ele>
        <time>2022-04-22T13:49:00Z</time>
      </trkpt>
      <trkpt lat="50.1568" lon="1.68019">
        <ele>4.1</ele>
        <time>2022-04-22T13:49:01Z</time>
      </trkpt>
      <trkpt lat="50.15681" lon="1.68018">
        <ele>4.1</ele>
        <time>2022-04-22T13:49:02Z</time>
      </trkpt>
      <trkpt lat="50.15681" lon="1.68017">
        <ele>4.1</ele>
        <time>2022-04-22T13:49:03Z</time>
      </trkpt>
      <trkpt lat="50.15682" lon="1.68016">
        <ele>4.1</ele>
        <time>2022-04-22T13:49:04Z</time>
      </trkpt>
      <trkpt lat="50.15683" lon="1.68014">
        <ele>4</ele>
        <time>2022-04-22T13:49:05Z</time>
      </trkpt>
      <trkpt lat="50.15684" lon="1.68012">
        <ele>4</ele>
        <time>2022-04-22T13:49:07Z</time>
      </trkpt>
      <trkpt lat="50.15685" lon="1.68009">
        <ele>4.1</ele>
        <time>2022-04-22T13:49:08Z</time>
      </trkpt>
      <trkpt lat="50.15685" lon="1.68008">
        <ele>4.1</ele>
        <time>2022-04-22T13:49:09Z</time>
      </trkpt>
      <trkpt lat="50.15686" lon="1.68007">
        <ele>4.1</ele>
        <time>2022-04-22T13:49:10Z</time>
      </trkpt>
      <trkpt lat="50.15687" lon="1.68004">
        <ele>4.1</ele>
        <time>2022-04-22T13:49:11Z</time>
      </trkpt>
      <trkpt lat="50.15687" lon="1.68003">
        <ele>4.1</ele>
        <time>2022-04-22T13:49:12Z</time>
      </trkpt>
      <trkpt lat="50.15688" lon="1.68002">
        <ele>4.1</ele>
        <time>2022-04-22T13:49:13Z</time>
      </trkpt>
      <trkpt lat="50.15688" lon="1.68001">
        <ele>4.1</ele>
        <time>2022-04-22T13:49:14Z</time>
      </trkpt>
      <trkpt lat="50.15689" lon="1.68">
        <ele>4.1</ele>
        <time>2022-04-22T13:49:15Z</time>
      </trkpt>
      <trkpt lat="50.1569" lon="1.67998">
        <ele>4.1</ele>
        <time>2022-04-22T13:49:16Z</time>
      </trkpt>
      <trkpt lat="50.1569" lon="1.67996">
        <ele>4.1</ele>
        <time>2022-04-22T13:49:17Z</time>
      </trkpt>
      <trkpt lat="50.15691" lon="1.67994">
        <ele>4.2</ele>
        <time>2022-04-22T13:49:19Z</time>
      </trkpt>
      <trkpt lat="50.15691" lon="1.67993">
        <ele>4.2</ele>
        <time>2022-04-22T13:49:20Z</time>
      </trkpt>
      <trkpt lat="50.15692" lon="1.67991">
        <ele>4.2</ele>
        <time>2022-04-22T13:49:21Z</time>
      </trkpt>
      <trkpt lat="50.15693" lon="1.67988">
        <ele>4.2</ele>
        <time>2022-04-22T13:49:22Z</time>
      </trkpt>
      <trkpt lat="50.15693" lon="1.67986">
        <ele>4.2</ele>
        <time>2022-04-22T13:49:23Z</time>
      </trkpt>
      <trkpt lat="50.15694" lon="1.67984">
        <ele>4.2</ele>
        <time>2022-04-22T13:49:24Z</time>
      </trkpt>
      <trkpt lat="50.15695" lon="1.67982">
        <ele>4.2</ele>
        <time>2022-04-22T13:49:25Z</time>
      </trkpt>
      <trkpt lat="50.15696" lon="1.67981">
        <ele>4.2</ele>
        <time>2022-04-22T13:49:26Z</time>
      </trkpt>
      <trkpt lat="50.15696" lon="1.67979">
        <ele>4.2</ele>
        <time>2022-04-22T13:49:27Z</time>
      </trkpt>
      <trkpt lat="50.15697" lon="1.67977">
        <ele>4.2</ele>
        <time>2022-04-22T13:49:29Z</time>
      </trkpt>
      <trkpt lat="50.15698" lon="1.67975">
        <ele>4.2</ele>
        <time>2022-04-22T13:49:30Z</time>
      </trkpt>
      <trkpt lat="50.15698" lon="1.67973">
        <ele>4.2</ele>
        <time>2022-04-22T13:49:31Z</time>
      </trkpt>
      <trkpt lat="50.15699" lon="1.6797">
        <ele>4.2</ele>
        <time>2022-04-22T13:49:32Z</time>
      </trkpt>
      <trkpt lat="50.15699" lon="1.67969">
        <ele>4.2</ele>
        <time>2022-04-22T13:49:33Z</time>
      </trkpt>
      <trkpt lat="50.15699" lon="1.67968">
        <ele>4.2</ele>
        <time>2022-04-22T13:49:34Z</time>
      </trkpt>
      <trkpt lat="50.15699" lon="1.67967">
        <ele>4.2</ele>
        <time>2022-04-22T13:49:35Z</time>
      </trkpt>
      <trkpt lat="50.157" lon="1.67965">
        <ele>4.2</ele>
        <time>2022-04-22T13:49:36Z</time>
      </trkpt>
      <trkpt lat="50.157" lon="1.67963">
        <ele>4.2</ele>
        <time>2022-04-22T13:49:38Z</time>
      </trkpt>
      <trkpt lat="50.15701" lon="1.67961">
        <ele>4.2</ele>
        <time>2022-04-22T13:49:39Z</time>
      </trkpt>
      <trkpt lat="50.15702" lon="1.67958">
        <ele>4.3</ele>
        <time>2022-04-22T13:49:40Z</time>
      </trkpt>
      <trkpt lat="50.15702" lon="1.67956">
        <ele>4.3</ele>
        <time>2022-04-22T13:49:41Z</time>
      </trkpt>
      <trkpt lat="50.15702" lon="1.67955">
        <ele>4.3</ele>
        <time>2022-04-22T13:49:42Z</time>
      </trkpt>
      <trkpt lat="50.15703" lon="1.67953">
        <ele>4.3</ele>
        <time>2022-04-22T13:49:44Z</time>
      </trkpt>
      <trkpt lat="50.15703" lon="1.67951">
        <ele>4.3</ele>
        <time>2022-04-22T13:49:45Z</time>
      </trkpt>
      <trkpt lat="50.15703" lon="1.6795">
        <ele>4.3</ele>
        <time>2022-04-22T13:49:46Z</time>
      </trkpt>
      <trkpt lat="50.15703" lon="1.67949">
        <ele>4.3</ele>
        <time>2022-04-22T13:49:47Z</time>
      </trkpt>
      <trkpt lat="50.15703" lon="1.67948">
        <ele>4.3</ele>
        <time>2022-04-22T13:49:48Z</time>
      </trkpt>
      <trkpt lat="50.15703" lon="1.67945">
        <ele>4.3</ele>
        <time>2022-04-22T13:49:49Z</time>
      </trkpt>
      <trkpt lat="50.15703" lon="1.67944">
        <ele>4.3</ele>
        <time>2022-04-22T13:49:50Z</time>
      </trkpt>
      <trkpt lat="50.15703" lon="1.67943">
        <ele>4.3</ele>
        <time>2022-04-22T13:49:51Z</time>
      </trkpt>
      <trkpt lat="50.15703" lon="1.67941">
        <ele>4.3</ele>
        <time>2022-04-22T13:49:52Z</time>
      </trkpt>
      <trkpt lat="50.15704" lon="1.67939">
        <ele>4.3</ele>
        <time>2022-04-22T13:49:53Z</time>
      </trkpt>
      <trkpt lat="50.15704" lon="1.67937">
        <ele>4.3</ele>
        <time>2022-04-22T13:49:55Z</time>
      </trkpt>
      <trkpt lat="50.15704" lon="1.67935">
        <ele>4.3</ele>
        <time>2022-04-22T13:49:56Z</time>
      </trkpt>
      <trkpt lat="50.15705" lon="1.67932">
        <ele>4.3</ele>
        <time>2022-04-22T13:49:57Z</time>
      </trkpt>
      <trkpt lat="50.15705" lon="1.67931">
        <ele>4.3</ele>
        <time>2022-04-22T13:49:58Z</time>
      </trkpt>
      <trkpt lat="50.15705" lon="1.67929">
        <ele>4.3</ele>
        <time>2022-04-22T13:49:59Z</time>
      </trkpt>
      <trkpt lat="50.15705" lon="1.67928">
        <ele>4.3</ele>
        <time>2022-04-22T13:50:00Z</time>
      </trkpt>
      <trkpt lat="50.15705" lon="1.67926">
        <ele>4.3</ele>
        <time>2022-04-22T13:50:01Z</time>
      </trkpt>
      <trkpt lat="50.15706" lon="1.67923">
        <ele>4.3</ele>
        <time>2022-04-22T13:50:02Z</time>
      </trkpt>
      <trkpt lat="50.15706" lon="1.67922">
        <ele>4.3</ele>
        <time>2022-04-22T13:50:03Z</time>
      </trkpt>
      <trkpt lat="50.15707" lon="1.67919">
        <ele>4.3</ele>
        <time>2022-04-22T13:50:04Z</time>
      </trkpt>
      <trkpt lat="50.15708" lon="1.67917">
        <ele>4.3</ele>
        <time>2022-04-22T13:50:06Z</time>
      </trkpt>
      <trkpt lat="50.15708" lon="1.67916">
        <ele>4.3</ele>
        <time>2022-04-22T13:50:07Z</time>
      </trkpt>
      <trkpt lat="50.15709" lon="1.67915">
        <ele>4.3</ele>
        <time>2022-04-22T13:50:08Z</time>
      </trkpt>
      <trkpt lat="50.15709" lon="1.67913">
        <ele>4.3</ele>
        <time>2022-04-22T13:50:09Z</time>
      </trkpt>
      <trkpt lat="50.1571" lon="1.67911">
        <ele>4.3</ele>
        <time>2022-04-22T13:50:10Z</time>
      </trkpt>
      <trkpt lat="50.1571" lon="1.67909">
        <ele>4.3</ele>
        <time>2022-04-22T13:50:11Z</time>
      </trkpt>
      <trkpt lat="50.15711" lon="1.67907">
        <ele>4.3</ele>
        <time>2022-04-22T13:50:12Z</time>
      </trkpt>
      <trkpt lat="50.15712" lon="1.67905">
        <ele>4.3</ele>
        <time>2022-04-22T13:50:13Z</time>
      </trkpt>
      <trkpt lat="50.15712" lon="1.67903">
        <ele>4.3</ele>
        <time>2022-04-22T13:50:14Z</time>
      </trkpt>
      <trkpt lat="50.15713" lon="1.67901">
        <ele>4.3</ele>
        <time>2022-04-22T13:50:16Z</time>
      </trkpt>
      <trkpt lat="50.15714" lon="1.67898">
        <ele>4.3</ele>
        <time>2022-04-22T13:50:17Z</time>
      </trkpt>
      <trkpt lat="50.15714" lon="1.67897">
        <ele>4.3</ele>
        <time>2022-04-22T13:50:18Z</time>
      </trkpt>
      <trkpt lat="50.15716" lon="1.67895">
        <ele>4.3</ele>
        <time>2022-04-22T13:50:19Z</time>
      </trkpt>
      <trkpt lat="50.15716" lon="1.67894">
        <ele>4.3</ele>
        <time>2022-04-22T13:50:20Z</time>
      </trkpt>
      <trkpt lat="50.15717" lon="1.67893">
        <ele>4.3</ele>
        <time>2022-04-22T13:50:21Z</time>
      </trkpt>
      <trkpt lat="50.15719" lon="1.67891">
        <ele>4.3</ele>
        <time>2022-04-22T13:50:22Z</time>
      </trkpt>
      <trkpt lat="50.15719" lon="1.6789">
        <ele>4.3</ele>
        <time>2022-04-22T13:50:23Z</time>
      </trkpt>
      <trkpt lat="50.1572" lon="1.67889">
        <ele>4.3</ele>
        <time>2022-04-22T13:50:24Z</time>
      </trkpt>
      <trkpt lat="50.15721" lon="1.67888">
        <ele>4.3</ele>
        <time>2022-04-22T13:50:25Z</time>
      </trkpt>
      <trkpt lat="50.15722" lon="1.67885">
        <ele>4.3</ele>
        <time>2022-04-22T13:50:27Z</time>
      </trkpt>
      <trkpt lat="50.15722" lon="1.67884">
        <ele>4.3</ele>
        <time>2022-04-22T13:50:28Z</time>
      </trkpt>
      <trkpt lat="50.15723" lon="1.67882">
        <ele>4.3</ele>
        <time>2022-04-22T13:50:29Z</time>
      </trkpt>
      <trkpt lat="50.15724" lon="1.67881">
        <ele>4.3</ele>
        <time>2022-04-22T13:50:30Z</time>
      </trkpt>
      <trkpt lat="50.15725" lon="1.67879">
        <ele>4.3</ele>
        <time>2022-04-22T13:50:31Z</time>
      </trkpt>
      <trkpt lat="50.15726" lon="1.67877">
        <ele>4.3</ele>
        <time>2022-04-22T13:50:32Z</time>
      </trkpt>
      <trkpt lat="50.15727" lon="1.67876">
        <ele>4.3</ele>
        <time>2022-04-22T13:50:33Z</time>
      </trkpt>
      <trkpt lat="50.15728" lon="1.67875">
        <ele>4.3</ele>
        <time>2022-04-22T13:50:34Z</time>
      </trkpt>
      <trkpt lat="50.15729" lon="1.67875">
        <ele>4.3</ele>
        <time>2022-04-22T13:50:35Z</time>
      </trkpt>
      <trkpt lat="50.15731" lon="1.67873">
        <ele>4.3</ele>
        <time>2022-04-22T13:50:37Z</time>
      </trkpt>
      <trkpt lat="50.15732" lon="1.67872">
        <ele>4.3</ele>
        <time>2022-04-22T13:50:38Z</time>
      </trkpt>
      <trkpt lat="50.15733" lon="1.67869">
        <ele>4.3</ele>
        <time>2022-04-22T13:50:39Z</time>
      </trkpt>
      <trkpt lat="50.15734" lon="1.67868">
        <ele>4.3</ele>
        <time>2022-04-22T13:50:40Z</time>
      </trkpt>
      <trkpt lat="50.15734" lon="1.67867">
        <ele>4.3</ele>
        <time>2022-04-22T13:50:41Z</time>
      </trkpt>
      <trkpt lat="50.15735" lon="1.67864">
        <ele>4.3</ele>
        <time>2022-04-22T13:50:42Z</time>
      </trkpt>
      <trkpt lat="50.15736" lon="1.67863">
        <ele>4.3</ele>
        <time>2022-04-22T13:50:43Z</time>
      </trkpt>
      <trkpt lat="50.15737" lon="1.6786">
        <ele>4.3</ele>
        <time>2022-04-22T13:50:45Z</time>
      </trkpt>
      <trkpt lat="50.15737" lon="1.67859">
        <ele>4.3</ele>
        <time>2022-04-22T13:50:46Z</time>
      </trkpt>
      <trkpt lat="50.15738" lon="1.67857">
        <ele>4.3</ele>
        <time>2022-04-22T13:50:47Z</time>
      </trkpt>
      <trkpt lat="50.15738" lon="1.67856">
        <ele>4.3</ele>
        <time>2022-04-22T13:50:48Z</time>
      </trkpt>
      <trkpt lat="50.15739" lon="1.67855">
        <ele>4.3</ele>
        <time>2022-04-22T13:50:49Z</time>
      </trkpt>
      <trkpt lat="50.15739" lon="1.67854">
        <ele>4.3</ele>
        <time>2022-04-22T13:50:50Z</time>
      </trkpt>
      <trkpt lat="50.1574" lon="1.67852">
        <ele>4.3</ele>
        <time>2022-04-22T13:50:51Z</time>
      </trkpt>
      <trkpt lat="50.15741" lon="1.6785">
        <ele>4.3</ele>
        <time>2022-04-22T13:50:52Z</time>
      </trkpt>
      <trkpt lat="50.15741" lon="1.67849">
        <ele>4.3</ele>
        <time>2022-04-22T13:50:53Z</time>
      </trkpt>
      <trkpt lat="50.15742" lon="1.67847">
        <ele>4.3</ele>
        <time>2022-04-22T13:50:54Z</time>
      </trkpt>
      <trkpt lat="50.15742" lon="1.67846">
        <ele>4.3</ele>
        <time>2022-04-22T13:50:55Z</time>
      </trkpt>
      <trkpt lat="50.15744" lon="1.67843">
        <ele>4.3</ele>
        <time>2022-04-22T13:50:57Z</time>
      </trkpt>
      <trkpt lat="50.15744" lon="1.67841">
        <ele>4.3</ele>
        <time>2022-04-22T13:50:58Z</time>
      </trkpt>
      <trkpt lat="50.15745" lon="1.6784">
        <ele>4.3</ele>
        <time>2022-04-22T13:50:59Z</time>
      </trkpt>
      <trkpt lat="50.15745" lon="1.67839">
        <ele>4.3</ele>
        <time>2022-04-22T13:51:00Z</time>
      </trkpt>
      <trkpt lat="50.15746" lon="1.67837">
        <ele>4.3</ele>
        <time>2022-04-22T13:51:01Z</time>
      </trkpt>
      <trkpt lat="50.15747" lon="1.67835">
        <ele>4.3</ele>
        <time>2022-04-22T13:51:03Z</time>
      </trkpt>
      <trkpt lat="50.15748" lon="1.67834">
        <ele>4.3</ele>
        <time>2022-04-22T13:51:04Z</time>
      </trkpt>
      <trkpt lat="50.15749" lon="1.67833">
        <ele>4.3</ele>
        <time>2022-04-22T13:51:05Z</time>
      </trkpt>
      <trkpt lat="50.1575" lon="1.67831">
        <ele>4.3</ele>
        <time>2022-04-22T13:51:06Z</time>
      </trkpt>
      <trkpt lat="50.15751" lon="1.67829">
        <ele>4.3</ele>
        <time>2022-04-22T13:51:07Z</time>
      </trkpt>
      <trkpt lat="50.15751" lon="1.67828">
        <ele>4.3</ele>
        <time>2022-04-22T13:51:08Z</time>
      </trkpt>
      <trkpt lat="50.15752" lon="1.67826">
        <ele>4.3</ele>
        <time>2022-04-22T13:51:09Z</time>
      </trkpt>
      <trkpt lat="50.15752" lon="1.67825">
        <ele>4.3</ele>
        <time>2022-04-22T13:51:10Z</time>
      </trkpt>
      <trkpt lat="50.15753" lon="1.67823">
        <ele>4.3</ele>
        <time>2022-04-22T13:51:11Z</time>
      </trkpt>
      <trkpt lat="50.15754" lon="1.67821">
        <ele>4.3</ele>
        <time>2022-04-22T13:51:12Z</time>
      </trkpt>
      <trkpt lat="50.15755" lon="1.6782">
        <ele>4.3</ele>
        <time>2022-04-22T13:51:13Z</time>
      </trkpt>
      <trkpt lat="50.15756" lon="1.67817">
        <ele>4.3</ele>
        <time>2022-04-22T13:51:15Z</time>
      </trkpt>
      <trkpt lat="50.15757" lon="1.67815">
        <ele>4.3</ele>
        <time>2022-04-22T13:51:16Z</time>
      </trkpt>
      <trkpt lat="50.15758" lon="1.67814">
        <ele>4.3</ele>
        <time>2022-04-22T13:51:17Z</time>
      </trkpt>
      <trkpt lat="50.15758" lon="1.67813">
        <ele>4.3</ele>
        <time>2022-04-22T13:51:18Z</time>
      </trkpt>
      <trkpt lat="50.15759" lon="1.67811">
        <ele>4.3</ele>
        <time>2022-04-22T13:51:19Z</time>
      </trkpt>
      <trkpt lat="50.1576" lon="1.67809">
        <ele>4.3</ele>
        <time>2022-04-22T13:51:20Z</time>
      </trkpt>
      <trkpt lat="50.1576" lon="1.67808">
        <ele>4.3</ele>
        <time>2022-04-22T13:51:21Z</time>
      </trkpt>
      <trkpt lat="50.15761" lon="1.67805">
        <ele>4.3</ele>
        <time>2022-04-22T13:51:22Z</time>
      </trkpt>
      <trkpt lat="50.15761" lon="1.67804">
        <ele>4.3</ele>
        <time>2022-04-22T13:51:23Z</time>
      </trkpt>
      <trkpt lat="50.15762" lon="1.67803">
        <ele>4.3</ele>
        <time>2022-04-22T13:51:24Z</time>
      </trkpt>
      <trkpt lat="50.15762" lon="1.67801">
        <ele>4.4</ele>
        <time>2022-04-22T13:51:25Z</time>
      </trkpt>
      <trkpt lat="50.15763" lon="1.67799">
        <ele>4.4</ele>
        <time>2022-04-22T13:51:27Z</time>
      </trkpt>
      <trkpt lat="50.15764" lon="1.67797">
        <ele>4.4</ele>
        <time>2022-04-22T13:51:28Z</time>
      </trkpt>
      <trkpt lat="50.15764" lon="1.67794">
        <ele>4.4</ele>
        <time>2022-04-22T13:51:29Z</time>
      </trkpt>
      <trkpt lat="50.15765" lon="1.67792">
        <ele>4.4</ele>
        <time>2022-04-22T13:51:30Z</time>
      </trkpt>
      <trkpt lat="50.15765" lon="1.67791">
        <ele>4.4</ele>
        <time>2022-04-22T13:51:31Z</time>
      </trkpt>
      <trkpt lat="50.15766" lon="1.67789">
        <ele>4.4</ele>
        <time>2022-04-22T13:51:32Z</time>
      </trkpt>
      <trkpt lat="50.15766" lon="1.67788">
        <ele>4.4</ele>
        <time>2022-04-22T13:51:33Z</time>
      </trkpt>
      <trkpt lat="50.15766" lon="1.67787">
        <ele>4.4</ele>
        <time>2022-04-22T13:51:34Z</time>
      </trkpt>
      <trkpt lat="50.15767" lon="1.67784">
        <ele>4.4</ele>
        <time>2022-04-22T13:51:35Z</time>
      </trkpt>
      <trkpt lat="50.15768" lon="1.67782">
        <ele>4.4</ele>
        <time>2022-04-22T13:51:36Z</time>
      </trkpt>
      <trkpt lat="50.15768" lon="1.67781">
        <ele>4.4</ele>
        <time>2022-04-22T13:51:37Z</time>
      </trkpt>
      <trkpt lat="50.15769" lon="1.67779">
        <ele>4.4</ele>
        <time>2022-04-22T13:51:38Z</time>
      </trkpt>
      <trkpt lat="50.15769" lon="1.67777">
        <ele>4.4</ele>
        <time>2022-04-22T13:51:40Z</time>
      </trkpt>
      <trkpt lat="50.1577" lon="1.67775">
        <ele>4.4</ele>
        <time>2022-04-22T13:51:41Z</time>
      </trkpt>
      <trkpt lat="50.15771" lon="1.67773">
        <ele>4.4</ele>
        <time>2022-04-22T13:51:42Z</time>
      </trkpt>
      <trkpt lat="50.15772" lon="1.6777">
        <ele>4.5</ele>
        <time>2022-04-22T13:51:43Z</time>
      </trkpt>
      <trkpt lat="50.15773" lon="1.67769">
        <ele>4.5</ele>
        <time>2022-04-22T13:51:44Z</time>
      </trkpt>
      <trkpt lat="50.15773" lon="1.67767">
        <ele>4.5</ele>
        <time>2022-04-22T13:51:45Z</time>
      </trkpt>
      <trkpt lat="50.15774" lon="1.67766">
        <ele>4.5</ele>
        <time>2022-04-22T13:51:46Z</time>
      </trkpt>
      <trkpt lat="50.15775" lon="1.67764">
        <ele>4.5</ele>
        <time>2022-04-22T13:51:47Z</time>
      </trkpt>
      <trkpt lat="50.15776" lon="1.67761">
        <ele>4.5</ele>
        <time>2022-04-22T13:51:48Z</time>
      </trkpt>
      <trkpt lat="50.15777" lon="1.6776">
        <ele>4.5</ele>
        <time>2022-04-22T13:51:50Z</time>
      </trkpt>
      <trkpt lat="50.15777" lon="1.67759">
        <ele>4.5</ele>
        <time>2022-04-22T13:51:51Z</time>
      </trkpt>
      <trkpt lat="50.15778" lon="1.67757">
        <ele>4.5</ele>
        <time>2022-04-22T13:51:52Z</time>
      </trkpt>
      <trkpt lat="50.15779" lon="1.67755">
        <ele>4.6</ele>
        <time>2022-04-22T13:51:53Z</time>
      </trkpt>
      <trkpt lat="50.1578" lon="1.67754">
        <ele>4.6</ele>
        <time>2022-04-22T13:51:54Z</time>
      </trkpt>
      <trkpt lat="50.1578" lon="1.67752">
        <ele>4.6</ele>
        <time>2022-04-22T13:51:55Z</time>
      </trkpt>
      <trkpt lat="50.15781" lon="1.67751">
        <ele>4.6</ele>
        <time>2022-04-22T13:51:56Z</time>
      </trkpt>
      <trkpt lat="50.15782" lon="1.67748">
        <ele>4.6</ele>
        <time>2022-04-22T13:51:57Z</time>
      </trkpt>
      <trkpt lat="50.15783" lon="1.67747">
        <ele>4.6</ele>
        <time>2022-04-22T13:51:58Z</time>
      </trkpt>
      <trkpt lat="50.15783" lon="1.67746">
        <ele>4.6</ele>
        <time>2022-04-22T13:51:59Z</time>
      </trkpt>
      <trkpt lat="50.15784" lon="1.67744">
        <ele>4.6</ele>
        <time>2022-04-22T13:52:00Z</time>
      </trkpt>
      <trkpt lat="50.15785" lon="1.67742">
        <ele>4.7</ele>
        <time>2022-04-22T13:52:02Z</time>
      </trkpt>
      <trkpt lat="50.15786" lon="1.67739">
        <ele>4.7</ele>
        <time>2022-04-22T13:52:03Z</time>
      </trkpt>
      <trkpt lat="50.15786" lon="1.67738">
        <ele>4.7</ele>
        <time>2022-04-22T13:52:04Z</time>
      </trkpt>
      <trkpt lat="50.15786" lon="1.67737">
        <ele>4.7</ele>
        <time>2022-04-22T13:52:05Z</time>
      </trkpt>
      <trkpt lat="50.15786" lon="1.67735">
        <ele>4.7</ele>
        <time>2022-04-22T13:52:06Z</time>
      </trkpt>
      <trkpt lat="50.15787" lon="1.67733">
        <ele>4.7</ele>
        <time>2022-04-22T13:52:07Z</time>
      </trkpt>
      <trkpt lat="50.15787" lon="1.67732">
        <ele>4.7</ele>
        <time>2022-04-22T13:52:08Z</time>
      </trkpt>
      <trkpt lat="50.15787" lon="1.6773">
        <ele>4.7</ele>
        <time>2022-04-22T13:52:09Z</time>
      </trkpt>
      <trkpt lat="50.15787" lon="1.67729">
        <ele>4.7</ele>
        <time>2022-04-22T13:52:10Z</time>
      </trkpt>
      <trkpt lat="50.15788" lon="1.67727">
        <ele>4.7</ele>
        <time>2022-04-22T13:52:11Z</time>
      </trkpt>
      <trkpt lat="50.15788" lon="1.67724">
        <ele>4.7</ele>
        <time>2022-04-22T13:52:13Z</time>
      </trkpt>
      <trkpt lat="50.15788" lon="1.67723">
        <ele>4.7</ele>
        <time>2022-04-22T13:52:14Z</time>
      </trkpt>
      <trkpt lat="50.15788" lon="1.67721">
        <ele>4.7</ele>
        <time>2022-04-22T13:52:15Z</time>
      </trkpt>
      <trkpt lat="50.15788" lon="1.6772">
        <ele>4.7</ele>
        <time>2022-04-22T13:52:16Z</time>
      </trkpt>
      <trkpt lat="50.15789" lon="1.67717">
        <ele>4.7</ele>
        <time>2022-04-22T13:52:17Z</time>
      </trkpt>
      <trkpt lat="50.15789" lon="1.67715">
        <ele>4.7</ele>
        <time>2022-04-22T13:52:19Z</time>
      </trkpt>
      <trkpt lat="50.1579" lon="1.67712">
        <ele>4.8</ele>
        <time>2022-04-22T13:52:20Z</time>
      </trkpt>
      <trkpt lat="50.15791" lon="1.6771">
        <ele>4.8</ele>
        <time>2022-04-22T13:52:21Z</time>
      </trkpt>
      <trkpt lat="50.15791" lon="1.67709">
        <ele>4.8</ele>
        <time>2022-04-22T13:52:22Z</time>
      </trkpt>
      <trkpt lat="50.15792" lon="1.67707">
        <ele>4.8</ele>
        <time>2022-04-22T13:52:24Z</time>
      </trkpt>
      <trkpt lat="50.15793" lon="1.67705">
        <ele>4.8</ele>
        <time>2022-04-22T13:52:25Z</time>
      </trkpt>
      <trkpt lat="50.15794" lon="1.67704">
        <ele>4.8</ele>
        <time>2022-04-22T13:52:26Z</time>
      </trkpt>
      <trkpt lat="50.15795" lon="1.67703">
        <ele>4.8</ele>
        <time>2022-04-22T13:52:27Z</time>
      </trkpt>
      <trkpt lat="50.15797" lon="1.67701">
        <ele>4.8</ele>
        <time>2022-04-22T13:52:28Z</time>
      </trkpt>
      <trkpt lat="50.15798" lon="1.677">
        <ele>4.8</ele>
        <time>2022-04-22T13:52:29Z</time>
      </trkpt>
      <trkpt lat="50.15799" lon="1.67699">
        <ele>4.8</ele>
        <time>2022-04-22T13:52:30Z</time>
      </trkpt>
      <trkpt lat="50.15801" lon="1.67698">
        <ele>4.8</ele>
        <time>2022-04-22T13:52:31Z</time>
      </trkpt>
      <trkpt lat="50.15803" lon="1.67697">
        <ele>4.8</ele>
        <time>2022-04-22T13:52:32Z</time>
      </trkpt>
      <trkpt lat="50.15804" lon="1.67697">
        <ele>4.8</ele>
        <time>2022-04-22T13:52:33Z</time>
      </trkpt>
      <trkpt lat="50.15805" lon="1.67697">
        <ele>4.8</ele>
        <time>2022-04-22T13:52:35Z</time>
      </trkpt>
      <trkpt lat="50.15807" lon="1.67696">
        <ele>4.8</ele>
        <time>2022-04-22T13:52:36Z</time>
      </trkpt>
      <trkpt lat="50.15808" lon="1.67696">
        <ele>4.8</ele>
        <time>2022-04-22T13:52:37Z</time>
      </trkpt>
      <trkpt lat="50.1581" lon="1.67696">
        <ele>4.8</ele>
        <time>2022-04-22T13:52:38Z</time>
      </trkpt>
      <trkpt lat="50.15811" lon="1.67697">
        <ele>4.8</ele>
        <time>2022-04-22T13:52:39Z</time>
      </trkpt>
      <trkpt lat="50.15812" lon="1.67696">
        <ele>4.8</ele>
        <time>2022-04-22T13:52:40Z</time>
      </trkpt>
      <trkpt lat="50.15813" lon="1.67696">
        <ele>4.8</ele>
        <time>2022-04-22T13:52:41Z</time>
      </trkpt>
      <trkpt lat="50.15815" lon="1.67696">
        <ele>4.8</ele>
        <time>2022-04-22T13:52:42Z</time>
      </trkpt>
      <trkpt lat="50.15816" lon="1.67696">
        <ele>4.8</ele>
        <time>2022-04-22T13:52:44Z</time>
      </trkpt>
      <trkpt lat="50.15817" lon="1.67696">
        <ele>4.8</ele>
        <time>2022-04-22T13:52:45Z</time>
      </trkpt>
      <trkpt lat="50.15818" lon="1.67696">
        <ele>4.8</ele>
        <time>2022-04-22T13:52:46Z</time>
      </trkpt>
      <trkpt lat="50.15819" lon="1.67696">
        <ele>4.8</ele>
        <time>2022-04-22T13:52:47Z</time>
      </trkpt>
      <trkpt lat="50.1582" lon="1.67697">
        <ele>4.8</ele>
        <time>2022-04-22T13:52:48Z</time>
      </trkpt>
      <trkpt lat="50.1582" lon="1.67697">
        <ele>4.8</ele>
        <time>2022-04-22T13:52:49Z</time>
      </trkpt>
      <trkpt lat="50.15821" lon="1.67697">
        <ele>4.8</ele>
        <time>2022-04-22T13:52:50Z</time>
      </trkpt>
      <trkpt lat="50.15821" lon="1.67698">
        <ele>4.8</ele>
        <time>2022-04-22T13:52:51Z</time>
      </trkpt>
      <trkpt lat="50.15822" lon="1.67697">
        <ele>4.9</ele>
        <time>2022-04-22T13:52:52Z</time>
      </trkpt>
      <trkpt lat="50.15823" lon="1.67697">
        <ele>4.9</ele>
        <time>2022-04-22T13:52:54Z</time>
      </trkpt>
      <trkpt lat="50.15824" lon="1.67697">
        <ele>4.9</ele>
        <time>2022-04-22T13:52:55Z</time>
      </trkpt>
      <trkpt lat="50.15824" lon="1.67698">
        <ele>4.9</ele>
        <time>2022-04-22T13:52:56Z</time>
      </trkpt>
      <trkpt lat="50.15825" lon="1.67698">
        <ele>4.9</ele>
        <time>2022-04-22T13:52:57Z</time>
      </trkpt>
      <trkpt lat="50.15826" lon="1.67698">
        <ele>4.9</ele>
        <time>2022-04-22T13:52:58Z</time>
      </trkpt>
      <trkpt lat="50.15827" lon="1.67698">
        <ele>4.9</ele>
        <time>2022-04-22T13:52:59Z</time>
      </trkpt>
      <trkpt lat="50.15827" lon="1.67698">
        <ele>4.9</ele>
        <time>2022-04-22T13:53:00Z</time>
      </trkpt>
      <trkpt lat="50.15828" lon="1.67698">
        <ele>4.9</ele>
        <time>2022-04-22T13:53:01Z</time>
      </trkpt>
      <trkpt lat="50.1583" lon="1.67698">
        <ele>4.9</ele>
        <time>2022-04-22T13:53:02Z</time>
      </trkpt>
      <trkpt lat="50.15831" lon="1.67699">
        <ele>4.9</ele>
        <time>2022-04-22T13:53:04Z</time>
      </trkpt>
      <trkpt lat="50.15832" lon="1.67699">
        <ele>4.9</ele>
        <time>2022-04-22T13:53:05Z</time>
      </trkpt>
      <trkpt lat="50.15833" lon="1.67699">
        <ele>4.9</ele>
        <time>2022-04-22T13:53:06Z</time>
      </trkpt>
      <trkpt lat="50.15834" lon="1.67699">
        <ele>4.9</ele>
        <time>2022-04-22T13:53:07Z</time>
      </trkpt>
      <trkpt lat="50.15836" lon="1.67699">
        <ele>4.9</ele>
        <time>2022-04-22T13:53:08Z</time>
      </trkpt>
      <trkpt lat="50.15837" lon="1.67699">
        <ele>4.9</ele>
        <time>2022-04-22T13:53:09Z</time>
      </trkpt>
      <trkpt lat="50.15839" lon="1.67699">
        <ele>4.9</ele>
        <time>2022-04-22T13:53:10Z</time>
      </trkpt>
      <trkpt lat="50.1584" lon="1.67699">
        <ele>4.9</ele>
        <time>2022-04-22T13:53:11Z</time>
      </trkpt>
      <trkpt lat="50.15841" lon="1.67699">
        <ele>4.9</ele>
        <time>2022-04-22T13:53:12Z</time>
      </trkpt>
      <trkpt lat="50.15842" lon="1.67699">
        <ele>4.9</ele>
        <time>2022-04-22T13:53:13Z</time>
      </trkpt>
      <trkpt lat="50.15843" lon="1.67699">
        <ele>4.9</ele>
        <time>2022-04-22T13:53:15Z</time>
      </trkpt>
      <trkpt lat="50.15846" lon="1.67698">
        <ele>5</ele>
        <time>2022-04-22T13:53:16Z</time>
      </trkpt>
      <trkpt lat="50.15846" lon="1.67697">
        <ele>5</ele>
        <time>2022-04-22T13:53:17Z</time>
      </trkpt>
      <trkpt lat="50.15847" lon="1.67696">
        <ele>5</ele>
        <time>2022-04-22T13:53:18Z</time>
      </trkpt>
      <trkpt lat="50.15849" lon="1.67695">
        <ele>5</ele>
        <time>2022-04-22T13:53:19Z</time>
      </trkpt>
      <trkpt lat="50.1585" lon="1.67694">
        <ele>5</ele>
        <time>2022-04-22T13:53:20Z</time>
      </trkpt>
      <trkpt lat="50.1585" lon="1.67693">
        <ele>5</ele>
        <time>2022-04-22T13:53:21Z</time>
      </trkpt>
      <trkpt lat="50.15852" lon="1.67691">
        <ele>5</ele>
        <time>2022-04-22T13:53:22Z</time>
      </trkpt>
      <trkpt lat="50.15853" lon="1.6769">
        <ele>5</ele>
        <time>2022-04-22T13:53:23Z</time>
      </trkpt>
      <trkpt lat="50.15853" lon="1.67689">
        <ele>5</ele>
        <time>2022-04-22T13:53:24Z</time>
      </trkpt>
      <trkpt lat="50.15855" lon="1.67687">
        <ele>5</ele>
        <time>2022-04-22T13:53:25Z</time>
      </trkpt>
      <trkpt lat="50.15856" lon="1.67686">
        <ele>5</ele>
        <time>2022-04-22T13:53:27Z</time>
      </trkpt>
      <trkpt lat="50.15857" lon="1.67685">
        <ele>5</ele>
        <time>2022-04-22T13:53:28Z</time>
      </trkpt>
      <trkpt lat="50.15857" lon="1.67683">
        <ele>5</ele>
        <time>2022-04-22T13:53:29Z</time>
      </trkpt>
      <trkpt lat="50.15858" lon="1.67682">
        <ele>5</ele>
        <time>2022-04-22T13:53:30Z</time>
      </trkpt>
      <trkpt lat="50.15859" lon="1.67681">
        <ele>5</ele>
        <time>2022-04-22T13:53:31Z</time>
      </trkpt>
      <trkpt lat="50.1586" lon="1.6768">
        <ele>5</ele>
        <time>2022-04-22T13:53:32Z</time>
      </trkpt>
      <trkpt lat="50.15861" lon="1.67678">
        <ele>5</ele>
        <time>2022-04-22T13:53:33Z</time>
      </trkpt>
      <trkpt lat="50.15862" lon="1.67676">
        <ele>5</ele>
        <time>2022-04-22T13:53:34Z</time>
      </trkpt>
      <trkpt lat="50.15863" lon="1.67675">
        <ele>5</ele>
        <time>2022-04-22T13:53:35Z</time>
      </trkpt>
      <trkpt lat="50.15863" lon="1.67674">
        <ele>5</ele>
        <time>2022-04-22T13:53:36Z</time>
      </trkpt>
      <trkpt lat="50.15865" lon="1.67672">
        <ele>5</ele>
        <time>2022-04-22T13:53:38Z</time>
      </trkpt>
      <trkpt lat="50.15866" lon="1.67671">
        <ele>5</ele>
        <time>2022-04-22T13:53:39Z</time>
      </trkpt>
      <trkpt lat="50.15866" lon="1.6767">
        <ele>5</ele>
        <time>2022-04-22T13:53:40Z</time>
      </trkpt>
      <trkpt lat="50.15867" lon="1.67669">
        <ele>5</ele>
        <time>2022-04-22T13:53:41Z</time>
      </trkpt>
      <trkpt lat="50.15868" lon="1.67668">
        <ele>5</ele>
        <time>2022-04-22T13:53:42Z</time>
      </trkpt>
      <trkpt lat="50.15869" lon="1.67667">
        <ele>5</ele>
        <time>2022-04-22T13:53:43Z</time>
      </trkpt>
      <trkpt lat="50.1587" lon="1.67666">
        <ele>5</ele>
        <time>2022-04-22T13:53:44Z</time>
      </trkpt>
      <trkpt lat="50.15871" lon="1.67664">
        <ele>5</ele>
        <time>2022-04-22T13:53:45Z</time>
      </trkpt>
      <trkpt lat="50.15872" lon="1.67663">
        <ele>5</ele>
        <time>2022-04-22T13:53:46Z</time>
      </trkpt>
      <trkpt lat="50.15873" lon="1.67661">
        <ele>5</ele>
        <time>2022-04-22T13:53:48Z</time>
      </trkpt>
      <trkpt lat="50.15874" lon="1.6766">
        <ele>5</ele>
        <time>2022-04-22T13:53:49Z</time>
      </trkpt>
      <trkpt lat="50.15875" lon="1.67659">
        <ele>5</ele>
        <time>2022-04-22T13:53:50Z</time>
      </trkpt>
      <trkpt lat="50.15876" lon="1.67657">
        <ele>5</ele>
        <time>2022-04-22T13:53:51Z</time>
      </trkpt>
      <trkpt lat="50.15877" lon="1.67655">
        <ele>5</ele>
        <time>2022-04-22T13:53:52Z</time>
      </trkpt>
      <trkpt lat="50.15878" lon="1.67654">
        <ele>5</ele>
        <time>2022-04-22T13:53:54Z</time>
      </trkpt>
      <trkpt lat="50.15878" lon="1.67652">
        <ele>5</ele>
        <time>2022-04-22T13:53:55Z</time>
      </trkpt>
      <trkpt lat="50.15879" lon="1.67651">
        <ele>5</ele>
        <time>2022-04-22T13:53:56Z</time>
      </trkpt>
      <trkpt lat="50.1588" lon="1.6765">
        <ele>5</ele>
        <time>2022-04-22T13:53:57Z</time>
      </trkpt>
      <trkpt lat="50.15881" lon="1.67648">
        <ele>5</ele>
        <time>2022-04-22T13:53:58Z</time>
      </trkpt>
      <trkpt lat="50.15882" lon="1.67647">
        <ele>5</ele>
        <time>2022-04-22T13:53:59Z</time>
      </trkpt>
      <trkpt lat="50.15883" lon="1.67646">
        <ele>5</ele>
        <time>2022-04-22T13:54:00Z</time>
      </trkpt>
      <trkpt lat="50.15885" lon="1.67644">
        <ele>5</ele>
        <time>2022-04-22T13:54:01Z</time>
      </trkpt>
      <trkpt lat="50.15886" lon="1.67643">
        <ele>4.9</ele>
        <time>2022-04-22T13:54:02Z</time>
      </trkpt>
      <trkpt lat="50.15887" lon="1.67642">
        <ele>4.9</ele>
        <time>2022-04-22T13:54:03Z</time>
      </trkpt>
      <trkpt lat="50.15888" lon="1.67641">
        <ele>4.9</ele>
        <time>2022-04-22T13:54:05Z</time>
      </trkpt>
      <trkpt lat="50.15889" lon="1.6764">
        <ele>4.9</ele>
        <time>2022-04-22T13:54:06Z</time>
      </trkpt>
      <trkpt lat="50.1589" lon="1.67639">
        <ele>4.9</ele>
        <time>2022-04-22T13:54:07Z</time>
      </trkpt>
      <trkpt lat="50.15891" lon="1.67637">
        <ele>4.9</ele>
        <time>2022-04-22T13:54:08Z</time>
      </trkpt>
      <trkpt lat="50.15892" lon="1.67636">
        <ele>4.9</ele>
        <time>2022-04-22T13:54:09Z</time>
      </trkpt>
      <trkpt lat="50.15894" lon="1.67635">
        <ele>4.9</ele>
        <time>2022-04-22T13:54:10Z</time>
      </trkpt>
      <trkpt lat="50.15895" lon="1.67634">
        <ele>4.9</ele>
        <time>2022-04-22T13:54:11Z</time>
      </trkpt>
      <trkpt lat="50.15896" lon="1.67634">
        <ele>4.9</ele>
        <time>2022-04-22T13:54:12Z</time>
      </trkpt>
      <trkpt lat="50.15898" lon="1.67632">
        <ele>4.9</ele>
        <time>2022-04-22T13:54:13Z</time>
      </trkpt>
      <trkpt lat="50.15898" lon="1.67631">
        <ele>4.9</ele>
        <time>2022-04-22T13:54:15Z</time>
      </trkpt>
      <trkpt lat="50.15899" lon="1.67631">
        <ele>4.9</ele>
        <time>2022-04-22T13:54:16Z</time>
      </trkpt>
      <trkpt lat="50.159" lon="1.6763">
        <ele>4.9</ele>
        <time>2022-04-22T13:54:17Z</time>
      </trkpt>
      <trkpt lat="50.15901" lon="1.67629">
        <ele>4.9</ele>
        <time>2022-04-22T13:54:18Z</time>
      </trkpt>
      <trkpt lat="50.15902" lon="1.67629">
        <ele>4.9</ele>
        <time>2022-04-22T13:54:19Z</time>
      </trkpt>
      <trkpt lat="50.15902" lon="1.67628">
        <ele>4.9</ele>
        <time>2022-04-22T13:54:20Z</time>
      </trkpt>
      <trkpt lat="50.15903" lon="1.67628">
        <ele>4.9</ele>
        <time>2022-04-22T13:54:21Z</time>
      </trkpt>
      <trkpt lat="50.15904" lon="1.67627">
        <ele>4.9</ele>
        <time>2022-04-22T13:54:22Z</time>
      </trkpt>
      <trkpt lat="50.15906" lon="1.67625">
        <ele>4.9</ele>
        <time>2022-04-22T13:54:23Z</time>
      </trkpt>
      <trkpt lat="50.15907" lon="1.67624">
        <ele>4.8</ele>
        <time>2022-04-22T13:54:24Z</time>
      </trkpt>
      <trkpt lat="50.15907" lon="1.67624">
        <ele>4.8</ele>
        <time>2022-04-22T13:54:26Z</time>
      </trkpt>
      <trkpt lat="50.15908" lon="1.67623">
        <ele>4.8</ele>
        <time>2022-04-22T13:54:27Z</time>
      </trkpt>
      <trkpt lat="50.15909" lon="1.67622">
        <ele>4.8</ele>
        <time>2022-04-22T13:54:28Z</time>
      </trkpt>
      <trkpt lat="50.1591" lon="1.67621">
        <ele>4.8</ele>
        <time>2022-04-22T13:54:29Z</time>
      </trkpt>
      <trkpt lat="50.15911" lon="1.6762">
        <ele>4.8</ele>
        <time>2022-04-22T13:54:30Z</time>
      </trkpt>
      <trkpt lat="50.15912" lon="1.67619">
        <ele>4.8</ele>
        <time>2022-04-22T13:54:31Z</time>
      </trkpt>
      <trkpt lat="50.15913" lon="1.67618">
        <ele>4.8</ele>
        <time>2022-04-22T13:54:32Z</time>
      </trkpt>
      <trkpt lat="50.15913" lon="1.67617">
        <ele>4.8</ele>
        <time>2022-04-22T13:54:33Z</time>
      </trkpt>
      <trkpt lat="50.15914" lon="1.67615">
        <ele>4.8</ele>
        <time>2022-04-22T13:54:34Z</time>
      </trkpt>
      <trkpt lat="50.15915" lon="1.67614">
        <ele>4.8</ele>
        <time>2022-04-22T13:54:35Z</time>
      </trkpt>
      <trkpt lat="50.15917" lon="1.67612">
        <ele>4.8</ele>
        <time>2022-04-22T13:54:36Z</time>
      </trkpt>
      <trkpt lat="50.15917" lon="1.67611">
        <ele>4.8</ele>
        <time>2022-04-22T13:54:38Z</time>
      </trkpt>
      <trkpt lat="50.15918" lon="1.6761">
        <ele>4.8</ele>
        <time>2022-04-22T13:54:39Z</time>
      </trkpt>
      <trkpt lat="50.15919" lon="1.67609">
        <ele>4.8</ele>
        <time>2022-04-22T13:54:40Z</time>
      </trkpt>
      <trkpt lat="50.1592" lon="1.67608">
        <ele>4.8</ele>
        <time>2022-04-22T13:54:41Z</time>
      </trkpt>
      <trkpt lat="50.15921" lon="1.67607">
        <ele>4.8</ele>
        <time>2022-04-22T13:54:42Z</time>
      </trkpt>
      <trkpt lat="50.15922" lon="1.67605">
        <ele>4.8</ele>
        <time>2022-04-22T13:54:43Z</time>
      </trkpt>
      <trkpt lat="50.15922" lon="1.67604">
        <ele>4.8</ele>
        <time>2022-04-22T13:54:44Z</time>
      </trkpt>
      <trkpt lat="50.15923" lon="1.67603">
        <ele>4.8</ele>
        <time>2022-04-22T13:54:45Z</time>
      </trkpt>
      <trkpt lat="50.15924" lon="1.67601">
        <ele>4.8</ele>
        <time>2022-04-22T13:54:46Z</time>
      </trkpt>
      <trkpt lat="50.15924" lon="1.67599">
        <ele>4.8</ele>
        <time>2022-04-22T13:54:47Z</time>
      </trkpt>
      <trkpt lat="50.15926" lon="1.67596">
        <ele>4.8</ele>
        <time>2022-04-22T13:54:48Z</time>
      </trkpt>
      <trkpt lat="50.15926" lon="1.67595">
        <ele>4.8</ele>
        <time>2022-04-22T13:54:50Z</time>
      </trkpt>
      <trkpt lat="50.15926" lon="1.67594">
        <ele>4.8</ele>
        <time>2022-04-22T13:54:51Z</time>
      </trkpt>
      <trkpt lat="50.15927" lon="1.67593">
        <ele>4.8</ele>
        <time>2022-04-22T13:54:52Z</time>
      </trkpt>
      <trkpt lat="50.15928" lon="1.67591">
        <ele>4.8</ele>
        <time>2022-04-22T13:54:53Z</time>
      </trkpt>
      <trkpt lat="50.15929" lon="1.6759">
        <ele>4.8</ele>
        <time>2022-04-22T13:54:54Z</time>
      </trkpt>
      <trkpt lat="50.1593" lon="1.67587">
        <ele>4.8</ele>
        <time>2022-04-22T13:54:55Z</time>
      </trkpt>
      <trkpt lat="50.15931" lon="1.67586">
        <ele>4.8</ele>
        <time>2022-04-22T13:54:56Z</time>
      </trkpt>
      <trkpt lat="50.15931" lon="1.67586">
        <ele>4.8</ele>
        <time>2022-04-22T13:54:57Z</time>
      </trkpt>
      <trkpt lat="50.15932" lon="1.67584">
        <ele>4.8</ele>
        <time>2022-04-22T13:54:58Z</time>
      </trkpt>
      <trkpt lat="50.15933" lon="1.67582">
        <ele>4.8</ele>
        <time>2022-04-22T13:54:59Z</time>
      </trkpt>
      <trkpt lat="50.15934" lon="1.67581">
        <ele>4.8</ele>
        <time>2022-04-22T13:55:01Z</time>
      </trkpt>
      <trkpt lat="50.15935" lon="1.67579">
        <ele>4.8</ele>
        <time>2022-04-22T13:55:02Z</time>
      </trkpt>
      <trkpt lat="50.15936" lon="1.67578">
        <ele>4.8</ele>
        <time>2022-04-22T13:55:03Z</time>
      </trkpt>
      <trkpt lat="50.15936" lon="1.67577">
        <ele>4.8</ele>
        <time>2022-04-22T13:55:04Z</time>
      </trkpt>
      <trkpt lat="50.15937" lon="1.67575">
        <ele>4.8</ele>
        <time>2022-04-22T13:55:05Z</time>
      </trkpt>
      <trkpt lat="50.15938" lon="1.67574">
        <ele>4.8</ele>
        <time>2022-04-22T13:55:06Z</time>
      </trkpt>
      <trkpt lat="50.1594" lon="1.67571">
        <ele>4.7</ele>
        <time>2022-04-22T13:55:07Z</time>
      </trkpt>
      <trkpt lat="50.15941" lon="1.67569">
        <ele>4.7</ele>
        <time>2022-04-22T13:55:09Z</time>
      </trkpt>
      <trkpt lat="50.15942" lon="1.67568">
        <ele>4.7</ele>
        <time>2022-04-22T13:55:10Z</time>
      </trkpt>
      <trkpt lat="50.15943" lon="1.67566">
        <ele>4.7</ele>
        <time>2022-04-22T13:55:11Z</time>
      </trkpt>
      <trkpt lat="50.15945" lon="1.67563">
        <ele>4.7</ele>
        <time>2022-04-22T13:55:12Z</time>
      </trkpt>
      <trkpt lat="50.15945" lon="1.67562">
        <ele>4.7</ele>
        <time>2022-04-22T13:55:14Z</time>
      </trkpt>
      <trkpt lat="50.15946" lon="1.67561">
        <ele>4.7</ele>
        <time>2022-04-22T13:55:15Z</time>
      </trkpt>
      <trkpt lat="50.15947" lon="1.67559">
        <ele>4.7</ele>
        <time>2022-04-22T13:55:16Z</time>
      </trkpt>
      <trkpt lat="50.15948" lon="1.67558">
        <ele>4.7</ele>
        <time>2022-04-22T13:55:17Z</time>
      </trkpt>
      <trkpt lat="50.15949" lon="1.67556">
        <ele>4.7</ele>
        <time>2022-04-22T13:55:18Z</time>
      </trkpt>
      <trkpt lat="50.1595" lon="1.67555">
        <ele>4.7</ele>
        <time>2022-04-22T13:55:19Z</time>
      </trkpt>
      <trkpt lat="50.1595" lon="1.67554">
        <ele>4.7</ele>
        <time>2022-04-22T13:55:20Z</time>
      </trkpt>
      <trkpt lat="50.15951" lon="1.67551">
        <ele>4.7</ele>
        <time>2022-04-22T13:55:22Z</time>
      </trkpt>
      <trkpt lat="50.15952" lon="1.6755">
        <ele>4.7</ele>
        <time>2022-04-22T13:55:23Z</time>
      </trkpt>
      <trkpt lat="50.15954" lon="1.67547">
        <ele>4.7</ele>
        <time>2022-04-22T13:55:24Z</time>
      </trkpt>
      <trkpt lat="50.15955" lon="1.67547">
        <ele>4.7</ele>
        <time>2022-04-22T13:55:25Z</time>
      </trkpt>
      <trkpt lat="50.15956" lon="1.67544">
        <ele>4.7</ele>
        <time>2022-04-22T13:55:26Z</time>
      </trkpt>
      <trkpt lat="50.15957" lon="1.67543">
        <ele>4.7</ele>
        <time>2022-04-22T13:55:27Z</time>
      </trkpt>
      <trkpt lat="50.15958" lon="1.67543">
        <ele>4.7</ele>
        <time>2022-04-22T13:55:28Z</time>
      </trkpt>
      <trkpt lat="50.15959" lon="1.6754">
        <ele>4.7</ele>
        <time>2022-04-22T13:55:30Z</time>
      </trkpt>
      <trkpt lat="50.1596" lon="1.67539">
        <ele>4.8</ele>
        <time>2022-04-22T13:55:31Z</time>
      </trkpt>
      <trkpt lat="50.15961" lon="1.67537">
        <ele>4.8</ele>
        <time>2022-04-22T13:55:32Z</time>
      </trkpt>
      <trkpt lat="50.15962" lon="1.67535">
        <ele>4.8</ele>
        <time>2022-04-22T13:55:33Z</time>
      </trkpt>
      <trkpt lat="50.15963" lon="1.67533">
        <ele>4.8</ele>
        <time>2022-04-22T13:55:34Z</time>
      </trkpt>
      <trkpt lat="50.15964" lon="1.67532">
        <ele>4.8</ele>
        <time>2022-04-22T13:55:35Z</time>
      </trkpt>
      <trkpt lat="50.15966" lon="1.67529">
        <ele>4.8</ele>
        <time>2022-04-22T13:55:36Z</time>
      </trkpt>
      <trkpt lat="50.15966" lon="1.67527">
        <ele>4.8</ele>
        <time>2022-04-22T13:55:38Z</time>
      </trkpt>
      <trkpt lat="50.15967" lon="1.67526">
        <ele>4.8</ele>
        <time>2022-04-22T13:55:39Z</time>
      </trkpt>
      <trkpt lat="50.15967" lon="1.67525">
        <ele>4.8</ele>
        <time>2022-04-22T13:55:40Z</time>
      </trkpt>
      <trkpt lat="50.15968" lon="1.67524">
        <ele>4.8</ele>
        <time>2022-04-22T13:55:41Z</time>
      </trkpt>
      <trkpt lat="50.15969" lon="1.67521">
        <ele>4.8</ele>
        <time>2022-04-22T13:55:42Z</time>
      </trkpt>
      <trkpt lat="50.1597" lon="1.6752">
        <ele>4.8</ele>
        <time>2022-04-22T13:55:43Z</time>
      </trkpt>
      <trkpt lat="50.1597" lon="1.67519">
        <ele>4.8</ele>
        <time>2022-04-22T13:55:44Z</time>
      </trkpt>
      <trkpt lat="50.15972" lon="1.67516">
        <ele>4.8</ele>
        <time>2022-04-22T13:55:45Z</time>
      </trkpt>
      <trkpt lat="50.15972" lon="1.67515">
        <ele>4.8</ele>
        <time>2022-04-22T13:55:46Z</time>
      </trkpt>
      <trkpt lat="50.15973" lon="1.67514">
        <ele>4.8</ele>
        <time>2022-04-22T13:55:47Z</time>
      </trkpt>
      <trkpt lat="50.15974" lon="1.67512">
        <ele>4.8</ele>
        <time>2022-04-22T13:55:48Z</time>
      </trkpt>
      <trkpt lat="50.15975" lon="1.67511">
        <ele>4.8</ele>
        <time>2022-04-22T13:55:50Z</time>
      </trkpt>
      <trkpt lat="50.15976" lon="1.6751">
        <ele>4.8</ele>
        <time>2022-04-22T13:55:51Z</time>
      </trkpt>
      <trkpt lat="50.15977" lon="1.67508">
        <ele>4.8</ele>
        <time>2022-04-22T13:55:52Z</time>
      </trkpt>
      <trkpt lat="50.15977" lon="1.67507">
        <ele>4.8</ele>
        <time>2022-04-22T13:55:53Z</time>
      </trkpt>
      <trkpt lat="50.15978" lon="1.67506">
        <ele>4.8</ele>
        <time>2022-04-22T13:55:54Z</time>
      </trkpt>
      <trkpt lat="50.15978" lon="1.67504">
        <ele>4.8</ele>
        <time>2022-04-22T13:55:55Z</time>
      </trkpt>
      <trkpt lat="50.15979" lon="1.67501">
        <ele>4.8</ele>
        <time>2022-04-22T13:55:56Z</time>
      </trkpt>
      <trkpt lat="50.15979" lon="1.675">
        <ele>4.8</ele>
        <time>2022-04-22T13:55:57Z</time>
      </trkpt>
      <trkpt lat="50.1598" lon="1.67499">
        <ele>4.8</ele>
        <time>2022-04-22T13:55:58Z</time>
      </trkpt>
      <trkpt lat="50.15981" lon="1.67497">
        <ele>4.8</ele>
        <time>2022-04-22T13:55:59Z</time>
      </trkpt>
      <trkpt lat="50.15982" lon="1.67496">
        <ele>4.8</ele>
        <time>2022-04-22T13:56:00Z</time>
      </trkpt>
      <trkpt lat="50.15982" lon="1.67495">
        <ele>4.8</ele>
        <time>2022-04-22T13:56:02Z</time>
      </trkpt>
      <trkpt lat="50.15983" lon="1.67493">
        <ele>4.8</ele>
        <time>2022-04-22T13:56:03Z</time>
      </trkpt>
      <trkpt lat="50.15983" lon="1.67492">
        <ele>4.8</ele>
        <time>2022-04-22T13:56:04Z</time>
      </trkpt>
      <trkpt lat="50.15984" lon="1.67491">
        <ele>4.8</ele>
        <time>2022-04-22T13:56:05Z</time>
      </trkpt>
      <trkpt lat="50.15985" lon="1.6749">
        <ele>4.8</ele>
        <time>2022-04-22T13:56:06Z</time>
      </trkpt>
      <trkpt lat="50.15986" lon="1.67488">
        <ele>4.8</ele>
        <time>2022-04-22T13:56:07Z</time>
      </trkpt>
      <trkpt lat="50.15986" lon="1.67487">
        <ele>4.8</ele>
        <time>2022-04-22T13:56:08Z</time>
      </trkpt>
      <trkpt lat="50.15987" lon="1.67485">
        <ele>4.8</ele>
        <time>2022-04-22T13:56:09Z</time>
      </trkpt>
      <trkpt lat="50.15988" lon="1.67484">
        <ele>4.8</ele>
        <time>2022-04-22T13:56:10Z</time>
      </trkpt>
      <trkpt lat="50.15988" lon="1.67482">
        <ele>4.8</ele>
        <time>2022-04-22T13:56:11Z</time>
      </trkpt>
      <trkpt lat="50.15989" lon="1.67481">
        <ele>4.8</ele>
        <time>2022-04-22T13:56:12Z</time>
      </trkpt>
      <trkpt lat="50.15989" lon="1.6748">
        <ele>4.8</ele>
        <time>2022-04-22T13:56:14Z</time>
      </trkpt>
      <trkpt lat="50.1599" lon="1.67478">
        <ele>4.8</ele>
        <time>2022-04-22T13:56:15Z</time>
      </trkpt>
      <trkpt lat="50.15991" lon="1.67478">
        <ele>4.8</ele>
        <time>2022-04-22T13:56:16Z</time>
      </trkpt>
      <trkpt lat="50.15992" lon="1.67476">
        <ele>4.8</ele>
        <time>2022-04-22T13:56:17Z</time>
      </trkpt>
      <trkpt lat="50.15993" lon="1.67475">
        <ele>4.8</ele>
        <time>2022-04-22T13:56:18Z</time>
      </trkpt>
      <trkpt lat="50.15993" lon="1.67473">
        <ele>4.8</ele>
        <time>2022-04-22T13:56:19Z</time>
      </trkpt>
      <trkpt lat="50.15994" lon="1.67472">
        <ele>4.8</ele>
        <time>2022-04-22T13:56:20Z</time>
      </trkpt>
      <trkpt lat="50.15995" lon="1.67471">
        <ele>4.8</ele>
        <time>2022-04-22T13:56:21Z</time>
      </trkpt>
      <trkpt lat="50.15995" lon="1.67469">
        <ele>4.8</ele>
        <time>2022-04-22T13:56:23Z</time>
      </trkpt>
      <trkpt lat="50.15996" lon="1.67467">
        <ele>4.8</ele>
        <time>2022-04-22T13:56:24Z</time>
      </trkpt>
      <trkpt lat="50.15996" lon="1.67465">
        <ele>4.8</ele>
        <time>2022-04-22T13:56:25Z</time>
      </trkpt>
      <trkpt lat="50.15996" lon="1.67464">
        <ele>4.8</ele>
        <time>2022-04-22T13:56:26Z</time>
      </trkpt>
      <trkpt lat="50.15998" lon="1.67461">
        <ele>4.8</ele>
        <time>2022-04-22T13:56:27Z</time>
      </trkpt>
      <trkpt lat="50.15998" lon="1.6746">
        <ele>4.8</ele>
        <time>2022-04-22T13:56:28Z</time>
      </trkpt>
      <trkpt lat="50.15999" lon="1.67459">
        <ele>4.8</ele>
        <time>2022-04-22T13:56:29Z</time>
      </trkpt>
      <trkpt lat="50.16" lon="1.67456">
        <ele>4.8</ele>
        <time>2022-04-22T13:56:31Z</time>
      </trkpt>
      <trkpt lat="50.16001" lon="1.67454">
        <ele>4.8</ele>
        <time>2022-04-22T13:56:32Z</time>
      </trkpt>
      <trkpt lat="50.16001" lon="1.67453">
        <ele>4.8</ele>
        <time>2022-04-22T13:56:33Z</time>
      </trkpt>
      <trkpt lat="50.16002" lon="1.67452">
        <ele>4.8</ele>
        <time>2022-04-22T13:56:34Z</time>
      </trkpt>
      <trkpt lat="50.16003" lon="1.6745">
        <ele>4.8</ele>
        <time>2022-04-22T13:56:36Z</time>
      </trkpt>
      <trkpt lat="50.16004" lon="1.67449">
        <ele>4.9</ele>
        <time>2022-04-22T13:56:37Z</time>
      </trkpt>
      <trkpt lat="50.16006" lon="1.67448">
        <ele>4.9</ele>
        <time>2022-04-22T13:56:38Z</time>
      </trkpt>
      <trkpt lat="50.16007" lon="1.67447">
        <ele>4.9</ele>
        <time>2022-04-22T13:56:39Z</time>
      </trkpt>
      <trkpt lat="50.16008" lon="1.67446">
        <ele>4.9</ele>
        <time>2022-04-22T13:56:40Z</time>
      </trkpt>
      <trkpt lat="50.1601" lon="1.67445">
        <ele>4.9</ele>
        <time>2022-04-22T13:56:41Z</time>
      </trkpt>
      <trkpt lat="50.16011" lon="1.67445">
        <ele>4.9</ele>
        <time>2022-04-22T13:56:42Z</time>
      </trkpt>
      <trkpt lat="50.16012" lon="1.67445">
        <ele>4.9</ele>
        <time>2022-04-22T13:56:43Z</time>
      </trkpt>
      <trkpt lat="50.16013" lon="1.67444">
        <ele>4.9</ele>
        <time>2022-04-22T13:56:44Z</time>
      </trkpt>
      <trkpt lat="50.16014" lon="1.67443">
        <ele>4.9</ele>
        <time>2022-04-22T13:56:46Z</time>
      </trkpt>
      <trkpt lat="50.16015" lon="1.67442">
        <ele>4.9</ele>
        <time>2022-04-22T13:56:47Z</time>
      </trkpt>
      <trkpt lat="50.16016" lon="1.6744">
        <ele>4.8</ele>
        <time>2022-04-22T13:56:48Z</time>
      </trkpt>
      <trkpt lat="50.16017" lon="1.67439">
        <ele>4.8</ele>
        <time>2022-04-22T13:56:49Z</time>
      </trkpt>
      <trkpt lat="50.16018" lon="1.67438">
        <ele>4.8</ele>
        <time>2022-04-22T13:56:50Z</time>
      </trkpt>
      <trkpt lat="50.16019" lon="1.67437">
        <ele>4.8</ele>
        <time>2022-04-22T13:56:52Z</time>
      </trkpt>
      <trkpt lat="50.1602" lon="1.67435">
        <ele>4.8</ele>
        <time>2022-04-22T13:56:53Z</time>
      </trkpt>
      <trkpt lat="50.16021" lon="1.67434">
        <ele>4.8</ele>
        <time>2022-04-22T13:56:54Z</time>
      </trkpt>
      <trkpt lat="50.16022" lon="1.67433">
        <ele>4.8</ele>
        <time>2022-04-22T13:56:55Z</time>
      </trkpt>
      <trkpt lat="50.16024" lon="1.67432">
        <ele>4.8</ele>
        <time>2022-04-22T13:56:56Z</time>
      </trkpt>
      <trkpt lat="50.16026" lon="1.67429">
        <ele>4.8</ele>
        <time>2022-04-22T13:56:58Z</time>
      </trkpt>
      <trkpt lat="50.16027" lon="1.67427">
        <ele>4.8</ele>
        <time>2022-04-22T13:56:59Z</time>
      </trkpt>
      <trkpt lat="50.16028" lon="1.67427">
        <ele>4.8</ele>
        <time>2022-04-22T13:57:00Z</time>
      </trkpt>
      <trkpt lat="50.16029" lon="1.67426">
        <ele>4.8</ele>
        <time>2022-04-22T13:57:01Z</time>
      </trkpt>
      <trkpt lat="50.1603" lon="1.67425">
        <ele>4.8</ele>
        <time>2022-04-22T13:57:02Z</time>
      </trkpt>
      <trkpt lat="50.16031" lon="1.67427">
        <ele>4.8</ele>
        <time>2022-04-22T13:57:03Z</time>
      </trkpt>
      <trkpt lat="50.16032" lon="1.67426">
        <ele>4.8</ele>
        <time>2022-04-22T13:57:05Z</time>
      </trkpt>
      <trkpt lat="50.16032" lon="1.67425">
        <ele>4.8</ele>
        <time>2022-04-22T13:57:06Z</time>
      </trkpt>
      <trkpt lat="50.16034" lon="1.67423">
        <ele>4.8</ele>
        <time>2022-04-22T13:57:07Z</time>
      </trkpt>
      <trkpt lat="50.16035" lon="1.67422">
        <ele>4.8</ele>
        <time>2022-04-22T13:57:08Z</time>
      </trkpt>
      <trkpt lat="50.16035" lon="1.67421">
        <ele>4.8</ele>
        <time>2022-04-22T13:57:09Z</time>
      </trkpt>
      <trkpt lat="50.16036" lon="1.6742">
        <ele>4.8</ele>
        <time>2022-04-22T13:57:10Z</time>
      </trkpt>
      <trkpt lat="50.16037" lon="1.67418">
        <ele>4.8</ele>
        <time>2022-04-22T13:57:11Z</time>
      </trkpt>
      <trkpt lat="50.16038" lon="1.67417">
        <ele>4.8</ele>
        <time>2022-04-22T13:57:12Z</time>
      </trkpt>
      <trkpt lat="50.16039" lon="1.67416">
        <ele>4.8</ele>
        <time>2022-04-22T13:57:13Z</time>
      </trkpt>
      <trkpt lat="50.1604" lon="1.67414">
        <ele>4.8</ele>
        <time>2022-04-22T13:57:14Z</time>
      </trkpt>
      <trkpt lat="50.16041" lon="1.67412">
        <ele>4.8</ele>
        <time>2022-04-22T13:57:16Z</time>
      </trkpt>
      <trkpt lat="50.16042" lon="1.67411">
        <ele>4.8</ele>
        <time>2022-04-22T13:57:17Z</time>
      </trkpt>
      <trkpt lat="50.16042" lon="1.6741">
        <ele>4.8</ele>
        <time>2022-04-22T13:57:18Z</time>
      </trkpt>
      <trkpt lat="50.16044" lon="1.67407">
        <ele>4.8</ele>
        <time>2022-04-22T13:57:19Z</time>
      </trkpt>
      <trkpt lat="50.16044" lon="1.67406">
        <ele>4.8</ele>
        <time>2022-04-22T13:57:20Z</time>
      </trkpt>
      <trkpt lat="50.16045" lon="1.67405">
        <ele>4.7</ele>
        <time>2022-04-22T13:57:21Z</time>
      </trkpt>
      <trkpt lat="50.16047" lon="1.67403">
        <ele>4.7</ele>
        <time>2022-04-22T13:57:22Z</time>
      </trkpt>
      <trkpt lat="50.16047" lon="1.67402">
        <ele>4.7</ele>
        <time>2022-04-22T13:57:23Z</time>
      </trkpt>
      <trkpt lat="50.16048" lon="1.67401">
        <ele>4.7</ele>
        <time>2022-04-22T13:57:24Z</time>
      </trkpt>
      <trkpt lat="50.1605" lon="1.67399">
        <ele>4.7</ele>
        <time>2022-04-22T13:57:25Z</time>
      </trkpt>
      <trkpt lat="50.1605" lon="1.67398">
        <ele>4.7</ele>
        <time>2022-04-22T13:57:27Z</time>
      </trkpt>
      <trkpt lat="50.16051" lon="1.67398">
        <ele>4.7</ele>
        <time>2022-04-22T13:57:28Z</time>
      </trkpt>
      <trkpt lat="50.16052" lon="1.67395">
        <ele>4.7</ele>
        <time>2022-04-22T13:57:29Z</time>
      </trkpt>
      <trkpt lat="50.16053" lon="1.67395">
        <ele>4.7</ele>
        <time>2022-04-22T13:57:30Z</time>
      </trkpt>
      <trkpt lat="50.16054" lon="1.67394">
        <ele>4.7</ele>
        <time>2022-04-22T13:57:31Z</time>
      </trkpt>
      <trkpt lat="50.16055" lon="1.67393">
        <ele>4.7</ele>
        <time>2022-04-22T13:57:32Z</time>
      </trkpt>
      <trkpt lat="50.16056" lon="1.67391">
        <ele>4.7</ele>
        <time>2022-04-22T13:57:33Z</time>
      </trkpt>
      <trkpt lat="50.16056" lon="1.6739">
        <ele>4.7</ele>
        <time>2022-04-22T13:57:34Z</time>
      </trkpt>
      <trkpt lat="50.16057" lon="1.67389">
        <ele>4.7</ele>
        <time>2022-04-22T13:57:35Z</time>
      </trkpt>
      <trkpt lat="50.16058" lon="1.67387">
        <ele>4.7</ele>
        <time>2022-04-22T13:57:36Z</time>
      </trkpt>
      <trkpt lat="50.16058" lon="1.67386">
        <ele>4.6</ele>
        <time>2022-04-22T13:57:37Z</time>
      </trkpt>
      <trkpt lat="50.16059" lon="1.67385">
        <ele>4.6</ele>
        <time>2022-04-22T13:57:39Z</time>
      </trkpt>
      <trkpt lat="50.1606" lon="1.67384">
        <ele>4.6</ele>
        <time>2022-04-22T13:57:40Z</time>
      </trkpt>
      <trkpt lat="50.16061" lon="1.67382">
        <ele>4.6</ele>
        <time>2022-04-22T13:57:41Z</time>
      </trkpt>
      <trkpt lat="50.16061" lon="1.67381">
        <ele>4.6</ele>
        <time>2022-04-22T13:57:42Z</time>
      </trkpt>
      <trkpt lat="50.16062" lon="1.6738">
        <ele>4.6</ele>
        <time>2022-04-22T13:57:43Z</time>
      </trkpt>
      <trkpt lat="50.16063" lon="1.67378">
        <ele>4.6</ele>
        <time>2022-04-22T13:57:44Z</time>
      </trkpt>
      <trkpt lat="50.16063" lon="1.67376">
        <ele>4.6</ele>
        <time>2022-04-22T13:57:45Z</time>
      </trkpt>
      <trkpt lat="50.16064" lon="1.67375">
        <ele>4.6</ele>
        <time>2022-04-22T13:57:46Z</time>
      </trkpt>
      <trkpt lat="50.16065" lon="1.67374">
        <ele>4.6</ele>
        <time>2022-04-22T13:57:47Z</time>
      </trkpt>
      <trkpt lat="50.16066" lon="1.67373">
        <ele>4.6</ele>
        <time>2022-04-22T13:57:48Z</time>
      </trkpt>
      <trkpt lat="50.16067" lon="1.67371">
        <ele>4.6</ele>
        <time>2022-04-22T13:57:50Z</time>
      </trkpt>
      <trkpt lat="50.16069" lon="1.6737">
        <ele>4.6</ele>
        <time>2022-04-22T13:57:51Z</time>
      </trkpt>
      <trkpt lat="50.1607" lon="1.67369">
        <ele>4.6</ele>
        <time>2022-04-22T13:57:52Z</time>
      </trkpt>
      <trkpt lat="50.16071" lon="1.67367">
        <ele>4.6</ele>
        <time>2022-04-22T13:57:53Z</time>
      </trkpt>
      <trkpt lat="50.16072" lon="1.67366">
        <ele>4.6</ele>
        <time>2022-04-22T13:57:54Z</time>
      </trkpt>
      <trkpt lat="50.16073" lon="1.67365">
        <ele>4.6</ele>
        <time>2022-04-22T13:57:55Z</time>
      </trkpt>
      <trkpt lat="50.16074" lon="1.67363">
        <ele>4.6</ele>
        <time>2022-04-22T13:57:56Z</time>
      </trkpt>
      <trkpt lat="50.16075" lon="1.67362">
        <ele>4.6</ele>
        <time>2022-04-22T13:57:57Z</time>
      </trkpt>
      <trkpt lat="50.16076" lon="1.67361">
        <ele>4.6</ele>
        <time>2022-04-22T13:57:58Z</time>
      </trkpt>
      <trkpt lat="50.16077" lon="1.67359">
        <ele>4.6</ele>
        <time>2022-04-22T13:57:59Z</time>
      </trkpt>
      <trkpt lat="50.16078" lon="1.67358">
        <ele>4.6</ele>
        <time>2022-04-22T13:58:00Z</time>
      </trkpt>
      <trkpt lat="50.16079" lon="1.67356">
        <ele>4.7</ele>
        <time>2022-04-22T13:58:02Z</time>
      </trkpt>
      <trkpt lat="50.16081" lon="1.67355">
        <ele>4.7</ele>
        <time>2022-04-22T13:58:03Z</time>
      </trkpt>
      <trkpt lat="50.16082" lon="1.67353">
        <ele>4.7</ele>
        <time>2022-04-22T13:58:04Z</time>
      </trkpt>
      <trkpt lat="50.16083" lon="1.67352">
        <ele>4.7</ele>
        <time>2022-04-22T13:58:05Z</time>
      </trkpt>
      <trkpt lat="50.16084" lon="1.67351">
        <ele>4.7</ele>
        <time>2022-04-22T13:58:06Z</time>
      </trkpt>
      <trkpt lat="50.16085" lon="1.67349">
        <ele>4.7</ele>
        <time>2022-04-22T13:58:07Z</time>
      </trkpt>
      <trkpt lat="50.16087" lon="1.67348">
        <ele>4.7</ele>
        <time>2022-04-22T13:58:08Z</time>
      </trkpt>
      <trkpt lat="50.16088" lon="1.67346">
        <ele>4.7</ele>
        <time>2022-04-22T13:58:09Z</time>
      </trkpt>
      <trkpt lat="50.16088" lon="1.67346">
        <ele>4.7</ele>
        <time>2022-04-22T13:58:10Z</time>
      </trkpt>
      <trkpt lat="50.16089" lon="1.67345">
        <ele>4.7</ele>
        <time>2022-04-22T13:58:11Z</time>
      </trkpt>
      <trkpt lat="50.1609" lon="1.67343">
        <ele>4.7</ele>
        <time>2022-04-22T13:58:12Z</time>
      </trkpt>
      <trkpt lat="50.16091" lon="1.67342">
        <ele>4.7</ele>
        <time>2022-04-22T13:58:13Z</time>
      </trkpt>
      <trkpt lat="50.16093" lon="1.6734">
        <ele>4.7</ele>
        <time>2022-04-22T13:58:15Z</time>
      </trkpt>
      <trkpt lat="50.16094" lon="1.67339">
        <ele>4.7</ele>
        <time>2022-04-22T13:58:16Z</time>
      </trkpt>
      <trkpt lat="50.16095" lon="1.67337">
        <ele>4.7</ele>
        <time>2022-04-22T13:58:17Z</time>
      </trkpt>
      <trkpt lat="50.16097" lon="1.67335">
        <ele>4.7</ele>
        <time>2022-04-22T13:58:18Z</time>
      </trkpt>
      <trkpt lat="50.16097" lon="1.67334">
        <ele>4.7</ele>
        <time>2022-04-22T13:58:19Z</time>
      </trkpt>
      <trkpt lat="50.16098" lon="1.67333">
        <ele>4.7</ele>
        <time>2022-04-22T13:58:20Z</time>
      </trkpt>
      <trkpt lat="50.16099" lon="1.67333">
        <ele>4.7</ele>
        <time>2022-04-22T13:58:21Z</time>
      </trkpt>
      <trkpt lat="50.161" lon="1.67332">
        <ele>4.7</ele>
        <time>2022-04-22T13:58:22Z</time>
      </trkpt>
      <trkpt lat="50.161" lon="1.67331">
        <ele>4.7</ele>
        <time>2022-04-22T13:58:23Z</time>
      </trkpt>
      <trkpt lat="50.16101" lon="1.6733">
        <ele>4.7</ele>
        <time>2022-04-22T13:58:24Z</time>
      </trkpt>
      <trkpt lat="50.16102" lon="1.67328">
        <ele>4.7</ele>
        <time>2022-04-22T13:58:25Z</time>
      </trkpt>
      <trkpt lat="50.16103" lon="1.67326">
        <ele>4.7</ele>
        <time>2022-04-22T13:58:27Z</time>
      </trkpt>
      <trkpt lat="50.16104" lon="1.67324">
        <ele>4.7</ele>
        <time>2022-04-22T13:58:28Z</time>
      </trkpt>
      <trkpt lat="50.16105" lon="1.67323">
        <ele>4.7</ele>
        <time>2022-04-22T13:58:29Z</time>
      </trkpt>
      <trkpt lat="50.16106" lon="1.67322">
        <ele>4.7</ele>
        <time>2022-04-22T13:58:30Z</time>
      </trkpt>
      <trkpt lat="50.16107" lon="1.67319">
        <ele>4.7</ele>
        <time>2022-04-22T13:58:31Z</time>
      </trkpt>
      <trkpt lat="50.16108" lon="1.67318">
        <ele>4.7</ele>
        <time>2022-04-22T13:58:33Z</time>
      </trkpt>
      <trkpt lat="50.16109" lon="1.67316">
        <ele>4.7</ele>
        <time>2022-04-22T13:58:34Z</time>
      </trkpt>
      <trkpt lat="50.1611" lon="1.67315">
        <ele>4.7</ele>
        <time>2022-04-22T13:58:35Z</time>
      </trkpt>
      <trkpt lat="50.1611" lon="1.67314">
        <ele>4.7</ele>
        <time>2022-04-22T13:58:36Z</time>
      </trkpt>
      <trkpt lat="50.16112" lon="1.67312">
        <ele>4.7</ele>
        <time>2022-04-22T13:58:37Z</time>
      </trkpt>
      <trkpt lat="50.16113" lon="1.67312">
        <ele>4.7</ele>
        <time>2022-04-22T13:58:38Z</time>
      </trkpt>
      <trkpt lat="50.16114" lon="1.67311">
        <ele>4.7</ele>
        <time>2022-04-22T13:58:39Z</time>
      </trkpt>
      <trkpt lat="50.16115" lon="1.6731">
        <ele>4.7</ele>
        <time>2022-04-22T13:58:40Z</time>
      </trkpt>
      <trkpt lat="50.16116" lon="1.67308">
        <ele>4.7</ele>
        <time>2022-04-22T13:58:41Z</time>
      </trkpt>
      <trkpt lat="50.16116" lon="1.67307">
        <ele>4.7</ele>
        <time>2022-04-22T13:58:42Z</time>
      </trkpt>
      <trkpt lat="50.16117" lon="1.67305">
        <ele>4.7</ele>
        <time>2022-04-22T13:58:44Z</time>
      </trkpt>
      <trkpt lat="50.16118" lon="1.67304">
        <ele>4.7</ele>
        <time>2022-04-22T13:58:45Z</time>
      </trkpt>
      <trkpt lat="50.16119" lon="1.67303">
        <ele>4.7</ele>
        <time>2022-04-22T13:58:46Z</time>
      </trkpt>
      <trkpt lat="50.1612" lon="1.67302">
        <ele>4.7</ele>
        <time>2022-04-22T13:58:47Z</time>
      </trkpt>
      <trkpt lat="50.1612" lon="1.67301">
        <ele>4.7</ele>
        <time>2022-04-22T13:58:48Z</time>
      </trkpt>
      <trkpt lat="50.16121" lon="1.67299">
        <ele>4.7</ele>
        <time>2022-04-22T13:58:49Z</time>
      </trkpt>
      <trkpt lat="50.16122" lon="1.67298">
        <ele>4.7</ele>
        <time>2022-04-22T13:58:50Z</time>
      </trkpt>
      <trkpt lat="50.16123" lon="1.67297">
        <ele>4.7</ele>
        <time>2022-04-22T13:58:51Z</time>
      </trkpt>
      <trkpt lat="50.16124" lon="1.67296">
        <ele>4.7</ele>
        <time>2022-04-22T13:58:52Z</time>
      </trkpt>
      <trkpt lat="50.16125" lon="1.67294">
        <ele>4.7</ele>
        <time>2022-04-22T13:58:54Z</time>
      </trkpt>
      <trkpt lat="50.16126" lon="1.67292">
        <ele>4.7</ele>
        <time>2022-04-22T13:58:55Z</time>
      </trkpt>
      <trkpt lat="50.16127" lon="1.67291">
        <ele>4.7</ele>
        <time>2022-04-22T13:58:56Z</time>
      </trkpt>
      <trkpt lat="50.16128" lon="1.6729">
        <ele>4.7</ele>
        <time>2022-04-22T13:58:57Z</time>
      </trkpt>
      <trkpt lat="50.16129" lon="1.67287">
        <ele>4.7</ele>
        <time>2022-04-22T13:58:58Z</time>
      </trkpt>
      <trkpt lat="50.16129" lon="1.67286">
        <ele>4.7</ele>
        <time>2022-04-22T13:58:59Z</time>
      </trkpt>
      <trkpt lat="50.1613" lon="1.67285">
        <ele>4.7</ele>
        <time>2022-04-22T13:59:00Z</time>
      </trkpt>
      <trkpt lat="50.16131" lon="1.67282">
        <ele>4.7</ele>
        <time>2022-04-22T13:59:01Z</time>
      </trkpt>
      <trkpt lat="50.16131" lon="1.67281">
        <ele>4.7</ele>
        <time>2022-04-22T13:59:03Z</time>
      </trkpt>
      <trkpt lat="50.16132" lon="1.6728">
        <ele>4.7</ele>
        <time>2022-04-22T13:59:04Z</time>
      </trkpt>
      <trkpt lat="50.16133" lon="1.67277">
        <ele>4.7</ele>
        <time>2022-04-22T13:59:05Z</time>
      </trkpt>
      <trkpt lat="50.16134" lon="1.67276">
        <ele>4.7</ele>
        <time>2022-04-22T13:59:06Z</time>
      </trkpt>
      <trkpt lat="50.16134" lon="1.67275">
        <ele>4.7</ele>
        <time>2022-04-22T13:59:07Z</time>
      </trkpt>
      <trkpt lat="50.16135" lon="1.67274">
        <ele>4.7</ele>
        <time>2022-04-22T13:59:08Z</time>
      </trkpt>
      <trkpt lat="50.16135" lon="1.67273">
        <ele>4.7</ele>
        <time>2022-04-22T13:59:09Z</time>
      </trkpt>
      <trkpt lat="50.16136" lon="1.67271">
        <ele>4.7</ele>
        <time>2022-04-22T13:59:10Z</time>
      </trkpt>
      <trkpt lat="50.16137" lon="1.6727">
        <ele>4.7</ele>
        <time>2022-04-22T13:59:11Z</time>
      </trkpt>
      <trkpt lat="50.16138" lon="1.67268">
        <ele>4.7</ele>
        <time>2022-04-22T13:59:12Z</time>
      </trkpt>
      <trkpt lat="50.1614" lon="1.67265">
        <ele>4.7</ele>
        <time>2022-04-22T13:59:13Z</time>
      </trkpt>
      <trkpt lat="50.1614" lon="1.67264">
        <ele>4.7</ele>
        <time>2022-04-22T13:59:15Z</time>
      </trkpt>
      <trkpt lat="50.16141" lon="1.67263">
        <ele>4.7</ele>
        <time>2022-04-22T13:59:16Z</time>
      </trkpt>
      <trkpt lat="50.16142" lon="1.67261">
        <ele>4.7</ele>
        <time>2022-04-22T13:59:17Z</time>
      </trkpt>
      <trkpt lat="50.16142" lon="1.6726">
        <ele>4.7</ele>
        <time>2022-04-22T13:59:18Z</time>
      </trkpt>
      <trkpt lat="50.16143" lon="1.67258">
        <ele>4.7</ele>
        <time>2022-04-22T13:59:19Z</time>
      </trkpt>
      <trkpt lat="50.16144" lon="1.67257">
        <ele>4.7</ele>
        <time>2022-04-22T13:59:20Z</time>
      </trkpt>
      <trkpt lat="50.16145" lon="1.67255">
        <ele>4.7</ele>
        <time>2022-04-22T13:59:21Z</time>
      </trkpt>
      <trkpt lat="50.16146" lon="1.67255">
        <ele>4.7</ele>
        <time>2022-04-22T13:59:22Z</time>
      </trkpt>
      <trkpt lat="50.16147" lon="1.67253">
        <ele>4.7</ele>
        <time>2022-04-22T13:59:23Z</time>
      </trkpt>
      <trkpt lat="50.16149" lon="1.67251">
        <ele>4.7</ele>
        <time>2022-04-22T13:59:24Z</time>
      </trkpt>
      <trkpt lat="50.16149" lon="1.6725">
        <ele>4.7</ele>
        <time>2022-04-22T13:59:26Z</time>
      </trkpt>
      <trkpt lat="50.1615" lon="1.6725">
        <ele>4.7</ele>
        <time>2022-04-22T13:59:27Z</time>
      </trkpt>
      <trkpt lat="50.16152" lon="1.67248">
        <ele>4.7</ele>
        <time>2022-04-22T13:59:28Z</time>
      </trkpt>
      <trkpt lat="50.16152" lon="1.67247">
        <ele>4.7</ele>
        <time>2022-04-22T13:59:29Z</time>
      </trkpt>
      <trkpt lat="50.16153" lon="1.67246">
        <ele>4.7</ele>
        <time>2022-04-22T13:59:30Z</time>
      </trkpt>
      <trkpt lat="50.16154" lon="1.67244">
        <ele>4.7</ele>
        <time>2022-04-22T13:59:31Z</time>
      </trkpt>
      <trkpt lat="50.16155" lon="1.67243">
        <ele>4.7</ele>
        <time>2022-04-22T13:59:32Z</time>
      </trkpt>
      <trkpt lat="50.16156" lon="1.6724">
        <ele>4.7</ele>
        <time>2022-04-22T13:59:33Z</time>
      </trkpt>
      <trkpt lat="50.16157" lon="1.67239">
        <ele>4.7</ele>
        <time>2022-04-22T13:59:34Z</time>
      </trkpt>
      <trkpt lat="50.16157" lon="1.67238">
        <ele>4.7</ele>
        <time>2022-04-22T13:59:35Z</time>
      </trkpt>
      <trkpt lat="50.16158" lon="1.67237">
        <ele>4.7</ele>
        <time>2022-04-22T13:59:36Z</time>
      </trkpt>
      <trkpt lat="50.16159" lon="1.67236">
        <ele>4.7</ele>
        <time>2022-04-22T13:59:37Z</time>
      </trkpt>
      <trkpt lat="50.16159" lon="1.67235">
        <ele>4.7</ele>
        <time>2022-04-22T13:59:39Z</time>
      </trkpt>
      <trkpt lat="50.1616" lon="1.67233">
        <ele>4.7</ele>
        <time>2022-04-22T13:59:40Z</time>
      </trkpt>
      <trkpt lat="50.16161" lon="1.67232">
        <ele>4.7</ele>
        <time>2022-04-22T13:59:41Z</time>
      </trkpt>
      <trkpt lat="50.16163" lon="1.6723">
        <ele>4.7</ele>
        <time>2022-04-22T13:59:42Z</time>
      </trkpt>
      <trkpt lat="50.16164" lon="1.67229">
        <ele>4.7</ele>
        <time>2022-04-22T13:59:43Z</time>
      </trkpt>
      <trkpt lat="50.16165" lon="1.67228">
        <ele>4.7</ele>
        <time>2022-04-22T13:59:44Z</time>
      </trkpt>
      <trkpt lat="50.16165" lon="1.67227">
        <ele>4.8</ele>
        <time>2022-04-22T13:59:45Z</time>
      </trkpt>
      <trkpt lat="50.16166" lon="1.67226">
        <ele>4.8</ele>
        <time>2022-04-22T13:59:46Z</time>
      </trkpt>
      <trkpt lat="50.16168" lon="1.67224">
        <ele>4.8</ele>
        <time>2022-04-22T13:59:47Z</time>
      </trkpt>
      <trkpt lat="50.16169" lon="1.67223">
        <ele>4.8</ele>
        <time>2022-04-22T13:59:49Z</time>
      </trkpt>
      <trkpt lat="50.16169" lon="1.67222">
        <ele>4.8</ele>
        <time>2022-04-22T13:59:50Z</time>
      </trkpt>
      <trkpt lat="50.16171" lon="1.6722">
        <ele>4.8</ele>
        <time>2022-04-22T13:59:51Z</time>
      </trkpt>
      <trkpt lat="50.16172" lon="1.6722">
        <ele>4.8</ele>
        <time>2022-04-22T13:59:52Z</time>
      </trkpt>
      <trkpt lat="50.16172" lon="1.67219">
        <ele>4.8</ele>
        <time>2022-04-22T13:59:53Z</time>
      </trkpt>
      <trkpt lat="50.16173" lon="1.67218">
        <ele>4.8</ele>
        <time>2022-04-22T13:59:54Z</time>
      </trkpt>
      <trkpt lat="50.16174" lon="1.67216">
        <ele>4.8</ele>
        <time>2022-04-22T13:59:55Z</time>
      </trkpt>
      <trkpt lat="50.16175" lon="1.67216">
        <ele>4.8</ele>
        <time>2022-04-22T13:59:56Z</time>
      </trkpt>
      <trkpt lat="50.16176" lon="1.67215">
        <ele>4.8</ele>
        <time>2022-04-22T13:59:57Z</time>
      </trkpt>
      <trkpt lat="50.16177" lon="1.67213">
        <ele>4.8</ele>
        <time>2022-04-22T13:59:58Z</time>
      </trkpt>
      <trkpt lat="50.16178" lon="1.67212">
        <ele>4.8</ele>
        <time>2022-04-22T14:00:00Z</time>
      </trkpt>
      <trkpt lat="50.1618" lon="1.6721">
        <ele>4.8</ele>
        <time>2022-04-22T14:00:01Z</time>
      </trkpt>
      <trkpt lat="50.16181" lon="1.67209">
        <ele>4.8</ele>
        <time>2022-04-22T14:00:02Z</time>
      </trkpt>
      <trkpt lat="50.16182" lon="1.67208">
        <ele>4.8</ele>
        <time>2022-04-22T14:00:03Z</time>
      </trkpt>
      <trkpt lat="50.16182" lon="1.67207">
        <ele>4.8</ele>
        <time>2022-04-22T14:00:04Z</time>
      </trkpt>
      <trkpt lat="50.16183" lon="1.67206">
        <ele>4.9</ele>
        <time>2022-04-22T14:00:05Z</time>
      </trkpt>
      <trkpt lat="50.16184" lon="1.67205">
        <ele>4.9</ele>
        <time>2022-04-22T14:00:06Z</time>
      </trkpt>
      <trkpt lat="50.16185" lon="1.67203">
        <ele>4.9</ele>
        <time>2022-04-22T14:00:07Z</time>
      </trkpt>
      <trkpt lat="50.16185" lon="1.67202">
        <ele>4.9</ele>
        <time>2022-04-22T14:00:08Z</time>
      </trkpt>
      <trkpt lat="50.16186" lon="1.672">
        <ele>4.9</ele>
        <time>2022-04-22T14:00:10Z</time>
      </trkpt>
      <trkpt lat="50.16187" lon="1.67199">
        <ele>4.9</ele>
        <time>2022-04-22T14:00:11Z</time>
      </trkpt>
      <trkpt lat="50.16188" lon="1.67197">
        <ele>4.9</ele>
        <time>2022-04-22T14:00:12Z</time>
      </trkpt>
      <trkpt lat="50.16189" lon="1.67195">
        <ele>4.9</ele>
        <time>2022-04-22T14:00:13Z</time>
      </trkpt>
      <trkpt lat="50.1619" lon="1.67194">
        <ele>4.9</ele>
        <time>2022-04-22T14:00:14Z</time>
      </trkpt>
      <trkpt lat="50.16191" lon="1.67192">
        <ele>4.9</ele>
        <time>2022-04-22T14:00:15Z</time>
      </trkpt>
      <trkpt lat="50.16192" lon="1.67191">
        <ele>4.9</ele>
        <time>2022-04-22T14:00:16Z</time>
      </trkpt>
      <trkpt lat="50.16193" lon="1.67188">
        <ele>4.9</ele>
        <time>2022-04-22T14:00:17Z</time>
      </trkpt>
      <trkpt lat="50.16194" lon="1.67187">
        <ele>4.9</ele>
        <time>2022-04-22T14:00:18Z</time>
      </trkpt>
      <trkpt lat="50.16195" lon="1.67186">
        <ele>4.9</ele>
        <time>2022-04-22T14:00:19Z</time>
      </trkpt>
      <trkpt lat="50.16196" lon="1.67185">
        <ele>4.9</ele>
        <time>2022-04-22T14:00:21Z</time>
      </trkpt>
      <trkpt lat="50.16197" lon="1.67183">
        <ele>4.9</ele>
        <time>2022-04-22T14:00:22Z</time>
      </trkpt>
      <trkpt lat="50.16198" lon="1.67181">
        <ele>4.9</ele>
        <time>2022-04-22T14:00:23Z</time>
      </trkpt>
      <trkpt lat="50.16199" lon="1.6718">
        <ele>4.9</ele>
        <time>2022-04-22T14:00:24Z</time>
      </trkpt>
      <trkpt lat="50.162" lon="1.67179">
        <ele>4.9</ele>
        <time>2022-04-22T14:00:25Z</time>
      </trkpt>
      <trkpt lat="50.16202" lon="1.67177">
        <ele>4.9</ele>
        <time>2022-04-22T14:00:26Z</time>
      </trkpt>
      <trkpt lat="50.16202" lon="1.67176">
        <ele>4.8</ele>
        <time>2022-04-22T14:00:27Z</time>
      </trkpt>
      <trkpt lat="50.16203" lon="1.67175">
        <ele>4.8</ele>
        <time>2022-04-22T14:00:28Z</time>
      </trkpt>
      <trkpt lat="50.16204" lon="1.67173">
        <ele>4.8</ele>
        <time>2022-04-22T14:00:29Z</time>
      </trkpt>
      <trkpt lat="50.16205" lon="1.67172">
        <ele>4.8</ele>
        <time>2022-04-22T14:00:30Z</time>
      </trkpt>
      <trkpt lat="50.16205" lon="1.67171">
        <ele>4.8</ele>
        <time>2022-04-22T14:00:31Z</time>
      </trkpt>
      <trkpt lat="50.16207" lon="1.67169">
        <ele>4.8</ele>
        <time>2022-04-22T14:00:33Z</time>
      </trkpt>
      <trkpt lat="50.16208" lon="1.67168">
        <ele>4.8</ele>
        <time>2022-04-22T14:00:34Z</time>
      </trkpt>
      <trkpt lat="50.16208" lon="1.67168">
        <ele>4.8</ele>
        <time>2022-04-22T14:00:35Z</time>
      </trkpt>
      <trkpt lat="50.16209" lon="1.67167">
        <ele>4.8</ele>
        <time>2022-04-22T14:00:36Z</time>
      </trkpt>
      <trkpt lat="50.1621" lon="1.67165">
        <ele>4.8</ele>
        <time>2022-04-22T14:00:37Z</time>
      </trkpt>
      <trkpt lat="50.16211" lon="1.67164">
        <ele>4.8</ele>
        <time>2022-04-22T14:00:38Z</time>
      </trkpt>
      <trkpt lat="50.16212" lon="1.67163">
        <ele>4.8</ele>
        <time>2022-04-22T14:00:39Z</time>
      </trkpt>
      <trkpt lat="50.16212" lon="1.67162">
        <ele>4.8</ele>
        <time>2022-04-22T14:00:40Z</time>
      </trkpt>
      <trkpt lat="50.16213" lon="1.67161">
        <ele>4.8</ele>
        <time>2022-04-22T14:00:41Z</time>
      </trkpt>
      <trkpt lat="50.16214" lon="1.6716">
        <ele>4.8</ele>
        <time>2022-04-22T14:00:42Z</time>
      </trkpt>
      <trkpt lat="50.16215" lon="1.67158">
        <ele>4.8</ele>
        <time>2022-04-22T14:00:44Z</time>
      </trkpt>
      <trkpt lat="50.16216" lon="1.67157">
        <ele>4.8</ele>
        <time>2022-04-22T14:00:45Z</time>
      </trkpt>
      <trkpt lat="50.16217" lon="1.67155">
        <ele>4.8</ele>
        <time>2022-04-22T14:00:46Z</time>
      </trkpt>
      <trkpt lat="50.16218" lon="1.67155">
        <ele>4.7</ele>
        <time>2022-04-22T14:00:47Z</time>
      </trkpt>
      <trkpt lat="50.16218" lon="1.67154">
        <ele>4.7</ele>
        <time>2022-04-22T14:00:48Z</time>
      </trkpt>
      <trkpt lat="50.16219" lon="1.67153">
        <ele>4.7</ele>
        <time>2022-04-22T14:00:49Z</time>
      </trkpt>
      <trkpt lat="50.1622" lon="1.67152">
        <ele>4.7</ele>
        <time>2022-04-22T14:00:50Z</time>
      </trkpt>
      <trkpt lat="50.16221" lon="1.67151">
        <ele>4.7</ele>
        <time>2022-04-22T14:00:51Z</time>
      </trkpt>
      <trkpt lat="50.16222" lon="1.6715">
        <ele>4.7</ele>
        <time>2022-04-22T14:00:53Z</time>
      </trkpt>
      <trkpt lat="50.16223" lon="1.67149">
        <ele>4.7</ele>
        <time>2022-04-22T14:00:54Z</time>
      </trkpt>
      <trkpt lat="50.16224" lon="1.67148">
        <ele>4.7</ele>
        <time>2022-04-22T14:00:55Z</time>
      </trkpt>
      <trkpt lat="50.16226" lon="1.67146">
        <ele>4.7</ele>
        <time>2022-04-22T14:00:56Z</time>
      </trkpt>
      <trkpt lat="50.16227" lon="1.67146">
        <ele>4.7</ele>
        <time>2022-04-22T14:00:57Z</time>
      </trkpt>
      <trkpt lat="50.16227" lon="1.67145">
        <ele>4.7</ele>
        <time>2022-04-22T14:00:58Z</time>
      </trkpt>
      <trkpt lat="50.16228" lon="1.67145">
        <ele>4.7</ele>
        <time>2022-04-22T14:00:59Z</time>
      </trkpt>
      <trkpt lat="50.16229" lon="1.67144">
        <ele>4.6</ele>
        <time>2022-04-22T14:01:00Z</time>
      </trkpt>
      <trkpt lat="50.16231" lon="1.67143">
        <ele>4.6</ele>
        <time>2022-04-22T14:01:01Z</time>
      </trkpt>
      <trkpt lat="50.16232" lon="1.67143">
        <ele>4.6</ele>
        <time>2022-04-22T14:01:03Z</time>
      </trkpt>
      <trkpt lat="50.16233" lon="1.67142">
        <ele>4.6</ele>
        <time>2022-04-22T14:01:04Z</time>
      </trkpt>
      <trkpt lat="50.16235" lon="1.6714">
        <ele>4.6</ele>
        <time>2022-04-22T14:01:05Z</time>
      </trkpt>
      <trkpt lat="50.16236" lon="1.67139">
        <ele>4.6</ele>
        <time>2022-04-22T14:01:06Z</time>
      </trkpt>
      <trkpt lat="50.16237" lon="1.67138">
        <ele>4.6</ele>
        <time>2022-04-22T14:01:07Z</time>
      </trkpt>
      <trkpt lat="50.16239" lon="1.67137">
        <ele>4.5</ele>
        <time>2022-04-22T14:01:08Z</time>
      </trkpt>
      <trkpt lat="50.1624" lon="1.67136">
        <ele>4.5</ele>
        <time>2022-04-22T14:01:10Z</time>
      </trkpt>
      <trkpt lat="50.16241" lon="1.67136">
        <ele>4.5</ele>
        <time>2022-04-22T14:01:11Z</time>
      </trkpt>
      <trkpt lat="50.16242" lon="1.67135">
        <ele>4.5</ele>
        <time>2022-04-22T14:01:12Z</time>
      </trkpt>
      <trkpt lat="50.16243" lon="1.67134">
        <ele>4.5</ele>
        <time>2022-04-22T14:01:13Z</time>
      </trkpt>
      <trkpt lat="50.16244" lon="1.67133">
        <ele>4.5</ele>
        <time>2022-04-22T14:01:14Z</time>
      </trkpt>
      <trkpt lat="50.16246" lon="1.67131">
        <ele>4.5</ele>
        <time>2022-04-22T14:01:16Z</time>
      </trkpt>
      <trkpt lat="50.16247" lon="1.6713">
        <ele>4.5</ele>
        <time>2022-04-22T14:01:17Z</time>
      </trkpt>
      <trkpt lat="50.16248" lon="1.67129">
        <ele>4.5</ele>
        <time>2022-04-22T14:01:18Z</time>
      </trkpt>
      <trkpt lat="50.16249" lon="1.67127">
        <ele>4.4</ele>
        <time>2022-04-22T14:01:19Z</time>
      </trkpt>
      <trkpt lat="50.1625" lon="1.67125">
        <ele>4.4</ele>
        <time>2022-04-22T14:01:20Z</time>
      </trkpt>
      <trkpt lat="50.1625" lon="1.67124">
        <ele>4.4</ele>
        <time>2022-04-22T14:01:21Z</time>
      </trkpt>
      <trkpt lat="50.16252" lon="1.67122">
        <ele>4.4</ele>
        <time>2022-04-22T14:01:23Z</time>
      </trkpt>
      <trkpt lat="50.16252" lon="1.6712">
        <ele>4.4</ele>
        <time>2022-04-22T14:01:24Z</time>
      </trkpt>
      <trkpt lat="50.16253" lon="1.67119">
        <ele>4.4</ele>
        <time>2022-04-22T14:01:25Z</time>
      </trkpt>
      <trkpt lat="50.16254" lon="1.67117">
        <ele>4.4</ele>
        <time>2022-04-22T14:01:26Z</time>
      </trkpt>
      <trkpt lat="50.16254" lon="1.67115">
        <ele>4.4</ele>
        <time>2022-04-22T14:01:28Z</time>
      </trkpt>
      <trkpt lat="50.16255" lon="1.67112">
        <ele>4.4</ele>
        <time>2022-04-22T14:01:29Z</time>
      </trkpt>
      <trkpt lat="50.16256" lon="1.67111">
        <ele>4.4</ele>
        <time>2022-04-22T14:01:30Z</time>
      </trkpt>
      <trkpt lat="50.16256" lon="1.6711">
        <ele>4.3</ele>
        <time>2022-04-22T14:01:31Z</time>
      </trkpt>
      <trkpt lat="50.16257" lon="1.67107">
        <ele>4.3</ele>
        <time>2022-04-22T14:01:32Z</time>
      </trkpt>
      <trkpt lat="50.16257" lon="1.67106">
        <ele>4.3</ele>
        <time>2022-04-22T14:01:33Z</time>
      </trkpt>
      <trkpt lat="50.16258" lon="1.67104">
        <ele>4.3</ele>
        <time>2022-04-22T14:01:34Z</time>
      </trkpt>
      <trkpt lat="50.16258" lon="1.67103">
        <ele>4.3</ele>
        <time>2022-04-22T14:01:35Z</time>
      </trkpt>
      <trkpt lat="50.16258" lon="1.67101">
        <ele>4.3</ele>
        <time>2022-04-22T14:01:36Z</time>
      </trkpt>
      <trkpt lat="50.16259" lon="1.671">
        <ele>4.3</ele>
        <time>2022-04-22T14:01:37Z</time>
      </trkpt>
      <trkpt lat="50.1626" lon="1.67099">
        <ele>4.3</ele>
        <time>2022-04-22T14:01:38Z</time>
      </trkpt>
      <trkpt lat="50.1626" lon="1.67097">
        <ele>4.3</ele>
        <time>2022-04-22T14:01:40Z</time>
      </trkpt>
      <trkpt lat="50.16261" lon="1.67096">
        <ele>4.3</ele>
        <time>2022-04-22T14:01:41Z</time>
      </trkpt>
      <trkpt lat="50.16261" lon="1.67094">
        <ele>4.3</ele>
        <time>2022-04-22T14:01:42Z</time>
      </trkpt>
      <trkpt lat="50.16262" lon="1.67093">
        <ele>4.3</ele>
        <time>2022-04-22T14:01:43Z</time>
      </trkpt>
      <trkpt lat="50.16263" lon="1.67091">
        <ele>4.3</ele>
        <time>2022-04-22T14:01:44Z</time>
      </trkpt>
      <trkpt lat="50.16264" lon="1.67088">
        <ele>4.3</ele>
        <time>2022-04-22T14:01:45Z</time>
      </trkpt>
      <trkpt lat="50.16264" lon="1.67087">
        <ele>4.3</ele>
        <time>2022-04-22T14:01:46Z</time>
      </trkpt>
      <trkpt lat="50.16265" lon="1.67086">
        <ele>4.3</ele>
        <time>2022-04-22T14:01:47Z</time>
      </trkpt>
      <trkpt lat="50.16266" lon="1.67085">
        <ele>4.3</ele>
        <time>2022-04-22T14:01:48Z</time>
      </trkpt>
      <trkpt lat="50.16266" lon="1.67083">
        <ele>4.3</ele>
        <time>2022-04-22T14:01:49Z</time>
      </trkpt>
      <trkpt lat="50.16267" lon="1.67082">
        <ele>4.3</ele>
        <time>2022-04-22T14:01:50Z</time>
      </trkpt>
      <trkpt lat="50.16268" lon="1.67079">
        <ele>4.3</ele>
        <time>2022-04-22T14:01:52Z</time>
      </trkpt>
      <trkpt lat="50.16269" lon="1.67078">
        <ele>4.3</ele>
        <time>2022-04-22T14:01:53Z</time>
      </trkpt>
      <trkpt lat="50.16269" lon="1.67076">
        <ele>4.3</ele>
        <time>2022-04-22T14:01:54Z</time>
      </trkpt>
      <trkpt lat="50.1627" lon="1.67074">
        <ele>4.3</ele>
        <time>2022-04-22T14:01:55Z</time>
      </trkpt>
      <trkpt lat="50.16271" lon="1.67073">
        <ele>4.3</ele>
        <time>2022-04-22T14:01:56Z</time>
      </trkpt>
      <trkpt lat="50.16271" lon="1.67071">
        <ele>4.3</ele>
        <time>2022-04-22T14:01:57Z</time>
      </trkpt>
      <trkpt lat="50.16272" lon="1.67069">
        <ele>4.3</ele>
        <time>2022-04-22T14:01:58Z</time>
      </trkpt>
      <trkpt lat="50.16272" lon="1.67067">
        <ele>4.3</ele>
        <time>2022-04-22T14:01:59Z</time>
      </trkpt>
      <trkpt lat="50.16272" lon="1.67066">
        <ele>4.3</ele>
        <time>2022-04-22T14:02:00Z</time>
      </trkpt>
      <trkpt lat="50.16273" lon="1.67065">
        <ele>4.3</ele>
        <time>2022-04-22T14:02:01Z</time>
      </trkpt>
      <trkpt lat="50.16274" lon="1.67063">
        <ele>4.3</ele>
        <time>2022-04-22T14:02:02Z</time>
      </trkpt>
      <trkpt lat="50.16275" lon="1.6706">
        <ele>4.3</ele>
        <time>2022-04-22T14:02:03Z</time>
      </trkpt>
      <trkpt lat="50.16276" lon="1.67058">
        <ele>4.3</ele>
        <time>2022-04-22T14:02:05Z</time>
      </trkpt>
      <trkpt lat="50.16277" lon="1.67057">
        <ele>4.3</ele>
        <time>2022-04-22T14:02:06Z</time>
      </trkpt>
      <trkpt lat="50.16277" lon="1.67055">
        <ele>4.4</ele>
        <time>2022-04-22T14:02:07Z</time>
      </trkpt>
      <trkpt lat="50.16278" lon="1.67054">
        <ele>4.4</ele>
        <time>2022-04-22T14:02:08Z</time>
      </trkpt>
      <trkpt lat="50.16279" lon="1.67052">
        <ele>4.4</ele>
        <time>2022-04-22T14:02:09Z</time>
      </trkpt>
      <trkpt lat="50.1628" lon="1.67051">
        <ele>4.4</ele>
        <time>2022-04-22T14:02:10Z</time>
      </trkpt>
      <trkpt lat="50.16281" lon="1.6705">
        <ele>4.4</ele>
        <time>2022-04-22T14:02:11Z</time>
      </trkpt>
      <trkpt lat="50.16282" lon="1.67048">
        <ele>4.4</ele>
        <time>2022-04-22T14:02:13Z</time>
      </trkpt>
      <trkpt lat="50.16282" lon="1.67046">
        <ele>4.4</ele>
        <time>2022-04-22T14:02:14Z</time>
      </trkpt>
      <trkpt lat="50.16284" lon="1.67044">
        <ele>4.4</ele>
        <time>2022-04-22T14:02:15Z</time>
      </trkpt>
      <trkpt lat="50.16284" lon="1.67043">
        <ele>4.4</ele>
        <time>2022-04-22T14:02:16Z</time>
      </trkpt>
      <trkpt lat="50.16285" lon="1.67042">
        <ele>4.4</ele>
        <time>2022-04-22T14:02:17Z</time>
      </trkpt>
      <trkpt lat="50.16286" lon="1.6704">
        <ele>4.4</ele>
        <time>2022-04-22T14:02:18Z</time>
      </trkpt>
      <trkpt lat="50.16287" lon="1.67039">
        <ele>4.4</ele>
        <time>2022-04-22T14:02:19Z</time>
      </trkpt>
      <trkpt lat="50.16288" lon="1.67037">
        <ele>4.4</ele>
        <time>2022-04-22T14:02:20Z</time>
      </trkpt>
      <trkpt lat="50.16289" lon="1.67035">
        <ele>4.4</ele>
        <time>2022-04-22T14:02:22Z</time>
      </trkpt>
      <trkpt lat="50.1629" lon="1.67033">
        <ele>4.4</ele>
        <time>2022-04-22T14:02:23Z</time>
      </trkpt>
      <trkpt lat="50.16291" lon="1.67032">
        <ele>4.4</ele>
        <time>2022-04-22T14:02:24Z</time>
      </trkpt>
      <trkpt lat="50.16291" lon="1.6703">
        <ele>4.4</ele>
        <time>2022-04-22T14:02:25Z</time>
      </trkpt>
      <trkpt lat="50.16292" lon="1.67028">
        <ele>4.4</ele>
        <time>2022-04-22T14:02:26Z</time>
      </trkpt>
      <trkpt lat="50.16293" lon="1.67027">
        <ele>4.5</ele>
        <time>2022-04-22T14:02:27Z</time>
      </trkpt>
      <trkpt lat="50.16294" lon="1.67025">
        <ele>4.5</ele>
        <time>2022-04-22T14:02:28Z</time>
      </trkpt>
      <trkpt lat="50.16295" lon="1.67025">
        <ele>4.5</ele>
        <time>2022-04-22T14:02:30Z</time>
      </trkpt>
      <trkpt lat="50.16296" lon="1.67024">
        <ele>4.5</ele>
        <time>2022-04-22T14:02:31Z</time>
      </trkpt>
      <trkpt lat="50.16296" lon="1.67023">
        <ele>4.5</ele>
        <time>2022-04-22T14:02:32Z</time>
      </trkpt>
      <trkpt lat="50.16297" lon="1.67021">
        <ele>4.5</ele>
        <time>2022-04-22T14:02:33Z</time>
      </trkpt>
      <trkpt lat="50.16299" lon="1.67019">
        <ele>4.5</ele>
        <time>2022-04-22T14:02:34Z</time>
      </trkpt>
      <trkpt lat="50.16299" lon="1.67018">
        <ele>4.5</ele>
        <time>2022-04-22T14:02:35Z</time>
      </trkpt>
      <trkpt lat="50.163" lon="1.67017">
        <ele>4.5</ele>
        <time>2022-04-22T14:02:36Z</time>
      </trkpt>
      <trkpt lat="50.16301" lon="1.67015">
        <ele>4.5</ele>
        <time>2022-04-22T14:02:37Z</time>
      </trkpt>
      <trkpt lat="50.16301" lon="1.67014">
        <ele>4.5</ele>
        <time>2022-04-22T14:02:38Z</time>
      </trkpt>
      <trkpt lat="50.16302" lon="1.67012">
        <ele>4.5</ele>
        <time>2022-04-22T14:02:40Z</time>
      </trkpt>
      <trkpt lat="50.16303" lon="1.67011">
        <ele>4.5</ele>
        <time>2022-04-22T14:02:41Z</time>
      </trkpt>
      <trkpt lat="50.16305" lon="1.6701">
        <ele>4.5</ele>
        <time>2022-04-22T14:02:42Z</time>
      </trkpt>
      <trkpt lat="50.16306" lon="1.67008">
        <ele>4.5</ele>
        <time>2022-04-22T14:02:43Z</time>
      </trkpt>
      <trkpt lat="50.16307" lon="1.67007">
        <ele>4.5</ele>
        <time>2022-04-22T14:02:44Z</time>
      </trkpt>
      <trkpt lat="50.16309" lon="1.67005">
        <ele>4.5</ele>
        <time>2022-04-22T14:02:45Z</time>
      </trkpt>
      <trkpt lat="50.16309" lon="1.67004">
        <ele>4.5</ele>
        <time>2022-04-22T14:02:46Z</time>
      </trkpt>
      <trkpt lat="50.1631" lon="1.67003">
        <ele>4.5</ele>
        <time>2022-04-22T14:02:47Z</time>
      </trkpt>
      <trkpt lat="50.16311" lon="1.67002">
        <ele>4.5</ele>
        <time>2022-04-22T14:02:48Z</time>
      </trkpt>
      <trkpt lat="50.16312" lon="1.67">
        <ele>4.5</ele>
        <time>2022-04-22T14:02:50Z</time>
      </trkpt>
      <trkpt lat="50.16313" lon="1.66999">
        <ele>4.6</ele>
        <time>2022-04-22T14:02:51Z</time>
      </trkpt>
      <trkpt lat="50.16314" lon="1.66998">
        <ele>4.6</ele>
        <time>2022-04-22T14:02:52Z</time>
      </trkpt>
      <trkpt lat="50.16316" lon="1.66997">
        <ele>4.6</ele>
        <time>2022-04-22T14:02:53Z</time>
      </trkpt>
      <trkpt lat="50.16317" lon="1.66996">
        <ele>4.6</ele>
        <time>2022-04-22T14:02:54Z</time>
      </trkpt>
      <trkpt lat="50.16318" lon="1.66995">
        <ele>4.6</ele>
        <time>2022-04-22T14:02:56Z</time>
      </trkpt>
      <trkpt lat="50.16319" lon="1.66994">
        <ele>4.6</ele>
        <time>2022-04-22T14:02:57Z</time>
      </trkpt>
      <trkpt lat="50.1632" lon="1.66993">
        <ele>4.6</ele>
        <time>2022-04-22T14:02:58Z</time>
      </trkpt>
      <trkpt lat="50.16322" lon="1.66991">
        <ele>4.6</ele>
        <time>2022-04-22T14:02:59Z</time>
      </trkpt>
      <trkpt lat="50.16323" lon="1.6699">
        <ele>4.6</ele>
        <time>2022-04-22T14:03:00Z</time>
      </trkpt>
      <trkpt lat="50.16324" lon="1.66989">
        <ele>4.6</ele>
        <time>2022-04-22T14:03:01Z</time>
      </trkpt>
      <trkpt lat="50.16325" lon="1.66988">
        <ele>4.6</ele>
        <time>2022-04-22T14:03:02Z</time>
      </trkpt>
      <trkpt lat="50.16326" lon="1.66987">
        <ele>4.6</ele>
        <time>2022-04-22T14:03:03Z</time>
      </trkpt>
      <trkpt lat="50.16327" lon="1.66986">
        <ele>4.6</ele>
        <time>2022-04-22T14:03:04Z</time>
      </trkpt>
      <trkpt lat="50.16329" lon="1.66985">
        <ele>4.6</ele>
        <time>2022-04-22T14:03:05Z</time>
      </trkpt>
      <trkpt lat="50.1633" lon="1.66984">
        <ele>4.6</ele>
        <time>2022-04-22T14:03:06Z</time>
      </trkpt>
      <trkpt lat="50.16331" lon="1.66983">
        <ele>4.6</ele>
        <time>2022-04-22T14:03:08Z</time>
      </trkpt>
      <trkpt lat="50.16332" lon="1.66982">
        <ele>4.6</ele>
        <time>2022-04-22T14:03:09Z</time>
      </trkpt>
      <trkpt lat="50.16334" lon="1.6698">
        <ele>4.6</ele>
        <time>2022-04-22T14:03:10Z</time>
      </trkpt>
      <trkpt lat="50.16335" lon="1.66979">
        <ele>4.6</ele>
        <time>2022-04-22T14:03:11Z</time>
      </trkpt>
      <trkpt lat="50.16336" lon="1.66978">
        <ele>4.6</ele>
        <time>2022-04-22T14:03:12Z</time>
      </trkpt>
      <trkpt lat="50.16337" lon="1.66977">
        <ele>4.6</ele>
        <time>2022-04-22T14:03:13Z</time>
      </trkpt>
      <trkpt lat="50.16339" lon="1.66976">
        <ele>4.6</ele>
        <time>2022-04-22T14:03:14Z</time>
      </trkpt>
      <trkpt lat="50.1634" lon="1.66975">
        <ele>4.6</ele>
        <time>2022-04-22T14:03:15Z</time>
      </trkpt>
      <trkpt lat="50.16341" lon="1.66974">
        <ele>4.6</ele>
        <time>2022-04-22T14:03:16Z</time>
      </trkpt>
      <trkpt lat="50.16342" lon="1.66973">
        <ele>4.6</ele>
        <time>2022-04-22T14:03:17Z</time>
      </trkpt>
      <trkpt lat="50.16344" lon="1.66971">
        <ele>4.6</ele>
        <time>2022-04-22T14:03:19Z</time>
      </trkpt>
      <trkpt lat="50.16344" lon="1.6697">
        <ele>4.6</ele>
        <time>2022-04-22T14:03:20Z</time>
      </trkpt>
      <trkpt lat="50.16346" lon="1.66969">
        <ele>4.6</ele>
        <time>2022-04-22T14:03:22Z</time>
      </trkpt>
      <trkpt lat="50.16346" lon="1.66968">
        <ele>4.6</ele>
        <time>2022-04-22T14:03:23Z</time>
      </trkpt>
      <trkpt lat="50.16347" lon="1.66966">
        <ele>4.6</ele>
        <time>2022-04-22T14:03:24Z</time>
      </trkpt>
      <trkpt lat="50.16348" lon="1.66964">
        <ele>4.6</ele>
        <time>2022-04-22T14:03:26Z</time>
      </trkpt>
      <trkpt lat="50.16349" lon="1.66964">
        <ele>4.6</ele>
        <time>2022-04-22T14:03:27Z</time>
      </trkpt>
      <trkpt lat="50.16349" lon="1.66964">
        <ele>4.6</ele>
        <time>2022-04-22T14:03:28Z</time>
      </trkpt>
      <trkpt lat="50.16349" lon="1.66969">
        <ele>4.5</ele>
        <time>2022-04-22T14:03:29Z</time>
      </trkpt>
      <trkpt lat="50.16349" lon="1.66971">
        <ele>4.5</ele>
        <time>2022-04-22T14:03:30Z</time>
      </trkpt>
      <trkpt lat="50.1635" lon="1.66973">
        <ele>4.5</ele>
        <time>2022-04-22T14:03:31Z</time>
      </trkpt>
      <trkpt lat="50.16351" lon="1.66974">
        <ele>4.5</ele>
        <time>2022-04-22T14:03:32Z</time>
      </trkpt>
      <trkpt lat="50.16353" lon="1.66974">
        <ele>4.5</ele>
        <time>2022-04-22T14:03:34Z</time>
      </trkpt>
      <trkpt lat="50.16354" lon="1.66974">
        <ele>4.5</ele>
        <time>2022-04-22T14:03:35Z</time>
      </trkpt>
      <trkpt lat="50.16355" lon="1.66974">
        <ele>4.5</ele>
        <time>2022-04-22T14:03:36Z</time>
      </trkpt>
      <trkpt lat="50.16355" lon="1.66974">
        <ele>4.5</ele>
        <time>2022-04-22T14:03:37Z</time>
      </trkpt>
      <trkpt lat="50.16356" lon="1.66974">
        <ele>4.5</ele>
        <time>2022-04-22T14:03:38Z</time>
      </trkpt>
      <trkpt lat="50.16356" lon="1.66975">
        <ele>4.5</ele>
        <time>2022-04-22T14:03:39Z</time>
      </trkpt>
      <trkpt lat="50.16354" lon="1.66975">
        <ele>4.5</ele>
        <time>2022-04-22T14:03:41Z</time>
      </trkpt>
      <trkpt lat="50.16354" lon="1.66975">
        <ele>4.5</ele>
        <time>2022-04-22T14:03:42Z</time>
      </trkpt>
      <trkpt lat="50.16355" lon="1.66975">
        <ele>4.5</ele>
        <time>2022-04-22T14:03:43Z</time>
      </trkpt>
      <trkpt lat="50.16355" lon="1.66975">
        <ele>4.5</ele>
        <time>2022-04-22T14:03:44Z</time>
      </trkpt>
      <trkpt lat="50.16355" lon="1.66975">
        <ele>4.5</ele>
        <time>2022-04-22T14:03:45Z</time>
      </trkpt>
      <trkpt lat="50.16355" lon="1.66975">
        <ele>4.5</ele>
        <time>2022-04-22T14:03:46Z</time>
      </trkpt>
      <trkpt lat="50.16354" lon="1.66974">
        <ele>4.5</ele>
        <time>2022-04-22T14:03:47Z</time>
      </trkpt>
      <trkpt lat="50.16354" lon="1.66974">
        <ele>4.5</ele>
        <time>2022-04-22T14:03:48Z</time>
      </trkpt>
      <trkpt lat="50.16355" lon="1.66974">
        <ele>4.5</ele>
        <time>2022-04-22T14:03:49Z</time>
      </trkpt>
      <trkpt lat="50.16356" lon="1.66974">
        <ele>4.5</ele>
        <time>2022-04-22T14:03:50Z</time>
      </trkpt>
      <trkpt lat="50.16356" lon="1.66974">
        <ele>4.5</ele>
        <time>2022-04-22T14:03:52Z</time>
      </trkpt>
      <trkpt lat="50.16357" lon="1.66973">
        <ele>4.5</ele>
        <time>2022-04-22T14:03:53Z</time>
      </trkpt>
      <trkpt lat="50.16358" lon="1.66973">
        <ele>4.5</ele>
        <time>2022-04-22T14:03:54Z</time>
      </trkpt>
      <trkpt lat="50.16359" lon="1.66972">
        <ele>4.5</ele>
        <time>2022-04-22T14:03:55Z</time>
      </trkpt>
      <trkpt lat="50.16361" lon="1.66972">
        <ele>4.5</ele>
        <time>2022-04-22T14:03:57Z</time>
      </trkpt>
      <trkpt lat="50.16361" lon="1.66972">
        <ele>4.5</ele>
        <time>2022-04-22T14:03:58Z</time>
      </trkpt>
      <trkpt lat="50.16361" lon="1.66972">
        <ele>4.5</ele>
        <time>2022-04-22T14:03:59Z</time>
      </trkpt>
      <trkpt lat="50.16362" lon="1.66971">
        <ele>4.5</ele>
        <time>2022-04-22T14:04:00Z</time>
      </trkpt>
      <trkpt lat="50.16361" lon="1.66971">
        <ele>4.5</ele>
        <time>2022-04-22T14:04:01Z</time>
      </trkpt>
      <trkpt lat="50.16361" lon="1.66971">
        <ele>4.5</ele>
        <time>2022-04-22T14:04:02Z</time>
      </trkpt>
      <trkpt lat="50.16361" lon="1.66971">
        <ele>4.5</ele>
        <time>2022-04-22T14:04:03Z</time>
      </trkpt>
      <trkpt lat="50.16361" lon="1.6697">
        <ele>4.5</ele>
        <time>2022-04-22T14:04:04Z</time>
      </trkpt>
      <trkpt lat="50.1636" lon="1.6697">
        <ele>4.5</ele>
        <time>2022-04-22T14:04:05Z</time>
      </trkpt>
      <trkpt lat="50.1636" lon="1.6697">
        <ele>4.5</ele>
        <time>2022-04-22T14:04:06Z</time>
      </trkpt>
      <trkpt lat="50.1636" lon="1.6697">
        <ele>4.5</ele>
        <time>2022-04-22T14:04:07Z</time>
      </trkpt>
      <trkpt lat="50.1636" lon="1.6697">
        <ele>4.5</ele>
        <time>2022-04-22T14:04:08Z</time>
      </trkpt>
      <trkpt lat="50.1636" lon="1.6697">
        <ele>4.5</ele>
        <time>2022-04-22T14:04:10Z</time>
      </trkpt>
      <trkpt lat="50.16361" lon="1.66969">
        <ele>4.5</ele>
        <time>2022-04-22T14:04:11Z</time>
      </trkpt>
      <trkpt lat="50.16361" lon="1.66969">
        <ele>4.5</ele>
        <time>2022-04-22T14:04:12Z</time>
      </trkpt>
      <trkpt lat="50.16361" lon="1.66969">
        <ele>4.5</ele>
        <time>2022-04-22T14:04:13Z</time>
      </trkpt>
      <trkpt lat="50.16362" lon="1.66969">
        <ele>4.5</ele>
        <time>2022-04-22T14:04:14Z</time>
      </trkpt>
      <trkpt lat="50.16361" lon="1.66969">
        <ele>4.5</ele>
        <time>2022-04-22T14:04:15Z</time>
      </trkpt>
      <trkpt lat="50.1636" lon="1.66969">
        <ele>4.5</ele>
        <time>2022-04-22T14:04:16Z</time>
      </trkpt>
      <trkpt lat="50.1636" lon="1.66969">
        <ele>4.5</ele>
        <time>2022-04-22T14:04:17Z</time>
      </trkpt>
      <trkpt lat="50.1636" lon="1.66969">
        <ele>4.5</ele>
        <time>2022-04-22T14:04:18Z</time>
      </trkpt>
      <trkpt lat="50.1636" lon="1.66969">
        <ele>4.5</ele>
        <time>2022-04-22T14:04:19Z</time>
      </trkpt>
      <trkpt lat="50.16361" lon="1.66969">
        <ele>4.5</ele>
        <time>2022-04-22T14:04:20Z</time>
      </trkpt>
      <trkpt lat="50.16362" lon="1.66969">
        <ele>4.5</ele>
        <time>2022-04-22T14:04:21Z</time>
      </trkpt>
      <trkpt lat="50.16362" lon="1.66968">
        <ele>4.5</ele>
        <time>2022-04-22T14:04:22Z</time>
      </trkpt>
      <trkpt lat="50.16362" lon="1.66967">
        <ele>4.5</ele>
        <time>2022-04-22T14:04:23Z</time>
      </trkpt>
      <trkpt lat="50.16363" lon="1.66966">
        <ele>4.5</ele>
        <time>2022-04-22T14:04:24Z</time>
      </trkpt>
      <trkpt lat="50.16364" lon="1.66964">
        <ele>4.5</ele>
        <time>2022-04-22T14:04:25Z</time>
      </trkpt>
      <trkpt lat="50.16366" lon="1.66963">
        <ele>4.5</ele>
        <time>2022-04-22T14:04:26Z</time>
      </trkpt>
      <trkpt lat="50.16367" lon="1.66961">
        <ele>4.5</ele>
        <time>2022-04-22T14:04:28Z</time>
      </trkpt>
      <trkpt lat="50.16368" lon="1.66959">
        <ele>4.5</ele>
        <time>2022-04-22T14:04:29Z</time>
      </trkpt>
      <trkpt lat="50.16369" lon="1.66958">
        <ele>4.5</ele>
        <time>2022-04-22T14:04:30Z</time>
      </trkpt>
      <trkpt lat="50.16371" lon="1.66957">
        <ele>4.5</ele>
        <time>2022-04-22T14:04:31Z</time>
      </trkpt>
      <trkpt lat="50.16372" lon="1.66957">
        <ele>4.5</ele>
        <time>2022-04-22T14:04:32Z</time>
      </trkpt>
      <trkpt lat="50.16372" lon="1.66957">
        <ele>4.5</ele>
        <time>2022-04-22T14:04:33Z</time>
      </trkpt>
      <trkpt lat="50.16373" lon="1.66956">
        <ele>4.5</ele>
        <time>2022-04-22T14:04:34Z</time>
      </trkpt>
      <trkpt lat="50.16374" lon="1.66956">
        <ele>4.5</ele>
        <time>2022-04-22T14:04:35Z</time>
      </trkpt>
      <trkpt lat="50.16375" lon="1.66956">
        <ele>4.5</ele>
        <time>2022-04-22T14:04:36Z</time>
      </trkpt>
      <trkpt lat="50.16376" lon="1.66956">
        <ele>4.5</ele>
        <time>2022-04-22T14:04:37Z</time>
      </trkpt>
      <trkpt lat="50.16377" lon="1.66955">
        <ele>4.5</ele>
        <time>2022-04-22T14:04:38Z</time>
      </trkpt>
      <trkpt lat="50.16378" lon="1.66955">
        <ele>4.5</ele>
        <time>2022-04-22T14:04:39Z</time>
      </trkpt>
      <trkpt lat="50.16379" lon="1.66954">
        <ele>4.5</ele>
        <time>2022-04-22T14:04:41Z</time>
      </trkpt>
      <trkpt lat="50.16381" lon="1.66952">
        <ele>4.5</ele>
        <time>2022-04-22T14:04:42Z</time>
      </trkpt>
      <trkpt lat="50.16382" lon="1.66952">
        <ele>4.5</ele>
        <time>2022-04-22T14:04:43Z</time>
      </trkpt>
      <trkpt lat="50.16383" lon="1.66951">
        <ele>4.5</ele>
        <time>2022-04-22T14:04:44Z</time>
      </trkpt>
      <trkpt lat="50.16384" lon="1.6695">
        <ele>4.5</ele>
        <time>2022-04-22T14:04:45Z</time>
      </trkpt>
      <trkpt lat="50.16385" lon="1.66949">
        <ele>4.5</ele>
        <time>2022-04-22T14:04:46Z</time>
      </trkpt>
      <trkpt lat="50.16386" lon="1.66947">
        <ele>4.5</ele>
        <time>2022-04-22T14:04:47Z</time>
      </trkpt>
      <trkpt lat="50.16388" lon="1.66946">
        <ele>4.5</ele>
        <time>2022-04-22T14:04:48Z</time>
      </trkpt>
      <trkpt lat="50.16389" lon="1.66945">
        <ele>4.5</ele>
        <time>2022-04-22T14:04:49Z</time>
      </trkpt>
      <trkpt lat="50.16391" lon="1.66944">
        <ele>4.5</ele>
        <time>2022-04-22T14:04:51Z</time>
      </trkpt>
      <trkpt lat="50.16394" lon="1.66942">
        <ele>4.5</ele>
        <time>2022-04-22T14:04:52Z</time>
      </trkpt>
      <trkpt lat="50.16395" lon="1.6694">
        <ele>4.5</ele>
        <time>2022-04-22T14:04:53Z</time>
      </trkpt>
      <trkpt lat="50.16397" lon="1.66939">
        <ele>4.5</ele>
        <time>2022-04-22T14:04:54Z</time>
      </trkpt>
      <trkpt lat="50.16398" lon="1.66939">
        <ele>4.5</ele>
        <time>2022-04-22T14:04:55Z</time>
      </trkpt>
      <trkpt lat="50.164" lon="1.66938">
        <ele>4.5</ele>
        <time>2022-04-22T14:04:56Z</time>
      </trkpt>
      <trkpt lat="50.16401" lon="1.66937">
        <ele>4.5</ele>
        <time>2022-04-22T14:04:57Z</time>
      </trkpt>
      <trkpt lat="50.16403" lon="1.66936">
        <ele>4.5</ele>
        <time>2022-04-22T14:04:58Z</time>
      </trkpt>
      <trkpt lat="50.16404" lon="1.66935">
        <ele>4.5</ele>
        <time>2022-04-22T14:04:59Z</time>
      </trkpt>
      <trkpt lat="50.16405" lon="1.66934">
        <ele>4.5</ele>
        <time>2022-04-22T14:05:00Z</time>
      </trkpt>
      <trkpt lat="50.16407" lon="1.66933">
        <ele>4.5</ele>
        <time>2022-04-22T14:05:01Z</time>
      </trkpt>
      <trkpt lat="50.16408" lon="1.66933">
        <ele>4.5</ele>
        <time>2022-04-22T14:05:02Z</time>
      </trkpt>
      <trkpt lat="50.1641" lon="1.66932">
        <ele>4.5</ele>
        <time>2022-04-22T14:05:04Z</time>
      </trkpt>
      <trkpt lat="50.16411" lon="1.66931">
        <ele>4.5</ele>
        <time>2022-04-22T14:05:05Z</time>
      </trkpt>
      <trkpt lat="50.16413" lon="1.6693">
        <ele>4.5</ele>
        <time>2022-04-22T14:05:06Z</time>
      </trkpt>
      <trkpt lat="50.16415" lon="1.66928">
        <ele>4.4</ele>
        <time>2022-04-22T14:05:07Z</time>
      </trkpt>
      <trkpt lat="50.16416" lon="1.66928">
        <ele>4.4</ele>
        <time>2022-04-22T14:05:08Z</time>
      </trkpt>
      <trkpt lat="50.16418" lon="1.66926">
        <ele>4.4</ele>
        <time>2022-04-22T14:05:10Z</time>
      </trkpt>
      <trkpt lat="50.16419" lon="1.66925">
        <ele>4.4</ele>
        <time>2022-04-22T14:05:11Z</time>
      </trkpt>
      <trkpt lat="50.1642" lon="1.66925">
        <ele>4.4</ele>
        <time>2022-04-22T14:05:12Z</time>
      </trkpt>
      <trkpt lat="50.16422" lon="1.66924">
        <ele>4.4</ele>
        <time>2022-04-22T14:05:13Z</time>
      </trkpt>
      <trkpt lat="50.16424" lon="1.66923">
        <ele>4.4</ele>
        <time>2022-04-22T14:05:14Z</time>
      </trkpt>
      <trkpt lat="50.16425" lon="1.66923">
        <ele>4.4</ele>
        <time>2022-04-22T14:05:15Z</time>
      </trkpt>
      <trkpt lat="50.16428" lon="1.66922">
        <ele>4.4</ele>
        <time>2022-04-22T14:05:17Z</time>
      </trkpt>
      <trkpt lat="50.16429" lon="1.66922">
        <ele>4.4</ele>
        <time>2022-04-22T14:05:18Z</time>
      </trkpt>
      <trkpt lat="50.16431" lon="1.66922">
        <ele>4.4</ele>
        <time>2022-04-22T14:05:19Z</time>
      </trkpt>
      <trkpt lat="50.16433" lon="1.66921">
        <ele>4.4</ele>
        <time>2022-04-22T14:05:20Z</time>
      </trkpt>
      <trkpt lat="50.16434" lon="1.6692">
        <ele>4.4</ele>
        <time>2022-04-22T14:05:21Z</time>
      </trkpt>
      <trkpt lat="50.16436" lon="1.6692">
        <ele>4.4</ele>
        <time>2022-04-22T14:05:22Z</time>
      </trkpt>
      <trkpt lat="50.16437" lon="1.66919">
        <ele>4.4</ele>
        <time>2022-04-22T14:05:23Z</time>
      </trkpt>
      <trkpt lat="50.16439" lon="1.66917">
        <ele>4.4</ele>
        <time>2022-04-22T14:05:24Z</time>
      </trkpt>
      <trkpt lat="50.16441" lon="1.66916">
        <ele>4.4</ele>
        <time>2022-04-22T14:05:26Z</time>
      </trkpt>
      <trkpt lat="50.16442" lon="1.66914">
        <ele>4.4</ele>
        <time>2022-04-22T14:05:27Z</time>
      </trkpt>
      <trkpt lat="50.16443" lon="1.66913">
        <ele>4.4</ele>
        <time>2022-04-22T14:05:28Z</time>
      </trkpt>
      <trkpt lat="50.16444" lon="1.66912">
        <ele>4.4</ele>
        <time>2022-04-22T14:05:29Z</time>
      </trkpt>
      <trkpt lat="50.16445" lon="1.6691">
        <ele>4.4</ele>
        <time>2022-04-22T14:05:30Z</time>
      </trkpt>
      <trkpt lat="50.16447" lon="1.66909">
        <ele>4.4</ele>
        <time>2022-04-22T14:05:31Z</time>
      </trkpt>
      <trkpt lat="50.16448" lon="1.66908">
        <ele>4.4</ele>
        <time>2022-04-22T14:05:32Z</time>
      </trkpt>
      <trkpt lat="50.16448" lon="1.66908">
        <ele>4.4</ele>
        <time>2022-04-22T14:05:33Z</time>
      </trkpt>
      <trkpt lat="50.1645" lon="1.66907">
        <ele>4.4</ele>
        <time>2022-04-22T14:05:35Z</time>
      </trkpt>
      <trkpt lat="50.16451" lon="1.66907">
        <ele>4.4</ele>
        <time>2022-04-22T14:05:36Z</time>
      </trkpt>
      <trkpt lat="50.16452" lon="1.66907">
        <ele>4.4</ele>
        <time>2022-04-22T14:05:37Z</time>
      </trkpt>
      <trkpt lat="50.16453" lon="1.66906">
        <ele>4.4</ele>
        <time>2022-04-22T14:05:38Z</time>
      </trkpt>
      <trkpt lat="50.16454" lon="1.66906">
        <ele>4.4</ele>
        <time>2022-04-22T14:05:39Z</time>
      </trkpt>
      <trkpt lat="50.16456" lon="1.66905">
        <ele>4.4</ele>
        <time>2022-04-22T14:05:40Z</time>
      </trkpt>
      <trkpt lat="50.16457" lon="1.66905">
        <ele>4.4</ele>
        <time>2022-04-22T14:05:41Z</time>
      </trkpt>
      <trkpt lat="50.16457" lon="1.66904">
        <ele>4.4</ele>
        <time>2022-04-22T14:05:42Z</time>
      </trkpt>
      <trkpt lat="50.16458" lon="1.66904">
        <ele>4.4</ele>
        <time>2022-04-22T14:05:43Z</time>
      </trkpt>
      <trkpt lat="50.16459" lon="1.66903">
        <ele>4.4</ele>
        <time>2022-04-22T14:05:44Z</time>
      </trkpt>
      <trkpt lat="50.16461" lon="1.66903">
        <ele>4.4</ele>
        <time>2022-04-22T14:05:45Z</time>
      </trkpt>
      <trkpt lat="50.16462" lon="1.66902">
        <ele>4.4</ele>
        <time>2022-04-22T14:05:46Z</time>
      </trkpt>
      <trkpt lat="50.16463" lon="1.66902">
        <ele>4.4</ele>
        <time>2022-04-22T14:05:47Z</time>
      </trkpt>
      <trkpt lat="50.16464" lon="1.66901">
        <ele>4.4</ele>
        <time>2022-04-22T14:05:48Z</time>
      </trkpt>
      <trkpt lat="50.16467" lon="1.669">
        <ele>4.4</ele>
        <time>2022-04-22T14:05:50Z</time>
      </trkpt>
      <trkpt lat="50.16467" lon="1.669">
        <ele>4.4</ele>
        <time>2022-04-22T14:05:51Z</time>
      </trkpt>
      <trkpt lat="50.16468" lon="1.669">
        <ele>4.4</ele>
        <time>2022-04-22T14:05:52Z</time>
      </trkpt>
      <trkpt lat="50.1647" lon="1.66899">
        <ele>4.4</ele>
        <time>2022-04-22T14:05:53Z</time>
      </trkpt>
      <trkpt lat="50.16471" lon="1.66899">
        <ele>4.4</ele>
        <time>2022-04-22T14:05:54Z</time>
      </trkpt>
      <trkpt lat="50.16472" lon="1.66899">
        <ele>4.4</ele>
        <time>2022-04-22T14:05:55Z</time>
      </trkpt>
      <trkpt lat="50.16473" lon="1.66898">
        <ele>4.4</ele>
        <time>2022-04-22T14:05:56Z</time>
      </trkpt>
      <trkpt lat="50.16474" lon="1.66898">
        <ele>4.4</ele>
        <time>2022-04-22T14:05:57Z</time>
      </trkpt>
      <trkpt lat="50.16475" lon="1.66898">
        <ele>4.4</ele>
        <time>2022-04-22T14:05:58Z</time>
      </trkpt>
      <trkpt lat="50.16478" lon="1.66896">
        <ele>4.4</ele>
        <time>2022-04-22T14:06:00Z</time>
      </trkpt>
      <trkpt lat="50.16479" lon="1.66896">
        <ele>4.4</ele>
        <time>2022-04-22T14:06:01Z</time>
      </trkpt>
      <trkpt lat="50.16481" lon="1.66895">
        <ele>4.4</ele>
        <time>2022-04-22T14:06:02Z</time>
      </trkpt>
      <trkpt lat="50.16482" lon="1.66894">
        <ele>4.4</ele>
        <time>2022-04-22T14:06:03Z</time>
      </trkpt>
      <trkpt lat="50.16482" lon="1.66894">
        <ele>4.4</ele>
        <time>2022-04-22T14:06:04Z</time>
      </trkpt>
      <trkpt lat="50.16484" lon="1.66892">
        <ele>4.4</ele>
        <time>2022-04-22T14:06:05Z</time>
      </trkpt>
      <trkpt lat="50.16485" lon="1.66892">
        <ele>4.4</ele>
        <time>2022-04-22T14:06:06Z</time>
      </trkpt>
      <trkpt lat="50.16487" lon="1.6689">
        <ele>4.4</ele>
        <time>2022-04-22T14:06:07Z</time>
      </trkpt>
      <trkpt lat="50.16488" lon="1.6689">
        <ele>4.4</ele>
        <time>2022-04-22T14:06:08Z</time>
      </trkpt>
      <trkpt lat="50.16489" lon="1.66889">
        <ele>4.4</ele>
        <time>2022-04-22T14:06:09Z</time>
      </trkpt>
      <trkpt lat="50.16492" lon="1.66888">
        <ele>4.4</ele>
        <time>2022-04-22T14:06:10Z</time>
      </trkpt>
      <trkpt lat="50.16493" lon="1.66887">
        <ele>4.4</ele>
        <time>2022-04-22T14:06:12Z</time>
      </trkpt>
      <trkpt lat="50.16494" lon="1.66887">
        <ele>4.4</ele>
        <time>2022-04-22T14:06:13Z</time>
      </trkpt>
      <trkpt lat="50.16495" lon="1.66886">
        <ele>4.4</ele>
        <time>2022-04-22T14:06:14Z</time>
      </trkpt>
      <trkpt lat="50.16496" lon="1.66885">
        <ele>4.4</ele>
        <time>2022-04-22T14:06:15Z</time>
      </trkpt>
      <trkpt lat="50.16497" lon="1.66885">
        <ele>4.4</ele>
        <time>2022-04-22T14:06:16Z</time>
      </trkpt>
      <trkpt lat="50.16498" lon="1.66884">
        <ele>4.4</ele>
        <time>2022-04-22T14:06:17Z</time>
      </trkpt>
      <trkpt lat="50.16499" lon="1.66883">
        <ele>4.4</ele>
        <time>2022-04-22T14:06:18Z</time>
      </trkpt>
      <trkpt lat="50.165" lon="1.66881">
        <ele>4.4</ele>
        <time>2022-04-22T14:06:19Z</time>
      </trkpt>
      <trkpt lat="50.16501" lon="1.6688">
        <ele>4.4</ele>
        <time>2022-04-22T14:06:20Z</time>
      </trkpt>
      <trkpt lat="50.16502" lon="1.6688">
        <ele>4.4</ele>
        <time>2022-04-22T14:06:21Z</time>
      </trkpt>
      <trkpt lat="50.16503" lon="1.66878">
        <ele>4.4</ele>
        <time>2022-04-22T14:06:23Z</time>
      </trkpt>
      <trkpt lat="50.16504" lon="1.66877">
        <ele>4.4</ele>
        <time>2022-04-22T14:06:24Z</time>
      </trkpt>
      <trkpt lat="50.16506" lon="1.66875">
        <ele>4.4</ele>
        <time>2022-04-22T14:06:25Z</time>
      </trkpt>
      <trkpt lat="50.16507" lon="1.66875">
        <ele>4.3</ele>
        <time>2022-04-22T14:06:26Z</time>
      </trkpt>
      <trkpt lat="50.16508" lon="1.66874">
        <ele>4.3</ele>
        <time>2022-04-22T14:06:27Z</time>
      </trkpt>
      <trkpt lat="50.16509" lon="1.66874">
        <ele>4.3</ele>
        <time>2022-04-22T14:06:28Z</time>
      </trkpt>
      <trkpt lat="50.1651" lon="1.66873">
        <ele>4.3</ele>
        <time>2022-04-22T14:06:30Z</time>
      </trkpt>
      <trkpt lat="50.16511" lon="1.66873">
        <ele>4.3</ele>
        <time>2022-04-22T14:06:31Z</time>
      </trkpt>
      <trkpt lat="50.16513" lon="1.66873">
        <ele>4.3</ele>
        <time>2022-04-22T14:06:32Z</time>
      </trkpt>
      <trkpt lat="50.16514" lon="1.66872">
        <ele>4.3</ele>
        <time>2022-04-22T14:06:33Z</time>
      </trkpt>
      <trkpt lat="50.16515" lon="1.66872">
        <ele>4.3</ele>
        <time>2022-04-22T14:06:34Z</time>
      </trkpt>
      <trkpt lat="50.16517" lon="1.66871">
        <ele>4.3</ele>
        <time>2022-04-22T14:06:35Z</time>
      </trkpt>
      <trkpt lat="50.16518" lon="1.66871">
        <ele>4.3</ele>
        <time>2022-04-22T14:06:37Z</time>
      </trkpt>
      <trkpt lat="50.16519" lon="1.66871">
        <ele>4.3</ele>
        <time>2022-04-22T14:06:38Z</time>
      </trkpt>
      <trkpt lat="50.1652" lon="1.66871">
        <ele>4.3</ele>
        <time>2022-04-22T14:06:39Z</time>
      </trkpt>
      <trkpt lat="50.16521" lon="1.66871">
        <ele>4.3</ele>
        <time>2022-04-22T14:06:40Z</time>
      </trkpt>
      <trkpt lat="50.16522" lon="1.66871">
        <ele>4.3</ele>
        <time>2022-04-22T14:06:41Z</time>
      </trkpt>
      <trkpt lat="50.16523" lon="1.66871">
        <ele>4.3</ele>
        <time>2022-04-22T14:06:43Z</time>
      </trkpt>
      <trkpt lat="50.16524" lon="1.6687">
        <ele>4.3</ele>
        <time>2022-04-22T14:06:44Z</time>
      </trkpt>
      <trkpt lat="50.16525" lon="1.6687">
        <ele>4.3</ele>
        <time>2022-04-22T14:06:45Z</time>
      </trkpt>
      <trkpt lat="50.16527" lon="1.66869">
        <ele>4.2</ele>
        <time>2022-04-22T14:06:46Z</time>
      </trkpt>
      <trkpt lat="50.16528" lon="1.66869">
        <ele>4.2</ele>
        <time>2022-04-22T14:06:47Z</time>
      </trkpt>
      <trkpt lat="50.16529" lon="1.66868">
        <ele>4.2</ele>
        <time>2022-04-22T14:06:48Z</time>
      </trkpt>
      <trkpt lat="50.1653" lon="1.66867">
        <ele>4.2</ele>
        <time>2022-04-22T14:06:50Z</time>
      </trkpt>
      <trkpt lat="50.16531" lon="1.66866">
        <ele>4.2</ele>
        <time>2022-04-22T14:06:51Z</time>
      </trkpt>
      <trkpt lat="50.16533" lon="1.66865">
        <ele>4.2</ele>
        <time>2022-04-22T14:06:52Z</time>
      </trkpt>
      <trkpt lat="50.16534" lon="1.66864">
        <ele>4.2</ele>
        <time>2022-04-22T14:06:53Z</time>
      </trkpt>
      <trkpt lat="50.16536" lon="1.66863">
        <ele>4.2</ele>
        <time>2022-04-22T14:06:54Z</time>
      </trkpt>
      <trkpt lat="50.16537" lon="1.66863">
        <ele>4.2</ele>
        <time>2022-04-22T14:06:55Z</time>
      </trkpt>
      <trkpt lat="50.16539" lon="1.66862">
        <ele>4.2</ele>
        <time>2022-04-22T14:06:56Z</time>
      </trkpt>
      <trkpt lat="50.1654" lon="1.66861">
        <ele>4.2</ele>
        <time>2022-04-22T14:06:57Z</time>
      </trkpt>
      <trkpt lat="50.16541" lon="1.6686">
        <ele>4.2</ele>
        <time>2022-04-22T14:06:58Z</time>
      </trkpt>
      <trkpt lat="50.16543" lon="1.66859">
        <ele>4.2</ele>
        <time>2022-04-22T14:06:59Z</time>
      </trkpt>
      <trkpt lat="50.16544" lon="1.66858">
        <ele>4.2</ele>
        <time>2022-04-22T14:07:00Z</time>
      </trkpt>
      <trkpt lat="50.16546" lon="1.66858">
        <ele>4.2</ele>
        <time>2022-04-22T14:07:01Z</time>
      </trkpt>
      <trkpt lat="50.16547" lon="1.66857">
        <ele>4.1</ele>
        <time>2022-04-22T14:07:02Z</time>
      </trkpt>
      <trkpt lat="50.16549" lon="1.66856">
        <ele>4.1</ele>
        <time>2022-04-22T14:07:03Z</time>
      </trkpt>
      <trkpt lat="50.1655" lon="1.66854">
        <ele>4.1</ele>
        <time>2022-04-22T14:07:05Z</time>
      </trkpt>
      <trkpt lat="50.16552" lon="1.66853">
        <ele>4.1</ele>
        <time>2022-04-22T14:07:06Z</time>
      </trkpt>
      <trkpt lat="50.16553" lon="1.66852">
        <ele>4.1</ele>
        <time>2022-04-22T14:07:07Z</time>
      </trkpt>
      <trkpt lat="50.16555" lon="1.66851">
        <ele>4.1</ele>
        <time>2022-04-22T14:07:08Z</time>
      </trkpt>
      <trkpt lat="50.16556" lon="1.6685">
        <ele>4.1</ele>
        <time>2022-04-22T14:07:09Z</time>
      </trkpt>
      <trkpt lat="50.16558" lon="1.66849">
        <ele>4.1</ele>
        <time>2022-04-22T14:07:10Z</time>
      </trkpt>
      <trkpt lat="50.16559" lon="1.66848">
        <ele>4.1</ele>
        <time>2022-04-22T14:07:11Z</time>
      </trkpt>
      <trkpt lat="50.1656" lon="1.66847">
        <ele>4.1</ele>
        <time>2022-04-22T14:07:12Z</time>
      </trkpt>
      <trkpt lat="50.16561" lon="1.66846">
        <ele>4</ele>
        <time>2022-04-22T14:07:13Z</time>
      </trkpt>
      <trkpt lat="50.16562" lon="1.66844">
        <ele>4</ele>
        <time>2022-04-22T14:07:14Z</time>
      </trkpt>
      <trkpt lat="50.16564" lon="1.66843">
        <ele>4</ele>
        <time>2022-04-22T14:07:15Z</time>
      </trkpt>
      <trkpt lat="50.16565" lon="1.66842">
        <ele>4</ele>
        <time>2022-04-22T14:07:16Z</time>
      </trkpt>
      <trkpt lat="50.16566" lon="1.66841">
        <ele>4</ele>
        <time>2022-04-22T14:07:17Z</time>
      </trkpt>
      <trkpt lat="50.16567" lon="1.66841">
        <ele>4</ele>
        <time>2022-04-22T14:07:18Z</time>
      </trkpt>
      <trkpt lat="50.16569" lon="1.6684">
        <ele>4</ele>
        <time>2022-04-22T14:07:19Z</time>
      </trkpt>
      <trkpt lat="50.1657" lon="1.66838">
        <ele>4</ele>
        <time>2022-04-22T14:07:21Z</time>
      </trkpt>
      <trkpt lat="50.16571" lon="1.66836">
        <ele>4</ele>
        <time>2022-04-22T14:07:22Z</time>
      </trkpt>
      <trkpt lat="50.16572" lon="1.66835">
        <ele>4</ele>
        <time>2022-04-22T14:07:23Z</time>
      </trkpt>
      <trkpt lat="50.16573" lon="1.66834">
        <ele>4</ele>
        <time>2022-04-22T14:07:24Z</time>
      </trkpt>
      <trkpt lat="50.16574" lon="1.66832">
        <ele>4</ele>
        <time>2022-04-22T14:07:25Z</time>
      </trkpt>
      <trkpt lat="50.16575" lon="1.66832">
        <ele>4</ele>
        <time>2022-04-22T14:07:26Z</time>
      </trkpt>
      <trkpt lat="50.16575" lon="1.66831">
        <ele>4</ele>
        <time>2022-04-22T14:07:27Z</time>
      </trkpt>
      <trkpt lat="50.16576" lon="1.6683">
        <ele>4</ele>
        <time>2022-04-22T14:07:28Z</time>
      </trkpt>
      <trkpt lat="50.16577" lon="1.66829">
        <ele>4</ele>
        <time>2022-04-22T14:07:29Z</time>
      </trkpt>
      <trkpt lat="50.16577" lon="1.66828">
        <ele>4</ele>
        <time>2022-04-22T14:07:30Z</time>
      </trkpt>
      <trkpt lat="50.16579" lon="1.66826">
        <ele>4</ele>
        <time>2022-04-22T14:07:31Z</time>
      </trkpt>
      <trkpt lat="50.1658" lon="1.66826">
        <ele>4</ele>
        <time>2022-04-22T14:07:33Z</time>
      </trkpt>
      <trkpt lat="50.16581" lon="1.66825">
        <ele>4</ele>
        <time>2022-04-22T14:07:34Z</time>
      </trkpt>
      <trkpt lat="50.16582" lon="1.66824">
        <ele>4</ele>
        <time>2022-04-22T14:07:35Z</time>
      </trkpt>
      <trkpt lat="50.16584" lon="1.66824">
        <ele>4</ele>
        <time>2022-04-22T14:07:36Z</time>
      </trkpt>
      <trkpt lat="50.16584" lon="1.66823">
        <ele>4</ele>
        <time>2022-04-22T14:07:37Z</time>
      </trkpt>
      <trkpt lat="50.16586" lon="1.66821">
        <ele>4</ele>
        <time>2022-04-22T14:07:39Z</time>
      </trkpt>
      <trkpt lat="50.16586" lon="1.66821">
        <ele>4</ele>
        <time>2022-04-22T14:07:40Z</time>
      </trkpt>
      <trkpt lat="50.16589" lon="1.6682">
        <ele>4</ele>
        <time>2022-04-22T14:07:41Z</time>
      </trkpt>
      <trkpt lat="50.16589" lon="1.66819">
        <ele>4</ele>
        <time>2022-04-22T14:07:42Z</time>
      </trkpt>
      <trkpt lat="50.1659" lon="1.66818">
        <ele>4</ele>
        <time>2022-04-22T14:07:43Z</time>
      </trkpt>
      <trkpt lat="50.16592" lon="1.66817">
        <ele>4</ele>
        <time>2022-04-22T14:07:44Z</time>
      </trkpt>
      <trkpt lat="50.16593" lon="1.66816">
        <ele>4</ele>
        <time>2022-04-22T14:07:46Z</time>
      </trkpt>
      <trkpt lat="50.16593" lon="1.66815">
        <ele>4</ele>
        <time>2022-04-22T14:07:47Z</time>
      </trkpt>
      <trkpt lat="50.16595" lon="1.66813">
        <ele>4</ele>
        <time>2022-04-22T14:07:48Z</time>
      </trkpt>
      <trkpt lat="50.16596" lon="1.66812">
        <ele>4</ele>
        <time>2022-04-22T14:07:49Z</time>
      </trkpt>
      <trkpt lat="50.16596" lon="1.66811">
        <ele>4</ele>
        <time>2022-04-22T14:07:50Z</time>
      </trkpt>
      <trkpt lat="50.16597" lon="1.6681">
        <ele>4</ele>
        <time>2022-04-22T14:07:51Z</time>
      </trkpt>
      <trkpt lat="50.16598" lon="1.6681">
        <ele>4</ele>
        <time>2022-04-22T14:07:52Z</time>
      </trkpt>
      <trkpt lat="50.16599" lon="1.66809">
        <ele>4</ele>
        <time>2022-04-22T14:07:53Z</time>
      </trkpt>
      <trkpt lat="50.16601" lon="1.66808">
        <ele>4</ele>
        <time>2022-04-22T14:07:54Z</time>
      </trkpt>
      <trkpt lat="50.16602" lon="1.66807">
        <ele>4</ele>
        <time>2022-04-22T14:07:56Z</time>
      </trkpt>
      <trkpt lat="50.16603" lon="1.66807">
        <ele>4</ele>
        <time>2022-04-22T14:07:57Z</time>
      </trkpt>
      <trkpt lat="50.16605" lon="1.66805">
        <ele>4</ele>
        <time>2022-04-22T14:07:58Z</time>
      </trkpt>
      <trkpt lat="50.16606" lon="1.66805">
        <ele>4</ele>
        <time>2022-04-22T14:07:59Z</time>
      </trkpt>
      <trkpt lat="50.16606" lon="1.66804">
        <ele>4</ele>
        <time>2022-04-22T14:08:00Z</time>
      </trkpt>
      <trkpt lat="50.16608" lon="1.66802">
        <ele>4</ele>
        <time>2022-04-22T14:08:01Z</time>
      </trkpt>
      <trkpt lat="50.16609" lon="1.66801">
        <ele>4</ele>
        <time>2022-04-22T14:08:02Z</time>
      </trkpt>
      <trkpt lat="50.1661" lon="1.668">
        <ele>3.9</ele>
        <time>2022-04-22T14:08:03Z</time>
      </trkpt>
      <trkpt lat="50.16612" lon="1.66799">
        <ele>3.9</ele>
        <time>2022-04-22T14:08:04Z</time>
      </trkpt>
      <trkpt lat="50.16612" lon="1.66798">
        <ele>3.9</ele>
        <time>2022-04-22T14:08:05Z</time>
      </trkpt>
      <trkpt lat="50.16613" lon="1.66797">
        <ele>3.9</ele>
        <time>2022-04-22T14:08:06Z</time>
      </trkpt>
      <trkpt lat="50.16615" lon="1.66795">
        <ele>3.9</ele>
        <time>2022-04-22T14:08:08Z</time>
      </trkpt>
      <trkpt lat="50.16616" lon="1.66795">
        <ele>3.9</ele>
        <time>2022-04-22T14:08:09Z</time>
      </trkpt>
      <trkpt lat="50.16616" lon="1.66794">
        <ele>3.9</ele>
        <time>2022-04-22T14:08:10Z</time>
      </trkpt>
      <trkpt lat="50.16618" lon="1.66792">
        <ele>3.9</ele>
        <time>2022-04-22T14:08:11Z</time>
      </trkpt>
      <trkpt lat="50.16619" lon="1.66791">
        <ele>3.9</ele>
        <time>2022-04-22T14:08:12Z</time>
      </trkpt>
      <trkpt lat="50.16619" lon="1.6679">
        <ele>3.9</ele>
        <time>2022-04-22T14:08:13Z</time>
      </trkpt>
      <trkpt lat="50.16623" lon="1.66787">
        <ele>3.8</ele>
        <time>2022-04-22T14:08:15Z</time>
      </trkpt>
      <trkpt lat="50.16624" lon="1.66786">
        <ele>3.8</ele>
        <time>2022-04-22T14:08:16Z</time>
      </trkpt>
      <trkpt lat="50.16625" lon="1.66786">
        <ele>3.8</ele>
        <time>2022-04-22T14:08:17Z</time>
      </trkpt>
      <trkpt lat="50.16625" lon="1.66785">
        <ele>3.8</ele>
        <time>2022-04-22T14:08:18Z</time>
      </trkpt>
      <trkpt lat="50.16627" lon="1.66784">
        <ele>3.8</ele>
        <time>2022-04-22T14:08:19Z</time>
      </trkpt>
      <trkpt lat="50.16628" lon="1.66782">
        <ele>3.8</ele>
        <time>2022-04-22T14:08:21Z</time>
      </trkpt>
      <trkpt lat="50.16629" lon="1.66782">
        <ele>3.8</ele>
        <time>2022-04-22T14:08:22Z</time>
      </trkpt>
      <trkpt lat="50.1663" lon="1.66781">
        <ele>3.8</ele>
        <time>2022-04-22T14:08:23Z</time>
      </trkpt>
      <trkpt lat="50.16631" lon="1.6678">
        <ele>3.8</ele>
        <time>2022-04-22T14:08:24Z</time>
      </trkpt>
      <trkpt lat="50.16632" lon="1.66779">
        <ele>3.8</ele>
        <time>2022-04-22T14:08:25Z</time>
      </trkpt>
      <trkpt lat="50.16633" lon="1.66778">
        <ele>3.8</ele>
        <time>2022-04-22T14:08:26Z</time>
      </trkpt>
      <trkpt lat="50.16634" lon="1.66777">
        <ele>3.8</ele>
        <time>2022-04-22T14:08:27Z</time>
      </trkpt>
      <trkpt lat="50.16635" lon="1.66776">
        <ele>3.8</ele>
        <time>2022-04-22T14:08:28Z</time>
      </trkpt>
      <trkpt lat="50.16636" lon="1.66775">
        <ele>3.8</ele>
        <time>2022-04-22T14:08:29Z</time>
      </trkpt>
      <trkpt lat="50.16637" lon="1.66775">
        <ele>3.8</ele>
        <time>2022-04-22T14:08:30Z</time>
      </trkpt>
      <trkpt lat="50.16638" lon="1.66774">
        <ele>3.8</ele>
        <time>2022-04-22T14:08:31Z</time>
      </trkpt>
      <trkpt lat="50.16638" lon="1.66774">
        <ele>3.8</ele>
        <time>2022-04-22T14:08:32Z</time>
      </trkpt>
      <trkpt lat="50.16639" lon="1.66773">
        <ele>3.8</ele>
        <time>2022-04-22T14:08:33Z</time>
      </trkpt>
      <trkpt lat="50.1664" lon="1.66773">
        <ele>3.8</ele>
        <time>2022-04-22T14:08:34Z</time>
      </trkpt>
      <trkpt lat="50.16642" lon="1.66772">
        <ele>3.8</ele>
        <time>2022-04-22T14:08:36Z</time>
      </trkpt>
      <trkpt lat="50.16643" lon="1.66771">
        <ele>3.8</ele>
        <time>2022-04-22T14:08:37Z</time>
      </trkpt>
      <trkpt lat="50.16644" lon="1.6677">
        <ele>3.8</ele>
        <time>2022-04-22T14:08:38Z</time>
      </trkpt>
      <trkpt lat="50.16645" lon="1.66769">
        <ele>3.9</ele>
        <time>2022-04-22T14:08:39Z</time>
      </trkpt>
      <trkpt lat="50.16646" lon="1.66768">
        <ele>3.9</ele>
        <time>2022-04-22T14:08:40Z</time>
      </trkpt>
      <trkpt lat="50.16648" lon="1.66767">
        <ele>3.9</ele>
        <time>2022-04-22T14:08:41Z</time>
      </trkpt>
      <trkpt lat="50.16649" lon="1.66766">
        <ele>3.9</ele>
        <time>2022-04-22T14:08:42Z</time>
      </trkpt>
      <trkpt lat="50.1665" lon="1.66766">
        <ele>3.9</ele>
        <time>2022-04-22T14:08:43Z</time>
      </trkpt>
      <trkpt lat="50.16651" lon="1.66765">
        <ele>3.9</ele>
        <time>2022-04-22T14:08:44Z</time>
      </trkpt>
      <trkpt lat="50.16652" lon="1.66764">
        <ele>3.9</ele>
        <time>2022-04-22T14:08:45Z</time>
      </trkpt>
      <trkpt lat="50.16654" lon="1.66763">
        <ele>3.9</ele>
        <time>2022-04-22T14:08:46Z</time>
      </trkpt>
      <trkpt lat="50.16656" lon="1.66762">
        <ele>3.9</ele>
        <time>2022-04-22T14:08:48Z</time>
      </trkpt>
      <trkpt lat="50.16657" lon="1.66762">
        <ele>3.9</ele>
        <time>2022-04-22T14:08:49Z</time>
      </trkpt>
      <trkpt lat="50.16658" lon="1.66762">
        <ele>3.9</ele>
        <time>2022-04-22T14:08:50Z</time>
      </trkpt>
      <trkpt lat="50.16659" lon="1.66761">
        <ele>3.9</ele>
        <time>2022-04-22T14:08:51Z</time>
      </trkpt>
      <trkpt lat="50.1666" lon="1.66761">
        <ele>3.9</ele>
        <time>2022-04-22T14:08:52Z</time>
      </trkpt>
      <trkpt lat="50.16662" lon="1.6676">
        <ele>3.9</ele>
        <time>2022-04-22T14:08:53Z</time>
      </trkpt>
      <trkpt lat="50.16663" lon="1.66759">
        <ele>3.9</ele>
        <time>2022-04-22T14:08:54Z</time>
      </trkpt>
      <trkpt lat="50.16664" lon="1.66759">
        <ele>3.9</ele>
        <time>2022-04-22T14:08:55Z</time>
      </trkpt>
      <trkpt lat="50.16666" lon="1.66757">
        <ele>3.9</ele>
        <time>2022-04-22T14:08:56Z</time>
      </trkpt>
      <trkpt lat="50.16667" lon="1.66757">
        <ele>3.9</ele>
        <time>2022-04-22T14:08:57Z</time>
      </trkpt>
      <trkpt lat="50.16667" lon="1.66756">
        <ele>3.9</ele>
        <time>2022-04-22T14:08:58Z</time>
      </trkpt>
      <trkpt lat="50.16668" lon="1.66755">
        <ele>3.9</ele>
        <time>2022-04-22T14:09:00Z</time>
      </trkpt>
      <trkpt lat="50.1667" lon="1.66754">
        <ele>3.9</ele>
        <time>2022-04-22T14:09:01Z</time>
      </trkpt>
      <trkpt lat="50.16672" lon="1.66753">
        <ele>3.9</ele>
        <time>2022-04-22T14:09:02Z</time>
      </trkpt>
      <trkpt lat="50.16673" lon="1.66753">
        <ele>3.9</ele>
        <time>2022-04-22T14:09:03Z</time>
      </trkpt>
      <trkpt lat="50.16675" lon="1.66751">
        <ele>3.9</ele>
        <time>2022-04-22T14:09:04Z</time>
      </trkpt>
      <trkpt lat="50.16675" lon="1.66751">
        <ele>3.9</ele>
        <time>2022-04-22T14:09:05Z</time>
      </trkpt>
      <trkpt lat="50.16676" lon="1.6675">
        <ele>3.9</ele>
        <time>2022-04-22T14:09:06Z</time>
      </trkpt>
      <trkpt lat="50.16677" lon="1.6675">
        <ele>3.9</ele>
        <time>2022-04-22T14:09:07Z</time>
      </trkpt>
      <trkpt lat="50.16678" lon="1.66749">
        <ele>3.9</ele>
        <time>2022-04-22T14:09:09Z</time>
      </trkpt>
      <trkpt lat="50.1668" lon="1.66748">
        <ele>3.9</ele>
        <time>2022-04-22T14:09:10Z</time>
      </trkpt>
      <trkpt lat="50.16681" lon="1.66747">
        <ele>3.9</ele>
        <time>2022-04-22T14:09:11Z</time>
      </trkpt>
      <trkpt lat="50.16683" lon="1.66746">
        <ele>3.9</ele>
        <time>2022-04-22T14:09:12Z</time>
      </trkpt>
      <trkpt lat="50.16684" lon="1.66745">
        <ele>3.9</ele>
        <time>2022-04-22T14:09:13Z</time>
      </trkpt>
      <trkpt lat="50.16685" lon="1.66744">
        <ele>3.9</ele>
        <time>2022-04-22T14:09:14Z</time>
      </trkpt>
      <trkpt lat="50.16686" lon="1.66743">
        <ele>3.9</ele>
        <time>2022-04-22T14:09:15Z</time>
      </trkpt>
      <trkpt lat="50.16687" lon="1.66742">
        <ele>3.9</ele>
        <time>2022-04-22T14:09:16Z</time>
      </trkpt>
      <trkpt lat="50.16688" lon="1.66742">
        <ele>3.9</ele>
        <time>2022-04-22T14:09:17Z</time>
      </trkpt>
      <trkpt lat="50.16689" lon="1.66741">
        <ele>3.9</ele>
        <time>2022-04-22T14:09:19Z</time>
      </trkpt>
      <trkpt lat="50.1669" lon="1.6674">
        <ele>3.9</ele>
        <time>2022-04-22T14:09:20Z</time>
      </trkpt>
      <trkpt lat="50.16691" lon="1.66739">
        <ele>3.9</ele>
        <time>2022-04-22T14:09:21Z</time>
      </trkpt>
      <trkpt lat="50.16692" lon="1.66738">
        <ele>3.9</ele>
        <time>2022-04-22T14:09:22Z</time>
      </trkpt>
      <trkpt lat="50.16693" lon="1.66738">
        <ele>3.9</ele>
        <time>2022-04-22T14:09:23Z</time>
      </trkpt>
      <trkpt lat="50.16694" lon="1.66737">
        <ele>4</ele>
        <time>2022-04-22T14:09:25Z</time>
      </trkpt>
      <trkpt lat="50.16695" lon="1.66736">
        <ele>4</ele>
        <time>2022-04-22T14:09:26Z</time>
      </trkpt>
      <trkpt lat="50.16696" lon="1.66735">
        <ele>4</ele>
        <time>2022-04-22T14:09:27Z</time>
      </trkpt>
      <trkpt lat="50.16697" lon="1.66735">
        <ele>4</ele>
        <time>2022-04-22T14:09:28Z</time>
      </trkpt>
      <trkpt lat="50.16698" lon="1.66734">
        <ele>4</ele>
        <time>2022-04-22T14:09:29Z</time>
      </trkpt>
      <trkpt lat="50.16699" lon="1.66733">
        <ele>4</ele>
        <time>2022-04-22T14:09:30Z</time>
      </trkpt>
      <trkpt lat="50.167" lon="1.66732">
        <ele>4</ele>
        <time>2022-04-22T14:09:31Z</time>
      </trkpt>
      <trkpt lat="50.167" lon="1.66732">
        <ele>4</ele>
        <time>2022-04-22T14:09:32Z</time>
      </trkpt>
      <trkpt lat="50.16701" lon="1.66731">
        <ele>4</ele>
        <time>2022-04-22T14:09:33Z</time>
      </trkpt>
      <trkpt lat="50.16702" lon="1.66731">
        <ele>4</ele>
        <time>2022-04-22T14:09:34Z</time>
      </trkpt>
      <trkpt lat="50.16704" lon="1.6673">
        <ele>4</ele>
        <time>2022-04-22T14:09:35Z</time>
      </trkpt>
      <trkpt lat="50.16705" lon="1.66729">
        <ele>4</ele>
        <time>2022-04-22T14:09:36Z</time>
      </trkpt>
      <trkpt lat="50.16706" lon="1.66729">
        <ele>4</ele>
        <time>2022-04-22T14:09:38Z</time>
      </trkpt>
      <trkpt lat="50.16707" lon="1.66728">
        <ele>4</ele>
        <time>2022-04-22T14:09:39Z</time>
      </trkpt>
      <trkpt lat="50.16709" lon="1.66728">
        <ele>4</ele>
        <time>2022-04-22T14:09:40Z</time>
      </trkpt>
      <trkpt lat="50.1671" lon="1.66728">
        <ele>4</ele>
        <time>2022-04-22T14:09:41Z</time>
      </trkpt>
      <trkpt lat="50.16711" lon="1.66728">
        <ele>4</ele>
        <time>2022-04-22T14:09:42Z</time>
      </trkpt>
      <trkpt lat="50.16712" lon="1.66728">
        <ele>4</ele>
        <time>2022-04-22T14:09:43Z</time>
      </trkpt>
      <trkpt lat="50.16713" lon="1.66727">
        <ele>4</ele>
        <time>2022-04-22T14:09:44Z</time>
      </trkpt>
      <trkpt lat="50.16714" lon="1.66726">
        <ele>4</ele>
        <time>2022-04-22T14:09:45Z</time>
      </trkpt>
      <trkpt lat="50.16715" lon="1.66726">
        <ele>4</ele>
        <time>2022-04-22T14:09:46Z</time>
      </trkpt>
      <trkpt lat="50.16716" lon="1.66725">
        <ele>4</ele>
        <time>2022-04-22T14:09:47Z</time>
      </trkpt>
      <trkpt lat="50.16717" lon="1.66725">
        <ele>4</ele>
        <time>2022-04-22T14:09:48Z</time>
      </trkpt>
      <trkpt lat="50.16719" lon="1.66725">
        <ele>4</ele>
        <time>2022-04-22T14:09:49Z</time>
      </trkpt>
      <trkpt lat="50.1672" lon="1.66724">
        <ele>4</ele>
        <time>2022-04-22T14:09:50Z</time>
      </trkpt>
      <trkpt lat="50.16722" lon="1.66723">
        <ele>4</ele>
        <time>2022-04-22T14:09:52Z</time>
      </trkpt>
      <trkpt lat="50.16723" lon="1.66723">
        <ele>4</ele>
        <time>2022-04-22T14:09:53Z</time>
      </trkpt>
      <trkpt lat="50.16724" lon="1.66723">
        <ele>4</ele>
        <time>2022-04-22T14:09:54Z</time>
      </trkpt>
      <trkpt lat="50.16726" lon="1.66722">
        <ele>4</ele>
        <time>2022-04-22T14:09:55Z</time>
      </trkpt>
      <trkpt lat="50.16728" lon="1.66721">
        <ele>4</ele>
        <time>2022-04-22T14:09:56Z</time>
      </trkpt>
      <trkpt lat="50.16731" lon="1.6672">
        <ele>4</ele>
        <time>2022-04-22T14:09:58Z</time>
      </trkpt>
      <trkpt lat="50.16732" lon="1.6672">
        <ele>4</ele>
        <time>2022-04-22T14:09:59Z</time>
      </trkpt>
      <trkpt lat="50.16733" lon="1.66719">
        <ele>4</ele>
        <time>2022-04-22T14:10:00Z</time>
      </trkpt>
      <trkpt lat="50.16735" lon="1.66719">
        <ele>4</ele>
        <time>2022-04-22T14:10:01Z</time>
      </trkpt>
      <trkpt lat="50.16738" lon="1.66717">
        <ele>4</ele>
        <time>2022-04-22T14:10:02Z</time>
      </trkpt>
      <trkpt lat="50.16739" lon="1.66717">
        <ele>4</ele>
        <time>2022-04-22T14:10:03Z</time>
      </trkpt>
      <trkpt lat="50.1674" lon="1.66716">
        <ele>4</ele>
        <time>2022-04-22T14:10:04Z</time>
      </trkpt>
      <trkpt lat="50.16742" lon="1.66715">
        <ele>4</ele>
        <time>2022-04-22T14:10:05Z</time>
      </trkpt>
      <trkpt lat="50.16745" lon="1.66713">
        <ele>4</ele>
        <time>2022-04-22T14:10:06Z</time>
      </trkpt>
      <trkpt lat="50.16746" lon="1.66713">
        <ele>4</ele>
        <time>2022-04-22T14:10:07Z</time>
      </trkpt>
      <trkpt lat="50.16749" lon="1.66711">
        <ele>4</ele>
        <time>2022-04-22T14:10:09Z</time>
      </trkpt>
      <trkpt lat="50.1675" lon="1.66711">
        <ele>4</ele>
        <time>2022-04-22T14:10:10Z</time>
      </trkpt>
      <trkpt lat="50.16751" lon="1.6671">
        <ele>4</ele>
        <time>2022-04-22T14:10:11Z</time>
      </trkpt>
      <trkpt lat="50.16753" lon="1.66709">
        <ele>4</ele>
        <time>2022-04-22T14:10:12Z</time>
      </trkpt>
      <trkpt lat="50.16754" lon="1.66709">
        <ele>4</ele>
        <time>2022-04-22T14:10:13Z</time>
      </trkpt>
      <trkpt lat="50.16756" lon="1.66708">
        <ele>4</ele>
        <time>2022-04-22T14:10:14Z</time>
      </trkpt>
      <trkpt lat="50.16757" lon="1.66708">
        <ele>4</ele>
        <time>2022-04-22T14:10:15Z</time>
      </trkpt>
      <trkpt lat="50.16759" lon="1.66707">
        <ele>4</ele>
        <time>2022-04-22T14:10:16Z</time>
      </trkpt>
      <trkpt lat="50.1676" lon="1.66706">
        <ele>4</ele>
        <time>2022-04-22T14:10:18Z</time>
      </trkpt>
      <trkpt lat="50.16761" lon="1.66706">
        <ele>4</ele>
        <time>2022-04-22T14:10:19Z</time>
      </trkpt>
      <trkpt lat="50.16762" lon="1.66705">
        <ele>4</ele>
        <time>2022-04-22T14:10:20Z</time>
      </trkpt>
      <trkpt lat="50.16763" lon="1.66704">
        <ele>4</ele>
        <time>2022-04-22T14:10:21Z</time>
      </trkpt>
      <trkpt lat="50.16764" lon="1.66704">
        <ele>4</ele>
        <time>2022-04-22T14:10:22Z</time>
      </trkpt>
      <trkpt lat="50.16766" lon="1.66703">
        <ele>4</ele>
        <time>2022-04-22T14:10:24Z</time>
      </trkpt>
      <trkpt lat="50.16767" lon="1.66702">
        <ele>4</ele>
        <time>2022-04-22T14:10:25Z</time>
      </trkpt>
      <trkpt lat="50.16768" lon="1.66701">
        <ele>4</ele>
        <time>2022-04-22T14:10:26Z</time>
      </trkpt>
      <trkpt lat="50.16769" lon="1.66701">
        <ele>4</ele>
        <time>2022-04-22T14:10:27Z</time>
      </trkpt>
      <trkpt lat="50.16769" lon="1.667">
        <ele>4</ele>
        <time>2022-04-22T14:10:28Z</time>
      </trkpt>
      <trkpt lat="50.16771" lon="1.66699">
        <ele>4</ele>
        <time>2022-04-22T14:10:29Z</time>
      </trkpt>
      <trkpt lat="50.16772" lon="1.66699">
        <ele>4</ele>
        <time>2022-04-22T14:10:30Z</time>
      </trkpt>
      <trkpt lat="50.16772" lon="1.66698">
        <ele>4</ele>
        <time>2022-04-22T14:10:31Z</time>
      </trkpt>
      <trkpt lat="50.16773" lon="1.66697">
        <ele>4</ele>
        <time>2022-04-22T14:10:32Z</time>
      </trkpt>
      <trkpt lat="50.16774" lon="1.66697">
        <ele>4</ele>
        <time>2022-04-22T14:10:33Z</time>
      </trkpt>
      <trkpt lat="50.16775" lon="1.66696">
        <ele>4</ele>
        <time>2022-04-22T14:10:34Z</time>
      </trkpt>
      <trkpt lat="50.16777" lon="1.66696">
        <ele>4</ele>
        <time>2022-04-22T14:10:35Z</time>
      </trkpt>
      <trkpt lat="50.16778" lon="1.66695">
        <ele>3.9</ele>
        <time>2022-04-22T14:10:36Z</time>
      </trkpt>
      <trkpt lat="50.16779" lon="1.66695">
        <ele>3.9</ele>
        <time>2022-04-22T14:10:38Z</time>
      </trkpt>
      <trkpt lat="50.1678" lon="1.66694">
        <ele>3.9</ele>
        <time>2022-04-22T14:10:39Z</time>
      </trkpt>
      <trkpt lat="50.16781" lon="1.66694">
        <ele>3.9</ele>
        <time>2022-04-22T14:10:40Z</time>
      </trkpt>
      <trkpt lat="50.16782" lon="1.66694">
        <ele>3.9</ele>
        <time>2022-04-22T14:10:41Z</time>
      </trkpt>
      <trkpt lat="50.16784" lon="1.66693">
        <ele>3.9</ele>
        <time>2022-04-22T14:10:42Z</time>
      </trkpt>
      <trkpt lat="50.16785" lon="1.66693">
        <ele>3.9</ele>
        <time>2022-04-22T14:10:43Z</time>
      </trkpt>
      <trkpt lat="50.16786" lon="1.66692">
        <ele>3.9</ele>
        <time>2022-04-22T14:10:44Z</time>
      </trkpt>
      <trkpt lat="50.16787" lon="1.66693">
        <ele>3.9</ele>
        <time>2022-04-22T14:10:45Z</time>
      </trkpt>
      <trkpt lat="50.16788" lon="1.66693">
        <ele>3.9</ele>
        <time>2022-04-22T14:10:46Z</time>
      </trkpt>
      <trkpt lat="50.16789" lon="1.66693">
        <ele>3.9</ele>
        <time>2022-04-22T14:10:47Z</time>
      </trkpt>
      <trkpt lat="50.1679" lon="1.66693">
        <ele>3.9</ele>
        <time>2022-04-22T14:10:48Z</time>
      </trkpt>
      <trkpt lat="50.16791" lon="1.66693">
        <ele>3.9</ele>
        <time>2022-04-22T14:10:49Z</time>
      </trkpt>
      <trkpt lat="50.16792" lon="1.66692">
        <ele>3.9</ele>
        <time>2022-04-22T14:10:50Z</time>
      </trkpt>
      <trkpt lat="50.16794" lon="1.66692">
        <ele>3.9</ele>
        <time>2022-04-22T14:10:52Z</time>
      </trkpt>
      <trkpt lat="50.16795" lon="1.66692">
        <ele>3.9</ele>
        <time>2022-04-22T14:10:53Z</time>
      </trkpt>
      <trkpt lat="50.16798" lon="1.66691">
        <ele>3.9</ele>
        <time>2022-04-22T14:10:54Z</time>
      </trkpt>
      <trkpt lat="50.16799" lon="1.66691">
        <ele>3.9</ele>
        <time>2022-04-22T14:10:56Z</time>
      </trkpt>
      <trkpt lat="50.168" lon="1.66691">
        <ele>3.9</ele>
        <time>2022-04-22T14:10:57Z</time>
      </trkpt>
      <trkpt lat="50.16801" lon="1.6669">
        <ele>3.9</ele>
        <time>2022-04-22T14:10:58Z</time>
      </trkpt>
      <trkpt lat="50.16802" lon="1.6669">
        <ele>3.9</ele>
        <time>2022-04-22T14:10:59Z</time>
      </trkpt>
      <trkpt lat="50.16804" lon="1.6669">
        <ele>3.9</ele>
        <time>2022-04-22T14:11:00Z</time>
      </trkpt>
      <trkpt lat="50.16804" lon="1.6669">
        <ele>3.9</ele>
        <time>2022-04-22T14:11:01Z</time>
      </trkpt>
      <trkpt lat="50.16806" lon="1.6669">
        <ele>3.9</ele>
        <time>2022-04-22T14:11:02Z</time>
      </trkpt>
      <trkpt lat="50.16808" lon="1.66689">
        <ele>3.9</ele>
        <time>2022-04-22T14:11:04Z</time>
      </trkpt>
      <trkpt lat="50.16809" lon="1.66689">
        <ele>3.9</ele>
        <time>2022-04-22T14:11:05Z</time>
      </trkpt>
      <trkpt lat="50.1681" lon="1.66689">
        <ele>3.9</ele>
        <time>2022-04-22T14:11:07Z</time>
      </trkpt>
      <trkpt lat="50.16811" lon="1.66688">
        <ele>3.9</ele>
        <time>2022-04-22T14:11:08Z</time>
      </trkpt>
      <trkpt lat="50.16812" lon="1.66687">
        <ele>3.9</ele>
        <time>2022-04-22T14:11:09Z</time>
      </trkpt>
      <trkpt lat="50.16814" lon="1.66685">
        <ele>3.9</ele>
        <time>2022-04-22T14:11:10Z</time>
      </trkpt>
      <trkpt lat="50.16815" lon="1.66685">
        <ele>3.9</ele>
        <time>2022-04-22T14:11:11Z</time>
      </trkpt>
      <trkpt lat="50.16816" lon="1.66684">
        <ele>3.9</ele>
        <time>2022-04-22T14:11:12Z</time>
      </trkpt>
      <trkpt lat="50.16817" lon="1.66684">
        <ele>3.9</ele>
        <time>2022-04-22T14:11:14Z</time>
      </trkpt>
      <trkpt lat="50.1682" lon="1.66683">
        <ele>3.9</ele>
        <time>2022-04-22T14:11:16Z</time>
      </trkpt>
      <trkpt lat="50.16821" lon="1.66681">
        <ele>4</ele>
        <time>2022-04-22T14:11:17Z</time>
      </trkpt>
      <trkpt lat="50.16822" lon="1.6668">
        <ele>4</ele>
        <time>2022-04-22T14:11:18Z</time>
      </trkpt>
      <trkpt lat="50.16823" lon="1.66679">
        <ele>4</ele>
        <time>2022-04-22T14:11:19Z</time>
      </trkpt>
      <trkpt lat="50.16824" lon="1.66678">
        <ele>4</ele>
        <time>2022-04-22T14:11:20Z</time>
      </trkpt>
      <trkpt lat="50.16824" lon="1.66677">
        <ele>4</ele>
        <time>2022-04-22T14:11:21Z</time>
      </trkpt>
      <trkpt lat="50.16825" lon="1.66677">
        <ele>4</ele>
        <time>2022-04-22T14:11:22Z</time>
      </trkpt>
      <trkpt lat="50.16827" lon="1.66675">
        <ele>4</ele>
        <time>2022-04-22T14:11:23Z</time>
      </trkpt>
      <trkpt lat="50.16828" lon="1.66674">
        <ele>4</ele>
        <time>2022-04-22T14:11:24Z</time>
      </trkpt>
      <trkpt lat="50.16828" lon="1.66673">
        <ele>4</ele>
        <time>2022-04-22T14:11:25Z</time>
      </trkpt>
      <trkpt lat="50.16829" lon="1.66672">
        <ele>4</ele>
        <time>2022-04-22T14:11:27Z</time>
      </trkpt>
      <trkpt lat="50.1683" lon="1.66671">
        <ele>4</ele>
        <time>2022-04-22T14:11:28Z</time>
      </trkpt>
      <trkpt lat="50.16831" lon="1.6667">
        <ele>4</ele>
        <time>2022-04-22T14:11:29Z</time>
      </trkpt>
      <trkpt lat="50.16832" lon="1.66669">
        <ele>4.1</ele>
        <time>2022-04-22T14:11:30Z</time>
      </trkpt>
      <trkpt lat="50.16834" lon="1.66668">
        <ele>4.1</ele>
        <time>2022-04-22T14:11:31Z</time>
      </trkpt>
      <trkpt lat="50.16835" lon="1.66668">
        <ele>4.1</ele>
        <time>2022-04-22T14:11:32Z</time>
      </trkpt>
      <trkpt lat="50.16836" lon="1.66667">
        <ele>4.1</ele>
        <time>2022-04-22T14:11:33Z</time>
      </trkpt>
      <trkpt lat="50.16837" lon="1.66668">
        <ele>4.1</ele>
        <time>2022-04-22T14:11:34Z</time>
      </trkpt>
      <trkpt lat="50.16838" lon="1.66668">
        <ele>4.1</ele>
        <time>2022-04-22T14:11:35Z</time>
      </trkpt>
      <trkpt lat="50.16839" lon="1.66668">
        <ele>4.1</ele>
        <time>2022-04-22T14:11:36Z</time>
      </trkpt>
      <trkpt lat="50.1684" lon="1.66667">
        <ele>4.1</ele>
        <time>2022-04-22T14:11:37Z</time>
      </trkpt>
      <trkpt lat="50.16842" lon="1.66666">
        <ele>4.1</ele>
        <time>2022-04-22T14:11:38Z</time>
      </trkpt>
      <trkpt lat="50.16843" lon="1.66666">
        <ele>4.1</ele>
        <time>2022-04-22T14:11:40Z</time>
      </trkpt>
      <trkpt lat="50.16845" lon="1.66665">
        <ele>4.1</ele>
        <time>2022-04-22T14:11:41Z</time>
      </trkpt>
      <trkpt lat="50.16846" lon="1.66666">
        <ele>4.1</ele>
        <time>2022-04-22T14:11:42Z</time>
      </trkpt>
      <trkpt lat="50.16848" lon="1.66666">
        <ele>4.1</ele>
        <time>2022-04-22T14:11:43Z</time>
      </trkpt>
      <trkpt lat="50.1685" lon="1.66665">
        <ele>4.1</ele>
        <time>2022-04-22T14:11:44Z</time>
      </trkpt>
      <trkpt lat="50.16851" lon="1.66664">
        <ele>4.1</ele>
        <time>2022-04-22T14:11:45Z</time>
      </trkpt>
      <trkpt lat="50.16853" lon="1.66663">
        <ele>4.1</ele>
        <time>2022-04-22T14:11:47Z</time>
      </trkpt>
      <trkpt lat="50.16855" lon="1.66662">
        <ele>4.1</ele>
        <time>2022-04-22T14:11:48Z</time>
      </trkpt>
      <trkpt lat="50.16856" lon="1.66661">
        <ele>4.1</ele>
        <time>2022-04-22T14:11:49Z</time>
      </trkpt>
      <trkpt lat="50.16858" lon="1.6666">
        <ele>4.1</ele>
        <time>2022-04-22T14:11:50Z</time>
      </trkpt>
      <trkpt lat="50.16858" lon="1.66659">
        <ele>4.1</ele>
        <time>2022-04-22T14:11:51Z</time>
      </trkpt>
      <trkpt lat="50.16859" lon="1.66659">
        <ele>4</ele>
        <time>2022-04-22T14:11:52Z</time>
      </trkpt>
      <trkpt lat="50.16861" lon="1.66658">
        <ele>4</ele>
        <time>2022-04-22T14:11:53Z</time>
      </trkpt>
      <trkpt lat="50.16862" lon="1.66657">
        <ele>4</ele>
        <time>2022-04-22T14:11:54Z</time>
      </trkpt>
      <trkpt lat="50.16863" lon="1.66656">
        <ele>4</ele>
        <time>2022-04-22T14:11:55Z</time>
      </trkpt>
      <trkpt lat="50.16864" lon="1.66655">
        <ele>4</ele>
        <time>2022-04-22T14:11:56Z</time>
      </trkpt>
      <trkpt lat="50.16866" lon="1.66654">
        <ele>4</ele>
        <time>2022-04-22T14:11:57Z</time>
      </trkpt>
      <trkpt lat="50.16867" lon="1.66652">
        <ele>4</ele>
        <time>2022-04-22T14:11:58Z</time>
      </trkpt>
      <trkpt lat="50.16868" lon="1.66651">
        <ele>4</ele>
        <time>2022-04-22T14:11:59Z</time>
      </trkpt>
      <trkpt lat="50.1687" lon="1.66651">
        <ele>4</ele>
        <time>2022-04-22T14:12:01Z</time>
      </trkpt>
      <trkpt lat="50.16872" lon="1.66651">
        <ele>3.9</ele>
        <time>2022-04-22T14:12:02Z</time>
      </trkpt>
      <trkpt lat="50.16872" lon="1.66651">
        <ele>3.9</ele>
        <time>2022-04-22T14:12:03Z</time>
      </trkpt>
      <trkpt lat="50.16872" lon="1.66653">
        <ele>3.9</ele>
        <time>2022-04-22T14:12:04Z</time>
      </trkpt>
      <trkpt lat="50.16872" lon="1.66653">
        <ele>3.9</ele>
        <time>2022-04-22T14:12:05Z</time>
      </trkpt>
      <trkpt lat="50.16872" lon="1.66653">
        <ele>3.9</ele>
        <time>2022-04-22T14:12:06Z</time>
      </trkpt>
      <trkpt lat="50.16872" lon="1.66653">
        <ele>3.9</ele>
        <time>2022-04-22T14:12:07Z</time>
      </trkpt>
      <trkpt lat="50.16872" lon="1.66653">
        <ele>3.9</ele>
        <time>2022-04-22T14:12:08Z</time>
      </trkpt>
      <trkpt lat="50.16872" lon="1.66653">
        <ele>3.9</ele>
        <time>2022-04-22T14:12:09Z</time>
      </trkpt>
      <trkpt lat="50.16872" lon="1.66652">
        <ele>3.9</ele>
        <time>2022-04-22T14:12:11Z</time>
      </trkpt>
      <trkpt lat="50.16872" lon="1.66652">
        <ele>3.9</ele>
        <time>2022-04-22T14:12:12Z</time>
      </trkpt>
      <trkpt lat="50.16873" lon="1.66651">
        <ele>3.9</ele>
        <time>2022-04-22T14:12:13Z</time>
      </trkpt>
      <trkpt lat="50.16873" lon="1.6665">
        <ele>3.9</ele>
        <time>2022-04-22T14:12:14Z</time>
      </trkpt>
      <trkpt lat="50.16873" lon="1.6665">
        <ele>3.9</ele>
        <time>2022-04-22T14:12:15Z</time>
      </trkpt>
      <trkpt lat="50.16873" lon="1.66649">
        <ele>3.9</ele>
        <time>2022-04-22T14:12:16Z</time>
      </trkpt>
      <trkpt lat="50.16873" lon="1.66649">
        <ele>3.9</ele>
        <time>2022-04-22T14:12:18Z</time>
      </trkpt>
      <trkpt lat="50.16874" lon="1.66648">
        <ele>3.9</ele>
        <time>2022-04-22T14:12:19Z</time>
      </trkpt>
      <trkpt lat="50.16874" lon="1.66647">
        <ele>3.9</ele>
        <time>2022-04-22T14:12:20Z</time>
      </trkpt>
      <trkpt lat="50.16874" lon="1.66646">
        <ele>3.9</ele>
        <time>2022-04-22T14:12:21Z</time>
      </trkpt>
      <trkpt lat="50.16874" lon="1.66645">
        <ele>3.9</ele>
        <time>2022-04-22T14:12:22Z</time>
      </trkpt>
      <trkpt lat="50.16874" lon="1.66644">
        <ele>3.9</ele>
        <time>2022-04-22T14:12:23Z</time>
      </trkpt>
      <trkpt lat="50.16874" lon="1.66642">
        <ele>3.9</ele>
        <time>2022-04-22T14:12:24Z</time>
      </trkpt>
      <trkpt lat="50.16874" lon="1.66641">
        <ele>3.9</ele>
        <time>2022-04-22T14:12:25Z</time>
      </trkpt>
      <trkpt lat="50.16874" lon="1.66639">
        <ele>3.9</ele>
        <time>2022-04-22T14:12:27Z</time>
      </trkpt>
      <trkpt lat="50.16874" lon="1.66637">
        <ele>3.9</ele>
        <time>2022-04-22T14:12:28Z</time>
      </trkpt>
      <trkpt lat="50.16874" lon="1.66636">
        <ele>3.9</ele>
        <time>2022-04-22T14:12:29Z</time>
      </trkpt>
      <trkpt lat="50.16875" lon="1.66634">
        <ele>3.9</ele>
        <time>2022-04-22T14:12:30Z</time>
      </trkpt>
      <trkpt lat="50.16875" lon="1.66632">
        <ele>3.9</ele>
        <time>2022-04-22T14:12:31Z</time>
      </trkpt>
      <trkpt lat="50.16876" lon="1.6663">
        <ele>3.9</ele>
        <time>2022-04-22T14:12:32Z</time>
      </trkpt>
      <trkpt lat="50.16877" lon="1.66627">
        <ele>3.9</ele>
        <time>2022-04-22T14:12:34Z</time>
      </trkpt>
      <trkpt lat="50.16879" lon="1.66623">
        <ele>3.9</ele>
        <time>2022-04-22T14:12:35Z</time>
      </trkpt>
      <trkpt lat="50.1688" lon="1.66621">
        <ele>3.9</ele>
        <time>2022-04-22T14:12:36Z</time>
      </trkpt>
      <trkpt lat="50.16883" lon="1.66618">
        <ele>3.9</ele>
        <time>2022-04-22T14:12:37Z</time>
      </trkpt>
      <trkpt lat="50.16883" lon="1.66617">
        <ele>3.9</ele>
        <time>2022-04-22T14:12:38Z</time>
      </trkpt>
      <trkpt lat="50.16884" lon="1.66614">
        <ele>3.9</ele>
        <time>2022-04-22T14:12:39Z</time>
      </trkpt>
      <trkpt lat="50.16885" lon="1.66612">
        <ele>3.9</ele>
        <time>2022-04-22T14:12:41Z</time>
      </trkpt>
      <trkpt lat="50.16885" lon="1.66611">
        <ele>4</ele>
        <time>2022-04-22T14:12:42Z</time>
      </trkpt>
      <trkpt lat="50.16886" lon="1.66609">
        <ele>4</ele>
        <time>2022-04-22T14:12:43Z</time>
      </trkpt>
      <trkpt lat="50.16886" lon="1.66607">
        <ele>4</ele>
        <time>2022-04-22T14:12:44Z</time>
      </trkpt>
      <trkpt lat="50.16887" lon="1.66606">
        <ele>4</ele>
        <time>2022-04-22T14:12:45Z</time>
      </trkpt>
      <trkpt lat="50.16888" lon="1.66605">
        <ele>4</ele>
        <time>2022-04-22T14:12:46Z</time>
      </trkpt>
      <trkpt lat="50.16889" lon="1.66604">
        <ele>4</ele>
        <time>2022-04-22T14:12:47Z</time>
      </trkpt>
      <trkpt lat="50.1689" lon="1.66604">
        <ele>4</ele>
        <time>2022-04-22T14:12:48Z</time>
      </trkpt>
      <trkpt lat="50.16891" lon="1.66602">
        <ele>4</ele>
        <time>2022-04-22T14:12:50Z</time>
      </trkpt>
      <trkpt lat="50.16892" lon="1.666">
        <ele>4</ele>
        <time>2022-04-22T14:12:52Z</time>
      </trkpt>
      <trkpt lat="50.16893" lon="1.66598">
        <ele>4</ele>
        <time>2022-04-22T14:12:53Z</time>
      </trkpt>
      <trkpt lat="50.16894" lon="1.66597">
        <ele>4</ele>
        <time>2022-04-22T14:12:54Z</time>
      </trkpt>
      <trkpt lat="50.16895" lon="1.66595">
        <ele>4</ele>
        <time>2022-04-22T14:12:55Z</time>
      </trkpt>
      <trkpt lat="50.16897" lon="1.66592">
        <ele>4</ele>
        <time>2022-04-22T14:12:56Z</time>
      </trkpt>
      <trkpt lat="50.16897" lon="1.66592">
        <ele>4</ele>
        <time>2022-04-22T14:12:58Z</time>
      </trkpt>
      <trkpt lat="50.16898" lon="1.66591">
        <ele>4</ele>
        <time>2022-04-22T14:12:59Z</time>
      </trkpt>
      <trkpt lat="50.16899" lon="1.66588">
        <ele>3.9</ele>
        <time>2022-04-22T14:13:00Z</time>
      </trkpt>
      <trkpt lat="50.169" lon="1.66587">
        <ele>3.9</ele>
        <time>2022-04-22T14:13:01Z</time>
      </trkpt>
      <trkpt lat="50.169" lon="1.66586">
        <ele>3.9</ele>
        <time>2022-04-22T14:13:02Z</time>
      </trkpt>
      <trkpt lat="50.16902" lon="1.66584">
        <ele>3.9</ele>
        <time>2022-04-22T14:13:03Z</time>
      </trkpt>
      <trkpt lat="50.16902" lon="1.66583">
        <ele>3.9</ele>
        <time>2022-04-22T14:13:04Z</time>
      </trkpt>
      <trkpt lat="50.16903" lon="1.66581">
        <ele>3.9</ele>
        <time>2022-04-22T14:13:05Z</time>
      </trkpt>
      <trkpt lat="50.16904" lon="1.6658">
        <ele>3.9</ele>
        <time>2022-04-22T14:13:06Z</time>
      </trkpt>
      <trkpt lat="50.16905" lon="1.66578">
        <ele>3.9</ele>
        <time>2022-04-22T14:13:07Z</time>
      </trkpt>
      <trkpt lat="50.16906" lon="1.66576">
        <ele>3.9</ele>
        <time>2022-04-22T14:13:08Z</time>
      </trkpt>
      <trkpt lat="50.16907" lon="1.66575">
        <ele>3.9</ele>
        <time>2022-04-22T14:13:09Z</time>
      </trkpt>
      <trkpt lat="50.16907" lon="1.66574">
        <ele>3.9</ele>
        <time>2022-04-22T14:13:10Z</time>
      </trkpt>
      <trkpt lat="50.16908" lon="1.66572">
        <ele>3.9</ele>
        <time>2022-04-22T14:13:11Z</time>
      </trkpt>
      <trkpt lat="50.16909" lon="1.66571">
        <ele>3.9</ele>
        <time>2022-04-22T14:13:12Z</time>
      </trkpt>
      <trkpt lat="50.1691" lon="1.66569">
        <ele>3.9</ele>
        <time>2022-04-22T14:13:14Z</time>
      </trkpt>
      <trkpt lat="50.16911" lon="1.66568">
        <ele>3.9</ele>
        <time>2022-04-22T14:13:15Z</time>
      </trkpt>
      <trkpt lat="50.16913" lon="1.66564">
        <ele>3.9</ele>
        <time>2022-04-22T14:13:16Z</time>
      </trkpt>
      <trkpt lat="50.16913" lon="1.66563">
        <ele>3.9</ele>
        <time>2022-04-22T14:13:17Z</time>
      </trkpt>
      <trkpt lat="50.16914" lon="1.66561">
        <ele>3.9</ele>
        <time>2022-04-22T14:13:18Z</time>
      </trkpt>
      <trkpt lat="50.16915" lon="1.66559">
        <ele>3.9</ele>
        <time>2022-04-22T14:13:19Z</time>
      </trkpt>
      <trkpt lat="50.16917" lon="1.66557">
        <ele>3.9</ele>
        <time>2022-04-22T14:13:20Z</time>
      </trkpt>
      <trkpt lat="50.16918" lon="1.66556">
        <ele>4</ele>
        <time>2022-04-22T14:13:21Z</time>
      </trkpt>
      <trkpt lat="50.16918" lon="1.66555">
        <ele>4</ele>
        <time>2022-04-22T14:13:22Z</time>
      </trkpt>
      <trkpt lat="50.16919" lon="1.66553">
        <ele>4</ele>
        <time>2022-04-22T14:13:23Z</time>
      </trkpt>
      <trkpt lat="50.1692" lon="1.66552">
        <ele>4</ele>
        <time>2022-04-22T14:13:24Z</time>
      </trkpt>
      <trkpt lat="50.1692" lon="1.66551">
        <ele>4</ele>
        <time>2022-04-22T14:13:25Z</time>
      </trkpt>
      <trkpt lat="50.16921" lon="1.66549">
        <ele>4</ele>
        <time>2022-04-22T14:13:26Z</time>
      </trkpt>
      <trkpt lat="50.16922" lon="1.66547">
        <ele>4</ele>
        <time>2022-04-22T14:13:27Z</time>
      </trkpt>
      <trkpt lat="50.16923" lon="1.66545">
        <ele>4</ele>
        <time>2022-04-22T14:13:29Z</time>
      </trkpt>
      <trkpt lat="50.16923" lon="1.66542">
        <ele>4</ele>
        <time>2022-04-22T14:13:30Z</time>
      </trkpt>
      <trkpt lat="50.16924" lon="1.6654">
        <ele>4</ele>
        <time>2022-04-22T14:13:31Z</time>
      </trkpt>
      <trkpt lat="50.16925" lon="1.66538">
        <ele>3.9</ele>
        <time>2022-04-22T14:13:32Z</time>
      </trkpt>
      <trkpt lat="50.16926" lon="1.66536">
        <ele>3.9</ele>
        <time>2022-04-22T14:13:33Z</time>
      </trkpt>
      <trkpt lat="50.16927" lon="1.66533">
        <ele>3.9</ele>
        <time>2022-04-22T14:13:34Z</time>
      </trkpt>
      <trkpt lat="50.16929" lon="1.6653">
        <ele>3.9</ele>
        <time>2022-04-22T14:13:35Z</time>
      </trkpt>
      <trkpt lat="50.16929" lon="1.66528">
        <ele>3.9</ele>
        <time>2022-04-22T14:13:36Z</time>
      </trkpt>
      <trkpt lat="50.1693" lon="1.66526">
        <ele>3.9</ele>
        <time>2022-04-22T14:13:37Z</time>
      </trkpt>
      <trkpt lat="50.16931" lon="1.66524">
        <ele>3.9</ele>
        <time>2022-04-22T14:13:38Z</time>
      </trkpt>
      <trkpt lat="50.16931" lon="1.66522">
        <ele>3.9</ele>
        <time>2022-04-22T14:13:39Z</time>
      </trkpt>
      <trkpt lat="50.16932" lon="1.6652">
        <ele>3.9</ele>
        <time>2022-04-22T14:13:40Z</time>
      </trkpt>
      <trkpt lat="50.16933" lon="1.66519">
        <ele>3.9</ele>
        <time>2022-04-22T14:13:41Z</time>
      </trkpt>
      <trkpt lat="50.16933" lon="1.66516">
        <ele>3.9</ele>
        <time>2022-04-22T14:13:42Z</time>
      </trkpt>
      <trkpt lat="50.16934" lon="1.66514">
        <ele>3.9</ele>
        <time>2022-04-22T14:13:43Z</time>
      </trkpt>
      <trkpt lat="50.16935" lon="1.66512">
        <ele>3.9</ele>
        <time>2022-04-22T14:13:45Z</time>
      </trkpt>
      <trkpt lat="50.16936" lon="1.6651">
        <ele>3.9</ele>
        <time>2022-04-22T14:13:46Z</time>
      </trkpt>
      <trkpt lat="50.16937" lon="1.66508">
        <ele>3.9</ele>
        <time>2022-04-22T14:13:47Z</time>
      </trkpt>
      <trkpt lat="50.16938" lon="1.66504">
        <ele>4</ele>
        <time>2022-04-22T14:13:48Z</time>
      </trkpt>
      <trkpt lat="50.16939" lon="1.66503">
        <ele>4</ele>
        <time>2022-04-22T14:13:49Z</time>
      </trkpt>
      <trkpt lat="50.16939" lon="1.66501">
        <ele>4</ele>
        <time>2022-04-22T14:13:51Z</time>
      </trkpt>
      <trkpt lat="50.1694" lon="1.66499">
        <ele>4</ele>
        <time>2022-04-22T14:13:52Z</time>
      </trkpt>
      <trkpt lat="50.16941" lon="1.66498">
        <ele>4</ele>
        <time>2022-04-22T14:13:53Z</time>
      </trkpt>
      <trkpt lat="50.16942" lon="1.66497">
        <ele>4</ele>
        <time>2022-04-22T14:13:54Z</time>
      </trkpt>
      <trkpt lat="50.16942" lon="1.66496">
        <ele>4</ele>
        <time>2022-04-22T14:13:55Z</time>
      </trkpt>
      <trkpt lat="50.16943" lon="1.66495">
        <ele>4</ele>
        <time>2022-04-22T14:13:56Z</time>
      </trkpt>
      <trkpt lat="50.16943" lon="1.66493">
        <ele>4</ele>
        <time>2022-04-22T14:13:57Z</time>
      </trkpt>
      <trkpt lat="50.16944" lon="1.66491">
        <ele>4</ele>
        <time>2022-04-22T14:13:58Z</time>
      </trkpt>
      <trkpt lat="50.16945" lon="1.66489">
        <ele>4</ele>
        <time>2022-04-22T14:13:59Z</time>
      </trkpt>
      <trkpt lat="50.16945" lon="1.66487">
        <ele>4</ele>
        <time>2022-04-22T14:14:00Z</time>
      </trkpt>
      <trkpt lat="50.16946" lon="1.66486">
        <ele>4</ele>
        <time>2022-04-22T14:14:01Z</time>
      </trkpt>
      <trkpt lat="50.16946" lon="1.66483">
        <ele>4</ele>
        <time>2022-04-22T14:14:03Z</time>
      </trkpt>
      <trkpt lat="50.16947" lon="1.6648">
        <ele>4</ele>
        <time>2022-04-22T14:14:04Z</time>
      </trkpt>
      <trkpt lat="50.16948" lon="1.66478">
        <ele>4</ele>
        <time>2022-04-22T14:14:06Z</time>
      </trkpt>
      <trkpt lat="50.16948" lon="1.66476">
        <ele>4</ele>
        <time>2022-04-22T14:14:07Z</time>
      </trkpt>
      <trkpt lat="50.16949" lon="1.66474">
        <ele>4</ele>
        <time>2022-04-22T14:14:08Z</time>
      </trkpt>
      <trkpt lat="50.1695" lon="1.66473">
        <ele>4</ele>
        <time>2022-04-22T14:14:09Z</time>
      </trkpt>
      <trkpt lat="50.1695" lon="1.66471">
        <ele>4</ele>
        <time>2022-04-22T14:14:10Z</time>
      </trkpt>
      <trkpt lat="50.16951" lon="1.66469">
        <ele>4</ele>
        <time>2022-04-22T14:14:12Z</time>
      </trkpt>
      <trkpt lat="50.16952" lon="1.66467">
        <ele>4.1</ele>
        <time>2022-04-22T14:14:13Z</time>
      </trkpt>
      <trkpt lat="50.16952" lon="1.66465">
        <ele>4.1</ele>
        <time>2022-04-22T14:14:14Z</time>
      </trkpt>
      <trkpt lat="50.16954" lon="1.66462">
        <ele>4.1</ele>
        <time>2022-04-22T14:14:15Z</time>
      </trkpt>
      <trkpt lat="50.16954" lon="1.66461">
        <ele>4.1</ele>
        <time>2022-04-22T14:14:16Z</time>
      </trkpt>
      <trkpt lat="50.16955" lon="1.6646">
        <ele>4.1</ele>
        <time>2022-04-22T14:14:18Z</time>
      </trkpt>
      <trkpt lat="50.16955" lon="1.66458">
        <ele>4.1</ele>
        <time>2022-04-22T14:14:19Z</time>
      </trkpt>
      <trkpt lat="50.16956" lon="1.66457">
        <ele>4.1</ele>
        <time>2022-04-22T14:14:20Z</time>
      </trkpt>
      <trkpt lat="50.16957" lon="1.66456">
        <ele>4.1</ele>
        <time>2022-04-22T14:14:21Z</time>
      </trkpt>
      <trkpt lat="50.16958" lon="1.66454">
        <ele>4.1</ele>
        <time>2022-04-22T14:14:22Z</time>
      </trkpt>
      <trkpt lat="50.16959" lon="1.66453">
        <ele>4.1</ele>
        <time>2022-04-22T14:14:23Z</time>
      </trkpt>
      <trkpt lat="50.16959" lon="1.66452">
        <ele>4.1</ele>
        <time>2022-04-22T14:14:24Z</time>
      </trkpt>
      <trkpt lat="50.1696" lon="1.6645">
        <ele>4.1</ele>
        <time>2022-04-22T14:14:25Z</time>
      </trkpt>
      <trkpt lat="50.16961" lon="1.66448">
        <ele>4.1</ele>
        <time>2022-04-22T14:14:26Z</time>
      </trkpt>
      <trkpt lat="50.16962" lon="1.66446">
        <ele>4.1</ele>
        <time>2022-04-22T14:14:27Z</time>
      </trkpt>
      <trkpt lat="50.16962" lon="1.66444">
        <ele>4.1</ele>
        <time>2022-04-22T14:14:28Z</time>
      </trkpt>
      <trkpt lat="50.16963" lon="1.66443">
        <ele>4.1</ele>
        <time>2022-04-22T14:14:29Z</time>
      </trkpt>
      <trkpt lat="50.16965" lon="1.66442">
        <ele>4.1</ele>
        <time>2022-04-22T14:14:31Z</time>
      </trkpt>
      <trkpt lat="50.16965" lon="1.66441">
        <ele>4.1</ele>
        <time>2022-04-22T14:14:32Z</time>
      </trkpt>
      <trkpt lat="50.16966" lon="1.66439">
        <ele>4.1</ele>
        <time>2022-04-22T14:14:33Z</time>
      </trkpt>
      <trkpt lat="50.16967" lon="1.66437">
        <ele>4.2</ele>
        <time>2022-04-22T14:14:34Z</time>
      </trkpt>
      <trkpt lat="50.16968" lon="1.66434">
        <ele>4.2</ele>
        <time>2022-04-22T14:14:36Z</time>
      </trkpt>
      <trkpt lat="50.16969" lon="1.66433">
        <ele>4.2</ele>
        <time>2022-04-22T14:14:37Z</time>
      </trkpt>
      <trkpt lat="50.16969" lon="1.66431">
        <ele>4.2</ele>
        <time>2022-04-22T14:14:38Z</time>
      </trkpt>
      <trkpt lat="50.1697" lon="1.66429">
        <ele>4.2</ele>
        <time>2022-04-22T14:14:39Z</time>
      </trkpt>
      <trkpt lat="50.16971" lon="1.66427">
        <ele>4.2</ele>
        <time>2022-04-22T14:14:40Z</time>
      </trkpt>
      <trkpt lat="50.16971" lon="1.66424">
        <ele>4.2</ele>
        <time>2022-04-22T14:14:41Z</time>
      </trkpt>
      <trkpt lat="50.16972" lon="1.66422">
        <ele>4.2</ele>
        <time>2022-04-22T14:14:42Z</time>
      </trkpt>
      <trkpt lat="50.16974" lon="1.66419">
        <ele>4.2</ele>
        <time>2022-04-22T14:14:44Z</time>
      </trkpt>
      <trkpt lat="50.16975" lon="1.66417">
        <ele>4.2</ele>
        <time>2022-04-22T14:14:45Z</time>
      </trkpt>
      <trkpt lat="50.16976" lon="1.66415">
        <ele>4.2</ele>
        <time>2022-04-22T14:14:46Z</time>
      </trkpt>
      <trkpt lat="50.16976" lon="1.66413">
        <ele>4.2</ele>
        <time>2022-04-22T14:14:47Z</time>
      </trkpt>
      <trkpt lat="50.16977" lon="1.66412">
        <ele>4.2</ele>
        <time>2022-04-22T14:14:48Z</time>
      </trkpt>
      <trkpt lat="50.16977" lon="1.66411">
        <ele>4.2</ele>
        <time>2022-04-22T14:14:49Z</time>
      </trkpt>
      <trkpt lat="50.16977" lon="1.6641">
        <ele>4.2</ele>
        <time>2022-04-22T14:14:50Z</time>
      </trkpt>
      <trkpt lat="50.16978" lon="1.66409">
        <ele>4.2</ele>
        <time>2022-04-22T14:14:51Z</time>
      </trkpt>
      <trkpt lat="50.16978" lon="1.66408">
        <ele>4.2</ele>
        <time>2022-04-22T14:14:53Z</time>
      </trkpt>
      <trkpt lat="50.16979" lon="1.66406">
        <ele>4.2</ele>
        <time>2022-04-22T14:14:54Z</time>
      </trkpt>
      <trkpt lat="50.1698" lon="1.66404">
        <ele>4.2</ele>
        <time>2022-04-22T14:14:55Z</time>
      </trkpt>
      <trkpt lat="50.1698" lon="1.66402">
        <ele>4.2</ele>
        <time>2022-04-22T14:14:56Z</time>
      </trkpt>
      <trkpt lat="50.16981" lon="1.66401">
        <ele>4.2</ele>
        <time>2022-04-22T14:14:57Z</time>
      </trkpt>
      <trkpt lat="50.16981" lon="1.664">
        <ele>4.2</ele>
        <time>2022-04-22T14:14:58Z</time>
      </trkpt>
      <trkpt lat="50.16982" lon="1.66399">
        <ele>4.2</ele>
        <time>2022-04-22T14:14:59Z</time>
      </trkpt>
      <trkpt lat="50.16982" lon="1.66398">
        <ele>4.2</ele>
        <time>2022-04-22T14:15:00Z</time>
      </trkpt>
      <trkpt lat="50.16984" lon="1.66394">
        <ele>4.2</ele>
        <time>2022-04-22T14:15:01Z</time>
      </trkpt>
      <trkpt lat="50.16984" lon="1.66394">
        <ele>4.2</ele>
        <time>2022-04-22T14:15:02Z</time>
      </trkpt>
      <trkpt lat="50.16984" lon="1.66393">
        <ele>4.2</ele>
        <time>2022-04-22T14:15:03Z</time>
      </trkpt>
      <trkpt lat="50.16985" lon="1.66391">
        <ele>4.2</ele>
        <time>2022-04-22T14:15:04Z</time>
      </trkpt>
      <trkpt lat="50.16986" lon="1.6639">
        <ele>4.2</ele>
        <time>2022-04-22T14:15:05Z</time>
      </trkpt>
      <trkpt lat="50.16986" lon="1.66388">
        <ele>4.2</ele>
        <time>2022-04-22T14:15:07Z</time>
      </trkpt>
      <trkpt lat="50.16987" lon="1.66386">
        <ele>4.2</ele>
        <time>2022-04-22T14:15:08Z</time>
      </trkpt>
      <trkpt lat="50.16987" lon="1.66385">
        <ele>4.2</ele>
        <time>2022-04-22T14:15:09Z</time>
      </trkpt>
      <trkpt lat="50.16987" lon="1.66383">
        <ele>4.2</ele>
        <time>2022-04-22T14:15:10Z</time>
      </trkpt>
      <trkpt lat="50.16987" lon="1.66379">
        <ele>4.2</ele>
        <time>2022-04-22T14:15:11Z</time>
      </trkpt>
      <trkpt lat="50.16988" lon="1.66378">
        <ele>4.2</ele>
        <time>2022-04-22T14:15:12Z</time>
      </trkpt>
      <trkpt lat="50.16988" lon="1.66377">
        <ele>4.2</ele>
        <time>2022-04-22T14:15:13Z</time>
      </trkpt>
      <trkpt lat="50.16988" lon="1.66375">
        <ele>4.2</ele>
        <time>2022-04-22T14:15:14Z</time>
      </trkpt>
      <trkpt lat="50.16988" lon="1.66374">
        <ele>4.2</ele>
        <time>2022-04-22T14:15:15Z</time>
      </trkpt>
      <trkpt lat="50.16988" lon="1.66372">
        <ele>4.2</ele>
        <time>2022-04-22T14:15:16Z</time>
      </trkpt>
      <trkpt lat="50.16989" lon="1.66371">
        <ele>4.2</ele>
        <time>2022-04-22T14:15:17Z</time>
      </trkpt>
      <trkpt lat="50.16989" lon="1.66369">
        <ele>4.2</ele>
        <time>2022-04-22T14:15:18Z</time>
      </trkpt>
      <trkpt lat="50.16989" lon="1.66367">
        <ele>4.2</ele>
        <time>2022-04-22T14:15:19Z</time>
      </trkpt>
      <trkpt lat="50.1699" lon="1.66365">
        <ele>4.2</ele>
        <time>2022-04-22T14:15:21Z</time>
      </trkpt>
      <trkpt lat="50.1699" lon="1.66362">
        <ele>4.2</ele>
        <time>2022-04-22T14:15:22Z</time>
      </trkpt>
      <trkpt lat="50.16991" lon="1.6636">
        <ele>4.2</ele>
        <time>2022-04-22T14:15:23Z</time>
      </trkpt>
      <trkpt lat="50.16991" lon="1.66359">
        <ele>4.2</ele>
        <time>2022-04-22T14:15:24Z</time>
      </trkpt>
      <trkpt lat="50.16992" lon="1.66357">
        <ele>4.2</ele>
        <time>2022-04-22T14:15:25Z</time>
      </trkpt>
      <trkpt lat="50.16993" lon="1.66355">
        <ele>4.2</ele>
        <time>2022-04-22T14:15:26Z</time>
      </trkpt>
      <trkpt lat="50.16994" lon="1.66354">
        <ele>4.2</ele>
        <time>2022-04-22T14:15:27Z</time>
      </trkpt>
      <trkpt lat="50.16995" lon="1.66351">
        <ele>4.2</ele>
        <time>2022-04-22T14:15:28Z</time>
      </trkpt>
      <trkpt lat="50.16995" lon="1.6635">
        <ele>4.2</ele>
        <time>2022-04-22T14:15:29Z</time>
      </trkpt>
      <trkpt lat="50.16996" lon="1.66348">
        <ele>4.2</ele>
        <time>2022-04-22T14:15:30Z</time>
      </trkpt>
      <trkpt lat="50.16996" lon="1.66347">
        <ele>4.2</ele>
        <time>2022-04-22T14:15:31Z</time>
      </trkpt>
      <trkpt lat="50.16997" lon="1.66345">
        <ele>4.2</ele>
        <time>2022-04-22T14:15:32Z</time>
      </trkpt>
      <trkpt lat="50.16998" lon="1.66343">
        <ele>4.2</ele>
        <time>2022-04-22T14:15:34Z</time>
      </trkpt>
      <trkpt lat="50.16999" lon="1.66341">
        <ele>4.3</ele>
        <time>2022-04-22T14:15:35Z</time>
      </trkpt>
      <trkpt lat="50.17" lon="1.66339">
        <ele>4.3</ele>
        <time>2022-04-22T14:15:36Z</time>
      </trkpt>
      <trkpt lat="50.17001" lon="1.66337">
        <ele>4.3</ele>
        <time>2022-04-22T14:15:37Z</time>
      </trkpt>
      <trkpt lat="50.17001" lon="1.66334">
        <ele>4.3</ele>
        <time>2022-04-22T14:15:38Z</time>
      </trkpt>
      <trkpt lat="50.17001" lon="1.66333">
        <ele>4.3</ele>
        <time>2022-04-22T14:15:39Z</time>
      </trkpt>
      <trkpt lat="50.17002" lon="1.66331">
        <ele>4.3</ele>
        <time>2022-04-22T14:15:40Z</time>
      </trkpt>
      <trkpt lat="50.17002" lon="1.66329">
        <ele>4.3</ele>
        <time>2022-04-22T14:15:41Z</time>
      </trkpt>
      <trkpt lat="50.17003" lon="1.66328">
        <ele>4.2</ele>
        <time>2022-04-22T14:15:42Z</time>
      </trkpt>
      <trkpt lat="50.17003" lon="1.66325">
        <ele>4.2</ele>
        <time>2022-04-22T14:15:44Z</time>
      </trkpt>
      <trkpt lat="50.17004" lon="1.66323">
        <ele>4.2</ele>
        <time>2022-04-22T14:15:45Z</time>
      </trkpt>
      <trkpt lat="50.17004" lon="1.66321">
        <ele>4.2</ele>
        <time>2022-04-22T14:15:46Z</time>
      </trkpt>
      <trkpt lat="50.17005" lon="1.66319">
        <ele>4.2</ele>
        <time>2022-04-22T14:15:47Z</time>
      </trkpt>
      <trkpt lat="50.17006" lon="1.66317">
        <ele>4.2</ele>
        <time>2022-04-22T14:15:48Z</time>
      </trkpt>
      <trkpt lat="50.17007" lon="1.66316">
        <ele>4.2</ele>
        <time>2022-04-22T14:15:49Z</time>
      </trkpt>
      <trkpt lat="50.17008" lon="1.66312">
        <ele>4.2</ele>
        <time>2022-04-22T14:15:51Z</time>
      </trkpt>
      <trkpt lat="50.17009" lon="1.66311">
        <ele>4.2</ele>
        <time>2022-04-22T14:15:52Z</time>
      </trkpt>
      <trkpt lat="50.1701" lon="1.66308">
        <ele>4.2</ele>
        <time>2022-04-22T14:15:53Z</time>
      </trkpt>
      <trkpt lat="50.1701" lon="1.66307">
        <ele>4.2</ele>
        <time>2022-04-22T14:15:54Z</time>
      </trkpt>
      <trkpt lat="50.17011" lon="1.66306">
        <ele>4.2</ele>
        <time>2022-04-22T14:15:55Z</time>
      </trkpt>
      <trkpt lat="50.17012" lon="1.66303">
        <ele>4.3</ele>
        <time>2022-04-22T14:15:56Z</time>
      </trkpt>
      <trkpt lat="50.17013" lon="1.66302">
        <ele>4.3</ele>
        <time>2022-04-22T14:15:57Z</time>
      </trkpt>
      <trkpt lat="50.17013" lon="1.66301">
        <ele>4.3</ele>
        <time>2022-04-22T14:15:58Z</time>
      </trkpt>
      <trkpt lat="50.17014" lon="1.66297">
        <ele>4.3</ele>
        <time>2022-04-22T14:15:59Z</time>
      </trkpt>
      <trkpt lat="50.17015" lon="1.66295">
        <ele>4.3</ele>
        <time>2022-04-22T14:16:02Z</time>
      </trkpt>
      <trkpt lat="50.17016" lon="1.66294">
        <ele>4.3</ele>
        <time>2022-04-22T14:16:03Z</time>
      </trkpt>
      <trkpt lat="50.17017" lon="1.66292">
        <ele>4.3</ele>
        <time>2022-04-22T14:16:04Z</time>
      </trkpt>
      <trkpt lat="50.17017" lon="1.6629">
        <ele>4.3</ele>
        <time>2022-04-22T14:16:05Z</time>
      </trkpt>
      <trkpt lat="50.17019" lon="1.66287">
        <ele>4.3</ele>
        <time>2022-04-22T14:16:06Z</time>
      </trkpt>
      <trkpt lat="50.1702" lon="1.66285">
        <ele>4.3</ele>
        <time>2022-04-22T14:16:08Z</time>
      </trkpt>
      <trkpt lat="50.17021" lon="1.66282">
        <ele>4.3</ele>
        <time>2022-04-22T14:16:09Z</time>
      </trkpt>
      <trkpt lat="50.17022" lon="1.6628">
        <ele>4.3</ele>
        <time>2022-04-22T14:16:10Z</time>
      </trkpt>
      <trkpt lat="50.17022" lon="1.66279">
        <ele>4.3</ele>
        <time>2022-04-22T14:16:11Z</time>
      </trkpt>
      <trkpt lat="50.17023" lon="1.66278">
        <ele>4.3</ele>
        <time>2022-04-22T14:16:12Z</time>
      </trkpt>
      <trkpt lat="50.17023" lon="1.66276">
        <ele>4.3</ele>
        <time>2022-04-22T14:16:14Z</time>
      </trkpt>
      <trkpt lat="50.17024" lon="1.66274">
        <ele>4.3</ele>
        <time>2022-04-22T14:16:15Z</time>
      </trkpt>
      <trkpt lat="50.17025" lon="1.66271">
        <ele>4.3</ele>
        <time>2022-04-22T14:16:17Z</time>
      </trkpt>
      <trkpt lat="50.17025" lon="1.6627">
        <ele>4.3</ele>
        <time>2022-04-22T14:16:18Z</time>
      </trkpt>
      <trkpt lat="50.17025" lon="1.66269">
        <ele>4.3</ele>
        <time>2022-04-22T14:16:19Z</time>
      </trkpt>
      <trkpt lat="50.17026" lon="1.66266">
        <ele>4.3</ele>
        <time>2022-04-22T14:16:20Z</time>
      </trkpt>
      <trkpt lat="50.17026" lon="1.66264">
        <ele>4.3</ele>
        <time>2022-04-22T14:16:21Z</time>
      </trkpt>
      <trkpt lat="50.17026" lon="1.66263">
        <ele>4.3</ele>
        <time>2022-04-22T14:16:22Z</time>
      </trkpt>
      <trkpt lat="50.17026" lon="1.66262">
        <ele>4.3</ele>
        <time>2022-04-22T14:16:23Z</time>
      </trkpt>
      <trkpt lat="50.17026" lon="1.6626">
        <ele>4.3</ele>
        <time>2022-04-22T14:16:24Z</time>
      </trkpt>
      <trkpt lat="50.17026" lon="1.66259">
        <ele>4.3</ele>
        <time>2022-04-22T14:16:25Z</time>
      </trkpt>
      <trkpt lat="50.17027" lon="1.66256">
        <ele>4.3</ele>
        <time>2022-04-22T14:16:26Z</time>
      </trkpt>
      <trkpt lat="50.17027" lon="1.66255">
        <ele>4.3</ele>
        <time>2022-04-22T14:16:27Z</time>
      </trkpt>
      <trkpt lat="50.17027" lon="1.66253">
        <ele>4.3</ele>
        <time>2022-04-22T14:16:28Z</time>
      </trkpt>
      <trkpt lat="50.17028" lon="1.6625">
        <ele>4.3</ele>
        <time>2022-04-22T14:16:30Z</time>
      </trkpt>
      <trkpt lat="50.17028" lon="1.66249">
        <ele>4.3</ele>
        <time>2022-04-22T14:16:31Z</time>
      </trkpt>
      <trkpt lat="50.17028" lon="1.66248">
        <ele>4.3</ele>
        <time>2022-04-22T14:16:32Z</time>
      </trkpt>
      <trkpt lat="50.17028" lon="1.66246">
        <ele>4.3</ele>
        <time>2022-04-22T14:16:33Z</time>
      </trkpt>
      <trkpt lat="50.17029" lon="1.66244">
        <ele>4.3</ele>
        <time>2022-04-22T14:16:34Z</time>
      </trkpt>
      <trkpt lat="50.17029" lon="1.66242">
        <ele>4.3</ele>
        <time>2022-04-22T14:16:35Z</time>
      </trkpt>
      <trkpt lat="50.17029" lon="1.66241">
        <ele>4.3</ele>
        <time>2022-04-22T14:16:36Z</time>
      </trkpt>
      <trkpt lat="50.1703" lon="1.66239">
        <ele>4.3</ele>
        <time>2022-04-22T14:16:37Z</time>
      </trkpt>
      <trkpt lat="50.1703" lon="1.66237">
        <ele>4.3</ele>
        <time>2022-04-22T14:16:38Z</time>
      </trkpt>
      <trkpt lat="50.1703" lon="1.66236">
        <ele>4.3</ele>
        <time>2022-04-22T14:16:39Z</time>
      </trkpt>
      <trkpt lat="50.1703" lon="1.66235">
        <ele>4.3</ele>
        <time>2022-04-22T14:16:40Z</time>
      </trkpt>
      <trkpt lat="50.1703" lon="1.66233">
        <ele>4.2</ele>
        <time>2022-04-22T14:16:42Z</time>
      </trkpt>
      <trkpt lat="50.1703" lon="1.66231">
        <ele>4.2</ele>
        <time>2022-04-22T14:16:43Z</time>
      </trkpt>
      <trkpt lat="50.1703" lon="1.6623">
        <ele>4.2</ele>
        <time>2022-04-22T14:16:44Z</time>
      </trkpt>
      <trkpt lat="50.1703" lon="1.66228">
        <ele>4.2</ele>
        <time>2022-04-22T14:16:45Z</time>
      </trkpt>
      <trkpt lat="50.1703" lon="1.66225">
        <ele>4.2</ele>
        <time>2022-04-22T14:16:46Z</time>
      </trkpt>
      <trkpt lat="50.17029" lon="1.66224">
        <ele>4.2</ele>
        <time>2022-04-22T14:16:47Z</time>
      </trkpt>
      <trkpt lat="50.1703" lon="1.66221">
        <ele>4.2</ele>
        <time>2022-04-22T14:16:48Z</time>
      </trkpt>
      <trkpt lat="50.1703" lon="1.66219">
        <ele>4.2</ele>
        <time>2022-04-22T14:16:49Z</time>
      </trkpt>
      <trkpt lat="50.1703" lon="1.66218">
        <ele>4.2</ele>
        <time>2022-04-22T14:16:50Z</time>
      </trkpt>
      <trkpt lat="50.17031" lon="1.66214">
        <ele>4.2</ele>
        <time>2022-04-22T14:16:51Z</time>
      </trkpt>
      <trkpt lat="50.17032" lon="1.66214">
        <ele>4.2</ele>
        <time>2022-04-22T14:16:53Z</time>
      </trkpt>
      <trkpt lat="50.17032" lon="1.66212">
        <ele>4.2</ele>
        <time>2022-04-22T14:16:54Z</time>
      </trkpt>
      <trkpt lat="50.17033" lon="1.6621">
        <ele>4.2</ele>
        <time>2022-04-22T14:16:55Z</time>
      </trkpt>
      <trkpt lat="50.17035" lon="1.66206">
        <ele>4.2</ele>
        <time>2022-04-22T14:16:57Z</time>
      </trkpt>
      <trkpt lat="50.17036" lon="1.66203">
        <ele>4.2</ele>
        <time>2022-04-22T14:16:58Z</time>
      </trkpt>
      <trkpt lat="50.17036" lon="1.66202">
        <ele>4.2</ele>
        <time>2022-04-22T14:16:59Z</time>
      </trkpt>
      <trkpt lat="50.17037" lon="1.662">
        <ele>4.2</ele>
        <time>2022-04-22T14:17:00Z</time>
      </trkpt>
      <trkpt lat="50.17038" lon="1.66197">
        <ele>4.2</ele>
        <time>2022-04-22T14:17:01Z</time>
      </trkpt>
      <trkpt lat="50.17039" lon="1.66195">
        <ele>4.2</ele>
        <time>2022-04-22T14:17:02Z</time>
      </trkpt>
      <trkpt lat="50.17039" lon="1.66193">
        <ele>4.2</ele>
        <time>2022-04-22T14:17:03Z</time>
      </trkpt>
      <trkpt lat="50.1704" lon="1.6619">
        <ele>4.2</ele>
        <time>2022-04-22T14:17:05Z</time>
      </trkpt>
      <trkpt lat="50.1704" lon="1.66188">
        <ele>4.2</ele>
        <time>2022-04-22T14:17:06Z</time>
      </trkpt>
      <trkpt lat="50.17042" lon="1.66186">
        <ele>4.2</ele>
        <time>2022-04-22T14:17:07Z</time>
      </trkpt>
      <trkpt lat="50.17042" lon="1.66185">
        <ele>4.2</ele>
        <time>2022-04-22T14:17:08Z</time>
      </trkpt>
      <trkpt lat="50.17043" lon="1.66184">
        <ele>4.2</ele>
        <time>2022-04-22T14:17:09Z</time>
      </trkpt>
      <trkpt lat="50.17044" lon="1.66183">
        <ele>4.2</ele>
        <time>2022-04-22T14:17:10Z</time>
      </trkpt>
      <trkpt lat="50.17046" lon="1.66179">
        <ele>4.2</ele>
        <time>2022-04-22T14:17:11Z</time>
      </trkpt>
      <trkpt lat="50.17046" lon="1.66178">
        <ele>4.2</ele>
        <time>2022-04-22T14:17:13Z</time>
      </trkpt>
      <trkpt lat="50.17047" lon="1.66176">
        <ele>4.2</ele>
        <time>2022-04-22T14:17:14Z</time>
      </trkpt>
      <trkpt lat="50.17048" lon="1.66175">
        <ele>4.2</ele>
        <time>2022-04-22T14:17:15Z</time>
      </trkpt>
      <trkpt lat="50.17048" lon="1.66173">
        <ele>4.2</ele>
        <time>2022-04-22T14:17:16Z</time>
      </trkpt>
      <trkpt lat="50.17049" lon="1.66171">
        <ele>4.2</ele>
        <time>2022-04-22T14:17:17Z</time>
      </trkpt>
      <trkpt lat="50.1705" lon="1.66169">
        <ele>4.2</ele>
        <time>2022-04-22T14:17:18Z</time>
      </trkpt>
      <trkpt lat="50.17051" lon="1.66167">
        <ele>4.2</ele>
        <time>2022-04-22T14:17:20Z</time>
      </trkpt>
      <trkpt lat="50.17051" lon="1.66166">
        <ele>4.2</ele>
        <time>2022-04-22T14:17:21Z</time>
      </trkpt>
      <trkpt lat="50.17052" lon="1.66163">
        <ele>4.2</ele>
        <time>2022-04-22T14:17:22Z</time>
      </trkpt>
      <trkpt lat="50.17053" lon="1.66161">
        <ele>4.3</ele>
        <time>2022-04-22T14:17:23Z</time>
      </trkpt>
      <trkpt lat="50.17053" lon="1.6616">
        <ele>4.3</ele>
        <time>2022-04-22T14:17:24Z</time>
      </trkpt>
      <trkpt lat="50.17054" lon="1.66157">
        <ele>4.3</ele>
        <time>2022-04-22T14:17:25Z</time>
      </trkpt>
      <trkpt lat="50.17055" lon="1.66156">
        <ele>4.3</ele>
        <time>2022-04-22T14:17:26Z</time>
      </trkpt>
      <trkpt lat="50.17055" lon="1.66155">
        <ele>4.3</ele>
        <time>2022-04-22T14:17:27Z</time>
      </trkpt>
      <trkpt lat="50.17055" lon="1.66153">
        <ele>4.3</ele>
        <time>2022-04-22T14:17:28Z</time>
      </trkpt>
      <trkpt lat="50.17056" lon="1.66151">
        <ele>4.3</ele>
        <time>2022-04-22T14:17:29Z</time>
      </trkpt>
      <trkpt lat="50.17057" lon="1.66149">
        <ele>4.3</ele>
        <time>2022-04-22T14:17:31Z</time>
      </trkpt>
      <trkpt lat="50.17057" lon="1.66148">
        <ele>4.3</ele>
        <time>2022-04-22T14:17:32Z</time>
      </trkpt>
      <trkpt lat="50.17058" lon="1.66146">
        <ele>4.3</ele>
        <time>2022-04-22T14:17:33Z</time>
      </trkpt>
      <trkpt lat="50.17058" lon="1.66145">
        <ele>4.4</ele>
        <time>2022-04-22T14:17:34Z</time>
      </trkpt>
      <trkpt lat="50.17059" lon="1.66143">
        <ele>4.4</ele>
        <time>2022-04-22T14:17:35Z</time>
      </trkpt>
      <trkpt lat="50.17059" lon="1.66141">
        <ele>4.4</ele>
        <time>2022-04-22T14:17:36Z</time>
      </trkpt>
      <trkpt lat="50.17059" lon="1.6614">
        <ele>4.4</ele>
        <time>2022-04-22T14:17:37Z</time>
      </trkpt>
      <trkpt lat="50.1706" lon="1.66139">
        <ele>4.6</ele>
        <time>2022-04-22T14:17:38Z</time>
      </trkpt>
      <trkpt lat="50.1706" lon="1.66137">
        <ele>4.6</ele>
        <time>2022-04-22T14:17:39Z</time>
      </trkpt>
      <trkpt lat="50.17061" lon="1.66136">
        <ele>4.6</ele>
        <time>2022-04-22T14:17:40Z</time>
      </trkpt>
      <trkpt lat="50.17061" lon="1.66135">
        <ele>4.4</ele>
        <time>2022-04-22T14:17:41Z</time>
      </trkpt>
      <trkpt lat="50.17063" lon="1.66135">
        <ele>4.3</ele>
        <time>2022-04-22T14:17:42Z</time>
      </trkpt>
      <trkpt lat="50.17064" lon="1.66135">
        <ele>4.3</ele>
        <time>2022-04-22T14:17:44Z</time>
      </trkpt>
      <trkpt lat="50.17066" lon="1.66136">
        <ele>4.3</ele>
        <time>2022-04-22T14:17:45Z</time>
      </trkpt>
      <trkpt lat="50.17067" lon="1.66137">
        <ele>4.3</ele>
        <time>2022-04-22T14:17:46Z</time>
      </trkpt>
      <trkpt lat="50.17069" lon="1.66138">
        <ele>4.3</ele>
        <time>2022-04-22T14:17:47Z</time>
      </trkpt>
      <trkpt lat="50.1707" lon="1.66139">
        <ele>4.2</ele>
        <time>2022-04-22T14:17:48Z</time>
      </trkpt>
      <trkpt lat="50.17071" lon="1.66141">
        <ele>4.2</ele>
        <time>2022-04-22T14:17:49Z</time>
      </trkpt>
      <trkpt lat="50.17072" lon="1.66143">
        <ele>4.2</ele>
        <time>2022-04-22T14:17:50Z</time>
      </trkpt>
      <trkpt lat="50.17073" lon="1.66149">
        <ele>4.2</ele>
        <time>2022-04-22T14:17:52Z</time>
      </trkpt>
      <trkpt lat="50.17074" lon="1.6615">
        <ele>4.2</ele>
        <time>2022-04-22T14:17:53Z</time>
      </trkpt>
      <trkpt lat="50.17074" lon="1.66151">
        <ele>4.2</ele>
        <time>2022-04-22T14:17:54Z</time>
      </trkpt>
      <trkpt lat="50.17075" lon="1.66153">
        <ele>4.2</ele>
        <time>2022-04-22T14:17:55Z</time>
      </trkpt>
      <trkpt lat="50.17076" lon="1.66155">
        <ele>4.1</ele>
        <time>2022-04-22T14:17:56Z</time>
      </trkpt>
      <trkpt lat="50.17077" lon="1.66157">
        <ele>4.1</ele>
        <time>2022-04-22T14:17:57Z</time>
      </trkpt>
      <trkpt lat="50.17077" lon="1.66158">
        <ele>4.1</ele>
        <time>2022-04-22T14:17:58Z</time>
      </trkpt>
      <trkpt lat="50.17079" lon="1.6616">
        <ele>4.1</ele>
        <time>2022-04-22T14:17:59Z</time>
      </trkpt>
      <trkpt lat="50.17079" lon="1.66161">
        <ele>4.1</ele>
        <time>2022-04-22T14:18:00Z</time>
      </trkpt>
      <trkpt lat="50.1708" lon="1.66162">
        <ele>4.1</ele>
        <time>2022-04-22T14:18:01Z</time>
      </trkpt>
      <trkpt lat="50.17082" lon="1.66164">
        <ele>4</ele>
        <time>2022-04-22T14:18:02Z</time>
      </trkpt>
      <trkpt lat="50.17083" lon="1.66165">
        <ele>4</ele>
        <time>2022-04-22T14:18:04Z</time>
      </trkpt>
      <trkpt lat="50.17084" lon="1.66166">
        <ele>4</ele>
        <time>2022-04-22T14:18:05Z</time>
      </trkpt>
      <trkpt lat="50.17085" lon="1.66167">
        <ele>4</ele>
        <time>2022-04-22T14:18:06Z</time>
      </trkpt>
      <trkpt lat="50.17086" lon="1.66168">
        <ele>3.9</ele>
        <time>2022-04-22T14:18:07Z</time>
      </trkpt>
      <trkpt lat="50.17087" lon="1.66169">
        <ele>3.9</ele>
        <time>2022-04-22T14:18:08Z</time>
      </trkpt>
      <trkpt lat="50.17088" lon="1.6617">
        <ele>3.9</ele>
        <time>2022-04-22T14:18:09Z</time>
      </trkpt>
      <trkpt lat="50.17089" lon="1.66172">
        <ele>3.9</ele>
        <time>2022-04-22T14:18:11Z</time>
      </trkpt>
      <trkpt lat="50.1709" lon="1.66174">
        <ele>3.9</ele>
        <time>2022-04-22T14:18:12Z</time>
      </trkpt>
      <trkpt lat="50.17091" lon="1.66174">
        <ele>3.9</ele>
        <time>2022-04-22T14:18:13Z</time>
      </trkpt>
      <trkpt lat="50.17092" lon="1.66175">
        <ele>3.8</ele>
        <time>2022-04-22T14:18:14Z</time>
      </trkpt>
      <trkpt lat="50.17093" lon="1.66177">
        <ele>3.8</ele>
        <time>2022-04-22T14:18:16Z</time>
      </trkpt>
      <trkpt lat="50.17094" lon="1.66178">
        <ele>3.8</ele>
        <time>2022-04-22T14:18:17Z</time>
      </trkpt>
      <trkpt lat="50.17095" lon="1.66179">
        <ele>3.7</ele>
        <time>2022-04-22T14:18:18Z</time>
      </trkpt>
      <trkpt lat="50.17096" lon="1.6618">
        <ele>3.7</ele>
        <time>2022-04-22T14:18:19Z</time>
      </trkpt>
      <trkpt lat="50.17097" lon="1.6618">
        <ele>3.7</ele>
        <time>2022-04-22T14:18:20Z</time>
      </trkpt>
      <trkpt lat="50.17099" lon="1.6618">
        <ele>3.6</ele>
        <time>2022-04-22T14:18:21Z</time>
      </trkpt>
      <trkpt lat="50.171" lon="1.66181">
        <ele>3.6</ele>
        <time>2022-04-22T14:18:22Z</time>
      </trkpt>
      <trkpt lat="50.17102" lon="1.66181">
        <ele>3.6</ele>
        <time>2022-04-22T14:18:23Z</time>
      </trkpt>
      <trkpt lat="50.17103" lon="1.66181">
        <ele>3.5</ele>
        <time>2022-04-22T14:18:25Z</time>
      </trkpt>
      <trkpt lat="50.17104" lon="1.66181">
        <ele>3.5</ele>
        <time>2022-04-22T14:18:26Z</time>
      </trkpt>
      <trkpt lat="50.17106" lon="1.66181">
        <ele>3.5</ele>
        <time>2022-04-22T14:18:27Z</time>
      </trkpt>
      <trkpt lat="50.17107" lon="1.66181">
        <ele>3.4</ele>
        <time>2022-04-22T14:18:28Z</time>
      </trkpt>
      <trkpt lat="50.17108" lon="1.66181">
        <ele>3.4</ele>
        <time>2022-04-22T14:18:29Z</time>
      </trkpt>
      <trkpt lat="50.1711" lon="1.66181">
        <ele>3.4</ele>
        <time>2022-04-22T14:18:30Z</time>
      </trkpt>
      <trkpt lat="50.17111" lon="1.6618">
        <ele>3.4</ele>
        <time>2022-04-22T14:18:31Z</time>
      </trkpt>
      <trkpt lat="50.17113" lon="1.6618">
        <ele>3.2</ele>
        <time>2022-04-22T14:18:32Z</time>
      </trkpt>
      <trkpt lat="50.17114" lon="1.66179">
        <ele>3.2</ele>
        <time>2022-04-22T14:18:33Z</time>
      </trkpt>
      <trkpt lat="50.17115" lon="1.66178">
        <ele>3.2</ele>
        <time>2022-04-22T14:18:34Z</time>
      </trkpt>
      <trkpt lat="50.17116" lon="1.66177">
        <ele>3.2</ele>
        <time>2022-04-22T14:18:35Z</time>
      </trkpt>
      <trkpt lat="50.17119" lon="1.66175">
        <ele>3.1</ele>
        <time>2022-04-22T14:18:37Z</time>
      </trkpt>
      <trkpt lat="50.1712" lon="1.66175">
        <ele>3.1</ele>
        <time>2022-04-22T14:18:38Z</time>
      </trkpt>
      <trkpt lat="50.17121" lon="1.66172">
        <ele>3.1</ele>
        <time>2022-04-22T14:18:39Z</time>
      </trkpt>
      <trkpt lat="50.17122" lon="1.66171">
        <ele>3.1</ele>
        <time>2022-04-22T14:18:41Z</time>
      </trkpt>
      <trkpt lat="50.17122" lon="1.6617">
        <ele>3.1</ele>
        <time>2022-04-22T14:18:42Z</time>
      </trkpt>
      <trkpt lat="50.17123" lon="1.66167">
        <ele>3.1</ele>
        <time>2022-04-22T14:18:43Z</time>
      </trkpt>
      <trkpt lat="50.17124" lon="1.66166">
        <ele>3.1</ele>
        <time>2022-04-22T14:18:44Z</time>
      </trkpt>
      <trkpt lat="50.17124" lon="1.66165">
        <ele>3.1</ele>
        <time>2022-04-22T14:18:45Z</time>
      </trkpt>
      <trkpt lat="50.17125" lon="1.66162">
        <ele>3.1</ele>
        <time>2022-04-22T14:18:47Z</time>
      </trkpt>
      <trkpt lat="50.17126" lon="1.66161">
        <ele>3.1</ele>
        <time>2022-04-22T14:18:48Z</time>
      </trkpt>
      <trkpt lat="50.17127" lon="1.66158">
        <ele>3.1</ele>
        <time>2022-04-22T14:18:49Z</time>
      </trkpt>
      <trkpt lat="50.17127" lon="1.66157">
        <ele>3.1</ele>
        <time>2022-04-22T14:18:50Z</time>
      </trkpt>
      <trkpt lat="50.17128" lon="1.66156">
        <ele>3.1</ele>
        <time>2022-04-22T14:18:51Z</time>
      </trkpt>
      <trkpt lat="50.17129" lon="1.66154">
        <ele>3.1</ele>
        <time>2022-04-22T14:18:52Z</time>
      </trkpt>
      <trkpt lat="50.17129" lon="1.66152">
        <ele>3.1</ele>
        <time>2022-04-22T14:18:53Z</time>
      </trkpt>
      <trkpt lat="50.1713" lon="1.6615">
        <ele>3.1</ele>
        <time>2022-04-22T14:18:55Z</time>
      </trkpt>
      <trkpt lat="50.17131" lon="1.66148">
        <ele>3.1</ele>
        <time>2022-04-22T14:18:56Z</time>
      </trkpt>
      <trkpt lat="50.17132" lon="1.66146">
        <ele>3.1</ele>
        <time>2022-04-22T14:18:57Z</time>
      </trkpt>
      <trkpt lat="50.17133" lon="1.66145">
        <ele>3.1</ele>
        <time>2022-04-22T14:18:58Z</time>
      </trkpt>
      <trkpt lat="50.17133" lon="1.66144">
        <ele>3.1</ele>
        <time>2022-04-22T14:18:59Z</time>
      </trkpt>
      <trkpt lat="50.17134" lon="1.66141">
        <ele>3.1</ele>
        <time>2022-04-22T14:19:00Z</time>
      </trkpt>
      <trkpt lat="50.17135" lon="1.6614">
        <ele>3.1</ele>
        <time>2022-04-22T14:19:01Z</time>
      </trkpt>
      <trkpt lat="50.17135" lon="1.66139">
        <ele>3.1</ele>
        <time>2022-04-22T14:19:02Z</time>
      </trkpt>
      <trkpt lat="50.17136" lon="1.66135">
        <ele>3</ele>
        <time>2022-04-22T14:19:04Z</time>
      </trkpt>
      <trkpt lat="50.17137" lon="1.66134">
        <ele>3</ele>
        <time>2022-04-22T14:19:05Z</time>
      </trkpt>
      <trkpt lat="50.17137" lon="1.66133">
        <ele>3</ele>
        <time>2022-04-22T14:19:06Z</time>
      </trkpt>
      <trkpt lat="50.17138" lon="1.6613">
        <ele>3</ele>
        <time>2022-04-22T14:19:07Z</time>
      </trkpt>
      <trkpt lat="50.17138" lon="1.6613">
        <ele>3</ele>
        <time>2022-04-22T14:19:08Z</time>
      </trkpt>
      <trkpt lat="50.17139" lon="1.66128">
        <ele>3</ele>
        <time>2022-04-22T14:19:09Z</time>
      </trkpt>
      <trkpt lat="50.1714" lon="1.66125">
        <ele>3</ele>
        <time>2022-04-22T14:19:10Z</time>
      </trkpt>
      <trkpt lat="50.1714" lon="1.66124">
        <ele>3</ele>
        <time>2022-04-22T14:19:11Z</time>
      </trkpt>
      <trkpt lat="50.17141" lon="1.66122">
        <ele>3</ele>
        <time>2022-04-22T14:19:12Z</time>
      </trkpt>
      <trkpt lat="50.17141" lon="1.66121">
        <ele>3</ele>
        <time>2022-04-22T14:19:13Z</time>
      </trkpt>
      <trkpt lat="50.17141" lon="1.6612">
        <ele>3</ele>
        <time>2022-04-22T14:19:14Z</time>
      </trkpt>
      <trkpt lat="50.17142" lon="1.66118">
        <ele>3</ele>
        <time>2022-04-22T14:19:15Z</time>
      </trkpt>
      <trkpt lat="50.17143" lon="1.66115">
        <ele>3</ele>
        <time>2022-04-22T14:19:17Z</time>
      </trkpt>
      <trkpt lat="50.17143" lon="1.66114">
        <ele>3</ele>
        <time>2022-04-22T14:19:18Z</time>
      </trkpt>
      <trkpt lat="50.17143" lon="1.66112">
        <ele>3</ele>
        <time>2022-04-22T14:19:19Z</time>
      </trkpt>
      <trkpt lat="50.17144" lon="1.6611">
        <ele>3</ele>
        <time>2022-04-22T14:19:20Z</time>
      </trkpt>
      <trkpt lat="50.17145" lon="1.66108">
        <ele>3</ele>
        <time>2022-04-22T14:19:22Z</time>
      </trkpt>
      <trkpt lat="50.17145" lon="1.66105">
        <ele>3</ele>
        <time>2022-04-22T14:19:23Z</time>
      </trkpt>
      <trkpt lat="50.17146" lon="1.66104">
        <ele>3</ele>
        <time>2022-04-22T14:19:24Z</time>
      </trkpt>
      <trkpt lat="50.17147" lon="1.66103">
        <ele>3</ele>
        <time>2022-04-22T14:19:25Z</time>
      </trkpt>
      <trkpt lat="50.17147" lon="1.66102">
        <ele>3</ele>
        <time>2022-04-22T14:19:26Z</time>
      </trkpt>
      <trkpt lat="50.17148" lon="1.66099">
        <ele>3</ele>
        <time>2022-04-22T14:19:27Z</time>
      </trkpt>
      <trkpt lat="50.17149" lon="1.66097">
        <ele>3</ele>
        <time>2022-04-22T14:19:28Z</time>
      </trkpt>
      <trkpt lat="50.1715" lon="1.66096">
        <ele>3</ele>
        <time>2022-04-22T14:19:29Z</time>
      </trkpt>
      <trkpt lat="50.1715" lon="1.66094">
        <ele>3</ele>
        <time>2022-04-22T14:19:31Z</time>
      </trkpt>
      <trkpt lat="50.1715" lon="1.66092">
        <ele>3</ele>
        <time>2022-04-22T14:19:32Z</time>
      </trkpt>
      <trkpt lat="50.17151" lon="1.66089">
        <ele>3</ele>
        <time>2022-04-22T14:19:33Z</time>
      </trkpt>
      <trkpt lat="50.17151" lon="1.66088">
        <ele>3</ele>
        <time>2022-04-22T14:19:34Z</time>
      </trkpt>
      <trkpt lat="50.17151" lon="1.66087">
        <ele>3</ele>
        <time>2022-04-22T14:19:35Z</time>
      </trkpt>
      <trkpt lat="50.17152" lon="1.66085">
        <ele>3</ele>
        <time>2022-04-22T14:19:37Z</time>
      </trkpt>
      <trkpt lat="50.17153" lon="1.66083">
        <ele>3</ele>
        <time>2022-04-22T14:19:38Z</time>
      </trkpt>
      <trkpt lat="50.17154" lon="1.66081">
        <ele>3</ele>
        <time>2022-04-22T14:19:39Z</time>
      </trkpt>
      <trkpt lat="50.17155" lon="1.6608">
        <ele>3</ele>
        <time>2022-04-22T14:19:40Z</time>
      </trkpt>
      <trkpt lat="50.17156" lon="1.66078">
        <ele>3</ele>
        <time>2022-04-22T14:19:41Z</time>
      </trkpt>
      <trkpt lat="50.17157" lon="1.66075">
        <ele>3</ele>
        <time>2022-04-22T14:19:42Z</time>
      </trkpt>
      <trkpt lat="50.17158" lon="1.66074">
        <ele>3</ele>
        <time>2022-04-22T14:19:43Z</time>
      </trkpt>
      <trkpt lat="50.17158" lon="1.66073">
        <ele>3</ele>
        <time>2022-04-22T14:19:44Z</time>
      </trkpt>
      <trkpt lat="50.17159" lon="1.66071">
        <ele>3</ele>
        <time>2022-04-22T14:19:45Z</time>
      </trkpt>
      <trkpt lat="50.1716" lon="1.66069">
        <ele>3</ele>
        <time>2022-04-22T14:19:46Z</time>
      </trkpt>
      <trkpt lat="50.17161" lon="1.66066">
        <ele>3</ele>
        <time>2022-04-22T14:19:48Z</time>
      </trkpt>
      <trkpt lat="50.17162" lon="1.66065">
        <ele>3</ele>
        <time>2022-04-22T14:19:49Z</time>
      </trkpt>
      <trkpt lat="50.17162" lon="1.66064">
        <ele>3</ele>
        <time>2022-04-22T14:19:50Z</time>
      </trkpt>
      <trkpt lat="50.17163" lon="1.66062">
        <ele>3</ele>
        <time>2022-04-22T14:19:51Z</time>
      </trkpt>
      <trkpt lat="50.17164" lon="1.6606">
        <ele>3</ele>
        <time>2022-04-22T14:19:52Z</time>
      </trkpt>
      <trkpt lat="50.17164" lon="1.66059">
        <ele>3</ele>
        <time>2022-04-22T14:19:53Z</time>
      </trkpt>
      <trkpt lat="50.17165" lon="1.66057">
        <ele>3</ele>
        <time>2022-04-22T14:19:55Z</time>
      </trkpt>
      <trkpt lat="50.17165" lon="1.66055">
        <ele>3</ele>
        <time>2022-04-22T14:19:56Z</time>
      </trkpt>
      <trkpt lat="50.17166" lon="1.66052">
        <ele>3</ele>
        <time>2022-04-22T14:19:57Z</time>
      </trkpt>
      <trkpt lat="50.17166" lon="1.66051">
        <ele>3</ele>
        <time>2022-04-22T14:19:58Z</time>
      </trkpt>
      <trkpt lat="50.17167" lon="1.66049">
        <ele>3</ele>
        <time>2022-04-22T14:19:59Z</time>
      </trkpt>
      <trkpt lat="50.17168" lon="1.66048">
        <ele>3</ele>
        <time>2022-04-22T14:20:00Z</time>
      </trkpt>
      <trkpt lat="50.17168" lon="1.66046">
        <ele>3</ele>
        <time>2022-04-22T14:20:01Z</time>
      </trkpt>
      <trkpt lat="50.1717" lon="1.66043">
        <ele>3</ele>
        <time>2022-04-22T14:20:03Z</time>
      </trkpt>
      <trkpt lat="50.17171" lon="1.66041">
        <ele>3</ele>
        <time>2022-04-22T14:20:04Z</time>
      </trkpt>
      <trkpt lat="50.17171" lon="1.66039">
        <ele>3</ele>
        <time>2022-04-22T14:20:05Z</time>
      </trkpt>
      <trkpt lat="50.17172" lon="1.66038">
        <ele>3</ele>
        <time>2022-04-22T14:20:06Z</time>
      </trkpt>
      <trkpt lat="50.17173" lon="1.66035">
        <ele>3</ele>
        <time>2022-04-22T14:20:07Z</time>
      </trkpt>
      <trkpt lat="50.17173" lon="1.66034">
        <ele>3</ele>
        <time>2022-04-22T14:20:08Z</time>
      </trkpt>
      <trkpt lat="50.17174" lon="1.66032">
        <ele>3</ele>
        <time>2022-04-22T14:20:09Z</time>
      </trkpt>
      <trkpt lat="50.17175" lon="1.66031">
        <ele>3</ele>
        <time>2022-04-22T14:20:10Z</time>
      </trkpt>
      <trkpt lat="50.17176" lon="1.6603">
        <ele>3</ele>
        <time>2022-04-22T14:20:11Z</time>
      </trkpt>
      <trkpt lat="50.17177" lon="1.66028">
        <ele>3</ele>
        <time>2022-04-22T14:20:13Z</time>
      </trkpt>
      <trkpt lat="50.17178" lon="1.66026">
        <ele>3</ele>
        <time>2022-04-22T14:20:14Z</time>
      </trkpt>
      <trkpt lat="50.17179" lon="1.66024">
        <ele>3</ele>
        <time>2022-04-22T14:20:15Z</time>
      </trkpt>
      <trkpt lat="50.17179" lon="1.66022">
        <ele>3</ele>
        <time>2022-04-22T14:20:16Z</time>
      </trkpt>
      <trkpt lat="50.1718" lon="1.6602">
        <ele>3</ele>
        <time>2022-04-22T14:20:17Z</time>
      </trkpt>
      <trkpt lat="50.17181" lon="1.66018">
        <ele>3</ele>
        <time>2022-04-22T14:20:18Z</time>
      </trkpt>
      <trkpt lat="50.17182" lon="1.66016">
        <ele>3</ele>
        <time>2022-04-22T14:20:19Z</time>
      </trkpt>
      <trkpt lat="50.17183" lon="1.66015">
        <ele>3</ele>
        <time>2022-04-22T14:20:20Z</time>
      </trkpt>
      <trkpt lat="50.17184" lon="1.66012">
        <ele>3</ele>
        <time>2022-04-22T14:20:22Z</time>
      </trkpt>
      <trkpt lat="50.17185" lon="1.66009">
        <ele>3</ele>
        <time>2022-04-22T14:20:23Z</time>
      </trkpt>
      <trkpt lat="50.17186" lon="1.66009">
        <ele>2.9</ele>
        <time>2022-04-22T14:20:24Z</time>
      </trkpt>
      <trkpt lat="50.17186" lon="1.66008">
        <ele>2.9</ele>
        <time>2022-04-22T14:20:25Z</time>
      </trkpt>
      <trkpt lat="50.17187" lon="1.66006">
        <ele>2.9</ele>
        <time>2022-04-22T14:20:26Z</time>
      </trkpt>
      <trkpt lat="50.17189" lon="1.66005">
        <ele>2.9</ele>
        <time>2022-04-22T14:20:27Z</time>
      </trkpt>
      <trkpt lat="50.1719" lon="1.66003">
        <ele>2.9</ele>
        <time>2022-04-22T14:20:28Z</time>
      </trkpt>
      <trkpt lat="50.1719" lon="1.66002">
        <ele>2.9</ele>
        <time>2022-04-22T14:20:29Z</time>
      </trkpt>
      <trkpt lat="50.17192" lon="1.65999">
        <ele>2.9</ele>
        <time>2022-04-22T14:20:30Z</time>
      </trkpt>
      <trkpt lat="50.17192" lon="1.65998">
        <ele>2.9</ele>
        <time>2022-04-22T14:20:31Z</time>
      </trkpt>
      <trkpt lat="50.17193" lon="1.65997">
        <ele>2.9</ele>
        <time>2022-04-22T14:20:32Z</time>
      </trkpt>
      <trkpt lat="50.17194" lon="1.65995">
        <ele>2.9</ele>
        <time>2022-04-22T14:20:33Z</time>
      </trkpt>
      <trkpt lat="50.17195" lon="1.65993">
        <ele>2.9</ele>
        <time>2022-04-22T14:20:35Z</time>
      </trkpt>
      <trkpt lat="50.17195" lon="1.65992">
        <ele>2.9</ele>
        <time>2022-04-22T14:20:36Z</time>
      </trkpt>
      <trkpt lat="50.17196" lon="1.6599">
        <ele>2.9</ele>
        <time>2022-04-22T14:20:37Z</time>
      </trkpt>
      <trkpt lat="50.17197" lon="1.65988">
        <ele>2.9</ele>
        <time>2022-04-22T14:20:38Z</time>
      </trkpt>
      <trkpt lat="50.17198" lon="1.65986">
        <ele>2.9</ele>
        <time>2022-04-22T14:20:39Z</time>
      </trkpt>
      <trkpt lat="50.17198" lon="1.65985">
        <ele>2.9</ele>
        <time>2022-04-22T14:20:40Z</time>
      </trkpt>
      <trkpt lat="50.17199" lon="1.65983">
        <ele>2.9</ele>
        <time>2022-04-22T14:20:41Z</time>
      </trkpt>
      <trkpt lat="50.172" lon="1.6598">
        <ele>2.9</ele>
        <time>2022-04-22T14:20:43Z</time>
      </trkpt>
      <trkpt lat="50.172" lon="1.65978">
        <ele>2.9</ele>
        <time>2022-04-22T14:20:44Z</time>
      </trkpt>
      <trkpt lat="50.17201" lon="1.65976">
        <ele>2.9</ele>
        <time>2022-04-22T14:20:45Z</time>
      </trkpt>
      <trkpt lat="50.17201" lon="1.65974">
        <ele>2.9</ele>
        <time>2022-04-22T14:20:46Z</time>
      </trkpt>
      <trkpt lat="50.17202" lon="1.65972">
        <ele>2.9</ele>
        <time>2022-04-22T14:20:47Z</time>
      </trkpt>
      <trkpt lat="50.17202" lon="1.65971">
        <ele>2.9</ele>
        <time>2022-04-22T14:20:48Z</time>
      </trkpt>
      <trkpt lat="50.17203" lon="1.65969">
        <ele>2.9</ele>
        <time>2022-04-22T14:20:50Z</time>
      </trkpt>
      <trkpt lat="50.17203" lon="1.65966">
        <ele>2.9</ele>
        <time>2022-04-22T14:20:51Z</time>
      </trkpt>
      <trkpt lat="50.17204" lon="1.65964">
        <ele>2.9</ele>
        <time>2022-04-22T14:20:52Z</time>
      </trkpt>
      <trkpt lat="50.17204" lon="1.65963">
        <ele>2.9</ele>
        <time>2022-04-22T14:20:53Z</time>
      </trkpt>
      <trkpt lat="50.17205" lon="1.65962">
        <ele>2.9</ele>
        <time>2022-04-22T14:20:54Z</time>
      </trkpt>
      <trkpt lat="50.17206" lon="1.65959">
        <ele>2.9</ele>
        <time>2022-04-22T14:20:56Z</time>
      </trkpt>
      <trkpt lat="50.17206" lon="1.65958">
        <ele>2.9</ele>
        <time>2022-04-22T14:20:57Z</time>
      </trkpt>
      <trkpt lat="50.17207" lon="1.65955">
        <ele>2.9</ele>
        <time>2022-04-22T14:20:58Z</time>
      </trkpt>
      <trkpt lat="50.17208" lon="1.65954">
        <ele>2.9</ele>
        <time>2022-04-22T14:20:59Z</time>
      </trkpt>
      <trkpt lat="50.17208" lon="1.65952">
        <ele>2.9</ele>
        <time>2022-04-22T14:21:00Z</time>
      </trkpt>
      <trkpt lat="50.17209" lon="1.65951">
        <ele>2.9</ele>
        <time>2022-04-22T14:21:01Z</time>
      </trkpt>
      <trkpt lat="50.1721" lon="1.65948">
        <ele>2.9</ele>
        <time>2022-04-22T14:21:03Z</time>
      </trkpt>
      <trkpt lat="50.1721" lon="1.65946">
        <ele>2.9</ele>
        <time>2022-04-22T14:21:04Z</time>
      </trkpt>
      <trkpt lat="50.17212" lon="1.65943">
        <ele>2.9</ele>
        <time>2022-04-22T14:21:05Z</time>
      </trkpt>
      <trkpt lat="50.17212" lon="1.65942">
        <ele>2.9</ele>
        <time>2022-04-22T14:21:06Z</time>
      </trkpt>
      <trkpt lat="50.17212" lon="1.65941">
        <ele>2.9</ele>
        <time>2022-04-22T14:21:07Z</time>
      </trkpt>
      <trkpt lat="50.17214" lon="1.65938">
        <ele>2.9</ele>
        <time>2022-04-22T14:21:08Z</time>
      </trkpt>
      <trkpt lat="50.17214" lon="1.65937">
        <ele>2.9</ele>
        <time>2022-04-22T14:21:09Z</time>
      </trkpt>
      <trkpt lat="50.17215" lon="1.65936">
        <ele>2.9</ele>
        <time>2022-04-22T14:21:10Z</time>
      </trkpt>
      <trkpt lat="50.17215" lon="1.65935">
        <ele>2.9</ele>
        <time>2022-04-22T14:21:11Z</time>
      </trkpt>
      <trkpt lat="50.17217" lon="1.65933">
        <ele>2.9</ele>
        <time>2022-04-22T14:21:13Z</time>
      </trkpt>
      <trkpt lat="50.17217" lon="1.65931">
        <ele>2.9</ele>
        <time>2022-04-22T14:21:14Z</time>
      </trkpt>
      <trkpt lat="50.17218" lon="1.6593">
        <ele>2.9</ele>
        <time>2022-04-22T14:21:15Z</time>
      </trkpt>
      <trkpt lat="50.17218" lon="1.65928">
        <ele>2.9</ele>
        <time>2022-04-22T14:21:16Z</time>
      </trkpt>
      <trkpt lat="50.17219" lon="1.65926">
        <ele>2.9</ele>
        <time>2022-04-22T14:21:17Z</time>
      </trkpt>
      <trkpt lat="50.1722" lon="1.65923">
        <ele>2.9</ele>
        <time>2022-04-22T14:21:18Z</time>
      </trkpt>
      <trkpt lat="50.17221" lon="1.65921">
        <ele>2.9</ele>
        <time>2022-04-22T14:21:19Z</time>
      </trkpt>
      <trkpt lat="50.17221" lon="1.65919">
        <ele>2.9</ele>
        <time>2022-04-22T14:21:20Z</time>
      </trkpt>
      <trkpt lat="50.17222" lon="1.65918">
        <ele>2.9</ele>
        <time>2022-04-22T14:21:21Z</time>
      </trkpt>
      <trkpt lat="50.17222" lon="1.65916">
        <ele>2.9</ele>
        <time>2022-04-22T14:21:22Z</time>
      </trkpt>
      <trkpt lat="50.17223" lon="1.65915">
        <ele>2.9</ele>
        <time>2022-04-22T14:21:23Z</time>
      </trkpt>
      <trkpt lat="50.17224" lon="1.65912">
        <ele>2.9</ele>
        <time>2022-04-22T14:21:25Z</time>
      </trkpt>
      <trkpt lat="50.17225" lon="1.65909">
        <ele>2.9</ele>
        <time>2022-04-22T14:21:26Z</time>
      </trkpt>
      <trkpt lat="50.17225" lon="1.65908">
        <ele>2.9</ele>
        <time>2022-04-22T14:21:27Z</time>
      </trkpt>
      <trkpt lat="50.17226" lon="1.65907">
        <ele>2.9</ele>
        <time>2022-04-22T14:21:28Z</time>
      </trkpt>
      <trkpt lat="50.17227" lon="1.65906">
        <ele>2.9</ele>
        <time>2022-04-22T14:21:29Z</time>
      </trkpt>
      <trkpt lat="50.17227" lon="1.65904">
        <ele>2.9</ele>
        <time>2022-04-22T14:21:30Z</time>
      </trkpt>
      <trkpt lat="50.17228" lon="1.65903">
        <ele>2.9</ele>
        <time>2022-04-22T14:21:31Z</time>
      </trkpt>
      <trkpt lat="50.17229" lon="1.65899">
        <ele>2.9</ele>
        <time>2022-04-22T14:21:32Z</time>
      </trkpt>
      <trkpt lat="50.17229" lon="1.65898">
        <ele>2.9</ele>
        <time>2022-04-22T14:21:33Z</time>
      </trkpt>
      <trkpt lat="50.1723" lon="1.65896">
        <ele>2.9</ele>
        <time>2022-04-22T14:21:35Z</time>
      </trkpt>
      <trkpt lat="50.1723" lon="1.65895">
        <ele>2.9</ele>
        <time>2022-04-22T14:21:36Z</time>
      </trkpt>
      <trkpt lat="50.17231" lon="1.65894">
        <ele>2.9</ele>
        <time>2022-04-22T14:21:37Z</time>
      </trkpt>
      <trkpt lat="50.17231" lon="1.65892">
        <ele>2.9</ele>
        <time>2022-04-22T14:21:38Z</time>
      </trkpt>
      <trkpt lat="50.17232" lon="1.65891">
        <ele>2.9</ele>
        <time>2022-04-22T14:21:39Z</time>
      </trkpt>
      <trkpt lat="50.17232" lon="1.6589">
        <ele>2.9</ele>
        <time>2022-04-22T14:21:40Z</time>
      </trkpt>
      <trkpt lat="50.17233" lon="1.65888">
        <ele>2.9</ele>
        <time>2022-04-22T14:21:41Z</time>
      </trkpt>
      <trkpt lat="50.17233" lon="1.65886">
        <ele>2.9</ele>
        <time>2022-04-22T14:21:42Z</time>
      </trkpt>
      <trkpt lat="50.17234" lon="1.65884">
        <ele>2.9</ele>
        <time>2022-04-22T14:21:43Z</time>
      </trkpt>
      <trkpt lat="50.17235" lon="1.65881">
        <ele>2.9</ele>
        <time>2022-04-22T14:21:45Z</time>
      </trkpt>
      <trkpt lat="50.17236" lon="1.65879">
        <ele>2.9</ele>
        <time>2022-04-22T14:21:46Z</time>
      </trkpt>
      <trkpt lat="50.17236" lon="1.65878">
        <ele>2.9</ele>
        <time>2022-04-22T14:21:47Z</time>
      </trkpt>
      <trkpt lat="50.17237" lon="1.65876">
        <ele>2.9</ele>
        <time>2022-04-22T14:21:48Z</time>
      </trkpt>
      <trkpt lat="50.17237" lon="1.65874">
        <ele>2.9</ele>
        <time>2022-04-22T14:21:49Z</time>
      </trkpt>
      <trkpt lat="50.17238" lon="1.65871">
        <ele>2.9</ele>
        <time>2022-04-22T14:21:50Z</time>
      </trkpt>
      <trkpt lat="50.17239" lon="1.6587">
        <ele>2.9</ele>
        <time>2022-04-22T14:21:51Z</time>
      </trkpt>
      <trkpt lat="50.17239" lon="1.65869">
        <ele>2.9</ele>
        <time>2022-04-22T14:21:52Z</time>
      </trkpt>
      <trkpt lat="50.1724" lon="1.65867">
        <ele>2.8</ele>
        <time>2022-04-22T14:21:53Z</time>
      </trkpt>
      <trkpt lat="50.17241" lon="1.65865">
        <ele>2.8</ele>
        <time>2022-04-22T14:21:54Z</time>
      </trkpt>
      <trkpt lat="50.17242" lon="1.65864">
        <ele>2.8</ele>
        <time>2022-04-22T14:21:55Z</time>
      </trkpt>
      <trkpt lat="50.17242" lon="1.65862">
        <ele>2.8</ele>
        <time>2022-04-22T14:21:56Z</time>
      </trkpt>
      <trkpt lat="50.17243" lon="1.65861">
        <ele>2.8</ele>
        <time>2022-04-22T14:21:57Z</time>
      </trkpt>
      <trkpt lat="50.17244" lon="1.65859">
        <ele>2.8</ele>
        <time>2022-04-22T14:21:58Z</time>
      </trkpt>
      <trkpt lat="50.17245" lon="1.65858">
        <ele>2.8</ele>
        <time>2022-04-22T14:21:59Z</time>
      </trkpt>
      <trkpt lat="50.17246" lon="1.65857">
        <ele>2.8</ele>
        <time>2022-04-22T14:22:00Z</time>
      </trkpt>
      <trkpt lat="50.17248" lon="1.65855">
        <ele>2.8</ele>
        <time>2022-04-22T14:22:01Z</time>
      </trkpt>
      <trkpt lat="50.17249" lon="1.65853">
        <ele>2.8</ele>
        <time>2022-04-22T14:22:03Z</time>
      </trkpt>
      <trkpt lat="50.1725" lon="1.65852">
        <ele>2.8</ele>
        <time>2022-04-22T14:22:04Z</time>
      </trkpt>
      <trkpt lat="50.17251" lon="1.65851">
        <ele>2.8</ele>
        <time>2022-04-22T14:22:05Z</time>
      </trkpt>
      <trkpt lat="50.17252" lon="1.65849">
        <ele>2.8</ele>
        <time>2022-04-22T14:22:06Z</time>
      </trkpt>
      <trkpt lat="50.17253" lon="1.65847">
        <ele>2.8</ele>
        <time>2022-04-22T14:22:07Z</time>
      </trkpt>
      <trkpt lat="50.17254" lon="1.65845">
        <ele>2.9</ele>
        <time>2022-04-22T14:22:08Z</time>
      </trkpt>
      <trkpt lat="50.17254" lon="1.65843">
        <ele>2.9</ele>
        <time>2022-04-22T14:22:09Z</time>
      </trkpt>
      <trkpt lat="50.17255" lon="1.65841">
        <ele>2.9</ele>
        <time>2022-04-22T14:22:10Z</time>
      </trkpt>
      <trkpt lat="50.17255" lon="1.65839">
        <ele>2.9</ele>
        <time>2022-04-22T14:22:12Z</time>
      </trkpt>
      <trkpt lat="50.17257" lon="1.65836">
        <ele>2.9</ele>
        <time>2022-04-22T14:22:13Z</time>
      </trkpt>
      <trkpt lat="50.17257" lon="1.65835">
        <ele>2.9</ele>
        <time>2022-04-22T14:22:14Z</time>
      </trkpt>
      <trkpt lat="50.17258" lon="1.65834">
        <ele>2.9</ele>
        <time>2022-04-22T14:22:15Z</time>
      </trkpt>
      <trkpt lat="50.17259" lon="1.65833">
        <ele>2.9</ele>
        <time>2022-04-22T14:22:16Z</time>
      </trkpt>
      <trkpt lat="50.1726" lon="1.6583">
        <ele>2.9</ele>
        <time>2022-04-22T14:22:18Z</time>
      </trkpt>
      <trkpt lat="50.17261" lon="1.65829">
        <ele>2.9</ele>
        <time>2022-04-22T14:22:19Z</time>
      </trkpt>
      <trkpt lat="50.17261" lon="1.65827">
        <ele>2.9</ele>
        <time>2022-04-22T14:22:20Z</time>
      </trkpt>
      <trkpt lat="50.17262" lon="1.65826">
        <ele>2.9</ele>
        <time>2022-04-22T14:22:21Z</time>
      </trkpt>
      <trkpt lat="50.17263" lon="1.65825">
        <ele>2.9</ele>
        <time>2022-04-22T14:22:22Z</time>
      </trkpt>
      <trkpt lat="50.17265" lon="1.65825">
        <ele>2.9</ele>
        <time>2022-04-22T14:22:23Z</time>
      </trkpt>
      <trkpt lat="50.17266" lon="1.65824">
        <ele>2.9</ele>
        <time>2022-04-22T14:22:24Z</time>
      </trkpt>
      <trkpt lat="50.17266" lon="1.65823">
        <ele>2.9</ele>
        <time>2022-04-22T14:22:25Z</time>
      </trkpt>
      <trkpt lat="50.17267" lon="1.65822">
        <ele>2.9</ele>
        <time>2022-04-22T14:22:26Z</time>
      </trkpt>
      <trkpt lat="50.17267" lon="1.65821">
        <ele>2.9</ele>
        <time>2022-04-22T14:22:27Z</time>
      </trkpt>
      <trkpt lat="50.17267" lon="1.65819">
        <ele>2.9</ele>
        <time>2022-04-22T14:22:29Z</time>
      </trkpt>
      <trkpt lat="50.17268" lon="1.65817">
        <ele>2.9</ele>
        <time>2022-04-22T14:22:30Z</time>
      </trkpt>
      <trkpt lat="50.17267" lon="1.65816">
        <ele>3</ele>
        <time>2022-04-22T14:22:31Z</time>
      </trkpt>
      <trkpt lat="50.17267" lon="1.65815">
        <ele>3</ele>
        <time>2022-04-22T14:22:32Z</time>
      </trkpt>
      <trkpt lat="50.17267" lon="1.65813">
        <ele>3</ele>
        <time>2022-04-22T14:22:33Z</time>
      </trkpt>
      <trkpt lat="50.17268" lon="1.65811">
        <ele>3</ele>
        <time>2022-04-22T14:22:34Z</time>
      </trkpt>
      <trkpt lat="50.17268" lon="1.6581">
        <ele>3</ele>
        <time>2022-04-22T14:22:35Z</time>
      </trkpt>
      <trkpt lat="50.17268" lon="1.65808">
        <ele>3</ele>
        <time>2022-04-22T14:22:36Z</time>
      </trkpt>
      <trkpt lat="50.17269" lon="1.65807">
        <ele>3</ele>
        <time>2022-04-22T14:22:38Z</time>
      </trkpt>
      <trkpt lat="50.1727" lon="1.65805">
        <ele>3</ele>
        <time>2022-04-22T14:22:39Z</time>
      </trkpt>
      <trkpt lat="50.1727" lon="1.65805">
        <ele>3</ele>
        <time>2022-04-22T14:22:40Z</time>
      </trkpt>
      <trkpt lat="50.1727" lon="1.65804">
        <ele>3</ele>
        <time>2022-04-22T14:22:41Z</time>
      </trkpt>
      <trkpt lat="50.1727" lon="1.65803">
        <ele>3</ele>
        <time>2022-04-22T14:22:42Z</time>
      </trkpt>
      <trkpt lat="50.1727" lon="1.65803">
        <ele>3</ele>
        <time>2022-04-22T14:22:43Z</time>
      </trkpt>
      <trkpt lat="50.1727" lon="1.65802">
        <ele>3</ele>
        <time>2022-04-22T14:22:44Z</time>
      </trkpt>
      <trkpt lat="50.17271" lon="1.65801">
        <ele>3</ele>
        <time>2022-04-22T14:22:45Z</time>
      </trkpt>
      <trkpt lat="50.17271" lon="1.658">
        <ele>3</ele>
        <time>2022-04-22T14:22:47Z</time>
      </trkpt>
      <trkpt lat="50.17272" lon="1.65798">
        <ele>3</ele>
        <time>2022-04-22T14:22:48Z</time>
      </trkpt>
      <trkpt lat="50.17273" lon="1.65797">
        <ele>3</ele>
        <time>2022-04-22T14:22:49Z</time>
      </trkpt>
      <trkpt lat="50.17273" lon="1.65795">
        <ele>3</ele>
        <time>2022-04-22T14:22:50Z</time>
      </trkpt>
      <trkpt lat="50.17274" lon="1.65794">
        <ele>3</ele>
        <time>2022-04-22T14:22:51Z</time>
      </trkpt>
      <trkpt lat="50.17275" lon="1.65792">
        <ele>3</ele>
        <time>2022-04-22T14:22:52Z</time>
      </trkpt>
      <trkpt lat="50.17276" lon="1.65791">
        <ele>3</ele>
        <time>2022-04-22T14:22:53Z</time>
      </trkpt>
      <trkpt lat="50.17278" lon="1.65789">
        <ele>3</ele>
        <time>2022-04-22T14:22:55Z</time>
      </trkpt>
      <trkpt lat="50.17278" lon="1.65789">
        <ele>3</ele>
        <time>2022-04-22T14:22:56Z</time>
      </trkpt>
      <trkpt lat="50.17279" lon="1.65788">
        <ele>3</ele>
        <time>2022-04-22T14:22:57Z</time>
      </trkpt>
      <trkpt lat="50.1728" lon="1.65787">
        <ele>3</ele>
        <time>2022-04-22T14:22:58Z</time>
      </trkpt>
      <trkpt lat="50.17281" lon="1.65784">
        <ele>3</ele>
        <time>2022-04-22T14:23:00Z</time>
      </trkpt>
      <trkpt lat="50.17283" lon="1.65783">
        <ele>3</ele>
        <time>2022-04-22T14:23:01Z</time>
      </trkpt>
      <trkpt lat="50.17284" lon="1.65781">
        <ele>3</ele>
        <time>2022-04-22T14:23:02Z</time>
      </trkpt>
      <trkpt lat="50.17285" lon="1.6578">
        <ele>3</ele>
        <time>2022-04-22T14:23:03Z</time>
      </trkpt>
      <trkpt lat="50.17287" lon="1.65778">
        <ele>3</ele>
        <time>2022-04-22T14:23:04Z</time>
      </trkpt>
      <trkpt lat="50.17289" lon="1.65775">
        <ele>3</ele>
        <time>2022-04-22T14:23:06Z</time>
      </trkpt>
      <trkpt lat="50.17289" lon="1.65774">
        <ele>3</ele>
        <time>2022-04-22T14:23:07Z</time>
      </trkpt>
      <trkpt lat="50.17291" lon="1.65771">
        <ele>3</ele>
        <time>2022-04-22T14:23:08Z</time>
      </trkpt>
      <trkpt lat="50.17291" lon="1.6577">
        <ele>3</ele>
        <time>2022-04-22T14:23:09Z</time>
      </trkpt>
      <trkpt lat="50.17292" lon="1.65769">
        <ele>3</ele>
        <time>2022-04-22T14:23:10Z</time>
      </trkpt>
      <trkpt lat="50.17293" lon="1.65768">
        <ele>3</ele>
        <time>2022-04-22T14:23:11Z</time>
      </trkpt>
      <trkpt lat="50.17293" lon="1.65767">
        <ele>3</ele>
        <time>2022-04-22T14:23:12Z</time>
      </trkpt>
      <trkpt lat="50.17294" lon="1.65765">
        <ele>3</ele>
        <time>2022-04-22T14:23:13Z</time>
      </trkpt>
      <trkpt lat="50.17294" lon="1.65764">
        <ele>3</ele>
        <time>2022-04-22T14:23:14Z</time>
      </trkpt>
      <trkpt lat="50.17295" lon="1.65763">
        <ele>3</ele>
        <time>2022-04-22T14:23:15Z</time>
      </trkpt>
      <trkpt lat="50.17295" lon="1.65762">
        <ele>3</ele>
        <time>2022-04-22T14:23:17Z</time>
      </trkpt>
      <trkpt lat="50.17295" lon="1.65761">
        <ele>3</ele>
        <time>2022-04-22T14:23:18Z</time>
      </trkpt>
      <trkpt lat="50.17296" lon="1.6576">
        <ele>2.9</ele>
        <time>2022-04-22T14:23:19Z</time>
      </trkpt>
      <trkpt lat="50.17297" lon="1.65757">
        <ele>2.9</ele>
        <time>2022-04-22T14:23:21Z</time>
      </trkpt>
      <trkpt lat="50.17298" lon="1.65755">
        <ele>2.9</ele>
        <time>2022-04-22T14:23:22Z</time>
      </trkpt>
      <trkpt lat="50.17298" lon="1.65754">
        <ele>2.9</ele>
        <time>2022-04-22T14:23:23Z</time>
      </trkpt>
      <trkpt lat="50.17299" lon="1.65752">
        <ele>2.9</ele>
        <time>2022-04-22T14:23:24Z</time>
      </trkpt>
      <trkpt lat="50.17299" lon="1.65752">
        <ele>2.9</ele>
        <time>2022-04-22T14:23:25Z</time>
      </trkpt>
      <trkpt lat="50.17299" lon="1.65751">
        <ele>2.9</ele>
        <time>2022-04-22T14:23:26Z</time>
      </trkpt>
      <trkpt lat="50.17299" lon="1.6575">
        <ele>2.9</ele>
        <time>2022-04-22T14:23:27Z</time>
      </trkpt>
      <trkpt lat="50.173" lon="1.65748">
        <ele>2.9</ele>
        <time>2022-04-22T14:23:28Z</time>
      </trkpt>
      <trkpt lat="50.173" lon="1.65745">
        <ele>2.9</ele>
        <time>2022-04-22T14:23:29Z</time>
      </trkpt>
      <trkpt lat="50.17301" lon="1.65744">
        <ele>2.9</ele>
        <time>2022-04-22T14:23:30Z</time>
      </trkpt>
      <trkpt lat="50.17301" lon="1.65743">
        <ele>2.9</ele>
        <time>2022-04-22T14:23:31Z</time>
      </trkpt>
      <trkpt lat="50.17302" lon="1.65739">
        <ele>2.9</ele>
        <time>2022-04-22T14:23:33Z</time>
      </trkpt>
      <trkpt lat="50.17302" lon="1.65738">
        <ele>2.9</ele>
        <time>2022-04-22T14:23:34Z</time>
      </trkpt>
      <trkpt lat="50.17302" lon="1.65736">
        <ele>2.9</ele>
        <time>2022-04-22T14:23:35Z</time>
      </trkpt>
      <trkpt lat="50.17302" lon="1.65734">
        <ele>2.9</ele>
        <time>2022-04-22T14:23:36Z</time>
      </trkpt>
      <trkpt lat="50.17302" lon="1.65732">
        <ele>2.9</ele>
        <time>2022-04-22T14:23:37Z</time>
      </trkpt>
      <trkpt lat="50.17302" lon="1.65728">
        <ele>2.9</ele>
        <time>2022-04-22T14:23:38Z</time>
      </trkpt>
      <trkpt lat="50.17302" lon="1.65726">
        <ele>2.9</ele>
        <time>2022-04-22T14:23:39Z</time>
      </trkpt>
      <trkpt lat="50.17302" lon="1.65723">
        <ele>2.9</ele>
        <time>2022-04-22T14:23:40Z</time>
      </trkpt>
      <trkpt lat="50.17303" lon="1.65719">
        <ele>2.9</ele>
        <time>2022-04-22T14:23:42Z</time>
      </trkpt>
      <trkpt lat="50.17303" lon="1.65715">
        <ele>2.9</ele>
        <time>2022-04-22T14:23:43Z</time>
      </trkpt>
      <trkpt lat="50.17303" lon="1.65713">
        <ele>2.9</ele>
        <time>2022-04-22T14:23:44Z</time>
      </trkpt>
      <trkpt lat="50.17303" lon="1.65711">
        <ele>2.8</ele>
        <time>2022-04-22T14:23:45Z</time>
      </trkpt>
      <trkpt lat="50.17303" lon="1.65708">
        <ele>2.8</ele>
        <time>2022-04-22T14:23:46Z</time>
      </trkpt>
      <trkpt lat="50.17304" lon="1.65705">
        <ele>2.8</ele>
        <time>2022-04-22T14:23:47Z</time>
      </trkpt>
      <trkpt lat="50.17304" lon="1.65702">
        <ele>2.8</ele>
        <time>2022-04-22T14:23:49Z</time>
      </trkpt>
      <trkpt lat="50.17305" lon="1.65699">
        <ele>2.8</ele>
        <time>2022-04-22T14:23:50Z</time>
      </trkpt>
      <trkpt lat="50.17306" lon="1.65698">
        <ele>2.8</ele>
        <time>2022-04-22T14:23:51Z</time>
      </trkpt>
      <trkpt lat="50.17307" lon="1.65696">
        <ele>2.8</ele>
        <time>2022-04-22T14:23:52Z</time>
      </trkpt>
      <trkpt lat="50.17308" lon="1.65693">
        <ele>2.8</ele>
        <time>2022-04-22T14:23:53Z</time>
      </trkpt>
      <trkpt lat="50.1731" lon="1.65691">
        <ele>2.8</ele>
        <time>2022-04-22T14:23:54Z</time>
      </trkpt>
      <trkpt lat="50.1731" lon="1.65689">
        <ele>2.8</ele>
        <time>2022-04-22T14:23:56Z</time>
      </trkpt>
      <trkpt lat="50.17311" lon="1.65688">
        <ele>2.8</ele>
        <time>2022-04-22T14:23:57Z</time>
      </trkpt>
      <trkpt lat="50.17312" lon="1.65687">
        <ele>2.8</ele>
        <time>2022-04-22T14:23:58Z</time>
      </trkpt>
      <trkpt lat="50.17313" lon="1.65686">
        <ele>2.8</ele>
        <time>2022-04-22T14:23:59Z</time>
      </trkpt>
      <trkpt lat="50.17314" lon="1.65684">
        <ele>2.8</ele>
        <time>2022-04-22T14:24:00Z</time>
      </trkpt>
      <trkpt lat="50.17315" lon="1.65683">
        <ele>2.8</ele>
        <time>2022-04-22T14:24:01Z</time>
      </trkpt>
      <trkpt lat="50.17316" lon="1.65681">
        <ele>2.8</ele>
        <time>2022-04-22T14:24:03Z</time>
      </trkpt>
      <trkpt lat="50.17317" lon="1.6568">
        <ele>2.8</ele>
        <time>2022-04-22T14:24:04Z</time>
      </trkpt>
      <trkpt lat="50.17318" lon="1.65678">
        <ele>2.8</ele>
        <time>2022-04-22T14:24:05Z</time>
      </trkpt>
      <trkpt lat="50.17319" lon="1.65677">
        <ele>2.8</ele>
        <time>2022-04-22T14:24:06Z</time>
      </trkpt>
      <trkpt lat="50.1732" lon="1.65675">
        <ele>2.8</ele>
        <time>2022-04-22T14:24:07Z</time>
      </trkpt>
      <trkpt lat="50.17322" lon="1.65674">
        <ele>2.8</ele>
        <time>2022-04-22T14:24:08Z</time>
      </trkpt>
      <trkpt lat="50.17322" lon="1.65672">
        <ele>2.8</ele>
        <time>2022-04-22T14:24:09Z</time>
      </trkpt>
      <trkpt lat="50.17323" lon="1.6567">
        <ele>2.7</ele>
        <time>2022-04-22T14:24:10Z</time>
      </trkpt>
      <trkpt lat="50.17324" lon="1.65669">
        <ele>2.7</ele>
        <time>2022-04-22T14:24:11Z</time>
      </trkpt>
      <trkpt lat="50.17325" lon="1.65667">
        <ele>2.7</ele>
        <time>2022-04-22T14:24:12Z</time>
      </trkpt>
      <trkpt lat="50.17326" lon="1.65666">
        <ele>2.7</ele>
        <time>2022-04-22T14:24:13Z</time>
      </trkpt>
      <trkpt lat="50.17327" lon="1.65664">
        <ele>2.7</ele>
        <time>2022-04-22T14:24:14Z</time>
      </trkpt>
      <trkpt lat="50.17328" lon="1.65663">
        <ele>2.7</ele>
        <time>2022-04-22T14:24:16Z</time>
      </trkpt>
      <trkpt lat="50.17329" lon="1.65661">
        <ele>2.7</ele>
        <time>2022-04-22T14:24:17Z</time>
      </trkpt>
      <trkpt lat="50.1733" lon="1.65659">
        <ele>2.7</ele>
        <time>2022-04-22T14:24:18Z</time>
      </trkpt>
      <trkpt lat="50.17331" lon="1.65657">
        <ele>2.7</ele>
        <time>2022-04-22T14:24:19Z</time>
      </trkpt>
      <trkpt lat="50.17332" lon="1.65656">
        <ele>2.7</ele>
        <time>2022-04-22T14:24:20Z</time>
      </trkpt>
      <trkpt lat="50.17332" lon="1.65654">
        <ele>2.7</ele>
        <time>2022-04-22T14:24:21Z</time>
      </trkpt>
      <trkpt lat="50.17333" lon="1.65653">
        <ele>2.7</ele>
        <time>2022-04-22T14:24:22Z</time>
      </trkpt>
      <trkpt lat="50.17334" lon="1.6565">
        <ele>2.7</ele>
        <time>2022-04-22T14:24:23Z</time>
      </trkpt>
      <trkpt lat="50.17335" lon="1.65648">
        <ele>2.7</ele>
        <time>2022-04-22T14:24:25Z</time>
      </trkpt>
      <trkpt lat="50.17336" lon="1.65646">
        <ele>2.7</ele>
        <time>2022-04-22T14:24:26Z</time>
      </trkpt>
      <trkpt lat="50.17336" lon="1.65645">
        <ele>2.7</ele>
        <time>2022-04-22T14:24:27Z</time>
      </trkpt>
      <trkpt lat="50.17337" lon="1.65642">
        <ele>2.7</ele>
        <time>2022-04-22T14:24:28Z</time>
      </trkpt>
      <trkpt lat="50.17338" lon="1.65639">
        <ele>2.7</ele>
        <time>2022-04-22T14:24:29Z</time>
      </trkpt>
      <trkpt lat="50.17338" lon="1.65638">
        <ele>2.7</ele>
        <time>2022-04-22T14:24:30Z</time>
      </trkpt>
      <trkpt lat="50.17339" lon="1.65637">
        <ele>2.7</ele>
        <time>2022-04-22T14:24:31Z</time>
      </trkpt>
      <trkpt lat="50.1734" lon="1.65632">
        <ele>2.7</ele>
        <time>2022-04-22T14:24:33Z</time>
      </trkpt>
      <trkpt lat="50.1734" lon="1.65632">
        <ele>2.7</ele>
        <time>2022-04-22T14:24:34Z</time>
      </trkpt>
      <trkpt lat="50.17341" lon="1.65631">
        <ele>2.7</ele>
        <time>2022-04-22T14:24:35Z</time>
      </trkpt>
      <trkpt lat="50.17341" lon="1.6563">
        <ele>2.7</ele>
        <time>2022-04-22T14:24:36Z</time>
      </trkpt>
      <trkpt lat="50.17342" lon="1.65628">
        <ele>2.7</ele>
        <time>2022-04-22T14:24:37Z</time>
      </trkpt>
      <trkpt lat="50.17343" lon="1.65627">
        <ele>2.7</ele>
        <time>2022-04-22T14:24:38Z</time>
      </trkpt>
      <trkpt lat="50.17343" lon="1.65625">
        <ele>2.7</ele>
        <time>2022-04-22T14:24:39Z</time>
      </trkpt>
      <trkpt lat="50.17344" lon="1.65622">
        <ele>2.7</ele>
        <time>2022-04-22T14:24:41Z</time>
      </trkpt>
      <trkpt lat="50.17344" lon="1.65621">
        <ele>2.8</ele>
        <time>2022-04-22T14:24:42Z</time>
      </trkpt>
      <trkpt lat="50.17345" lon="1.65619">
        <ele>2.8</ele>
        <time>2022-04-22T14:24:43Z</time>
      </trkpt>
      <trkpt lat="50.17346" lon="1.65617">
        <ele>2.8</ele>
        <time>2022-04-22T14:24:44Z</time>
      </trkpt>
      <trkpt lat="50.17347" lon="1.65616">
        <ele>2.8</ele>
        <time>2022-04-22T14:24:45Z</time>
      </trkpt>
      <trkpt lat="50.17347" lon="1.65614">
        <ele>2.8</ele>
        <time>2022-04-22T14:24:46Z</time>
      </trkpt>
      <trkpt lat="50.17349" lon="1.65612">
        <ele>2.8</ele>
        <time>2022-04-22T14:24:48Z</time>
      </trkpt>
      <trkpt lat="50.17349" lon="1.6561">
        <ele>2.8</ele>
        <time>2022-04-22T14:24:49Z</time>
      </trkpt>
      <trkpt lat="50.1735" lon="1.65609">
        <ele>2.8</ele>
        <time>2022-04-22T14:24:50Z</time>
      </trkpt>
      <trkpt lat="50.17351" lon="1.65608">
        <ele>2.8</ele>
        <time>2022-04-22T14:24:51Z</time>
      </trkpt>
      <trkpt lat="50.17351" lon="1.65606">
        <ele>2.8</ele>
        <time>2022-04-22T14:24:52Z</time>
      </trkpt>
      <trkpt lat="50.17353" lon="1.65603">
        <ele>2.8</ele>
        <time>2022-04-22T14:24:53Z</time>
      </trkpt>
      <trkpt lat="50.17353" lon="1.65602">
        <ele>2.8</ele>
        <time>2022-04-22T14:24:54Z</time>
      </trkpt>
      <trkpt lat="50.17354" lon="1.65601">
        <ele>2.8</ele>
        <time>2022-04-22T14:24:55Z</time>
      </trkpt>
      <trkpt lat="50.17355" lon="1.65599">
        <ele>2.8</ele>
        <time>2022-04-22T14:24:57Z</time>
      </trkpt>
      <trkpt lat="50.17355" lon="1.65596">
        <ele>2.8</ele>
        <time>2022-04-22T14:24:58Z</time>
      </trkpt>
      <trkpt lat="50.17356" lon="1.65594">
        <ele>2.8</ele>
        <time>2022-04-22T14:24:59Z</time>
      </trkpt>
      <trkpt lat="50.17357" lon="1.65593">
        <ele>2.8</ele>
        <time>2022-04-22T14:25:00Z</time>
      </trkpt>
      <trkpt lat="50.17357" lon="1.6559">
        <ele>2.8</ele>
        <time>2022-04-22T14:25:01Z</time>
      </trkpt>
      <trkpt lat="50.17358" lon="1.65588">
        <ele>2.8</ele>
        <time>2022-04-22T14:25:02Z</time>
      </trkpt>
      <trkpt lat="50.17359" lon="1.65585">
        <ele>2.8</ele>
        <time>2022-04-22T14:25:03Z</time>
      </trkpt>
      <trkpt lat="50.1736" lon="1.65584">
        <ele>2.8</ele>
        <time>2022-04-22T14:25:05Z</time>
      </trkpt>
      <trkpt lat="50.17361" lon="1.65583">
        <ele>2.8</ele>
        <time>2022-04-22T14:25:06Z</time>
      </trkpt>
      <trkpt lat="50.17362" lon="1.65582">
        <ele>2.8</ele>
        <time>2022-04-22T14:25:07Z</time>
      </trkpt>
      <trkpt lat="50.17363" lon="1.65581">
        <ele>2.8</ele>
        <time>2022-04-22T14:25:08Z</time>
      </trkpt>
      <trkpt lat="50.17363" lon="1.65579">
        <ele>2.8</ele>
        <time>2022-04-22T14:25:09Z</time>
      </trkpt>
      <trkpt lat="50.17364" lon="1.65577">
        <ele>2.8</ele>
        <time>2022-04-22T14:25:10Z</time>
      </trkpt>
      <trkpt lat="50.17364" lon="1.65574">
        <ele>2.8</ele>
        <time>2022-04-22T14:25:11Z</time>
      </trkpt>
      <trkpt lat="50.17365" lon="1.65572">
        <ele>2.8</ele>
        <time>2022-04-22T14:25:12Z</time>
      </trkpt>
      <trkpt lat="50.17366" lon="1.6557">
        <ele>2.8</ele>
        <time>2022-04-22T14:25:13Z</time>
      </trkpt>
      <trkpt lat="50.17366" lon="1.65567">
        <ele>2.8</ele>
        <time>2022-04-22T14:25:14Z</time>
      </trkpt>
      <trkpt lat="50.17367" lon="1.65566">
        <ele>2.8</ele>
        <time>2022-04-22T14:25:15Z</time>
      </trkpt>
      <trkpt lat="50.17367" lon="1.65564">
        <ele>2.8</ele>
        <time>2022-04-22T14:25:16Z</time>
      </trkpt>
      <trkpt lat="50.17367" lon="1.65562">
        <ele>2.8</ele>
        <time>2022-04-22T14:25:17Z</time>
      </trkpt>
      <trkpt lat="50.17369" lon="1.6556">
        <ele>2.8</ele>
        <time>2022-04-22T14:25:18Z</time>
      </trkpt>
      <trkpt lat="50.1737" lon="1.6556">
        <ele>2.8</ele>
        <time>2022-04-22T14:25:19Z</time>
      </trkpt>
      <trkpt lat="50.17371" lon="1.6556">
        <ele>2.8</ele>
        <time>2022-04-22T14:25:21Z</time>
      </trkpt>
      <trkpt lat="50.17372" lon="1.65558">
        <ele>2.8</ele>
        <time>2022-04-22T14:25:22Z</time>
      </trkpt>
      <trkpt lat="50.17373" lon="1.65557">
        <ele>2.8</ele>
        <time>2022-04-22T14:25:23Z</time>
      </trkpt>
      <trkpt lat="50.17373" lon="1.65556">
        <ele>2.8</ele>
        <time>2022-04-22T14:25:24Z</time>
      </trkpt>
      <trkpt lat="50.17374" lon="1.65555">
        <ele>2.8</ele>
        <time>2022-04-22T14:25:25Z</time>
      </trkpt>
      <trkpt lat="50.17374" lon="1.65553">
        <ele>2.8</ele>
        <time>2022-04-22T14:25:26Z</time>
      </trkpt>
      <trkpt lat="50.17375" lon="1.65548">
        <ele>2.8</ele>
        <time>2022-04-22T14:25:28Z</time>
      </trkpt>
      <trkpt lat="50.17375" lon="1.65547">
        <ele>2.8</ele>
        <time>2022-04-22T14:25:29Z</time>
      </trkpt>
      <trkpt lat="50.17376" lon="1.65544">
        <ele>2.8</ele>
        <time>2022-04-22T14:25:30Z</time>
      </trkpt>
      <trkpt lat="50.17378" lon="1.6554">
        <ele>2.8</ele>
        <time>2022-04-22T14:25:32Z</time>
      </trkpt>
      <trkpt lat="50.17379" lon="1.65538">
        <ele>2.8</ele>
        <time>2022-04-22T14:25:33Z</time>
      </trkpt>
      <trkpt lat="50.1738" lon="1.65536">
        <ele>2.9</ele>
        <time>2022-04-22T14:25:34Z</time>
      </trkpt>
      <trkpt lat="50.17381" lon="1.65535">
        <ele>2.9</ele>
        <time>2022-04-22T14:25:35Z</time>
      </trkpt>
      <trkpt lat="50.17381" lon="1.65533">
        <ele>2.9</ele>
        <time>2022-04-22T14:25:36Z</time>
      </trkpt>
      <trkpt lat="50.17382" lon="1.65531">
        <ele>2.9</ele>
        <time>2022-04-22T14:25:37Z</time>
      </trkpt>
      <trkpt lat="50.17382" lon="1.6553">
        <ele>2.9</ele>
        <time>2022-04-22T14:25:38Z</time>
      </trkpt>
      <trkpt lat="50.17383" lon="1.65528">
        <ele>2.9</ele>
        <time>2022-04-22T14:25:40Z</time>
      </trkpt>
      <trkpt lat="50.17383" lon="1.65526">
        <ele>2.9</ele>
        <time>2022-04-22T14:25:41Z</time>
      </trkpt>
      <trkpt lat="50.17383" lon="1.65524">
        <ele>2.9</ele>
        <time>2022-04-22T14:25:42Z</time>
      </trkpt>
      <trkpt lat="50.17383" lon="1.65523">
        <ele>2.9</ele>
        <time>2022-04-22T14:25:43Z</time>
      </trkpt>
      <trkpt lat="50.17384" lon="1.65521">
        <ele>2.9</ele>
        <time>2022-04-22T14:25:44Z</time>
      </trkpt>
      <trkpt lat="50.17384" lon="1.65519">
        <ele>2.9</ele>
        <time>2022-04-22T14:25:45Z</time>
      </trkpt>
      <trkpt lat="50.17384" lon="1.65517">
        <ele>2.9</ele>
        <time>2022-04-22T14:25:46Z</time>
      </trkpt>
      <trkpt lat="50.17386" lon="1.65515">
        <ele>2.9</ele>
        <time>2022-04-22T14:25:47Z</time>
      </trkpt>
      <trkpt lat="50.17387" lon="1.65515">
        <ele>2.9</ele>
        <time>2022-04-22T14:25:48Z</time>
      </trkpt>
      <trkpt lat="50.17388" lon="1.65515">
        <ele>2.9</ele>
        <time>2022-04-22T14:25:49Z</time>
      </trkpt>
      <trkpt lat="50.17389" lon="1.65515">
        <ele>2.9</ele>
        <time>2022-04-22T14:25:50Z</time>
      </trkpt>
      <trkpt lat="50.1739" lon="1.65514">
        <ele>2.9</ele>
        <time>2022-04-22T14:25:51Z</time>
      </trkpt>
      <trkpt lat="50.1739" lon="1.65513">
        <ele>2.9</ele>
        <time>2022-04-22T14:25:52Z</time>
      </trkpt>
      <trkpt lat="50.1739" lon="1.65511">
        <ele>2.9</ele>
        <time>2022-04-22T14:25:53Z</time>
      </trkpt>
      <trkpt lat="50.17391" lon="1.6551">
        <ele>2.9</ele>
        <time>2022-04-22T14:25:55Z</time>
      </trkpt>
      <trkpt lat="50.17391" lon="1.65508">
        <ele>2.9</ele>
        <time>2022-04-22T14:25:56Z</time>
      </trkpt>
      <trkpt lat="50.17391" lon="1.65506">
        <ele>3</ele>
        <time>2022-04-22T14:25:57Z</time>
      </trkpt>
      <trkpt lat="50.17391" lon="1.65502">
        <ele>3</ele>
        <time>2022-04-22T14:25:58Z</time>
      </trkpt>
      <trkpt lat="50.17391" lon="1.65501">
        <ele>3</ele>
        <time>2022-04-22T14:25:59Z</time>
      </trkpt>
      <trkpt lat="50.17391" lon="1.65499">
        <ele>3</ele>
        <time>2022-04-22T14:26:00Z</time>
      </trkpt>
      <trkpt lat="50.17391" lon="1.65496">
        <ele>3</ele>
        <time>2022-04-22T14:26:02Z</time>
      </trkpt>
      <trkpt lat="50.17391" lon="1.65492">
        <ele>3</ele>
        <time>2022-04-22T14:26:03Z</time>
      </trkpt>
      <trkpt lat="50.17391" lon="1.65491">
        <ele>3</ele>
        <time>2022-04-22T14:26:04Z</time>
      </trkpt>
      <trkpt lat="50.17391" lon="1.65489">
        <ele>3</ele>
        <time>2022-04-22T14:26:05Z</time>
      </trkpt>
      <trkpt lat="50.17391" lon="1.65487">
        <ele>3</ele>
        <time>2022-04-22T14:26:06Z</time>
      </trkpt>
      <trkpt lat="50.17391" lon="1.65485">
        <ele>3</ele>
        <time>2022-04-22T14:26:07Z</time>
      </trkpt>
      <trkpt lat="50.17392" lon="1.65482">
        <ele>3</ele>
        <time>2022-04-22T14:26:08Z</time>
      </trkpt>
      <trkpt lat="50.17392" lon="1.65481">
        <ele>3</ele>
        <time>2022-04-22T14:26:10Z</time>
      </trkpt>
      <trkpt lat="50.17392" lon="1.65479">
        <ele>3</ele>
        <time>2022-04-22T14:26:11Z</time>
      </trkpt>
      <trkpt lat="50.17393" lon="1.65478">
        <ele>3</ele>
        <time>2022-04-22T14:26:12Z</time>
      </trkpt>
      <trkpt lat="50.17394" lon="1.65476">
        <ele>3</ele>
        <time>2022-04-22T14:26:13Z</time>
      </trkpt>
      <trkpt lat="50.17395" lon="1.65475">
        <ele>3</ele>
        <time>2022-04-22T14:26:14Z</time>
      </trkpt>
      <trkpt lat="50.17397" lon="1.65475">
        <ele>3</ele>
        <time>2022-04-22T14:26:15Z</time>
      </trkpt>
      <trkpt lat="50.17399" lon="1.65474">
        <ele>3</ele>
        <time>2022-04-22T14:26:16Z</time>
      </trkpt>
      <trkpt lat="50.174" lon="1.65473">
        <ele>3</ele>
        <time>2022-04-22T14:26:17Z</time>
      </trkpt>
      <trkpt lat="50.17401" lon="1.65472">
        <ele>3</ele>
        <time>2022-04-22T14:26:18Z</time>
      </trkpt>
      <trkpt lat="50.17402" lon="1.65471">
        <ele>3</ele>
        <time>2022-04-22T14:26:19Z</time>
      </trkpt>
      <trkpt lat="50.17403" lon="1.6547">
        <ele>3</ele>
        <time>2022-04-22T14:26:20Z</time>
      </trkpt>
      <trkpt lat="50.17403" lon="1.65469">
        <ele>3</ele>
        <time>2022-04-22T14:26:22Z</time>
      </trkpt>
      <trkpt lat="50.17404" lon="1.65468">
        <ele>3</ele>
        <time>2022-04-22T14:26:23Z</time>
      </trkpt>
      <trkpt lat="50.17404" lon="1.65466">
        <ele>3</ele>
        <time>2022-04-22T14:26:24Z</time>
      </trkpt>
      <trkpt lat="50.17404" lon="1.65464">
        <ele>3</ele>
        <time>2022-04-22T14:26:25Z</time>
      </trkpt>
      <trkpt lat="50.17405" lon="1.65462">
        <ele>3</ele>
        <time>2022-04-22T14:26:26Z</time>
      </trkpt>
      <trkpt lat="50.17405" lon="1.6546">
        <ele>3</ele>
        <time>2022-04-22T14:26:27Z</time>
      </trkpt>
      <trkpt lat="50.17406" lon="1.65455">
        <ele>3</ele>
        <time>2022-04-22T14:26:28Z</time>
      </trkpt>
      <trkpt lat="50.17408" lon="1.65455">
        <ele>3</ele>
        <time>2022-04-22T14:26:29Z</time>
      </trkpt>
      <trkpt lat="50.17409" lon="1.65454">
        <ele>3</ele>
        <time>2022-04-22T14:26:30Z</time>
      </trkpt>
      <trkpt lat="50.1741" lon="1.65454">
        <ele>3</ele>
        <time>2022-04-22T14:26:31Z</time>
      </trkpt>
      <trkpt lat="50.17411" lon="1.65452">
        <ele>3</ele>
        <time>2022-04-22T14:26:32Z</time>
      </trkpt>
      <trkpt lat="50.17412" lon="1.65451">
        <ele>3.1</ele>
        <time>2022-04-22T14:26:33Z</time>
      </trkpt>
      <trkpt lat="50.17414" lon="1.6545">
        <ele>3.1</ele>
        <time>2022-04-22T14:26:34Z</time>
      </trkpt>
      <trkpt lat="50.17414" lon="1.65449">
        <ele>3.1</ele>
        <time>2022-04-22T14:26:36Z</time>
      </trkpt>
      <trkpt lat="50.17415" lon="1.65448">
        <ele>3.1</ele>
        <time>2022-04-22T14:26:37Z</time>
      </trkpt>
      <trkpt lat="50.17415" lon="1.65447">
        <ele>3.1</ele>
        <time>2022-04-22T14:26:38Z</time>
      </trkpt>
      <trkpt lat="50.17416" lon="1.65446">
        <ele>3.1</ele>
        <time>2022-04-22T14:26:39Z</time>
      </trkpt>
      <trkpt lat="50.17416" lon="1.65445">
        <ele>3.1</ele>
        <time>2022-04-22T14:26:40Z</time>
      </trkpt>
      <trkpt lat="50.17417" lon="1.65443">
        <ele>3.1</ele>
        <time>2022-04-22T14:26:41Z</time>
      </trkpt>
      <trkpt lat="50.17417" lon="1.65442">
        <ele>3.1</ele>
        <time>2022-04-22T14:26:42Z</time>
      </trkpt>
      <trkpt lat="50.17418" lon="1.6544">
        <ele>3.1</ele>
        <time>2022-04-22T14:26:43Z</time>
      </trkpt>
      <trkpt lat="50.17418" lon="1.65439">
        <ele>3.1</ele>
        <time>2022-04-22T14:26:44Z</time>
      </trkpt>
      <trkpt lat="50.17419" lon="1.65437">
        <ele>3.1</ele>
        <time>2022-04-22T14:26:45Z</time>
      </trkpt>
      <trkpt lat="50.17419" lon="1.65435">
        <ele>3.1</ele>
        <time>2022-04-22T14:26:46Z</time>
      </trkpt>
      <trkpt lat="50.1742" lon="1.65433">
        <ele>3.2</ele>
        <time>2022-04-22T14:26:47Z</time>
      </trkpt>
      <trkpt lat="50.17421" lon="1.65431">
        <ele>3.2</ele>
        <time>2022-04-22T14:26:49Z</time>
      </trkpt>
      <trkpt lat="50.17421" lon="1.6543">
        <ele>3.2</ele>
        <time>2022-04-22T14:26:50Z</time>
      </trkpt>
      <trkpt lat="50.17422" lon="1.65429">
        <ele>3.2</ele>
        <time>2022-04-22T14:26:51Z</time>
      </trkpt>
      <trkpt lat="50.17422" lon="1.65427">
        <ele>3.2</ele>
        <time>2022-04-22T14:26:52Z</time>
      </trkpt>
      <trkpt lat="50.17423" lon="1.65425">
        <ele>3.2</ele>
        <time>2022-04-22T14:26:53Z</time>
      </trkpt>
      <trkpt lat="50.17424" lon="1.65423">
        <ele>3.2</ele>
        <time>2022-04-22T14:26:54Z</time>
      </trkpt>
      <trkpt lat="50.17424" lon="1.65422">
        <ele>3.2</ele>
        <time>2022-04-22T14:26:55Z</time>
      </trkpt>
      <trkpt lat="50.17425" lon="1.65421">
        <ele>3.2</ele>
        <time>2022-04-22T14:26:56Z</time>
      </trkpt>
      <trkpt lat="50.17426" lon="1.65419">
        <ele>3.2</ele>
        <time>2022-04-22T14:26:57Z</time>
      </trkpt>
      <trkpt lat="50.17427" lon="1.65416">
        <ele>3.3</ele>
        <time>2022-04-22T14:26:58Z</time>
      </trkpt>
      <trkpt lat="50.17428" lon="1.65415">
        <ele>3.3</ele>
        <time>2022-04-22T14:26:59Z</time>
      </trkpt>
      <trkpt lat="50.17429" lon="1.65414">
        <ele>3.3</ele>
        <time>2022-04-22T14:27:00Z</time>
      </trkpt>
      <trkpt lat="50.1743" lon="1.65412">
        <ele>3.3</ele>
        <time>2022-04-22T14:27:01Z</time>
      </trkpt>
      <trkpt lat="50.17431" lon="1.65409">
        <ele>3.3</ele>
        <time>2022-04-22T14:27:03Z</time>
      </trkpt>
      <trkpt lat="50.17431" lon="1.65408">
        <ele>3.3</ele>
        <time>2022-04-22T14:27:04Z</time>
      </trkpt>
      <trkpt lat="50.17432" lon="1.65407">
        <ele>3.3</ele>
        <time>2022-04-22T14:27:05Z</time>
      </trkpt>
      <trkpt lat="50.17432" lon="1.65406">
        <ele>3.3</ele>
        <time>2022-04-22T14:27:06Z</time>
      </trkpt>
      <trkpt lat="50.17433" lon="1.65405">
        <ele>3.3</ele>
        <time>2022-04-22T14:27:07Z</time>
      </trkpt>
      <trkpt lat="50.17434" lon="1.65403">
        <ele>3.3</ele>
        <time>2022-04-22T14:27:08Z</time>
      </trkpt>
      <trkpt lat="50.17434" lon="1.65401">
        <ele>3.3</ele>
        <time>2022-04-22T14:27:09Z</time>
      </trkpt>
      <trkpt lat="50.17435" lon="1.65399">
        <ele>3.3</ele>
        <time>2022-04-22T14:27:10Z</time>
      </trkpt>
      <trkpt lat="50.17436" lon="1.65396">
        <ele>3.2</ele>
        <time>2022-04-22T14:27:11Z</time>
      </trkpt>
      <trkpt lat="50.17437" lon="1.65395">
        <ele>3.2</ele>
        <time>2022-04-22T14:27:12Z</time>
      </trkpt>
      <trkpt lat="50.17438" lon="1.65394">
        <ele>3.2</ele>
        <time>2022-04-22T14:27:13Z</time>
      </trkpt>
      <trkpt lat="50.17438" lon="1.65392">
        <ele>3.2</ele>
        <time>2022-04-22T14:27:14Z</time>
      </trkpt>
      <trkpt lat="50.17439" lon="1.65391">
        <ele>3.2</ele>
        <time>2022-04-22T14:27:16Z</time>
      </trkpt>
      <trkpt lat="50.1744" lon="1.65389">
        <ele>3.2</ele>
        <time>2022-04-22T14:27:17Z</time>
      </trkpt>
      <trkpt lat="50.17441" lon="1.65387">
        <ele>3.2</ele>
        <time>2022-04-22T14:27:19Z</time>
      </trkpt>
      <trkpt lat="50.17441" lon="1.65385">
        <ele>3.2</ele>
        <time>2022-04-22T14:27:20Z</time>
      </trkpt>
      <trkpt lat="50.17442" lon="1.65382">
        <ele>3.2</ele>
        <time>2022-04-22T14:27:21Z</time>
      </trkpt>
      <trkpt lat="50.17443" lon="1.6538">
        <ele>3.2</ele>
        <time>2022-04-22T14:27:22Z</time>
      </trkpt>
      <trkpt lat="50.17444" lon="1.65379">
        <ele>3.2</ele>
        <time>2022-04-22T14:27:23Z</time>
      </trkpt>
      <trkpt lat="50.17444" lon="1.65378">
        <ele>3.2</ele>
        <time>2022-04-22T14:27:24Z</time>
      </trkpt>
      <trkpt lat="50.17445" lon="1.65377">
        <ele>3.2</ele>
        <time>2022-04-22T14:27:25Z</time>
      </trkpt>
      <trkpt lat="50.17446" lon="1.65376">
        <ele>3.2</ele>
        <time>2022-04-22T14:27:26Z</time>
      </trkpt>
      <trkpt lat="50.17447" lon="1.65375">
        <ele>3.2</ele>
        <time>2022-04-22T14:27:27Z</time>
      </trkpt>
      <trkpt lat="50.17448" lon="1.65373">
        <ele>3.2</ele>
        <time>2022-04-22T14:27:28Z</time>
      </trkpt>
      <trkpt lat="50.17449" lon="1.65372">
        <ele>3.2</ele>
        <time>2022-04-22T14:27:29Z</time>
      </trkpt>
      <trkpt lat="50.17449" lon="1.65371">
        <ele>3.2</ele>
        <time>2022-04-22T14:27:31Z</time>
      </trkpt>
      <trkpt lat="50.1745" lon="1.65369">
        <ele>3.2</ele>
        <time>2022-04-22T14:27:32Z</time>
      </trkpt>
      <trkpt lat="50.1745" lon="1.65367">
        <ele>3.2</ele>
        <time>2022-04-22T14:27:33Z</time>
      </trkpt>
      <trkpt lat="50.1745" lon="1.65366">
        <ele>3.2</ele>
        <time>2022-04-22T14:27:34Z</time>
      </trkpt>
      <trkpt lat="50.17451" lon="1.65364">
        <ele>3.2</ele>
        <time>2022-04-22T14:27:35Z</time>
      </trkpt>
      <trkpt lat="50.17452" lon="1.65363">
        <ele>3.2</ele>
        <time>2022-04-22T14:27:36Z</time>
      </trkpt>
      <trkpt lat="50.17452" lon="1.65361">
        <ele>3.2</ele>
        <time>2022-04-22T14:27:37Z</time>
      </trkpt>
      <trkpt lat="50.17453" lon="1.6536">
        <ele>3.2</ele>
        <time>2022-04-22T14:27:38Z</time>
      </trkpt>
      <trkpt lat="50.17454" lon="1.65358">
        <ele>3.2</ele>
        <time>2022-04-22T14:27:39Z</time>
      </trkpt>
      <trkpt lat="50.17454" lon="1.65356">
        <ele>3.2</ele>
        <time>2022-04-22T14:27:40Z</time>
      </trkpt>
      <trkpt lat="50.17456" lon="1.65353">
        <ele>3.2</ele>
        <time>2022-04-22T14:27:41Z</time>
      </trkpt>
      <trkpt lat="50.17456" lon="1.65352">
        <ele>3.2</ele>
        <time>2022-04-22T14:27:43Z</time>
      </trkpt>
      <trkpt lat="50.17457" lon="1.65351">
        <ele>3.2</ele>
        <time>2022-04-22T14:27:44Z</time>
      </trkpt>
      <trkpt lat="50.17458" lon="1.65349">
        <ele>3.2</ele>
        <time>2022-04-22T14:27:45Z</time>
      </trkpt>
      <trkpt lat="50.17458" lon="1.65348">
        <ele>3.2</ele>
        <time>2022-04-22T14:27:46Z</time>
      </trkpt>
      <trkpt lat="50.17459" lon="1.65346">
        <ele>3.2</ele>
        <time>2022-04-22T14:27:47Z</time>
      </trkpt>
      <trkpt lat="50.1746" lon="1.65345">
        <ele>3.2</ele>
        <time>2022-04-22T14:27:48Z</time>
      </trkpt>
      <trkpt lat="50.17461" lon="1.65342">
        <ele>3.2</ele>
        <time>2022-04-22T14:27:49Z</time>
      </trkpt>
      <trkpt lat="50.17461" lon="1.65341">
        <ele>3.2</ele>
        <time>2022-04-22T14:27:50Z</time>
      </trkpt>
      <trkpt lat="50.17462" lon="1.6534">
        <ele>3.2</ele>
        <time>2022-04-22T14:27:51Z</time>
      </trkpt>
      <trkpt lat="50.17463" lon="1.65338">
        <ele>3.2</ele>
        <time>2022-04-22T14:27:52Z</time>
      </trkpt>
      <trkpt lat="50.17464" lon="1.65337">
        <ele>3.2</ele>
        <time>2022-04-22T14:27:53Z</time>
      </trkpt>
      <trkpt lat="50.17464" lon="1.65335">
        <ele>3.2</ele>
        <time>2022-04-22T14:27:54Z</time>
      </trkpt>
      <trkpt lat="50.17465" lon="1.65333">
        <ele>3.2</ele>
        <time>2022-04-22T14:27:56Z</time>
      </trkpt>
      <trkpt lat="50.17466" lon="1.65331">
        <ele>3.2</ele>
        <time>2022-04-22T14:27:57Z</time>
      </trkpt>
      <trkpt lat="50.17467" lon="1.6533">
        <ele>3.2</ele>
        <time>2022-04-22T14:27:58Z</time>
      </trkpt>
      <trkpt lat="50.17467" lon="1.65328">
        <ele>3.2</ele>
        <time>2022-04-22T14:27:59Z</time>
      </trkpt>
      <trkpt lat="50.17468" lon="1.65327">
        <ele>3.2</ele>
        <time>2022-04-22T14:28:00Z</time>
      </trkpt>
      <trkpt lat="50.17468" lon="1.65325">
        <ele>3.2</ele>
        <time>2022-04-22T14:28:01Z</time>
      </trkpt>
      <trkpt lat="50.17469" lon="1.65323">
        <ele>3.2</ele>
        <time>2022-04-22T14:28:03Z</time>
      </trkpt>
      <trkpt lat="50.1747" lon="1.6532">
        <ele>3.2</ele>
        <time>2022-04-22T14:28:04Z</time>
      </trkpt>
      <trkpt lat="50.1747" lon="1.65319">
        <ele>3.2</ele>
        <time>2022-04-22T14:28:05Z</time>
      </trkpt>
      <trkpt lat="50.17471" lon="1.65318">
        <ele>3.2</ele>
        <time>2022-04-22T14:28:06Z</time>
      </trkpt>
      <trkpt lat="50.17471" lon="1.65316">
        <ele>3.2</ele>
        <time>2022-04-22T14:28:07Z</time>
      </trkpt>
      <trkpt lat="50.17472" lon="1.65314">
        <ele>3.2</ele>
        <time>2022-04-22T14:28:08Z</time>
      </trkpt>
      <trkpt lat="50.17474" lon="1.65311">
        <ele>3.2</ele>
        <time>2022-04-22T14:28:10Z</time>
      </trkpt>
      <trkpt lat="50.17474" lon="1.6531">
        <ele>3.2</ele>
        <time>2022-04-22T14:28:11Z</time>
      </trkpt>
      <trkpt lat="50.17475" lon="1.65307">
        <ele>3.2</ele>
        <time>2022-04-22T14:28:12Z</time>
      </trkpt>
      <trkpt lat="50.17475" lon="1.65306">
        <ele>3.2</ele>
        <time>2022-04-22T14:28:13Z</time>
      </trkpt>
      <trkpt lat="50.17476" lon="1.65305">
        <ele>3.2</ele>
        <time>2022-04-22T14:28:14Z</time>
      </trkpt>
      <trkpt lat="50.17477" lon="1.65302">
        <ele>3.2</ele>
        <time>2022-04-22T14:28:15Z</time>
      </trkpt>
      <trkpt lat="50.17477" lon="1.65301">
        <ele>3.2</ele>
        <time>2022-04-22T14:28:16Z</time>
      </trkpt>
      <trkpt lat="50.17478" lon="1.653">
        <ele>3.2</ele>
        <time>2022-04-22T14:28:17Z</time>
      </trkpt>
      <trkpt lat="50.17479" lon="1.65297">
        <ele>3.2</ele>
        <time>2022-04-22T14:28:18Z</time>
      </trkpt>
      <trkpt lat="50.17479" lon="1.65295">
        <ele>3.2</ele>
        <time>2022-04-22T14:28:19Z</time>
      </trkpt>
      <trkpt lat="50.1748" lon="1.65294">
        <ele>3.2</ele>
        <time>2022-04-22T14:28:20Z</time>
      </trkpt>
      <trkpt lat="50.1748" lon="1.65292">
        <ele>3.2</ele>
        <time>2022-04-22T14:28:21Z</time>
      </trkpt>
      <trkpt lat="50.17481" lon="1.6529">
        <ele>3.2</ele>
        <time>2022-04-22T14:28:23Z</time>
      </trkpt>
      <trkpt lat="50.17481" lon="1.65286">
        <ele>3.2</ele>
        <time>2022-04-22T14:28:24Z</time>
      </trkpt>
      <trkpt lat="50.17482" lon="1.65285">
        <ele>3.2</ele>
        <time>2022-04-22T14:28:25Z</time>
      </trkpt>
      <trkpt lat="50.17482" lon="1.65283">
        <ele>3.2</ele>
        <time>2022-04-22T14:28:26Z</time>
      </trkpt>
      <trkpt lat="50.17483" lon="1.65281">
        <ele>3.2</ele>
        <time>2022-04-22T14:28:27Z</time>
      </trkpt>
      <trkpt lat="50.17483" lon="1.6528">
        <ele>3.2</ele>
        <time>2022-04-22T14:28:28Z</time>
      </trkpt>
      <trkpt lat="50.17484" lon="1.65277">
        <ele>3.2</ele>
        <time>2022-04-22T14:28:29Z</time>
      </trkpt>
      <trkpt lat="50.17485" lon="1.65277">
        <ele>3.2</ele>
        <time>2022-04-22T14:28:30Z</time>
      </trkpt>
      <trkpt lat="50.17486" lon="1.65276">
        <ele>3.2</ele>
        <time>2022-04-22T14:28:31Z</time>
      </trkpt>
      <trkpt lat="50.17487" lon="1.65275">
        <ele>3.2</ele>
        <time>2022-04-22T14:28:32Z</time>
      </trkpt>
      <trkpt lat="50.17489" lon="1.65274">
        <ele>3.2</ele>
        <time>2022-04-22T14:28:34Z</time>
      </trkpt>
      <trkpt lat="50.17489" lon="1.65272">
        <ele>3.2</ele>
        <time>2022-04-22T14:28:35Z</time>
      </trkpt>
      <trkpt lat="50.1749" lon="1.65271">
        <ele>3.2</ele>
        <time>2022-04-22T14:28:36Z</time>
      </trkpt>
      <trkpt lat="50.17491" lon="1.6527">
        <ele>3.3</ele>
        <time>2022-04-22T14:28:37Z</time>
      </trkpt>
      <trkpt lat="50.17492" lon="1.65268">
        <ele>3.3</ele>
        <time>2022-04-22T14:28:38Z</time>
      </trkpt>
      <trkpt lat="50.17493" lon="1.65267">
        <ele>3.3</ele>
        <time>2022-04-22T14:28:39Z</time>
      </trkpt>
      <trkpt lat="50.17493" lon="1.65266">
        <ele>3.3</ele>
        <time>2022-04-22T14:28:40Z</time>
      </trkpt>
      <trkpt lat="50.17494" lon="1.65264">
        <ele>3.3</ele>
        <time>2022-04-22T14:28:42Z</time>
      </trkpt>
      <trkpt lat="50.17495" lon="1.65262">
        <ele>3.3</ele>
        <time>2022-04-22T14:28:43Z</time>
      </trkpt>
      <trkpt lat="50.17496" lon="1.6526">
        <ele>3.3</ele>
        <time>2022-04-22T14:28:44Z</time>
      </trkpt>
      <trkpt lat="50.17496" lon="1.65259">
        <ele>3.3</ele>
        <time>2022-04-22T14:28:45Z</time>
      </trkpt>
      <trkpt lat="50.17497" lon="1.65257">
        <ele>3.3</ele>
        <time>2022-04-22T14:28:47Z</time>
      </trkpt>
      <trkpt lat="50.17497" lon="1.65255">
        <ele>3.3</ele>
        <time>2022-04-22T14:28:48Z</time>
      </trkpt>
      <trkpt lat="50.17499" lon="1.65253">
        <ele>3.3</ele>
        <time>2022-04-22T14:28:49Z</time>
      </trkpt>
      <trkpt lat="50.17499" lon="1.65251">
        <ele>3.3</ele>
        <time>2022-04-22T14:28:50Z</time>
      </trkpt>
      <trkpt lat="50.175" lon="1.6525">
        <ele>3.3</ele>
        <time>2022-04-22T14:28:51Z</time>
      </trkpt>
      <trkpt lat="50.175" lon="1.65249">
        <ele>3.3</ele>
        <time>2022-04-22T14:28:52Z</time>
      </trkpt>
      <trkpt lat="50.17501" lon="1.65248">
        <ele>3.3</ele>
        <time>2022-04-22T14:28:53Z</time>
      </trkpt>
      <trkpt lat="50.17502" lon="1.65246">
        <ele>3.3</ele>
        <time>2022-04-22T14:28:54Z</time>
      </trkpt>
      <trkpt lat="50.17502" lon="1.65245">
        <ele>3.3</ele>
        <time>2022-04-22T14:28:55Z</time>
      </trkpt>
      <trkpt lat="50.17502" lon="1.65244">
        <ele>3.4</ele>
        <time>2022-04-22T14:28:56Z</time>
      </trkpt>
      <trkpt lat="50.17504" lon="1.65241">
        <ele>3.4</ele>
        <time>2022-04-22T14:28:57Z</time>
      </trkpt>
      <trkpt lat="50.17504" lon="1.6524">
        <ele>3.4</ele>
        <time>2022-04-22T14:28:58Z</time>
      </trkpt>
      <trkpt lat="50.17505" lon="1.65239">
        <ele>3.4</ele>
        <time>2022-04-22T14:28:59Z</time>
      </trkpt>
      <trkpt lat="50.17505" lon="1.65236">
        <ele>3.4</ele>
        <time>2022-04-22T14:29:01Z</time>
      </trkpt>
      <trkpt lat="50.17506" lon="1.65235">
        <ele>3.4</ele>
        <time>2022-04-22T14:29:02Z</time>
      </trkpt>
      <trkpt lat="50.17506" lon="1.65234">
        <ele>3.4</ele>
        <time>2022-04-22T14:29:03Z</time>
      </trkpt>
      <trkpt lat="50.17507" lon="1.65233">
        <ele>3.4</ele>
        <time>2022-04-22T14:29:04Z</time>
      </trkpt>
      <trkpt lat="50.17507" lon="1.65231">
        <ele>3.4</ele>
        <time>2022-04-22T14:29:05Z</time>
      </trkpt>
      <trkpt lat="50.17507" lon="1.6523">
        <ele>3.4</ele>
        <time>2022-04-22T14:29:06Z</time>
      </trkpt>
      <trkpt lat="50.17507" lon="1.65228">
        <ele>3.4</ele>
        <time>2022-04-22T14:29:07Z</time>
      </trkpt>
      <trkpt lat="50.17508" lon="1.65227">
        <ele>3.4</ele>
        <time>2022-04-22T14:29:08Z</time>
      </trkpt>
      <trkpt lat="50.17508" lon="1.65225">
        <ele>3.4</ele>
        <time>2022-04-22T14:29:09Z</time>
      </trkpt>
      <trkpt lat="50.17508" lon="1.65224">
        <ele>3.4</ele>
        <time>2022-04-22T14:29:10Z</time>
      </trkpt>
      <trkpt lat="50.17509" lon="1.65222">
        <ele>3.4</ele>
        <time>2022-04-22T14:29:11Z</time>
      </trkpt>
      <trkpt lat="50.17509" lon="1.65221">
        <ele>3.4</ele>
        <time>2022-04-22T14:29:12Z</time>
      </trkpt>
      <trkpt lat="50.1751" lon="1.65219">
        <ele>3.4</ele>
        <time>2022-04-22T14:29:13Z</time>
      </trkpt>
      <trkpt lat="50.1751" lon="1.65217">
        <ele>3.4</ele>
        <time>2022-04-22T14:29:14Z</time>
      </trkpt>
      <trkpt lat="50.1751" lon="1.65216">
        <ele>3.4</ele>
        <time>2022-04-22T14:29:15Z</time>
      </trkpt>
      <trkpt lat="50.1751" lon="1.65214">
        <ele>3.4</ele>
        <time>2022-04-22T14:29:16Z</time>
      </trkpt>
      <trkpt lat="50.1751" lon="1.65212">
        <ele>3.4</ele>
        <time>2022-04-22T14:29:17Z</time>
      </trkpt>
      <trkpt lat="50.17511" lon="1.65209">
        <ele>3.4</ele>
        <time>2022-04-22T14:29:19Z</time>
      </trkpt>
      <trkpt lat="50.17511" lon="1.65207">
        <ele>3.4</ele>
        <time>2022-04-22T14:29:20Z</time>
      </trkpt>
      <trkpt lat="50.17512" lon="1.65204">
        <ele>3.4</ele>
        <time>2022-04-22T14:29:21Z</time>
      </trkpt>
      <trkpt lat="50.17512" lon="1.65203">
        <ele>3.4</ele>
        <time>2022-04-22T14:29:22Z</time>
      </trkpt>
      <trkpt lat="50.17512" lon="1.65202">
        <ele>3.4</ele>
        <time>2022-04-22T14:29:23Z</time>
      </trkpt>
      <trkpt lat="50.17513" lon="1.652">
        <ele>3.4</ele>
        <time>2022-04-22T14:29:25Z</time>
      </trkpt>
      <trkpt lat="50.17513" lon="1.65198">
        <ele>3.4</ele>
        <time>2022-04-22T14:29:26Z</time>
      </trkpt>
      <trkpt lat="50.17513" lon="1.65196">
        <ele>3.4</ele>
        <time>2022-04-22T14:29:27Z</time>
      </trkpt>
      <trkpt lat="50.17514" lon="1.65195">
        <ele>3.4</ele>
        <time>2022-04-22T14:29:28Z</time>
      </trkpt>
      <trkpt lat="50.17514" lon="1.65193">
        <ele>3.4</ele>
        <time>2022-04-22T14:29:29Z</time>
      </trkpt>
      <trkpt lat="50.17514" lon="1.65192">
        <ele>3.4</ele>
        <time>2022-04-22T14:29:30Z</time>
      </trkpt>
      <trkpt lat="50.17515" lon="1.65189">
        <ele>3.4</ele>
        <time>2022-04-22T14:29:31Z</time>
      </trkpt>
      <trkpt lat="50.17516" lon="1.65188">
        <ele>3.4</ele>
        <time>2022-04-22T14:29:32Z</time>
      </trkpt>
      <trkpt lat="50.17516" lon="1.65187">
        <ele>3.5</ele>
        <time>2022-04-22T14:29:33Z</time>
      </trkpt>
      <trkpt lat="50.17518" lon="1.65185">
        <ele>3.4</ele>
        <time>2022-04-22T14:29:34Z</time>
      </trkpt>
      <trkpt lat="50.17518" lon="1.65183">
        <ele>3.4</ele>
        <time>2022-04-22T14:29:35Z</time>
      </trkpt>
      <trkpt lat="50.17519" lon="1.65181">
        <ele>3.4</ele>
        <time>2022-04-22T14:29:37Z</time>
      </trkpt>
      <trkpt lat="50.1752" lon="1.65179">
        <ele>3.4</ele>
        <time>2022-04-22T14:29:38Z</time>
      </trkpt>
      <trkpt lat="50.17521" lon="1.65176">
        <ele>3.4</ele>
        <time>2022-04-22T14:29:39Z</time>
      </trkpt>
      <trkpt lat="50.17521" lon="1.65175">
        <ele>3.4</ele>
        <time>2022-04-22T14:29:40Z</time>
      </trkpt>
      <trkpt lat="50.17521" lon="1.65173">
        <ele>3.4</ele>
        <time>2022-04-22T14:29:41Z</time>
      </trkpt>
      <trkpt lat="50.17521" lon="1.65171">
        <ele>3.4</ele>
        <time>2022-04-22T14:29:42Z</time>
      </trkpt>
      <trkpt lat="50.17522" lon="1.65169">
        <ele>3.4</ele>
        <time>2022-04-22T14:29:43Z</time>
      </trkpt>
      <trkpt lat="50.17523" lon="1.65166">
        <ele>3.5</ele>
        <time>2022-04-22T14:29:44Z</time>
      </trkpt>
      <trkpt lat="50.17524" lon="1.65165">
        <ele>3.5</ele>
        <time>2022-04-22T14:29:46Z</time>
      </trkpt>
      <trkpt lat="50.17526" lon="1.65164">
        <ele>3.5</ele>
        <time>2022-04-22T14:29:47Z</time>
      </trkpt>
      <trkpt lat="50.17527" lon="1.65163">
        <ele>3.5</ele>
        <time>2022-04-22T14:29:48Z</time>
      </trkpt>
      <trkpt lat="50.17528" lon="1.65161">
        <ele>3.5</ele>
        <time>2022-04-22T14:29:49Z</time>
      </trkpt>
      <trkpt lat="50.17529" lon="1.6516">
        <ele>3.5</ele>
        <time>2022-04-22T14:29:50Z</time>
      </trkpt>
      <trkpt lat="50.1753" lon="1.65158">
        <ele>3.5</ele>
        <time>2022-04-22T14:29:51Z</time>
      </trkpt>
      <trkpt lat="50.17531" lon="1.65157">
        <ele>3.5</ele>
        <time>2022-04-22T14:29:52Z</time>
      </trkpt>
      <trkpt lat="50.17533" lon="1.65154">
        <ele>3.5</ele>
        <time>2022-04-22T14:29:54Z</time>
      </trkpt>
      <trkpt lat="50.17533" lon="1.65153">
        <ele>3.5</ele>
        <time>2022-04-22T14:29:55Z</time>
      </trkpt>
      <trkpt lat="50.17534" lon="1.65151">
        <ele>3.5</ele>
        <time>2022-04-22T14:29:56Z</time>
      </trkpt>
      <trkpt lat="50.17534" lon="1.6515">
        <ele>3.5</ele>
        <time>2022-04-22T14:29:57Z</time>
      </trkpt>
      <trkpt lat="50.17535" lon="1.65148">
        <ele>3.5</ele>
        <time>2022-04-22T14:29:58Z</time>
      </trkpt>
      <trkpt lat="50.17537" lon="1.65147">
        <ele>3.5</ele>
        <time>2022-04-22T14:29:59Z</time>
      </trkpt>
      <trkpt lat="50.17537" lon="1.65145">
        <ele>3.5</ele>
        <time>2022-04-22T14:30:01Z</time>
      </trkpt>
      <trkpt lat="50.17538" lon="1.65144">
        <ele>3.6</ele>
        <time>2022-04-22T14:30:02Z</time>
      </trkpt>
      <trkpt lat="50.17539" lon="1.65142">
        <ele>3.6</ele>
        <time>2022-04-22T14:30:03Z</time>
      </trkpt>
      <trkpt lat="50.1754" lon="1.65141">
        <ele>3.6</ele>
        <time>2022-04-22T14:30:04Z</time>
      </trkpt>
      <trkpt lat="50.1754" lon="1.65139">
        <ele>3.6</ele>
        <time>2022-04-22T14:30:05Z</time>
      </trkpt>
      <trkpt lat="50.17541" lon="1.65137">
        <ele>3.6</ele>
        <time>2022-04-22T14:30:06Z</time>
      </trkpt>
      <trkpt lat="50.17542" lon="1.65136">
        <ele>3.6</ele>
        <time>2022-04-22T14:30:07Z</time>
      </trkpt>
      <trkpt lat="50.17543" lon="1.65135">
        <ele>3.6</ele>
        <time>2022-04-22T14:30:08Z</time>
      </trkpt>
      <trkpt lat="50.17544" lon="1.65132">
        <ele>3.6</ele>
        <time>2022-04-22T14:30:09Z</time>
      </trkpt>
      <trkpt lat="50.17544" lon="1.65131">
        <ele>3.6</ele>
        <time>2022-04-22T14:30:10Z</time>
      </trkpt>
      <trkpt lat="50.17544" lon="1.6513">
        <ele>3.6</ele>
        <time>2022-04-22T14:30:11Z</time>
      </trkpt>
      <trkpt lat="50.17546" lon="1.65127">
        <ele>3.6</ele>
        <time>2022-04-22T14:30:12Z</time>
      </trkpt>
      <trkpt lat="50.17546" lon="1.65126">
        <ele>3.6</ele>
        <time>2022-04-22T14:30:14Z</time>
      </trkpt>
      <trkpt lat="50.17547" lon="1.65124">
        <ele>3.6</ele>
        <time>2022-04-22T14:30:15Z</time>
      </trkpt>
      <trkpt lat="50.17548" lon="1.65123">
        <ele>3.7</ele>
        <time>2022-04-22T14:30:16Z</time>
      </trkpt>
      <trkpt lat="50.17549" lon="1.65122">
        <ele>3.7</ele>
        <time>2022-04-22T14:30:17Z</time>
      </trkpt>
      <trkpt lat="50.1755" lon="1.65121">
        <ele>3.7</ele>
        <time>2022-04-22T14:30:18Z</time>
      </trkpt>
      <trkpt lat="50.17552" lon="1.6512">
        <ele>3.7</ele>
        <time>2022-04-22T14:30:20Z</time>
      </trkpt>
      <trkpt lat="50.17553" lon="1.65119">
        <ele>3.7</ele>
        <time>2022-04-22T14:30:21Z</time>
      </trkpt>
      <trkpt lat="50.17553" lon="1.65118">
        <ele>3.7</ele>
        <time>2022-04-22T14:30:22Z</time>
      </trkpt>
      <trkpt lat="50.17554" lon="1.65117">
        <ele>3.7</ele>
        <time>2022-04-22T14:30:23Z</time>
      </trkpt>
      <trkpt lat="50.17555" lon="1.65116">
        <ele>3.7</ele>
        <time>2022-04-22T14:30:24Z</time>
      </trkpt>
      <trkpt lat="50.17556" lon="1.65114">
        <ele>3.7</ele>
        <time>2022-04-22T14:30:25Z</time>
      </trkpt>
      <trkpt lat="50.17557" lon="1.65112">
        <ele>3.7</ele>
        <time>2022-04-22T14:30:26Z</time>
      </trkpt>
      <trkpt lat="50.17557" lon="1.6511">
        <ele>3.8</ele>
        <time>2022-04-22T14:30:27Z</time>
      </trkpt>
      <trkpt lat="50.17559" lon="1.65106">
        <ele>3.8</ele>
        <time>2022-04-22T14:30:28Z</time>
      </trkpt>
      <trkpt lat="50.17559" lon="1.65104">
        <ele>3.8</ele>
        <time>2022-04-22T14:30:29Z</time>
      </trkpt>
      <trkpt lat="50.1756" lon="1.65104">
        <ele>3.8</ele>
        <time>2022-04-22T14:30:30Z</time>
      </trkpt>
      <trkpt lat="50.1756" lon="1.65102">
        <ele>3.8</ele>
        <time>2022-04-22T14:30:31Z</time>
      </trkpt>
      <trkpt lat="50.17561" lon="1.651">
        <ele>3.8</ele>
        <time>2022-04-22T14:30:32Z</time>
      </trkpt>
      <trkpt lat="50.17563" lon="1.65097">
        <ele>3.9</ele>
        <time>2022-04-22T14:30:34Z</time>
      </trkpt>
      <trkpt lat="50.17564" lon="1.65096">
        <ele>3.9</ele>
        <time>2022-04-22T14:30:35Z</time>
      </trkpt>
      <trkpt lat="50.17565" lon="1.65096">
        <ele>3.9</ele>
        <time>2022-04-22T14:30:36Z</time>
      </trkpt>
      <trkpt lat="50.17565" lon="1.65094">
        <ele>3.9</ele>
        <time>2022-04-22T14:30:37Z</time>
      </trkpt>
      <trkpt lat="50.17566" lon="1.65092">
        <ele>3.9</ele>
        <time>2022-04-22T14:30:38Z</time>
      </trkpt>
      <trkpt lat="50.17567" lon="1.65091">
        <ele>3.9</ele>
        <time>2022-04-22T14:30:39Z</time>
      </trkpt>
      <trkpt lat="50.17569" lon="1.6509">
        <ele>3.9</ele>
        <time>2022-04-22T14:30:40Z</time>
      </trkpt>
      <trkpt lat="50.17569" lon="1.6509">
        <ele>3.9</ele>
        <time>2022-04-22T14:30:41Z</time>
      </trkpt>
      <trkpt lat="50.1757" lon="1.6509">
        <ele>3.9</ele>
        <time>2022-04-22T14:30:42Z</time>
      </trkpt>
      <trkpt lat="50.17571" lon="1.65089">
        <ele>3.9</ele>
        <time>2022-04-22T14:30:43Z</time>
      </trkpt>
      <trkpt lat="50.17573" lon="1.65087">
        <ele>4</ele>
        <time>2022-04-22T14:30:44Z</time>
      </trkpt>
      <trkpt lat="50.17573" lon="1.65085">
        <ele>4</ele>
        <time>2022-04-22T14:30:45Z</time>
      </trkpt>
      <trkpt lat="50.17573" lon="1.65084">
        <ele>4</ele>
        <time>2022-04-22T14:30:47Z</time>
      </trkpt>
      <trkpt lat="50.17574" lon="1.65082">
        <ele>4</ele>
        <time>2022-04-22T14:30:48Z</time>
      </trkpt>
      <trkpt lat="50.17574" lon="1.65081">
        <ele>4</ele>
        <time>2022-04-22T14:30:49Z</time>
      </trkpt>
      <trkpt lat="50.17574" lon="1.6508">
        <ele>4</ele>
        <time>2022-04-22T14:30:50Z</time>
      </trkpt>
      <trkpt lat="50.17575" lon="1.65078">
        <ele>4</ele>
        <time>2022-04-22T14:30:51Z</time>
      </trkpt>
      <trkpt lat="50.17575" lon="1.65076">
        <ele>4</ele>
        <time>2022-04-22T14:30:52Z</time>
      </trkpt>
      <trkpt lat="50.17575" lon="1.65074">
        <ele>4</ele>
        <time>2022-04-22T14:30:53Z</time>
      </trkpt>
      <trkpt lat="50.17575" lon="1.65071">
        <ele>4</ele>
        <time>2022-04-22T14:30:54Z</time>
      </trkpt>
      <trkpt lat="50.17575" lon="1.6507">
        <ele>4.1</ele>
        <time>2022-04-22T14:30:55Z</time>
      </trkpt>
      <trkpt lat="50.17574" lon="1.65068">
        <ele>4.1</ele>
        <time>2022-04-22T14:30:56Z</time>
      </trkpt>
      <trkpt lat="50.17574" lon="1.65066">
        <ele>4.1</ele>
        <time>2022-04-22T14:30:57Z</time>
      </trkpt>
      <trkpt lat="50.17574" lon="1.65064">
        <ele>4.1</ele>
        <time>2022-04-22T14:30:59Z</time>
      </trkpt>
      <trkpt lat="50.17574" lon="1.65061">
        <ele>4.1</ele>
        <time>2022-04-22T14:31:00Z</time>
      </trkpt>
      <trkpt lat="50.17574" lon="1.65058">
        <ele>4.1</ele>
        <time>2022-04-22T14:31:01Z</time>
      </trkpt>
      <trkpt lat="50.17574" lon="1.65057">
        <ele>4.1</ele>
        <time>2022-04-22T14:31:02Z</time>
      </trkpt>
      <trkpt lat="50.17574" lon="1.65056">
        <ele>4.1</ele>
        <time>2022-04-22T14:31:03Z</time>
      </trkpt>
      <trkpt lat="50.17574" lon="1.65052">
        <ele>4.1</ele>
        <time>2022-04-22T14:31:04Z</time>
      </trkpt>
      <trkpt lat="50.17574" lon="1.65051">
        <ele>4.1</ele>
        <time>2022-04-22T14:31:05Z</time>
      </trkpt>
      <trkpt lat="50.17574" lon="1.65049">
        <ele>4.2</ele>
        <time>2022-04-22T14:31:06Z</time>
      </trkpt>
      <trkpt lat="50.17573" lon="1.65047">
        <ele>4.2</ele>
        <time>2022-04-22T14:31:07Z</time>
      </trkpt>
      <trkpt lat="50.17573" lon="1.65045">
        <ele>4.2</ele>
        <time>2022-04-22T14:31:09Z</time>
      </trkpt>
      <trkpt lat="50.17573" lon="1.65043">
        <ele>4.2</ele>
        <time>2022-04-22T14:31:10Z</time>
      </trkpt>
      <trkpt lat="50.17573" lon="1.65042">
        <ele>4.2</ele>
        <time>2022-04-22T14:31:11Z</time>
      </trkpt>
      <trkpt lat="50.17573" lon="1.6504">
        <ele>4.2</ele>
        <time>2022-04-22T14:31:12Z</time>
      </trkpt>
      <trkpt lat="50.17573" lon="1.65037">
        <ele>4.2</ele>
        <time>2022-04-22T14:31:13Z</time>
      </trkpt>
      <trkpt lat="50.17574" lon="1.65036">
        <ele>4.2</ele>
        <time>2022-04-22T14:31:14Z</time>
      </trkpt>
      <trkpt lat="50.17574" lon="1.65035">
        <ele>4.2</ele>
        <time>2022-04-22T14:31:15Z</time>
      </trkpt>
      <trkpt lat="50.17574" lon="1.65033">
        <ele>4.3</ele>
        <time>2022-04-22T14:31:16Z</time>
      </trkpt>
      <trkpt lat="50.17575" lon="1.65031">
        <ele>4.3</ele>
        <time>2022-04-22T14:31:17Z</time>
      </trkpt>
      <trkpt lat="50.17575" lon="1.6503">
        <ele>4.3</ele>
        <time>2022-04-22T14:31:18Z</time>
      </trkpt>
      <trkpt lat="50.17575" lon="1.65028">
        <ele>4.3</ele>
        <time>2022-04-22T14:31:20Z</time>
      </trkpt>
      <trkpt lat="50.17575" lon="1.65026">
        <ele>4.3</ele>
        <time>2022-04-22T14:31:21Z</time>
      </trkpt>
      <trkpt lat="50.17575" lon="1.65025">
        <ele>4.3</ele>
        <time>2022-04-22T14:31:22Z</time>
      </trkpt>
      <trkpt lat="50.17575" lon="1.65022">
        <ele>4.3</ele>
        <time>2022-04-22T14:31:23Z</time>
      </trkpt>
      <trkpt lat="50.17575" lon="1.6502">
        <ele>4.3</ele>
        <time>2022-04-22T14:31:24Z</time>
      </trkpt>
      <trkpt lat="50.17575" lon="1.65019">
        <ele>4.3</ele>
        <time>2022-04-22T14:31:25Z</time>
      </trkpt>
      <trkpt lat="50.17575" lon="1.65017">
        <ele>4.3</ele>
        <time>2022-04-22T14:31:26Z</time>
      </trkpt>
      <trkpt lat="50.17575" lon="1.65016">
        <ele>4.3</ele>
        <time>2022-04-22T14:31:27Z</time>
      </trkpt>
      <trkpt lat="50.17575" lon="1.65014">
        <ele>4.4</ele>
        <time>2022-04-22T14:31:28Z</time>
      </trkpt>
      <trkpt lat="50.17576" lon="1.65011">
        <ele>4.4</ele>
        <time>2022-04-22T14:31:30Z</time>
      </trkpt>
      <trkpt lat="50.17576" lon="1.6501">
        <ele>4.4</ele>
        <time>2022-04-22T14:31:31Z</time>
      </trkpt>
      <trkpt lat="50.17576" lon="1.65008">
        <ele>4.4</ele>
        <time>2022-04-22T14:31:32Z</time>
      </trkpt>
      <trkpt lat="50.17577" lon="1.65005">
        <ele>4.4</ele>
        <time>2022-04-22T14:31:33Z</time>
      </trkpt>
      <trkpt lat="50.17577" lon="1.65003">
        <ele>4.4</ele>
        <time>2022-04-22T14:31:34Z</time>
      </trkpt>
      <trkpt lat="50.17577" lon="1.65002">
        <ele>4.4</ele>
        <time>2022-04-22T14:31:35Z</time>
      </trkpt>
      <trkpt lat="50.17579" lon="1.65">
        <ele>4.4</ele>
        <time>2022-04-22T14:31:36Z</time>
      </trkpt>
      <trkpt lat="50.17579" lon="1.64999">
        <ele>4.4</ele>
        <time>2022-04-22T14:31:37Z</time>
      </trkpt>
      <trkpt lat="50.1758" lon="1.64998">
        <ele>4.4</ele>
        <time>2022-04-22T14:31:38Z</time>
      </trkpt>
      <trkpt lat="50.17581" lon="1.64996">
        <ele>4.4</ele>
        <time>2022-04-22T14:31:39Z</time>
      </trkpt>
      <trkpt lat="50.17582" lon="1.64995">
        <ele>4.5</ele>
        <time>2022-04-22T14:31:40Z</time>
      </trkpt>
      <trkpt lat="50.17584" lon="1.64992">
        <ele>4.5</ele>
        <time>2022-04-22T14:31:41Z</time>
      </trkpt>
      <trkpt lat="50.17585" lon="1.6499">
        <ele>4.5</ele>
        <time>2022-04-22T14:31:43Z</time>
      </trkpt>
      <trkpt lat="50.17586" lon="1.64989">
        <ele>4.5</ele>
        <time>2022-04-22T14:31:44Z</time>
      </trkpt>
      <trkpt lat="50.17587" lon="1.64987">
        <ele>4.5</ele>
        <time>2022-04-22T14:31:45Z</time>
      </trkpt>
      <trkpt lat="50.17587" lon="1.64985">
        <ele>4.5</ele>
        <time>2022-04-22T14:31:46Z</time>
      </trkpt>
      <trkpt lat="50.17588" lon="1.64984">
        <ele>4.5</ele>
        <time>2022-04-22T14:31:47Z</time>
      </trkpt>
      <trkpt lat="50.17588" lon="1.64982">
        <ele>4.5</ele>
        <time>2022-04-22T14:31:48Z</time>
      </trkpt>
      <trkpt lat="50.17589" lon="1.6498">
        <ele>4.6</ele>
        <time>2022-04-22T14:31:49Z</time>
      </trkpt>
      <trkpt lat="50.1759" lon="1.64979">
        <ele>4.6</ele>
        <time>2022-04-22T14:31:50Z</time>
      </trkpt>
      <trkpt lat="50.17591" lon="1.64978">
        <ele>4.6</ele>
        <time>2022-04-22T14:31:51Z</time>
      </trkpt>
      <trkpt lat="50.17592" lon="1.64977">
        <ele>4.6</ele>
        <time>2022-04-22T14:31:52Z</time>
      </trkpt>
      <trkpt lat="50.17593" lon="1.64975">
        <ele>4.6</ele>
        <time>2022-04-22T14:31:53Z</time>
      </trkpt>
      <trkpt lat="50.17595" lon="1.64972">
        <ele>4.6</ele>
        <time>2022-04-22T14:31:54Z</time>
      </trkpt>
      <trkpt lat="50.17595" lon="1.64971">
        <ele>4.6</ele>
        <time>2022-04-22T14:31:56Z</time>
      </trkpt>
      <trkpt lat="50.17596" lon="1.6497">
        <ele>4.6</ele>
        <time>2022-04-22T14:31:57Z</time>
      </trkpt>
      <trkpt lat="50.17596" lon="1.64969">
        <ele>4.6</ele>
        <time>2022-04-22T14:31:58Z</time>
      </trkpt>
      <trkpt lat="50.17597" lon="1.64968">
        <ele>4.6</ele>
        <time>2022-04-22T14:31:59Z</time>
      </trkpt>
      <trkpt lat="50.17598" lon="1.64966">
        <ele>4.7</ele>
        <time>2022-04-22T14:32:00Z</time>
      </trkpt>
      <trkpt lat="50.17599" lon="1.64964">
        <ele>4.7</ele>
        <time>2022-04-22T14:32:01Z</time>
      </trkpt>
      <trkpt lat="50.17599" lon="1.6496">
        <ele>4.7</ele>
        <time>2022-04-22T14:32:02Z</time>
      </trkpt>
      <trkpt lat="50.17599" lon="1.64959">
        <ele>4.7</ele>
        <time>2022-04-22T14:32:03Z</time>
      </trkpt>
      <trkpt lat="50.17599" lon="1.64958">
        <ele>4.7</ele>
        <time>2022-04-22T14:32:04Z</time>
      </trkpt>
      <trkpt lat="50.176" lon="1.64955">
        <ele>4.7</ele>
        <time>2022-04-22T14:32:05Z</time>
      </trkpt>
      <trkpt lat="50.176" lon="1.64954">
        <ele>4.7</ele>
        <time>2022-04-22T14:32:06Z</time>
      </trkpt>
      <trkpt lat="50.17601" lon="1.64953">
        <ele>4.7</ele>
        <time>2022-04-22T14:32:08Z</time>
      </trkpt>
      <trkpt lat="50.17601" lon="1.64951">
        <ele>4.7</ele>
        <time>2022-04-22T14:32:09Z</time>
      </trkpt>
      <trkpt lat="50.17601" lon="1.64948">
        <ele>4.7</ele>
        <time>2022-04-22T14:32:10Z</time>
      </trkpt>
      <trkpt lat="50.17601" lon="1.64948">
        <ele>4.7</ele>
        <time>2022-04-22T14:32:11Z</time>
      </trkpt>
      <trkpt lat="50.17602" lon="1.64946">
        <ele>4.7</ele>
        <time>2022-04-22T14:32:12Z</time>
      </trkpt>
      <trkpt lat="50.17602" lon="1.64945">
        <ele>4.7</ele>
        <time>2022-04-22T14:32:13Z</time>
      </trkpt>
      <trkpt lat="50.17602" lon="1.64944">
        <ele>4.7</ele>
        <time>2022-04-22T14:32:14Z</time>
      </trkpt>
      <trkpt lat="50.17603" lon="1.64943">
        <ele>4.7</ele>
        <time>2022-04-22T14:32:15Z</time>
      </trkpt>
      <trkpt lat="50.17603" lon="1.64942">
        <ele>4.7</ele>
        <time>2022-04-22T14:32:16Z</time>
      </trkpt>
      <trkpt lat="50.17603" lon="1.64941">
        <ele>4.7</ele>
        <time>2022-04-22T14:32:17Z</time>
      </trkpt>
      <trkpt lat="50.17603" lon="1.64939">
        <ele>4.7</ele>
        <time>2022-04-22T14:32:18Z</time>
      </trkpt>
      <trkpt lat="50.17604" lon="1.64936">
        <ele>4.7</ele>
        <time>2022-04-22T14:32:19Z</time>
      </trkpt>
      <trkpt lat="50.17604" lon="1.64934">
        <ele>4.7</ele>
        <time>2022-04-22T14:32:21Z</time>
      </trkpt>
      <trkpt lat="50.17604" lon="1.64933">
        <ele>4.7</ele>
        <time>2022-04-22T14:32:22Z</time>
      </trkpt>
      <trkpt lat="50.17604" lon="1.6493">
        <ele>4.7</ele>
        <time>2022-04-22T14:32:23Z</time>
      </trkpt>
      <trkpt lat="50.17605" lon="1.64929">
        <ele>4.7</ele>
        <time>2022-04-22T14:32:24Z</time>
      </trkpt>
      <trkpt lat="50.17605" lon="1.64927">
        <ele>4.8</ele>
        <time>2022-04-22T14:32:25Z</time>
      </trkpt>
      <trkpt lat="50.17605" lon="1.64926">
        <ele>4.8</ele>
        <time>2022-04-22T14:32:26Z</time>
      </trkpt>
      <trkpt lat="50.17605" lon="1.64924">
        <ele>4.8</ele>
        <time>2022-04-22T14:32:27Z</time>
      </trkpt>
      <trkpt lat="50.17606" lon="1.64922">
        <ele>4.8</ele>
        <time>2022-04-22T14:32:28Z</time>
      </trkpt>
      <trkpt lat="50.17606" lon="1.6492">
        <ele>4.8</ele>
        <time>2022-04-22T14:32:29Z</time>
      </trkpt>
      <trkpt lat="50.17607" lon="1.64917">
        <ele>4.8</ele>
        <time>2022-04-22T14:32:30Z</time>
      </trkpt>
      <trkpt lat="50.17607" lon="1.64914">
        <ele>4.8</ele>
        <time>2022-04-22T14:32:31Z</time>
      </trkpt>
      <trkpt lat="50.17607" lon="1.64913">
        <ele>4.8</ele>
        <time>2022-04-22T14:32:33Z</time>
      </trkpt>
      <trkpt lat="50.17608" lon="1.64912">
        <ele>4.8</ele>
        <time>2022-04-22T14:32:34Z</time>
      </trkpt>
      <trkpt lat="50.17609" lon="1.64907">
        <ele>4.8</ele>
        <time>2022-04-22T14:32:35Z</time>
      </trkpt>
      <trkpt lat="50.1761" lon="1.64908">
        <ele>4.8</ele>
        <time>2022-04-22T14:32:36Z</time>
      </trkpt>
      <trkpt lat="50.17611" lon="1.64908">
        <ele>4.8</ele>
        <time>2022-04-22T14:32:37Z</time>
      </trkpt>
      <trkpt lat="50.17612" lon="1.64907">
        <ele>4.8</ele>
        <time>2022-04-22T14:32:38Z</time>
      </trkpt>
      <trkpt lat="50.17614" lon="1.64905">
        <ele>4.8</ele>
        <time>2022-04-22T14:32:39Z</time>
      </trkpt>
      <trkpt lat="50.17614" lon="1.64904">
        <ele>4.8</ele>
        <time>2022-04-22T14:32:40Z</time>
      </trkpt>
      <trkpt lat="50.17615" lon="1.64904">
        <ele>4.9</ele>
        <time>2022-04-22T14:32:41Z</time>
      </trkpt>
      <trkpt lat="50.17616" lon="1.64902">
        <ele>4.9</ele>
        <time>2022-04-22T14:32:42Z</time>
      </trkpt>
      <trkpt lat="50.17617" lon="1.649">
        <ele>4.9</ele>
        <time>2022-04-22T14:32:43Z</time>
      </trkpt>
      <trkpt lat="50.17618" lon="1.64898">
        <ele>4.9</ele>
        <time>2022-04-22T14:32:45Z</time>
      </trkpt>
      <trkpt lat="50.17619" lon="1.64896">
        <ele>4.9</ele>
        <time>2022-04-22T14:32:46Z</time>
      </trkpt>
      <trkpt lat="50.1762" lon="1.64894">
        <ele>4.9</ele>
        <time>2022-04-22T14:32:47Z</time>
      </trkpt>
      <trkpt lat="50.1762" lon="1.64892">
        <ele>4.9</ele>
        <time>2022-04-22T14:32:48Z</time>
      </trkpt>
      <trkpt lat="50.17621" lon="1.64888">
        <ele>5</ele>
        <time>2022-04-22T14:32:49Z</time>
      </trkpt>
      <trkpt lat="50.17622" lon="1.64887">
        <ele>5</ele>
        <time>2022-04-22T14:32:50Z</time>
      </trkpt>
      <trkpt lat="50.17622" lon="1.64886">
        <ele>5</ele>
        <time>2022-04-22T14:32:51Z</time>
      </trkpt>
      <trkpt lat="50.17623" lon="1.64884">
        <ele>5</ele>
        <time>2022-04-22T14:32:52Z</time>
      </trkpt>
      <trkpt lat="50.17623" lon="1.64882">
        <ele>5</ele>
        <time>2022-04-22T14:32:53Z</time>
      </trkpt>
      <trkpt lat="50.17624" lon="1.64879">
        <ele>5</ele>
        <time>2022-04-22T14:32:54Z</time>
      </trkpt>
      <trkpt lat="50.17625" lon="1.64877">
        <ele>5</ele>
        <time>2022-04-22T14:32:56Z</time>
      </trkpt>
      <trkpt lat="50.17626" lon="1.64876">
        <ele>5</ele>
        <time>2022-04-22T14:32:57Z</time>
      </trkpt>
      <trkpt lat="50.17626" lon="1.64874">
        <ele>5</ele>
        <time>2022-04-22T14:32:58Z</time>
      </trkpt>
      <trkpt lat="50.17627" lon="1.64872">
        <ele>5.1</ele>
        <time>2022-04-22T14:32:59Z</time>
      </trkpt>
      <trkpt lat="50.17628" lon="1.64869">
        <ele>5.1</ele>
        <time>2022-04-22T14:33:00Z</time>
      </trkpt>
      <trkpt lat="50.17628" lon="1.64869">
        <ele>5.1</ele>
        <time>2022-04-22T14:33:01Z</time>
      </trkpt>
      <trkpt lat="50.1763" lon="1.64866">
        <ele>5.1</ele>
        <time>2022-04-22T14:33:02Z</time>
      </trkpt>
      <trkpt lat="50.1763" lon="1.64865">
        <ele>5.1</ele>
        <time>2022-04-22T14:33:03Z</time>
      </trkpt>
      <trkpt lat="50.17631" lon="1.64864">
        <ele>5.1</ele>
        <time>2022-04-22T14:33:04Z</time>
      </trkpt>
      <trkpt lat="50.17633" lon="1.64863">
        <ele>5.1</ele>
        <time>2022-04-22T14:33:05Z</time>
      </trkpt>
      <trkpt lat="50.17633" lon="1.64863">
        <ele>5.1</ele>
        <time>2022-04-22T14:33:07Z</time>
      </trkpt>
      <trkpt lat="50.17634" lon="1.64862">
        <ele>5.1</ele>
        <time>2022-04-22T14:33:08Z</time>
      </trkpt>
      <trkpt lat="50.17635" lon="1.64861">
        <ele>5.1</ele>
        <time>2022-04-22T14:33:09Z</time>
      </trkpt>
      <trkpt lat="50.17636" lon="1.64859">
        <ele>5.1</ele>
        <time>2022-04-22T14:33:10Z</time>
      </trkpt>
      <trkpt lat="50.17636" lon="1.64857">
        <ele>5.1</ele>
        <time>2022-04-22T14:33:11Z</time>
      </trkpt>
      <trkpt lat="50.17636" lon="1.64856">
        <ele>5.1</ele>
        <time>2022-04-22T14:33:12Z</time>
      </trkpt>
      <trkpt lat="50.17637" lon="1.64854">
        <ele>5.1</ele>
        <time>2022-04-22T14:33:13Z</time>
      </trkpt>
      <trkpt lat="50.17637" lon="1.64852">
        <ele>5.1</ele>
        <time>2022-04-22T14:33:14Z</time>
      </trkpt>
      <trkpt lat="50.17638" lon="1.6485">
        <ele>5.2</ele>
        <time>2022-04-22T14:33:15Z</time>
      </trkpt>
      <trkpt lat="50.17639" lon="1.64848">
        <ele>5.2</ele>
        <time>2022-04-22T14:33:16Z</time>
      </trkpt>
      <trkpt lat="50.1764" lon="1.64847">
        <ele>5.2</ele>
        <time>2022-04-22T14:33:18Z</time>
      </trkpt>
      <trkpt lat="50.1764" lon="1.64845">
        <ele>5.2</ele>
        <time>2022-04-22T14:33:19Z</time>
      </trkpt>
      <trkpt lat="50.17641" lon="1.64843">
        <ele>5.2</ele>
        <time>2022-04-22T14:33:20Z</time>
      </trkpt>
      <trkpt lat="50.17642" lon="1.64842">
        <ele>5.2</ele>
        <time>2022-04-22T14:33:21Z</time>
      </trkpt>
      <trkpt lat="50.17643" lon="1.64839">
        <ele>5.2</ele>
        <time>2022-04-22T14:33:22Z</time>
      </trkpt>
      <trkpt lat="50.17643" lon="1.64838">
        <ele>5.2</ele>
        <time>2022-04-22T14:33:24Z</time>
      </trkpt>
      <trkpt lat="50.17643" lon="1.64837">
        <ele>5.2</ele>
        <time>2022-04-22T14:33:25Z</time>
      </trkpt>
      <trkpt lat="50.17644" lon="1.64835">
        <ele>5.2</ele>
        <time>2022-04-22T14:33:26Z</time>
      </trkpt>
      <trkpt lat="50.17644" lon="1.64834">
        <ele>5.2</ele>
        <time>2022-04-22T14:33:27Z</time>
      </trkpt>
      <trkpt lat="50.17644" lon="1.64833">
        <ele>5.2</ele>
        <time>2022-04-22T14:33:28Z</time>
      </trkpt>
      <trkpt lat="50.17645" lon="1.64831">
        <ele>5.2</ele>
        <time>2022-04-22T14:33:29Z</time>
      </trkpt>
      <trkpt lat="50.17646" lon="1.64828">
        <ele>5.2</ele>
        <time>2022-04-22T14:33:30Z</time>
      </trkpt>
      <trkpt lat="50.17646" lon="1.64827">
        <ele>5.2</ele>
        <time>2022-04-22T14:33:31Z</time>
      </trkpt>
      <trkpt lat="50.17647" lon="1.64825">
        <ele>5.3</ele>
        <time>2022-04-22T14:33:32Z</time>
      </trkpt>
      <trkpt lat="50.17647" lon="1.64823">
        <ele>5.3</ele>
        <time>2022-04-22T14:33:33Z</time>
      </trkpt>
      <trkpt lat="50.17648" lon="1.64821">
        <ele>5.3</ele>
        <time>2022-04-22T14:33:34Z</time>
      </trkpt>
      <trkpt lat="50.17649" lon="1.64819">
        <ele>5.3</ele>
        <time>2022-04-22T14:33:35Z</time>
      </trkpt>
      <trkpt lat="50.17649" lon="1.64818">
        <ele>5.3</ele>
        <time>2022-04-22T14:33:37Z</time>
      </trkpt>
      <trkpt lat="50.1765" lon="1.64816">
        <ele>5.3</ele>
        <time>2022-04-22T14:33:38Z</time>
      </trkpt>
      <trkpt lat="50.1765" lon="1.64815">
        <ele>5.3</ele>
        <time>2022-04-22T14:33:39Z</time>
      </trkpt>
      <trkpt lat="50.17652" lon="1.64811">
        <ele>5.3</ele>
        <time>2022-04-22T14:33:40Z</time>
      </trkpt>
      <trkpt lat="50.17652" lon="1.64811">
        <ele>5.4</ele>
        <time>2022-04-22T14:33:41Z</time>
      </trkpt>
      <trkpt lat="50.17653" lon="1.6481">
        <ele>5.4</ele>
        <time>2022-04-22T14:33:42Z</time>
      </trkpt>
      <trkpt lat="50.17654" lon="1.64807">
        <ele>5.4</ele>
        <time>2022-04-22T14:33:44Z</time>
      </trkpt>
      <trkpt lat="50.17655" lon="1.64806">
        <ele>5.4</ele>
        <time>2022-04-22T14:33:45Z</time>
      </trkpt>
      <trkpt lat="50.17655" lon="1.64805">
        <ele>5.4</ele>
        <time>2022-04-22T14:33:46Z</time>
      </trkpt>
      <trkpt lat="50.17656" lon="1.64803">
        <ele>5.4</ele>
        <time>2022-04-22T14:33:47Z</time>
      </trkpt>
      <trkpt lat="50.17657" lon="1.64801">
        <ele>5.4</ele>
        <time>2022-04-22T14:33:48Z</time>
      </trkpt>
      <trkpt lat="50.17657" lon="1.64799">
        <ele>5.4</ele>
        <time>2022-04-22T14:33:49Z</time>
      </trkpt>
      <trkpt lat="50.17656" lon="1.64794">
        <ele>5.5</ele>
        <time>2022-04-22T14:33:51Z</time>
      </trkpt>
      <trkpt lat="50.17656" lon="1.64793">
        <ele>5.5</ele>
        <time>2022-04-22T14:33:52Z</time>
      </trkpt>
      <trkpt lat="50.17657" lon="1.64791">
        <ele>5.5</ele>
        <time>2022-04-22T14:33:53Z</time>
      </trkpt>
      <trkpt lat="50.17657" lon="1.64789">
        <ele>5.5</ele>
        <time>2022-04-22T14:33:54Z</time>
      </trkpt>
      <trkpt lat="50.17659" lon="1.64788">
        <ele>5.5</ele>
        <time>2022-04-22T14:33:55Z</time>
      </trkpt>
      <trkpt lat="50.17661" lon="1.64787">
        <ele>5.5</ele>
        <time>2022-04-22T14:33:56Z</time>
      </trkpt>
      <trkpt lat="50.17664" lon="1.64787">
        <ele>5.6</ele>
        <time>2022-04-22T14:33:57Z</time>
      </trkpt>
      <trkpt lat="50.17665" lon="1.64787">
        <ele>5.6</ele>
        <time>2022-04-22T14:33:58Z</time>
      </trkpt>
      <trkpt lat="50.17666" lon="1.64785">
        <ele>5.6</ele>
        <time>2022-04-22T14:33:59Z</time>
      </trkpt>
      <trkpt lat="50.17667" lon="1.64784">
        <ele>5.6</ele>
        <time>2022-04-22T14:34:00Z</time>
      </trkpt>
      <trkpt lat="50.17667" lon="1.64783">
        <ele>5.6</ele>
        <time>2022-04-22T14:34:01Z</time>
      </trkpt>
      <trkpt lat="50.17668" lon="1.64781">
        <ele>5.6</ele>
        <time>2022-04-22T14:34:02Z</time>
      </trkpt>
      <trkpt lat="50.17669" lon="1.64779">
        <ele>5.7</ele>
        <time>2022-04-22T14:34:04Z</time>
      </trkpt>
      <trkpt lat="50.17669" lon="1.64774">
        <ele>5.7</ele>
        <time>2022-04-22T14:34:06Z</time>
      </trkpt>
      <trkpt lat="50.17668" lon="1.64771">
        <ele>5.7</ele>
        <time>2022-04-22T14:34:07Z</time>
      </trkpt>
      <trkpt lat="50.17668" lon="1.64769">
        <ele>5.7</ele>
        <time>2022-04-22T14:34:08Z</time>
      </trkpt>
      <trkpt lat="50.17669" lon="1.64766">
        <ele>5.8</ele>
        <time>2022-04-22T14:34:09Z</time>
      </trkpt>
      <trkpt lat="50.1767" lon="1.64764">
        <ele>5.8</ele>
        <time>2022-04-22T14:34:10Z</time>
      </trkpt>
      <trkpt lat="50.1767" lon="1.64763">
        <ele>5.8</ele>
        <time>2022-04-22T14:34:11Z</time>
      </trkpt>
      <trkpt lat="50.17672" lon="1.64762">
        <ele>5.9</ele>
        <time>2022-04-22T14:34:12Z</time>
      </trkpt>
      <trkpt lat="50.17673" lon="1.64762">
        <ele>5.9</ele>
        <time>2022-04-22T14:34:13Z</time>
      </trkpt>
      <trkpt lat="50.17674" lon="1.64762">
        <ele>5.9</ele>
        <time>2022-04-22T14:34:14Z</time>
      </trkpt>
      <trkpt lat="50.17677" lon="1.64763">
        <ele>5.9</ele>
        <time>2022-04-22T14:34:15Z</time>
      </trkpt>
      <trkpt lat="50.17677" lon="1.64762">
        <ele>5.9</ele>
        <time>2022-04-22T14:34:16Z</time>
      </trkpt>
      <trkpt lat="50.17678" lon="1.64761">
        <ele>6</ele>
        <time>2022-04-22T14:34:18Z</time>
      </trkpt>
      <trkpt lat="50.17679" lon="1.6476">
        <ele>6</ele>
        <time>2022-04-22T14:34:19Z</time>
      </trkpt>
      <trkpt lat="50.17679" lon="1.64758">
        <ele>6</ele>
        <time>2022-04-22T14:34:20Z</time>
      </trkpt>
      <trkpt lat="50.17679" lon="1.64756">
        <ele>6</ele>
        <time>2022-04-22T14:34:21Z</time>
      </trkpt>
      <trkpt lat="50.1768" lon="1.64755">
        <ele>6</ele>
        <time>2022-04-22T14:34:22Z</time>
      </trkpt>
      <trkpt lat="50.1768" lon="1.64753">
        <ele>6.1</ele>
        <time>2022-04-22T14:34:23Z</time>
      </trkpt>
      <trkpt lat="50.1768" lon="1.64751">
        <ele>6.1</ele>
        <time>2022-04-22T14:34:24Z</time>
      </trkpt>
      <trkpt lat="50.17681" lon="1.64748">
        <ele>6.1</ele>
        <time>2022-04-22T14:34:25Z</time>
      </trkpt>
      <trkpt lat="50.17681" lon="1.64747">
        <ele>6.1</ele>
        <time>2022-04-22T14:34:26Z</time>
      </trkpt>
      <trkpt lat="50.17681" lon="1.64745">
        <ele>6.2</ele>
        <time>2022-04-22T14:34:27Z</time>
      </trkpt>
      <trkpt lat="50.17682" lon="1.64743">
        <ele>6.2</ele>
        <time>2022-04-22T14:34:28Z</time>
      </trkpt>
      <trkpt lat="50.17683" lon="1.64741">
        <ele>6.2</ele>
        <time>2022-04-22T14:34:29Z</time>
      </trkpt>
      <trkpt lat="50.17683" lon="1.64738">
        <ele>6.3</ele>
        <time>2022-04-22T14:34:30Z</time>
      </trkpt>
      <trkpt lat="50.17684" lon="1.64735">
        <ele>6.3</ele>
        <time>2022-04-22T14:34:32Z</time>
      </trkpt>
      <trkpt lat="50.17684" lon="1.64734">
        <ele>6.4</ele>
        <time>2022-04-22T14:34:33Z</time>
      </trkpt>
      <trkpt lat="50.17685" lon="1.64732">
        <ele>6.4</ele>
        <time>2022-04-22T14:34:34Z</time>
      </trkpt>
      <trkpt lat="50.17686" lon="1.64729">
        <ele>6.4</ele>
        <time>2022-04-22T14:34:35Z</time>
      </trkpt>
      <trkpt lat="50.17688" lon="1.64728">
        <ele>6.5</ele>
        <time>2022-04-22T14:34:36Z</time>
      </trkpt>
      <trkpt lat="50.17689" lon="1.64726">
        <ele>6.6</ele>
        <time>2022-04-22T14:34:37Z</time>
      </trkpt>
      <trkpt lat="50.17689" lon="1.64724">
        <ele>6.6</ele>
        <time>2022-04-22T14:34:38Z</time>
      </trkpt>
      <trkpt lat="50.1769" lon="1.64723">
        <ele>6.6</ele>
        <time>2022-04-22T14:34:39Z</time>
      </trkpt>
      <trkpt lat="50.1769" lon="1.6472">
        <ele>6.7</ele>
        <time>2022-04-22T14:34:40Z</time>
      </trkpt>
      <trkpt lat="50.1769" lon="1.64719">
        <ele>6.7</ele>
        <time>2022-04-22T14:34:42Z</time>
      </trkpt>
      <trkpt lat="50.1769" lon="1.64718">
        <ele>6.7</ele>
        <time>2022-04-22T14:34:43Z</time>
      </trkpt>
      <trkpt lat="50.1769" lon="1.64716">
        <ele>6.7</ele>
        <time>2022-04-22T14:34:44Z</time>
      </trkpt>
      <trkpt lat="50.1769" lon="1.64715">
        <ele>6.8</ele>
        <time>2022-04-22T14:34:45Z</time>
      </trkpt>
      <trkpt lat="50.1769" lon="1.64714">
        <ele>6.8</ele>
        <time>2022-04-22T14:34:46Z</time>
      </trkpt>
      <trkpt lat="50.17691" lon="1.64713">
        <ele>6.8</ele>
        <time>2022-04-22T14:34:47Z</time>
      </trkpt>
      <trkpt lat="50.17691" lon="1.64711">
        <ele>6.9</ele>
        <time>2022-04-22T14:34:48Z</time>
      </trkpt>
      <trkpt lat="50.1769" lon="1.64708">
        <ele>6.9</ele>
        <time>2022-04-22T14:34:49Z</time>
      </trkpt>
      <trkpt lat="50.1769" lon="1.64706">
        <ele>6.9</ele>
        <time>2022-04-22T14:34:50Z</time>
      </trkpt>
      <trkpt lat="50.17689" lon="1.64704">
        <ele>6.9</ele>
        <time>2022-04-22T14:34:51Z</time>
      </trkpt>
      <trkpt lat="50.17688" lon="1.64701">
        <ele>6.9</ele>
        <time>2022-04-22T14:34:53Z</time>
      </trkpt>
      <trkpt lat="50.17687" lon="1.647">
        <ele>6.9</ele>
        <time>2022-04-22T14:34:54Z</time>
      </trkpt>
      <trkpt lat="50.17687" lon="1.64699">
        <ele>6.9</ele>
        <time>2022-04-22T14:34:55Z</time>
      </trkpt>
      <trkpt lat="50.17686" lon="1.64698">
        <ele>6.9</ele>
        <time>2022-04-22T14:34:56Z</time>
      </trkpt>
      <trkpt lat="50.17686" lon="1.64697">
        <ele>6.9</ele>
        <time>2022-04-22T14:34:57Z</time>
      </trkpt>
      <trkpt lat="50.17686" lon="1.64696">
        <ele>6.9</ele>
        <time>2022-04-22T14:34:58Z</time>
      </trkpt>
      <trkpt lat="50.17687" lon="1.64694">
        <ele>6.9</ele>
        <time>2022-04-22T14:34:59Z</time>
      </trkpt>
      <trkpt lat="50.17688" lon="1.64691">
        <ele>6.9</ele>
        <time>2022-04-22T14:35:01Z</time>
      </trkpt>
      <trkpt lat="50.17688" lon="1.6469">
        <ele>6.9</ele>
        <time>2022-04-22T14:35:02Z</time>
      </trkpt>
      <trkpt lat="50.17689" lon="1.64688">
        <ele>6.9</ele>
        <time>2022-04-22T14:35:03Z</time>
      </trkpt>
      <trkpt lat="50.17689" lon="1.64687">
        <ele>6.9</ele>
        <time>2022-04-22T14:35:04Z</time>
      </trkpt>
      <trkpt lat="50.17689" lon="1.64685">
        <ele>6.9</ele>
        <time>2022-04-22T14:35:05Z</time>
      </trkpt>
      <trkpt lat="50.17689" lon="1.64681">
        <ele>6.9</ele>
        <time>2022-04-22T14:35:06Z</time>
      </trkpt>
      <trkpt lat="50.17689" lon="1.6468">
        <ele>7</ele>
        <time>2022-04-22T14:35:07Z</time>
      </trkpt>
      <trkpt lat="50.17688" lon="1.64679">
        <ele>7</ele>
        <time>2022-04-22T14:35:08Z</time>
      </trkpt>
      <trkpt lat="50.17688" lon="1.64677">
        <ele>7</ele>
        <time>2022-04-22T14:35:10Z</time>
      </trkpt>
      <trkpt lat="50.17687" lon="1.64675">
        <ele>7</ele>
        <time>2022-04-22T14:35:11Z</time>
      </trkpt>
      <trkpt lat="50.17686" lon="1.64674">
        <ele>7</ele>
        <time>2022-04-22T14:35:12Z</time>
      </trkpt>
      <trkpt lat="50.17686" lon="1.64672">
        <ele>7</ele>
        <time>2022-04-22T14:35:13Z</time>
      </trkpt>
      <trkpt lat="50.17685" lon="1.6467">
        <ele>7</ele>
        <time>2022-04-22T14:35:14Z</time>
      </trkpt>
      <trkpt lat="50.17684" lon="1.64666">
        <ele>7</ele>
        <time>2022-04-22T14:35:15Z</time>
      </trkpt>
      <trkpt lat="50.17684" lon="1.64664">
        <ele>7</ele>
        <time>2022-04-22T14:35:16Z</time>
      </trkpt>
      <trkpt lat="50.17686" lon="1.64663">
        <ele>7</ele>
        <time>2022-04-22T14:35:17Z</time>
      </trkpt>
      <trkpt lat="50.17686" lon="1.64661">
        <ele>7</ele>
        <time>2022-04-22T14:35:19Z</time>
      </trkpt>
      <trkpt lat="50.17687" lon="1.64659">
        <ele>7</ele>
        <time>2022-04-22T14:35:20Z</time>
      </trkpt>
      <trkpt lat="50.17689" lon="1.64658">
        <ele>7</ele>
        <time>2022-04-22T14:35:21Z</time>
      </trkpt>
      <trkpt lat="50.1769" lon="1.64657">
        <ele>7</ele>
        <time>2022-04-22T14:35:22Z</time>
      </trkpt>
      <trkpt lat="50.17691" lon="1.64655">
        <ele>7</ele>
        <time>2022-04-22T14:35:23Z</time>
      </trkpt>
      <trkpt lat="50.17691" lon="1.64654">
        <ele>7</ele>
        <time>2022-04-22T14:35:24Z</time>
      </trkpt>
      <trkpt lat="50.17693" lon="1.64652">
        <ele>7</ele>
        <time>2022-04-22T14:35:25Z</time>
      </trkpt>
      <trkpt lat="50.17693" lon="1.64651">
        <ele>7</ele>
        <time>2022-04-22T14:35:26Z</time>
      </trkpt>
      <trkpt lat="50.17695" lon="1.64649">
        <ele>7</ele>
        <time>2022-04-22T14:35:28Z</time>
      </trkpt>
      <trkpt lat="50.17696" lon="1.64648">
        <ele>7</ele>
        <time>2022-04-22T14:35:29Z</time>
      </trkpt>
      <trkpt lat="50.17697" lon="1.64648">
        <ele>7</ele>
        <time>2022-04-22T14:35:30Z</time>
      </trkpt>
      <trkpt lat="50.17698" lon="1.6465">
        <ele>7</ele>
        <time>2022-04-22T14:35:31Z</time>
      </trkpt>
      <trkpt lat="50.17699" lon="1.64651">
        <ele>7</ele>
        <time>2022-04-22T14:35:33Z</time>
      </trkpt>
      <trkpt lat="50.177" lon="1.64653">
        <ele>7</ele>
        <time>2022-04-22T14:35:34Z</time>
      </trkpt>
      <trkpt lat="50.177" lon="1.64654">
        <ele>7</ele>
        <time>2022-04-22T14:35:35Z</time>
      </trkpt>
      <trkpt lat="50.17701" lon="1.64654">
        <ele>7</ele>
        <time>2022-04-22T14:35:37Z</time>
      </trkpt>
      <trkpt lat="50.17702" lon="1.64653">
        <ele>7</ele>
        <time>2022-04-22T14:35:39Z</time>
      </trkpt>
      <trkpt lat="50.17702" lon="1.64653">
        <ele>7</ele>
        <time>2022-04-22T14:35:40Z</time>
      </trkpt>
      <trkpt lat="50.17703" lon="1.64654">
        <ele>6.9</ele>
        <time>2022-04-22T14:35:41Z</time>
      </trkpt>
      <trkpt lat="50.17703" lon="1.64652">
        <ele>6.9</ele>
        <time>2022-04-22T14:35:42Z</time>
      </trkpt>
      <trkpt lat="50.17704" lon="1.6465">
        <ele>6.9</ele>
        <time>2022-04-22T14:35:43Z</time>
      </trkpt>
      <trkpt lat="50.17706" lon="1.6465">
        <ele>6.9</ele>
        <time>2022-04-22T14:35:45Z</time>
      </trkpt>
      <trkpt lat="50.17706" lon="1.6465">
        <ele>6.9</ele>
        <time>2022-04-22T14:35:46Z</time>
      </trkpt>
      <trkpt lat="50.17707" lon="1.6465">
        <ele>6.9</ele>
        <time>2022-04-22T14:35:47Z</time>
      </trkpt>
      <trkpt lat="50.17708" lon="1.6465">
        <ele>6.9</ele>
        <time>2022-04-22T14:35:48Z</time>
      </trkpt>
      <trkpt lat="50.17709" lon="1.6465">
        <ele>6.9</ele>
        <time>2022-04-22T14:35:49Z</time>
      </trkpt>
      <trkpt lat="50.1771" lon="1.64648">
        <ele>6.9</ele>
        <time>2022-04-22T14:35:50Z</time>
      </trkpt>
      <trkpt lat="50.17711" lon="1.64643">
        <ele>6.9</ele>
        <time>2022-04-22T14:35:51Z</time>
      </trkpt>
      <trkpt lat="50.17713" lon="1.64636">
        <ele>6.9</ele>
        <time>2022-04-22T14:35:53Z</time>
      </trkpt>
      <trkpt lat="50.17714" lon="1.64632">
        <ele>6.9</ele>
        <time>2022-04-22T14:35:54Z</time>
      </trkpt>
      <trkpt lat="50.17715" lon="1.64627">
        <ele>6.9</ele>
        <time>2022-04-22T14:35:55Z</time>
      </trkpt>
      <trkpt lat="50.17716" lon="1.64624">
        <ele>6.9</ele>
        <time>2022-04-22T14:35:56Z</time>
      </trkpt>
      <trkpt lat="50.17716" lon="1.64623">
        <ele>6.8</ele>
        <time>2022-04-22T14:35:57Z</time>
      </trkpt>
      <trkpt lat="50.17717" lon="1.64621">
        <ele>6.8</ele>
        <time>2022-04-22T14:35:58Z</time>
      </trkpt>
      <trkpt lat="50.17718" lon="1.6462">
        <ele>6.8</ele>
        <time>2022-04-22T14:36:00Z</time>
      </trkpt>
      <trkpt lat="50.17718" lon="1.64619">
        <ele>6.8</ele>
        <time>2022-04-22T14:36:01Z</time>
      </trkpt>
      <trkpt lat="50.17718" lon="1.64618">
        <ele>6.8</ele>
        <time>2022-04-22T14:36:02Z</time>
      </trkpt>
      <trkpt lat="50.17718" lon="1.64618">
        <ele>6.8</ele>
        <time>2022-04-22T14:36:03Z</time>
      </trkpt>
      <trkpt lat="50.17717" lon="1.64618">
        <ele>6.8</ele>
        <time>2022-04-22T14:36:04Z</time>
      </trkpt>
      <trkpt lat="50.17717" lon="1.64618">
        <ele>6.8</ele>
        <time>2022-04-22T14:36:06Z</time>
      </trkpt>
      <trkpt lat="50.17716" lon="1.64619">
        <ele>6.8</ele>
        <time>2022-04-22T14:36:07Z</time>
      </trkpt>
      <trkpt lat="50.17715" lon="1.64617">
        <ele>6.8</ele>
        <time>2022-04-22T14:36:08Z</time>
      </trkpt>
      <trkpt lat="50.17716" lon="1.64617">
        <ele>6.8</ele>
        <time>2022-04-22T14:36:09Z</time>
      </trkpt>
      <trkpt lat="50.17717" lon="1.64616">
        <ele>6.8</ele>
        <time>2022-04-22T14:36:10Z</time>
      </trkpt>
      <trkpt lat="50.17718" lon="1.64615">
        <ele>6.8</ele>
        <time>2022-04-22T14:36:11Z</time>
      </trkpt>
      <trkpt lat="50.17719" lon="1.64614">
        <ele>6.8</ele>
        <time>2022-04-22T14:36:12Z</time>
      </trkpt>
      <trkpt lat="50.1772" lon="1.64613">
        <ele>6.8</ele>
        <time>2022-04-22T14:36:13Z</time>
      </trkpt>
      <trkpt lat="50.17721" lon="1.64613">
        <ele>6.8</ele>
        <time>2022-04-22T14:36:14Z</time>
      </trkpt>
      <trkpt lat="50.17721" lon="1.64612">
        <ele>6.8</ele>
        <time>2022-04-22T14:36:15Z</time>
      </trkpt>
      <trkpt lat="50.17722" lon="1.64612">
        <ele>6.8</ele>
        <time>2022-04-22T14:36:16Z</time>
      </trkpt>
      <trkpt lat="50.17723" lon="1.64611">
        <ele>6.8</ele>
        <time>2022-04-22T14:36:18Z</time>
      </trkpt>
      <trkpt lat="50.17723" lon="1.64614">
        <ele>6.8</ele>
        <time>2022-04-22T14:36:19Z</time>
      </trkpt>
      <trkpt lat="50.17723" lon="1.64614">
        <ele>6.8</ele>
        <time>2022-04-22T14:36:20Z</time>
      </trkpt>
      <trkpt lat="50.17724" lon="1.64614">
        <ele>6.8</ele>
        <time>2022-04-22T14:36:21Z</time>
      </trkpt>
      <trkpt lat="50.17725" lon="1.64613">
        <ele>6.8</ele>
        <time>2022-04-22T14:36:23Z</time>
      </trkpt>
      <trkpt lat="50.17727" lon="1.64612">
        <ele>6.8</ele>
        <time>2022-04-22T14:36:24Z</time>
      </trkpt>
      <trkpt lat="50.17728" lon="1.6461">
        <ele>6.8</ele>
        <time>2022-04-22T14:36:25Z</time>
      </trkpt>
      <trkpt lat="50.17729" lon="1.6461">
        <ele>6.7</ele>
        <time>2022-04-22T14:36:26Z</time>
      </trkpt>
      <trkpt lat="50.1773" lon="1.64609">
        <ele>6.7</ele>
        <time>2022-04-22T14:36:27Z</time>
      </trkpt>
      <trkpt lat="50.17731" lon="1.64608">
        <ele>6.7</ele>
        <time>2022-04-22T14:36:28Z</time>
      </trkpt>
      <trkpt lat="50.17731" lon="1.64608">
        <ele>6.7</ele>
        <time>2022-04-22T14:36:29Z</time>
      </trkpt>
      <trkpt lat="50.17732" lon="1.64608">
        <ele>6.7</ele>
        <time>2022-04-22T14:36:30Z</time>
      </trkpt>
      <trkpt lat="50.17733" lon="1.64607">
        <ele>6.7</ele>
        <time>2022-04-22T14:36:31Z</time>
      </trkpt>
      <trkpt lat="50.17735" lon="1.64606">
        <ele>6.7</ele>
        <time>2022-04-22T14:36:32Z</time>
      </trkpt>
      <trkpt lat="50.17736" lon="1.64605">
        <ele>6.7</ele>
        <time>2022-04-22T14:36:34Z</time>
      </trkpt>
      <trkpt lat="50.17737" lon="1.64604">
        <ele>6.7</ele>
        <time>2022-04-22T14:36:35Z</time>
      </trkpt>
      <trkpt lat="50.1774" lon="1.64602">
        <ele>6.7</ele>
        <time>2022-04-22T14:36:36Z</time>
      </trkpt>
      <trkpt lat="50.17741" lon="1.64601">
        <ele>6.7</ele>
        <time>2022-04-22T14:36:37Z</time>
      </trkpt>
      <trkpt lat="50.17744" lon="1.64599">
        <ele>6.7</ele>
        <time>2022-04-22T14:36:38Z</time>
      </trkpt>
      <trkpt lat="50.17745" lon="1.64598">
        <ele>6.7</ele>
        <time>2022-04-22T14:36:39Z</time>
      </trkpt>
      <trkpt lat="50.17749" lon="1.64596">
        <ele>6.7</ele>
        <time>2022-04-22T14:36:40Z</time>
      </trkpt>
      <trkpt lat="50.1775" lon="1.64596">
        <ele>6.7</ele>
        <time>2022-04-22T14:36:41Z</time>
      </trkpt>
      <trkpt lat="50.17751" lon="1.64594">
        <ele>6.7</ele>
        <time>2022-04-22T14:36:42Z</time>
      </trkpt>
      <trkpt lat="50.17752" lon="1.64593">
        <ele>6.6</ele>
        <time>2022-04-22T14:36:43Z</time>
      </trkpt>
      <trkpt lat="50.17754" lon="1.64591">
        <ele>6.6</ele>
        <time>2022-04-22T14:36:45Z</time>
      </trkpt>
      <trkpt lat="50.17755" lon="1.6459">
        <ele>6.6</ele>
        <time>2022-04-22T14:36:46Z</time>
      </trkpt>
      <trkpt lat="50.17757" lon="1.64588">
        <ele>6.6</ele>
        <time>2022-04-22T14:36:47Z</time>
      </trkpt>
      <trkpt lat="50.17757" lon="1.64587">
        <ele>6.6</ele>
        <time>2022-04-22T14:36:48Z</time>
      </trkpt>
      <trkpt lat="50.17758" lon="1.64586">
        <ele>6.6</ele>
        <time>2022-04-22T14:36:49Z</time>
      </trkpt>
      <trkpt lat="50.17758" lon="1.64584">
        <ele>6.6</ele>
        <time>2022-04-22T14:36:50Z</time>
      </trkpt>
      <trkpt lat="50.17757" lon="1.64583">
        <ele>6.6</ele>
        <time>2022-04-22T14:36:51Z</time>
      </trkpt>
      <trkpt lat="50.17756" lon="1.64581">
        <ele>6.6</ele>
        <time>2022-04-22T14:36:53Z</time>
      </trkpt>
      <trkpt lat="50.17756" lon="1.64579">
        <ele>6.6</ele>
        <time>2022-04-22T14:36:54Z</time>
      </trkpt>
      <trkpt lat="50.17755" lon="1.64577">
        <ele>6.6</ele>
        <time>2022-04-22T14:36:55Z</time>
      </trkpt>
      <trkpt lat="50.17754" lon="1.64574">
        <ele>6.5</ele>
        <time>2022-04-22T14:36:56Z</time>
      </trkpt>
      <trkpt lat="50.17753" lon="1.64572">
        <ele>6.5</ele>
        <time>2022-04-22T14:36:58Z</time>
      </trkpt>
      <trkpt lat="50.17752" lon="1.6457">
        <ele>6.5</ele>
        <time>2022-04-22T14:36:59Z</time>
      </trkpt>
      <trkpt lat="50.17751" lon="1.64568">
        <ele>6.5</ele>
        <time>2022-04-22T14:37:00Z</time>
      </trkpt>
      <trkpt lat="50.17751" lon="1.64566">
        <ele>6.5</ele>
        <time>2022-04-22T14:37:01Z</time>
      </trkpt>
      <trkpt lat="50.1775" lon="1.64564">
        <ele>6.5</ele>
        <time>2022-04-22T14:37:02Z</time>
      </trkpt>
      <trkpt lat="50.17751" lon="1.64562">
        <ele>6.5</ele>
        <time>2022-04-22T14:37:03Z</time>
      </trkpt>
      <trkpt lat="50.17754" lon="1.64559">
        <ele>6.5</ele>
        <time>2022-04-22T14:37:04Z</time>
      </trkpt>
      <trkpt lat="50.17754" lon="1.64559">
        <ele>6.5</ele>
        <time>2022-04-22T14:37:06Z</time>
      </trkpt>
      <trkpt lat="50.17755" lon="1.64558">
        <ele>6.5</ele>
        <time>2022-04-22T14:37:07Z</time>
      </trkpt>
      <trkpt lat="50.17757" lon="1.64557">
        <ele>6.4</ele>
        <time>2022-04-22T14:37:08Z</time>
      </trkpt>
      <trkpt lat="50.17759" lon="1.64555">
        <ele>6.4</ele>
        <time>2022-04-22T14:37:09Z</time>
      </trkpt>
      <trkpt lat="50.1776" lon="1.64554">
        <ele>6.4</ele>
        <time>2022-04-22T14:37:10Z</time>
      </trkpt>
      <trkpt lat="50.17761" lon="1.64553">
        <ele>6.4</ele>
        <time>2022-04-22T14:37:11Z</time>
      </trkpt>
      <trkpt lat="50.17762" lon="1.64552">
        <ele>6.4</ele>
        <time>2022-04-22T14:37:12Z</time>
      </trkpt>
      <trkpt lat="50.17763" lon="1.64551">
        <ele>6.4</ele>
        <time>2022-04-22T14:37:13Z</time>
      </trkpt>
      <trkpt lat="50.17765" lon="1.64549">
        <ele>6.4</ele>
        <time>2022-04-22T14:37:14Z</time>
      </trkpt>
      <trkpt lat="50.17767" lon="1.64546">
        <ele>6.3</ele>
        <time>2022-04-22T14:37:16Z</time>
      </trkpt>
      <trkpt lat="50.17768" lon="1.64545">
        <ele>6.3</ele>
        <time>2022-04-22T14:37:17Z</time>
      </trkpt>
      <trkpt lat="50.17769" lon="1.64543">
        <ele>6.3</ele>
        <time>2022-04-22T14:37:18Z</time>
      </trkpt>
      <trkpt lat="50.1777" lon="1.64543">
        <ele>6.3</ele>
        <time>2022-04-22T14:37:19Z</time>
      </trkpt>
      <trkpt lat="50.17771" lon="1.64542">
        <ele>6.3</ele>
        <time>2022-04-22T14:37:20Z</time>
      </trkpt>
      <trkpt lat="50.17772" lon="1.64541">
        <ele>6.3</ele>
        <time>2022-04-22T14:37:21Z</time>
      </trkpt>
      <trkpt lat="50.17773" lon="1.64541">
        <ele>6.3</ele>
        <time>2022-04-22T14:37:22Z</time>
      </trkpt>
      <trkpt lat="50.17774" lon="1.6454">
        <ele>6.3</ele>
        <time>2022-04-22T14:37:23Z</time>
      </trkpt>
      <trkpt lat="50.17776" lon="1.64539">
        <ele>6.3</ele>
        <time>2022-04-22T14:37:25Z</time>
      </trkpt>
      <trkpt lat="50.17777" lon="1.64538">
        <ele>6.3</ele>
        <time>2022-04-22T14:37:26Z</time>
      </trkpt>
      <trkpt lat="50.17778" lon="1.64538">
        <ele>6.3</ele>
        <time>2022-04-22T14:37:27Z</time>
      </trkpt>
      <trkpt lat="50.17779" lon="1.64537">
        <ele>6.2</ele>
        <time>2022-04-22T14:37:28Z</time>
      </trkpt>
      <trkpt lat="50.1778" lon="1.64536">
        <ele>6.2</ele>
        <time>2022-04-22T14:37:29Z</time>
      </trkpt>
      <trkpt lat="50.17782" lon="1.64535">
        <ele>6.2</ele>
        <time>2022-04-22T14:37:30Z</time>
      </trkpt>
      <trkpt lat="50.17783" lon="1.64535">
        <ele>6.2</ele>
        <time>2022-04-22T14:37:31Z</time>
      </trkpt>
      <trkpt lat="50.17783" lon="1.64534">
        <ele>6.2</ele>
        <time>2022-04-22T14:37:32Z</time>
      </trkpt>
      <trkpt lat="50.17784" lon="1.64534">
        <ele>6.2</ele>
        <time>2022-04-22T14:37:33Z</time>
      </trkpt>
      <trkpt lat="50.17786" lon="1.64534">
        <ele>6.2</ele>
        <time>2022-04-22T14:37:34Z</time>
      </trkpt>
      <trkpt lat="50.17786" lon="1.64534">
        <ele>6.2</ele>
        <time>2022-04-22T14:37:35Z</time>
      </trkpt>
      <trkpt lat="50.17788" lon="1.64533">
        <ele>6.2</ele>
        <time>2022-04-22T14:37:36Z</time>
      </trkpt>
      <trkpt lat="50.17789" lon="1.64533">
        <ele>6.2</ele>
        <time>2022-04-22T14:37:38Z</time>
      </trkpt>
      <trkpt lat="50.1779" lon="1.64533">
        <ele>6.2</ele>
        <time>2022-04-22T14:37:39Z</time>
      </trkpt>
      <trkpt lat="50.17792" lon="1.64532">
        <ele>6.2</ele>
        <time>2022-04-22T14:37:40Z</time>
      </trkpt>
      <trkpt lat="50.17793" lon="1.64531">
        <ele>6.2</ele>
        <time>2022-04-22T14:37:41Z</time>
      </trkpt>
      <trkpt lat="50.17795" lon="1.6453">
        <ele>6.1</ele>
        <time>2022-04-22T14:37:42Z</time>
      </trkpt>
      <trkpt lat="50.17796" lon="1.6453">
        <ele>6.1</ele>
        <time>2022-04-22T14:37:44Z</time>
      </trkpt>
      <trkpt lat="50.17797" lon="1.6453">
        <ele>6.1</ele>
        <time>2022-04-22T14:37:45Z</time>
      </trkpt>
      <trkpt lat="50.17798" lon="1.64529">
        <ele>6.1</ele>
        <time>2022-04-22T14:37:46Z</time>
      </trkpt>
      <trkpt lat="50.17798" lon="1.64529">
        <ele>6.1</ele>
        <time>2022-04-22T14:37:47Z</time>
      </trkpt>
      <trkpt lat="50.17799" lon="1.64528">
        <ele>6.1</ele>
        <time>2022-04-22T14:37:48Z</time>
      </trkpt>
      <trkpt lat="50.178" lon="1.64527">
        <ele>6.1</ele>
        <time>2022-04-22T14:37:49Z</time>
      </trkpt>
      <trkpt lat="50.17802" lon="1.64526">
        <ele>6.1</ele>
        <time>2022-04-22T14:37:50Z</time>
      </trkpt>
      <trkpt lat="50.17802" lon="1.64526">
        <ele>6.1</ele>
        <time>2022-04-22T14:37:51Z</time>
      </trkpt>
      <trkpt lat="50.17804" lon="1.64526">
        <ele>6.1</ele>
        <time>2022-04-22T14:37:52Z</time>
      </trkpt>
      <trkpt lat="50.17805" lon="1.64526">
        <ele>6.1</ele>
        <time>2022-04-22T14:37:53Z</time>
      </trkpt>
      <trkpt lat="50.17806" lon="1.64525">
        <ele>6</ele>
        <time>2022-04-22T14:37:54Z</time>
      </trkpt>
      <trkpt lat="50.17808" lon="1.64525">
        <ele>6</ele>
        <time>2022-04-22T14:37:55Z</time>
      </trkpt>
      <trkpt lat="50.17809" lon="1.64524">
        <ele>6</ele>
        <time>2022-04-22T14:37:57Z</time>
      </trkpt>
      <trkpt lat="50.1781" lon="1.64524">
        <ele>6</ele>
        <time>2022-04-22T14:37:58Z</time>
      </trkpt>
      <trkpt lat="50.17811" lon="1.64523">
        <ele>6</ele>
        <time>2022-04-22T14:37:59Z</time>
      </trkpt>
      <trkpt lat="50.17812" lon="1.64523">
        <ele>6</ele>
        <time>2022-04-22T14:38:00Z</time>
      </trkpt>
      <trkpt lat="50.17813" lon="1.64523">
        <ele>6</ele>
        <time>2022-04-22T14:38:01Z</time>
      </trkpt>
      <trkpt lat="50.17814" lon="1.64522">
        <ele>6</ele>
        <time>2022-04-22T14:38:02Z</time>
      </trkpt>
      <trkpt lat="50.17815" lon="1.64521">
        <ele>6</ele>
        <time>2022-04-22T14:38:03Z</time>
      </trkpt>
      <trkpt lat="50.17817" lon="1.64521">
        <ele>6</ele>
        <time>2022-04-22T14:38:04Z</time>
      </trkpt>
      <trkpt lat="50.17819" lon="1.6452">
        <ele>5.9</ele>
        <time>2022-04-22T14:38:05Z</time>
      </trkpt>
      <trkpt lat="50.1782" lon="1.64519">
        <ele>5.9</ele>
        <time>2022-04-22T14:38:06Z</time>
      </trkpt>
      <trkpt lat="50.17821" lon="1.64519">
        <ele>5.9</ele>
        <time>2022-04-22T14:38:07Z</time>
      </trkpt>
      <trkpt lat="50.17823" lon="1.64519">
        <ele>5.9</ele>
        <time>2022-04-22T14:38:09Z</time>
      </trkpt>
      <trkpt lat="50.17825" lon="1.64518">
        <ele>5.9</ele>
        <time>2022-04-22T14:38:10Z</time>
      </trkpt>
      <trkpt lat="50.17826" lon="1.64518">
        <ele>5.9</ele>
        <time>2022-04-22T14:38:11Z</time>
      </trkpt>
      <trkpt lat="50.17826" lon="1.64518">
        <ele>5.9</ele>
        <time>2022-04-22T14:38:12Z</time>
      </trkpt>
      <trkpt lat="50.17828" lon="1.64518">
        <ele>5.9</ele>
        <time>2022-04-22T14:38:13Z</time>
      </trkpt>
      <trkpt lat="50.17829" lon="1.64518">
        <ele>5.9</ele>
        <time>2022-04-22T14:38:14Z</time>
      </trkpt>
      <trkpt lat="50.1783" lon="1.64517">
        <ele>5.9</ele>
        <time>2022-04-22T14:38:15Z</time>
      </trkpt>
      <trkpt lat="50.17832" lon="1.64515">
        <ele>5.9</ele>
        <time>2022-04-22T14:38:16Z</time>
      </trkpt>
      <trkpt lat="50.17833" lon="1.64515">
        <ele>5.9</ele>
        <time>2022-04-22T14:38:17Z</time>
      </trkpt>
      <trkpt lat="50.17833" lon="1.64514">
        <ele>5.8</ele>
        <time>2022-04-22T14:38:18Z</time>
      </trkpt>
      <trkpt lat="50.17835" lon="1.64513">
        <ele>5.8</ele>
        <time>2022-04-22T14:38:20Z</time>
      </trkpt>
      <trkpt lat="50.17836" lon="1.64511">
        <ele>5.8</ele>
        <time>2022-04-22T14:38:21Z</time>
      </trkpt>
      <trkpt lat="50.17837" lon="1.6451">
        <ele>5.8</ele>
        <time>2022-04-22T14:38:22Z</time>
      </trkpt>
      <trkpt lat="50.17838" lon="1.64509">
        <ele>5.8</ele>
        <time>2022-04-22T14:38:23Z</time>
      </trkpt>
      <trkpt lat="50.17839" lon="1.64509">
        <ele>5.8</ele>
        <time>2022-04-22T14:38:24Z</time>
      </trkpt>
      <trkpt lat="50.17842" lon="1.64507">
        <ele>5.8</ele>
        <time>2022-04-22T14:38:25Z</time>
      </trkpt>
      <trkpt lat="50.17842" lon="1.64508">
        <ele>5.8</ele>
        <time>2022-04-22T14:38:26Z</time>
      </trkpt>
      <trkpt lat="50.17842" lon="1.64508">
        <ele>5.8</ele>
        <time>2022-04-22T14:38:27Z</time>
      </trkpt>
      <trkpt lat="50.17843" lon="1.64508">
        <ele>5.8</ele>
        <time>2022-04-22T14:38:28Z</time>
      </trkpt>
      <trkpt lat="50.17844" lon="1.64508">
        <ele>5.8</ele>
        <time>2022-04-22T14:38:29Z</time>
      </trkpt>
      <trkpt lat="50.17845" lon="1.64508">
        <ele>5.8</ele>
        <time>2022-04-22T14:38:31Z</time>
      </trkpt>
      <trkpt lat="50.17846" lon="1.64507">
        <ele>5.8</ele>
        <time>2022-04-22T14:38:32Z</time>
      </trkpt>
      <trkpt lat="50.17847" lon="1.64507">
        <ele>5.8</ele>
        <time>2022-04-22T14:38:33Z</time>
      </trkpt>
      <trkpt lat="50.17848" lon="1.64506">
        <ele>5.8</ele>
        <time>2022-04-22T14:38:34Z</time>
      </trkpt>
      <trkpt lat="50.1785" lon="1.64506">
        <ele>5.7</ele>
        <time>2022-04-22T14:38:35Z</time>
      </trkpt>
      <trkpt lat="50.1785" lon="1.64505">
        <ele>5.7</ele>
        <time>2022-04-22T14:38:36Z</time>
      </trkpt>
      <trkpt lat="50.17851" lon="1.64505">
        <ele>5.7</ele>
        <time>2022-04-22T14:38:37Z</time>
      </trkpt>
      <trkpt lat="50.17853" lon="1.64504">
        <ele>5.7</ele>
        <time>2022-04-22T14:38:38Z</time>
      </trkpt>
      <trkpt lat="50.17855" lon="1.64503">
        <ele>5.7</ele>
        <time>2022-04-22T14:38:40Z</time>
      </trkpt>
      <trkpt lat="50.17855" lon="1.64502">
        <ele>5.7</ele>
        <time>2022-04-22T14:38:41Z</time>
      </trkpt>
      <trkpt lat="50.17856" lon="1.64502">
        <ele>5.7</ele>
        <time>2022-04-22T14:38:42Z</time>
      </trkpt>
      <trkpt lat="50.17858" lon="1.64501">
        <ele>5.7</ele>
        <time>2022-04-22T14:38:43Z</time>
      </trkpt>
      <trkpt lat="50.17859" lon="1.645">
        <ele>5.7</ele>
        <time>2022-04-22T14:38:44Z</time>
      </trkpt>
      <trkpt lat="50.1786" lon="1.64499">
        <ele>5.7</ele>
        <time>2022-04-22T14:38:45Z</time>
      </trkpt>
      <trkpt lat="50.17861" lon="1.64498">
        <ele>5.7</ele>
        <time>2022-04-22T14:38:47Z</time>
      </trkpt>
      <trkpt lat="50.17862" lon="1.64497">
        <ele>5.7</ele>
        <time>2022-04-22T14:38:48Z</time>
      </trkpt>
      <trkpt lat="50.17864" lon="1.64494">
        <ele>5.7</ele>
        <time>2022-04-22T14:38:49Z</time>
      </trkpt>
      <trkpt lat="50.17865" lon="1.64492">
        <ele>5.7</ele>
        <time>2022-04-22T14:38:50Z</time>
      </trkpt>
      <trkpt lat="50.17866" lon="1.64492">
        <ele>5.7</ele>
        <time>2022-04-22T14:38:51Z</time>
      </trkpt>
      <trkpt lat="50.17867" lon="1.64491">
        <ele>5.7</ele>
        <time>2022-04-22T14:38:52Z</time>
      </trkpt>
      <trkpt lat="50.17868" lon="1.6449">
        <ele>5.7</ele>
        <time>2022-04-22T14:38:53Z</time>
      </trkpt>
      <trkpt lat="50.17869" lon="1.64487">
        <ele>5.7</ele>
        <time>2022-04-22T14:38:54Z</time>
      </trkpt>
      <trkpt lat="50.1787" lon="1.64485">
        <ele>5.7</ele>
        <time>2022-04-22T14:38:55Z</time>
      </trkpt>
      <trkpt lat="50.1787" lon="1.64484">
        <ele>5.7</ele>
        <time>2022-04-22T14:38:56Z</time>
      </trkpt>
      <trkpt lat="50.17871" lon="1.64483">
        <ele>5.7</ele>
        <time>2022-04-22T14:38:58Z</time>
      </trkpt>
      <trkpt lat="50.17873" lon="1.64482">
        <ele>5.7</ele>
        <time>2022-04-22T14:38:59Z</time>
      </trkpt>
      <trkpt lat="50.17875" lon="1.64481">
        <ele>5.7</ele>
        <time>2022-04-22T14:39:00Z</time>
      </trkpt>
      <trkpt lat="50.17875" lon="1.64484">
        <ele>5.7</ele>
        <time>2022-04-22T14:39:01Z</time>
      </trkpt>
      <trkpt lat="50.17877" lon="1.64487">
        <ele>5.6</ele>
        <time>2022-04-22T14:39:02Z</time>
      </trkpt>
      <trkpt lat="50.17877" lon="1.64488">
        <ele>5.6</ele>
        <time>2022-04-22T14:39:03Z</time>
      </trkpt>
      <trkpt lat="50.17878" lon="1.64489">
        <ele>5.6</ele>
        <time>2022-04-22T14:39:04Z</time>
      </trkpt>
      <trkpt lat="50.17879" lon="1.6449">
        <ele>5.6</ele>
        <time>2022-04-22T14:39:05Z</time>
      </trkpt>
      <trkpt lat="50.17879" lon="1.6449">
        <ele>5.6</ele>
        <time>2022-04-22T14:39:06Z</time>
      </trkpt>
      <trkpt lat="50.1788" lon="1.64488">
        <ele>5.6</ele>
        <time>2022-04-22T14:39:07Z</time>
      </trkpt>
      <trkpt lat="50.17881" lon="1.64487">
        <ele>5.6</ele>
        <time>2022-04-22T14:39:08Z</time>
      </trkpt>
      <trkpt lat="50.17882" lon="1.64485">
        <ele>5.6</ele>
        <time>2022-04-22T14:39:10Z</time>
      </trkpt>
      <trkpt lat="50.17883" lon="1.64483">
        <ele>5.6</ele>
        <time>2022-04-22T14:39:11Z</time>
      </trkpt>
      <trkpt lat="50.17885" lon="1.64482">
        <ele>5.6</ele>
        <time>2022-04-22T14:39:12Z</time>
      </trkpt>
      <trkpt lat="50.17886" lon="1.64482">
        <ele>5.6</ele>
        <time>2022-04-22T14:39:13Z</time>
      </trkpt>
      <trkpt lat="50.17887" lon="1.64482">
        <ele>5.6</ele>
        <time>2022-04-22T14:39:14Z</time>
      </trkpt>
      <trkpt lat="50.17889" lon="1.64481">
        <ele>5.6</ele>
        <time>2022-04-22T14:39:15Z</time>
      </trkpt>
      <trkpt lat="50.1789" lon="1.64481">
        <ele>5.6</ele>
        <time>2022-04-22T14:39:16Z</time>
      </trkpt>
      <trkpt lat="50.1789" lon="1.64481">
        <ele>5.6</ele>
        <time>2022-04-22T14:39:17Z</time>
      </trkpt>
      <trkpt lat="50.17891" lon="1.6448">
        <ele>5.6</ele>
        <time>2022-04-22T14:39:18Z</time>
      </trkpt>
      <trkpt lat="50.17893" lon="1.64479">
        <ele>5.6</ele>
        <time>2022-04-22T14:39:19Z</time>
      </trkpt>
      <trkpt lat="50.17894" lon="1.64478">
        <ele>5.6</ele>
        <time>2022-04-22T14:39:21Z</time>
      </trkpt>
      <trkpt lat="50.17896" lon="1.64476">
        <ele>5.5</ele>
        <time>2022-04-22T14:39:22Z</time>
      </trkpt>
      <trkpt lat="50.17896" lon="1.64475">
        <ele>5.5</ele>
        <time>2022-04-22T14:39:23Z</time>
      </trkpt>
      <trkpt lat="50.17897" lon="1.64474">
        <ele>5.5</ele>
        <time>2022-04-22T14:39:24Z</time>
      </trkpt>
      <trkpt lat="50.17897" lon="1.64471">
        <ele>5.4</ele>
        <time>2022-04-22T14:39:25Z</time>
      </trkpt>
      <trkpt lat="50.17897" lon="1.64469">
        <ele>5.4</ele>
        <time>2022-04-22T14:39:26Z</time>
      </trkpt>
      <trkpt lat="50.17898" lon="1.64467">
        <ele>5.4</ele>
        <time>2022-04-22T14:39:27Z</time>
      </trkpt>
      <trkpt lat="50.17898" lon="1.64465">
        <ele>5.4</ele>
        <time>2022-04-22T14:39:29Z</time>
      </trkpt>
      <trkpt lat="50.17899" lon="1.64462">
        <ele>5.4</ele>
        <time>2022-04-22T14:39:30Z</time>
      </trkpt>
      <trkpt lat="50.179" lon="1.6446">
        <ele>5.4</ele>
        <time>2022-04-22T14:39:32Z</time>
      </trkpt>
      <trkpt lat="50.179" lon="1.64459">
        <ele>5.4</ele>
        <time>2022-04-22T14:39:33Z</time>
      </trkpt>
      <trkpt lat="50.179" lon="1.64457">
        <ele>5.4</ele>
        <time>2022-04-22T14:39:34Z</time>
      </trkpt>
      <trkpt lat="50.17899" lon="1.64455">
        <ele>5.4</ele>
        <time>2022-04-22T14:39:35Z</time>
      </trkpt>
      <trkpt lat="50.17899" lon="1.64454">
        <ele>5.3</ele>
        <time>2022-04-22T14:39:37Z</time>
      </trkpt>
      <trkpt lat="50.17898" lon="1.64452">
        <ele>5.3</ele>
        <time>2022-04-22T14:39:38Z</time>
      </trkpt>
      <trkpt lat="50.17897" lon="1.64451">
        <ele>5.3</ele>
        <time>2022-04-22T14:39:39Z</time>
      </trkpt>
      <trkpt lat="50.17896" lon="1.6445">
        <ele>5.3</ele>
        <time>2022-04-22T14:39:41Z</time>
      </trkpt>
      <trkpt lat="50.17895" lon="1.64449">
        <ele>5.3</ele>
        <time>2022-04-22T14:39:42Z</time>
      </trkpt>
      <trkpt lat="50.17894" lon="1.64449">
        <ele>5.3</ele>
        <time>2022-04-22T14:39:43Z</time>
      </trkpt>
      <trkpt lat="50.17893" lon="1.64448">
        <ele>5.3</ele>
        <time>2022-04-22T14:39:44Z</time>
      </trkpt>
      <trkpt lat="50.17893" lon="1.64446">
        <ele>5.3</ele>
        <time>2022-04-22T14:39:45Z</time>
      </trkpt>
      <trkpt lat="50.17893" lon="1.64445">
        <ele>5.3</ele>
        <time>2022-04-22T14:39:46Z</time>
      </trkpt>
      <trkpt lat="50.17893" lon="1.64443">
        <ele>5.3</ele>
        <time>2022-04-22T14:39:47Z</time>
      </trkpt>
      <trkpt lat="50.17894" lon="1.64441">
        <ele>5.3</ele>
        <time>2022-04-22T14:39:48Z</time>
      </trkpt>
      <trkpt lat="50.17894" lon="1.64439">
        <ele>5.3</ele>
        <time>2022-04-22T14:39:50Z</time>
      </trkpt>
      <trkpt lat="50.17894" lon="1.64437">
        <ele>5.2</ele>
        <time>2022-04-22T14:39:51Z</time>
      </trkpt>
      <trkpt lat="50.17894" lon="1.64434">
        <ele>5.2</ele>
        <time>2022-04-22T14:39:52Z</time>
      </trkpt>
      <trkpt lat="50.17894" lon="1.64433">
        <ele>5.3</ele>
        <time>2022-04-22T14:39:53Z</time>
      </trkpt>
      <trkpt lat="50.17893" lon="1.64431">
        <ele>5.3</ele>
        <time>2022-04-22T14:39:54Z</time>
      </trkpt>
      <trkpt lat="50.17894" lon="1.64429">
        <ele>5.3</ele>
        <time>2022-04-22T14:39:55Z</time>
      </trkpt>
      <trkpt lat="50.17894" lon="1.64428">
        <ele>5.3</ele>
        <time>2022-04-22T14:39:56Z</time>
      </trkpt>
      <trkpt lat="50.17894" lon="1.64426">
        <ele>5.3</ele>
        <time>2022-04-22T14:39:58Z</time>
      </trkpt>
      <trkpt lat="50.17895" lon="1.64424">
        <ele>5.4</ele>
        <time>2022-04-22T14:39:59Z</time>
      </trkpt>
      <trkpt lat="50.17896" lon="1.64421">
        <ele>5.4</ele>
        <time>2022-04-22T14:40:01Z</time>
      </trkpt>
      <trkpt lat="50.17897" lon="1.64421">
        <ele>5.4</ele>
        <time>2022-04-22T14:40:02Z</time>
      </trkpt>
      <trkpt lat="50.17898" lon="1.6442">
        <ele>5.5</ele>
        <time>2022-04-22T14:40:03Z</time>
      </trkpt>
      <trkpt lat="50.17899" lon="1.6442">
        <ele>5.5</ele>
        <time>2022-04-22T14:40:04Z</time>
      </trkpt>
      <trkpt lat="50.17902" lon="1.6442">
        <ele>5.5</ele>
        <time>2022-04-22T14:40:05Z</time>
      </trkpt>
      <trkpt lat="50.17903" lon="1.6442">
        <ele>5.6</ele>
        <time>2022-04-22T14:40:06Z</time>
      </trkpt>
      <trkpt lat="50.17904" lon="1.6442">
        <ele>5.6</ele>
        <time>2022-04-22T14:40:08Z</time>
      </trkpt>
      <trkpt lat="50.17905" lon="1.64419">
        <ele>5.6</ele>
        <time>2022-04-22T14:40:09Z</time>
      </trkpt>
      <trkpt lat="50.17906" lon="1.64419">
        <ele>5.6</ele>
        <time>2022-04-22T14:40:10Z</time>
      </trkpt>
      <trkpt lat="50.17908" lon="1.64417">
        <ele>5.7</ele>
        <time>2022-04-22T14:40:11Z</time>
      </trkpt>
      <trkpt lat="50.17909" lon="1.64417">
        <ele>5.7</ele>
        <time>2022-04-22T14:40:12Z</time>
      </trkpt>
      <trkpt lat="50.17909" lon="1.64417">
        <ele>5.7</ele>
        <time>2022-04-22T14:40:13Z</time>
      </trkpt>
      <trkpt lat="50.1791" lon="1.64417">
        <ele>5.7</ele>
        <time>2022-04-22T14:40:14Z</time>
      </trkpt>
      <trkpt lat="50.17912" lon="1.64417">
        <ele>5.7</ele>
        <time>2022-04-22T14:40:15Z</time>
      </trkpt>
      <trkpt lat="50.17913" lon="1.64415">
        <ele>5.7</ele>
        <time>2022-04-22T14:40:17Z</time>
      </trkpt>
      <trkpt lat="50.17914" lon="1.64414">
        <ele>5.7</ele>
        <time>2022-04-22T14:40:18Z</time>
      </trkpt>
      <trkpt lat="50.17914" lon="1.64413">
        <ele>5.7</ele>
        <time>2022-04-22T14:40:19Z</time>
      </trkpt>
      <trkpt lat="50.17915" lon="1.64412">
        <ele>5.7</ele>
        <time>2022-04-22T14:40:20Z</time>
      </trkpt>
      <trkpt lat="50.17916" lon="1.64412">
        <ele>5.7</ele>
        <time>2022-04-22T14:40:21Z</time>
      </trkpt>
      <trkpt lat="50.17916" lon="1.64413">
        <ele>5.7</ele>
        <time>2022-04-22T14:40:23Z</time>
      </trkpt>
      <trkpt lat="50.17918" lon="1.64413">
        <ele>5.7</ele>
        <time>2022-04-22T14:40:25Z</time>
      </trkpt>
      <trkpt lat="50.17918" lon="1.64412">
        <ele>5.7</ele>
        <time>2022-04-22T14:40:26Z</time>
      </trkpt>
      <trkpt lat="50.17918" lon="1.64411">
        <ele>5.7</ele>
        <time>2022-04-22T14:40:27Z</time>
      </trkpt>
      <trkpt lat="50.17918" lon="1.64411">
        <ele>5.7</ele>
        <time>2022-04-22T14:40:29Z</time>
      </trkpt>
      <trkpt lat="50.17918" lon="1.6441">
        <ele>5.7</ele>
        <time>2022-04-22T14:40:30Z</time>
      </trkpt>
      <trkpt lat="50.17918" lon="1.64408">
        <ele>5.7</ele>
        <time>2022-04-22T14:40:31Z</time>
      </trkpt>
      <trkpt lat="50.17918" lon="1.64406">
        <ele>5.7</ele>
        <time>2022-04-22T14:40:32Z</time>
      </trkpt>
      <trkpt lat="50.17918" lon="1.64402">
        <ele>5.7</ele>
        <time>2022-04-22T14:40:34Z</time>
      </trkpt>
      <trkpt lat="50.17919" lon="1.64399">
        <ele>5.7</ele>
        <time>2022-04-22T14:40:35Z</time>
      </trkpt>
      <trkpt lat="50.17919" lon="1.64398">
        <ele>5.7</ele>
        <time>2022-04-22T14:40:36Z</time>
      </trkpt>
      <trkpt lat="50.17919" lon="1.64396">
        <ele>5.7</ele>
        <time>2022-04-22T14:40:37Z</time>
      </trkpt>
      <trkpt lat="50.17919" lon="1.64394">
        <ele>5.7</ele>
        <time>2022-04-22T14:40:38Z</time>
      </trkpt>
      <trkpt lat="50.17919" lon="1.64392">
        <ele>5.7</ele>
        <time>2022-04-22T14:40:39Z</time>
      </trkpt>
      <trkpt lat="50.1792" lon="1.64391">
        <ele>5.7</ele>
        <time>2022-04-22T14:40:40Z</time>
      </trkpt>
      <trkpt lat="50.17919" lon="1.64388">
        <ele>5.7</ele>
        <time>2022-04-22T14:40:41Z</time>
      </trkpt>
      <trkpt lat="50.17919" lon="1.64386">
        <ele>5.7</ele>
        <time>2022-04-22T14:40:42Z</time>
      </trkpt>
      <trkpt lat="50.17919" lon="1.64385">
        <ele>5.7</ele>
        <time>2022-04-22T14:40:43Z</time>
      </trkpt>
      <trkpt lat="50.17919" lon="1.64384">
        <ele>5.7</ele>
        <time>2022-04-22T14:40:44Z</time>
      </trkpt>
      <trkpt lat="50.1792" lon="1.64383">
        <ele>5.7</ele>
        <time>2022-04-22T14:40:45Z</time>
      </trkpt>
      <trkpt lat="50.1792" lon="1.64383">
        <ele>5.7</ele>
        <time>2022-04-22T14:40:46Z</time>
      </trkpt>
      <trkpt lat="50.17921" lon="1.64382">
        <ele>5.7</ele>
        <time>2022-04-22T14:40:47Z</time>
      </trkpt>
      <trkpt lat="50.17922" lon="1.64382">
        <ele>5.7</ele>
        <time>2022-04-22T14:40:48Z</time>
      </trkpt>
      <trkpt lat="50.17922" lon="1.64381">
        <ele>5.7</ele>
        <time>2022-04-22T14:40:50Z</time>
      </trkpt>
      <trkpt lat="50.17924" lon="1.64381">
        <ele>5.7</ele>
        <time>2022-04-22T14:40:51Z</time>
      </trkpt>
      <trkpt lat="50.17925" lon="1.64381">
        <ele>5.7</ele>
        <time>2022-04-22T14:40:52Z</time>
      </trkpt>
      <trkpt lat="50.17926" lon="1.64379">
        <ele>5.7</ele>
        <time>2022-04-22T14:40:53Z</time>
      </trkpt>
      <trkpt lat="50.17927" lon="1.64378">
        <ele>5.7</ele>
        <time>2022-04-22T14:40:54Z</time>
      </trkpt>
      <trkpt lat="50.17927" lon="1.64377">
        <ele>5.7</ele>
        <time>2022-04-22T14:40:55Z</time>
      </trkpt>
      <trkpt lat="50.17928" lon="1.64376">
        <ele>5.7</ele>
        <time>2022-04-22T14:40:56Z</time>
      </trkpt>
      <trkpt lat="50.17929" lon="1.64376">
        <ele>5.7</ele>
        <time>2022-04-22T14:40:58Z</time>
      </trkpt>
      <trkpt lat="50.1793" lon="1.64375">
        <ele>5.7</ele>
        <time>2022-04-22T14:40:59Z</time>
      </trkpt>
      <trkpt lat="50.1793" lon="1.64375">
        <ele>5.7</ele>
        <time>2022-04-22T14:41:00Z</time>
      </trkpt>
      <trkpt lat="50.17931" lon="1.64377">
        <ele>5.7</ele>
        <time>2022-04-22T14:41:01Z</time>
      </trkpt>
      <trkpt lat="50.17932" lon="1.64377">
        <ele>5.7</ele>
        <time>2022-04-22T14:41:02Z</time>
      </trkpt>
      <trkpt lat="50.17933" lon="1.64377">
        <ele>5.7</ele>
        <time>2022-04-22T14:41:03Z</time>
      </trkpt>
      <trkpt lat="50.17934" lon="1.64377">
        <ele>5.7</ele>
        <time>2022-04-22T14:41:04Z</time>
      </trkpt>
      <trkpt lat="50.17936" lon="1.64377">
        <ele>5.7</ele>
        <time>2022-04-22T14:41:05Z</time>
      </trkpt>
      <trkpt lat="50.17938" lon="1.64377">
        <ele>5.7</ele>
        <time>2022-04-22T14:41:07Z</time>
      </trkpt>
      <trkpt lat="50.17939" lon="1.64377">
        <ele>5.7</ele>
        <time>2022-04-22T14:41:08Z</time>
      </trkpt>
      <trkpt lat="50.17941" lon="1.64377">
        <ele>5.6</ele>
        <time>2022-04-22T14:41:09Z</time>
      </trkpt>
      <trkpt lat="50.17942" lon="1.64377">
        <ele>5.6</ele>
        <time>2022-04-22T14:41:10Z</time>
      </trkpt>
      <trkpt lat="50.17944" lon="1.64377">
        <ele>5.6</ele>
        <time>2022-04-22T14:41:11Z</time>
      </trkpt>
      <trkpt lat="50.17945" lon="1.64378">
        <ele>5.6</ele>
        <time>2022-04-22T14:41:12Z</time>
      </trkpt>
      <trkpt lat="50.17947" lon="1.64379">
        <ele>5.6</ele>
        <time>2022-04-22T14:41:13Z</time>
      </trkpt>
      <trkpt lat="50.17949" lon="1.64381">
        <ele>5.6</ele>
        <time>2022-04-22T14:41:15Z</time>
      </trkpt>
      <trkpt lat="50.1795" lon="1.64382">
        <ele>5.6</ele>
        <time>2022-04-22T14:41:16Z</time>
      </trkpt>
      <trkpt lat="50.17952" lon="1.64383">
        <ele>5.6</ele>
        <time>2022-04-22T14:41:17Z</time>
      </trkpt>
      <trkpt lat="50.17954" lon="1.64384">
        <ele>5.5</ele>
        <time>2022-04-22T14:41:18Z</time>
      </trkpt>
      <trkpt lat="50.17954" lon="1.64384">
        <ele>5.5</ele>
        <time>2022-04-22T14:41:20Z</time>
      </trkpt>
      <trkpt lat="50.17955" lon="1.64384">
        <ele>5.5</ele>
        <time>2022-04-22T14:41:21Z</time>
      </trkpt>
      <trkpt lat="50.17957" lon="1.64384">
        <ele>5.5</ele>
        <time>2022-04-22T14:41:22Z</time>
      </trkpt>
      <trkpt lat="50.17958" lon="1.64383">
        <ele>5.5</ele>
        <time>2022-04-22T14:41:23Z</time>
      </trkpt>
      <trkpt lat="50.17961" lon="1.64383">
        <ele>5.5</ele>
        <time>2022-04-22T14:41:24Z</time>
      </trkpt>
      <trkpt lat="50.17962" lon="1.64383">
        <ele>5.5</ele>
        <time>2022-04-22T14:41:25Z</time>
      </trkpt>
      <trkpt lat="50.17963" lon="1.64383">
        <ele>5.5</ele>
        <time>2022-04-22T14:41:26Z</time>
      </trkpt>
      <trkpt lat="50.17963" lon="1.64384">
        <ele>5.5</ele>
        <time>2022-04-22T14:41:28Z</time>
      </trkpt>
      <trkpt lat="50.17964" lon="1.64384">
        <ele>5.5</ele>
        <time>2022-04-22T14:41:29Z</time>
      </trkpt>
      <trkpt lat="50.17965" lon="1.64386">
        <ele>5.5</ele>
        <time>2022-04-22T14:41:30Z</time>
      </trkpt>
      <trkpt lat="50.17966" lon="1.64387">
        <ele>5.5</ele>
        <time>2022-04-22T14:41:31Z</time>
      </trkpt>
      <trkpt lat="50.17967" lon="1.64389">
        <ele>5.5</ele>
        <time>2022-04-22T14:41:32Z</time>
      </trkpt>
      <trkpt lat="50.17966" lon="1.64391">
        <ele>5.5</ele>
        <time>2022-04-22T14:41:33Z</time>
      </trkpt>
      <trkpt lat="50.17967" lon="1.64393">
        <ele>5.5</ele>
        <time>2022-04-22T14:41:35Z</time>
      </trkpt>
      <trkpt lat="50.17967" lon="1.64394">
        <ele>5.5</ele>
        <time>2022-04-22T14:41:36Z</time>
      </trkpt>
      <trkpt lat="50.17968" lon="1.64395">
        <ele>5.5</ele>
        <time>2022-04-22T14:41:37Z</time>
      </trkpt>
      <trkpt lat="50.17968" lon="1.64395">
        <ele>5.5</ele>
        <time>2022-04-22T14:41:38Z</time>
      </trkpt>
      <trkpt lat="50.17968" lon="1.64395">
        <ele>5.5</ele>
        <time>2022-04-22T14:41:39Z</time>
      </trkpt>
      <trkpt lat="50.17967" lon="1.64395">
        <ele>5.5</ele>
        <time>2022-04-22T14:41:40Z</time>
      </trkpt>
      <trkpt lat="50.17967" lon="1.64395">
        <ele>5.5</ele>
        <time>2022-04-22T14:41:41Z</time>
      </trkpt>
      <trkpt lat="50.17967" lon="1.64395">
        <ele>5.5</ele>
        <time>2022-04-22T14:41:42Z</time>
      </trkpt>
      <trkpt lat="50.17967" lon="1.64395">
        <ele>5.5</ele>
        <time>2022-04-22T14:41:43Z</time>
      </trkpt>
      <trkpt lat="50.17967" lon="1.64396">
        <ele>5.5</ele>
        <time>2022-04-22T14:41:44Z</time>
      </trkpt>
      <trkpt lat="50.17967" lon="1.64397">
        <ele>5.5</ele>
        <time>2022-04-22T14:41:46Z</time>
      </trkpt>
      <trkpt lat="50.17967" lon="1.644">
        <ele>5.5</ele>
        <time>2022-04-22T14:41:47Z</time>
      </trkpt>
      <trkpt lat="50.17967" lon="1.64401">
        <ele>5.4</ele>
        <time>2022-04-22T14:41:48Z</time>
      </trkpt>
      <trkpt lat="50.17967" lon="1.64403">
        <ele>5.4</ele>
        <time>2022-04-22T14:41:49Z</time>
      </trkpt>
      <trkpt lat="50.17968" lon="1.64405">
        <ele>5.4</ele>
        <time>2022-04-22T14:41:50Z</time>
      </trkpt>
      <trkpt lat="50.17969" lon="1.64408">
        <ele>5.4</ele>
        <time>2022-04-22T14:41:52Z</time>
      </trkpt>
      <trkpt lat="50.17969" lon="1.64409">
        <ele>5.4</ele>
        <time>2022-04-22T14:41:53Z</time>
      </trkpt>
      <trkpt lat="50.17969" lon="1.64411">
        <ele>5.4</ele>
        <time>2022-04-22T14:41:54Z</time>
      </trkpt>
      <trkpt lat="50.1797" lon="1.64411">
        <ele>5.4</ele>
        <time>2022-04-22T14:41:55Z</time>
      </trkpt>
      <trkpt lat="50.1797" lon="1.64411">
        <ele>5.4</ele>
        <time>2022-04-22T14:41:56Z</time>
      </trkpt>
      <trkpt lat="50.17971" lon="1.6441">
        <ele>5.4</ele>
        <time>2022-04-22T14:41:57Z</time>
      </trkpt>
      <trkpt lat="50.17972" lon="1.64408">
        <ele>5.4</ele>
        <time>2022-04-22T14:41:58Z</time>
      </trkpt>
      <trkpt lat="50.17973" lon="1.64404">
        <ele>5.4</ele>
        <time>2022-04-22T14:42:00Z</time>
      </trkpt>
      <trkpt lat="50.17973" lon="1.64403">
        <ele>5.4</ele>
        <time>2022-04-22T14:42:01Z</time>
      </trkpt>
      <trkpt lat="50.17974" lon="1.64401">
        <ele>5.4</ele>
        <time>2022-04-22T14:42:02Z</time>
      </trkpt>
      <trkpt lat="50.17974" lon="1.644">
        <ele>5.4</ele>
        <time>2022-04-22T14:42:03Z</time>
      </trkpt>
      <trkpt lat="50.17974" lon="1.64398">
        <ele>5.4</ele>
        <time>2022-04-22T14:42:04Z</time>
      </trkpt>
      <trkpt lat="50.17974" lon="1.64396">
        <ele>5.4</ele>
        <time>2022-04-22T14:42:06Z</time>
      </trkpt>
      <trkpt lat="50.17975" lon="1.64392">
        <ele>5.4</ele>
        <time>2022-04-22T14:42:07Z</time>
      </trkpt>
      <trkpt lat="50.17976" lon="1.64391">
        <ele>5.4</ele>
        <time>2022-04-22T14:42:09Z</time>
      </trkpt>
      <trkpt lat="50.17977" lon="1.6439">
        <ele>5.4</ele>
        <time>2022-04-22T14:42:10Z</time>
      </trkpt>
      <trkpt lat="50.17978" lon="1.6439">
        <ele>5.4</ele>
        <time>2022-04-22T14:42:11Z</time>
      </trkpt>
      <trkpt lat="50.17979" lon="1.64389">
        <ele>5.4</ele>
        <time>2022-04-22T14:42:12Z</time>
      </trkpt>
      <trkpt lat="50.1798" lon="1.64389">
        <ele>5.4</ele>
        <time>2022-04-22T14:42:13Z</time>
      </trkpt>
      <trkpt lat="50.1798" lon="1.64389">
        <ele>5.4</ele>
        <time>2022-04-22T14:42:14Z</time>
      </trkpt>
      <trkpt lat="50.17981" lon="1.64389">
        <ele>5.4</ele>
        <time>2022-04-22T14:42:15Z</time>
      </trkpt>
      <trkpt lat="50.17981" lon="1.64388">
        <ele>5.4</ele>
        <time>2022-04-22T14:42:16Z</time>
      </trkpt>
      <trkpt lat="50.17981" lon="1.64388">
        <ele>5.4</ele>
        <time>2022-04-22T14:42:17Z</time>
      </trkpt>
      <trkpt lat="50.1798" lon="1.64388">
        <ele>5.4</ele>
        <time>2022-04-22T14:42:18Z</time>
      </trkpt>
      <trkpt lat="50.17979" lon="1.64389">
        <ele>5.4</ele>
        <time>2022-04-22T14:42:19Z</time>
      </trkpt>
      <trkpt lat="50.17978" lon="1.64389">
        <ele>5.4</ele>
        <time>2022-04-22T14:42:20Z</time>
      </trkpt>
      <trkpt lat="50.17978" lon="1.64389">
        <ele>5.4</ele>
        <time>2022-04-22T14:42:21Z</time>
      </trkpt>
      <trkpt lat="50.17978" lon="1.64389">
        <ele>5.4</ele>
        <time>2022-04-22T14:42:22Z</time>
      </trkpt>
      <trkpt lat="50.17978" lon="1.64389">
        <ele>5.4</ele>
        <time>2022-04-22T14:42:23Z</time>
      </trkpt>
      <trkpt lat="50.17978" lon="1.64389">
        <ele>5.4</ele>
        <time>2022-04-22T14:42:24Z</time>
      </trkpt>
      <trkpt lat="50.17978" lon="1.64389">
        <ele>5.4</ele>
        <time>2022-04-22T14:42:25Z</time>
      </trkpt>
      <trkpt lat="50.17978" lon="1.64389">
        <ele>5.4</ele>
        <time>2022-04-22T14:42:26Z</time>
      </trkpt>
      <trkpt lat="50.17978" lon="1.64389">
        <ele>5.4</ele>
        <time>2022-04-22T14:42:27Z</time>
      </trkpt>
      <trkpt lat="50.17978" lon="1.64389">
        <ele>5.4</ele>
        <time>2022-04-22T14:42:28Z</time>
      </trkpt>
      <trkpt lat="50.17978" lon="1.64389">
        <ele>5.4</ele>
        <time>2022-04-22T14:42:29Z</time>
      </trkpt>
      <trkpt lat="50.17978" lon="1.64389">
        <ele>5.4</ele>
        <time>2022-04-22T14:42:30Z</time>
      </trkpt>
      <trkpt lat="50.17978" lon="1.64389">
        <ele>5.4</ele>
        <time>2022-04-22T14:42:31Z</time>
      </trkpt>
      <trkpt lat="50.17978" lon="1.64389">
        <ele>5.4</ele>
        <time>2022-04-22T14:42:32Z</time>
      </trkpt>
      <trkpt lat="50.17978" lon="1.64389">
        <ele>5.4</ele>
        <time>2022-04-22T14:42:33Z</time>
      </trkpt>
      <trkpt lat="50.17976" lon="1.64391">
        <ele>5.4</ele>
        <time>2022-04-22T14:42:34Z</time>
      </trkpt>
      <trkpt lat="50.17976" lon="1.64391">
        <ele>5.4</ele>
        <time>2022-04-22T14:42:35Z</time>
      </trkpt>
      <trkpt lat="50.17976" lon="1.64391">
        <ele>5.4</ele>
        <time>2022-04-22T14:42:36Z</time>
      </trkpt>
      <trkpt lat="50.17976" lon="1.6439">
        <ele>5.4</ele>
        <time>2022-04-22T14:42:37Z</time>
      </trkpt>
      <trkpt lat="50.17977" lon="1.64389">
        <ele>5.4</ele>
        <time>2022-04-22T14:42:38Z</time>
      </trkpt>
      <trkpt lat="50.17977" lon="1.64389">
        <ele>5.4</ele>
        <time>2022-04-22T14:42:39Z</time>
      </trkpt>
      <trkpt lat="50.17977" lon="1.64388">
        <ele>5.4</ele>
        <time>2022-04-22T14:42:40Z</time>
      </trkpt>
      <trkpt lat="50.17977" lon="1.64388">
        <ele>5.4</ele>
        <time>2022-04-22T14:42:41Z</time>
      </trkpt>
      <trkpt lat="50.17977" lon="1.64387">
        <ele>5.4</ele>
        <time>2022-04-22T14:42:42Z</time>
      </trkpt>
      <trkpt lat="50.17977" lon="1.64387">
        <ele>5.4</ele>
        <time>2022-04-22T14:42:43Z</time>
      </trkpt>
      <trkpt lat="50.17977" lon="1.64386">
        <ele>5.4</ele>
        <time>2022-04-22T14:42:44Z</time>
      </trkpt>
      <trkpt lat="50.17978" lon="1.64386">
        <ele>5.4</ele>
        <time>2022-04-22T14:42:45Z</time>
      </trkpt>
      <trkpt lat="50.17977" lon="1.64382">
        <ele>5.4</ele>
        <time>2022-04-22T14:42:47Z</time>
      </trkpt>
      <trkpt lat="50.17976" lon="1.64381">
        <ele>5.4</ele>
        <time>2022-04-22T14:42:48Z</time>
      </trkpt>
      <trkpt lat="50.17975" lon="1.64379">
        <ele>5.4</ele>
        <time>2022-04-22T14:42:49Z</time>
      </trkpt>
      <trkpt lat="50.17975" lon="1.64377">
        <ele>5.4</ele>
        <time>2022-04-22T14:42:50Z</time>
      </trkpt>
      <trkpt lat="50.17974" lon="1.64375">
        <ele>5.4</ele>
        <time>2022-04-22T14:42:51Z</time>
      </trkpt>
      <trkpt lat="50.17974" lon="1.64373">
        <ele>5.4</ele>
        <time>2022-04-22T14:42:52Z</time>
      </trkpt>
      <trkpt lat="50.17973" lon="1.64371">
        <ele>5.4</ele>
        <time>2022-04-22T14:42:53Z</time>
      </trkpt>
      <trkpt lat="50.17973" lon="1.6437">
        <ele>5.4</ele>
        <time>2022-04-22T14:42:54Z</time>
      </trkpt>
      <trkpt lat="50.17971" lon="1.64369">
        <ele>5.4</ele>
        <time>2022-04-22T14:42:56Z</time>
      </trkpt>
      <trkpt lat="50.1797" lon="1.64368">
        <ele>5.4</ele>
        <time>2022-04-22T14:42:57Z</time>
      </trkpt>
      <trkpt lat="50.17969" lon="1.64368">
        <ele>5.4</ele>
        <time>2022-04-22T14:42:58Z</time>
      </trkpt>
      <trkpt lat="50.17968" lon="1.64368">
        <ele>5.4</ele>
        <time>2022-04-22T14:42:59Z</time>
      </trkpt>
      <trkpt lat="50.17967" lon="1.64369">
        <ele>5.4</ele>
        <time>2022-04-22T14:43:00Z</time>
      </trkpt>
      <trkpt lat="50.17968" lon="1.6437">
        <ele>5.4</ele>
        <time>2022-04-22T14:43:01Z</time>
      </trkpt>
      <trkpt lat="50.17967" lon="1.64371">
        <ele>5.4</ele>
        <time>2022-04-22T14:43:02Z</time>
      </trkpt>
      <trkpt lat="50.17966" lon="1.64371">
        <ele>5.4</ele>
        <time>2022-04-22T14:43:04Z</time>
      </trkpt>
      <trkpt lat="50.17965" lon="1.64371">
        <ele>5.5</ele>
        <time>2022-04-22T14:43:05Z</time>
      </trkpt>
      <trkpt lat="50.17963" lon="1.64371">
        <ele>5.5</ele>
        <time>2022-04-22T14:43:06Z</time>
      </trkpt>
      <trkpt lat="50.17962" lon="1.64371">
        <ele>5.5</ele>
        <time>2022-04-22T14:43:07Z</time>
      </trkpt>
      <trkpt lat="50.17961" lon="1.64371">
        <ele>5.5</ele>
        <time>2022-04-22T14:43:08Z</time>
      </trkpt>
      <trkpt lat="50.17961" lon="1.64371">
        <ele>5.5</ele>
        <time>2022-04-22T14:43:09Z</time>
      </trkpt>
      <trkpt lat="50.1796" lon="1.64371">
        <ele>5.5</ele>
        <time>2022-04-22T14:43:10Z</time>
      </trkpt>
      <trkpt lat="50.17957" lon="1.6437">
        <ele>5.5</ele>
        <time>2022-04-22T14:43:13Z</time>
      </trkpt>
      <trkpt lat="50.17957" lon="1.6437">
        <ele>5.5</ele>
        <time>2022-04-22T14:43:14Z</time>
      </trkpt>
      <trkpt lat="50.17956" lon="1.64369">
        <ele>5.5</ele>
        <time>2022-04-22T14:43:15Z</time>
      </trkpt>
      <trkpt lat="50.17956" lon="1.64369">
        <ele>5.5</ele>
        <time>2022-04-22T14:43:16Z</time>
      </trkpt>
      <trkpt lat="50.17956" lon="1.64369">
        <ele>5.5</ele>
        <time>2022-04-22T14:43:17Z</time>
      </trkpt>
      <trkpt lat="50.17957" lon="1.64369">
        <ele>5.5</ele>
        <time>2022-04-22T14:43:18Z</time>
      </trkpt>
      <trkpt lat="50.17957" lon="1.64369">
        <ele>5.5</ele>
        <time>2022-04-22T14:43:20Z</time>
      </trkpt>
      <trkpt lat="50.17957" lon="1.64369">
        <ele>5.5</ele>
        <time>2022-04-22T14:43:21Z</time>
      </trkpt>
      <trkpt lat="50.17958" lon="1.64369">
        <ele>5.5</ele>
        <time>2022-04-22T14:43:22Z</time>
      </trkpt>
      <trkpt lat="50.17958" lon="1.64369">
        <ele>5.5</ele>
        <time>2022-04-22T14:43:23Z</time>
      </trkpt>
      <trkpt lat="50.17958" lon="1.64368">
        <ele>5.5</ele>
        <time>2022-04-22T14:43:24Z</time>
      </trkpt>
      <trkpt lat="50.17958" lon="1.64367">
        <ele>5.5</ele>
        <time>2022-04-22T14:43:25Z</time>
      </trkpt>
      <trkpt lat="50.17957" lon="1.64366">
        <ele>5.5</ele>
        <time>2022-04-22T14:43:27Z</time>
      </trkpt>
      <trkpt lat="50.17956" lon="1.64364">
        <ele>5.5</ele>
        <time>2022-04-22T14:43:28Z</time>
      </trkpt>
      <trkpt lat="50.17956" lon="1.64364">
        <ele>5.5</ele>
        <time>2022-04-22T14:43:29Z</time>
      </trkpt>
      <trkpt lat="50.17955" lon="1.64363">
        <ele>5.5</ele>
        <time>2022-04-22T14:43:30Z</time>
      </trkpt>
      <trkpt lat="50.17954" lon="1.64364">
        <ele>5.5</ele>
        <time>2022-04-22T14:43:31Z</time>
      </trkpt>
      <trkpt lat="50.17954" lon="1.64364">
        <ele>5.5</ele>
        <time>2022-04-22T14:43:32Z</time>
      </trkpt>
      <trkpt lat="50.17954" lon="1.64368">
        <ele>5.5</ele>
        <time>2022-04-22T14:43:33Z</time>
      </trkpt>
      <trkpt lat="50.17954" lon="1.64369">
        <ele>5.5</ele>
        <time>2022-04-22T14:43:34Z</time>
      </trkpt>
      <trkpt lat="50.17954" lon="1.6437">
        <ele>5.5</ele>
        <time>2022-04-22T14:43:35Z</time>
      </trkpt>
      <trkpt lat="50.17954" lon="1.64371">
        <ele>5.5</ele>
        <time>2022-04-22T14:43:36Z</time>
      </trkpt>
      <trkpt lat="50.17954" lon="1.64372">
        <ele>5.5</ele>
        <time>2022-04-22T14:43:37Z</time>
      </trkpt>
      <trkpt lat="50.17955" lon="1.64372">
        <ele>5.5</ele>
        <time>2022-04-22T14:43:38Z</time>
      </trkpt>
      <trkpt lat="50.17955" lon="1.64372">
        <ele>5.5</ele>
        <time>2022-04-22T14:43:39Z</time>
      </trkpt>
      <trkpt lat="50.17955" lon="1.64373">
        <ele>5.5</ele>
        <time>2022-04-22T14:43:40Z</time>
      </trkpt>
      <trkpt lat="50.17955" lon="1.64373">
        <ele>5.5</ele>
        <time>2022-04-22T14:43:41Z</time>
      </trkpt>
      <trkpt lat="50.17955" lon="1.64373">
        <ele>5.5</ele>
        <time>2022-04-22T14:43:42Z</time>
      </trkpt>
      <trkpt lat="50.17955" lon="1.64373">
        <ele>5.5</ele>
        <time>2022-04-22T14:43:43Z</time>
      </trkpt>
      <trkpt lat="50.17955" lon="1.64373">
        <ele>5.5</ele>
        <time>2022-04-22T14:43:44Z</time>
      </trkpt>
      <trkpt lat="50.17955" lon="1.64373">
        <ele>5.5</ele>
        <time>2022-04-22T14:43:45Z</time>
      </trkpt>
      <trkpt lat="50.17955" lon="1.64373">
        <ele>5.5</ele>
        <time>2022-04-22T14:43:46Z</time>
      </trkpt>
      <trkpt lat="50.17955" lon="1.64373">
        <ele>5.5</ele>
        <time>2022-04-22T14:43:47Z</time>
      </trkpt>
      <trkpt lat="50.17956" lon="1.64374">
        <ele>5.5</ele>
        <time>2022-04-22T14:43:48Z</time>
      </trkpt>
      <trkpt lat="50.17956" lon="1.64374">
        <ele>5.5</ele>
        <time>2022-04-22T14:43:49Z</time>
      </trkpt>
      <trkpt lat="50.17957" lon="1.64374">
        <ele>5.5</ele>
        <time>2022-04-22T14:43:50Z</time>
      </trkpt>
      <trkpt lat="50.17957" lon="1.64374">
        <ele>5.5</ele>
        <time>2022-04-22T14:43:51Z</time>
      </trkpt>
      <trkpt lat="50.17957" lon="1.64374">
        <ele>5.5</ele>
        <time>2022-04-22T14:43:52Z</time>
      </trkpt>
      <trkpt lat="50.17957" lon="1.64374">
        <ele>5.5</ele>
        <time>2022-04-22T14:43:53Z</time>
      </trkpt>
      <trkpt lat="50.17957" lon="1.64374">
        <ele>5.5</ele>
        <time>2022-04-22T14:43:54Z</time>
      </trkpt>
      <trkpt lat="50.17957" lon="1.64374">
        <ele>5.5</ele>
        <time>2022-04-22T14:43:55Z</time>
      </trkpt>
      <trkpt lat="50.17957" lon="1.64374">
        <ele>5.5</ele>
        <time>2022-04-22T14:43:56Z</time>
      </trkpt>
      <trkpt lat="50.17957" lon="1.64374">
        <ele>5.5</ele>
        <time>2022-04-22T14:43:57Z</time>
      </trkpt>
      <trkpt lat="50.17957" lon="1.64374">
        <ele>5.5</ele>
        <time>2022-04-22T14:43:58Z</time>
      </trkpt>
      <trkpt lat="50.17957" lon="1.64374">
        <ele>5.5</ele>
        <time>2022-04-22T14:43:59Z</time>
      </trkpt>
      <trkpt lat="50.17957" lon="1.64374">
        <ele>5.5</ele>
        <time>2022-04-22T14:44:00Z</time>
      </trkpt>
      <trkpt lat="50.17957" lon="1.64374">
        <ele>5.5</ele>
        <time>2022-04-22T14:44:01Z</time>
      </trkpt>
      <trkpt lat="50.17957" lon="1.64374">
        <ele>5.5</ele>
        <time>2022-04-22T14:44:02Z</time>
      </trkpt>
      <trkpt lat="50.17957" lon="1.64374">
        <ele>5.5</ele>
        <time>2022-04-22T14:44:03Z</time>
      </trkpt>
      <trkpt lat="50.17957" lon="1.64374">
        <ele>5.5</ele>
        <time>2022-04-22T14:44:04Z</time>
      </trkpt>
      <trkpt lat="50.17958" lon="1.6437">
        <ele>5.5</ele>
        <time>2022-04-22T14:44:05Z</time>
      </trkpt>
      <trkpt lat="50.17959" lon="1.64368">
        <ele>5.5</ele>
        <time>2022-04-22T14:44:06Z</time>
      </trkpt>
      <trkpt lat="50.17959" lon="1.64367">
        <ele>5.5</ele>
        <time>2022-04-22T14:44:07Z</time>
      </trkpt>
      <trkpt lat="50.17959" lon="1.64366">
        <ele>5.5</ele>
        <time>2022-04-22T14:44:08Z</time>
      </trkpt>
      <trkpt lat="50.17959" lon="1.64366">
        <ele>5.5</ele>
        <time>2022-04-22T14:44:09Z</time>
      </trkpt>
      <trkpt lat="50.17959" lon="1.64367">
        <ele>5.5</ele>
        <time>2022-04-22T14:44:10Z</time>
      </trkpt>
      <trkpt lat="50.17959" lon="1.64367">
        <ele>5.5</ele>
        <time>2022-04-22T14:44:11Z</time>
      </trkpt>
      <trkpt lat="50.17959" lon="1.64367">
        <ele>5.5</ele>
        <time>2022-04-22T14:44:12Z</time>
      </trkpt>
      <trkpt lat="50.17959" lon="1.64367">
        <ele>5.5</ele>
        <time>2022-04-22T14:44:13Z</time>
      </trkpt>
      <trkpt lat="50.17959" lon="1.64367">
        <ele>5.5</ele>
        <time>2022-04-22T14:44:14Z</time>
      </trkpt>
      <trkpt lat="50.17959" lon="1.64367">
        <ele>5.5</ele>
        <time>2022-04-22T14:44:15Z</time>
      </trkpt>
      <trkpt lat="50.17959" lon="1.64367">
        <ele>5.5</ele>
        <time>2022-04-22T14:44:16Z</time>
      </trkpt>
      <trkpt lat="50.17959" lon="1.64367">
        <ele>5.5</ele>
        <time>2022-04-22T14:44:17Z</time>
      </trkpt>
      <trkpt lat="50.17959" lon="1.64367">
        <ele>5.5</ele>
        <time>2022-04-22T14:44:18Z</time>
      </trkpt>
      <trkpt lat="50.17959" lon="1.64367">
        <ele>5.5</ele>
        <time>2022-04-22T14:44:19Z</time>
      </trkpt>
      <trkpt lat="50.17959" lon="1.64367">
        <ele>5.5</ele>
        <time>2022-04-22T14:44:20Z</time>
      </trkpt>
      <trkpt lat="50.17959" lon="1.64367">
        <ele>5.5</ele>
        <time>2022-04-22T14:44:21Z</time>
      </trkpt>
      <trkpt lat="50.17959" lon="1.64367">
        <ele>5.5</ele>
        <time>2022-04-22T14:44:22Z</time>
      </trkpt>
      <trkpt lat="50.17959" lon="1.64368">
        <ele>5.5</ele>
        <time>2022-04-22T14:44:23Z</time>
      </trkpt>
      <trkpt lat="50.17959" lon="1.64368">
        <ele>5.5</ele>
        <time>2022-04-22T14:44:24Z</time>
      </trkpt>
      <trkpt lat="50.17958" lon="1.64369">
        <ele>5.5</ele>
        <time>2022-04-22T14:44:25Z</time>
      </trkpt>
      <trkpt lat="50.17959" lon="1.64369">
        <ele>5.5</ele>
        <time>2022-04-22T14:44:26Z</time>
      </trkpt>
      <trkpt lat="50.17961" lon="1.64368">
        <ele>5.5</ele>
        <time>2022-04-22T14:44:27Z</time>
      </trkpt>
      <trkpt lat="50.17961" lon="1.64368">
        <ele>5.5</ele>
        <time>2022-04-22T14:44:29Z</time>
      </trkpt>
      <trkpt lat="50.17962" lon="1.64369">
        <ele>5.5</ele>
        <time>2022-04-22T14:44:30Z</time>
      </trkpt>
      <trkpt lat="50.17962" lon="1.64369">
        <ele>5.5</ele>
        <time>2022-04-22T14:44:31Z</time>
      </trkpt>
      <trkpt lat="50.17962" lon="1.6437">
        <ele>5.5</ele>
        <time>2022-04-22T14:44:32Z</time>
      </trkpt>
      <trkpt lat="50.17962" lon="1.6437">
        <ele>5.5</ele>
        <time>2022-04-22T14:44:33Z</time>
      </trkpt>
      <trkpt lat="50.17963" lon="1.6437">
        <ele>5.5</ele>
        <time>2022-04-22T14:44:34Z</time>
      </trkpt>
      <trkpt lat="50.17963" lon="1.6437">
        <ele>5.5</ele>
        <time>2022-04-22T14:44:35Z</time>
      </trkpt>
      <trkpt lat="50.17963" lon="1.64371">
        <ele>5.5</ele>
        <time>2022-04-22T14:44:36Z</time>
      </trkpt>
      <trkpt lat="50.17964" lon="1.64371">
        <ele>5.5</ele>
        <time>2022-04-22T14:44:37Z</time>
      </trkpt>
      <trkpt lat="50.17964" lon="1.64371">
        <ele>5.5</ele>
        <time>2022-04-22T14:44:38Z</time>
      </trkpt>
      <trkpt lat="50.17964" lon="1.64371">
        <ele>5.5</ele>
        <time>2022-04-22T14:44:39Z</time>
      </trkpt>
      <trkpt lat="50.17964" lon="1.64371">
        <ele>5.5</ele>
        <time>2022-04-22T14:44:40Z</time>
      </trkpt>
      <trkpt lat="50.17964" lon="1.64371">
        <ele>5.5</ele>
        <time>2022-04-22T14:44:41Z</time>
      </trkpt>
      <trkpt lat="50.17965" lon="1.64372">
        <ele>5.6</ele>
        <time>2022-04-22T14:44:42Z</time>
      </trkpt>
      <trkpt lat="50.17966" lon="1.64372">
        <ele>5.6</ele>
        <time>2022-04-22T14:44:43Z</time>
      </trkpt>
      <trkpt lat="50.17966" lon="1.64373">
        <ele>5.6</ele>
        <time>2022-04-22T14:44:44Z</time>
      </trkpt>
      <trkpt lat="50.17965" lon="1.64374">
        <ele>5.6</ele>
        <time>2022-04-22T14:44:45Z</time>
      </trkpt>
      <trkpt lat="50.17965" lon="1.64374">
        <ele>5.6</ele>
        <time>2022-04-22T14:44:47Z</time>
      </trkpt>
      <trkpt lat="50.17964" lon="1.64374">
        <ele>5.6</ele>
        <time>2022-04-22T14:44:48Z</time>
      </trkpt>
      <trkpt lat="50.17964" lon="1.64374">
        <ele>5.6</ele>
        <time>2022-04-22T14:44:50Z</time>
      </trkpt>
      <trkpt lat="50.17963" lon="1.64374">
        <ele>5.6</ele>
        <time>2022-04-22T14:44:51Z</time>
      </trkpt>
      <trkpt lat="50.17963" lon="1.64374">
        <ele>5.6</ele>
        <time>2022-04-22T14:44:52Z</time>
      </trkpt>
      <trkpt lat="50.1796" lon="1.64371">
        <ele>5.6</ele>
        <time>2022-04-22T14:44:53Z</time>
      </trkpt>
      <trkpt lat="50.17956" lon="1.64369">
        <ele>5.6</ele>
        <time>2022-04-22T14:44:54Z</time>
      </trkpt>
      <trkpt lat="50.17953" lon="1.64369">
        <ele>5.6</ele>
        <time>2022-04-22T14:44:55Z</time>
      </trkpt>
      <trkpt lat="50.17952" lon="1.64369">
        <ele>5.6</ele>
        <time>2022-04-22T14:44:56Z</time>
      </trkpt>
      <trkpt lat="50.17951" lon="1.6437">
        <ele>5.6</ele>
        <time>2022-04-22T14:44:57Z</time>
      </trkpt>
      <trkpt lat="50.17949" lon="1.64371">
        <ele>5.6</ele>
        <time>2022-04-22T14:44:58Z</time>
      </trkpt>
      <trkpt lat="50.17946" lon="1.6437">
        <ele>5.6</ele>
        <time>2022-04-22T14:45:00Z</time>
      </trkpt>
      <trkpt lat="50.17945" lon="1.6437">
        <ele>5.6</ele>
        <time>2022-04-22T14:45:01Z</time>
      </trkpt>
      <trkpt lat="50.17942" lon="1.64369">
        <ele>5.7</ele>
        <time>2022-04-22T14:45:02Z</time>
      </trkpt>
      <trkpt lat="50.17941" lon="1.64368">
        <ele>5.7</ele>
        <time>2022-04-22T14:45:03Z</time>
      </trkpt>
      <trkpt lat="50.17939" lon="1.64367">
        <ele>5.7</ele>
        <time>2022-04-22T14:45:04Z</time>
      </trkpt>
      <trkpt lat="50.17938" lon="1.64367">
        <ele>5.7</ele>
        <time>2022-04-22T14:45:06Z</time>
      </trkpt>
      <trkpt lat="50.17937" lon="1.64367">
        <ele>5.7</ele>
        <time>2022-04-22T14:45:07Z</time>
      </trkpt>
      <trkpt lat="50.17936" lon="1.64366">
        <ele>5.7</ele>
        <time>2022-04-22T14:45:08Z</time>
      </trkpt>
      <trkpt lat="50.17935" lon="1.64366">
        <ele>5.7</ele>
        <time>2022-04-22T14:45:09Z</time>
      </trkpt>
      <trkpt lat="50.17932" lon="1.64366">
        <ele>5.7</ele>
        <time>2022-04-22T14:45:10Z</time>
      </trkpt>
      <trkpt lat="50.17931" lon="1.64366">
        <ele>5.7</ele>
        <time>2022-04-22T14:45:11Z</time>
      </trkpt>
      <trkpt lat="50.1793" lon="1.64365">
        <ele>5.7</ele>
        <time>2022-04-22T14:45:12Z</time>
      </trkpt>
      <trkpt lat="50.17928" lon="1.64364">
        <ele>5.7</ele>
        <time>2022-04-22T14:45:13Z</time>
      </trkpt>
      <trkpt lat="50.17925" lon="1.64364">
        <ele>5.7</ele>
        <time>2022-04-22T14:45:15Z</time>
      </trkpt>
      <trkpt lat="50.17924" lon="1.64363">
        <ele>5.7</ele>
        <time>2022-04-22T14:45:16Z</time>
      </trkpt>
      <trkpt lat="50.17921" lon="1.64362">
        <ele>5.7</ele>
        <time>2022-04-22T14:45:17Z</time>
      </trkpt>
      <trkpt lat="50.17921" lon="1.64362">
        <ele>5.8</ele>
        <time>2022-04-22T14:45:18Z</time>
      </trkpt>
      <trkpt lat="50.17918" lon="1.6436">
        <ele>5.8</ele>
        <time>2022-04-22T14:45:19Z</time>
      </trkpt>
      <trkpt lat="50.17917" lon="1.6436">
        <ele>5.8</ele>
        <time>2022-04-22T14:45:20Z</time>
      </trkpt>
      <trkpt lat="50.17915" lon="1.64359">
        <ele>5.8</ele>
        <time>2022-04-22T14:45:22Z</time>
      </trkpt>
      <trkpt lat="50.17913" lon="1.64359">
        <ele>5.8</ele>
        <time>2022-04-22T14:45:23Z</time>
      </trkpt>
      <trkpt lat="50.17913" lon="1.64359">
        <ele>5.8</ele>
        <time>2022-04-22T14:45:24Z</time>
      </trkpt>
      <trkpt lat="50.17912" lon="1.6436">
        <ele>5.8</ele>
        <time>2022-04-22T14:45:25Z</time>
      </trkpt>
      <trkpt lat="50.17911" lon="1.64361">
        <ele>5.8</ele>
        <time>2022-04-22T14:45:26Z</time>
      </trkpt>
      <trkpt lat="50.17911" lon="1.64361">
        <ele>5.8</ele>
        <time>2022-04-22T14:45:28Z</time>
      </trkpt>
      <trkpt lat="50.1791" lon="1.64362">
        <ele>5.8</ele>
        <time>2022-04-22T14:45:29Z</time>
      </trkpt>
      <trkpt lat="50.1791" lon="1.64362">
        <ele>5.8</ele>
        <time>2022-04-22T14:45:30Z</time>
      </trkpt>
      <trkpt lat="50.17909" lon="1.64363">
        <ele>5.8</ele>
        <time>2022-04-22T14:45:31Z</time>
      </trkpt>
      <trkpt lat="50.17908" lon="1.64363">
        <ele>5.8</ele>
        <time>2022-04-22T14:45:32Z</time>
      </trkpt>
      <trkpt lat="50.17907" lon="1.64365">
        <ele>5.8</ele>
        <time>2022-04-22T14:45:33Z</time>
      </trkpt>
      <trkpt lat="50.17906" lon="1.64366">
        <ele>5.8</ele>
        <time>2022-04-22T14:45:35Z</time>
      </trkpt>
      <trkpt lat="50.17905" lon="1.64367">
        <ele>5.8</ele>
        <time>2022-04-22T14:45:36Z</time>
      </trkpt>
      <trkpt lat="50.17903" lon="1.64367">
        <ele>5.8</ele>
        <time>2022-04-22T14:45:37Z</time>
      </trkpt>
      <trkpt lat="50.17902" lon="1.64367">
        <ele>5.8</ele>
        <time>2022-04-22T14:45:38Z</time>
      </trkpt>
      <trkpt lat="50.17901" lon="1.64366">
        <ele>5.8</ele>
        <time>2022-04-22T14:45:39Z</time>
      </trkpt>
      <trkpt lat="50.17901" lon="1.64366">
        <ele>5.8</ele>
        <time>2022-04-22T14:45:40Z</time>
      </trkpt>
      <trkpt lat="50.179" lon="1.64367">
        <ele>5.8</ele>
        <time>2022-04-22T14:45:41Z</time>
      </trkpt>
      <trkpt lat="50.17899" lon="1.64367">
        <ele>5.8</ele>
        <time>2022-04-22T14:45:42Z</time>
      </trkpt>
      <trkpt lat="50.17898" lon="1.64367">
        <ele>5.8</ele>
        <time>2022-04-22T14:45:43Z</time>
      </trkpt>
      <trkpt lat="50.17898" lon="1.64365">
        <ele>5.8</ele>
        <time>2022-04-22T14:45:45Z</time>
      </trkpt>
      <trkpt lat="50.17898" lon="1.64365">
        <ele>5.8</ele>
        <time>2022-04-22T14:45:46Z</time>
      </trkpt>
      <trkpt lat="50.17899" lon="1.64365">
        <ele>5.8</ele>
        <time>2022-04-22T14:45:47Z</time>
      </trkpt>
      <trkpt lat="50.17899" lon="1.64365">
        <ele>5.8</ele>
        <time>2022-04-22T14:45:48Z</time>
      </trkpt>
      <trkpt lat="50.17899" lon="1.64365">
        <ele>5.8</ele>
        <time>2022-04-22T14:45:49Z</time>
      </trkpt>
      <trkpt lat="50.17899" lon="1.64364">
        <ele>5.8</ele>
        <time>2022-04-22T14:45:50Z</time>
      </trkpt>
      <trkpt lat="50.17899" lon="1.64364">
        <ele>5.8</ele>
        <time>2022-04-22T14:45:51Z</time>
      </trkpt>
      <trkpt lat="50.17899" lon="1.64364">
        <ele>5.8</ele>
        <time>2022-04-22T14:45:52Z</time>
      </trkpt>
      <trkpt lat="50.179" lon="1.64364">
        <ele>5.8</ele>
        <time>2022-04-22T14:45:53Z</time>
      </trkpt>
      <trkpt lat="50.179" lon="1.64364">
        <ele>5.8</ele>
        <time>2022-04-22T14:45:54Z</time>
      </trkpt>
      <trkpt lat="50.179" lon="1.64364">
        <ele>5.8</ele>
        <time>2022-04-22T14:45:55Z</time>
      </trkpt>
      <trkpt lat="50.179" lon="1.64364">
        <ele>5.8</ele>
        <time>2022-04-22T14:45:56Z</time>
      </trkpt>
      <trkpt lat="50.179" lon="1.64364">
        <ele>5.8</ele>
        <time>2022-04-22T14:45:57Z</time>
      </trkpt>
      <trkpt lat="50.179" lon="1.64364">
        <ele>5.8</ele>
        <time>2022-04-22T14:45:58Z</time>
      </trkpt>
      <trkpt lat="50.179" lon="1.64363">
        <ele>5.8</ele>
        <time>2022-04-22T14:45:59Z</time>
      </trkpt>
      <trkpt lat="50.179" lon="1.64363">
        <ele>5.8</ele>
        <time>2022-04-22T14:46:00Z</time>
      </trkpt>
      <trkpt lat="50.17901" lon="1.64364">
        <ele>5.8</ele>
        <time>2022-04-22T14:46:01Z</time>
      </trkpt>
      <trkpt lat="50.17901" lon="1.64365">
        <ele>5.8</ele>
        <time>2022-04-22T14:46:02Z</time>
      </trkpt>
      <trkpt lat="50.17901" lon="1.64366">
        <ele>5.8</ele>
        <time>2022-04-22T14:46:03Z</time>
      </trkpt>
      <trkpt lat="50.17902" lon="1.64366">
        <ele>5.8</ele>
        <time>2022-04-22T14:46:04Z</time>
      </trkpt>
      <trkpt lat="50.17902" lon="1.64366">
        <ele>5.8</ele>
        <time>2022-04-22T14:46:05Z</time>
      </trkpt>
      <trkpt lat="50.17902" lon="1.64366">
        <ele>5.8</ele>
        <time>2022-04-22T14:46:06Z</time>
      </trkpt>
      <trkpt lat="50.17902" lon="1.64366">
        <ele>5.8</ele>
        <time>2022-04-22T14:46:07Z</time>
      </trkpt>
      <trkpt lat="50.17902" lon="1.64366">
        <ele>5.8</ele>
        <time>2022-04-22T14:46:08Z</time>
      </trkpt>
      <trkpt lat="50.17902" lon="1.64366">
        <ele>5.8</ele>
        <time>2022-04-22T14:46:09Z</time>
      </trkpt>
      <trkpt lat="50.17902" lon="1.64366">
        <ele>5.8</ele>
        <time>2022-04-22T14:46:10Z</time>
      </trkpt>
      <trkpt lat="50.17902" lon="1.64366">
        <ele>5.8</ele>
        <time>2022-04-22T14:46:11Z</time>
      </trkpt>
      <trkpt lat="50.17902" lon="1.64366">
        <ele>5.8</ele>
        <time>2022-04-22T14:46:12Z</time>
      </trkpt>
      <trkpt lat="50.17902" lon="1.64366">
        <ele>5.8</ele>
        <time>2022-04-22T14:46:13Z</time>
      </trkpt>
      <trkpt lat="50.17902" lon="1.64366">
        <ele>5.8</ele>
        <time>2022-04-22T14:46:14Z</time>
      </trkpt>
      <trkpt lat="50.17902" lon="1.64366">
        <ele>5.8</ele>
        <time>2022-04-22T14:46:15Z</time>
      </trkpt>
      <trkpt lat="50.17902" lon="1.64366">
        <ele>5.8</ele>
        <time>2022-04-22T14:46:16Z</time>
      </trkpt>
      <trkpt lat="50.17902" lon="1.64366">
        <ele>5.8</ele>
        <time>2022-04-22T14:46:17Z</time>
      </trkpt>
      <trkpt lat="50.17902" lon="1.64366">
        <ele>5.8</ele>
        <time>2022-04-22T14:46:18Z</time>
      </trkpt>
      <trkpt lat="50.17902" lon="1.64366">
        <ele>5.8</ele>
        <time>2022-04-22T14:46:19Z</time>
      </trkpt>
      <trkpt lat="50.17902" lon="1.64366">
        <ele>5.8</ele>
        <time>2022-04-22T14:46:20Z</time>
      </trkpt>
      <trkpt lat="50.17902" lon="1.64366">
        <ele>5.8</ele>
        <time>2022-04-22T14:46:21Z</time>
      </trkpt>
      <trkpt lat="50.17902" lon="1.64366">
        <ele>5.8</ele>
        <time>2022-04-22T14:46:22Z</time>
      </trkpt>
      <trkpt lat="50.17902" lon="1.64366">
        <ele>5.8</ele>
        <time>2022-04-22T14:46:23Z</time>
      </trkpt>
      <trkpt lat="50.17902" lon="1.64366">
        <ele>5.8</ele>
        <time>2022-04-22T14:46:24Z</time>
      </trkpt>
      <trkpt lat="50.17902" lon="1.64366">
        <ele>5.8</ele>
        <time>2022-04-22T14:46:25Z</time>
      </trkpt>
      <trkpt lat="50.1028" lon="1.82527">
        <ele>6.3</ele>
        <time>2022-04-22T15:28:03Z</time>
      </trkpt>
      <trkpt lat="50.1028" lon="1.82528">
        <ele>6.3</ele>
        <time>2022-04-22T15:28:04Z</time>
      </trkpt>
      <trkpt lat="50.1028" lon="1.82528">
        <ele>6.3</ele>
        <time>2022-04-22T15:28:05Z</time>
      </trkpt>
      <trkpt lat="50.1028" lon="1.82528">
        <ele>6.3</ele>
        <time>2022-04-22T15:28:06Z</time>
      </trkpt>
      <trkpt lat="50.10281" lon="1.82528">
        <ele>6.3</ele>
        <time>2022-04-22T15:28:07Z</time>
      </trkpt>
      <trkpt lat="50.10281" lon="1.82529">
        <ele>6.3</ele>
        <time>2022-04-22T15:28:08Z</time>
      </trkpt>
      <trkpt lat="50.10282" lon="1.8253">
        <ele>6.3</ele>
        <time>2022-04-22T15:28:09Z</time>
      </trkpt>
      <trkpt lat="50.10282" lon="1.82531">
        <ele>6.4</ele>
        <time>2022-04-22T15:28:10Z</time>
      </trkpt>
      <trkpt lat="50.10283" lon="1.82532">
        <ele>6.4</ele>
        <time>2022-04-22T15:28:11Z</time>
      </trkpt>
      <trkpt lat="50.10285" lon="1.82533">
        <ele>6.4</ele>
        <time>2022-04-22T15:28:13Z</time>
      </trkpt>
      <trkpt lat="50.10286" lon="1.82533">
        <ele>6.4</ele>
        <time>2022-04-22T15:28:14Z</time>
      </trkpt>
      <trkpt lat="50.10287" lon="1.82534">
        <ele>6.5</ele>
        <time>2022-04-22T15:28:15Z</time>
      </trkpt>
      <trkpt lat="50.10287" lon="1.82536">
        <ele>6.5</ele>
        <time>2022-04-22T15:28:16Z</time>
      </trkpt>
      <trkpt lat="50.10288" lon="1.82538">
        <ele>6.5</ele>
        <time>2022-04-22T15:28:18Z</time>
      </trkpt>
      <trkpt lat="50.10289" lon="1.82538">
        <ele>6.5</ele>
        <time>2022-04-22T15:28:19Z</time>
      </trkpt>
      <trkpt lat="50.1029" lon="1.82538">
        <ele>6.5</ele>
        <time>2022-04-22T15:28:21Z</time>
      </trkpt>
      <trkpt lat="50.10291" lon="1.82539">
        <ele>6.6</ele>
        <time>2022-04-22T15:28:22Z</time>
      </trkpt>
      <trkpt lat="50.10292" lon="1.8254">
        <ele>6.6</ele>
        <time>2022-04-22T15:28:23Z</time>
      </trkpt>
      <trkpt lat="50.10293" lon="1.82541">
        <ele>6.6</ele>
        <time>2022-04-22T15:28:24Z</time>
      </trkpt>
      <trkpt lat="50.10293" lon="1.82542">
        <ele>6.6</ele>
        <time>2022-04-22T15:28:25Z</time>
      </trkpt>
      <trkpt lat="50.10294" lon="1.82543">
        <ele>6.6</ele>
        <time>2022-04-22T15:28:26Z</time>
      </trkpt>
      <trkpt lat="50.10294" lon="1.82544">
        <ele>6.7</ele>
        <time>2022-04-22T15:28:27Z</time>
      </trkpt>
      <trkpt lat="50.10295" lon="1.82545">
        <ele>6.7</ele>
        <time>2022-04-22T15:28:28Z</time>
      </trkpt>
      <trkpt lat="50.10296" lon="1.82546">
        <ele>6.7</ele>
        <time>2022-04-22T15:28:29Z</time>
      </trkpt>
      <trkpt lat="50.10296" lon="1.82545">
        <ele>6.7</ele>
        <time>2022-04-22T15:28:30Z</time>
      </trkpt>
      <trkpt lat="50.10297" lon="1.82545">
        <ele>6.7</ele>
        <time>2022-04-22T15:28:31Z</time>
      </trkpt>
      <trkpt lat="50.10298" lon="1.82545">
        <ele>6.7</ele>
        <time>2022-04-22T15:28:33Z</time>
      </trkpt>
      <trkpt lat="50.10298" lon="1.82546">
        <ele>6.7</ele>
        <time>2022-04-22T15:28:34Z</time>
      </trkpt>
      <trkpt lat="50.10299" lon="1.82546">
        <ele>6.8</ele>
        <time>2022-04-22T15:28:35Z</time>
      </trkpt>
      <trkpt lat="50.103" lon="1.82547">
        <ele>6.8</ele>
        <time>2022-04-22T15:28:36Z</time>
      </trkpt>
      <trkpt lat="50.103" lon="1.82547">
        <ele>6.8</ele>
        <time>2022-04-22T15:28:37Z</time>
      </trkpt>
      <trkpt lat="50.10301" lon="1.82548">
        <ele>6.8</ele>
        <time>2022-04-22T15:28:39Z</time>
      </trkpt>
      <trkpt lat="50.10301" lon="1.82547">
        <ele>6.8</ele>
        <time>2022-04-22T15:28:40Z</time>
      </trkpt>
      <trkpt lat="50.10302" lon="1.82547">
        <ele>6.8</ele>
        <time>2022-04-22T15:28:41Z</time>
      </trkpt>
      <trkpt lat="50.10303" lon="1.82547">
        <ele>6.8</ele>
        <time>2022-04-22T15:28:42Z</time>
      </trkpt>
      <trkpt lat="50.10303" lon="1.82548">
        <ele>6.9</ele>
        <time>2022-04-22T15:28:43Z</time>
      </trkpt>
      <trkpt lat="50.10303" lon="1.82548">
        <ele>6.9</ele>
        <time>2022-04-22T15:28:44Z</time>
      </trkpt>
      <trkpt lat="50.10303" lon="1.82549">
        <ele>6.9</ele>
        <time>2022-04-22T15:28:45Z</time>
      </trkpt>
      <trkpt lat="50.10302" lon="1.82549">
        <ele>6.9</ele>
        <time>2022-04-22T15:28:46Z</time>
      </trkpt>
      <trkpt lat="50.10303" lon="1.82549">
        <ele>6.9</ele>
        <time>2022-04-22T15:28:47Z</time>
      </trkpt>
      <trkpt lat="50.10303" lon="1.82549">
        <ele>6.9</ele>
        <time>2022-04-22T15:28:48Z</time>
      </trkpt>
      <trkpt lat="50.10303" lon="1.8255">
        <ele>6.9</ele>
        <time>2022-04-22T15:28:49Z</time>
      </trkpt>
      <trkpt lat="50.10303" lon="1.82551">
        <ele>6.9</ele>
        <time>2022-04-22T15:28:50Z</time>
      </trkpt>
      <trkpt lat="50.10303" lon="1.82551">
        <ele>6.9</ele>
        <time>2022-04-22T15:28:51Z</time>
      </trkpt>
      <trkpt lat="50.10304" lon="1.82552">
        <ele>6.9</ele>
        <time>2022-04-22T15:28:52Z</time>
      </trkpt>
      <trkpt lat="50.10304" lon="1.82553">
        <ele>6.9</ele>
        <time>2022-04-22T15:28:53Z</time>
      </trkpt>
      <trkpt lat="50.10304" lon="1.82554">
        <ele>7</ele>
        <time>2022-04-22T15:28:54Z</time>
      </trkpt>
      <trkpt lat="50.10304" lon="1.82554">
        <ele>7</ele>
        <time>2022-04-22T15:28:56Z</time>
      </trkpt>
      <trkpt lat="50.10304" lon="1.82555">
        <ele>7</ele>
        <time>2022-04-22T15:28:57Z</time>
      </trkpt>
      <trkpt lat="50.10305" lon="1.82556">
        <ele>7</ele>
        <time>2022-04-22T15:28:58Z</time>
      </trkpt>
      <trkpt lat="50.10305" lon="1.82557">
        <ele>7</ele>
        <time>2022-04-22T15:28:59Z</time>
      </trkpt>
      <trkpt lat="50.10306" lon="1.82557">
        <ele>7</ele>
        <time>2022-04-22T15:29:01Z</time>
      </trkpt>
      <trkpt lat="50.10307" lon="1.82557">
        <ele>7</ele>
        <time>2022-04-22T15:29:02Z</time>
      </trkpt>
      <trkpt lat="50.10308" lon="1.82558">
        <ele>7.1</ele>
        <time>2022-04-22T15:29:04Z</time>
      </trkpt>
      <trkpt lat="50.10309" lon="1.82558">
        <ele>7.1</ele>
        <time>2022-04-22T15:29:05Z</time>
      </trkpt>
      <trkpt lat="50.1031" lon="1.82558">
        <ele>7.1</ele>
        <time>2022-04-22T15:29:06Z</time>
      </trkpt>
      <trkpt lat="50.1031" lon="1.82558">
        <ele>7.1</ele>
        <time>2022-04-22T15:29:07Z</time>
      </trkpt>
      <trkpt lat="50.10311" lon="1.82559">
        <ele>7.2</ele>
        <time>2022-04-22T15:29:08Z</time>
      </trkpt>
      <trkpt lat="50.10312" lon="1.82559">
        <ele>7.1</ele>
        <time>2022-04-22T15:29:09Z</time>
      </trkpt>
      <trkpt lat="50.10313" lon="1.82558">
        <ele>7.1</ele>
        <time>2022-04-22T15:29:11Z</time>
      </trkpt>
      <trkpt lat="50.10313" lon="1.82558">
        <ele>7.1</ele>
        <time>2022-04-22T15:29:12Z</time>
      </trkpt>
      <trkpt lat="50.10314" lon="1.82558">
        <ele>7.1</ele>
        <time>2022-04-22T15:29:14Z</time>
      </trkpt>
      <trkpt lat="50.10316" lon="1.82559">
        <ele>7.1</ele>
        <time>2022-04-22T15:29:16Z</time>
      </trkpt>
      <trkpt lat="50.10316" lon="1.8256">
        <ele>7.1</ele>
        <time>2022-04-22T15:29:17Z</time>
      </trkpt>
      <trkpt lat="50.10317" lon="1.82561">
        <ele>7.1</ele>
        <time>2022-04-22T15:29:18Z</time>
      </trkpt>
      <trkpt lat="50.10317" lon="1.82561">
        <ele>7.1</ele>
        <time>2022-04-22T15:29:19Z</time>
      </trkpt>
      <trkpt lat="50.10318" lon="1.82562">
        <ele>7.1</ele>
        <time>2022-04-22T15:29:20Z</time>
      </trkpt>
      <trkpt lat="50.10316" lon="1.82565">
        <ele>7.2</ele>
        <time>2022-04-22T15:29:21Z</time>
      </trkpt>
      <trkpt lat="50.10317" lon="1.82566">
        <ele>7.2</ele>
        <time>2022-04-22T15:29:23Z</time>
      </trkpt>
      <trkpt lat="50.10318" lon="1.82566">
        <ele>7.2</ele>
        <time>2022-04-22T15:29:24Z</time>
      </trkpt>
      <trkpt lat="50.10318" lon="1.82566">
        <ele>7.2</ele>
        <time>2022-04-22T15:29:26Z</time>
      </trkpt>
      <trkpt lat="50.10319" lon="1.82566">
        <ele>7.2</ele>
        <time>2022-04-22T15:29:27Z</time>
      </trkpt>
      <trkpt lat="50.1032" lon="1.82565">
        <ele>7.2</ele>
        <time>2022-04-22T15:29:28Z</time>
      </trkpt>
      <trkpt lat="50.1032" lon="1.82564">
        <ele>7.2</ele>
        <time>2022-04-22T15:29:29Z</time>
      </trkpt>
      <trkpt lat="50.10321" lon="1.82563">
        <ele>7.1</ele>
        <time>2022-04-22T15:29:30Z</time>
      </trkpt>
      <trkpt lat="50.10321" lon="1.82562">
        <ele>7.1</ele>
        <time>2022-04-22T15:29:31Z</time>
      </trkpt>
      <trkpt lat="50.10322" lon="1.8256">
        <ele>7.1</ele>
        <time>2022-04-22T15:29:32Z</time>
      </trkpt>
      <trkpt lat="50.10322" lon="1.82559">
        <ele>7.1</ele>
        <time>2022-04-22T15:29:33Z</time>
      </trkpt>
      <trkpt lat="50.10323" lon="1.82556">
        <ele>7.1</ele>
        <time>2022-04-22T15:29:34Z</time>
      </trkpt>
      <trkpt lat="50.10324" lon="1.82555">
        <ele>7.1</ele>
        <time>2022-04-22T15:29:36Z</time>
      </trkpt>
      <trkpt lat="50.10324" lon="1.82554">
        <ele>7</ele>
        <time>2022-04-22T15:29:37Z</time>
      </trkpt>
      <trkpt lat="50.10324" lon="1.82554">
        <ele>7</ele>
        <time>2022-04-22T15:29:38Z</time>
      </trkpt>
      <trkpt lat="50.10325" lon="1.82553">
        <ele>7</ele>
        <time>2022-04-22T15:29:39Z</time>
      </trkpt>
      <trkpt lat="50.10325" lon="1.82553">
        <ele>7</ele>
        <time>2022-04-22T15:29:40Z</time>
      </trkpt>
      <trkpt lat="50.10326" lon="1.82552">
        <ele>7</ele>
        <time>2022-04-22T15:29:41Z</time>
      </trkpt>
      <trkpt lat="50.10324" lon="1.82553">
        <ele>7</ele>
        <time>2022-04-22T15:29:42Z</time>
      </trkpt>
      <trkpt lat="50.10324" lon="1.82553">
        <ele>7</ele>
        <time>2022-04-22T15:29:43Z</time>
      </trkpt>
      <trkpt lat="50.10324" lon="1.82554">
        <ele>7</ele>
        <time>2022-04-22T15:29:44Z</time>
      </trkpt>
      <trkpt lat="50.10324" lon="1.82554">
        <ele>7</ele>
        <time>2022-04-22T15:29:45Z</time>
      </trkpt>
      <trkpt lat="50.10324" lon="1.82554">
        <ele>7</ele>
        <time>2022-04-22T15:29:46Z</time>
      </trkpt>
      <trkpt lat="50.10324" lon="1.82554">
        <ele>7</ele>
        <time>2022-04-22T15:29:47Z</time>
      </trkpt>
      <trkpt lat="50.10323" lon="1.82555">
        <ele>7</ele>
        <time>2022-04-22T15:29:48Z</time>
      </trkpt>
      <trkpt lat="50.10323" lon="1.82555">
        <ele>7</ele>
        <time>2022-04-22T15:29:49Z</time>
      </trkpt>
      <trkpt lat="50.10323" lon="1.82556">
        <ele>7</ele>
        <time>2022-04-22T15:29:50Z</time>
      </trkpt>
      <trkpt lat="50.10323" lon="1.82556">
        <ele>7</ele>
        <time>2022-04-22T15:29:51Z</time>
      </trkpt>
      <trkpt lat="50.10323" lon="1.82555">
        <ele>7</ele>
        <time>2022-04-22T15:29:52Z</time>
      </trkpt>
      <trkpt lat="50.10323" lon="1.82555">
        <ele>7</ele>
        <time>2022-04-22T15:29:53Z</time>
      </trkpt>
      <trkpt lat="50.10323" lon="1.82555">
        <ele>7</ele>
        <time>2022-04-22T15:29:54Z</time>
      </trkpt>
      <trkpt lat="50.10323" lon="1.82555">
        <ele>7</ele>
        <time>2022-04-22T15:29:55Z</time>
      </trkpt>
      <trkpt lat="50.10323" lon="1.82554">
        <ele>7</ele>
        <time>2022-04-22T15:29:56Z</time>
      </trkpt>
      <trkpt lat="50.10323" lon="1.82554">
        <ele>7</ele>
        <time>2022-04-22T15:29:57Z</time>
      </trkpt>
      <trkpt lat="50.10324" lon="1.82553">
        <ele>7</ele>
        <time>2022-04-22T15:29:58Z</time>
      </trkpt>
      <trkpt lat="50.10324" lon="1.82552">
        <ele>7</ele>
        <time>2022-04-22T15:29:59Z</time>
      </trkpt>
      <trkpt lat="50.10326" lon="1.8255">
        <ele>7</ele>
        <time>2022-04-22T15:30:01Z</time>
      </trkpt>
      <trkpt lat="50.10327" lon="1.82549">
        <ele>7</ele>
        <time>2022-04-22T15:30:03Z</time>
      </trkpt>
      <trkpt lat="50.10327" lon="1.82549">
        <ele>7</ele>
        <time>2022-04-22T15:30:04Z</time>
      </trkpt>
      <trkpt lat="50.10328" lon="1.82548">
        <ele>7</ele>
        <time>2022-04-22T15:30:05Z</time>
      </trkpt>
      <trkpt lat="50.10328" lon="1.82548">
        <ele>7</ele>
        <time>2022-04-22T15:30:06Z</time>
      </trkpt>
      <trkpt lat="50.10328" lon="1.82548">
        <ele>7</ele>
        <time>2022-04-22T15:30:07Z</time>
      </trkpt>
      <trkpt lat="50.10328" lon="1.82548">
        <ele>7</ele>
        <time>2022-04-22T15:30:08Z</time>
      </trkpt>
      <trkpt lat="50.10328" lon="1.82548">
        <ele>7</ele>
        <time>2022-04-22T15:30:10Z</time>
      </trkpt>
      <trkpt lat="50.10328" lon="1.82547">
        <ele>7</ele>
        <time>2022-04-22T15:30:11Z</time>
      </trkpt>
      <trkpt lat="50.10328" lon="1.82546">
        <ele>6.9</ele>
        <time>2022-04-22T15:30:12Z</time>
      </trkpt>
      <trkpt lat="50.10328" lon="1.82545">
        <ele>6.9</ele>
        <time>2022-04-22T15:30:13Z</time>
      </trkpt>
      <trkpt lat="50.10329" lon="1.82545">
        <ele>6.9</ele>
        <time>2022-04-22T15:30:14Z</time>
      </trkpt>
      <trkpt lat="50.10329" lon="1.82544">
        <ele>6.9</ele>
        <time>2022-04-22T15:30:15Z</time>
      </trkpt>
      <trkpt lat="50.10329" lon="1.82544">
        <ele>6.9</ele>
        <time>2022-04-22T15:30:16Z</time>
      </trkpt>
      <trkpt lat="50.10329" lon="1.82543">
        <ele>6.9</ele>
        <time>2022-04-22T15:30:18Z</time>
      </trkpt>
      <trkpt lat="50.10329" lon="1.82543">
        <ele>6.9</ele>
        <time>2022-04-22T15:30:19Z</time>
      </trkpt>
      <trkpt lat="50.10329" lon="1.82543">
        <ele>6.9</ele>
        <time>2022-04-22T15:30:20Z</time>
      </trkpt>
      <trkpt lat="50.10329" lon="1.82543">
        <ele>6.9</ele>
        <time>2022-04-22T15:30:21Z</time>
      </trkpt>
      <trkpt lat="50.10329" lon="1.82543">
        <ele>6.9</ele>
        <time>2022-04-22T15:30:22Z</time>
      </trkpt>
      <trkpt lat="50.10329" lon="1.82543">
        <ele>6.9</ele>
        <time>2022-04-22T15:30:23Z</time>
      </trkpt>
      <trkpt lat="50.10329" lon="1.82542">
        <ele>6.9</ele>
        <time>2022-04-22T15:30:24Z</time>
      </trkpt>
      <trkpt lat="50.10329" lon="1.82542">
        <ele>6.9</ele>
        <time>2022-04-22T15:30:25Z</time>
      </trkpt>
      <trkpt lat="50.10329" lon="1.82542">
        <ele>6.9</ele>
        <time>2022-04-22T15:30:26Z</time>
      </trkpt>
      <trkpt lat="50.10329" lon="1.82542">
        <ele>6.9</ele>
        <time>2022-04-22T15:30:28Z</time>
      </trkpt>
      <trkpt lat="50.10329" lon="1.82542">
        <ele>6.9</ele>
        <time>2022-04-22T15:30:29Z</time>
      </trkpt>
      <trkpt lat="50.10329" lon="1.82542">
        <ele>6.9</ele>
        <time>2022-04-22T15:30:30Z</time>
      </trkpt>
      <trkpt lat="50.10329" lon="1.82542">
        <ele>6.9</ele>
        <time>2022-04-22T15:30:31Z</time>
      </trkpt>
      <trkpt lat="50.10329" lon="1.82542">
        <ele>6.8</ele>
        <time>2022-04-22T15:30:32Z</time>
      </trkpt>
      <trkpt lat="50.10329" lon="1.82542">
        <ele>6.8</ele>
        <time>2022-04-22T15:30:33Z</time>
      </trkpt>
      <trkpt lat="50.10329" lon="1.82542">
        <ele>6.8</ele>
        <time>2022-04-22T15:30:34Z</time>
      </trkpt>
      <trkpt lat="50.10329" lon="1.82542">
        <ele>6.8</ele>
        <time>2022-04-22T15:30:35Z</time>
      </trkpt>
      <trkpt lat="50.10329" lon="1.82542">
        <ele>6.8</ele>
        <time>2022-04-22T15:30:36Z</time>
      </trkpt>
      <trkpt lat="50.10329" lon="1.82542">
        <ele>6.8</ele>
        <time>2022-04-22T15:30:37Z</time>
      </trkpt>
      <trkpt lat="50.10329" lon="1.82542">
        <ele>6.8</ele>
        <time>2022-04-22T15:30:38Z</time>
      </trkpt>
      <trkpt lat="50.10329" lon="1.82542">
        <ele>6.8</ele>
        <time>2022-04-22T15:30:39Z</time>
      </trkpt>
      <trkpt lat="50.10329" lon="1.82542">
        <ele>6.8</ele>
        <time>2022-04-22T15:30:40Z</time>
      </trkpt>
      <trkpt lat="50.10329" lon="1.82542">
        <ele>6.8</ele>
        <time>2022-04-22T15:30:41Z</time>
      </trkpt>
      <trkpt lat="50.10329" lon="1.82542">
        <ele>6.8</ele>
        <time>2022-04-22T15:30:42Z</time>
      </trkpt>
      <trkpt lat="50.10329" lon="1.82542">
        <ele>6.8</ele>
        <time>2022-04-22T15:30:43Z</time>
      </trkpt>
      <trkpt lat="50.10329" lon="1.82542">
        <ele>6.8</ele>
        <time>2022-04-22T15:30:44Z</time>
      </trkpt>
      <trkpt lat="50.10329" lon="1.82542">
        <ele>6.8</ele>
        <time>2022-04-22T15:30:45Z</time>
      </trkpt>
      <trkpt lat="50.10329" lon="1.82542">
        <ele>6.8</ele>
        <time>2022-04-22T15:30:46Z</time>
      </trkpt>
      <trkpt lat="50.10329" lon="1.82542">
        <ele>6.8</ele>
        <time>2022-04-22T15:30:47Z</time>
      </trkpt>
      <trkpt lat="50.10329" lon="1.82542">
        <ele>6.8</ele>
        <time>2022-04-22T15:30:48Z</time>
      </trkpt>
      <trkpt lat="50.10329" lon="1.82542">
        <ele>6.8</ele>
        <time>2022-04-22T15:30:49Z</time>
      </trkpt>
      <trkpt lat="50.10329" lon="1.82542">
        <ele>6.8</ele>
        <time>2022-04-22T15:30:50Z</time>
      </trkpt>
      <trkpt lat="50.10329" lon="1.82542">
        <ele>6.8</ele>
        <time>2022-04-22T15:30:51Z</time>
      </trkpt>
      <trkpt lat="50.10329" lon="1.82542">
        <ele>6.8</ele>
        <time>2022-04-22T15:30:52Z</time>
      </trkpt>
      <trkpt lat="50.10329" lon="1.82542">
        <ele>6.8</ele>
        <time>2022-04-22T15:30:53Z</time>
      </trkpt>
      <trkpt lat="50.10329" lon="1.82542">
        <ele>6.8</ele>
        <time>2022-04-22T15:30:54Z</time>
      </trkpt>
      <trkpt lat="50.10329" lon="1.82542">
        <ele>6.8</ele>
        <time>2022-04-22T15:30:55Z</time>
      </trkpt>
      <trkpt lat="50.10329" lon="1.82542">
        <ele>6.8</ele>
        <time>2022-04-22T15:30:56Z</time>
      </trkpt>
      <trkpt lat="50.10329" lon="1.82542">
        <ele>6.8</ele>
        <time>2022-04-22T15:30:57Z</time>
      </trkpt>
      <trkpt lat="50.10329" lon="1.82542">
        <ele>6.8</ele>
        <time>2022-04-22T15:30:58Z</time>
      </trkpt>
      <trkpt lat="50.10329" lon="1.82538">
        <ele>6.8</ele>
        <time>2022-04-22T15:30:59Z</time>
      </trkpt>
      <trkpt lat="50.10329" lon="1.82535">
        <ele>6.7</ele>
        <time>2022-04-22T15:31:00Z</time>
      </trkpt>
      <trkpt lat="50.10329" lon="1.82534">
        <ele>6.7</ele>
        <time>2022-04-22T15:31:01Z</time>
      </trkpt>
      <trkpt lat="50.1033" lon="1.82534">
        <ele>6.7</ele>
        <time>2022-04-22T15:31:02Z</time>
      </trkpt>
      <trkpt lat="50.1033" lon="1.82533">
        <ele>6.7</ele>
        <time>2022-04-22T15:31:03Z</time>
      </trkpt>
      <trkpt lat="50.10331" lon="1.82533">
        <ele>6.7</ele>
        <time>2022-04-22T15:31:04Z</time>
      </trkpt>
      <trkpt lat="50.10331" lon="1.82532">
        <ele>6.6</ele>
        <time>2022-04-22T15:31:06Z</time>
      </trkpt>
      <trkpt lat="50.10332" lon="1.82532">
        <ele>6.6</ele>
        <time>2022-04-22T15:31:07Z</time>
      </trkpt>
      <trkpt lat="50.10332" lon="1.82531">
        <ele>6.6</ele>
        <time>2022-04-22T15:31:08Z</time>
      </trkpt>
      <trkpt lat="50.10333" lon="1.82531">
        <ele>6.6</ele>
        <time>2022-04-22T15:31:09Z</time>
      </trkpt>
      <trkpt lat="50.10334" lon="1.82529">
        <ele>6.5</ele>
        <time>2022-04-22T15:31:10Z</time>
      </trkpt>
      <trkpt lat="50.10336" lon="1.82527">
        <ele>6.5</ele>
        <time>2022-04-22T15:31:11Z</time>
      </trkpt>
      <trkpt lat="50.10338" lon="1.82524">
        <ele>6.4</ele>
        <time>2022-04-22T15:31:12Z</time>
      </trkpt>
      <trkpt lat="50.10339" lon="1.82523">
        <ele>6.4</ele>
        <time>2022-04-22T15:31:13Z</time>
      </trkpt>
      <trkpt lat="50.1034" lon="1.82521">
        <ele>6.3</ele>
        <time>2022-04-22T15:31:15Z</time>
      </trkpt>
      <trkpt lat="50.10341" lon="1.82519">
        <ele>6.3</ele>
        <time>2022-04-22T15:31:16Z</time>
      </trkpt>
      <trkpt lat="50.10342" lon="1.82518">
        <ele>6.3</ele>
        <time>2022-04-22T15:31:17Z</time>
      </trkpt>
      <trkpt lat="50.10343" lon="1.82517">
        <ele>6.2</ele>
        <time>2022-04-22T15:31:18Z</time>
      </trkpt>
      <trkpt lat="50.10344" lon="1.82516">
        <ele>6.2</ele>
        <time>2022-04-22T15:31:19Z</time>
      </trkpt>
      <trkpt lat="50.10345" lon="1.82514">
        <ele>6.2</ele>
        <time>2022-04-22T15:31:20Z</time>
      </trkpt>
      <trkpt lat="50.10346" lon="1.82513">
        <ele>6.2</ele>
        <time>2022-04-22T15:31:21Z</time>
      </trkpt>
      <trkpt lat="50.10347" lon="1.82513">
        <ele>6.1</ele>
        <time>2022-04-22T15:31:22Z</time>
      </trkpt>
      <trkpt lat="50.10347" lon="1.82512">
        <ele>6.1</ele>
        <time>2022-04-22T15:31:24Z</time>
      </trkpt>
      <trkpt lat="50.10348" lon="1.82511">
        <ele>6.1</ele>
        <time>2022-04-22T15:31:25Z</time>
      </trkpt>
      <trkpt lat="50.10349" lon="1.82511">
        <ele>6.1</ele>
        <time>2022-04-22T15:31:26Z</time>
      </trkpt>
      <trkpt lat="50.10349" lon="1.8251">
        <ele>6.1</ele>
        <time>2022-04-22T15:31:27Z</time>
      </trkpt>
      <trkpt lat="50.1035" lon="1.82508">
        <ele>6</ele>
        <time>2022-04-22T15:31:28Z</time>
      </trkpt>
      <trkpt lat="50.10351" lon="1.82507">
        <ele>6</ele>
        <time>2022-04-22T15:31:29Z</time>
      </trkpt>
      <trkpt lat="50.10352" lon="1.82504">
        <ele>6</ele>
        <time>2022-04-22T15:31:30Z</time>
      </trkpt>
      <trkpt lat="50.10353" lon="1.82503">
        <ele>6</ele>
        <time>2022-04-22T15:31:32Z</time>
      </trkpt>
      <trkpt lat="50.10353" lon="1.82502">
        <ele>5.9</ele>
        <time>2022-04-22T15:31:33Z</time>
      </trkpt>
      <trkpt lat="50.10354" lon="1.825">
        <ele>5.9</ele>
        <time>2022-04-22T15:31:34Z</time>
      </trkpt>
      <trkpt lat="50.10355" lon="1.82499">
        <ele>5.9</ele>
        <time>2022-04-22T15:31:35Z</time>
      </trkpt>
      <trkpt lat="50.10355" lon="1.82498">
        <ele>5.9</ele>
        <time>2022-04-22T15:31:36Z</time>
      </trkpt>
      <trkpt lat="50.10355" lon="1.82498">
        <ele>5.9</ele>
        <time>2022-04-22T15:31:37Z</time>
      </trkpt>
      <trkpt lat="50.10355" lon="1.82497">
        <ele>5.9</ele>
        <time>2022-04-22T15:31:38Z</time>
      </trkpt>
      <trkpt lat="50.10356" lon="1.82495">
        <ele>5.9</ele>
        <time>2022-04-22T15:31:40Z</time>
      </trkpt>
      <trkpt lat="50.10357" lon="1.82494">
        <ele>5.8</ele>
        <time>2022-04-22T15:31:41Z</time>
      </trkpt>
      <trkpt lat="50.10358" lon="1.82492">
        <ele>5.8</ele>
        <time>2022-04-22T15:31:42Z</time>
      </trkpt>
      <trkpt lat="50.10359" lon="1.82491">
        <ele>5.8</ele>
        <time>2022-04-22T15:31:43Z</time>
      </trkpt>
      <trkpt lat="50.10361" lon="1.82489">
        <ele>5.8</ele>
        <time>2022-04-22T15:31:44Z</time>
      </trkpt>
      <trkpt lat="50.10362" lon="1.82488">
        <ele>5.8</ele>
        <time>2022-04-22T15:31:45Z</time>
      </trkpt>
      <trkpt lat="50.10365" lon="1.82487">
        <ele>5.7</ele>
        <time>2022-04-22T15:31:46Z</time>
      </trkpt>
      <trkpt lat="50.10367" lon="1.82485">
        <ele>5.7</ele>
        <time>2022-04-22T15:31:48Z</time>
      </trkpt>
      <trkpt lat="50.10368" lon="1.82484">
        <ele>5.7</ele>
        <time>2022-04-22T15:31:49Z</time>
      </trkpt>
      <trkpt lat="50.10369" lon="1.82482">
        <ele>5.7</ele>
        <time>2022-04-22T15:31:50Z</time>
      </trkpt>
      <trkpt lat="50.1037" lon="1.82481">
        <ele>5.7</ele>
        <time>2022-04-22T15:31:51Z</time>
      </trkpt>
      <trkpt lat="50.10371" lon="1.82479">
        <ele>5.7</ele>
        <time>2022-04-22T15:31:52Z</time>
      </trkpt>
      <trkpt lat="50.10373" lon="1.82478">
        <ele>5.6</ele>
        <time>2022-04-22T15:31:54Z</time>
      </trkpt>
      <trkpt lat="50.10374" lon="1.82476">
        <ele>5.6</ele>
        <time>2022-04-22T15:31:55Z</time>
      </trkpt>
      <trkpt lat="50.10375" lon="1.82475">
        <ele>5.6</ele>
        <time>2022-04-22T15:31:56Z</time>
      </trkpt>
      <trkpt lat="50.10376" lon="1.82473">
        <ele>5.6</ele>
        <time>2022-04-22T15:31:57Z</time>
      </trkpt>
      <trkpt lat="50.10377" lon="1.82472">
        <ele>5.6</ele>
        <time>2022-04-22T15:31:58Z</time>
      </trkpt>
      <trkpt lat="50.10378" lon="1.82471">
        <ele>5.6</ele>
        <time>2022-04-22T15:31:59Z</time>
      </trkpt>
      <trkpt lat="50.10379" lon="1.82469">
        <ele>5.6</ele>
        <time>2022-04-22T15:32:01Z</time>
      </trkpt>
      <trkpt lat="50.1038" lon="1.82468">
        <ele>5.6</ele>
        <time>2022-04-22T15:32:02Z</time>
      </trkpt>
      <trkpt lat="50.1038" lon="1.82467">
        <ele>5.6</ele>
        <time>2022-04-22T15:32:03Z</time>
      </trkpt>
      <trkpt lat="50.10381" lon="1.82466">
        <ele>5.6</ele>
        <time>2022-04-22T15:32:04Z</time>
      </trkpt>
      <trkpt lat="50.10381" lon="1.82465">
        <ele>5.6</ele>
        <time>2022-04-22T15:32:05Z</time>
      </trkpt>
      <trkpt lat="50.10382" lon="1.82464">
        <ele>5.5</ele>
        <time>2022-04-22T15:32:06Z</time>
      </trkpt>
      <trkpt lat="50.10384" lon="1.82462">
        <ele>5.5</ele>
        <time>2022-04-22T15:32:08Z</time>
      </trkpt>
      <trkpt lat="50.10384" lon="1.82461">
        <ele>5.5</ele>
        <time>2022-04-22T15:32:09Z</time>
      </trkpt>
      <trkpt lat="50.10385" lon="1.8246">
        <ele>5.5</ele>
        <time>2022-04-22T15:32:10Z</time>
      </trkpt>
      <trkpt lat="50.10386" lon="1.82459">
        <ele>5.5</ele>
        <time>2022-04-22T15:32:11Z</time>
      </trkpt>
      <trkpt lat="50.10387" lon="1.82457">
        <ele>5.5</ele>
        <time>2022-04-22T15:32:12Z</time>
      </trkpt>
      <trkpt lat="50.10388" lon="1.82455">
        <ele>5.5</ele>
        <time>2022-04-22T15:32:14Z</time>
      </trkpt>
      <trkpt lat="50.10389" lon="1.82454">
        <ele>5.5</ele>
        <time>2022-04-22T15:32:15Z</time>
      </trkpt>
      <trkpt lat="50.1039" lon="1.82453">
        <ele>5.5</ele>
        <time>2022-04-22T15:32:16Z</time>
      </trkpt>
      <trkpt lat="50.10391" lon="1.82451">
        <ele>5.5</ele>
        <time>2022-04-22T15:32:18Z</time>
      </trkpt>
      <trkpt lat="50.10392" lon="1.8245">
        <ele>5.5</ele>
        <time>2022-04-22T15:32:19Z</time>
      </trkpt>
      <trkpt lat="50.10393" lon="1.82449">
        <ele>5.5</ele>
        <time>2022-04-22T15:32:20Z</time>
      </trkpt>
      <trkpt lat="50.10394" lon="1.82448">
        <ele>5.5</ele>
        <time>2022-04-22T15:32:21Z</time>
      </trkpt>
      <trkpt lat="50.10395" lon="1.82447">
        <ele>5.5</ele>
        <time>2022-04-22T15:32:22Z</time>
      </trkpt>
      <trkpt lat="50.10396" lon="1.82444">
        <ele>5.5</ele>
        <time>2022-04-22T15:32:23Z</time>
      </trkpt>
      <trkpt lat="50.10397" lon="1.82444">
        <ele>5.4</ele>
        <time>2022-04-22T15:32:24Z</time>
      </trkpt>
      <trkpt lat="50.10398" lon="1.82442">
        <ele>5.4</ele>
        <time>2022-04-22T15:32:26Z</time>
      </trkpt>
      <trkpt lat="50.10399" lon="1.82441">
        <ele>5.4</ele>
        <time>2022-04-22T15:32:27Z</time>
      </trkpt>
      <trkpt lat="50.10401" lon="1.82438">
        <ele>5.4</ele>
        <time>2022-04-22T15:32:28Z</time>
      </trkpt>
      <trkpt lat="50.10402" lon="1.82437">
        <ele>5.4</ele>
        <time>2022-04-22T15:32:29Z</time>
      </trkpt>
      <trkpt lat="50.10403" lon="1.82436">
        <ele>5.4</ele>
        <time>2022-04-22T15:32:30Z</time>
      </trkpt>
      <trkpt lat="50.10404" lon="1.82435">
        <ele>5.4</ele>
        <time>2022-04-22T15:32:31Z</time>
      </trkpt>
      <trkpt lat="50.10405" lon="1.82433">
        <ele>5.4</ele>
        <time>2022-04-22T15:32:32Z</time>
      </trkpt>
      <trkpt lat="50.10405" lon="1.82431">
        <ele>5.4</ele>
        <time>2022-04-22T15:32:34Z</time>
      </trkpt>
      <trkpt lat="50.10406" lon="1.8243">
        <ele>5.4</ele>
        <time>2022-04-22T15:32:35Z</time>
      </trkpt>
      <trkpt lat="50.10408" lon="1.82429">
        <ele>5.4</ele>
        <time>2022-04-22T15:32:36Z</time>
      </trkpt>
      <trkpt lat="50.10409" lon="1.82428">
        <ele>5.4</ele>
        <time>2022-04-22T15:32:37Z</time>
      </trkpt>
      <trkpt lat="50.1041" lon="1.82427">
        <ele>5.4</ele>
        <time>2022-04-22T15:32:38Z</time>
      </trkpt>
      <trkpt lat="50.1041" lon="1.82427">
        <ele>5.4</ele>
        <time>2022-04-22T15:32:39Z</time>
      </trkpt>
      <trkpt lat="50.10411" lon="1.82427">
        <ele>5.4</ele>
        <time>2022-04-22T15:32:40Z</time>
      </trkpt>
      <trkpt lat="50.10412" lon="1.82426">
        <ele>5.4</ele>
        <time>2022-04-22T15:32:41Z</time>
      </trkpt>
      <trkpt lat="50.10414" lon="1.82426">
        <ele>5.4</ele>
        <time>2022-04-22T15:32:42Z</time>
      </trkpt>
      <trkpt lat="50.10415" lon="1.82427">
        <ele>5.4</ele>
        <time>2022-04-22T15:32:44Z</time>
      </trkpt>
      <trkpt lat="50.10416" lon="1.82427">
        <ele>5.4</ele>
        <time>2022-04-22T15:32:45Z</time>
      </trkpt>
      <trkpt lat="50.10417" lon="1.82427">
        <ele>5.4</ele>
        <time>2022-04-22T15:32:46Z</time>
      </trkpt>
      <trkpt lat="50.10418" lon="1.82427">
        <ele>5.4</ele>
        <time>2022-04-22T15:32:47Z</time>
      </trkpt>
      <trkpt lat="50.10419" lon="1.82425">
        <ele>5.4</ele>
        <time>2022-04-22T15:32:48Z</time>
      </trkpt>
      <trkpt lat="50.1042" lon="1.82425">
        <ele>5.4</ele>
        <time>2022-04-22T15:32:49Z</time>
      </trkpt>
      <trkpt lat="50.10421" lon="1.82424">
        <ele>5.4</ele>
        <time>2022-04-22T15:32:51Z</time>
      </trkpt>
      <trkpt lat="50.10423" lon="1.82423">
        <ele>5.4</ele>
        <time>2022-04-22T15:32:52Z</time>
      </trkpt>
      <trkpt lat="50.10424" lon="1.8242">
        <ele>5.4</ele>
        <time>2022-04-22T15:32:53Z</time>
      </trkpt>
      <trkpt lat="50.10425" lon="1.8242">
        <ele>5.4</ele>
        <time>2022-04-22T15:32:54Z</time>
      </trkpt>
      <trkpt lat="50.10426" lon="1.82419">
        <ele>5.4</ele>
        <time>2022-04-22T15:32:55Z</time>
      </trkpt>
      <trkpt lat="50.10428" lon="1.82417">
        <ele>5.4</ele>
        <time>2022-04-22T15:32:56Z</time>
      </trkpt>
      <trkpt lat="50.10428" lon="1.82416">
        <ele>5.4</ele>
        <time>2022-04-22T15:32:58Z</time>
      </trkpt>
      <trkpt lat="50.10429" lon="1.82415">
        <ele>5.4</ele>
        <time>2022-04-22T15:32:59Z</time>
      </trkpt>
      <trkpt lat="50.1043" lon="1.82414">
        <ele>5.4</ele>
        <time>2022-04-22T15:33:00Z</time>
      </trkpt>
      <trkpt lat="50.10431" lon="1.82413">
        <ele>5.4</ele>
        <time>2022-04-22T15:33:01Z</time>
      </trkpt>
      <trkpt lat="50.10433" lon="1.8241">
        <ele>5.4</ele>
        <time>2022-04-22T15:33:02Z</time>
      </trkpt>
      <trkpt lat="50.10435" lon="1.82408">
        <ele>5.4</ele>
        <time>2022-04-22T15:33:03Z</time>
      </trkpt>
      <trkpt lat="50.10433" lon="1.82408">
        <ele>5.4</ele>
        <time>2022-04-22T15:33:04Z</time>
      </trkpt>
      <trkpt lat="50.10434" lon="1.82407">
        <ele>5.4</ele>
        <time>2022-04-22T15:33:06Z</time>
      </trkpt>
      <trkpt lat="50.10434" lon="1.82405">
        <ele>5.4</ele>
        <time>2022-04-22T15:33:07Z</time>
      </trkpt>
      <trkpt lat="50.10435" lon="1.82403">
        <ele>5.4</ele>
        <time>2022-04-22T15:33:08Z</time>
      </trkpt>
      <trkpt lat="50.10436" lon="1.82402">
        <ele>5.4</ele>
        <time>2022-04-22T15:33:10Z</time>
      </trkpt>
      <trkpt lat="50.10437" lon="1.82401">
        <ele>5.4</ele>
        <time>2022-04-22T15:33:11Z</time>
      </trkpt>
      <trkpt lat="50.10439" lon="1.824">
        <ele>5.4</ele>
        <time>2022-04-22T15:33:12Z</time>
      </trkpt>
      <trkpt lat="50.1044" lon="1.82398">
        <ele>5.3</ele>
        <time>2022-04-22T15:33:13Z</time>
      </trkpt>
      <trkpt lat="50.10441" lon="1.82397">
        <ele>5.3</ele>
        <time>2022-04-22T15:33:15Z</time>
      </trkpt>
      <trkpt lat="50.10442" lon="1.82396">
        <ele>5.3</ele>
        <time>2022-04-22T15:33:16Z</time>
      </trkpt>
      <trkpt lat="50.10443" lon="1.82395">
        <ele>5.3</ele>
        <time>2022-04-22T15:33:17Z</time>
      </trkpt>
      <trkpt lat="50.10444" lon="1.82393">
        <ele>5.3</ele>
        <time>2022-04-22T15:33:18Z</time>
      </trkpt>
      <trkpt lat="50.10444" lon="1.82393">
        <ele>5.3</ele>
        <time>2022-04-22T15:33:19Z</time>
      </trkpt>
      <trkpt lat="50.10445" lon="1.82392">
        <ele>5.3</ele>
        <time>2022-04-22T15:33:20Z</time>
      </trkpt>
      <trkpt lat="50.10447" lon="1.82391">
        <ele>5.3</ele>
        <time>2022-04-22T15:33:21Z</time>
      </trkpt>
      <trkpt lat="50.10448" lon="1.8239">
        <ele>5.3</ele>
        <time>2022-04-22T15:33:23Z</time>
      </trkpt>
      <trkpt lat="50.10449" lon="1.82389">
        <ele>5.3</ele>
        <time>2022-04-22T15:33:24Z</time>
      </trkpt>
      <trkpt lat="50.1045" lon="1.82388">
        <ele>5.3</ele>
        <time>2022-04-22T15:33:25Z</time>
      </trkpt>
      <trkpt lat="50.10452" lon="1.82387">
        <ele>5.3</ele>
        <time>2022-04-22T15:33:26Z</time>
      </trkpt>
      <trkpt lat="50.10453" lon="1.82386">
        <ele>5.3</ele>
        <time>2022-04-22T15:33:27Z</time>
      </trkpt>
      <trkpt lat="50.10455" lon="1.82385">
        <ele>5.3</ele>
        <time>2022-04-22T15:33:28Z</time>
      </trkpt>
      <trkpt lat="50.10456" lon="1.82384">
        <ele>5.3</ele>
        <time>2022-04-22T15:33:30Z</time>
      </trkpt>
      <trkpt lat="50.10457" lon="1.82384">
        <ele>5.3</ele>
        <time>2022-04-22T15:33:31Z</time>
      </trkpt>
      <trkpt lat="50.10457" lon="1.82383">
        <ele>5.3</ele>
        <time>2022-04-22T15:33:32Z</time>
      </trkpt>
      <trkpt lat="50.10458" lon="1.82382">
        <ele>5.3</ele>
        <time>2022-04-22T15:33:33Z</time>
      </trkpt>
      <trkpt lat="50.10458" lon="1.82381">
        <ele>5.3</ele>
        <time>2022-04-22T15:33:34Z</time>
      </trkpt>
      <trkpt lat="50.10459" lon="1.82379">
        <ele>5.2</ele>
        <time>2022-04-22T15:33:35Z</time>
      </trkpt>
      <trkpt lat="50.1046" lon="1.82378">
        <ele>5.2</ele>
        <time>2022-04-22T15:33:36Z</time>
      </trkpt>
      <trkpt lat="50.10461" lon="1.82377">
        <ele>5.2</ele>
        <time>2022-04-22T15:33:38Z</time>
      </trkpt>
      <trkpt lat="50.10462" lon="1.82375">
        <ele>5.2</ele>
        <time>2022-04-22T15:33:39Z</time>
      </trkpt>
      <trkpt lat="50.10463" lon="1.82374">
        <ele>5.2</ele>
        <time>2022-04-22T15:33:40Z</time>
      </trkpt>
      <trkpt lat="50.10464" lon="1.82372">
        <ele>5.2</ele>
        <time>2022-04-22T15:33:41Z</time>
      </trkpt>
      <trkpt lat="50.10465" lon="1.82371">
        <ele>5.2</ele>
        <time>2022-04-22T15:33:42Z</time>
      </trkpt>
      <trkpt lat="50.10466" lon="1.8237">
        <ele>5.2</ele>
        <time>2022-04-22T15:33:43Z</time>
      </trkpt>
      <trkpt lat="50.10468" lon="1.82368">
        <ele>5.2</ele>
        <time>2022-04-22T15:33:45Z</time>
      </trkpt>
      <trkpt lat="50.10468" lon="1.82367">
        <ele>5.2</ele>
        <time>2022-04-22T15:33:46Z</time>
      </trkpt>
      <trkpt lat="50.10469" lon="1.82367">
        <ele>5.2</ele>
        <time>2022-04-22T15:33:47Z</time>
      </trkpt>
      <trkpt lat="50.1047" lon="1.82363">
        <ele>5.2</ele>
        <time>2022-04-22T15:33:48Z</time>
      </trkpt>
      <trkpt lat="50.10471" lon="1.82363">
        <ele>5.2</ele>
        <time>2022-04-22T15:33:49Z</time>
      </trkpt>
      <trkpt lat="50.10471" lon="1.82362">
        <ele>5.2</ele>
        <time>2022-04-22T15:33:50Z</time>
      </trkpt>
      <trkpt lat="50.10472" lon="1.8236">
        <ele>5.2</ele>
        <time>2022-04-22T15:33:52Z</time>
      </trkpt>
      <trkpt lat="50.10474" lon="1.82359">
        <ele>5.2</ele>
        <time>2022-04-22T15:33:53Z</time>
      </trkpt>
      <trkpt lat="50.10475" lon="1.82359">
        <ele>5.2</ele>
        <time>2022-04-22T15:33:54Z</time>
      </trkpt>
      <trkpt lat="50.10476" lon="1.82358">
        <ele>5.2</ele>
        <time>2022-04-22T15:33:55Z</time>
      </trkpt>
      <trkpt lat="50.10477" lon="1.82357">
        <ele>5.2</ele>
        <time>2022-04-22T15:33:56Z</time>
      </trkpt>
      <trkpt lat="50.10478" lon="1.82356">
        <ele>5.2</ele>
        <time>2022-04-22T15:33:58Z</time>
      </trkpt>
      <trkpt lat="50.10479" lon="1.82355">
        <ele>5.2</ele>
        <time>2022-04-22T15:33:59Z</time>
      </trkpt>
      <trkpt lat="50.10479" lon="1.82354">
        <ele>5.2</ele>
        <time>2022-04-22T15:34:00Z</time>
      </trkpt>
      <trkpt lat="50.1048" lon="1.82353">
        <ele>5.2</ele>
        <time>2022-04-22T15:34:01Z</time>
      </trkpt>
      <trkpt lat="50.10481" lon="1.82352">
        <ele>5.2</ele>
        <time>2022-04-22T15:34:02Z</time>
      </trkpt>
      <trkpt lat="50.10481" lon="1.8235">
        <ele>5.2</ele>
        <time>2022-04-22T15:34:03Z</time>
      </trkpt>
      <trkpt lat="50.10482" lon="1.82348">
        <ele>5.2</ele>
        <time>2022-04-22T15:34:04Z</time>
      </trkpt>
      <trkpt lat="50.10482" lon="1.82347">
        <ele>5.2</ele>
        <time>2022-04-22T15:34:06Z</time>
      </trkpt>
      <trkpt lat="50.10483" lon="1.82345">
        <ele>5.2</ele>
        <time>2022-04-22T15:34:07Z</time>
      </trkpt>
      <trkpt lat="50.10483" lon="1.82344">
        <ele>5.2</ele>
        <time>2022-04-22T15:34:08Z</time>
      </trkpt>
      <trkpt lat="50.10484" lon="1.82343">
        <ele>5.1</ele>
        <time>2022-04-22T15:34:09Z</time>
      </trkpt>
      <trkpt lat="50.10484" lon="1.82341">
        <ele>5.1</ele>
        <time>2022-04-22T15:34:10Z</time>
      </trkpt>
      <trkpt lat="50.10484" lon="1.8234">
        <ele>5.1</ele>
        <time>2022-04-22T15:34:11Z</time>
      </trkpt>
      <trkpt lat="50.10484" lon="1.82338">
        <ele>5.1</ele>
        <time>2022-04-22T15:34:13Z</time>
      </trkpt>
      <trkpt lat="50.10485" lon="1.82337">
        <ele>5.1</ele>
        <time>2022-04-22T15:34:14Z</time>
      </trkpt>
      <trkpt lat="50.10485" lon="1.82335">
        <ele>5.1</ele>
        <time>2022-04-22T15:34:15Z</time>
      </trkpt>
      <trkpt lat="50.10486" lon="1.82334">
        <ele>5.1</ele>
        <time>2022-04-22T15:34:16Z</time>
      </trkpt>
      <trkpt lat="50.10486" lon="1.82333">
        <ele>5.1</ele>
        <time>2022-04-22T15:34:17Z</time>
      </trkpt>
      <trkpt lat="50.10487" lon="1.82332">
        <ele>5.1</ele>
        <time>2022-04-22T15:34:18Z</time>
      </trkpt>
      <trkpt lat="50.10488" lon="1.82331">
        <ele>5.1</ele>
        <time>2022-04-22T15:34:20Z</time>
      </trkpt>
      <trkpt lat="50.10488" lon="1.82331">
        <ele>5.1</ele>
        <time>2022-04-22T15:34:21Z</time>
      </trkpt>
      <trkpt lat="50.10489" lon="1.8233">
        <ele>5.1</ele>
        <time>2022-04-22T15:34:22Z</time>
      </trkpt>
      <trkpt lat="50.1049" lon="1.82329">
        <ele>5.1</ele>
        <time>2022-04-22T15:34:23Z</time>
      </trkpt>
      <trkpt lat="50.10491" lon="1.82328">
        <ele>5.1</ele>
        <time>2022-04-22T15:34:24Z</time>
      </trkpt>
      <trkpt lat="50.10492" lon="1.82327">
        <ele>5.1</ele>
        <time>2022-04-22T15:34:25Z</time>
      </trkpt>
      <trkpt lat="50.10493" lon="1.82326">
        <ele>5.1</ele>
        <time>2022-04-22T15:34:27Z</time>
      </trkpt>
      <trkpt lat="50.10494" lon="1.82325">
        <ele>5.1</ele>
        <time>2022-04-22T15:34:28Z</time>
      </trkpt>
      <trkpt lat="50.10495" lon="1.82325">
        <ele>5.1</ele>
        <time>2022-04-22T15:34:29Z</time>
      </trkpt>
      <trkpt lat="50.10496" lon="1.82324">
        <ele>5.1</ele>
        <time>2022-04-22T15:34:30Z</time>
      </trkpt>
      <trkpt lat="50.10497" lon="1.82323">
        <ele>5.1</ele>
        <time>2022-04-22T15:34:31Z</time>
      </trkpt>
      <trkpt lat="50.10497" lon="1.82323">
        <ele>5.1</ele>
        <time>2022-04-22T15:34:32Z</time>
      </trkpt>
      <trkpt lat="50.10498" lon="1.82322">
        <ele>5.1</ele>
        <time>2022-04-22T15:34:34Z</time>
      </trkpt>
      <trkpt lat="50.10499" lon="1.82322">
        <ele>5.1</ele>
        <time>2022-04-22T15:34:35Z</time>
      </trkpt>
      <trkpt lat="50.10499" lon="1.82321">
        <ele>5.1</ele>
        <time>2022-04-22T15:34:36Z</time>
      </trkpt>
      <trkpt lat="50.105" lon="1.8232">
        <ele>5.1</ele>
        <time>2022-04-22T15:34:37Z</time>
      </trkpt>
      <trkpt lat="50.10501" lon="1.82319">
        <ele>5.1</ele>
        <time>2022-04-22T15:34:38Z</time>
      </trkpt>
      <trkpt lat="50.10503" lon="1.82317">
        <ele>5</ele>
        <time>2022-04-22T15:34:39Z</time>
      </trkpt>
      <trkpt lat="50.10503" lon="1.82316">
        <ele>5</ele>
        <time>2022-04-22T15:34:41Z</time>
      </trkpt>
      <trkpt lat="50.10504" lon="1.82315">
        <ele>5</ele>
        <time>2022-04-22T15:34:42Z</time>
      </trkpt>
      <trkpt lat="50.10505" lon="1.82314">
        <ele>5</ele>
        <time>2022-04-22T15:34:43Z</time>
      </trkpt>
      <trkpt lat="50.10507" lon="1.82314">
        <ele>5</ele>
        <time>2022-04-22T15:34:44Z</time>
      </trkpt>
      <trkpt lat="50.10509" lon="1.82313">
        <ele>5</ele>
        <time>2022-04-22T15:34:45Z</time>
      </trkpt>
      <trkpt lat="50.1051" lon="1.82312">
        <ele>5</ele>
        <time>2022-04-22T15:34:46Z</time>
      </trkpt>
      <trkpt lat="50.10511" lon="1.82312">
        <ele>5</ele>
        <time>2022-04-22T15:34:47Z</time>
      </trkpt>
      <trkpt lat="50.10513" lon="1.82311">
        <ele>5</ele>
        <time>2022-04-22T15:34:49Z</time>
      </trkpt>
      <trkpt lat="50.10513" lon="1.8231">
        <ele>5</ele>
        <time>2022-04-22T15:34:50Z</time>
      </trkpt>
      <trkpt lat="50.10514" lon="1.82309">
        <ele>5</ele>
        <time>2022-04-22T15:34:51Z</time>
      </trkpt>
      <trkpt lat="50.10515" lon="1.82309">
        <ele>5</ele>
        <time>2022-04-22T15:34:52Z</time>
      </trkpt>
      <trkpt lat="50.10517" lon="1.82308">
        <ele>5</ele>
        <time>2022-04-22T15:34:53Z</time>
      </trkpt>
      <trkpt lat="50.10518" lon="1.82307">
        <ele>5</ele>
        <time>2022-04-22T15:34:54Z</time>
      </trkpt>
      <trkpt lat="50.10519" lon="1.82307">
        <ele>5</ele>
        <time>2022-04-22T15:34:56Z</time>
      </trkpt>
      <trkpt lat="50.1052" lon="1.82306">
        <ele>5</ele>
        <time>2022-04-22T15:34:57Z</time>
      </trkpt>
      <trkpt lat="50.10521" lon="1.82305">
        <ele>5</ele>
        <time>2022-04-22T15:34:58Z</time>
      </trkpt>
      <trkpt lat="50.10522" lon="1.82304">
        <ele>5</ele>
        <time>2022-04-22T15:34:59Z</time>
      </trkpt>
      <trkpt lat="50.10523" lon="1.82303">
        <ele>5</ele>
        <time>2022-04-22T15:35:00Z</time>
      </trkpt>
      <trkpt lat="50.10524" lon="1.82302">
        <ele>5</ele>
        <time>2022-04-22T15:35:01Z</time>
      </trkpt>
      <trkpt lat="50.10525" lon="1.82301">
        <ele>5</ele>
        <time>2022-04-22T15:35:03Z</time>
      </trkpt>
      <trkpt lat="50.10525" lon="1.82297">
        <ele>5</ele>
        <time>2022-04-22T15:35:04Z</time>
      </trkpt>
      <trkpt lat="50.10526" lon="1.82297">
        <ele>5</ele>
        <time>2022-04-22T15:35:05Z</time>
      </trkpt>
      <trkpt lat="50.10527" lon="1.82296">
        <ele>5</ele>
        <time>2022-04-22T15:35:06Z</time>
      </trkpt>
      <trkpt lat="50.10528" lon="1.82294">
        <ele>5</ele>
        <time>2022-04-22T15:35:07Z</time>
      </trkpt>
      <trkpt lat="50.1053" lon="1.8229">
        <ele>5</ele>
        <time>2022-04-22T15:35:09Z</time>
      </trkpt>
      <trkpt lat="50.1053" lon="1.82288">
        <ele>5</ele>
        <time>2022-04-22T15:35:10Z</time>
      </trkpt>
      <trkpt lat="50.10531" lon="1.82286">
        <ele>5</ele>
        <time>2022-04-22T15:35:11Z</time>
      </trkpt>
      <trkpt lat="50.10532" lon="1.82285">
        <ele>5</ele>
        <time>2022-04-22T15:35:13Z</time>
      </trkpt>
      <trkpt lat="50.10534" lon="1.82283">
        <ele>5</ele>
        <time>2022-04-22T15:35:14Z</time>
      </trkpt>
      <trkpt lat="50.10534" lon="1.82284">
        <ele>5</ele>
        <time>2022-04-22T15:35:15Z</time>
      </trkpt>
      <trkpt lat="50.10536" lon="1.82284">
        <ele>5</ele>
        <time>2022-04-22T15:35:16Z</time>
      </trkpt>
      <trkpt lat="50.10537" lon="1.82284">
        <ele>5</ele>
        <time>2022-04-22T15:35:17Z</time>
      </trkpt>
      <trkpt lat="50.10538" lon="1.82284">
        <ele>5</ele>
        <time>2022-04-22T15:35:18Z</time>
      </trkpt>
      <trkpt lat="50.1054" lon="1.82283">
        <ele>5</ele>
        <time>2022-04-22T15:35:20Z</time>
      </trkpt>
      <trkpt lat="50.10541" lon="1.82283">
        <ele>5</ele>
        <time>2022-04-22T15:35:21Z</time>
      </trkpt>
      <trkpt lat="50.10541" lon="1.82282">
        <ele>5</ele>
        <time>2022-04-22T15:35:22Z</time>
      </trkpt>
      <trkpt lat="50.10542" lon="1.82282">
        <ele>5</ele>
        <time>2022-04-22T15:35:23Z</time>
      </trkpt>
      <trkpt lat="50.10543" lon="1.82281">
        <ele>5</ele>
        <time>2022-04-22T15:35:24Z</time>
      </trkpt>
      <trkpt lat="50.10544" lon="1.8228">
        <ele>5</ele>
        <time>2022-04-22T15:35:25Z</time>
      </trkpt>
      <trkpt lat="50.10546" lon="1.82279">
        <ele>5</ele>
        <time>2022-04-22T15:35:27Z</time>
      </trkpt>
      <trkpt lat="50.10547" lon="1.82279">
        <ele>5</ele>
        <time>2022-04-22T15:35:28Z</time>
      </trkpt>
      <trkpt lat="50.10548" lon="1.82279">
        <ele>5</ele>
        <time>2022-04-22T15:35:29Z</time>
      </trkpt>
      <trkpt lat="50.10548" lon="1.82279">
        <ele>5</ele>
        <time>2022-04-22T15:35:30Z</time>
      </trkpt>
      <trkpt lat="50.10549" lon="1.82279">
        <ele>5</ele>
        <time>2022-04-22T15:35:31Z</time>
      </trkpt>
      <trkpt lat="50.10549" lon="1.82279">
        <ele>5</ele>
        <time>2022-04-22T15:35:32Z</time>
      </trkpt>
      <trkpt lat="50.10551" lon="1.8228">
        <ele>5.1</ele>
        <time>2022-04-22T15:35:34Z</time>
      </trkpt>
      <trkpt lat="50.10552" lon="1.8228">
        <ele>5.1</ele>
        <time>2022-04-22T15:35:35Z</time>
      </trkpt>
      <trkpt lat="50.10553" lon="1.82279">
        <ele>5.1</ele>
        <time>2022-04-22T15:35:36Z</time>
      </trkpt>
      <trkpt lat="50.10554" lon="1.82278">
        <ele>5.1</ele>
        <time>2022-04-22T15:35:38Z</time>
      </trkpt>
      <trkpt lat="50.10555" lon="1.82277">
        <ele>5.1</ele>
        <time>2022-04-22T15:35:39Z</time>
      </trkpt>
      <trkpt lat="50.10556" lon="1.82276">
        <ele>5.1</ele>
        <time>2022-04-22T15:35:40Z</time>
      </trkpt>
      <trkpt lat="50.10557" lon="1.82276">
        <ele>5.1</ele>
        <time>2022-04-22T15:35:41Z</time>
      </trkpt>
      <trkpt lat="50.10559" lon="1.82275">
        <ele>5.1</ele>
        <time>2022-04-22T15:35:42Z</time>
      </trkpt>
      <trkpt lat="50.1056" lon="1.82275">
        <ele>5.1</ele>
        <time>2022-04-22T15:35:43Z</time>
      </trkpt>
      <trkpt lat="50.10562" lon="1.82274">
        <ele>5.1</ele>
        <time>2022-04-22T15:35:45Z</time>
      </trkpt>
      <trkpt lat="50.10563" lon="1.82273">
        <ele>5.1</ele>
        <time>2022-04-22T15:35:46Z</time>
      </trkpt>
      <trkpt lat="50.10564" lon="1.82273">
        <ele>5.1</ele>
        <time>2022-04-22T15:35:47Z</time>
      </trkpt>
      <trkpt lat="50.10566" lon="1.82272">
        <ele>5.1</ele>
        <time>2022-04-22T15:35:48Z</time>
      </trkpt>
      <trkpt lat="50.10567" lon="1.8227">
        <ele>5.1</ele>
        <time>2022-04-22T15:35:49Z</time>
      </trkpt>
      <trkpt lat="50.10567" lon="1.82269">
        <ele>5.1</ele>
        <time>2022-04-22T15:35:50Z</time>
      </trkpt>
      <trkpt lat="50.10567" lon="1.82268">
        <ele>5.1</ele>
        <time>2022-04-22T15:35:52Z</time>
      </trkpt>
      <trkpt lat="50.10568" lon="1.82267">
        <ele>5.1</ele>
        <time>2022-04-22T15:35:53Z</time>
      </trkpt>
      <trkpt lat="50.10568" lon="1.82265">
        <ele>5.1</ele>
        <time>2022-04-22T15:35:54Z</time>
      </trkpt>
      <trkpt lat="50.10569" lon="1.82265">
        <ele>5.1</ele>
        <time>2022-04-22T15:35:55Z</time>
      </trkpt>
      <trkpt lat="50.1057" lon="1.82264">
        <ele>5.1</ele>
        <time>2022-04-22T15:35:56Z</time>
      </trkpt>
      <trkpt lat="50.10571" lon="1.82263">
        <ele>5.1</ele>
        <time>2022-04-22T15:35:57Z</time>
      </trkpt>
      <trkpt lat="50.10572" lon="1.82262">
        <ele>5.1</ele>
        <time>2022-04-22T15:35:59Z</time>
      </trkpt>
      <trkpt lat="50.10573" lon="1.82261">
        <ele>5.1</ele>
        <time>2022-04-22T15:36:00Z</time>
      </trkpt>
      <trkpt lat="50.10575" lon="1.8226">
        <ele>5.1</ele>
        <time>2022-04-22T15:36:01Z</time>
      </trkpt>
      <trkpt lat="50.10576" lon="1.82259">
        <ele>5.1</ele>
        <time>2022-04-22T15:36:02Z</time>
      </trkpt>
      <trkpt lat="50.10577" lon="1.82259">
        <ele>5.1</ele>
        <time>2022-04-22T15:36:03Z</time>
      </trkpt>
      <trkpt lat="50.10578" lon="1.82256">
        <ele>5.1</ele>
        <time>2022-04-22T15:36:04Z</time>
      </trkpt>
      <trkpt lat="50.10579" lon="1.82255">
        <ele>5.1</ele>
        <time>2022-04-22T15:36:05Z</time>
      </trkpt>
      <trkpt lat="50.10581" lon="1.82253">
        <ele>5.1</ele>
        <time>2022-04-22T15:36:07Z</time>
      </trkpt>
      <trkpt lat="50.10582" lon="1.82252">
        <ele>5.1</ele>
        <time>2022-04-22T15:36:08Z</time>
      </trkpt>
      <trkpt lat="50.10583" lon="1.82251">
        <ele>5.1</ele>
        <time>2022-04-22T15:36:09Z</time>
      </trkpt>
      <trkpt lat="50.10583" lon="1.8225">
        <ele>5.1</ele>
        <time>2022-04-22T15:36:10Z</time>
      </trkpt>
      <trkpt lat="50.10585" lon="1.8225">
        <ele>5.1</ele>
        <time>2022-04-22T15:36:11Z</time>
      </trkpt>
      <trkpt lat="50.10586" lon="1.82249">
        <ele>5.1</ele>
        <time>2022-04-22T15:36:12Z</time>
      </trkpt>
      <trkpt lat="50.10587" lon="1.82246">
        <ele>5.1</ele>
        <time>2022-04-22T15:36:14Z</time>
      </trkpt>
      <trkpt lat="50.10588" lon="1.82244">
        <ele>5.1</ele>
        <time>2022-04-22T15:36:15Z</time>
      </trkpt>
      <trkpt lat="50.10589" lon="1.82243">
        <ele>5.1</ele>
        <time>2022-04-22T15:36:16Z</time>
      </trkpt>
      <trkpt lat="50.1059" lon="1.82242">
        <ele>5.1</ele>
        <time>2022-04-22T15:36:17Z</time>
      </trkpt>
      <trkpt lat="50.10591" lon="1.82242">
        <ele>5.1</ele>
        <time>2022-04-22T15:36:18Z</time>
      </trkpt>
      <trkpt lat="50.10594" lon="1.82241">
        <ele>5.1</ele>
        <time>2022-04-22T15:36:19Z</time>
      </trkpt>
      <trkpt lat="50.10595" lon="1.8224">
        <ele>5.1</ele>
        <time>2022-04-22T15:36:21Z</time>
      </trkpt>
      <trkpt lat="50.10596" lon="1.8224">
        <ele>5.1</ele>
        <time>2022-04-22T15:36:22Z</time>
      </trkpt>
      <trkpt lat="50.10597" lon="1.8224">
        <ele>5.1</ele>
        <time>2022-04-22T15:36:23Z</time>
      </trkpt>
      <trkpt lat="50.10598" lon="1.8224">
        <ele>5.1</ele>
        <time>2022-04-22T15:36:24Z</time>
      </trkpt>
      <trkpt lat="50.10599" lon="1.82239">
        <ele>5.1</ele>
        <time>2022-04-22T15:36:25Z</time>
      </trkpt>
      <trkpt lat="50.106" lon="1.82239">
        <ele>5.1</ele>
        <time>2022-04-22T15:36:26Z</time>
      </trkpt>
      <trkpt lat="50.10601" lon="1.82239">
        <ele>5.1</ele>
        <time>2022-04-22T15:36:27Z</time>
      </trkpt>
      <trkpt lat="50.10602" lon="1.82238">
        <ele>5.1</ele>
        <time>2022-04-22T15:36:29Z</time>
      </trkpt>
      <trkpt lat="50.10602" lon="1.82238">
        <ele>5.1</ele>
        <time>2022-04-22T15:36:30Z</time>
      </trkpt>
      <trkpt lat="50.10602" lon="1.82237">
        <ele>5.1</ele>
        <time>2022-04-22T15:36:31Z</time>
      </trkpt>
      <trkpt lat="50.10603" lon="1.82237">
        <ele>5.1</ele>
        <time>2022-04-22T15:36:32Z</time>
      </trkpt>
      <trkpt lat="50.10603" lon="1.82237">
        <ele>5.1</ele>
        <time>2022-04-22T15:36:33Z</time>
      </trkpt>
      <trkpt lat="50.10603" lon="1.82236">
        <ele>5.1</ele>
        <time>2022-04-22T15:36:35Z</time>
      </trkpt>
      <trkpt lat="50.10604" lon="1.82235">
        <ele>5.1</ele>
        <time>2022-04-22T15:36:36Z</time>
      </trkpt>
      <trkpt lat="50.10605" lon="1.82234">
        <ele>5.1</ele>
        <time>2022-04-22T15:36:37Z</time>
      </trkpt>
      <trkpt lat="50.10605" lon="1.82232">
        <ele>5.1</ele>
        <time>2022-04-22T15:36:38Z</time>
      </trkpt>
      <trkpt lat="50.10606" lon="1.82229">
        <ele>5.1</ele>
        <time>2022-04-22T15:36:39Z</time>
      </trkpt>
      <trkpt lat="50.10606" lon="1.82228">
        <ele>5.1</ele>
        <time>2022-04-22T15:36:40Z</time>
      </trkpt>
      <trkpt lat="50.10607" lon="1.82227">
        <ele>5.1</ele>
        <time>2022-04-22T15:36:41Z</time>
      </trkpt>
      <trkpt lat="50.10608" lon="1.82226">
        <ele>5.1</ele>
        <time>2022-04-22T15:36:43Z</time>
      </trkpt>
      <trkpt lat="50.10609" lon="1.82225">
        <ele>5.1</ele>
        <time>2022-04-22T15:36:44Z</time>
      </trkpt>
      <trkpt lat="50.1061" lon="1.82224">
        <ele>5.1</ele>
        <time>2022-04-22T15:36:45Z</time>
      </trkpt>
      <trkpt lat="50.1061" lon="1.82223">
        <ele>5.2</ele>
        <time>2022-04-22T15:36:46Z</time>
      </trkpt>
      <trkpt lat="50.10611" lon="1.82223">
        <ele>5.2</ele>
        <time>2022-04-22T15:36:47Z</time>
      </trkpt>
      <trkpt lat="50.10613" lon="1.82221">
        <ele>5.2</ele>
        <time>2022-04-22T15:36:48Z</time>
      </trkpt>
      <trkpt lat="50.10614" lon="1.82221">
        <ele>5.2</ele>
        <time>2022-04-22T15:36:50Z</time>
      </trkpt>
      <trkpt lat="50.10615" lon="1.8222">
        <ele>5.2</ele>
        <time>2022-04-22T15:36:51Z</time>
      </trkpt>
      <trkpt lat="50.10616" lon="1.82219">
        <ele>5.2</ele>
        <time>2022-04-22T15:36:52Z</time>
      </trkpt>
      <trkpt lat="50.10617" lon="1.82219">
        <ele>5.2</ele>
        <time>2022-04-22T15:36:53Z</time>
      </trkpt>
      <trkpt lat="50.10619" lon="1.82217">
        <ele>5.2</ele>
        <time>2022-04-22T15:36:54Z</time>
      </trkpt>
      <trkpt lat="50.10619" lon="1.82217">
        <ele>5.2</ele>
        <time>2022-04-22T15:36:56Z</time>
      </trkpt>
      <trkpt lat="50.1062" lon="1.82216">
        <ele>5.2</ele>
        <time>2022-04-22T15:36:57Z</time>
      </trkpt>
      <trkpt lat="50.10622" lon="1.82215">
        <ele>5.2</ele>
        <time>2022-04-22T15:36:58Z</time>
      </trkpt>
      <trkpt lat="50.10623" lon="1.82215">
        <ele>5.2</ele>
        <time>2022-04-22T15:37:00Z</time>
      </trkpt>
      <trkpt lat="50.10624" lon="1.82214">
        <ele>5.2</ele>
        <time>2022-04-22T15:37:01Z</time>
      </trkpt>
      <trkpt lat="50.10625" lon="1.82213">
        <ele>5.2</ele>
        <time>2022-04-22T15:37:02Z</time>
      </trkpt>
      <trkpt lat="50.10626" lon="1.82212">
        <ele>5.2</ele>
        <time>2022-04-22T15:37:03Z</time>
      </trkpt>
      <trkpt lat="50.10628" lon="1.82211">
        <ele>5.2</ele>
        <time>2022-04-22T15:37:04Z</time>
      </trkpt>
      <trkpt lat="50.10629" lon="1.8221">
        <ele>5.2</ele>
        <time>2022-04-22T15:37:05Z</time>
      </trkpt>
      <trkpt lat="50.10631" lon="1.82208">
        <ele>5.2</ele>
        <time>2022-04-22T15:37:07Z</time>
      </trkpt>
      <trkpt lat="50.10632" lon="1.82208">
        <ele>5.2</ele>
        <time>2022-04-22T15:37:08Z</time>
      </trkpt>
      <trkpt lat="50.10632" lon="1.82207">
        <ele>5.2</ele>
        <time>2022-04-22T15:37:09Z</time>
      </trkpt>
      <trkpt lat="50.10633" lon="1.82205">
        <ele>5.2</ele>
        <time>2022-04-22T15:37:10Z</time>
      </trkpt>
      <trkpt lat="50.10634" lon="1.82204">
        <ele>5.2</ele>
        <time>2022-04-22T15:37:11Z</time>
      </trkpt>
      <trkpt lat="50.10634" lon="1.82204">
        <ele>5.3</ele>
        <time>2022-04-22T15:37:13Z</time>
      </trkpt>
      <trkpt lat="50.10635" lon="1.82203">
        <ele>5.3</ele>
        <time>2022-04-22T15:37:14Z</time>
      </trkpt>
      <trkpt lat="50.10635" lon="1.82202">
        <ele>5.3</ele>
        <time>2022-04-22T15:37:15Z</time>
      </trkpt>
      <trkpt lat="50.10637" lon="1.82201">
        <ele>5.3</ele>
        <time>2022-04-22T15:37:16Z</time>
      </trkpt>
      <trkpt lat="50.10638" lon="1.82201">
        <ele>5.3</ele>
        <time>2022-04-22T15:37:17Z</time>
      </trkpt>
      <trkpt lat="50.10638" lon="1.822">
        <ele>5.3</ele>
        <time>2022-04-22T15:37:18Z</time>
      </trkpt>
      <trkpt lat="50.10641" lon="1.822">
        <ele>5.3</ele>
        <time>2022-04-22T15:37:20Z</time>
      </trkpt>
      <trkpt lat="50.10642" lon="1.82199">
        <ele>5.3</ele>
        <time>2022-04-22T15:37:21Z</time>
      </trkpt>
      <trkpt lat="50.10641" lon="1.82198">
        <ele>5.3</ele>
        <time>2022-04-22T15:37:22Z</time>
      </trkpt>
      <trkpt lat="50.1064" lon="1.82198">
        <ele>5.3</ele>
        <time>2022-04-22T15:37:23Z</time>
      </trkpt>
      <trkpt lat="50.10637" lon="1.82197">
        <ele>5.3</ele>
        <time>2022-04-22T15:37:25Z</time>
      </trkpt>
      <trkpt lat="50.10637" lon="1.82197">
        <ele>5.3</ele>
        <time>2022-04-22T15:37:26Z</time>
      </trkpt>
      <trkpt lat="50.10637" lon="1.82196">
        <ele>5.3</ele>
        <time>2022-04-22T15:37:27Z</time>
      </trkpt>
      <trkpt lat="50.10637" lon="1.82196">
        <ele>5.3</ele>
        <time>2022-04-22T15:37:28Z</time>
      </trkpt>
      <trkpt lat="50.10636" lon="1.82196">
        <ele>5.3</ele>
        <time>2022-04-22T15:37:29Z</time>
      </trkpt>
      <trkpt lat="50.10636" lon="1.82196">
        <ele>5.3</ele>
        <time>2022-04-22T15:37:30Z</time>
      </trkpt>
      <trkpt lat="50.10636" lon="1.82196">
        <ele>5.3</ele>
        <time>2022-04-22T15:37:31Z</time>
      </trkpt>
      <trkpt lat="50.10636" lon="1.82196">
        <ele>5.3</ele>
        <time>2022-04-22T15:37:32Z</time>
      </trkpt>
      <trkpt lat="50.10636" lon="1.82196">
        <ele>5.3</ele>
        <time>2022-04-22T15:37:33Z</time>
      </trkpt>
      <trkpt lat="50.10636" lon="1.82196">
        <ele>5.3</ele>
        <time>2022-04-22T15:37:34Z</time>
      </trkpt>
      <trkpt lat="50.10636" lon="1.82197">
        <ele>5.3</ele>
        <time>2022-04-22T15:37:35Z</time>
      </trkpt>
      <trkpt lat="50.10636" lon="1.82197">
        <ele>5.3</ele>
        <time>2022-04-22T15:37:36Z</time>
      </trkpt>
      <trkpt lat="50.10636" lon="1.82196">
        <ele>5.3</ele>
        <time>2022-04-22T15:37:37Z</time>
      </trkpt>
      <trkpt lat="50.10636" lon="1.82196">
        <ele>5.3</ele>
        <time>2022-04-22T15:37:38Z</time>
      </trkpt>
      <trkpt lat="50.10636" lon="1.82196">
        <ele>5.3</ele>
        <time>2022-04-22T15:37:39Z</time>
      </trkpt>
      <trkpt lat="50.10636" lon="1.82196">
        <ele>5.3</ele>
        <time>2022-04-22T15:37:40Z</time>
      </trkpt>
      <trkpt lat="50.10635" lon="1.82198">
        <ele>5.3</ele>
        <time>2022-04-22T15:37:41Z</time>
      </trkpt>
      <trkpt lat="50.10635" lon="1.82198">
        <ele>5.3</ele>
        <time>2022-04-22T15:37:42Z</time>
      </trkpt>
      <trkpt lat="50.10635" lon="1.82198">
        <ele>5.3</ele>
        <time>2022-04-22T15:37:43Z</time>
      </trkpt>
      <trkpt lat="50.10635" lon="1.82198">
        <ele>5.3</ele>
        <time>2022-04-22T15:37:44Z</time>
      </trkpt>
      <trkpt lat="50.10635" lon="1.82198">
        <ele>5.3</ele>
        <time>2022-04-22T15:37:45Z</time>
      </trkpt>
      <trkpt lat="50.10635" lon="1.82198">
        <ele>5.3</ele>
        <time>2022-04-22T15:37:46Z</time>
      </trkpt>
      <trkpt lat="50.10635" lon="1.82198">
        <ele>5.3</ele>
        <time>2022-04-22T15:37:47Z</time>
      </trkpt>
      <trkpt lat="50.10635" lon="1.82198">
        <ele>5.3</ele>
        <time>2022-04-22T15:37:48Z</time>
      </trkpt>
      <trkpt lat="50.10635" lon="1.82198">
        <ele>5.3</ele>
        <time>2022-04-22T15:37:49Z</time>
      </trkpt>
      <trkpt lat="50.10635" lon="1.82198">
        <ele>5.3</ele>
        <time>2022-04-22T15:37:50Z</time>
      </trkpt>
      <trkpt lat="50.10635" lon="1.82198">
        <ele>5.3</ele>
        <time>2022-04-22T15:37:51Z</time>
      </trkpt>
      <trkpt lat="50.10635" lon="1.82198">
        <ele>5.3</ele>
        <time>2022-04-22T15:37:52Z</time>
      </trkpt>
      <trkpt lat="50.10635" lon="1.82198">
        <ele>5.3</ele>
        <time>2022-04-22T15:37:53Z</time>
      </trkpt>
      <trkpt lat="50.10635" lon="1.82198">
        <ele>5.3</ele>
        <time>2022-04-22T15:37:54Z</time>
      </trkpt>
      <trkpt lat="50.10635" lon="1.82198">
        <ele>5.3</ele>
        <time>2022-04-22T15:37:55Z</time>
      </trkpt>
      <trkpt lat="50.10635" lon="1.82198">
        <ele>5.3</ele>
        <time>2022-04-22T15:37:56Z</time>
      </trkpt>
      <trkpt lat="50.10635" lon="1.82198">
        <ele>5.3</ele>
        <time>2022-04-22T15:37:57Z</time>
      </trkpt>
      <trkpt lat="50.10635" lon="1.82198">
        <ele>5.3</ele>
        <time>2022-04-22T15:37:58Z</time>
      </trkpt>
      <trkpt lat="50.10635" lon="1.82198">
        <ele>5.3</ele>
        <time>2022-04-22T15:37:59Z</time>
      </trkpt>
      <trkpt lat="50.10635" lon="1.82198">
        <ele>5.3</ele>
        <time>2022-04-22T15:38:00Z</time>
      </trkpt>
      <trkpt lat="50.10635" lon="1.82198">
        <ele>5.3</ele>
        <time>2022-04-22T15:38:01Z</time>
      </trkpt>
      <trkpt lat="50.10635" lon="1.82198">
        <ele>5.3</ele>
        <time>2022-04-22T15:38:02Z</time>
      </trkpt>
      <trkpt lat="50.10635" lon="1.82198">
        <ele>5.3</ele>
        <time>2022-04-22T15:38:03Z</time>
      </trkpt>
      <trkpt lat="50.10635" lon="1.82198">
        <ele>5.3</ele>
        <time>2022-04-22T15:38:04Z</time>
      </trkpt>
      <trkpt lat="50.10635" lon="1.82198">
        <ele>5.3</ele>
        <time>2022-04-22T15:38:05Z</time>
      </trkpt>
      <trkpt lat="50.10635" lon="1.82198">
        <ele>5.3</ele>
        <time>2022-04-22T15:38:06Z</time>
      </trkpt>
      <trkpt lat="50.10635" lon="1.82198">
        <ele>5.3</ele>
        <time>2022-04-22T15:38:07Z</time>
      </trkpt>
      <trkpt lat="50.10635" lon="1.82198">
        <ele>5.3</ele>
        <time>2022-04-22T15:38:08Z</time>
      </trkpt>
      <trkpt lat="50.10635" lon="1.82198">
        <ele>5.3</ele>
        <time>2022-04-22T15:38:09Z</time>
      </trkpt>
      <trkpt lat="50.10635" lon="1.82198">
        <ele>5.3</ele>
        <time>2022-04-22T15:38:10Z</time>
      </trkpt>
      <trkpt lat="50.10635" lon="1.82198">
        <ele>5.3</ele>
        <time>2022-04-22T15:38:11Z</time>
      </trkpt>
      <trkpt lat="50.10635" lon="1.82198">
        <ele>5.3</ele>
        <time>2022-04-22T15:38:12Z</time>
      </trkpt>
      <trkpt lat="50.10635" lon="1.82198">
        <ele>5.3</ele>
        <time>2022-04-22T15:38:13Z</time>
      </trkpt>
      <trkpt lat="50.10635" lon="1.82198">
        <ele>5.3</ele>
        <time>2022-04-22T15:38:14Z</time>
      </trkpt>
      <trkpt lat="50.10635" lon="1.82198">
        <ele>5.3</ele>
        <time>2022-04-22T15:38:15Z</time>
      </trkpt>
      <trkpt lat="50.10635" lon="1.82198">
        <ele>5.3</ele>
        <time>2022-04-22T15:38:16Z</time>
      </trkpt>
      <trkpt lat="50.10635" lon="1.82198">
        <ele>5.3</ele>
        <time>2022-04-22T15:38:17Z</time>
      </trkpt>
      <trkpt lat="50.10635" lon="1.82198">
        <ele>5.3</ele>
        <time>2022-04-22T15:38:18Z</time>
      </trkpt>
      <trkpt lat="50.10635" lon="1.82198">
        <ele>5.3</ele>
        <time>2022-04-22T15:38:19Z</time>
      </trkpt>
      <trkpt lat="50.10635" lon="1.82198">
        <ele>5.3</ele>
        <time>2022-04-22T15:38:20Z</time>
      </trkpt>
      <trkpt lat="50.10635" lon="1.82198">
        <ele>5.3</ele>
        <time>2022-04-22T15:38:21Z</time>
      </trkpt>
      <trkpt lat="50.10635" lon="1.82198">
        <ele>5.3</ele>
        <time>2022-04-22T15:38:22Z</time>
      </trkpt>
      <trkpt lat="50.10635" lon="1.82198">
        <ele>5.3</ele>
        <time>2022-04-22T15:38:23Z</time>
      </trkpt>
      <trkpt lat="50.10635" lon="1.82198">
        <ele>5.3</ele>
        <time>2022-04-22T15:38:24Z</time>
      </trkpt>
      <trkpt lat="50.10635" lon="1.82198">
        <ele>5.3</ele>
        <time>2022-04-22T15:38:25Z</time>
      </trkpt>
      <trkpt lat="50.10635" lon="1.82198">
        <ele>5.3</ele>
        <time>2022-04-22T15:38:26Z</time>
      </trkpt>
      <trkpt lat="50.10635" lon="1.82198">
        <ele>5.3</ele>
        <time>2022-04-22T15:38:27Z</time>
      </trkpt>
      <trkpt lat="50.10636" lon="1.82201">
        <ele>5.3</ele>
        <time>2022-04-22T15:38:28Z</time>
      </trkpt>
      <trkpt lat="50.10637" lon="1.82203">
        <ele>5.3</ele>
        <time>2022-04-22T15:38:29Z</time>
      </trkpt>
      <trkpt lat="50.10638" lon="1.82202">
        <ele>5.3</ele>
        <time>2022-04-22T15:38:30Z</time>
      </trkpt>
      <trkpt lat="50.10639" lon="1.82202">
        <ele>5.3</ele>
        <time>2022-04-22T15:38:31Z</time>
      </trkpt>
      <trkpt lat="50.10639" lon="1.82201">
        <ele>5.3</ele>
        <time>2022-04-22T15:38:32Z</time>
      </trkpt>
      <trkpt lat="50.10639" lon="1.822">
        <ele>5.3</ele>
        <time>2022-04-22T15:38:33Z</time>
      </trkpt>
      <trkpt lat="50.10639" lon="1.822">
        <ele>5.3</ele>
        <time>2022-04-22T15:38:34Z</time>
      </trkpt>
      <trkpt lat="50.10637" lon="1.82199">
        <ele>5.3</ele>
        <time>2022-04-22T15:38:36Z</time>
      </trkpt>
      <trkpt lat="50.10637" lon="1.82199">
        <ele>5.3</ele>
        <time>2022-04-22T15:38:38Z</time>
      </trkpt>
      <trkpt lat="50.10636" lon="1.82199">
        <ele>5.3</ele>
        <time>2022-04-22T15:38:39Z</time>
      </trkpt>
      <trkpt lat="50.10637" lon="1.82198">
        <ele>5.3</ele>
        <time>2022-04-22T15:38:40Z</time>
      </trkpt>
      <trkpt lat="50.10636" lon="1.82198">
        <ele>5.3</ele>
        <time>2022-04-22T15:38:41Z</time>
      </trkpt>
      <trkpt lat="50.10635" lon="1.82197">
        <ele>5.3</ele>
        <time>2022-04-22T15:38:42Z</time>
      </trkpt>
      <trkpt lat="50.10635" lon="1.82198">
        <ele>5.3</ele>
        <time>2022-04-22T15:38:43Z</time>
      </trkpt>
      <trkpt lat="50.10635" lon="1.82198">
        <ele>5.3</ele>
        <time>2022-04-22T15:38:44Z</time>
      </trkpt>
      <trkpt lat="50.10635" lon="1.82198">
        <ele>5.3</ele>
        <time>2022-04-22T15:38:45Z</time>
      </trkpt>
      <trkpt lat="50.10634" lon="1.82197">
        <ele>5.3</ele>
        <time>2022-04-22T15:38:46Z</time>
      </trkpt>
      <trkpt lat="50.10634" lon="1.82197">
        <ele>5.3</ele>
        <time>2022-04-22T15:38:47Z</time>
      </trkpt>
      <trkpt lat="50.10634" lon="1.82197">
        <ele>5.3</ele>
        <time>2022-04-22T15:38:48Z</time>
      </trkpt>
      <trkpt lat="50.10634" lon="1.82197">
        <ele>5.3</ele>
        <time>2022-04-22T15:38:49Z</time>
      </trkpt>
      <trkpt lat="50.10634" lon="1.82197">
        <ele>5.3</ele>
        <time>2022-04-22T15:38:50Z</time>
      </trkpt>
      <trkpt lat="50.10634" lon="1.82197">
        <ele>5.3</ele>
        <time>2022-04-22T15:38:51Z</time>
      </trkpt>
      <trkpt lat="50.10634" lon="1.82197">
        <ele>5.3</ele>
        <time>2022-04-22T15:38:52Z</time>
      </trkpt>
      <trkpt lat="50.10634" lon="1.82197">
        <ele>5.3</ele>
        <time>2022-04-22T15:38:53Z</time>
      </trkpt>
      <trkpt lat="50.10634" lon="1.82197">
        <ele>5.3</ele>
        <time>2022-04-22T15:38:54Z</time>
      </trkpt>
      <trkpt lat="50.10634" lon="1.82197">
        <ele>5.3</ele>
        <time>2022-04-22T15:38:55Z</time>
      </trkpt>
      <trkpt lat="50.10634" lon="1.82197">
        <ele>5.3</ele>
        <time>2022-04-22T15:38:56Z</time>
      </trkpt>
      <trkpt lat="50.10634" lon="1.82197">
        <ele>5.3</ele>
        <time>2022-04-22T15:38:57Z</time>
      </trkpt>
      <trkpt lat="50.10634" lon="1.82197">
        <ele>5.3</ele>
        <time>2022-04-22T15:38:58Z</time>
      </trkpt>
      <trkpt lat="50.10634" lon="1.82197">
        <ele>5.3</ele>
        <time>2022-04-22T15:38:59Z</time>
      </trkpt>
      <trkpt lat="50.10634" lon="1.822">
        <ele>5.3</ele>
        <time>2022-04-22T15:39:01Z</time>
      </trkpt>
      <trkpt lat="50.10635" lon="1.822">
        <ele>5.3</ele>
        <time>2022-04-22T15:39:02Z</time>
      </trkpt>
      <trkpt lat="50.10635" lon="1.822">
        <ele>5.3</ele>
        <time>2022-04-22T15:39:03Z</time>
      </trkpt>
      <trkpt lat="50.10636" lon="1.822">
        <ele>5.3</ele>
        <time>2022-04-22T15:39:04Z</time>
      </trkpt>
      <trkpt lat="50.10636" lon="1.822">
        <ele>5.3</ele>
        <time>2022-04-22T15:39:05Z</time>
      </trkpt>
      <trkpt lat="50.10638" lon="1.822">
        <ele>5.3</ele>
        <time>2022-04-22T15:39:06Z</time>
      </trkpt>
      <trkpt lat="50.10639" lon="1.822">
        <ele>5.3</ele>
        <time>2022-04-22T15:39:07Z</time>
      </trkpt>
      <trkpt lat="50.1064" lon="1.822">
        <ele>5.3</ele>
        <time>2022-04-22T15:39:08Z</time>
      </trkpt>
      <trkpt lat="50.1064" lon="1.822">
        <ele>5.3</ele>
        <time>2022-04-22T15:39:09Z</time>
      </trkpt>
      <trkpt lat="50.10641" lon="1.822">
        <ele>5.3</ele>
        <time>2022-04-22T15:39:10Z</time>
      </trkpt>
      <trkpt lat="50.10641" lon="1.822">
        <ele>5.3</ele>
        <time>2022-04-22T15:39:11Z</time>
      </trkpt>
      <trkpt lat="50.10642" lon="1.82201">
        <ele>5.3</ele>
        <time>2022-04-22T15:39:12Z</time>
      </trkpt>
      <trkpt lat="50.10642" lon="1.82202">
        <ele>5.3</ele>
        <time>2022-04-22T15:39:13Z</time>
      </trkpt>
      <trkpt lat="50.10642" lon="1.82202">
        <ele>5.3</ele>
        <time>2022-04-22T15:39:14Z</time>
      </trkpt>
      <trkpt lat="50.10642" lon="1.82201">
        <ele>5.3</ele>
        <time>2022-04-22T15:39:15Z</time>
      </trkpt>
      <trkpt lat="50.10642" lon="1.82198">
        <ele>5.3</ele>
        <time>2022-04-22T15:39:17Z</time>
      </trkpt>
      <trkpt lat="50.10644" lon="1.82198">
        <ele>5.3</ele>
        <time>2022-04-22T15:39:18Z</time>
      </trkpt>
      <trkpt lat="50.10645" lon="1.82198">
        <ele>5.3</ele>
        <time>2022-04-22T15:39:20Z</time>
      </trkpt>
      <trkpt lat="50.10646" lon="1.82197">
        <ele>5.3</ele>
        <time>2022-04-22T15:39:21Z</time>
      </trkpt>
      <trkpt lat="50.10648" lon="1.82197">
        <ele>5.3</ele>
        <time>2022-04-22T15:39:22Z</time>
      </trkpt>
      <trkpt lat="50.10649" lon="1.82196">
        <ele>5.4</ele>
        <time>2022-04-22T15:39:24Z</time>
      </trkpt>
      <trkpt lat="50.1065" lon="1.82196">
        <ele>5.4</ele>
        <time>2022-04-22T15:39:25Z</time>
      </trkpt>
      <trkpt lat="50.10652" lon="1.82196">
        <ele>5.4</ele>
        <time>2022-04-22T15:39:26Z</time>
      </trkpt>
      <trkpt lat="50.10652" lon="1.82195">
        <ele>5.4</ele>
        <time>2022-04-22T15:39:28Z</time>
      </trkpt>
      <trkpt lat="50.10653" lon="1.82195">
        <ele>5.4</ele>
        <time>2022-04-22T15:39:29Z</time>
      </trkpt>
      <trkpt lat="50.10654" lon="1.82195">
        <ele>5.4</ele>
        <time>2022-04-22T15:39:30Z</time>
      </trkpt>
      <trkpt lat="50.10656" lon="1.82194">
        <ele>5.4</ele>
        <time>2022-04-22T15:39:31Z</time>
      </trkpt>
      <trkpt lat="50.10657" lon="1.82193">
        <ele>5.4</ele>
        <time>2022-04-22T15:39:33Z</time>
      </trkpt>
      <trkpt lat="50.10658" lon="1.82192">
        <ele>5.4</ele>
        <time>2022-04-22T15:39:34Z</time>
      </trkpt>
      <trkpt lat="50.10659" lon="1.82192">
        <ele>5.4</ele>
        <time>2022-04-22T15:39:35Z</time>
      </trkpt>
      <trkpt lat="50.10659" lon="1.82191">
        <ele>5.4</ele>
        <time>2022-04-22T15:39:36Z</time>
      </trkpt>
      <trkpt lat="50.1066" lon="1.82191">
        <ele>5.4</ele>
        <time>2022-04-22T15:39:37Z</time>
      </trkpt>
      <trkpt lat="50.10661" lon="1.82191">
        <ele>5.4</ele>
        <time>2022-04-22T15:39:38Z</time>
      </trkpt>
      <trkpt lat="50.10661" lon="1.82191">
        <ele>5.4</ele>
        <time>2022-04-22T15:39:39Z</time>
      </trkpt>
      <trkpt lat="50.10661" lon="1.82191">
        <ele>5.4</ele>
        <time>2022-04-22T15:39:40Z</time>
      </trkpt>
      <trkpt lat="50.10662" lon="1.8219">
        <ele>5.4</ele>
        <time>2022-04-22T15:39:41Z</time>
      </trkpt>
      <trkpt lat="50.10662" lon="1.8219">
        <ele>5.4</ele>
        <time>2022-04-22T15:39:42Z</time>
      </trkpt>
      <trkpt lat="50.10662" lon="1.8219">
        <ele>5.4</ele>
        <time>2022-04-22T15:39:43Z</time>
      </trkpt>
      <trkpt lat="50.10662" lon="1.8219">
        <ele>5.4</ele>
        <time>2022-04-22T15:39:44Z</time>
      </trkpt>
      <trkpt lat="50.10663" lon="1.82189">
        <ele>5.4</ele>
        <time>2022-04-22T15:39:46Z</time>
      </trkpt>
      <trkpt lat="50.10663" lon="1.82189">
        <ele>5.4</ele>
        <time>2022-04-22T15:39:47Z</time>
      </trkpt>
      <trkpt lat="50.10663" lon="1.82189">
        <ele>5.4</ele>
        <time>2022-04-22T15:39:48Z</time>
      </trkpt>
      <trkpt lat="50.10664" lon="1.82189">
        <ele>5.4</ele>
        <time>2022-04-22T15:39:49Z</time>
      </trkpt>
      <trkpt lat="50.10664" lon="1.82188">
        <ele>5.4</ele>
        <time>2022-04-22T15:39:50Z</time>
      </trkpt>
      <trkpt lat="50.10664" lon="1.82188">
        <ele>5.4</ele>
        <time>2022-04-22T15:39:51Z</time>
      </trkpt>
      <trkpt lat="50.10664" lon="1.82188">
        <ele>5.4</ele>
        <time>2022-04-22T15:39:52Z</time>
      </trkpt>
      <trkpt lat="50.10665" lon="1.82188">
        <ele>5.4</ele>
        <time>2022-04-22T15:39:54Z</time>
      </trkpt>
      <trkpt lat="50.10666" lon="1.82187">
        <ele>5.4</ele>
        <time>2022-04-22T15:39:55Z</time>
      </trkpt>
      <trkpt lat="50.10668" lon="1.82186">
        <ele>5.4</ele>
        <time>2022-04-22T15:39:56Z</time>
      </trkpt>
      <trkpt lat="50.1067" lon="1.82186">
        <ele>5.4</ele>
        <time>2022-04-22T15:39:57Z</time>
      </trkpt>
      <trkpt lat="50.10672" lon="1.82185">
        <ele>5.4</ele>
        <time>2022-04-22T15:39:58Z</time>
      </trkpt>
      <trkpt lat="50.10673" lon="1.82184">
        <ele>5.4</ele>
        <time>2022-04-22T15:39:59Z</time>
      </trkpt>
      <trkpt lat="50.10674" lon="1.82184">
        <ele>5.4</ele>
        <time>2022-04-22T15:40:00Z</time>
      </trkpt>
      <trkpt lat="50.10675" lon="1.82183">
        <ele>5.4</ele>
        <time>2022-04-22T15:40:02Z</time>
      </trkpt>
      <trkpt lat="50.10675" lon="1.82182">
        <ele>5.4</ele>
        <time>2022-04-22T15:40:03Z</time>
      </trkpt>
      <trkpt lat="50.10676" lon="1.82182">
        <ele>5.4</ele>
        <time>2022-04-22T15:40:04Z</time>
      </trkpt>
      <trkpt lat="50.10677" lon="1.82181">
        <ele>5.3</ele>
        <time>2022-04-22T15:40:05Z</time>
      </trkpt>
      <trkpt lat="50.10677" lon="1.8218">
        <ele>5.3</ele>
        <time>2022-04-22T15:40:06Z</time>
      </trkpt>
      <trkpt lat="50.10678" lon="1.8218">
        <ele>5.3</ele>
        <time>2022-04-22T15:40:07Z</time>
      </trkpt>
      <trkpt lat="50.10679" lon="1.82178">
        <ele>5.3</ele>
        <time>2022-04-22T15:40:09Z</time>
      </trkpt>
      <trkpt lat="50.10679" lon="1.82177">
        <ele>5.3</ele>
        <time>2022-04-22T15:40:10Z</time>
      </trkpt>
      <trkpt lat="50.10679" lon="1.82176">
        <ele>5.3</ele>
        <time>2022-04-22T15:40:11Z</time>
      </trkpt>
      <trkpt lat="50.1068" lon="1.82176">
        <ele>5.3</ele>
        <time>2022-04-22T15:40:12Z</time>
      </trkpt>
      <trkpt lat="50.1068" lon="1.82175">
        <ele>5.3</ele>
        <time>2022-04-22T15:40:13Z</time>
      </trkpt>
      <trkpt lat="50.10682" lon="1.82173">
        <ele>5.3</ele>
        <time>2022-04-22T15:40:14Z</time>
      </trkpt>
      <trkpt lat="50.10683" lon="1.82173">
        <ele>5.3</ele>
        <time>2022-04-22T15:40:15Z</time>
      </trkpt>
      <trkpt lat="50.10684" lon="1.82172">
        <ele>5.3</ele>
        <time>2022-04-22T15:40:17Z</time>
      </trkpt>
      <trkpt lat="50.10685" lon="1.82171">
        <ele>5.3</ele>
        <time>2022-04-22T15:40:18Z</time>
      </trkpt>
      <trkpt lat="50.10685" lon="1.8217">
        <ele>5.3</ele>
        <time>2022-04-22T15:40:19Z</time>
      </trkpt>
      <trkpt lat="50.10686" lon="1.8217">
        <ele>5.3</ele>
        <time>2022-04-22T15:40:20Z</time>
      </trkpt>
      <trkpt lat="50.10688" lon="1.82168">
        <ele>5.3</ele>
        <time>2022-04-22T15:40:21Z</time>
      </trkpt>
      <trkpt lat="50.10689" lon="1.82167">
        <ele>5.3</ele>
        <time>2022-04-22T15:40:22Z</time>
      </trkpt>
      <trkpt lat="50.1069" lon="1.82165">
        <ele>5.3</ele>
        <time>2022-04-22T15:40:23Z</time>
      </trkpt>
      <trkpt lat="50.10691" lon="1.82163">
        <ele>5.3</ele>
        <time>2022-04-22T15:40:25Z</time>
      </trkpt>
      <trkpt lat="50.10692" lon="1.82162">
        <ele>5.3</ele>
        <time>2022-04-22T15:40:26Z</time>
      </trkpt>
      <trkpt lat="50.10693" lon="1.8216">
        <ele>5.3</ele>
        <time>2022-04-22T15:40:27Z</time>
      </trkpt>
      <trkpt lat="50.10695" lon="1.82158">
        <ele>5.3</ele>
        <time>2022-04-22T15:40:28Z</time>
      </trkpt>
      <trkpt lat="50.10695" lon="1.82157">
        <ele>5.3</ele>
        <time>2022-04-22T15:40:29Z</time>
      </trkpt>
      <trkpt lat="50.10696" lon="1.82157">
        <ele>5.3</ele>
        <time>2022-04-22T15:40:30Z</time>
      </trkpt>
      <trkpt lat="50.10698" lon="1.82154">
        <ele>5.3</ele>
        <time>2022-04-22T15:40:31Z</time>
      </trkpt>
      <trkpt lat="50.10699" lon="1.82153">
        <ele>5.3</ele>
        <time>2022-04-22T15:40:33Z</time>
      </trkpt>
      <trkpt lat="50.10701" lon="1.82152">
        <ele>5.3</ele>
        <time>2022-04-22T15:40:34Z</time>
      </trkpt>
      <trkpt lat="50.10702" lon="1.82151">
        <ele>5.3</ele>
        <time>2022-04-22T15:40:35Z</time>
      </trkpt>
      <trkpt lat="50.10703" lon="1.8215">
        <ele>5.3</ele>
        <time>2022-04-22T15:40:36Z</time>
      </trkpt>
      <trkpt lat="50.10703" lon="1.82149">
        <ele>5.3</ele>
        <time>2022-04-22T15:40:37Z</time>
      </trkpt>
      <trkpt lat="50.10704" lon="1.82148">
        <ele>5.3</ele>
        <time>2022-04-22T15:40:38Z</time>
      </trkpt>
      <trkpt lat="50.10705" lon="1.82147">
        <ele>5.3</ele>
        <time>2022-04-22T15:40:40Z</time>
      </trkpt>
      <trkpt lat="50.10706" lon="1.82146">
        <ele>5.3</ele>
        <time>2022-04-22T15:40:41Z</time>
      </trkpt>
      <trkpt lat="50.10707" lon="1.82145">
        <ele>5.3</ele>
        <time>2022-04-22T15:40:42Z</time>
      </trkpt>
      <trkpt lat="50.10708" lon="1.82145">
        <ele>5.3</ele>
        <time>2022-04-22T15:40:43Z</time>
      </trkpt>
      <trkpt lat="50.1071" lon="1.82144">
        <ele>5.3</ele>
        <time>2022-04-22T15:40:44Z</time>
      </trkpt>
      <trkpt lat="50.10711" lon="1.82143">
        <ele>5.3</ele>
        <time>2022-04-22T15:40:45Z</time>
      </trkpt>
      <trkpt lat="50.10712" lon="1.82143">
        <ele>5.3</ele>
        <time>2022-04-22T15:40:46Z</time>
      </trkpt>
      <trkpt lat="50.10713" lon="1.82142">
        <ele>5.3</ele>
        <time>2022-04-22T15:40:48Z</time>
      </trkpt>
      <trkpt lat="50.10714" lon="1.82141">
        <ele>5.3</ele>
        <time>2022-04-22T15:40:49Z</time>
      </trkpt>
      <trkpt lat="50.10715" lon="1.8214">
        <ele>5.3</ele>
        <time>2022-04-22T15:40:50Z</time>
      </trkpt>
      <trkpt lat="50.10717" lon="1.82141">
        <ele>5.3</ele>
        <time>2022-04-22T15:40:51Z</time>
      </trkpt>
      <trkpt lat="50.10718" lon="1.8214">
        <ele>5.3</ele>
        <time>2022-04-22T15:40:52Z</time>
      </trkpt>
      <trkpt lat="50.10719" lon="1.8214">
        <ele>5.3</ele>
        <time>2022-04-22T15:40:53Z</time>
      </trkpt>
      <trkpt lat="50.1072" lon="1.82139">
        <ele>5.3</ele>
        <time>2022-04-22T15:40:55Z</time>
      </trkpt>
      <trkpt lat="50.1072" lon="1.82138">
        <ele>5.3</ele>
        <time>2022-04-22T15:40:56Z</time>
      </trkpt>
      <trkpt lat="50.10722" lon="1.82139">
        <ele>5.3</ele>
        <time>2022-04-22T15:40:57Z</time>
      </trkpt>
      <trkpt lat="50.10723" lon="1.82138">
        <ele>5.3</ele>
        <time>2022-04-22T15:40:58Z</time>
      </trkpt>
      <trkpt lat="50.10724" lon="1.82138">
        <ele>5.3</ele>
        <time>2022-04-22T15:40:59Z</time>
      </trkpt>
      <trkpt lat="50.10725" lon="1.82136">
        <ele>5.3</ele>
        <time>2022-04-22T15:41:00Z</time>
      </trkpt>
      <trkpt lat="50.10726" lon="1.82138">
        <ele>5.3</ele>
        <time>2022-04-22T15:41:02Z</time>
      </trkpt>
      <trkpt lat="50.10726" lon="1.82137">
        <ele>5.3</ele>
        <time>2022-04-22T15:41:03Z</time>
      </trkpt>
      <trkpt lat="50.10727" lon="1.82136">
        <ele>5.3</ele>
        <time>2022-04-22T15:41:04Z</time>
      </trkpt>
      <trkpt lat="50.10728" lon="1.82135">
        <ele>5.3</ele>
        <time>2022-04-22T15:41:05Z</time>
      </trkpt>
      <trkpt lat="50.1073" lon="1.82134">
        <ele>5.3</ele>
        <time>2022-04-22T15:41:06Z</time>
      </trkpt>
      <trkpt lat="50.10731" lon="1.82133">
        <ele>5.3</ele>
        <time>2022-04-22T15:41:07Z</time>
      </trkpt>
      <trkpt lat="50.10732" lon="1.82132">
        <ele>5.3</ele>
        <time>2022-04-22T15:41:08Z</time>
      </trkpt>
      <trkpt lat="50.10733" lon="1.82131">
        <ele>5.3</ele>
        <time>2022-04-22T15:41:10Z</time>
      </trkpt>
      <trkpt lat="50.10733" lon="1.82131">
        <ele>5.3</ele>
        <time>2022-04-22T15:41:11Z</time>
      </trkpt>
      <trkpt lat="50.10734" lon="1.8213">
        <ele>5.3</ele>
        <time>2022-04-22T15:41:12Z</time>
      </trkpt>
      <trkpt lat="50.10735" lon="1.8213">
        <ele>5.3</ele>
        <time>2022-04-22T15:41:13Z</time>
      </trkpt>
      <trkpt lat="50.10736" lon="1.82129">
        <ele>5.3</ele>
        <time>2022-04-22T15:41:14Z</time>
      </trkpt>
      <trkpt lat="50.10737" lon="1.82128">
        <ele>5.3</ele>
        <time>2022-04-22T15:41:15Z</time>
      </trkpt>
      <trkpt lat="50.10737" lon="1.82125">
        <ele>5.3</ele>
        <time>2022-04-22T15:41:17Z</time>
      </trkpt>
      <trkpt lat="50.10738" lon="1.82124">
        <ele>5.3</ele>
        <time>2022-04-22T15:41:18Z</time>
      </trkpt>
      <trkpt lat="50.10739" lon="1.82123">
        <ele>5.3</ele>
        <time>2022-04-22T15:41:19Z</time>
      </trkpt>
      <trkpt lat="50.1074" lon="1.82122">
        <ele>5.3</ele>
        <time>2022-04-22T15:41:20Z</time>
      </trkpt>
      <trkpt lat="50.1074" lon="1.8212">
        <ele>5.3</ele>
        <time>2022-04-22T15:41:22Z</time>
      </trkpt>
      <trkpt lat="50.10741" lon="1.8212">
        <ele>5.3</ele>
        <time>2022-04-22T15:41:23Z</time>
      </trkpt>
      <trkpt lat="50.10742" lon="1.82119">
        <ele>5.3</ele>
        <time>2022-04-22T15:41:24Z</time>
      </trkpt>
      <trkpt lat="50.10744" lon="1.82116">
        <ele>5.3</ele>
        <time>2022-04-22T15:41:25Z</time>
      </trkpt>
      <trkpt lat="50.10745" lon="1.82115">
        <ele>5.3</ele>
        <time>2022-04-22T15:41:26Z</time>
      </trkpt>
      <trkpt lat="50.10745" lon="1.82114">
        <ele>5.3</ele>
        <time>2022-04-22T15:41:27Z</time>
      </trkpt>
      <trkpt lat="50.10747" lon="1.82112">
        <ele>5.3</ele>
        <time>2022-04-22T15:41:29Z</time>
      </trkpt>
      <trkpt lat="50.10748" lon="1.82112">
        <ele>5.3</ele>
        <time>2022-04-22T15:41:30Z</time>
      </trkpt>
      <trkpt lat="50.10748" lon="1.82111">
        <ele>5.3</ele>
        <time>2022-04-22T15:41:31Z</time>
      </trkpt>
      <trkpt lat="50.10751" lon="1.82109">
        <ele>5.3</ele>
        <time>2022-04-22T15:41:32Z</time>
      </trkpt>
      <trkpt lat="50.10751" lon="1.82108">
        <ele>5.3</ele>
        <time>2022-04-22T15:41:33Z</time>
      </trkpt>
      <trkpt lat="50.10752" lon="1.82108">
        <ele>5.3</ele>
        <time>2022-04-22T15:41:34Z</time>
      </trkpt>
      <trkpt lat="50.10753" lon="1.82107">
        <ele>5.3</ele>
        <time>2022-04-22T15:41:35Z</time>
      </trkpt>
      <trkpt lat="50.10755" lon="1.82106">
        <ele>5.3</ele>
        <time>2022-04-22T15:41:37Z</time>
      </trkpt>
      <trkpt lat="50.10755" lon="1.82105">
        <ele>5.3</ele>
        <time>2022-04-22T15:41:38Z</time>
      </trkpt>
      <trkpt lat="50.10756" lon="1.82105">
        <ele>5.3</ele>
        <time>2022-04-22T15:41:39Z</time>
      </trkpt>
      <trkpt lat="50.10757" lon="1.82104">
        <ele>5.2</ele>
        <time>2022-04-22T15:41:40Z</time>
      </trkpt>
      <trkpt lat="50.10759" lon="1.82102">
        <ele>5.2</ele>
        <time>2022-04-22T15:41:41Z</time>
      </trkpt>
      <trkpt lat="50.1076" lon="1.82101">
        <ele>5.2</ele>
        <time>2022-04-22T15:41:42Z</time>
      </trkpt>
      <trkpt lat="50.10761" lon="1.821">
        <ele>5.2</ele>
        <time>2022-04-22T15:41:44Z</time>
      </trkpt>
      <trkpt lat="50.10762" lon="1.82099">
        <ele>5.2</ele>
        <time>2022-04-22T15:41:45Z</time>
      </trkpt>
      <trkpt lat="50.10763" lon="1.82099">
        <ele>5.2</ele>
        <time>2022-04-22T15:41:46Z</time>
      </trkpt>
      <trkpt lat="50.10764" lon="1.82098">
        <ele>5.2</ele>
        <time>2022-04-22T15:41:47Z</time>
      </trkpt>
      <trkpt lat="50.10763" lon="1.82098">
        <ele>5.2</ele>
        <time>2022-04-22T15:41:48Z</time>
      </trkpt>
      <trkpt lat="50.10763" lon="1.82098">
        <ele>5.2</ele>
        <time>2022-04-22T15:41:50Z</time>
      </trkpt>
      <trkpt lat="50.10764" lon="1.82097">
        <ele>5.2</ele>
        <time>2022-04-22T15:41:51Z</time>
      </trkpt>
      <trkpt lat="50.10765" lon="1.82096">
        <ele>5.2</ele>
        <time>2022-04-22T15:41:52Z</time>
      </trkpt>
      <trkpt lat="50.10766" lon="1.82096">
        <ele>5.2</ele>
        <time>2022-04-22T15:41:54Z</time>
      </trkpt>
      <trkpt lat="50.10766" lon="1.82096">
        <ele>5.2</ele>
        <time>2022-04-22T15:41:55Z</time>
      </trkpt>
      <trkpt lat="50.10765" lon="1.82097">
        <ele>5.2</ele>
        <time>2022-04-22T15:41:56Z</time>
      </trkpt>
      <trkpt lat="50.10764" lon="1.82098">
        <ele>5.2</ele>
        <time>2022-04-22T15:41:57Z</time>
      </trkpt>
      <trkpt lat="50.10764" lon="1.82097">
        <ele>5.2</ele>
        <time>2022-04-22T15:41:58Z</time>
      </trkpt>
      <trkpt lat="50.10764" lon="1.82097">
        <ele>5.2</ele>
        <time>2022-04-22T15:41:59Z</time>
      </trkpt>
      <trkpt lat="50.10763" lon="1.82097">
        <ele>5.2</ele>
        <time>2022-04-22T15:42:00Z</time>
      </trkpt>
      <trkpt lat="50.10763" lon="1.82097">
        <ele>5.2</ele>
        <time>2022-04-22T15:42:01Z</time>
      </trkpt>
      <trkpt lat="50.10763" lon="1.82097">
        <ele>5.2</ele>
        <time>2022-04-22T15:42:02Z</time>
      </trkpt>
      <trkpt lat="50.10763" lon="1.82097">
        <ele>5.2</ele>
        <time>2022-04-22T15:42:03Z</time>
      </trkpt>
      <trkpt lat="50.10763" lon="1.82097">
        <ele>5.2</ele>
        <time>2022-04-22T15:42:04Z</time>
      </trkpt>
      <trkpt lat="50.10763" lon="1.82097">
        <ele>5.2</ele>
        <time>2022-04-22T15:42:05Z</time>
      </trkpt>
      <trkpt lat="50.10763" lon="1.82097">
        <ele>5.2</ele>
        <time>2022-04-22T15:42:06Z</time>
      </trkpt>
      <trkpt lat="50.10763" lon="1.82097">
        <ele>5.2</ele>
        <time>2022-04-22T15:42:07Z</time>
      </trkpt>
      <trkpt lat="50.10763" lon="1.82097">
        <ele>5.2</ele>
        <time>2022-04-22T15:42:08Z</time>
      </trkpt>
      <trkpt lat="50.10763" lon="1.82097">
        <ele>5.2</ele>
        <time>2022-04-22T15:42:09Z</time>
      </trkpt>
      <trkpt lat="50.10763" lon="1.82097">
        <ele>5.2</ele>
        <time>2022-04-22T15:42:10Z</time>
      </trkpt>
      <trkpt lat="50.10762" lon="1.82097">
        <ele>5.2</ele>
        <time>2022-04-22T15:42:11Z</time>
      </trkpt>
      <trkpt lat="50.10762" lon="1.82097">
        <ele>5.2</ele>
        <time>2022-04-22T15:42:12Z</time>
      </trkpt>
      <trkpt lat="50.10762" lon="1.82097">
        <ele>5.2</ele>
        <time>2022-04-22T15:42:13Z</time>
      </trkpt>
      <trkpt lat="50.10762" lon="1.82097">
        <ele>5.2</ele>
        <time>2022-04-22T15:42:14Z</time>
      </trkpt>
      <trkpt lat="50.10762" lon="1.82097">
        <ele>5.2</ele>
        <time>2022-04-22T15:42:15Z</time>
      </trkpt>
      <trkpt lat="50.10762" lon="1.82097">
        <ele>5.2</ele>
        <time>2022-04-22T15:42:16Z</time>
      </trkpt>
      <trkpt lat="50.10762" lon="1.82097">
        <ele>5.2</ele>
        <time>2022-04-22T15:42:17Z</time>
      </trkpt>
      <trkpt lat="50.10762" lon="1.82097">
        <ele>5.2</ele>
        <time>2022-04-22T15:42:18Z</time>
      </trkpt>
      <trkpt lat="50.10762" lon="1.82097">
        <ele>5.2</ele>
        <time>2022-04-22T15:42:19Z</time>
      </trkpt>
      <trkpt lat="50.10762" lon="1.82097">
        <ele>5.2</ele>
        <time>2022-04-22T15:42:20Z</time>
      </trkpt>
      <trkpt lat="50.10762" lon="1.82097">
        <ele>5.2</ele>
        <time>2022-04-22T15:42:21Z</time>
      </trkpt>
      <trkpt lat="50.10762" lon="1.82097">
        <ele>5.2</ele>
        <time>2022-04-22T15:42:22Z</time>
      </trkpt>
      <trkpt lat="50.10762" lon="1.82097">
        <ele>5.2</ele>
        <time>2022-04-22T15:42:23Z</time>
      </trkpt>
      <trkpt lat="50.10761" lon="1.82098">
        <ele>5.2</ele>
        <time>2022-04-22T15:42:24Z</time>
      </trkpt>
      <trkpt lat="50.1076" lon="1.82099">
        <ele>5.2</ele>
        <time>2022-04-22T15:42:25Z</time>
      </trkpt>
      <trkpt lat="50.1076" lon="1.82099">
        <ele>5.2</ele>
        <time>2022-04-22T15:42:26Z</time>
      </trkpt>
      <trkpt lat="50.10761" lon="1.82099">
        <ele>5.2</ele>
        <time>2022-04-22T15:42:27Z</time>
      </trkpt>
      <trkpt lat="50.10761" lon="1.82098">
        <ele>5.2</ele>
        <time>2022-04-22T15:42:28Z</time>
      </trkpt>
      <trkpt lat="50.10761" lon="1.82097">
        <ele>5.2</ele>
        <time>2022-04-22T15:42:29Z</time>
      </trkpt>
      <trkpt lat="50.10763" lon="1.82095">
        <ele>5.2</ele>
        <time>2022-04-22T15:42:31Z</time>
      </trkpt>
      <trkpt lat="50.10764" lon="1.82094">
        <ele>5.2</ele>
        <time>2022-04-22T15:42:32Z</time>
      </trkpt>
      <trkpt lat="50.10766" lon="1.82093">
        <ele>5.2</ele>
        <time>2022-04-22T15:42:33Z</time>
      </trkpt>
      <trkpt lat="50.10767" lon="1.82092">
        <ele>5.2</ele>
        <time>2022-04-22T15:42:34Z</time>
      </trkpt>
      <trkpt lat="50.10767" lon="1.82091">
        <ele>5.2</ele>
        <time>2022-04-22T15:42:35Z</time>
      </trkpt>
      <trkpt lat="50.10768" lon="1.8209">
        <ele>5.2</ele>
        <time>2022-04-22T15:42:36Z</time>
      </trkpt>
      <trkpt lat="50.10769" lon="1.82089">
        <ele>5.2</ele>
        <time>2022-04-22T15:42:38Z</time>
      </trkpt>
      <trkpt lat="50.1077" lon="1.82088">
        <ele>5.2</ele>
        <time>2022-04-22T15:42:39Z</time>
      </trkpt>
      <trkpt lat="50.10772" lon="1.82086">
        <ele>5.2</ele>
        <time>2022-04-22T15:42:40Z</time>
      </trkpt>
      <trkpt lat="50.10773" lon="1.82085">
        <ele>5.2</ele>
        <time>2022-04-22T15:42:41Z</time>
      </trkpt>
      <trkpt lat="50.10774" lon="1.82084">
        <ele>5.2</ele>
        <time>2022-04-22T15:42:42Z</time>
      </trkpt>
      <trkpt lat="50.10776" lon="1.82083">
        <ele>5.2</ele>
        <time>2022-04-22T15:42:43Z</time>
      </trkpt>
      <trkpt lat="50.10777" lon="1.82083">
        <ele>5.2</ele>
        <time>2022-04-22T15:42:45Z</time>
      </trkpt>
      <trkpt lat="50.10777" lon="1.82083">
        <ele>5.3</ele>
        <time>2022-04-22T15:42:46Z</time>
      </trkpt>
      <trkpt lat="50.10778" lon="1.82082">
        <ele>5.3</ele>
        <time>2022-04-22T15:42:47Z</time>
      </trkpt>
      <trkpt lat="50.1078" lon="1.82082">
        <ele>5.3</ele>
        <time>2022-04-22T15:42:48Z</time>
      </trkpt>
      <trkpt lat="50.10783" lon="1.82081">
        <ele>5.3</ele>
        <time>2022-04-22T15:42:49Z</time>
      </trkpt>
      <trkpt lat="50.10784" lon="1.82079">
        <ele>5.3</ele>
        <time>2022-04-22T15:42:50Z</time>
      </trkpt>
      <trkpt lat="50.10784" lon="1.82078">
        <ele>5.3</ele>
        <time>2022-04-22T15:42:51Z</time>
      </trkpt>
      <trkpt lat="50.10785" lon="1.82077">
        <ele>5.3</ele>
        <time>2022-04-22T15:42:53Z</time>
      </trkpt>
      <trkpt lat="50.10785" lon="1.82076">
        <ele>5.3</ele>
        <time>2022-04-22T15:42:54Z</time>
      </trkpt>
      <trkpt lat="50.10785" lon="1.82075">
        <ele>5.3</ele>
        <time>2022-04-22T15:42:55Z</time>
      </trkpt>
      <trkpt lat="50.10786" lon="1.82074">
        <ele>5.3</ele>
        <time>2022-04-22T15:42:56Z</time>
      </trkpt>
      <trkpt lat="50.10786" lon="1.82073">
        <ele>5.3</ele>
        <time>2022-04-22T15:42:57Z</time>
      </trkpt>
      <trkpt lat="50.10787" lon="1.82071">
        <ele>5.3</ele>
        <time>2022-04-22T15:42:58Z</time>
      </trkpt>
      <trkpt lat="50.10788" lon="1.8207">
        <ele>5.3</ele>
        <time>2022-04-22T15:43:00Z</time>
      </trkpt>
      <trkpt lat="50.10788" lon="1.82068">
        <ele>5.3</ele>
        <time>2022-04-22T15:43:01Z</time>
      </trkpt>
      <trkpt lat="50.10789" lon="1.82066">
        <ele>5.3</ele>
        <time>2022-04-22T15:43:02Z</time>
      </trkpt>
      <trkpt lat="50.1079" lon="1.82064">
        <ele>5.3</ele>
        <time>2022-04-22T15:43:03Z</time>
      </trkpt>
      <trkpt lat="50.10791" lon="1.82063">
        <ele>5.3</ele>
        <time>2022-04-22T15:43:04Z</time>
      </trkpt>
      <trkpt lat="50.10792" lon="1.82061">
        <ele>5.3</ele>
        <time>2022-04-22T15:43:05Z</time>
      </trkpt>
      <trkpt lat="50.10793" lon="1.82059">
        <ele>5.3</ele>
        <time>2022-04-22T15:43:06Z</time>
      </trkpt>
      <trkpt lat="50.10794" lon="1.82058">
        <ele>5.3</ele>
        <time>2022-04-22T15:43:08Z</time>
      </trkpt>
      <trkpt lat="50.10795" lon="1.82056">
        <ele>5.2</ele>
        <time>2022-04-22T15:43:09Z</time>
      </trkpt>
      <trkpt lat="50.10796" lon="1.82055">
        <ele>5.2</ele>
        <time>2022-04-22T15:43:10Z</time>
      </trkpt>
      <trkpt lat="50.10798" lon="1.82053">
        <ele>5.2</ele>
        <time>2022-04-22T15:43:11Z</time>
      </trkpt>
      <trkpt lat="50.10799" lon="1.82052">
        <ele>5.2</ele>
        <time>2022-04-22T15:43:12Z</time>
      </trkpt>
      <trkpt lat="50.108" lon="1.82051">
        <ele>5.2</ele>
        <time>2022-04-22T15:43:13Z</time>
      </trkpt>
      <trkpt lat="50.10801" lon="1.8205">
        <ele>5.2</ele>
        <time>2022-04-22T15:43:14Z</time>
      </trkpt>
      <trkpt lat="50.10802" lon="1.82049">
        <ele>5.2</ele>
        <time>2022-04-22T15:43:16Z</time>
      </trkpt>
      <trkpt lat="50.10803" lon="1.82049">
        <ele>5.2</ele>
        <time>2022-04-22T15:43:17Z</time>
      </trkpt>
      <trkpt lat="50.10805" lon="1.82049">
        <ele>5.2</ele>
        <time>2022-04-22T15:43:18Z</time>
      </trkpt>
      <trkpt lat="50.10806" lon="1.82049">
        <ele>5.2</ele>
        <time>2022-04-22T15:43:19Z</time>
      </trkpt>
      <trkpt lat="50.10808" lon="1.82048">
        <ele>5.2</ele>
        <time>2022-04-22T15:43:20Z</time>
      </trkpt>
      <trkpt lat="50.10809" lon="1.82047">
        <ele>5.2</ele>
        <time>2022-04-22T15:43:21Z</time>
      </trkpt>
      <trkpt lat="50.10811" lon="1.82047">
        <ele>5.2</ele>
        <time>2022-04-22T15:43:22Z</time>
      </trkpt>
      <trkpt lat="50.10812" lon="1.82047">
        <ele>5.2</ele>
        <time>2022-04-22T15:43:24Z</time>
      </trkpt>
      <trkpt lat="50.10813" lon="1.82046">
        <ele>5.2</ele>
        <time>2022-04-22T15:43:25Z</time>
      </trkpt>
      <trkpt lat="50.10813" lon="1.82045">
        <ele>5.2</ele>
        <time>2022-04-22T15:43:26Z</time>
      </trkpt>
      <trkpt lat="50.10814" lon="1.82045">
        <ele>5.2</ele>
        <time>2022-04-22T15:43:27Z</time>
      </trkpt>
      <trkpt lat="50.10816" lon="1.82041">
        <ele>5.2</ele>
        <time>2022-04-22T15:43:28Z</time>
      </trkpt>
      <trkpt lat="50.10817" lon="1.8204">
        <ele>5.2</ele>
        <time>2022-04-22T15:43:29Z</time>
      </trkpt>
      <trkpt lat="50.10818" lon="1.82039">
        <ele>5.2</ele>
        <time>2022-04-22T15:43:31Z</time>
      </trkpt>
      <trkpt lat="50.10819" lon="1.82038">
        <ele>5.2</ele>
        <time>2022-04-22T15:43:32Z</time>
      </trkpt>
      <trkpt lat="50.10822" lon="1.82035">
        <ele>5.2</ele>
        <time>2022-04-22T15:43:33Z</time>
      </trkpt>
      <trkpt lat="50.10823" lon="1.82035">
        <ele>5.2</ele>
        <time>2022-04-22T15:43:35Z</time>
      </trkpt>
      <trkpt lat="50.10824" lon="1.82034">
        <ele>5.2</ele>
        <time>2022-04-22T15:43:36Z</time>
      </trkpt>
      <trkpt lat="50.10825" lon="1.82034">
        <ele>5.2</ele>
        <time>2022-04-22T15:43:37Z</time>
      </trkpt>
      <trkpt lat="50.10826" lon="1.82034">
        <ele>5.2</ele>
        <time>2022-04-22T15:43:38Z</time>
      </trkpt>
      <trkpt lat="50.10828" lon="1.82033">
        <ele>5.2</ele>
        <time>2022-04-22T15:43:39Z</time>
      </trkpt>
      <trkpt lat="50.10829" lon="1.82032">
        <ele>5.2</ele>
        <time>2022-04-22T15:43:40Z</time>
      </trkpt>
      <trkpt lat="50.1083" lon="1.82031">
        <ele>5.2</ele>
        <time>2022-04-22T15:43:41Z</time>
      </trkpt>
      <trkpt lat="50.10831" lon="1.82031">
        <ele>5.2</ele>
        <time>2022-04-22T15:43:42Z</time>
      </trkpt>
      <trkpt lat="50.1083" lon="1.8203">
        <ele>5.2</ele>
        <time>2022-04-22T15:43:44Z</time>
      </trkpt>
      <trkpt lat="50.10831" lon="1.8203">
        <ele>5.2</ele>
        <time>2022-04-22T15:43:45Z</time>
      </trkpt>
      <trkpt lat="50.10831" lon="1.82029">
        <ele>5.2</ele>
        <time>2022-04-22T15:43:46Z</time>
      </trkpt>
      <trkpt lat="50.10831" lon="1.82029">
        <ele>5.2</ele>
        <time>2022-04-22T15:43:47Z</time>
      </trkpt>
      <trkpt lat="50.10831" lon="1.8203">
        <ele>5.2</ele>
        <time>2022-04-22T15:43:48Z</time>
      </trkpt>
      <trkpt lat="50.10832" lon="1.8203">
        <ele>5.2</ele>
        <time>2022-04-22T15:43:49Z</time>
      </trkpt>
      <trkpt lat="50.10833" lon="1.82029">
        <ele>5.2</ele>
        <time>2022-04-22T15:43:50Z</time>
      </trkpt>
      <trkpt lat="50.10836" lon="1.82028">
        <ele>5.2</ele>
        <time>2022-04-22T15:43:52Z</time>
      </trkpt>
      <trkpt lat="50.10837" lon="1.82026">
        <ele>5.2</ele>
        <time>2022-04-22T15:43:53Z</time>
      </trkpt>
      <trkpt lat="50.10838" lon="1.82026">
        <ele>5.2</ele>
        <time>2022-04-22T15:43:54Z</time>
      </trkpt>
      <trkpt lat="50.10839" lon="1.82025">
        <ele>5.2</ele>
        <time>2022-04-22T15:43:55Z</time>
      </trkpt>
      <trkpt lat="50.1084" lon="1.82024">
        <ele>5.2</ele>
        <time>2022-04-22T15:43:56Z</time>
      </trkpt>
      <trkpt lat="50.10841" lon="1.82023">
        <ele>5.2</ele>
        <time>2022-04-22T15:43:57Z</time>
      </trkpt>
      <trkpt lat="50.10843" lon="1.82022">
        <ele>5.2</ele>
        <time>2022-04-22T15:43:59Z</time>
      </trkpt>
      <trkpt lat="50.10844" lon="1.82021">
        <ele>5.2</ele>
        <time>2022-04-22T15:44:00Z</time>
      </trkpt>
      <trkpt lat="50.10845" lon="1.8202">
        <ele>5.2</ele>
        <time>2022-04-22T15:44:01Z</time>
      </trkpt>
      <trkpt lat="50.10846" lon="1.8202">
        <ele>5.2</ele>
        <time>2022-04-22T15:44:02Z</time>
      </trkpt>
      <trkpt lat="50.10847" lon="1.82019">
        <ele>5.2</ele>
        <time>2022-04-22T15:44:03Z</time>
      </trkpt>
      <trkpt lat="50.10848" lon="1.82018">
        <ele>5.2</ele>
        <time>2022-04-22T15:44:04Z</time>
      </trkpt>
      <trkpt lat="50.10849" lon="1.82018">
        <ele>5.2</ele>
        <time>2022-04-22T15:44:05Z</time>
      </trkpt>
      <trkpt lat="50.10851" lon="1.82017">
        <ele>5.2</ele>
        <time>2022-04-22T15:44:07Z</time>
      </trkpt>
      <trkpt lat="50.10852" lon="1.82016">
        <ele>5.2</ele>
        <time>2022-04-22T15:44:08Z</time>
      </trkpt>
      <trkpt lat="50.10853" lon="1.82016">
        <ele>5.2</ele>
        <time>2022-04-22T15:44:09Z</time>
      </trkpt>
      <trkpt lat="50.10854" lon="1.82015">
        <ele>5.2</ele>
        <time>2022-04-22T15:44:11Z</time>
      </trkpt>
      <trkpt lat="50.10856" lon="1.82015">
        <ele>5.2</ele>
        <time>2022-04-22T15:44:12Z</time>
      </trkpt>
      <trkpt lat="50.10857" lon="1.82014">
        <ele>5.2</ele>
        <time>2022-04-22T15:44:13Z</time>
      </trkpt>
      <trkpt lat="50.10858" lon="1.82014">
        <ele>5.2</ele>
        <time>2022-04-22T15:44:14Z</time>
      </trkpt>
      <trkpt lat="50.10859" lon="1.82013">
        <ele>5.2</ele>
        <time>2022-04-22T15:44:15Z</time>
      </trkpt>
      <trkpt lat="50.1086" lon="1.82013">
        <ele>5.2</ele>
        <time>2022-04-22T15:44:16Z</time>
      </trkpt>
      <trkpt lat="50.10861" lon="1.82013">
        <ele>5.2</ele>
        <time>2022-04-22T15:44:17Z</time>
      </trkpt>
      <trkpt lat="50.10862" lon="1.82012">
        <ele>5.2</ele>
        <time>2022-04-22T15:44:19Z</time>
      </trkpt>
      <trkpt lat="50.10862" lon="1.82012">
        <ele>5.2</ele>
        <time>2022-04-22T15:44:20Z</time>
      </trkpt>
      <trkpt lat="50.10862" lon="1.82012">
        <ele>5.2</ele>
        <time>2022-04-22T15:44:21Z</time>
      </trkpt>
      <trkpt lat="50.10863" lon="1.82011">
        <ele>5.2</ele>
        <time>2022-04-22T15:44:22Z</time>
      </trkpt>
      <trkpt lat="50.10864" lon="1.8201">
        <ele>5.2</ele>
        <time>2022-04-22T15:44:23Z</time>
      </trkpt>
      <trkpt lat="50.10866" lon="1.8201">
        <ele>5.2</ele>
        <time>2022-04-22T15:44:24Z</time>
      </trkpt>
      <trkpt lat="50.10867" lon="1.82009">
        <ele>5.2</ele>
        <time>2022-04-22T15:44:25Z</time>
      </trkpt>
      <trkpt lat="50.10868" lon="1.82008">
        <ele>5.2</ele>
        <time>2022-04-22T15:44:27Z</time>
      </trkpt>
      <trkpt lat="50.1087" lon="1.82007">
        <ele>5.2</ele>
        <time>2022-04-22T15:44:28Z</time>
      </trkpt>
      <trkpt lat="50.10872" lon="1.82005">
        <ele>5.2</ele>
        <time>2022-04-22T15:44:29Z</time>
      </trkpt>
      <trkpt lat="50.10873" lon="1.82005">
        <ele>5.2</ele>
        <time>2022-04-22T15:44:31Z</time>
      </trkpt>
      <trkpt lat="50.10874" lon="1.82004">
        <ele>5.2</ele>
        <time>2022-04-22T15:44:32Z</time>
      </trkpt>
      <trkpt lat="50.10876" lon="1.82001">
        <ele>5.2</ele>
        <time>2022-04-22T15:44:33Z</time>
      </trkpt>
      <trkpt lat="50.10877" lon="1.82">
        <ele>5.2</ele>
        <time>2022-04-22T15:44:34Z</time>
      </trkpt>
      <trkpt lat="50.10878" lon="1.82">
        <ele>5.2</ele>
        <time>2022-04-22T15:44:35Z</time>
      </trkpt>
      <trkpt lat="50.10879" lon="1.81999">
        <ele>5.2</ele>
        <time>2022-04-22T15:44:36Z</time>
      </trkpt>
      <trkpt lat="50.1088" lon="1.81998">
        <ele>5.2</ele>
        <time>2022-04-22T15:44:38Z</time>
      </trkpt>
      <trkpt lat="50.10882" lon="1.81997">
        <ele>5.2</ele>
        <time>2022-04-22T15:44:39Z</time>
      </trkpt>
      <trkpt lat="50.10883" lon="1.81996">
        <ele>5.2</ele>
        <time>2022-04-22T15:44:40Z</time>
      </trkpt>
      <trkpt lat="50.10883" lon="1.81996">
        <ele>5.2</ele>
        <time>2022-04-22T15:44:41Z</time>
      </trkpt>
      <trkpt lat="50.10884" lon="1.81995">
        <ele>5.3</ele>
        <time>2022-04-22T15:44:42Z</time>
      </trkpt>
      <trkpt lat="50.10884" lon="1.81993">
        <ele>5.3</ele>
        <time>2022-04-22T15:44:43Z</time>
      </trkpt>
      <trkpt lat="50.10884" lon="1.81993">
        <ele>5.3</ele>
        <time>2022-04-22T15:44:44Z</time>
      </trkpt>
      <trkpt lat="50.10885" lon="1.81992">
        <ele>5.3</ele>
        <time>2022-04-22T15:44:45Z</time>
      </trkpt>
      <trkpt lat="50.10886" lon="1.81991">
        <ele>5.3</ele>
        <time>2022-04-22T15:44:47Z</time>
      </trkpt>
      <trkpt lat="50.10887" lon="1.81991">
        <ele>5.3</ele>
        <time>2022-04-22T15:44:48Z</time>
      </trkpt>
      <trkpt lat="50.10888" lon="1.81991">
        <ele>5.3</ele>
        <time>2022-04-22T15:44:49Z</time>
      </trkpt>
      <trkpt lat="50.10888" lon="1.8199">
        <ele>5.3</ele>
        <time>2022-04-22T15:44:50Z</time>
      </trkpt>
      <trkpt lat="50.10889" lon="1.81989">
        <ele>5.3</ele>
        <time>2022-04-22T15:44:51Z</time>
      </trkpt>
      <trkpt lat="50.1089" lon="1.81989">
        <ele>5.3</ele>
        <time>2022-04-22T15:44:52Z</time>
      </trkpt>
      <trkpt lat="50.10892" lon="1.81987">
        <ele>5.3</ele>
        <time>2022-04-22T15:44:54Z</time>
      </trkpt>
      <trkpt lat="50.10892" lon="1.81986">
        <ele>5.3</ele>
        <time>2022-04-22T15:44:55Z</time>
      </trkpt>
      <trkpt lat="50.10893" lon="1.81985">
        <ele>5.3</ele>
        <time>2022-04-22T15:44:56Z</time>
      </trkpt>
      <trkpt lat="50.10894" lon="1.81984">
        <ele>5.3</ele>
        <time>2022-04-22T15:44:57Z</time>
      </trkpt>
      <trkpt lat="50.10896" lon="1.81982">
        <ele>5.3</ele>
        <time>2022-04-22T15:44:58Z</time>
      </trkpt>
      <trkpt lat="50.10894" lon="1.81982">
        <ele>5.3</ele>
        <time>2022-04-22T15:44:59Z</time>
      </trkpt>
      <trkpt lat="50.10894" lon="1.81982">
        <ele>5.3</ele>
        <time>2022-04-22T15:45:01Z</time>
      </trkpt>
      <trkpt lat="50.10894" lon="1.81981">
        <ele>5.3</ele>
        <time>2022-04-22T15:45:02Z</time>
      </trkpt>
      <trkpt lat="50.10895" lon="1.8198">
        <ele>5.3</ele>
        <time>2022-04-22T15:45:03Z</time>
      </trkpt>
      <trkpt lat="50.10897" lon="1.81979">
        <ele>5.3</ele>
        <time>2022-04-22T15:45:04Z</time>
      </trkpt>
      <trkpt lat="50.10898" lon="1.81978">
        <ele>5.3</ele>
        <time>2022-04-22T15:45:06Z</time>
      </trkpt>
      <trkpt lat="50.10898" lon="1.81977">
        <ele>5.3</ele>
        <time>2022-04-22T15:45:07Z</time>
      </trkpt>
      <trkpt lat="50.109" lon="1.81975">
        <ele>5.3</ele>
        <time>2022-04-22T15:45:08Z</time>
      </trkpt>
      <trkpt lat="50.10901" lon="1.81975">
        <ele>5.3</ele>
        <time>2022-04-22T15:45:09Z</time>
      </trkpt>
      <trkpt lat="50.10901" lon="1.81975">
        <ele>5.3</ele>
        <time>2022-04-22T15:45:10Z</time>
      </trkpt>
      <trkpt lat="50.10901" lon="1.81974">
        <ele>5.3</ele>
        <time>2022-04-22T15:45:11Z</time>
      </trkpt>
      <trkpt lat="50.10901" lon="1.81974">
        <ele>5.3</ele>
        <time>2022-04-22T15:45:13Z</time>
      </trkpt>
      <trkpt lat="50.10901" lon="1.81974">
        <ele>5.3</ele>
        <time>2022-04-22T15:45:14Z</time>
      </trkpt>
      <trkpt lat="50.10903" lon="1.81972">
        <ele>5.3</ele>
        <time>2022-04-22T15:45:15Z</time>
      </trkpt>
      <trkpt lat="50.10904" lon="1.81972">
        <ele>5.3</ele>
        <time>2022-04-22T15:45:16Z</time>
      </trkpt>
      <trkpt lat="50.10905" lon="1.81971">
        <ele>5.3</ele>
        <time>2022-04-22T15:45:17Z</time>
      </trkpt>
      <trkpt lat="50.10906" lon="1.81969">
        <ele>5.3</ele>
        <time>2022-04-22T15:45:19Z</time>
      </trkpt>
      <trkpt lat="50.10907" lon="1.81968">
        <ele>5.3</ele>
        <time>2022-04-22T15:45:20Z</time>
      </trkpt>
      <trkpt lat="50.10909" lon="1.81966">
        <ele>5.3</ele>
        <time>2022-04-22T15:45:21Z</time>
      </trkpt>
      <trkpt lat="50.1091" lon="1.81966">
        <ele>5.3</ele>
        <time>2022-04-22T15:45:22Z</time>
      </trkpt>
      <trkpt lat="50.10911" lon="1.81965">
        <ele>5.3</ele>
        <time>2022-04-22T15:45:23Z</time>
      </trkpt>
      <trkpt lat="50.10912" lon="1.81966">
        <ele>5.3</ele>
        <time>2022-04-22T15:45:24Z</time>
      </trkpt>
      <trkpt lat="50.10913" lon="1.81966">
        <ele>5.3</ele>
        <time>2022-04-22T15:45:25Z</time>
      </trkpt>
      <trkpt lat="50.10914" lon="1.81967">
        <ele>5.3</ele>
        <time>2022-04-22T15:45:27Z</time>
      </trkpt>
      <trkpt lat="50.10915" lon="1.81968">
        <ele>5.3</ele>
        <time>2022-04-22T15:45:28Z</time>
      </trkpt>
      <trkpt lat="50.10916" lon="1.81969">
        <ele>5.3</ele>
        <time>2022-04-22T15:45:29Z</time>
      </trkpt>
      <trkpt lat="50.10918" lon="1.81971">
        <ele>5.3</ele>
        <time>2022-04-22T15:45:30Z</time>
      </trkpt>
      <trkpt lat="50.10919" lon="1.81972">
        <ele>5.3</ele>
        <time>2022-04-22T15:45:31Z</time>
      </trkpt>
      <trkpt lat="50.10919" lon="1.81973">
        <ele>5.3</ele>
        <time>2022-04-22T15:45:32Z</time>
      </trkpt>
      <trkpt lat="50.10921" lon="1.81971">
        <ele>5.4</ele>
        <time>2022-04-22T15:45:34Z</time>
      </trkpt>
      <trkpt lat="50.10922" lon="1.81971">
        <ele>5.4</ele>
        <time>2022-04-22T15:45:35Z</time>
      </trkpt>
      <trkpt lat="50.10924" lon="1.81971">
        <ele>5.4</ele>
        <time>2022-04-22T15:45:36Z</time>
      </trkpt>
      <trkpt lat="50.10925" lon="1.81971">
        <ele>5.4</ele>
        <time>2022-04-22T15:45:37Z</time>
      </trkpt>
      <trkpt lat="50.10928" lon="1.81966">
        <ele>5.4</ele>
        <time>2022-04-22T15:45:38Z</time>
      </trkpt>
      <trkpt lat="50.10929" lon="1.81963">
        <ele>5.4</ele>
        <time>2022-04-22T15:45:39Z</time>
      </trkpt>
      <trkpt lat="50.10931" lon="1.81962">
        <ele>5.4</ele>
        <time>2022-04-22T15:45:41Z</time>
      </trkpt>
      <trkpt lat="50.10932" lon="1.81962">
        <ele>5.4</ele>
        <time>2022-04-22T15:45:42Z</time>
      </trkpt>
      <trkpt lat="50.10934" lon="1.81962">
        <ele>5.4</ele>
        <time>2022-04-22T15:45:43Z</time>
      </trkpt>
      <trkpt lat="50.10936" lon="1.81957">
        <ele>5.4</ele>
        <time>2022-04-22T15:45:44Z</time>
      </trkpt>
      <trkpt lat="50.10937" lon="1.81956">
        <ele>5.4</ele>
        <time>2022-04-22T15:45:45Z</time>
      </trkpt>
      <trkpt lat="50.10939" lon="1.81955">
        <ele>5.4</ele>
        <time>2022-04-22T15:45:46Z</time>
      </trkpt>
      <trkpt lat="50.10941" lon="1.81953">
        <ele>5.4</ele>
        <time>2022-04-22T15:45:48Z</time>
      </trkpt>
      <trkpt lat="50.10942" lon="1.81951">
        <ele>5.4</ele>
        <time>2022-04-22T15:45:49Z</time>
      </trkpt>
      <trkpt lat="50.10944" lon="1.81951">
        <ele>5.4</ele>
        <time>2022-04-22T15:45:50Z</time>
      </trkpt>
      <trkpt lat="50.10945" lon="1.81951">
        <ele>5.4</ele>
        <time>2022-04-22T15:45:51Z</time>
      </trkpt>
      <trkpt lat="50.10946" lon="1.8195">
        <ele>5.4</ele>
        <time>2022-04-22T15:45:52Z</time>
      </trkpt>
      <trkpt lat="50.10949" lon="1.81948">
        <ele>5.5</ele>
        <time>2022-04-22T15:45:53Z</time>
      </trkpt>
      <trkpt lat="50.10949" lon="1.81947">
        <ele>5.5</ele>
        <time>2022-04-22T15:45:54Z</time>
      </trkpt>
      <trkpt lat="50.1095" lon="1.81947">
        <ele>5.5</ele>
        <time>2022-04-22T15:45:56Z</time>
      </trkpt>
      <trkpt lat="50.10952" lon="1.81946">
        <ele>5.5</ele>
        <time>2022-04-22T15:45:57Z</time>
      </trkpt>
      <trkpt lat="50.10953" lon="1.81946">
        <ele>5.5</ele>
        <time>2022-04-22T15:45:58Z</time>
      </trkpt>
      <trkpt lat="50.10954" lon="1.81943">
        <ele>5.5</ele>
        <time>2022-04-22T15:45:59Z</time>
      </trkpt>
      <trkpt lat="50.10955" lon="1.81942">
        <ele>5.5</ele>
        <time>2022-04-22T15:46:00Z</time>
      </trkpt>
      <trkpt lat="50.10957" lon="1.81942">
        <ele>5.5</ele>
        <time>2022-04-22T15:46:01Z</time>
      </trkpt>
      <trkpt lat="50.10958" lon="1.81942">
        <ele>5.5</ele>
        <time>2022-04-22T15:46:03Z</time>
      </trkpt>
      <trkpt lat="50.1096" lon="1.81941">
        <ele>5.6</ele>
        <time>2022-04-22T15:46:04Z</time>
      </trkpt>
      <trkpt lat="50.10961" lon="1.81941">
        <ele>5.6</ele>
        <time>2022-04-22T15:46:05Z</time>
      </trkpt>
      <trkpt lat="50.10964" lon="1.81942">
        <ele>5.6</ele>
        <time>2022-04-22T15:46:06Z</time>
      </trkpt>
      <trkpt lat="50.10965" lon="1.81941">
        <ele>5.6</ele>
        <time>2022-04-22T15:46:07Z</time>
      </trkpt>
      <trkpt lat="50.10966" lon="1.81941">
        <ele>5.6</ele>
        <time>2022-04-22T15:46:08Z</time>
      </trkpt>
      <trkpt lat="50.10966" lon="1.8194">
        <ele>5.6</ele>
        <time>2022-04-22T15:46:10Z</time>
      </trkpt>
      <trkpt lat="50.10967" lon="1.8194">
        <ele>5.6</ele>
        <time>2022-04-22T15:46:11Z</time>
      </trkpt>
      <trkpt lat="50.10969" lon="1.8194">
        <ele>5.7</ele>
        <time>2022-04-22T15:46:12Z</time>
      </trkpt>
      <trkpt lat="50.10971" lon="1.81939">
        <ele>5.7</ele>
        <time>2022-04-22T15:46:13Z</time>
      </trkpt>
      <trkpt lat="50.10971" lon="1.8194">
        <ele>5.7</ele>
        <time>2022-04-22T15:46:14Z</time>
      </trkpt>
      <trkpt lat="50.10971" lon="1.8194">
        <ele>5.7</ele>
        <time>2022-04-22T15:46:15Z</time>
      </trkpt>
      <trkpt lat="50.10972" lon="1.81939">
        <ele>5.7</ele>
        <time>2022-04-22T15:46:17Z</time>
      </trkpt>
      <trkpt lat="50.10973" lon="1.81939">
        <ele>5.7</ele>
        <time>2022-04-22T15:46:18Z</time>
      </trkpt>
      <trkpt lat="50.10973" lon="1.81938">
        <ele>5.7</ele>
        <time>2022-04-22T15:46:19Z</time>
      </trkpt>
      <trkpt lat="50.10974" lon="1.81938">
        <ele>5.7</ele>
        <time>2022-04-22T15:46:20Z</time>
      </trkpt>
      <trkpt lat="50.10975" lon="1.81938">
        <ele>5.8</ele>
        <time>2022-04-22T15:46:21Z</time>
      </trkpt>
      <trkpt lat="50.10976" lon="1.81938">
        <ele>5.8</ele>
        <time>2022-04-22T15:46:22Z</time>
      </trkpt>
      <trkpt lat="50.10977" lon="1.81938">
        <ele>5.8</ele>
        <time>2022-04-22T15:46:24Z</time>
      </trkpt>
      <trkpt lat="50.10978" lon="1.81938">
        <ele>5.8</ele>
        <time>2022-04-22T15:46:25Z</time>
      </trkpt>
      <trkpt lat="50.10978" lon="1.81937">
        <ele>5.8</ele>
        <time>2022-04-22T15:46:26Z</time>
      </trkpt>
      <trkpt lat="50.10979" lon="1.81937">
        <ele>5.8</ele>
        <time>2022-04-22T15:46:27Z</time>
      </trkpt>
      <trkpt lat="50.1098" lon="1.81938">
        <ele>5.8</ele>
        <time>2022-04-22T15:46:28Z</time>
      </trkpt>
      <trkpt lat="50.10981" lon="1.81938">
        <ele>5.8</ele>
        <time>2022-04-22T15:46:29Z</time>
      </trkpt>
      <trkpt lat="50.10982" lon="1.81938">
        <ele>5.8</ele>
        <time>2022-04-22T15:46:31Z</time>
      </trkpt>
      <trkpt lat="50.10983" lon="1.81938">
        <ele>5.8</ele>
        <time>2022-04-22T15:46:32Z</time>
      </trkpt>
      <trkpt lat="50.10984" lon="1.81938">
        <ele>5.9</ele>
        <time>2022-04-22T15:46:33Z</time>
      </trkpt>
      <trkpt lat="50.10986" lon="1.81937">
        <ele>5.9</ele>
        <time>2022-04-22T15:46:34Z</time>
      </trkpt>
      <trkpt lat="50.10987" lon="1.81935">
        <ele>5.9</ele>
        <time>2022-04-22T15:46:35Z</time>
      </trkpt>
      <trkpt lat="50.10988" lon="1.81934">
        <ele>5.9</ele>
        <time>2022-04-22T15:46:36Z</time>
      </trkpt>
      <trkpt lat="50.10989" lon="1.81933">
        <ele>5.9</ele>
        <time>2022-04-22T15:46:38Z</time>
      </trkpt>
      <trkpt lat="50.1099" lon="1.81932">
        <ele>5.9</ele>
        <time>2022-04-22T15:46:39Z</time>
      </trkpt>
      <trkpt lat="50.10991" lon="1.81931">
        <ele>5.9</ele>
        <time>2022-04-22T15:46:40Z</time>
      </trkpt>
      <trkpt lat="50.10992" lon="1.8193">
        <ele>6</ele>
        <time>2022-04-22T15:46:41Z</time>
      </trkpt>
      <trkpt lat="50.10993" lon="1.81929">
        <ele>6</ele>
        <time>2022-04-22T15:46:42Z</time>
      </trkpt>
      <trkpt lat="50.10994" lon="1.81928">
        <ele>6</ele>
        <time>2022-04-22T15:46:43Z</time>
      </trkpt>
      <trkpt lat="50.10996" lon="1.81927">
        <ele>6</ele>
        <time>2022-04-22T15:46:44Z</time>
      </trkpt>
      <trkpt lat="50.10996" lon="1.81927">
        <ele>6</ele>
        <time>2022-04-22T15:46:46Z</time>
      </trkpt>
      <trkpt lat="50.10996" lon="1.81927">
        <ele>6</ele>
        <time>2022-04-22T15:46:47Z</time>
      </trkpt>
      <trkpt lat="50.10997" lon="1.81926">
        <ele>6</ele>
        <time>2022-04-22T15:46:48Z</time>
      </trkpt>
      <trkpt lat="50.10997" lon="1.81924">
        <ele>6.1</ele>
        <time>2022-04-22T15:46:49Z</time>
      </trkpt>
      <trkpt lat="50.10998" lon="1.81924">
        <ele>6.1</ele>
        <time>2022-04-22T15:46:50Z</time>
      </trkpt>
      <trkpt lat="50.10999" lon="1.81923">
        <ele>6.1</ele>
        <time>2022-04-22T15:46:52Z</time>
      </trkpt>
      <trkpt lat="50.10999" lon="1.81922">
        <ele>6.1</ele>
        <time>2022-04-22T15:46:53Z</time>
      </trkpt>
      <trkpt lat="50.10999" lon="1.81922">
        <ele>6.1</ele>
        <time>2022-04-22T15:46:54Z</time>
      </trkpt>
      <trkpt lat="50.11" lon="1.81921">
        <ele>6.1</ele>
        <time>2022-04-22T15:46:55Z</time>
      </trkpt>
      <trkpt lat="50.11002" lon="1.8192">
        <ele>6.1</ele>
        <time>2022-04-22T15:46:57Z</time>
      </trkpt>
      <trkpt lat="50.11003" lon="1.8192">
        <ele>6.2</ele>
        <time>2022-04-22T15:46:58Z</time>
      </trkpt>
      <trkpt lat="50.11005" lon="1.81919">
        <ele>6.2</ele>
        <time>2022-04-22T15:46:59Z</time>
      </trkpt>
      <trkpt lat="50.11006" lon="1.81917">
        <ele>6.2</ele>
        <time>2022-04-22T15:47:00Z</time>
      </trkpt>
      <trkpt lat="50.11007" lon="1.81917">
        <ele>6.2</ele>
        <time>2022-04-22T15:47:02Z</time>
      </trkpt>
      <trkpt lat="50.11008" lon="1.81916">
        <ele>6.3</ele>
        <time>2022-04-22T15:47:03Z</time>
      </trkpt>
      <trkpt lat="50.11009" lon="1.81916">
        <ele>6.3</ele>
        <time>2022-04-22T15:47:04Z</time>
      </trkpt>
      <trkpt lat="50.11011" lon="1.81915">
        <ele>6.3</ele>
        <time>2022-04-22T15:47:05Z</time>
      </trkpt>
      <trkpt lat="50.11012" lon="1.81914">
        <ele>6.3</ele>
        <time>2022-04-22T15:47:06Z</time>
      </trkpt>
      <trkpt lat="50.11014" lon="1.81913">
        <ele>6.4</ele>
        <time>2022-04-22T15:47:08Z</time>
      </trkpt>
      <trkpt lat="50.11015" lon="1.81913">
        <ele>6.4</ele>
        <time>2022-04-22T15:47:09Z</time>
      </trkpt>
      <trkpt lat="50.11017" lon="1.81913">
        <ele>6.4</ele>
        <time>2022-04-22T15:47:10Z</time>
      </trkpt>
      <trkpt lat="50.11018" lon="1.81913">
        <ele>6.5</ele>
        <time>2022-04-22T15:47:11Z</time>
      </trkpt>
      <trkpt lat="50.11019" lon="1.81913">
        <ele>6.5</ele>
        <time>2022-04-22T15:47:12Z</time>
      </trkpt>
      <trkpt lat="50.1102" lon="1.81912">
        <ele>6.5</ele>
        <time>2022-04-22T15:47:14Z</time>
      </trkpt>
      <trkpt lat="50.11022" lon="1.81911">
        <ele>6.5</ele>
        <time>2022-04-22T15:47:15Z</time>
      </trkpt>
      <trkpt lat="50.11023" lon="1.8191">
        <ele>6.6</ele>
        <time>2022-04-22T15:47:16Z</time>
      </trkpt>
      <trkpt lat="50.11024" lon="1.81909">
        <ele>6.6</ele>
        <time>2022-04-22T15:47:17Z</time>
      </trkpt>
      <trkpt lat="50.11025" lon="1.81908">
        <ele>6.6</ele>
        <time>2022-04-22T15:47:18Z</time>
      </trkpt>
      <trkpt lat="50.11026" lon="1.81908">
        <ele>6.6</ele>
        <time>2022-04-22T15:47:20Z</time>
      </trkpt>
      <trkpt lat="50.11026" lon="1.81908">
        <ele>6.7</ele>
        <time>2022-04-22T15:47:21Z</time>
      </trkpt>
      <trkpt lat="50.11027" lon="1.81907">
        <ele>6.7</ele>
        <time>2022-04-22T15:47:22Z</time>
      </trkpt>
      <trkpt lat="50.11027" lon="1.81907">
        <ele>6.7</ele>
        <time>2022-04-22T15:47:23Z</time>
      </trkpt>
      <trkpt lat="50.11028" lon="1.81906">
        <ele>6.7</ele>
        <time>2022-04-22T15:47:25Z</time>
      </trkpt>
      <trkpt lat="50.11029" lon="1.81906">
        <ele>6.7</ele>
        <time>2022-04-22T15:47:26Z</time>
      </trkpt>
      <trkpt lat="50.11029" lon="1.81905">
        <ele>6.7</ele>
        <time>2022-04-22T15:47:27Z</time>
      </trkpt>
      <trkpt lat="50.1103" lon="1.81905">
        <ele>6.7</ele>
        <time>2022-04-22T15:47:29Z</time>
      </trkpt>
      <trkpt lat="50.11031" lon="1.81905">
        <ele>6.7</ele>
        <time>2022-04-22T15:47:30Z</time>
      </trkpt>
      <trkpt lat="50.11031" lon="1.81904">
        <ele>6.8</ele>
        <time>2022-04-22T15:47:31Z</time>
      </trkpt>
      <trkpt lat="50.11032" lon="1.81904">
        <ele>6.8</ele>
        <time>2022-04-22T15:47:32Z</time>
      </trkpt>
      <trkpt lat="50.11032" lon="1.81903">
        <ele>6.8</ele>
        <time>2022-04-22T15:47:33Z</time>
      </trkpt>
      <trkpt lat="50.11034" lon="1.81901">
        <ele>6.8</ele>
        <time>2022-04-22T15:47:34Z</time>
      </trkpt>
      <trkpt lat="50.11035" lon="1.819">
        <ele>6.8</ele>
        <time>2022-04-22T15:47:36Z</time>
      </trkpt>
      <trkpt lat="50.11036" lon="1.819">
        <ele>6.9</ele>
        <time>2022-04-22T15:47:37Z</time>
      </trkpt>
      <trkpt lat="50.11038" lon="1.81899">
        <ele>6.9</ele>
        <time>2022-04-22T15:47:38Z</time>
      </trkpt>
      <trkpt lat="50.11039" lon="1.81898">
        <ele>6.9</ele>
        <time>2022-04-22T15:47:39Z</time>
      </trkpt>
      <trkpt lat="50.1104" lon="1.81897">
        <ele>6.9</ele>
        <time>2022-04-22T15:47:40Z</time>
      </trkpt>
      <trkpt lat="50.11041" lon="1.81896">
        <ele>6.9</ele>
        <time>2022-04-22T15:47:41Z</time>
      </trkpt>
      <trkpt lat="50.11042" lon="1.81894">
        <ele>6.9</ele>
        <time>2022-04-22T15:47:43Z</time>
      </trkpt>
      <trkpt lat="50.11042" lon="1.81893">
        <ele>7</ele>
        <time>2022-04-22T15:47:44Z</time>
      </trkpt>
      <trkpt lat="50.11043" lon="1.81891">
        <ele>7</ele>
        <time>2022-04-22T15:47:45Z</time>
      </trkpt>
      <trkpt lat="50.11044" lon="1.81889">
        <ele>7</ele>
        <time>2022-04-22T15:47:46Z</time>
      </trkpt>
      <trkpt lat="50.11045" lon="1.81888">
        <ele>7</ele>
        <time>2022-04-22T15:47:47Z</time>
      </trkpt>
      <trkpt lat="50.11046" lon="1.81886">
        <ele>7</ele>
        <time>2022-04-22T15:47:49Z</time>
      </trkpt>
      <trkpt lat="50.11046" lon="1.81883">
        <ele>7</ele>
        <time>2022-04-22T15:47:50Z</time>
      </trkpt>
      <trkpt lat="50.11046" lon="1.81883">
        <ele>7</ele>
        <time>2022-04-22T15:47:51Z</time>
      </trkpt>
      <trkpt lat="50.11046" lon="1.81881">
        <ele>7</ele>
        <time>2022-04-22T15:47:52Z</time>
      </trkpt>
      <trkpt lat="50.11046" lon="1.8188">
        <ele>7.1</ele>
        <time>2022-04-22T15:47:53Z</time>
      </trkpt>
      <trkpt lat="50.11046" lon="1.81877">
        <ele>7.1</ele>
        <time>2022-04-22T15:47:54Z</time>
      </trkpt>
      <trkpt lat="50.11046" lon="1.81875">
        <ele>7.1</ele>
        <time>2022-04-22T15:47:56Z</time>
      </trkpt>
      <trkpt lat="50.11046" lon="1.81874">
        <ele>7</ele>
        <time>2022-04-22T15:47:57Z</time>
      </trkpt>
      <trkpt lat="50.11046" lon="1.81872">
        <ele>7</ele>
        <time>2022-04-22T15:47:58Z</time>
      </trkpt>
      <trkpt lat="50.11046" lon="1.81869">
        <ele>7</ele>
        <time>2022-04-22T15:47:59Z</time>
      </trkpt>
      <trkpt lat="50.11046" lon="1.81867">
        <ele>7</ele>
        <time>2022-04-22T15:48:00Z</time>
      </trkpt>
      <trkpt lat="50.11046" lon="1.81863">
        <ele>7</ele>
        <time>2022-04-22T15:48:01Z</time>
      </trkpt>
      <trkpt lat="50.11046" lon="1.81862">
        <ele>7</ele>
        <time>2022-04-22T15:48:03Z</time>
      </trkpt>
      <trkpt lat="50.11046" lon="1.81861">
        <ele>7</ele>
        <time>2022-04-22T15:48:04Z</time>
      </trkpt>
      <trkpt lat="50.11045" lon="1.81857">
        <ele>7</ele>
        <time>2022-04-22T15:48:05Z</time>
      </trkpt>
      <trkpt lat="50.11045" lon="1.81853">
        <ele>6.9</ele>
        <time>2022-04-22T15:48:06Z</time>
      </trkpt>
      <trkpt lat="50.11045" lon="1.81852">
        <ele>6.9</ele>
        <time>2022-04-22T15:48:07Z</time>
      </trkpt>
      <trkpt lat="50.11045" lon="1.81851">
        <ele>6.9</ele>
        <time>2022-04-22T15:48:08Z</time>
      </trkpt>
      <trkpt lat="50.11045" lon="1.81846">
        <ele>6.9</ele>
        <time>2022-04-22T15:48:10Z</time>
      </trkpt>
      <trkpt lat="50.11045" lon="1.81845">
        <ele>6.9</ele>
        <time>2022-04-22T15:48:11Z</time>
      </trkpt>
      <trkpt lat="50.11044" lon="1.81844">
        <ele>6.9</ele>
        <time>2022-04-22T15:48:12Z</time>
      </trkpt>
      <trkpt lat="50.11044" lon="1.81842">
        <ele>6.9</ele>
        <time>2022-04-22T15:48:13Z</time>
      </trkpt>
      <trkpt lat="50.11044" lon="1.8184">
        <ele>6.8</ele>
        <time>2022-04-22T15:48:14Z</time>
      </trkpt>
      <trkpt lat="50.11042" lon="1.81839">
        <ele>6.8</ele>
        <time>2022-04-22T15:48:15Z</time>
      </trkpt>
      <trkpt lat="50.11043" lon="1.81836">
        <ele>6.8</ele>
        <time>2022-04-22T15:48:17Z</time>
      </trkpt>
      <trkpt lat="50.11043" lon="1.81835">
        <ele>6.8</ele>
        <time>2022-04-22T15:48:18Z</time>
      </trkpt>
      <trkpt lat="50.11045" lon="1.81833">
        <ele>6.7</ele>
        <time>2022-04-22T15:48:20Z</time>
      </trkpt>
      <trkpt lat="50.11046" lon="1.81833">
        <ele>6.7</ele>
        <time>2022-04-22T15:48:21Z</time>
      </trkpt>
      <trkpt lat="50.11047" lon="1.81832">
        <ele>6.7</ele>
        <time>2022-04-22T15:48:23Z</time>
      </trkpt>
      <trkpt lat="50.11048" lon="1.81832">
        <ele>6.7</ele>
        <time>2022-04-22T15:48:24Z</time>
      </trkpt>
      <trkpt lat="50.11049" lon="1.81832">
        <ele>6.7</ele>
        <time>2022-04-22T15:48:25Z</time>
      </trkpt>
      <trkpt lat="50.1105" lon="1.81832">
        <ele>6.7</ele>
        <time>2022-04-22T15:48:26Z</time>
      </trkpt>
      <trkpt lat="50.1105" lon="1.81832">
        <ele>6.7</ele>
        <time>2022-04-22T15:48:27Z</time>
      </trkpt>
      <trkpt lat="50.1105" lon="1.81833">
        <ele>6.7</ele>
        <time>2022-04-22T15:48:28Z</time>
      </trkpt>
      <trkpt lat="50.1105" lon="1.81833">
        <ele>6.7</ele>
        <time>2022-04-22T15:48:29Z</time>
      </trkpt>
      <trkpt lat="50.11049" lon="1.81832">
        <ele>6.6</ele>
        <time>2022-04-22T15:48:30Z</time>
      </trkpt>
      <trkpt lat="50.11048" lon="1.81832">
        <ele>6.6</ele>
        <time>2022-04-22T15:48:31Z</time>
      </trkpt>
      <trkpt lat="50.11048" lon="1.81832">
        <ele>6.6</ele>
        <time>2022-04-22T15:48:32Z</time>
      </trkpt>
      <trkpt lat="50.11048" lon="1.81831">
        <ele>6.6</ele>
        <time>2022-04-22T15:48:33Z</time>
      </trkpt>
      <trkpt lat="50.11048" lon="1.8183">
        <ele>6.6</ele>
        <time>2022-04-22T15:48:34Z</time>
      </trkpt>
      <trkpt lat="50.11048" lon="1.81829">
        <ele>6.6</ele>
        <time>2022-04-22T15:48:36Z</time>
      </trkpt>
      <trkpt lat="50.11048" lon="1.81828">
        <ele>6.6</ele>
        <time>2022-04-22T15:48:37Z</time>
      </trkpt>
      <trkpt lat="50.11048" lon="1.81827">
        <ele>6.6</ele>
        <time>2022-04-22T15:48:38Z</time>
      </trkpt>
      <trkpt lat="50.11048" lon="1.81825">
        <ele>6.6</ele>
        <time>2022-04-22T15:48:39Z</time>
      </trkpt>
      <trkpt lat="50.11047" lon="1.81822">
        <ele>6.5</ele>
        <time>2022-04-22T15:48:40Z</time>
      </trkpt>
      <trkpt lat="50.11047" lon="1.8182">
        <ele>6.5</ele>
        <time>2022-04-22T15:48:42Z</time>
      </trkpt>
      <trkpt lat="50.11047" lon="1.81818">
        <ele>6.5</ele>
        <time>2022-04-22T15:48:43Z</time>
      </trkpt>
      <trkpt lat="50.11046" lon="1.81816">
        <ele>6.5</ele>
        <time>2022-04-22T15:48:44Z</time>
      </trkpt>
      <trkpt lat="50.11046" lon="1.81814">
        <ele>6.4</ele>
        <time>2022-04-22T15:48:45Z</time>
      </trkpt>
      <trkpt lat="50.11046" lon="1.81811">
        <ele>6.4</ele>
        <time>2022-04-22T15:48:46Z</time>
      </trkpt>
      <trkpt lat="50.11047" lon="1.81808">
        <ele>6.4</ele>
        <time>2022-04-22T15:48:47Z</time>
      </trkpt>
      <trkpt lat="50.11047" lon="1.81805">
        <ele>6.4</ele>
        <time>2022-04-22T15:48:48Z</time>
      </trkpt>
      <trkpt lat="50.11047" lon="1.81803">
        <ele>6.4</ele>
        <time>2022-04-22T15:48:50Z</time>
      </trkpt>
      <trkpt lat="50.11046" lon="1.81802">
        <ele>6.3</ele>
        <time>2022-04-22T15:48:51Z</time>
      </trkpt>
      <trkpt lat="50.11045" lon="1.81801">
        <ele>6.3</ele>
        <time>2022-04-22T15:48:52Z</time>
      </trkpt>
      <trkpt lat="50.11044" lon="1.81799">
        <ele>6.3</ele>
        <time>2022-04-22T15:48:53Z</time>
      </trkpt>
      <trkpt lat="50.11043" lon="1.81798">
        <ele>6.3</ele>
        <time>2022-04-22T15:48:54Z</time>
      </trkpt>
      <trkpt lat="50.11042" lon="1.81797">
        <ele>6.3</ele>
        <time>2022-04-22T15:48:56Z</time>
      </trkpt>
      <trkpt lat="50.11042" lon="1.81796">
        <ele>6.3</ele>
        <time>2022-04-22T15:48:57Z</time>
      </trkpt>
      <trkpt lat="50.11042" lon="1.81794">
        <ele>6.3</ele>
        <time>2022-04-22T15:48:58Z</time>
      </trkpt>
      <trkpt lat="50.11043" lon="1.81794">
        <ele>6.2</ele>
        <time>2022-04-22T15:48:59Z</time>
      </trkpt>
      <trkpt lat="50.11044" lon="1.81794">
        <ele>6.2</ele>
        <time>2022-04-22T15:49:00Z</time>
      </trkpt>
      <trkpt lat="50.11044" lon="1.81793">
        <ele>6.2</ele>
        <time>2022-04-22T15:49:01Z</time>
      </trkpt>
      <trkpt lat="50.11045" lon="1.81793">
        <ele>6.2</ele>
        <time>2022-04-22T15:49:02Z</time>
      </trkpt>
      <trkpt lat="50.11046" lon="1.81792">
        <ele>6.2</ele>
        <time>2022-04-22T15:49:03Z</time>
      </trkpt>
      <trkpt lat="50.11048" lon="1.81792">
        <ele>6.2</ele>
        <time>2022-04-22T15:49:05Z</time>
      </trkpt>
      <trkpt lat="50.11049" lon="1.81791">
        <ele>6.2</ele>
        <time>2022-04-22T15:49:06Z</time>
      </trkpt>
      <trkpt lat="50.1105" lon="1.8179">
        <ele>6.2</ele>
        <time>2022-04-22T15:49:07Z</time>
      </trkpt>
      <trkpt lat="50.1105" lon="1.81788">
        <ele>6.1</ele>
        <time>2022-04-22T15:49:08Z</time>
      </trkpt>
      <trkpt lat="50.11051" lon="1.81785">
        <ele>6.1</ele>
        <time>2022-04-22T15:49:09Z</time>
      </trkpt>
      <trkpt lat="50.11051" lon="1.81784">
        <ele>6.1</ele>
        <time>2022-04-22T15:49:11Z</time>
      </trkpt>
      <trkpt lat="50.11051" lon="1.81783">
        <ele>6.1</ele>
        <time>2022-04-22T15:49:12Z</time>
      </trkpt>
      <trkpt lat="50.1105" lon="1.81781">
        <ele>6.1</ele>
        <time>2022-04-22T15:49:13Z</time>
      </trkpt>
      <trkpt lat="50.1105" lon="1.81779">
        <ele>6.1</ele>
        <time>2022-04-22T15:49:14Z</time>
      </trkpt>
      <trkpt lat="50.1105" lon="1.81779">
        <ele>6.1</ele>
        <time>2022-04-22T15:49:15Z</time>
      </trkpt>
      <trkpt lat="50.1105" lon="1.81778">
        <ele>6.1</ele>
        <time>2022-04-22T15:49:16Z</time>
      </trkpt>
      <trkpt lat="50.1105" lon="1.81775">
        <ele>6.1</ele>
        <time>2022-04-22T15:49:17Z</time>
      </trkpt>
      <trkpt lat="50.1105" lon="1.81774">
        <ele>6.1</ele>
        <time>2022-04-22T15:49:18Z</time>
      </trkpt>
      <trkpt lat="50.1105" lon="1.81772">
        <ele>6</ele>
        <time>2022-04-22T15:49:20Z</time>
      </trkpt>
      <trkpt lat="50.1105" lon="1.81771">
        <ele>6</ele>
        <time>2022-04-22T15:49:21Z</time>
      </trkpt>
      <trkpt lat="50.1105" lon="1.8177">
        <ele>6</ele>
        <time>2022-04-22T15:49:22Z</time>
      </trkpt>
      <trkpt lat="50.1105" lon="1.81769">
        <ele>6</ele>
        <time>2022-04-22T15:49:23Z</time>
      </trkpt>
      <trkpt lat="50.1105" lon="1.81767">
        <ele>6</ele>
        <time>2022-04-22T15:49:24Z</time>
      </trkpt>
      <trkpt lat="50.1105" lon="1.81766">
        <ele>6</ele>
        <time>2022-04-22T15:49:25Z</time>
      </trkpt>
      <trkpt lat="50.1105" lon="1.81765">
        <ele>6</ele>
        <time>2022-04-22T15:49:27Z</time>
      </trkpt>
      <trkpt lat="50.1105" lon="1.81763">
        <ele>6</ele>
        <time>2022-04-22T15:49:28Z</time>
      </trkpt>
      <trkpt lat="50.11051" lon="1.81762">
        <ele>6</ele>
        <time>2022-04-22T15:49:29Z</time>
      </trkpt>
      <trkpt lat="50.11051" lon="1.81762">
        <ele>6</ele>
        <time>2022-04-22T15:49:30Z</time>
      </trkpt>
      <trkpt lat="50.11052" lon="1.81761">
        <ele>6</ele>
        <time>2022-04-22T15:49:31Z</time>
      </trkpt>
      <trkpt lat="50.11053" lon="1.8176">
        <ele>6</ele>
        <time>2022-04-22T15:49:32Z</time>
      </trkpt>
      <trkpt lat="50.11054" lon="1.8176">
        <ele>6</ele>
        <time>2022-04-22T15:49:34Z</time>
      </trkpt>
      <trkpt lat="50.11056" lon="1.81758">
        <ele>5.9</ele>
        <time>2022-04-22T15:49:35Z</time>
      </trkpt>
      <trkpt lat="50.11057" lon="1.81758">
        <ele>5.9</ele>
        <time>2022-04-22T15:49:36Z</time>
      </trkpt>
      <trkpt lat="50.11058" lon="1.81757">
        <ele>5.9</ele>
        <time>2022-04-22T15:49:37Z</time>
      </trkpt>
      <trkpt lat="50.11059" lon="1.81756">
        <ele>5.9</ele>
        <time>2022-04-22T15:49:38Z</time>
      </trkpt>
      <trkpt lat="50.11059" lon="1.81753">
        <ele>5.9</ele>
        <time>2022-04-22T15:49:39Z</time>
      </trkpt>
      <trkpt lat="50.1106" lon="1.81752">
        <ele>5.9</ele>
        <time>2022-04-22T15:49:41Z</time>
      </trkpt>
      <trkpt lat="50.11061" lon="1.8175">
        <ele>5.9</ele>
        <time>2022-04-22T15:49:42Z</time>
      </trkpt>
      <trkpt lat="50.11062" lon="1.81749">
        <ele>5.9</ele>
        <time>2022-04-22T15:49:43Z</time>
      </trkpt>
      <trkpt lat="50.11063" lon="1.81747">
        <ele>5.9</ele>
        <time>2022-04-22T15:49:44Z</time>
      </trkpt>
      <trkpt lat="50.11062" lon="1.81745">
        <ele>5.9</ele>
        <time>2022-04-22T15:49:45Z</time>
      </trkpt>
      <trkpt lat="50.11061" lon="1.81743">
        <ele>5.9</ele>
        <time>2022-04-22T15:49:47Z</time>
      </trkpt>
      <trkpt lat="50.11062" lon="1.81742">
        <ele>5.9</ele>
        <time>2022-04-22T15:49:48Z</time>
      </trkpt>
      <trkpt lat="50.11064" lon="1.81741">
        <ele>5.9</ele>
        <time>2022-04-22T15:49:49Z</time>
      </trkpt>
      <trkpt lat="50.11065" lon="1.81741">
        <ele>5.9</ele>
        <time>2022-04-22T15:49:50Z</time>
      </trkpt>
      <trkpt lat="50.11066" lon="1.8174">
        <ele>5.9</ele>
        <time>2022-04-22T15:49:51Z</time>
      </trkpt>
      <trkpt lat="50.11067" lon="1.81741">
        <ele>5.9</ele>
        <time>2022-04-22T15:49:53Z</time>
      </trkpt>
      <trkpt lat="50.11068" lon="1.81741">
        <ele>5.9</ele>
        <time>2022-04-22T15:49:54Z</time>
      </trkpt>
      <trkpt lat="50.11068" lon="1.81743">
        <ele>5.9</ele>
        <time>2022-04-22T15:49:55Z</time>
      </trkpt>
      <trkpt lat="50.11068" lon="1.81745">
        <ele>5.9</ele>
        <time>2022-04-22T15:49:56Z</time>
      </trkpt>
      <trkpt lat="50.11068" lon="1.81746">
        <ele>5.9</ele>
        <time>2022-04-22T15:49:57Z</time>
      </trkpt>
      <trkpt lat="50.11069" lon="1.81747">
        <ele>5.9</ele>
        <time>2022-04-22T15:49:58Z</time>
      </trkpt>
      <trkpt lat="50.11069" lon="1.81747">
        <ele>5.9</ele>
        <time>2022-04-22T15:49:59Z</time>
      </trkpt>
      <trkpt lat="50.11069" lon="1.81747">
        <ele>5.9</ele>
        <time>2022-04-22T15:50:00Z</time>
      </trkpt>
      <trkpt lat="50.11068" lon="1.81746">
        <ele>5.9</ele>
        <time>2022-04-22T15:50:02Z</time>
      </trkpt>
      <trkpt lat="50.11068" lon="1.81745">
        <ele>5.9</ele>
        <time>2022-04-22T15:50:04Z</time>
      </trkpt>
      <trkpt lat="50.11069" lon="1.81745">
        <ele>5.9</ele>
        <time>2022-04-22T15:50:05Z</time>
      </trkpt>
      <trkpt lat="50.11069" lon="1.81744">
        <ele>5.9</ele>
        <time>2022-04-22T15:50:06Z</time>
      </trkpt>
      <trkpt lat="50.1107" lon="1.81743">
        <ele>5.9</ele>
        <time>2022-04-22T15:50:07Z</time>
      </trkpt>
      <trkpt lat="50.11071" lon="1.81743">
        <ele>5.9</ele>
        <time>2022-04-22T15:50:08Z</time>
      </trkpt>
      <trkpt lat="50.11072" lon="1.81743">
        <ele>5.9</ele>
        <time>2022-04-22T15:50:09Z</time>
      </trkpt>
      <trkpt lat="50.11072" lon="1.81743">
        <ele>5.9</ele>
        <time>2022-04-22T15:50:11Z</time>
      </trkpt>
      <trkpt lat="50.11072" lon="1.81744">
        <ele>5.9</ele>
        <time>2022-04-22T15:50:12Z</time>
      </trkpt>
      <trkpt lat="50.11072" lon="1.81745">
        <ele>5.9</ele>
        <time>2022-04-22T15:50:13Z</time>
      </trkpt>
      <trkpt lat="50.11072" lon="1.81745">
        <ele>5.9</ele>
        <time>2022-04-22T15:50:14Z</time>
      </trkpt>
      <trkpt lat="50.11072" lon="1.81745">
        <ele>5.9</ele>
        <time>2022-04-22T15:50:15Z</time>
      </trkpt>
      <trkpt lat="50.11072" lon="1.81745">
        <ele>5.9</ele>
        <time>2022-04-22T15:50:16Z</time>
      </trkpt>
      <trkpt lat="50.11071" lon="1.81746">
        <ele>5.9</ele>
        <time>2022-04-22T15:50:17Z</time>
      </trkpt>
      <trkpt lat="50.11071" lon="1.81746">
        <ele>5.9</ele>
        <time>2022-04-22T15:50:18Z</time>
      </trkpt>
      <trkpt lat="50.11071" lon="1.81746">
        <ele>5.9</ele>
        <time>2022-04-22T15:50:19Z</time>
      </trkpt>
      <trkpt lat="50.11071" lon="1.81746">
        <ele>5.9</ele>
        <time>2022-04-22T15:50:20Z</time>
      </trkpt>
      <trkpt lat="50.11071" lon="1.81746">
        <ele>5.9</ele>
        <time>2022-04-22T15:50:21Z</time>
      </trkpt>
      <trkpt lat="50.1107" lon="1.81746">
        <ele>5.9</ele>
        <time>2022-04-22T15:50:22Z</time>
      </trkpt>
      <trkpt lat="50.1107" lon="1.81746">
        <ele>5.9</ele>
        <time>2022-04-22T15:50:23Z</time>
      </trkpt>
      <trkpt lat="50.1107" lon="1.81746">
        <ele>5.9</ele>
        <time>2022-04-22T15:50:24Z</time>
      </trkpt>
      <trkpt lat="50.1107" lon="1.81746">
        <ele>5.9</ele>
        <time>2022-04-22T15:50:25Z</time>
      </trkpt>
      <trkpt lat="50.1107" lon="1.81746">
        <ele>5.9</ele>
        <time>2022-04-22T15:50:26Z</time>
      </trkpt>
      <trkpt lat="50.1107" lon="1.81743">
        <ele>5.9</ele>
        <time>2022-04-22T15:50:27Z</time>
      </trkpt>
      <trkpt lat="50.1107" lon="1.81743">
        <ele>5.9</ele>
        <time>2022-04-22T15:50:28Z</time>
      </trkpt>
      <trkpt lat="50.11071" lon="1.81742">
        <ele>5.9</ele>
        <time>2022-04-22T15:50:29Z</time>
      </trkpt>
      <trkpt lat="50.11071" lon="1.81742">
        <ele>5.9</ele>
        <time>2022-04-22T15:50:30Z</time>
      </trkpt>
      <trkpt lat="50.11071" lon="1.81742">
        <ele>5.9</ele>
        <time>2022-04-22T15:50:31Z</time>
      </trkpt>
      <trkpt lat="50.11071" lon="1.81742">
        <ele>5.9</ele>
        <time>2022-04-22T15:50:32Z</time>
      </trkpt>
      <trkpt lat="50.11071" lon="1.81742">
        <ele>5.9</ele>
        <time>2022-04-22T15:50:33Z</time>
      </trkpt>
      <trkpt lat="50.11071" lon="1.81742">
        <ele>5.9</ele>
        <time>2022-04-22T15:50:34Z</time>
      </trkpt>
      <trkpt lat="50.11071" lon="1.81742">
        <ele>5.9</ele>
        <time>2022-04-22T15:50:35Z</time>
      </trkpt>
      <trkpt lat="50.11071" lon="1.81742">
        <ele>5.9</ele>
        <time>2022-04-22T15:50:36Z</time>
      </trkpt>
      <trkpt lat="50.11071" lon="1.81742">
        <ele>5.9</ele>
        <time>2022-04-22T15:50:37Z</time>
      </trkpt>
      <trkpt lat="50.11071" lon="1.81742">
        <ele>5.9</ele>
        <time>2022-04-22T15:50:38Z</time>
      </trkpt>
      <trkpt lat="50.11071" lon="1.81742">
        <ele>5.9</ele>
        <time>2022-04-22T15:50:39Z</time>
      </trkpt>
      <trkpt lat="50.11071" lon="1.81742">
        <ele>5.9</ele>
        <time>2022-04-22T15:50:40Z</time>
      </trkpt>
      <trkpt lat="50.11071" lon="1.81742">
        <ele>5.9</ele>
        <time>2022-04-22T15:50:41Z</time>
      </trkpt>
      <trkpt lat="50.11071" lon="1.81742">
        <ele>5.9</ele>
        <time>2022-04-22T15:50:42Z</time>
      </trkpt>
      <trkpt lat="50.11071" lon="1.81742">
        <ele>5.9</ele>
        <time>2022-04-22T15:50:43Z</time>
      </trkpt>
      <trkpt lat="50.11071" lon="1.81742">
        <ele>5.9</ele>
        <time>2022-04-22T15:50:44Z</time>
      </trkpt>
      <trkpt lat="50.11071" lon="1.81742">
        <ele>5.9</ele>
        <time>2022-04-22T15:50:45Z</time>
      </trkpt>
      <trkpt lat="50.11071" lon="1.81742">
        <ele>5.9</ele>
        <time>2022-04-22T15:50:46Z</time>
      </trkpt>
      <trkpt lat="50.11071" lon="1.81742">
        <ele>5.9</ele>
        <time>2022-04-22T15:50:47Z</time>
      </trkpt>
      <trkpt lat="50.11071" lon="1.81742">
        <ele>5.9</ele>
        <time>2022-04-22T15:50:48Z</time>
      </trkpt>
      <trkpt lat="50.11071" lon="1.81742">
        <ele>5.9</ele>
        <time>2022-04-22T15:50:49Z</time>
      </trkpt>
      <trkpt lat="50.11071" lon="1.81742">
        <ele>5.9</ele>
        <time>2022-04-22T15:50:50Z</time>
      </trkpt>
      <trkpt lat="50.11071" lon="1.81742">
        <ele>5.9</ele>
        <time>2022-04-22T15:50:51Z</time>
      </trkpt>
      <trkpt lat="50.11071" lon="1.81742">
        <ele>5.9</ele>
        <time>2022-04-22T15:50:52Z</time>
      </trkpt>
      <trkpt lat="50.11071" lon="1.81742">
        <ele>5.9</ele>
        <time>2022-04-22T15:50:53Z</time>
      </trkpt>
      <trkpt lat="50.11071" lon="1.81742">
        <ele>5.9</ele>
        <time>2022-04-22T15:50:54Z</time>
      </trkpt>
      <trkpt lat="50.11071" lon="1.81742">
        <ele>5.9</ele>
        <time>2022-04-22T15:50:55Z</time>
      </trkpt>
      <trkpt lat="50.11071" lon="1.81742">
        <ele>5.9</ele>
        <time>2022-04-22T15:50:56Z</time>
      </trkpt>
      <trkpt lat="50.11071" lon="1.81742">
        <ele>5.9</ele>
        <time>2022-04-22T15:50:57Z</time>
      </trkpt>
      <trkpt lat="50.11071" lon="1.81742">
        <ele>5.9</ele>
        <time>2022-04-22T15:50:58Z</time>
      </trkpt>
      <trkpt lat="50.11071" lon="1.81742">
        <ele>5.9</ele>
        <time>2022-04-22T15:50:59Z</time>
      </trkpt>
      <trkpt lat="50.11071" lon="1.81742">
        <ele>5.9</ele>
        <time>2022-04-22T15:51:00Z</time>
      </trkpt>
      <trkpt lat="50.11071" lon="1.81742">
        <ele>5.9</ele>
        <time>2022-04-22T15:51:01Z</time>
      </trkpt>
      <trkpt lat="50.11071" lon="1.81742">
        <ele>5.9</ele>
        <time>2022-04-22T15:51:02Z</time>
      </trkpt>
      <trkpt lat="50.11071" lon="1.81742">
        <ele>5.9</ele>
        <time>2022-04-22T15:51:03Z</time>
      </trkpt>
      <trkpt lat="50.11071" lon="1.81742">
        <ele>5.9</ele>
        <time>2022-04-22T15:51:04Z</time>
      </trkpt>
      <trkpt lat="50.11071" lon="1.81742">
        <ele>5.9</ele>
        <time>2022-04-22T15:51:05Z</time>
      </trkpt>
      <trkpt lat="50.11071" lon="1.81742">
        <ele>5.9</ele>
        <time>2022-04-22T15:51:06Z</time>
      </trkpt>
      <trkpt lat="50.11071" lon="1.81742">
        <ele>5.9</ele>
        <time>2022-04-22T15:51:07Z</time>
      </trkpt>
      <trkpt lat="50.11071" lon="1.81742">
        <ele>5.9</ele>
        <time>2022-04-22T15:51:08Z</time>
      </trkpt>
      <trkpt lat="50.11071" lon="1.81742">
        <ele>5.9</ele>
        <time>2022-04-22T15:51:09Z</time>
      </trkpt>
      <trkpt lat="50.11071" lon="1.81742">
        <ele>5.9</ele>
        <time>2022-04-22T15:51:10Z</time>
      </trkpt>
      <trkpt lat="50.11071" lon="1.81742">
        <ele>5.9</ele>
        <time>2022-04-22T15:51:11Z</time>
      </trkpt>
      <trkpt lat="50.11071" lon="1.81742">
        <ele>5.9</ele>
        <time>2022-04-22T15:51:12Z</time>
      </trkpt>
      <trkpt lat="50.11071" lon="1.81742">
        <ele>5.9</ele>
        <time>2022-04-22T15:51:13Z</time>
      </trkpt>
      <trkpt lat="50.11071" lon="1.81742">
        <ele>5.9</ele>
        <time>2022-04-22T15:51:14Z</time>
      </trkpt>
      <trkpt lat="50.11071" lon="1.81742">
        <ele>5.9</ele>
        <time>2022-04-22T15:51:15Z</time>
      </trkpt>
      <trkpt lat="50.11071" lon="1.81742">
        <ele>5.9</ele>
        <time>2022-04-22T15:51:16Z</time>
      </trkpt>
      <trkpt lat="50.11071" lon="1.81742">
        <ele>5.9</ele>
        <time>2022-04-22T15:51:17Z</time>
      </trkpt>
      <trkpt lat="50.11071" lon="1.81742">
        <ele>5.9</ele>
        <time>2022-04-22T15:51:18Z</time>
      </trkpt>
      <trkpt lat="50.11071" lon="1.81742">
        <ele>5.9</ele>
        <time>2022-04-22T15:51:19Z</time>
      </trkpt>
      <trkpt lat="50.11071" lon="1.81742">
        <ele>5.9</ele>
        <time>2022-04-22T15:51:20Z</time>
      </trkpt>
      <trkpt lat="50.11071" lon="1.81742">
        <ele>5.9</ele>
        <time>2022-04-22T15:51:21Z</time>
      </trkpt>
      <trkpt lat="50.11071" lon="1.81742">
        <ele>5.9</ele>
        <time>2022-04-22T15:51:22Z</time>
      </trkpt>
      <trkpt lat="50.11071" lon="1.81742">
        <ele>5.9</ele>
        <time>2022-04-22T15:51:23Z</time>
      </trkpt>
      <trkpt lat="50.11071" lon="1.81742">
        <ele>5.9</ele>
        <time>2022-04-22T15:51:24Z</time>
      </trkpt>
      <trkpt lat="50.11071" lon="1.81742">
        <ele>5.9</ele>
        <time>2022-04-22T15:51:25Z</time>
      </trkpt>
      <trkpt lat="50.11071" lon="1.81742">
        <ele>5.9</ele>
        <time>2022-04-22T15:51:26Z</time>
      </trkpt>
      <trkpt lat="50.11071" lon="1.81742">
        <ele>5.9</ele>
        <time>2022-04-22T15:51:27Z</time>
      </trkpt>
      <trkpt lat="50.11071" lon="1.81742">
        <ele>5.9</ele>
        <time>2022-04-22T15:51:28Z</time>
      </trkpt>
      <trkpt lat="50.11071" lon="1.81742">
        <ele>5.9</ele>
        <time>2022-04-22T15:51:29Z</time>
      </trkpt>
      <trkpt lat="50.11071" lon="1.81742">
        <ele>5.9</ele>
        <time>2022-04-22T15:51:30Z</time>
      </trkpt>
      <trkpt lat="50.11071" lon="1.81743">
        <ele>5.9</ele>
        <time>2022-04-22T15:51:31Z</time>
      </trkpt>
      <trkpt lat="50.11071" lon="1.81743">
        <ele>5.9</ele>
        <time>2022-04-22T15:51:32Z</time>
      </trkpt>
      <trkpt lat="50.11071" lon="1.81743">
        <ele>5.9</ele>
        <time>2022-04-22T15:51:34Z</time>
      </trkpt>
      <trkpt lat="50.11071" lon="1.81743">
        <ele>5.9</ele>
        <time>2022-04-22T15:51:35Z</time>
      </trkpt>
      <trkpt lat="50.11071" lon="1.81743">
        <ele>5.9</ele>
        <time>2022-04-22T15:51:36Z</time>
      </trkpt>
      <trkpt lat="50.11071" lon="1.81744">
        <ele>5.9</ele>
        <time>2022-04-22T15:51:37Z</time>
      </trkpt>
      <trkpt lat="50.11071" lon="1.81744">
        <ele>5.9</ele>
        <time>2022-04-22T15:51:38Z</time>
      </trkpt>
      <trkpt lat="50.11071" lon="1.81744">
        <ele>5.9</ele>
        <time>2022-04-22T15:51:39Z</time>
      </trkpt>
      <trkpt lat="50.11071" lon="1.81744">
        <ele>5.9</ele>
        <time>2022-04-22T15:51:40Z</time>
      </trkpt>
      <trkpt lat="50.11071" lon="1.81744">
        <ele>5.9</ele>
        <time>2022-04-22T15:51:41Z</time>
      </trkpt>
      <trkpt lat="50.11071" lon="1.81744">
        <ele>5.9</ele>
        <time>2022-04-22T15:51:42Z</time>
      </trkpt>
      <trkpt lat="50.11071" lon="1.81744">
        <ele>5.9</ele>
        <time>2022-04-22T15:51:43Z</time>
      </trkpt>
      <trkpt lat="50.11071" lon="1.81744">
        <ele>5.9</ele>
        <time>2022-04-22T15:51:44Z</time>
      </trkpt>
      <trkpt lat="50.11071" lon="1.81744">
        <ele>5.9</ele>
        <time>2022-04-22T15:51:45Z</time>
      </trkpt>
      <trkpt lat="50.11071" lon="1.81744">
        <ele>5.9</ele>
        <time>2022-04-22T15:51:46Z</time>
      </trkpt>
      <trkpt lat="50.11071" lon="1.81744">
        <ele>5.9</ele>
        <time>2022-04-22T15:51:47Z</time>
      </trkpt>
      <trkpt lat="50.11071" lon="1.81744">
        <ele>5.9</ele>
        <time>2022-04-22T15:51:48Z</time>
      </trkpt>
      <trkpt lat="50.11071" lon="1.81745">
        <ele>5.9</ele>
        <time>2022-04-22T15:51:49Z</time>
      </trkpt>
      <trkpt lat="50.11071" lon="1.81745">
        <ele>5.9</ele>
        <time>2022-04-22T15:51:50Z</time>
      </trkpt>
      <trkpt lat="50.11071" lon="1.81745">
        <ele>5.9</ele>
        <time>2022-04-22T15:51:51Z</time>
      </trkpt>
      <trkpt lat="50.11071" lon="1.81745">
        <ele>5.9</ele>
        <time>2022-04-22T15:51:52Z</time>
      </trkpt>
      <trkpt lat="50.11071" lon="1.81745">
        <ele>5.9</ele>
        <time>2022-04-22T15:51:53Z</time>
      </trkpt>
      <trkpt lat="50.1107" lon="1.81745">
        <ele>5.9</ele>
        <time>2022-04-22T15:51:54Z</time>
      </trkpt>
      <trkpt lat="50.1107" lon="1.81745">
        <ele>5.9</ele>
        <time>2022-04-22T15:51:55Z</time>
      </trkpt>
      <trkpt lat="50.1107" lon="1.81745">
        <ele>5.9</ele>
        <time>2022-04-22T15:51:56Z</time>
      </trkpt>
      <trkpt lat="50.1107" lon="1.81745">
        <ele>5.9</ele>
        <time>2022-04-22T15:51:57Z</time>
      </trkpt>
      <trkpt lat="50.1107" lon="1.81745">
        <ele>5.9</ele>
        <time>2022-04-22T15:51:58Z</time>
      </trkpt>
      <trkpt lat="50.1107" lon="1.81745">
        <ele>5.9</ele>
        <time>2022-04-22T15:51:59Z</time>
      </trkpt>
      <trkpt lat="50.1107" lon="1.81745">
        <ele>5.9</ele>
        <time>2022-04-22T15:52:00Z</time>
      </trkpt>
      <trkpt lat="50.1107" lon="1.81745">
        <ele>5.9</ele>
        <time>2022-04-22T15:52:01Z</time>
      </trkpt>
      <trkpt lat="50.1107" lon="1.81746">
        <ele>5.9</ele>
        <time>2022-04-22T15:52:02Z</time>
      </trkpt>
      <trkpt lat="50.1107" lon="1.81746">
        <ele>5.9</ele>
        <time>2022-04-22T15:52:03Z</time>
      </trkpt>
      <trkpt lat="50.1107" lon="1.81746">
        <ele>5.9</ele>
        <time>2022-04-22T15:52:04Z</time>
      </trkpt>
      <trkpt lat="50.1107" lon="1.81746">
        <ele>5.9</ele>
        <time>2022-04-22T15:52:05Z</time>
      </trkpt>
      <trkpt lat="50.1107" lon="1.81746">
        <ele>5.9</ele>
        <time>2022-04-22T15:52:06Z</time>
      </trkpt>
      <trkpt lat="50.1107" lon="1.81746">
        <ele>5.9</ele>
        <time>2022-04-22T15:52:07Z</time>
      </trkpt>
      <trkpt lat="50.1107" lon="1.81746">
        <ele>5.9</ele>
        <time>2022-04-22T15:52:08Z</time>
      </trkpt>
      <trkpt lat="50.1107" lon="1.81746">
        <ele>5.9</ele>
        <time>2022-04-22T15:52:09Z</time>
      </trkpt>
      <trkpt lat="50.1107" lon="1.81746">
        <ele>5.9</ele>
        <time>2022-04-22T15:52:10Z</time>
      </trkpt>
      <trkpt lat="50.1107" lon="1.81746">
        <ele>5.9</ele>
        <time>2022-04-22T15:52:11Z</time>
      </trkpt>
      <trkpt lat="50.1107" lon="1.81746">
        <ele>5.9</ele>
        <time>2022-04-22T15:52:12Z</time>
      </trkpt>
      <trkpt lat="50.1107" lon="1.81746">
        <ele>5.9</ele>
        <time>2022-04-22T15:52:13Z</time>
      </trkpt>
      <trkpt lat="50.1107" lon="1.81747">
        <ele>5.9</ele>
        <time>2022-04-22T15:52:14Z</time>
      </trkpt>
      <trkpt lat="50.1107" lon="1.81747">
        <ele>5.9</ele>
        <time>2022-04-22T15:52:15Z</time>
      </trkpt>
      <trkpt lat="50.1107" lon="1.81747">
        <ele>5.9</ele>
        <time>2022-04-22T15:52:16Z</time>
      </trkpt>
      <trkpt lat="50.1107" lon="1.81747">
        <ele>5.9</ele>
        <time>2022-04-22T15:52:17Z</time>
      </trkpt>
      <trkpt lat="50.1107" lon="1.81747">
        <ele>5.9</ele>
        <time>2022-04-22T15:52:18Z</time>
      </trkpt>
      <trkpt lat="50.1107" lon="1.81747">
        <ele>5.9</ele>
        <time>2022-04-22T15:52:19Z</time>
      </trkpt>
      <trkpt lat="50.1107" lon="1.81747">
        <ele>5.9</ele>
        <time>2022-04-22T15:52:20Z</time>
      </trkpt>
      <trkpt lat="50.1107" lon="1.81747">
        <ele>5.9</ele>
        <time>2022-04-22T15:52:21Z</time>
      </trkpt>
      <trkpt lat="50.1107" lon="1.81747">
        <ele>5.9</ele>
        <time>2022-04-22T15:52:22Z</time>
      </trkpt>
      <trkpt lat="50.1107" lon="1.81747">
        <ele>5.9</ele>
        <time>2022-04-22T15:52:23Z</time>
      </trkpt>
      <trkpt lat="50.1107" lon="1.81747">
        <ele>5.9</ele>
        <time>2022-04-22T15:52:24Z</time>
      </trkpt>
      <trkpt lat="50.1107" lon="1.81747">
        <ele>5.9</ele>
        <time>2022-04-22T15:52:25Z</time>
      </trkpt>
      <trkpt lat="50.1107" lon="1.81747">
        <ele>5.9</ele>
        <time>2022-04-22T15:52:26Z</time>
      </trkpt>
      <trkpt lat="50.1107" lon="1.81748">
        <ele>5.9</ele>
        <time>2022-04-22T15:52:27Z</time>
      </trkpt>
      <trkpt lat="50.1107" lon="1.81748">
        <ele>5.9</ele>
        <time>2022-04-22T15:52:28Z</time>
      </trkpt>
      <trkpt lat="50.1107" lon="1.81748">
        <ele>5.9</ele>
        <time>2022-04-22T15:52:29Z</time>
      </trkpt>
      <trkpt lat="50.1107" lon="1.81748">
        <ele>5.9</ele>
        <time>2022-04-22T15:52:30Z</time>
      </trkpt>
      <trkpt lat="50.1107" lon="1.81748">
        <ele>5.9</ele>
        <time>2022-04-22T15:52:31Z</time>
      </trkpt>
      <trkpt lat="50.1107" lon="1.81748">
        <ele>5.9</ele>
        <time>2022-04-22T15:52:32Z</time>
      </trkpt>
      <trkpt lat="50.1107" lon="1.81748">
        <ele>5.9</ele>
        <time>2022-04-22T15:52:33Z</time>
      </trkpt>
      <trkpt lat="50.1107" lon="1.81748">
        <ele>5.9</ele>
        <time>2022-04-22T15:52:34Z</time>
      </trkpt>
      <trkpt lat="50.1107" lon="1.81748">
        <ele>5.9</ele>
        <time>2022-04-22T15:52:35Z</time>
      </trkpt>
      <trkpt lat="50.1107" lon="1.81748">
        <ele>5.9</ele>
        <time>2022-04-22T15:52:36Z</time>
      </trkpt>
      <trkpt lat="50.1107" lon="1.81748">
        <ele>5.9</ele>
        <time>2022-04-22T15:52:37Z</time>
      </trkpt>
      <trkpt lat="50.1107" lon="1.81748">
        <ele>5.9</ele>
        <time>2022-04-22T15:52:38Z</time>
      </trkpt>
      <trkpt lat="50.1107" lon="1.81748">
        <ele>5.9</ele>
        <time>2022-04-22T15:52:39Z</time>
      </trkpt>
      <trkpt lat="50.1107" lon="1.81749">
        <ele>5.9</ele>
        <time>2022-04-22T15:52:40Z</time>
      </trkpt>
      <trkpt lat="50.1107" lon="1.81749">
        <ele>5.9</ele>
        <time>2022-04-22T15:52:41Z</time>
      </trkpt>
      <trkpt lat="50.1107" lon="1.81749">
        <ele>5.9</ele>
        <time>2022-04-22T15:52:42Z</time>
      </trkpt>
      <trkpt lat="50.1107" lon="1.81749">
        <ele>5.9</ele>
        <time>2022-04-22T15:52:43Z</time>
      </trkpt>
      <trkpt lat="50.1107" lon="1.81749">
        <ele>5.9</ele>
        <time>2022-04-22T15:52:44Z</time>
      </trkpt>
      <trkpt lat="50.1107" lon="1.81749">
        <ele>5.9</ele>
        <time>2022-04-22T15:52:45Z</time>
      </trkpt>
      <trkpt lat="50.1107" lon="1.81749">
        <ele>5.9</ele>
        <time>2022-04-22T15:52:46Z</time>
      </trkpt>
      <trkpt lat="50.1107" lon="1.81749">
        <ele>5.9</ele>
        <time>2022-04-22T15:52:47Z</time>
      </trkpt>
      <trkpt lat="50.1107" lon="1.81749">
        <ele>5.9</ele>
        <time>2022-04-22T15:52:48Z</time>
      </trkpt>
      <trkpt lat="50.1107" lon="1.81749">
        <ele>5.9</ele>
        <time>2022-04-22T15:52:49Z</time>
      </trkpt>
      <trkpt lat="50.1107" lon="1.81749">
        <ele>5.9</ele>
        <time>2022-04-22T15:52:50Z</time>
      </trkpt>
      <trkpt lat="50.1107" lon="1.81749">
        <ele>5.9</ele>
        <time>2022-04-22T15:52:51Z</time>
      </trkpt>
      <trkpt lat="50.1107" lon="1.8175">
        <ele>5.9</ele>
        <time>2022-04-22T15:52:52Z</time>
      </trkpt>
      <trkpt lat="50.1107" lon="1.8175">
        <ele>5.9</ele>
        <time>2022-04-22T15:52:53Z</time>
      </trkpt>
      <trkpt lat="50.1107" lon="1.8175">
        <ele>5.9</ele>
        <time>2022-04-22T15:52:54Z</time>
      </trkpt>
      <trkpt lat="50.1107" lon="1.8175">
        <ele>5.9</ele>
        <time>2022-04-22T15:52:55Z</time>
      </trkpt>
      <trkpt lat="50.1107" lon="1.8175">
        <ele>5.9</ele>
        <time>2022-04-22T15:52:56Z</time>
      </trkpt>
      <trkpt lat="50.1107" lon="1.8175">
        <ele>5.9</ele>
        <time>2022-04-22T15:52:57Z</time>
      </trkpt>
      <trkpt lat="50.1107" lon="1.8175">
        <ele>5.9</ele>
        <time>2022-04-22T15:52:58Z</time>
      </trkpt>
      <trkpt lat="50.1107" lon="1.8175">
        <ele>5.9</ele>
        <time>2022-04-22T15:52:59Z</time>
      </trkpt>
      <trkpt lat="50.1107" lon="1.8175">
        <ele>5.9</ele>
        <time>2022-04-22T15:53:00Z</time>
      </trkpt>
      <trkpt lat="50.1107" lon="1.8175">
        <ele>5.9</ele>
        <time>2022-04-22T15:53:01Z</time>
      </trkpt>
      <trkpt lat="50.1107" lon="1.8175">
        <ele>5.9</ele>
        <time>2022-04-22T15:53:02Z</time>
      </trkpt>
      <trkpt lat="50.1107" lon="1.8175">
        <ele>5.9</ele>
        <time>2022-04-22T15:53:03Z</time>
      </trkpt>
      <trkpt lat="50.1107" lon="1.8175">
        <ele>5.9</ele>
        <time>2022-04-22T15:53:04Z</time>
      </trkpt>
      <trkpt lat="50.1107" lon="1.81751">
        <ele>5.9</ele>
        <time>2022-04-22T15:53:05Z</time>
      </trkpt>
      <trkpt lat="50.1107" lon="1.81751">
        <ele>5.9</ele>
        <time>2022-04-22T15:53:06Z</time>
      </trkpt>
      <trkpt lat="50.1107" lon="1.81751">
        <ele>5.9</ele>
        <time>2022-04-22T15:53:07Z</time>
      </trkpt>
      <trkpt lat="50.1107" lon="1.81751">
        <ele>5.9</ele>
        <time>2022-04-22T15:53:08Z</time>
      </trkpt>
      <trkpt lat="50.11069" lon="1.81751">
        <ele>5.9</ele>
        <time>2022-04-22T15:53:09Z</time>
      </trkpt>
      <trkpt lat="50.11069" lon="1.81751">
        <ele>5.9</ele>
        <time>2022-04-22T15:53:10Z</time>
      </trkpt>
      <trkpt lat="50.11069" lon="1.81751">
        <ele>5.9</ele>
        <time>2022-04-22T15:53:11Z</time>
      </trkpt>
      <trkpt lat="50.11069" lon="1.81751">
        <ele>5.9</ele>
        <time>2022-04-22T15:53:12Z</time>
      </trkpt>
      <trkpt lat="50.11069" lon="1.81751">
        <ele>5.9</ele>
        <time>2022-04-22T15:53:13Z</time>
      </trkpt>
      <trkpt lat="50.11069" lon="1.81751">
        <ele>5.9</ele>
        <time>2022-04-22T15:53:14Z</time>
      </trkpt>
      <trkpt lat="50.11069" lon="1.81751">
        <ele>5.9</ele>
        <time>2022-04-22T15:53:15Z</time>
      </trkpt>
      <trkpt lat="50.11069" lon="1.81751">
        <ele>5.9</ele>
        <time>2022-04-22T15:53:16Z</time>
      </trkpt>
      <trkpt lat="50.11069" lon="1.81751">
        <ele>5.9</ele>
        <time>2022-04-22T15:53:17Z</time>
      </trkpt>
      <trkpt lat="50.11069" lon="1.81752">
        <ele>5.9</ele>
        <time>2022-04-22T15:53:18Z</time>
      </trkpt>
      <trkpt lat="50.11069" lon="1.81752">
        <ele>5.9</ele>
        <time>2022-04-22T15:53:19Z</time>
      </trkpt>
      <trkpt lat="50.11069" lon="1.81752">
        <ele>5.9</ele>
        <time>2022-04-22T15:53:20Z</time>
      </trkpt>
      <trkpt lat="50.11069" lon="1.81752">
        <ele>5.9</ele>
        <time>2022-04-22T15:53:21Z</time>
      </trkpt>
      <trkpt lat="50.11069" lon="1.81752">
        <ele>5.9</ele>
        <time>2022-04-22T15:53:22Z</time>
      </trkpt>
      <trkpt lat="50.11069" lon="1.81752">
        <ele>5.9</ele>
        <time>2022-04-22T15:53:23Z</time>
      </trkpt>
      <trkpt lat="50.11069" lon="1.81752">
        <ele>5.9</ele>
        <time>2022-04-22T15:53:24Z</time>
      </trkpt>
      <trkpt lat="50.11069" lon="1.81752">
        <ele>5.9</ele>
        <time>2022-04-22T15:53:25Z</time>
      </trkpt>
      <trkpt lat="50.11069" lon="1.81752">
        <ele>5.9</ele>
        <time>2022-04-22T15:53:26Z</time>
      </trkpt>
      <trkpt lat="50.11069" lon="1.81752">
        <ele>5.9</ele>
        <time>2022-04-22T15:53:27Z</time>
      </trkpt>
      <trkpt lat="50.11069" lon="1.81752">
        <ele>5.9</ele>
        <time>2022-04-22T15:53:28Z</time>
      </trkpt>
      <trkpt lat="50.11069" lon="1.81752">
        <ele>5.9</ele>
        <time>2022-04-22T15:53:29Z</time>
      </trkpt>
      <trkpt lat="50.11069" lon="1.81753">
        <ele>5.9</ele>
        <time>2022-04-22T15:53:30Z</time>
      </trkpt>
      <trkpt lat="50.11069" lon="1.81753">
        <ele>5.9</ele>
        <time>2022-04-22T15:53:31Z</time>
      </trkpt>
      <trkpt lat="50.11069" lon="1.81753">
        <ele>5.9</ele>
        <time>2022-04-22T15:53:32Z</time>
      </trkpt>
      <trkpt lat="50.11069" lon="1.81753">
        <ele>5.9</ele>
        <time>2022-04-22T15:53:33Z</time>
      </trkpt>
      <trkpt lat="50.11069" lon="1.81753">
        <ele>5.9</ele>
        <time>2022-04-22T15:53:34Z</time>
      </trkpt>
      <trkpt lat="50.11069" lon="1.81753">
        <ele>5.9</ele>
        <time>2022-04-22T15:53:35Z</time>
      </trkpt>
      <trkpt lat="50.11069" lon="1.81753">
        <ele>5.9</ele>
        <time>2022-04-22T15:53:36Z</time>
      </trkpt>
      <trkpt lat="50.11069" lon="1.81753">
        <ele>5.9</ele>
        <time>2022-04-22T15:53:38Z</time>
      </trkpt>
      <trkpt lat="50.11069" lon="1.81753">
        <ele>5.9</ele>
        <time>2022-04-22T15:53:39Z</time>
      </trkpt>
      <trkpt lat="50.11069" lon="1.81753">
        <ele>5.9</ele>
        <time>2022-04-22T15:53:40Z</time>
      </trkpt>
      <trkpt lat="50.11069" lon="1.81753">
        <ele>5.9</ele>
        <time>2022-04-22T15:53:41Z</time>
      </trkpt>
      <trkpt lat="50.11069" lon="1.81753">
        <ele>5.9</ele>
        <time>2022-04-22T15:53:43Z</time>
      </trkpt>
      <trkpt lat="50.11069" lon="1.81753">
        <ele>5.9</ele>
        <time>2022-04-22T15:53:44Z</time>
      </trkpt>
      <trkpt lat="50.11069" lon="1.81754">
        <ele>5.9</ele>
        <time>2022-04-22T15:53:45Z</time>
      </trkpt>
      <trkpt lat="50.11069" lon="1.81754">
        <ele>5.9</ele>
        <time>2022-04-22T15:53:46Z</time>
      </trkpt>
      <trkpt lat="50.11069" lon="1.81754">
        <ele>5.9</ele>
        <time>2022-04-22T15:53:48Z</time>
      </trkpt>
      <trkpt lat="50.11069" lon="1.81754">
        <ele>5.9</ele>
        <time>2022-04-22T15:53:49Z</time>
      </trkpt>
      <trkpt lat="50.11069" lon="1.81754">
        <ele>5.9</ele>
        <time>2022-04-22T15:53:50Z</time>
      </trkpt>
      <trkpt lat="50.11069" lon="1.81754">
        <ele>5.9</ele>
        <time>2022-04-22T15:53:51Z</time>
      </trkpt>
      <trkpt lat="50.11069" lon="1.81754">
        <ele>5.9</ele>
        <time>2022-04-22T15:53:52Z</time>
      </trkpt>
      <trkpt lat="50.11069" lon="1.81754">
        <ele>5.9</ele>
        <time>2022-04-22T15:53:53Z</time>
      </trkpt>
      <trkpt lat="50.11069" lon="1.81754">
        <ele>5.9</ele>
        <time>2022-04-22T15:53:54Z</time>
      </trkpt>
      <trkpt lat="50.11069" lon="1.81754">
        <ele>5.9</ele>
        <time>2022-04-22T15:53:55Z</time>
      </trkpt>
      <trkpt lat="50.11069" lon="1.81754">
        <ele>5.9</ele>
        <time>2022-04-22T15:53:56Z</time>
      </trkpt>
      <trkpt lat="50.11069" lon="1.81754">
        <ele>5.9</ele>
        <time>2022-04-22T15:53:57Z</time>
      </trkpt>
      <trkpt lat="50.11069" lon="1.81754">
        <ele>5.9</ele>
        <time>2022-04-22T15:53:58Z</time>
      </trkpt>
      <trkpt lat="50.11069" lon="1.81755">
        <ele>5.9</ele>
        <time>2022-04-22T15:53:59Z</time>
      </trkpt>
      <trkpt lat="50.11069" lon="1.81755">
        <ele>5.9</ele>
        <time>2022-04-22T15:54:00Z</time>
      </trkpt>
      <trkpt lat="50.11069" lon="1.81755">
        <ele>5.9</ele>
        <time>2022-04-22T15:54:01Z</time>
      </trkpt>
      <trkpt lat="50.11069" lon="1.81755">
        <ele>5.9</ele>
        <time>2022-04-22T15:54:02Z</time>
      </trkpt>
      <trkpt lat="50.11069" lon="1.81755">
        <ele>5.9</ele>
        <time>2022-04-22T15:54:03Z</time>
      </trkpt>
      <trkpt lat="50.11069" lon="1.81755">
        <ele>5.9</ele>
        <time>2022-04-22T15:54:04Z</time>
      </trkpt>
      <trkpt lat="50.11069" lon="1.81755">
        <ele>5.9</ele>
        <time>2022-04-22T15:54:05Z</time>
      </trkpt>
      <trkpt lat="50.11069" lon="1.81755">
        <ele>5.9</ele>
        <time>2022-04-22T15:54:06Z</time>
      </trkpt>
      <trkpt lat="50.11069" lon="1.81755">
        <ele>5.9</ele>
        <time>2022-04-22T15:54:07Z</time>
      </trkpt>
      <trkpt lat="50.11069" lon="1.81755">
        <ele>5.9</ele>
        <time>2022-04-22T15:54:08Z</time>
      </trkpt>
      <trkpt lat="50.11069" lon="1.81755">
        <ele>5.9</ele>
        <time>2022-04-22T15:54:09Z</time>
      </trkpt>
      <trkpt lat="50.11069" lon="1.81755">
        <ele>5.9</ele>
        <time>2022-04-22T15:54:10Z</time>
      </trkpt>
      <trkpt lat="50.11069" lon="1.81756">
        <ele>5.9</ele>
        <time>2022-04-22T15:54:11Z</time>
      </trkpt>
      <trkpt lat="50.11069" lon="1.81756">
        <ele>5.8</ele>
        <time>2022-04-22T15:54:12Z</time>
      </trkpt>
      <trkpt lat="50.11069" lon="1.81756">
        <ele>5.8</ele>
        <time>2022-04-22T15:54:13Z</time>
      </trkpt>
      <trkpt lat="50.11069" lon="1.81756">
        <ele>5.8</ele>
        <time>2022-04-22T15:54:14Z</time>
      </trkpt>
      <trkpt lat="50.11069" lon="1.81756">
        <ele>5.8</ele>
        <time>2022-04-22T15:54:15Z</time>
      </trkpt>
      <trkpt lat="50.11069" lon="1.81756">
        <ele>5.8</ele>
        <time>2022-04-22T15:54:16Z</time>
      </trkpt>
      <trkpt lat="50.11069" lon="1.81756">
        <ele>5.8</ele>
        <time>2022-04-22T15:54:17Z</time>
      </trkpt>
      <trkpt lat="50.11069" lon="1.81756">
        <ele>5.8</ele>
        <time>2022-04-22T15:54:18Z</time>
      </trkpt>
      <trkpt lat="50.11069" lon="1.81756">
        <ele>5.8</ele>
        <time>2022-04-22T15:54:19Z</time>
      </trkpt>
      <trkpt lat="50.11069" lon="1.81756">
        <ele>5.8</ele>
        <time>2022-04-22T15:54:20Z</time>
      </trkpt>
      <trkpt lat="50.11069" lon="1.81756">
        <ele>5.8</ele>
        <time>2022-04-22T15:54:21Z</time>
      </trkpt>
      <trkpt lat="50.11069" lon="1.81756">
        <ele>5.8</ele>
        <time>2022-04-22T15:54:22Z</time>
      </trkpt>
      <trkpt lat="50.11069" lon="1.81756">
        <ele>5.8</ele>
        <time>2022-04-22T15:54:23Z</time>
      </trkpt>
      <trkpt lat="50.11069" lon="1.81757">
        <ele>5.8</ele>
        <time>2022-04-22T15:54:24Z</time>
      </trkpt>
      <trkpt lat="50.11069" lon="1.81757">
        <ele>5.8</ele>
        <time>2022-04-22T15:54:25Z</time>
      </trkpt>
      <trkpt lat="50.11069" lon="1.81757">
        <ele>5.8</ele>
        <time>2022-04-22T15:54:26Z</time>
      </trkpt>
      <trkpt lat="50.11068" lon="1.81757">
        <ele>5.8</ele>
        <time>2022-04-22T15:54:27Z</time>
      </trkpt>
      <trkpt lat="50.11068" lon="1.81757">
        <ele>5.8</ele>
        <time>2022-04-22T15:54:28Z</time>
      </trkpt>
      <trkpt lat="50.11068" lon="1.81757">
        <ele>5.8</ele>
        <time>2022-04-22T15:54:29Z</time>
      </trkpt>
      <trkpt lat="50.11068" lon="1.81757">
        <ele>5.8</ele>
        <time>2022-04-22T15:54:30Z</time>
      </trkpt>
      <trkpt lat="50.11068" lon="1.81757">
        <ele>5.8</ele>
        <time>2022-04-22T15:54:31Z</time>
      </trkpt>
      <trkpt lat="50.11068" lon="1.81757">
        <ele>5.8</ele>
        <time>2022-04-22T15:54:32Z</time>
      </trkpt>
      <trkpt lat="50.11068" lon="1.81757">
        <ele>5.8</ele>
        <time>2022-04-22T15:54:33Z</time>
      </trkpt>
      <trkpt lat="50.1107" lon="1.81748">
        <ele>5.8</ele>
        <time>2022-04-22T15:54:34Z</time>
      </trkpt>
      <trkpt lat="50.1107" lon="1.81747">
        <ele>5.8</ele>
        <time>2022-04-22T15:54:35Z</time>
      </trkpt>
      <trkpt lat="50.11071" lon="1.81746">
        <ele>5.8</ele>
        <time>2022-04-22T15:54:36Z</time>
      </trkpt>
      <trkpt lat="50.11071" lon="1.81745">
        <ele>5.8</ele>
        <time>2022-04-22T15:54:37Z</time>
      </trkpt>
      <trkpt lat="50.11071" lon="1.81746">
        <ele>5.8</ele>
        <time>2022-04-22T15:54:38Z</time>
      </trkpt>
      <trkpt lat="50.11071" lon="1.81746">
        <ele>5.8</ele>
        <time>2022-04-22T15:54:39Z</time>
      </trkpt>
      <trkpt lat="50.11071" lon="1.81746">
        <ele>5.8</ele>
        <time>2022-04-22T15:54:41Z</time>
      </trkpt>
      <trkpt lat="50.11072" lon="1.81745">
        <ele>5.8</ele>
        <time>2022-04-22T15:54:42Z</time>
      </trkpt>
      <trkpt lat="50.11072" lon="1.81744">
        <ele>5.8</ele>
        <time>2022-04-22T15:54:43Z</time>
      </trkpt>
      <trkpt lat="50.11073" lon="1.81744">
        <ele>5.8</ele>
        <time>2022-04-22T15:54:45Z</time>
      </trkpt>
      <trkpt lat="50.11073" lon="1.81745">
        <ele>5.8</ele>
        <time>2022-04-22T15:54:46Z</time>
      </trkpt>
      <trkpt lat="50.11073" lon="1.81745">
        <ele>5.8</ele>
        <time>2022-04-22T15:54:47Z</time>
      </trkpt>
      <trkpt lat="50.11073" lon="1.81746">
        <ele>5.8</ele>
        <time>2022-04-22T15:54:48Z</time>
      </trkpt>
      <trkpt lat="50.11073" lon="1.81746">
        <ele>5.8</ele>
        <time>2022-04-22T15:54:49Z</time>
      </trkpt>
      <trkpt lat="50.11072" lon="1.81747">
        <ele>5.8</ele>
        <time>2022-04-22T15:54:50Z</time>
      </trkpt>
      <trkpt lat="50.11072" lon="1.81747">
        <ele>5.8</ele>
        <time>2022-04-22T15:54:51Z</time>
      </trkpt>
      <trkpt lat="50.11072" lon="1.81747">
        <ele>5.8</ele>
        <time>2022-04-22T15:54:52Z</time>
      </trkpt>
      <trkpt lat="50.11072" lon="1.81747">
        <ele>5.8</ele>
        <time>2022-04-22T15:54:53Z</time>
      </trkpt>
      <trkpt lat="50.11072" lon="1.81747">
        <ele>5.8</ele>
        <time>2022-04-22T15:54:54Z</time>
      </trkpt>
      <trkpt lat="50.11072" lon="1.81747">
        <ele>5.8</ele>
        <time>2022-04-22T15:54:55Z</time>
      </trkpt>
      <trkpt lat="50.11072" lon="1.81747">
        <ele>5.8</ele>
        <time>2022-04-22T15:54:56Z</time>
      </trkpt>
      <trkpt lat="50.11072" lon="1.81747">
        <ele>5.8</ele>
        <time>2022-04-22T15:54:57Z</time>
      </trkpt>
      <trkpt lat="50.11072" lon="1.81747">
        <ele>5.8</ele>
        <time>2022-04-22T15:54:58Z</time>
      </trkpt>
      <trkpt lat="50.11072" lon="1.81747">
        <ele>5.8</ele>
        <time>2022-04-22T15:54:59Z</time>
      </trkpt>
      <trkpt lat="50.11072" lon="1.81747">
        <ele>5.8</ele>
        <time>2022-04-22T15:55:00Z</time>
      </trkpt>
      <trkpt lat="50.11072" lon="1.81747">
        <ele>5.8</ele>
        <time>2022-04-22T15:55:01Z</time>
      </trkpt>
      <trkpt lat="50.11072" lon="1.81746">
        <ele>5.8</ele>
        <time>2022-04-22T15:55:02Z</time>
      </trkpt>
      <trkpt lat="50.11072" lon="1.81746">
        <ele>5.8</ele>
        <time>2022-04-22T15:55:03Z</time>
      </trkpt>
      <trkpt lat="50.11072" lon="1.81746">
        <ele>5.8</ele>
        <time>2022-04-22T15:55:04Z</time>
      </trkpt>
      <trkpt lat="50.11072" lon="1.81746">
        <ele>5.8</ele>
        <time>2022-04-22T15:55:05Z</time>
      </trkpt>
      <trkpt lat="50.11072" lon="1.81746">
        <ele>5.8</ele>
        <time>2022-04-22T15:55:06Z</time>
      </trkpt>
      <trkpt lat="50.11072" lon="1.81746">
        <ele>5.8</ele>
        <time>2022-04-22T15:55:07Z</time>
      </trkpt>
      <trkpt lat="50.11072" lon="1.81745">
        <ele>5.8</ele>
        <time>2022-04-22T15:55:08Z</time>
      </trkpt>
      <trkpt lat="50.11072" lon="1.81745">
        <ele>5.8</ele>
        <time>2022-04-22T15:55:09Z</time>
      </trkpt>
      <trkpt lat="50.11072" lon="1.81745">
        <ele>5.8</ele>
        <time>2022-04-22T15:55:10Z</time>
      </trkpt>
      <trkpt lat="50.11072" lon="1.81745">
        <ele>5.8</ele>
        <time>2022-04-22T15:55:11Z</time>
      </trkpt>
      <trkpt lat="50.11072" lon="1.81745">
        <ele>5.8</ele>
        <time>2022-04-22T15:55:12Z</time>
      </trkpt>
      <trkpt lat="50.11072" lon="1.81745">
        <ele>5.8</ele>
        <time>2022-04-22T15:55:14Z</time>
      </trkpt>
      <trkpt lat="50.11072" lon="1.81745">
        <ele>5.8</ele>
        <time>2022-04-22T15:55:15Z</time>
      </trkpt>
      <trkpt lat="50.11072" lon="1.81745">
        <ele>5.8</ele>
        <time>2022-04-22T15:55:16Z</time>
      </trkpt>
      <trkpt lat="50.11072" lon="1.81745">
        <ele>5.8</ele>
        <time>2022-04-22T15:55:17Z</time>
      </trkpt>
      <trkpt lat="50.11072" lon="1.81746">
        <ele>5.8</ele>
        <time>2022-04-22T15:55:18Z</time>
      </trkpt>
      <trkpt lat="50.11072" lon="1.81746">
        <ele>5.8</ele>
        <time>2022-04-22T15:55:19Z</time>
      </trkpt>
      <trkpt lat="50.11072" lon="1.81745">
        <ele>5.8</ele>
        <time>2022-04-22T15:55:20Z</time>
      </trkpt>
      <trkpt lat="50.11072" lon="1.81744">
        <ele>5.8</ele>
        <time>2022-04-22T15:55:21Z</time>
      </trkpt>
      <trkpt lat="50.11072" lon="1.81744">
        <ele>5.8</ele>
        <time>2022-04-22T15:55:22Z</time>
      </trkpt>
      <trkpt lat="50.11072" lon="1.81744">
        <ele>5.8</ele>
        <time>2022-04-22T15:55:23Z</time>
      </trkpt>
      <trkpt lat="50.11072" lon="1.81744">
        <ele>5.8</ele>
        <time>2022-04-22T15:55:24Z</time>
      </trkpt>
      <trkpt lat="50.11072" lon="1.81744">
        <ele>5.8</ele>
        <time>2022-04-22T15:55:25Z</time>
      </trkpt>
      <trkpt lat="50.11072" lon="1.81744">
        <ele>5.8</ele>
        <time>2022-04-22T15:55:26Z</time>
      </trkpt>
      <trkpt lat="50.11072" lon="1.81744">
        <ele>5.8</ele>
        <time>2022-04-22T15:55:27Z</time>
      </trkpt>
      <trkpt lat="50.11072" lon="1.81744">
        <ele>5.8</ele>
        <time>2022-04-22T15:55:28Z</time>
      </trkpt>
      <trkpt lat="50.11072" lon="1.81744">
        <ele>5.8</ele>
        <time>2022-04-22T15:55:29Z</time>
      </trkpt>
      <trkpt lat="50.11072" lon="1.81744">
        <ele>5.8</ele>
        <time>2022-04-22T15:55:30Z</time>
      </trkpt>
      <trkpt lat="50.11072" lon="1.81744">
        <ele>5.8</ele>
        <time>2022-04-22T15:55:31Z</time>
      </trkpt>
      <trkpt lat="50.11072" lon="1.81744">
        <ele>5.8</ele>
        <time>2022-04-22T15:55:32Z</time>
      </trkpt>
      <trkpt lat="50.11072" lon="1.81744">
        <ele>5.8</ele>
        <time>2022-04-22T15:55:33Z</time>
      </trkpt>
      <trkpt lat="50.11072" lon="1.81744">
        <ele>5.8</ele>
        <time>2022-04-22T15:55:34Z</time>
      </trkpt>
      <trkpt lat="50.11072" lon="1.81744">
        <ele>5.8</ele>
        <time>2022-04-22T15:55:35Z</time>
      </trkpt>
      <trkpt lat="50.11072" lon="1.81744">
        <ele>5.8</ele>
        <time>2022-04-22T15:55:36Z</time>
      </trkpt>
      <trkpt lat="50.11072" lon="1.81744">
        <ele>5.8</ele>
        <time>2022-04-22T15:55:37Z</time>
      </trkpt>
      <trkpt lat="50.11072" lon="1.81744">
        <ele>5.8</ele>
        <time>2022-04-22T15:55:38Z</time>
      </trkpt>
      <trkpt lat="50.11072" lon="1.81744">
        <ele>5.8</ele>
        <time>2022-04-22T15:55:39Z</time>
      </trkpt>
      <trkpt lat="50.11072" lon="1.81744">
        <ele>5.8</ele>
        <time>2022-04-22T15:55:40Z</time>
      </trkpt>
      <trkpt lat="50.11072" lon="1.81744">
        <ele>5.8</ele>
        <time>2022-04-22T15:55:41Z</time>
      </trkpt>
      <trkpt lat="50.11072" lon="1.81744">
        <ele>5.8</ele>
        <time>2022-04-22T15:55:42Z</time>
      </trkpt>
      <trkpt lat="50.11072" lon="1.81744">
        <ele>5.8</ele>
        <time>2022-04-22T15:55:43Z</time>
      </trkpt>
      <trkpt lat="50.11072" lon="1.81744">
        <ele>5.8</ele>
        <time>2022-04-22T15:55:44Z</time>
      </trkpt>
      <trkpt lat="50.11072" lon="1.81744">
        <ele>5.8</ele>
        <time>2022-04-22T15:55:45Z</time>
      </trkpt>
      <trkpt lat="50.11072" lon="1.81744">
        <ele>5.8</ele>
        <time>2022-04-22T15:55:46Z</time>
      </trkpt>
      <trkpt lat="50.11072" lon="1.81744">
        <ele>5.8</ele>
        <time>2022-04-22T15:55:47Z</time>
      </trkpt>
      <trkpt lat="50.11072" lon="1.81744">
        <ele>5.8</ele>
        <time>2022-04-22T15:55:48Z</time>
      </trkpt>
      <trkpt lat="50.11072" lon="1.81744">
        <ele>5.8</ele>
        <time>2022-04-22T15:55:49Z</time>
      </trkpt>
      <trkpt lat="50.11072" lon="1.81744">
        <ele>5.8</ele>
        <time>2022-04-22T15:55:50Z</time>
      </trkpt>
      <trkpt lat="50.11072" lon="1.81744">
        <ele>5.8</ele>
        <time>2022-04-22T15:55:51Z</time>
      </trkpt>
      <trkpt lat="50.11072" lon="1.81744">
        <ele>5.8</ele>
        <time>2022-04-22T15:55:52Z</time>
      </trkpt>
      <trkpt lat="50.11072" lon="1.81744">
        <ele>5.8</ele>
        <time>2022-04-22T15:55:53Z</time>
      </trkpt>
      <trkpt lat="50.11072" lon="1.81744">
        <ele>5.8</ele>
        <time>2022-04-22T15:55:54Z</time>
      </trkpt>
      <trkpt lat="50.11072" lon="1.81744">
        <ele>5.8</ele>
        <time>2022-04-22T15:55:55Z</time>
      </trkpt>
      <trkpt lat="50.11072" lon="1.81744">
        <ele>5.8</ele>
        <time>2022-04-22T15:55:56Z</time>
      </trkpt>
      <trkpt lat="50.11072" lon="1.81744">
        <ele>5.8</ele>
        <time>2022-04-22T15:55:57Z</time>
      </trkpt>
      <trkpt lat="50.11072" lon="1.81744">
        <ele>5.8</ele>
        <time>2022-04-22T15:55:58Z</time>
      </trkpt>
      <trkpt lat="50.11072" lon="1.81744">
        <ele>5.8</ele>
        <time>2022-04-22T15:55:59Z</time>
      </trkpt>
      <trkpt lat="50.11072" lon="1.81744">
        <ele>5.8</ele>
        <time>2022-04-22T15:56:00Z</time>
      </trkpt>
      <trkpt lat="50.11072" lon="1.81744">
        <ele>5.8</ele>
        <time>2022-04-22T15:56:01Z</time>
      </trkpt>
      <trkpt lat="50.11072" lon="1.81744">
        <ele>5.8</ele>
        <time>2022-04-22T15:56:02Z</time>
      </trkpt>
      <trkpt lat="50.11072" lon="1.81744">
        <ele>5.8</ele>
        <time>2022-04-22T15:56:03Z</time>
      </trkpt>
      <trkpt lat="50.11072" lon="1.81744">
        <ele>5.8</ele>
        <time>2022-04-22T15:56:04Z</time>
      </trkpt>
      <trkpt lat="50.11072" lon="1.81744">
        <ele>5.8</ele>
        <time>2022-04-22T15:56:05Z</time>
      </trkpt>
      <trkpt lat="50.11072" lon="1.81744">
        <ele>5.8</ele>
        <time>2022-04-22T15:56:06Z</time>
      </trkpt>
      <trkpt lat="50.11072" lon="1.81744">
        <ele>5.8</ele>
        <time>2022-04-22T15:56:07Z</time>
      </trkpt>
      <trkpt lat="50.11072" lon="1.81744">
        <ele>5.8</ele>
        <time>2022-04-22T15:56:08Z</time>
      </trkpt>
      <trkpt lat="50.11072" lon="1.81744">
        <ele>5.8</ele>
        <time>2022-04-22T15:56:09Z</time>
      </trkpt>
      <trkpt lat="50.11072" lon="1.81744">
        <ele>5.8</ele>
        <time>2022-04-22T15:56:10Z</time>
      </trkpt>
      <trkpt lat="50.11072" lon="1.81744">
        <ele>5.8</ele>
        <time>2022-04-22T15:56:11Z</time>
      </trkpt>
      <trkpt lat="50.11072" lon="1.81744">
        <ele>5.8</ele>
        <time>2022-04-22T15:56:12Z</time>
      </trkpt>
      <trkpt lat="50.11072" lon="1.81744">
        <ele>5.8</ele>
        <time>2022-04-22T15:56:13Z</time>
      </trkpt>
      <trkpt lat="50.11072" lon="1.81744">
        <ele>5.8</ele>
        <time>2022-04-22T15:56:14Z</time>
      </trkpt>
      <trkpt lat="50.11072" lon="1.81744">
        <ele>5.8</ele>
        <time>2022-04-22T15:56:15Z</time>
      </trkpt>
      <trkpt lat="50.11072" lon="1.81744">
        <ele>5.8</ele>
        <time>2022-04-22T15:56:16Z</time>
      </trkpt>
      <trkpt lat="50.11072" lon="1.81744">
        <ele>5.8</ele>
        <time>2022-04-22T15:56:17Z</time>
      </trkpt>
      <trkpt lat="50.11072" lon="1.81744">
        <ele>5.8</ele>
        <time>2022-04-22T15:56:18Z</time>
      </trkpt>
      <trkpt lat="50.11072" lon="1.81744">
        <ele>5.8</ele>
        <time>2022-04-22T15:56:19Z</time>
      </trkpt>
      <trkpt lat="50.11072" lon="1.81744">
        <ele>5.8</ele>
        <time>2022-04-22T15:56:20Z</time>
      </trkpt>
      <trkpt lat="50.11072" lon="1.81744">
        <ele>5.8</ele>
        <time>2022-04-22T15:56:21Z</time>
      </trkpt>
      <trkpt lat="50.11072" lon="1.81744">
        <ele>5.8</ele>
        <time>2022-04-22T15:56:22Z</time>
      </trkpt>
      <trkpt lat="50.11072" lon="1.81744">
        <ele>5.8</ele>
        <time>2022-04-22T15:56:23Z</time>
      </trkpt>
      <trkpt lat="50.11072" lon="1.81744">
        <ele>5.8</ele>
        <time>2022-04-22T15:56:24Z</time>
      </trkpt>
      <trkpt lat="50.11072" lon="1.81744">
        <ele>5.8</ele>
        <time>2022-04-22T15:56:25Z</time>
      </trkpt>
      <trkpt lat="50.11072" lon="1.81744">
        <ele>5.8</ele>
        <time>2022-04-22T15:56:26Z</time>
      </trkpt>
      <trkpt lat="50.11072" lon="1.81744">
        <ele>5.8</ele>
        <time>2022-04-22T15:56:27Z</time>
      </trkpt>
      <trkpt lat="50.11072" lon="1.81744">
        <ele>5.8</ele>
        <time>2022-04-22T15:56:28Z</time>
      </trkpt>
      <trkpt lat="50.11072" lon="1.81744">
        <ele>5.8</ele>
        <time>2022-04-22T15:56:29Z</time>
      </trkpt>
      <trkpt lat="50.11072" lon="1.81744">
        <ele>5.8</ele>
        <time>2022-04-22T15:56:30Z</time>
      </trkpt>
      <trkpt lat="50.11072" lon="1.81744">
        <ele>5.8</ele>
        <time>2022-04-22T15:56:31Z</time>
      </trkpt>
      <trkpt lat="50.11072" lon="1.81744">
        <ele>5.8</ele>
        <time>2022-04-22T15:56:32Z</time>
      </trkpt>
      <trkpt lat="50.11072" lon="1.81744">
        <ele>5.8</ele>
        <time>2022-04-22T15:56:33Z</time>
      </trkpt>
      <trkpt lat="50.11072" lon="1.81744">
        <ele>5.8</ele>
        <time>2022-04-22T15:56:34Z</time>
      </trkpt>
      <trkpt lat="50.11072" lon="1.81744">
        <ele>5.8</ele>
        <time>2022-04-22T15:56:35Z</time>
      </trkpt>
      <trkpt lat="50.11072" lon="1.81744">
        <ele>5.8</ele>
        <time>2022-04-22T15:56:36Z</time>
      </trkpt>
      <trkpt lat="50.11072" lon="1.81744">
        <ele>5.8</ele>
        <time>2022-04-22T15:56:37Z</time>
      </trkpt>
      <trkpt lat="50.11072" lon="1.81744">
        <ele>5.8</ele>
        <time>2022-04-22T15:56:38Z</time>
      </trkpt>
      <trkpt lat="50.11072" lon="1.81744">
        <ele>5.8</ele>
        <time>2022-04-22T15:56:39Z</time>
      </trkpt>
      <trkpt lat="50.11072" lon="1.81744">
        <ele>5.8</ele>
        <time>2022-04-22T15:56:40Z</time>
      </trkpt>
      <trkpt lat="50.11072" lon="1.81744">
        <ele>5.8</ele>
        <time>2022-04-22T15:56:41Z</time>
      </trkpt>
      <trkpt lat="50.11072" lon="1.81744">
        <ele>5.8</ele>
        <time>2022-04-22T15:56:42Z</time>
      </trkpt>
      <trkpt lat="50.11072" lon="1.81744">
        <ele>5.8</ele>
        <time>2022-04-22T15:56:43Z</time>
      </trkpt>
      <trkpt lat="50.11072" lon="1.81744">
        <ele>5.8</ele>
        <time>2022-04-22T15:56:44Z</time>
      </trkpt>
      <trkpt lat="50.11072" lon="1.81744">
        <ele>5.8</ele>
        <time>2022-04-22T15:56:45Z</time>
      </trkpt>
      <trkpt lat="50.11072" lon="1.81744">
        <ele>5.8</ele>
        <time>2022-04-22T15:56:46Z</time>
      </trkpt>
      <trkpt lat="50.11072" lon="1.81744">
        <ele>5.8</ele>
        <time>2022-04-22T15:56:47Z</time>
      </trkpt>
      <trkpt lat="50.11072" lon="1.81744">
        <ele>5.8</ele>
        <time>2022-04-22T15:56:48Z</time>
      </trkpt>
      <trkpt lat="50.11072" lon="1.81744">
        <ele>5.8</ele>
        <time>2022-04-22T15:56:49Z</time>
      </trkpt>
      <trkpt lat="50.11072" lon="1.81744">
        <ele>5.8</ele>
        <time>2022-04-22T15:56:50Z</time>
      </trkpt>
      <trkpt lat="50.11072" lon="1.81744">
        <ele>5.8</ele>
        <time>2022-04-22T15:56:51Z</time>
      </trkpt>
      <trkpt lat="50.11072" lon="1.81744">
        <ele>5.8</ele>
        <time>2022-04-22T15:56:52Z</time>
      </trkpt>
      <trkpt lat="50.11072" lon="1.81744">
        <ele>5.8</ele>
        <time>2022-04-22T15:56:53Z</time>
      </trkpt>
      <trkpt lat="50.11072" lon="1.81744">
        <ele>5.8</ele>
        <time>2022-04-22T15:56:54Z</time>
      </trkpt>
      <trkpt lat="50.11072" lon="1.81744">
        <ele>5.8</ele>
        <time>2022-04-22T15:56:55Z</time>
      </trkpt>
      <trkpt lat="50.11072" lon="1.81744">
        <ele>5.8</ele>
        <time>2022-04-22T15:56:56Z</time>
      </trkpt>
      <trkpt lat="50.11072" lon="1.81744">
        <ele>5.8</ele>
        <time>2022-04-22T15:56:57Z</time>
      </trkpt>
      <trkpt lat="50.11072" lon="1.81744">
        <ele>5.8</ele>
        <time>2022-04-22T15:56:58Z</time>
      </trkpt>
      <trkpt lat="50.11072" lon="1.81744">
        <ele>5.8</ele>
        <time>2022-04-22T15:56:59Z</time>
      </trkpt>
      <trkpt lat="50.11072" lon="1.81744">
        <ele>5.8</ele>
        <time>2022-04-22T15:57:00Z</time>
      </trkpt>
      <trkpt lat="50.11072" lon="1.81744">
        <ele>5.8</ele>
        <time>2022-04-22T15:57:01Z</time>
      </trkpt>
      <trkpt lat="50.11072" lon="1.81744">
        <ele>5.8</ele>
        <time>2022-04-22T15:57:02Z</time>
      </trkpt>
      <trkpt lat="50.11072" lon="1.81744">
        <ele>5.8</ele>
        <time>2022-04-22T15:57:03Z</time>
      </trkpt>
      <trkpt lat="50.11072" lon="1.81744">
        <ele>5.8</ele>
        <time>2022-04-22T15:57:04Z</time>
      </trkpt>
      <trkpt lat="50.11072" lon="1.81744">
        <ele>5.8</ele>
        <time>2022-04-22T15:57:05Z</time>
      </trkpt>
      <trkpt lat="50.11072" lon="1.81744">
        <ele>5.8</ele>
        <time>2022-04-22T15:57:06Z</time>
      </trkpt>
      <trkpt lat="50.11072" lon="1.81744">
        <ele>5.8</ele>
        <time>2022-04-22T15:57:07Z</time>
      </trkpt>
      <trkpt lat="50.11072" lon="1.81744">
        <ele>5.8</ele>
        <time>2022-04-22T15:57:08Z</time>
      </trkpt>
      <trkpt lat="50.11072" lon="1.81744">
        <ele>5.8</ele>
        <time>2022-04-22T15:57:09Z</time>
      </trkpt>
      <trkpt lat="50.11072" lon="1.81744">
        <ele>5.8</ele>
        <time>2022-04-22T15:57:10Z</time>
      </trkpt>
      <trkpt lat="50.11072" lon="1.81744">
        <ele>5.8</ele>
        <time>2022-04-22T15:57:11Z</time>
      </trkpt>
      <trkpt lat="50.11072" lon="1.81744">
        <ele>5.8</ele>
        <time>2022-04-22T15:57:12Z</time>
      </trkpt>
      <trkpt lat="50.11072" lon="1.81744">
        <ele>5.8</ele>
        <time>2022-04-22T15:57:13Z</time>
      </trkpt>
      <trkpt lat="50.11072" lon="1.81744">
        <ele>5.8</ele>
        <time>2022-04-22T15:57:14Z</time>
      </trkpt>
      <trkpt lat="50.11072" lon="1.81744">
        <ele>5.8</ele>
        <time>2022-04-22T15:57:15Z</time>
      </trkpt>
      <trkpt lat="50.11072" lon="1.81744">
        <ele>5.8</ele>
        <time>2022-04-22T15:57:16Z</time>
      </trkpt>
      <trkpt lat="50.11072" lon="1.81744">
        <ele>5.8</ele>
        <time>2022-04-22T15:57:17Z</time>
      </trkpt>
      <trkpt lat="50.11072" lon="1.81744">
        <ele>5.8</ele>
        <time>2022-04-22T15:57:18Z</time>
      </trkpt>
      <trkpt lat="50.11072" lon="1.81744">
        <ele>5.8</ele>
        <time>2022-04-22T15:57:19Z</time>
      </trkpt>
      <trkpt lat="50.11072" lon="1.81744">
        <ele>5.8</ele>
        <time>2022-04-22T15:57:20Z</time>
      </trkpt>
      <trkpt lat="50.11072" lon="1.81744">
        <ele>5.8</ele>
        <time>2022-04-22T15:57:21Z</time>
      </trkpt>
      <trkpt lat="50.11072" lon="1.81744">
        <ele>5.8</ele>
        <time>2022-04-22T15:57:22Z</time>
      </trkpt>
      <trkpt lat="50.11072" lon="1.81744">
        <ele>5.8</ele>
        <time>2022-04-22T15:57:23Z</time>
      </trkpt>
      <trkpt lat="50.11072" lon="1.81744">
        <ele>5.8</ele>
        <time>2022-04-22T15:57:24Z</time>
      </trkpt>
      <trkpt lat="50.11072" lon="1.81744">
        <ele>5.8</ele>
        <time>2022-04-22T15:57:25Z</time>
      </trkpt>
      <trkpt lat="50.11072" lon="1.81744">
        <ele>5.8</ele>
        <time>2022-04-22T15:57:26Z</time>
      </trkpt>
      <trkpt lat="50.11072" lon="1.81744">
        <ele>5.8</ele>
        <time>2022-04-22T15:57:27Z</time>
      </trkpt>
      <trkpt lat="50.11072" lon="1.81744">
        <ele>5.8</ele>
        <time>2022-04-22T15:57:28Z</time>
      </trkpt>
      <trkpt lat="50.11072" lon="1.81744">
        <ele>5.8</ele>
        <time>2022-04-22T15:57:29Z</time>
      </trkpt>
      <trkpt lat="50.11072" lon="1.81744">
        <ele>5.8</ele>
        <time>2022-04-22T15:57:30Z</time>
      </trkpt>
      <trkpt lat="50.11072" lon="1.81744">
        <ele>5.8</ele>
        <time>2022-04-22T15:57:31Z</time>
      </trkpt>
    </trkseg>
  </trk>
</gpx>